<?xml version='1.0' encoding='UTF-8'?><gpx version="1.1" creator="JPX - https://github.com/jenetics/jpx" xmlns="http://www.topografix.com/GPX/1/1"><trk><trkseg><trkpt lat="45.96010018118914" lon="12.607486002056692"><ele>30.0</ele><time>2026-03-30T07:19:05.138Z</time></trkpt><trkpt lat="45.9601635739517" lon="12.607473268095722"><ele>30.0</ele><time>2026-03-30T07:19:07.138Z</time></trkpt><trkpt lat="45.96022990624808" lon="12.607467659452908"><ele>30.0</ele><time>2026-03-30T07:19:19.016Z</time></trkpt><trkpt lat="45.96015651495222" lon="12.60746567971761"><ele>30.0</ele><time>2026-03-30T07:25:57Z</time></trkpt><trkpt lat="45.96013028656334" lon="12.607380385540242"><ele>30.0</ele><time>2026-03-30T07:25:59Z</time></trkpt><trkpt lat="45.960112812418735" lon="12.607260331329533"><ele>30.0</ele><time>2026-03-30T07:26:01Z</time></trkpt><trkpt lat="45.96009866854184" lon="12.607139063980686"><ele>30.0</ele><time>2026-03-30T07:26:03Z</time></trkpt><trkpt lat="45.96007605668477" lon="12.607050691346453"><ele>30.0</ele><time>2026-03-30T07:26:06Z</time></trkpt><trkpt lat="45.96018246104896" lon="12.606946282421672"><ele>30.0</ele><time>2026-03-30T07:26:11Z</time></trkpt><trkpt lat="45.960304147172224" lon="12.606880112418569"><ele>30.0</ele><time>2026-03-30T07:26:13Z</time></trkpt><trkpt lat="45.9604121678056" lon="12.606803038642973"><ele>30.0</ele><time>2026-03-30T07:26:14.999Z</time></trkpt><trkpt lat="45.960480557362395" lon="12.606762410816302"><ele>30.0</ele><time>2026-03-30T07:26:15.999Z</time></trkpt><trkpt lat="45.960531088736566" lon="12.606691208161385"><ele>30.0</ele><time>2026-03-30T07:26:16.999Z</time></trkpt><trkpt lat="45.96056966115541" lon="12.606600537008541"><ele>30.0</ele><time>2026-03-30T07:26:17.999Z</time></trkpt><trkpt lat="45.96059660931942" lon="12.606498928702916"><ele>30.0</ele><time>2026-03-30T07:26:18.999Z</time></trkpt><trkpt lat="45.96061069629189" lon="12.606382432843857"><ele>30.0</ele><time>2026-03-30T07:26:19.999Z</time></trkpt><trkpt lat="45.96061919295921" lon="12.60625933372904"><ele>30.0</ele><time>2026-03-30T07:26:20.999Z</time></trkpt><trkpt lat="45.96064135609373" lon="12.606145365278405"><ele>30.0</ele><time>2026-03-30T07:26:21.999Z</time></trkpt><trkpt lat="45.960648085253794" lon="12.606026514820611"><ele>30.0</ele><time>2026-03-30T07:26:22.999Z</time></trkpt><trkpt lat="45.96063196453459" lon="12.605889988926773"><ele>30.0</ele><time>2026-03-30T07:26:23.999Z</time></trkpt><trkpt lat="45.96062380761945" lon="12.605764716780753"><ele>30.0</ele><time>2026-03-30T07:26:24.999Z</time></trkpt><trkpt lat="45.960600887516456" lon="12.605635473695655"><ele>30.0</ele><time>2026-03-30T07:26:25.999Z</time></trkpt><trkpt lat="45.96049797707334" lon="12.605268980773563"><ele>30.2</ele><time>2026-03-30T07:26:28.999Z</time></trkpt><trkpt lat="45.96046949503714" lon="12.60514038589803"><ele>30.4</ele><time>2026-03-30T07:26:29.999Z</time></trkpt><trkpt lat="45.96044137596083" lon="12.605010721442476"><ele>30.6</ele><time>2026-03-30T07:26:30.999Z</time></trkpt><trkpt lat="45.960432266491196" lon="12.604887745108668"><ele>30.8</ele><time>2026-03-30T07:26:31.999Z</time></trkpt><trkpt lat="45.96041748018175" lon="12.604791651917626"><ele>31.0</ele><time>2026-03-30T07:26:32.999Z</time></trkpt><trkpt lat="45.96053109283827" lon="12.60462481315195"><ele>31.000000000000004</ele><time>2026-03-30T07:26:34.999Z</time></trkpt><trkpt lat="45.96059359797358" lon="12.60457255927262"><ele>31.0</ele><time>2026-03-30T07:26:35.999Z</time></trkpt><trkpt lat="45.960664964877274" lon="12.604538965520646"><ele>31.0</ele><time>2026-03-30T07:26:36.999Z</time></trkpt><trkpt lat="45.96073955978524" lon="12.604508164373367"><ele>31.0</ele><time>2026-03-30T07:26:37.999Z</time></trkpt><trkpt lat="45.960816167957894" lon="12.60447110100478"><ele>31.000000000000004</ele><time>2026-03-30T07:26:38.999Z</time></trkpt><trkpt lat="45.960894476502304" lon="12.604432679048616"><ele>31.0</ele><time>2026-03-30T07:26:39.999Z</time></trkpt><trkpt lat="45.960975585323176" lon="12.604393622638817"><ele>30.666666666666668</ele><time>2026-03-30T07:26:40.999Z</time></trkpt><trkpt lat="45.961056933043224" lon="12.604350375593686"><ele>30.333333333333336</ele><time>2026-03-30T07:26:41.999Z</time></trkpt><trkpt lat="45.96114010009894" lon="12.604307024632748"><ele>30.0</ele><time>2026-03-30T07:26:42.999Z</time></trkpt><trkpt lat="45.96122549356264" lon="12.604260487670789"><ele>29.666666666666664</ele><time>2026-03-30T07:26:43.999Z</time></trkpt><trkpt lat="45.96131031205526" lon="12.604218445274023"><ele>29.333333333333332</ele><time>2026-03-30T07:26:44.999Z</time></trkpt><trkpt lat="45.961400893147975" lon="12.60419170923154"><ele>29.0</ele><time>2026-03-30T07:26:45.999Z</time></trkpt><trkpt lat="45.961491950054345" lon="12.604178701672142"><ele>29.0</ele><time>2026-03-30T07:26:46.999Z</time></trkpt><trkpt lat="45.96158588332531" lon="12.604174673672128"><ele>29.0</ele><time>2026-03-30T07:26:47.999Z</time></trkpt><trkpt lat="45.96167965854723" lon="12.604169091937788"><ele>29.0</ele><time>2026-03-30T07:26:48.999Z</time></trkpt><trkpt lat="45.96177396416537" lon="12.60414895983152"><ele>29.0</ele><time>2026-03-30T07:26:49.999Z</time></trkpt><trkpt lat="45.961867979105506" lon="12.604113210524128"><ele>29.0</ele><time>2026-03-30T07:26:50.999Z</time></trkpt><trkpt lat="45.96195791636802" lon="12.60406538498704"><ele>29.2</ele><time>2026-03-30T07:26:51.999Z</time></trkpt><trkpt lat="45.96204887513947" lon="12.604009216516976"><ele>29.4</ele><time>2026-03-30T07:26:52.999Z</time></trkpt><trkpt lat="45.96213502875022" lon="12.603943391293983"><ele>29.6</ele><time>2026-03-30T07:26:53.999Z</time></trkpt><trkpt lat="45.96221979788719" lon="12.603868728394257"><ele>29.8</ele><time>2026-03-30T07:26:54.999Z</time></trkpt><trkpt lat="45.96230401550227" lon="12.603796986572995"><ele>30.0</ele><time>2026-03-30T07:26:55.999Z</time></trkpt><trkpt lat="45.962394555592155" lon="12.60373779374929"><ele>30.4</ele><time>2026-03-30T07:26:56.999Z</time></trkpt><trkpt lat="45.96247543201088" lon="12.603656909327109"><ele>30.8</ele><time>2026-03-30T07:26:57.999Z</time></trkpt><trkpt lat="45.96256276844698" lon="12.603583755452156"><ele>31.200000000000003</ele><time>2026-03-30T07:26:58.999Z</time></trkpt><trkpt lat="45.96264853038296" lon="12.603514311684306"><ele>31.6</ele><time>2026-03-30T07:26:59.999Z</time></trkpt><trkpt lat="45.96273442107671" lon="12.603447198156754"><ele>32.0</ele><time>2026-03-30T07:27:00.999Z</time></trkpt><trkpt lat="45.96282038545141" lon="12.603388454028506"><ele>32.2</ele><time>2026-03-30T07:27:01.999Z</time></trkpt><trkpt lat="45.962910789137844" lon="12.603344392802455"><ele>32.400000000000006</ele><time>2026-03-30T07:27:02.999Z</time></trkpt><trkpt lat="45.96300239919125" lon="12.603308518345154"><ele>32.599999999999994</ele><time>2026-03-30T07:27:03.999Z</time></trkpt><trkpt lat="45.963093192661226" lon="12.60326604274964"><ele>32.8</ele><time>2026-03-30T07:27:04.999Z</time></trkpt><trkpt lat="45.963186322502104" lon="12.603228564236826"><ele>33.0</ele><time>2026-03-30T07:27:05.999Z</time></trkpt><trkpt lat="45.96328417938802" lon="12.603193044374438"><ele>33.199999999999996</ele><time>2026-03-30T07:27:06.999Z</time></trkpt><trkpt lat="45.96337557850135" lon="12.603158023263896"><ele>33.4</ele><time>2026-03-30T07:27:07.999Z</time></trkpt><trkpt lat="45.96347274922755" lon="12.603121109357819"><ele>33.599999999999994</ele><time>2026-03-30T07:27:08.999Z</time></trkpt><trkpt lat="45.96356753026071" lon="12.603084057004589"><ele>33.8</ele><time>2026-03-30T07:27:09.999Z</time></trkpt><trkpt lat="45.963667630713836" lon="12.603055174160426"><ele>34.0</ele><time>2026-03-30T07:27:10.999Z</time></trkpt><trkpt lat="45.963767548578936" lon="12.603035859210458"><ele>34.0</ele><time>2026-03-30T07:27:11.999Z</time></trkpt><trkpt lat="45.96386802761921" lon="12.603026803123232"><ele>34.0</ele><time>2026-03-30T07:27:12.999Z</time></trkpt><trkpt lat="45.96396975744274" lon="12.603023528106748"><ele>34.0</ele><time>2026-03-30T07:27:13.999Z</time></trkpt><trkpt lat="45.96406984452216" lon="12.603037885584953"><ele>34.0</ele><time>2026-03-30T07:27:14.999Z</time></trkpt><trkpt lat="45.96417063989648" lon="12.603055399161724"><ele>34.0</ele><time>2026-03-30T07:27:15.999Z</time></trkpt><trkpt lat="45.96426958176379" lon="12.60306726242753"><ele>34.2</ele><time>2026-03-30T07:27:16.999Z</time></trkpt><trkpt lat="45.964370582610236" lon="12.603082479815216"><ele>34.4</ele><time>2026-03-30T07:27:17.999Z</time></trkpt><trkpt lat="45.964473060650654" lon="12.603093149572716"><ele>34.6</ele><time>2026-03-30T07:27:18.999Z</time></trkpt><trkpt lat="45.9645743004267" lon="12.603103802052827"><ele>34.8</ele><time>2026-03-30T07:27:19.999Z</time></trkpt><trkpt lat="45.964675214693926" lon="12.603115589457591"><ele>35.0</ele><time>2026-03-30T07:27:20.999Z</time></trkpt><trkpt lat="45.96477598894354" lon="12.603130523392869"><ele>35.0</ele><time>2026-03-30T07:27:21.999Z</time></trkpt><trkpt lat="45.96487398704099" lon="12.603145268452149"><ele>35.0</ele><time>2026-03-30T07:27:22.999Z</time></trkpt><trkpt lat="45.96497096145483" lon="12.603156501783461"><ele>35.0</ele><time>2026-03-30T07:27:23.999Z</time></trkpt><trkpt lat="45.96506716556097" lon="12.603167516663895"><ele>35.0</ele><time>2026-03-30T07:27:24.999Z</time></trkpt><trkpt lat="45.965161869590105" lon="12.603175722900511"><ele>35.0</ele><time>2026-03-30T07:27:25.999Z</time></trkpt><trkpt lat="45.96525719435637" lon="12.60318613805917"><ele>35.0</ele><time>2026-03-30T07:27:26.999Z</time></trkpt><trkpt lat="45.96535127460947" lon="12.60319743454577"><ele>35.0</ele><time>2026-03-30T07:27:27.999Z</time></trkpt><trkpt lat="45.96544450354987" lon="12.603209218599755"><ele>35.0</ele><time>2026-03-30T07:27:28.999Z</time></trkpt><trkpt lat="45.96553769547146" lon="12.603215155809806"><ele>35.0</ele><time>2026-03-30T07:27:29.999Z</time></trkpt><trkpt lat="45.96563059914414" lon="12.603224300143774"><ele>35.0</ele><time>2026-03-30T07:27:30.999Z</time></trkpt><trkpt lat="45.965723530567544" lon="12.603234316869582"><ele>35.0</ele><time>2026-03-30T07:27:31.998Z</time></trkpt><trkpt lat="45.96581143967579" lon="12.603239392968955"><ele>35.0</ele><time>2026-03-30T07:27:32.998Z</time></trkpt><trkpt lat="45.96590656282986" lon="12.603232467813589"><ele>35.0</ele><time>2026-03-30T07:27:34Z</time></trkpt><trkpt lat="45.9660022168994" lon="12.603227666459107"><ele>35.0</ele><time>2026-03-30T07:27:35Z</time></trkpt><trkpt lat="45.96609364731787" lon="12.603212928565268"><ele>35.0</ele><time>2026-03-30T07:27:36Z</time></trkpt><trkpt lat="45.96618574899924" lon="12.603194337186379"><ele>35.4</ele><time>2026-03-30T07:27:37Z</time></trkpt><trkpt lat="45.966278175919676" lon="12.603179025410467"><ele>35.8</ele><time>2026-03-30T07:27:38Z</time></trkpt><trkpt lat="45.966367819555195" lon="12.603160544614614"><ele>36.2</ele><time>2026-03-30T07:27:39Z</time></trkpt><trkpt lat="45.96646527325642" lon="12.603142979364138"><ele>36.6</ele><time>2026-03-30T07:27:40Z</time></trkpt><trkpt lat="45.96655693641862" lon="12.603125881121533"><ele>37.0</ele><time>2026-03-30T07:27:41Z</time></trkpt><trkpt lat="45.96664954162538" lon="12.603107258847821"><ele>37.2</ele><time>2026-03-30T07:27:42Z</time></trkpt><trkpt lat="45.96674163628518" lon="12.603090588685445"><ele>37.400000000000006</ele><time>2026-03-30T07:27:43Z</time></trkpt><trkpt lat="45.966836020029454" lon="12.603078136161328"><ele>37.599999999999994</ele><time>2026-03-30T07:27:44Z</time></trkpt><trkpt lat="45.966926802464876" lon="12.603065138576516"><ele>37.8</ele><time>2026-03-30T07:27:45Z</time></trkpt><trkpt lat="45.967020480981176" lon="12.603055639947375"><ele>38.0</ele><time>2026-03-30T07:27:46Z</time></trkpt><trkpt lat="45.967116516075365" lon="12.603045634228431"><ele>38.0</ele><time>2026-03-30T07:27:47Z</time></trkpt><trkpt lat="45.967217069563894" lon="12.603037604940738"><ele>38.0</ele><time>2026-03-30T07:27:48Z</time></trkpt><trkpt lat="45.96731228052962" lon="12.603024087178492"><ele>38.0</ele><time>2026-03-30T07:27:49Z</time></trkpt><trkpt lat="45.96740210030923" lon="12.603009360427771"><ele>38.0</ele><time>2026-03-30T07:27:50Z</time></trkpt><trkpt lat="45.967492015331956" lon="12.603027733465579"><ele>38.0</ele><time>2026-03-30T07:27:51Z</time></trkpt><trkpt lat="45.967587115096805" lon="12.60305169750181"><ele>38.33333333333333</ele><time>2026-03-30T07:27:52Z</time></trkpt><trkpt lat="45.9676527566421" lon="12.60306944974319"><ele>38.666666666666664</ele><time>2026-03-30T07:27:53Z</time></trkpt><trkpt lat="45.967741219026955" lon="12.603075582660177"><ele>39.0</ele><time>2026-03-30T07:27:54Z</time></trkpt><trkpt lat="45.967819701769095" lon="12.603110701821118"><ele>39.333333333333336</ele><time>2026-03-30T07:27:55Z</time></trkpt><trkpt lat="45.96788718616043" lon="12.60312489285118"><ele>39.66666666666667</ele><time>2026-03-30T07:27:56Z</time></trkpt><trkpt lat="45.96798300357512" lon="12.603143130303975"><ele>40.0</ele><time>2026-03-30T07:27:57Z</time></trkpt><trkpt lat="45.96806530018258" lon="12.603164279613276"><ele>40.0</ele><time>2026-03-30T07:27:58Z</time></trkpt><trkpt lat="45.96814773322238" lon="12.603182670507776"><ele>40.0</ele><time>2026-03-30T07:27:59Z</time></trkpt><trkpt lat="45.968242212998625" lon="12.60320247588293"><ele>40.0</ele><time>2026-03-30T07:28:00Z</time></trkpt><trkpt lat="45.96833602524767" lon="12.603211824682838"><ele>40.0</ele><time>2026-03-30T07:28:01Z</time></trkpt><trkpt lat="45.96843497390896" lon="12.603233020263803"><ele>40.0</ele><time>2026-03-30T07:28:02Z</time></trkpt><trkpt lat="45.968540244524895" lon="12.60324137879713"><ele>40.0</ele><time>2026-03-30T07:28:03Z</time></trkpt><trkpt lat="45.96864442086313" lon="12.603250353802455"><ele>40.0</ele><time>2026-03-30T07:28:04Z</time></trkpt><trkpt lat="45.96875151840951" lon="12.603275729943503"><ele>40.0</ele><time>2026-03-30T07:28:05Z</time></trkpt><trkpt lat="45.96886007465773" lon="12.603286738301595"><ele>40.0</ele><time>2026-03-30T07:28:06Z</time></trkpt><trkpt lat="45.96897149216206" lon="12.603306939416163"><ele>40.0</ele><time>2026-03-30T07:28:07Z</time></trkpt><trkpt lat="45.96908225474584" lon="12.603333076799162"><ele>40.0</ele><time>2026-03-30T07:28:08Z</time></trkpt><trkpt lat="45.96917112408685" lon="12.603353994196716"><ele>40.0</ele><time>2026-03-30T07:28:09Z</time></trkpt><trkpt lat="45.96924606811976" lon="12.603376791575576"><ele>40.0</ele><time>2026-03-30T07:28:10Z</time></trkpt><trkpt lat="45.96932864304959" lon="12.603397358344672"><ele>40.0</ele><time>2026-03-30T07:28:11.999Z</time></trkpt><trkpt lat="45.969467111128615" lon="12.603380915671845"><ele>40.0</ele><time>2026-03-30T07:29:36.998Z</time></trkpt><trkpt lat="45.96957566706937" lon="12.603357705937409"><ele>40.0</ele><time>2026-03-30T07:29:37.998Z</time></trkpt><trkpt lat="45.96967237443588" lon="12.603340914608125"><ele>40.0</ele><time>2026-03-30T07:29:38.998Z</time></trkpt><trkpt lat="45.969762405042125" lon="12.603333267435913"><ele>40.0</ele><time>2026-03-30T07:29:40Z</time></trkpt><trkpt lat="45.969847730023545" lon="12.603336104986322"><ele>40.0</ele><time>2026-03-30T07:29:41Z</time></trkpt><trkpt lat="45.96992550401349" lon="12.60334078626445"><ele>40.0</ele><time>2026-03-30T07:29:42Z</time></trkpt><trkpt lat="45.969998911536905" lon="12.603342330235261"><ele>40.0</ele><time>2026-03-30T07:29:43Z</time></trkpt><trkpt lat="45.97007702688565" lon="12.603344495924876"><ele>40.0</ele><time>2026-03-30T07:29:44Z</time></trkpt><trkpt lat="45.97016312828663" lon="12.603351942938573"><ele>40.0</ele><time>2026-03-30T07:29:45Z</time></trkpt><trkpt lat="45.97024080465542" lon="12.60336054552814"><ele>40.0</ele><time>2026-03-30T07:29:46Z</time></trkpt><trkpt lat="45.970325485049436" lon="12.603368213895125"><ele>40.0</ele><time>2026-03-30T07:29:47Z</time></trkpt><trkpt lat="45.97041695643463" lon="12.60338263218529"><ele>40.0</ele><time>2026-03-30T07:29:48Z</time></trkpt><trkpt lat="45.9705154191451" lon="12.603404128241156"><ele>40.0</ele><time>2026-03-30T07:29:49Z</time></trkpt><trkpt lat="45.97061306305093" lon="12.603431121257017"><ele>40.0</ele><time>2026-03-30T07:29:50Z</time></trkpt><trkpt lat="45.970708326685084" lon="12.603457242361612"><ele>40.0</ele><time>2026-03-30T07:29:51Z</time></trkpt><trkpt lat="45.9708080102429" lon="12.603485009095083"><ele>40.0</ele><time>2026-03-30T07:29:52Z</time></trkpt><trkpt lat="45.970911524637884" lon="12.603513228826934"><ele>40.0</ele><time>2026-03-30T07:29:53Z</time></trkpt><trkpt lat="45.97101420038744" lon="12.603541957043442"><ele>40.0</ele><time>2026-03-30T07:29:54Z</time></trkpt><trkpt lat="45.971104433579406" lon="12.60357100725573"><ele>40.5</ele><time>2026-03-30T07:29:55Z</time></trkpt><trkpt lat="45.971186799715966" lon="12.60359796911122"><ele>41.0</ele><time>2026-03-30T07:29:56Z</time></trkpt><trkpt lat="45.97126350640556" lon="12.60362200341563"><ele>41.5</ele><time>2026-03-30T07:29:57Z</time></trkpt><trkpt lat="45.971337228352205" lon="12.603650662562039"><ele>42.0</ele><time>2026-03-30T07:29:58Z</time></trkpt><trkpt lat="45.971449186123316" lon="12.603687501535838"><ele>42.5</ele><time>2026-03-30T07:30:00Z</time></trkpt><trkpt lat="45.971524134369325" lon="12.60368850315135"><ele>43.0</ele><time>2026-03-30T07:30:02Z</time></trkpt><trkpt lat="45.97152096598719" lon="12.603513046598188"><ele>43.16666666666667</ele><time>2026-03-30T07:30:03Z</time></trkpt><trkpt lat="45.9715072042647" lon="12.603421210801141"><ele>43.333333333333336</ele><time>2026-03-30T07:30:04Z</time></trkpt><trkpt lat="45.97150924925803" lon="12.603312481054001"><ele>43.5</ele><time>2026-03-30T07:30:05Z</time></trkpt><trkpt lat="45.971519456338385" lon="12.603191121888432"><ele>43.666666666666664</ele><time>2026-03-30T07:30:06Z</time></trkpt><trkpt lat="45.971533056461915" lon="12.603071484627879"><ele>43.83333333333333</ele><time>2026-03-30T07:30:07Z</time></trkpt><trkpt lat="45.971543350853224" lon="12.60296927737282"><ele>44.0</ele><time>2026-03-30T07:30:08Z</time></trkpt><trkpt lat="45.971580992211486" lon="12.602851888668015"><ele>44.0</ele><time>2026-03-30T07:30:10Z</time></trkpt><trkpt lat="45.97173525655288" lon="12.602819949930632"><ele>44.0</ele><time>2026-03-30T07:30:13Z</time></trkpt><trkpt lat="45.97181385494293" lon="12.602844605806169"><ele>44.0</ele><time>2026-03-30T07:30:14Z</time></trkpt><trkpt lat="45.971897134600866" lon="12.602869605684589"><ele>44.0</ele><time>2026-03-30T07:30:15Z</time></trkpt><trkpt lat="45.97197589867038" lon="12.602889041609666"><ele>44.0</ele><time>2026-03-30T07:30:16Z</time></trkpt><trkpt lat="45.97205469659778" lon="12.602904508377883"><ele>44.0</ele><time>2026-03-30T07:30:17Z</time></trkpt><trkpt lat="45.97213516949852" lon="12.602918526431012"><ele>44.0</ele><time>2026-03-30T07:30:18Z</time></trkpt><trkpt lat="45.97221621537522" lon="12.602929178311362"><ele>44.0</ele><time>2026-03-30T07:30:19Z</time></trkpt><trkpt lat="45.97228764591453" lon="12.602935739390789"><ele>44.0</ele><time>2026-03-30T07:30:20Z</time></trkpt><trkpt lat="45.97235750863354" lon="12.602956057837948"><ele>44.0</ele><time>2026-03-30T07:30:21.999Z</time></trkpt><trkpt lat="45.97238188965338" lon="12.602747817749265"><ele>44.0</ele><time>2026-03-30T07:30:22.999Z</time></trkpt><trkpt lat="45.97237854549424" lon="12.602639962798598"><ele>44.0</ele><time>2026-03-30T07:30:23.999Z</time></trkpt><trkpt lat="45.97239837706197" lon="12.602522464586846"><ele>44.0</ele><time>2026-03-30T07:30:24.999Z</time></trkpt><trkpt lat="45.97239531945994" lon="12.602385952824568"><ele>44.0</ele><time>2026-03-30T07:30:25.999Z</time></trkpt><trkpt lat="45.97241383317285" lon="12.60224206089901"><ele>44.0</ele><time>2026-03-30T07:30:26.999Z</time></trkpt><trkpt lat="45.972426737565605" lon="12.602089470096589"><ele>44.0</ele><time>2026-03-30T07:30:27.999Z</time></trkpt><trkpt lat="45.972436996662964" lon="12.60194097245792"><ele>44.0</ele><time>2026-03-30T07:30:28.999Z</time></trkpt><trkpt lat="45.97244887102944" lon="12.601813050671149"><ele>44.0</ele><time>2026-03-30T07:30:29.999Z</time></trkpt><trkpt lat="45.972458680912986" lon="12.601701058260408"><ele>44.0</ele><time>2026-03-30T07:30:30.999Z</time></trkpt><trkpt lat="45.972466888298776" lon="12.601602585258558"><ele>44.0</ele><time>2026-03-30T07:30:31.999Z</time></trkpt><trkpt lat="45.972504254871254" lon="12.601480537167813"><ele>44.0</ele><time>2026-03-30T07:30:33.999Z</time></trkpt><trkpt lat="45.9725729690369" lon="12.601503662472256"><ele>44.0</ele><time>2026-03-30T07:30:36.999Z</time></trkpt><trkpt lat="45.97259541435991" lon="12.601352791203464"><ele>44.0</ele><time>2026-03-30T07:30:38.999Z</time></trkpt><trkpt lat="45.9726089400289" lon="12.601263274832311"><ele>44.0</ele><time>2026-03-30T07:30:39.999Z</time></trkpt><trkpt lat="45.97261830626958" lon="12.601168399563651"><ele>44.0</ele><time>2026-03-30T07:30:40.999Z</time></trkpt><trkpt lat="45.97262917902485" lon="12.601045720369482"><ele>44.0</ele><time>2026-03-30T07:30:41.999Z</time></trkpt><trkpt lat="45.97264008322107" lon="12.60091894128214"><ele>44.0</ele><time>2026-03-30T07:30:42.999Z</time></trkpt><trkpt lat="45.97265091318728" lon="12.600793025343119"><ele>44.2</ele><time>2026-03-30T07:30:43.999Z</time></trkpt><trkpt lat="45.97266317566613" lon="12.600663029755928"><ele>44.400000000000006</ele><time>2026-03-30T07:30:44.999Z</time></trkpt><trkpt lat="45.9726611147204" lon="12.600525152935251"><ele>44.6</ele><time>2026-03-30T07:30:45.999Z</time></trkpt><trkpt lat="45.97267741381089" lon="12.600391550431677"><ele>44.8</ele><time>2026-03-30T07:30:46.999Z</time></trkpt><trkpt lat="45.972692184088096" lon="12.600256939294201"><ele>45.0</ele><time>2026-03-30T07:30:47.999Z</time></trkpt><trkpt lat="45.972704326975595" lon="12.600113837725933"><ele>45.0</ele><time>2026-03-30T07:30:48.999Z</time></trkpt><trkpt lat="45.97272057540056" lon="12.599959305570492"><ele>45.0</ele><time>2026-03-30T07:30:49.999Z</time></trkpt><trkpt lat="45.97273838432328" lon="12.599814248902316"><ele>45.0</ele><time>2026-03-30T07:30:50.999Z</time></trkpt><trkpt lat="45.972753266919625" lon="12.59969697119661"><ele>45.0</ele><time>2026-03-30T07:30:51.999Z</time></trkpt><trkpt lat="45.97276522472786" lon="12.599572560722198"><ele>45.0</ele><time>2026-03-30T07:30:52.999Z</time></trkpt><trkpt lat="45.972775560443104" lon="12.599461835545554"><ele>45.0</ele><time>2026-03-30T07:30:53.999Z</time></trkpt><trkpt lat="45.97280698523175" lon="12.599328838972232"><ele>45.0</ele><time>2026-03-30T07:30:55.999Z</time></trkpt><trkpt lat="45.972985400531044" lon="12.599295406800866"><ele>45.0</ele><time>2026-03-30T07:30:59.999Z</time></trkpt><trkpt lat="45.97307200205795" lon="12.599330561614172"><ele>45.0</ele><time>2026-03-30T07:31:00.999Z</time></trkpt><trkpt lat="45.97317569431294" lon="12.59933406362443"><ele>45.0</ele><time>2026-03-30T07:31:02.999Z</time></trkpt><trkpt lat="45.9732717209805" lon="12.599363703436401"><ele>45.0</ele><time>2026-03-30T07:31:04.999Z</time></trkpt><trkpt lat="45.97333482789034" lon="12.599379590918337"><ele>45.0</ele><time>2026-03-30T07:31:05.999Z</time></trkpt><trkpt lat="45.973404851561604" lon="12.599395624102995"><ele>45.0</ele><time>2026-03-30T07:31:06.999Z</time></trkpt><trkpt lat="45.97347769501199" lon="12.599409961389206"><ele>45.0</ele><time>2026-03-30T07:31:07.999Z</time></trkpt><trkpt lat="45.9735648368794" lon="12.599448393878292"><ele>45.0</ele><time>2026-03-30T07:31:08.999Z</time></trkpt><trkpt lat="45.973672280262214" lon="12.599471897124802"><ele>45.0</ele><time>2026-03-30T07:31:09.999Z</time></trkpt><trkpt lat="45.97378112305581" lon="12.599496652354643"><ele>45.0</ele><time>2026-03-30T07:31:10.999Z</time></trkpt><trkpt lat="45.97389130812737" lon="12.59950566067562"><ele>45.0</ele><time>2026-03-30T07:31:11.999Z</time></trkpt><trkpt lat="45.97400164246444" lon="12.599583015903464"><ele>45.0</ele><time>2026-03-30T07:31:12.999Z</time></trkpt><trkpt lat="45.974111285118305" lon="12.599659389133834"><ele>46.0</ele><time>2026-03-30T07:31:13.999Z</time></trkpt><trkpt lat="45.97424282883306" lon="12.599765847945497"><ele>47.0</ele><time>2026-03-30T07:31:14.999Z</time></trkpt><trkpt lat="45.97435328286228" lon="12.599864661752482"><ele>48.0</ele><time>2026-03-30T07:31:15.999Z</time></trkpt><trkpt lat="45.9744788160141" lon="12.599945104773607"><ele>49.0</ele><time>2026-03-30T07:31:16.999Z</time></trkpt><trkpt lat="45.974597909639016" lon="12.599977794768307"><ele>49.0</ele><time>2026-03-30T07:31:17.999Z</time></trkpt><trkpt lat="45.97470305274269" lon="12.600017102845944"><ele>49.0</ele><time>2026-03-30T07:31:18.999Z</time></trkpt><trkpt lat="45.97481998140632" lon="12.600041777950446"><ele>49.0</ele><time>2026-03-30T07:31:19.999Z</time></trkpt><trkpt lat="45.97497317771128" lon="12.600049993023726"><ele>49.0</ele><time>2026-03-30T07:31:20.999Z</time></trkpt><trkpt lat="45.97514372861439" lon="12.600118144160158"><ele>48.666666666666664</ele><time>2026-03-30T07:31:21.999Z</time></trkpt><trkpt lat="45.9752511712539" lon="12.600237034872858"><ele>48.33333333333333</ele><time>2026-03-30T07:31:22.999Z</time></trkpt><trkpt lat="45.975456223575264" lon="12.600098932608525"><ele>48.0</ele><time>2026-03-30T07:31:23.999Z</time></trkpt><trkpt lat="45.97563014581764" lon="12.600144041140158"><ele>48.0</ele><time>2026-03-30T07:31:24.999Z</time></trkpt><trkpt lat="45.975826198084846" lon="12.600188208567841"><ele>48.0</ele><time>2026-03-30T07:31:25.999Z</time></trkpt><trkpt lat="45.97601321341641" lon="12.600242607986704"><ele>48.0</ele><time>2026-03-30T07:31:26.999Z</time></trkpt><trkpt lat="45.97618942044673" lon="12.600290903839236"><ele>48.0</ele><time>2026-03-30T07:31:27.999Z</time></trkpt><trkpt lat="45.976368228423844" lon="12.600328581306558"><ele>48.0</ele><time>2026-03-30T07:31:28.999Z</time></trkpt><trkpt lat="45.97655788021253" lon="12.60036766951453"><ele>48.0</ele><time>2026-03-30T07:31:29.999Z</time></trkpt><trkpt lat="45.97673449072714" lon="12.600407577855211"><ele>48.0</ele><time>2026-03-30T07:31:30.999Z</time></trkpt><trkpt lat="45.97690813934276" lon="12.6004515808383"><ele>48.0</ele><time>2026-03-30T07:31:31.999Z</time></trkpt><trkpt lat="45.97706466152509" lon="12.600492852479704"><ele>48.0</ele><time>2026-03-30T07:31:32.999Z</time></trkpt><trkpt lat="45.977222522757955" lon="12.60053588941416"><ele>48.0</ele><time>2026-03-30T07:31:33.999Z</time></trkpt><trkpt lat="45.97735910770386" lon="12.600570093233303"><ele>48.0</ele><time>2026-03-30T07:31:34.999Z</time></trkpt><trkpt lat="45.9774464662693" lon="12.600588106581109"><ele>48.0</ele><time>2026-03-30T07:31:35.999Z</time></trkpt><trkpt lat="45.977519616593476" lon="12.600585852120796"><ele>48.0</ele><time>2026-03-30T07:31:36.999Z</time></trkpt><trkpt lat="45.97762233367589" lon="12.600592786060917"><ele>48.0</ele><time>2026-03-30T07:31:37.999Z</time></trkpt><trkpt lat="45.97774374186493" lon="12.600602161743506"><ele>48.5</ele><time>2026-03-30T07:31:38.999Z</time></trkpt><trkpt lat="45.97788488707627" lon="12.60061318760267"><ele>49.0</ele><time>2026-03-30T07:31:39.999Z</time></trkpt><trkpt lat="45.97803894765875" lon="12.600622465116281"><ele>49.5</ele><time>2026-03-30T07:31:40.999Z</time></trkpt><trkpt lat="45.978163861489165" lon="12.600630057826036"><ele>50.0</ele><time>2026-03-30T07:31:41.999Z</time></trkpt><trkpt lat="45.9782743831559" lon="12.600639804239497"><ele>50.4</ele><time>2026-03-30T07:31:42.999Z</time></trkpt><trkpt lat="45.97836123088329" lon="12.600652700297804"><ele>50.8</ele><time>2026-03-30T07:31:43.999Z</time></trkpt><trkpt lat="45.97844352351558" lon="12.600659004077603"><ele>51.2</ele><time>2026-03-30T07:31:46Z</time></trkpt><trkpt lat="45.97853558627772" lon="12.600609368256906"><ele>51.6</ele><time>2026-03-30T07:31:48Z</time></trkpt><trkpt lat="45.978670749965495" lon="12.600638319117227"><ele>52.0</ele><time>2026-03-30T07:31:50Z</time></trkpt><trkpt lat="45.97876082077873" lon="12.600647253886113"><ele>52.0</ele><time>2026-03-30T07:31:51Z</time></trkpt><trkpt lat="45.97885800015136" lon="12.600661247177218"><ele>52.0</ele><time>2026-03-30T07:31:52Z</time></trkpt><trkpt lat="45.97896268820064" lon="12.600673084607337"><ele>52.0</ele><time>2026-03-30T07:31:53Z</time></trkpt><trkpt lat="45.97908327449186" lon="12.600685717488854"><ele>52.0</ele><time>2026-03-30T07:31:54Z</time></trkpt><trkpt lat="45.97920613082228" lon="12.60070208558409"><ele>52.0</ele><time>2026-03-30T07:31:55Z</time></trkpt><trkpt lat="45.97931610139856" lon="12.600718045237977"><ele>52.49999999999999</ele><time>2026-03-30T07:31:56Z</time></trkpt><trkpt lat="45.979408786258915" lon="12.600729511853306"><ele>53.0</ele><time>2026-03-30T07:31:57Z</time></trkpt><trkpt lat="45.97948990223719" lon="12.600739222007677"><ele>53.5</ele><time>2026-03-30T07:31:58Z</time></trkpt><trkpt lat="45.979554672792155" lon="12.600746076385697"><ele>54.0</ele><time>2026-03-30T07:31:59Z</time></trkpt><trkpt lat="45.97964078898662" lon="12.600742145094763"><ele>54.49999999999999</ele><time>2026-03-30T07:32:01Z</time></trkpt><trkpt lat="45.97966170063291" lon="12.600587439515516"><ele>55.0</ele><time>2026-03-30T07:32:03Z</time></trkpt><trkpt lat="45.979660497648155" lon="12.600430942307696"><ele>54.75</ele><time>2026-03-30T07:32:04Z</time></trkpt><trkpt lat="45.9796668262586" lon="12.600246345655227"><ele>54.5</ele><time>2026-03-30T07:32:05Z</time></trkpt><trkpt lat="45.97968394041293" lon="12.600067654967814"><ele>54.25</ele><time>2026-03-30T07:32:06Z</time></trkpt><trkpt lat="45.979705057779626" lon="12.599848957999525"><ele>54.0</ele><time>2026-03-30T07:32:07Z</time></trkpt><trkpt lat="45.97971870409972" lon="12.599616678028632"><ele>54.0</ele><time>2026-03-30T07:32:08Z</time></trkpt><trkpt lat="45.979730207486185" lon="12.599423631419612"><ele>54.00000000000001</ele><time>2026-03-30T07:32:09Z</time></trkpt><trkpt lat="45.979738723685855" lon="12.599258728814927"><ele>54.00000000000001</ele><time>2026-03-30T07:32:10Z</time></trkpt><trkpt lat="45.97974740354249" lon="12.59911482080345"><ele>54.0</ele><time>2026-03-30T07:32:11Z</time></trkpt><trkpt lat="45.979756797882374" lon="12.598994834555029"><ele>54.0</ele><time>2026-03-30T07:32:12Z</time></trkpt><trkpt lat="45.9797952344499" lon="12.598850002001111"><ele>54.0</ele><time>2026-03-30T07:32:14Z</time></trkpt><trkpt lat="45.97989930727214" lon="12.598809924425131"><ele>54.00000000000001</ele><time>2026-03-30T07:32:16Z</time></trkpt><trkpt lat="45.979977837546436" lon="12.5988322539347"><ele>54.00000000000001</ele><time>2026-03-30T07:32:17Z</time></trkpt><trkpt lat="45.980058946694214" lon="12.598851693436787"><ele>54.0</ele><time>2026-03-30T07:32:18Z</time></trkpt><trkpt lat="45.98014333045457" lon="12.598874621689406"><ele>54.0</ele><time>2026-03-30T07:32:19Z</time></trkpt><trkpt lat="45.98023823749391" lon="12.598907780897985"><ele>54.25</ele><time>2026-03-30T07:32:20Z</time></trkpt><trkpt lat="45.98034489240646" lon="12.598939002272704"><ele>54.5</ele><time>2026-03-30T07:32:21Z</time></trkpt><trkpt lat="45.980465476795246" lon="12.598973607413807"><ele>54.75</ele><time>2026-03-30T07:32:22Z</time></trkpt><trkpt lat="45.98060314086696" lon="12.599008979323541"><ele>55.0</ele><time>2026-03-30T07:32:23Z</time></trkpt><trkpt lat="45.98076201866159" lon="12.599043838008726"><ele>55.5</ele><time>2026-03-30T07:32:23.999Z</time></trkpt><trkpt lat="45.980925199428995" lon="12.599079903565496"><ele>56.0</ele><time>2026-03-30T07:32:24.999Z</time></trkpt><trkpt lat="45.98106266789689" lon="12.599113123791234"><ele>56.5</ele><time>2026-03-30T07:32:25.999Z</time></trkpt><trkpt lat="45.981184811240205" lon="12.599140834325082"><ele>57.0</ele><time>2026-03-30T07:32:26.999Z</time></trkpt><trkpt lat="45.981312008258485" lon="12.599163107487145"><ele>57.0</ele><time>2026-03-30T07:32:27.999Z</time></trkpt><trkpt lat="45.98143926333429" lon="12.599184343625671"><ele>57.0</ele><time>2026-03-30T07:32:28.999Z</time></trkpt><trkpt lat="45.98156308515555" lon="12.599217485296053"><ele>57.0</ele><time>2026-03-30T07:32:29.999Z</time></trkpt><trkpt lat="45.98167447864178" lon="12.599252384686567"><ele>57.0</ele><time>2026-03-30T07:32:30.999Z</time></trkpt><trkpt lat="45.98176408473147" lon="12.599280533368216"><ele>56.8</ele><time>2026-03-30T07:32:31.999Z</time></trkpt><trkpt lat="45.98184013263572" lon="12.59929696102754"><ele>56.6</ele><time>2026-03-30T07:32:32.999Z</time></trkpt><trkpt lat="45.98193698966453" lon="12.599277880935581"><ele>56.39999999999999</ele><time>2026-03-30T07:32:34.999Z</time></trkpt><trkpt lat="45.98198992863479" lon="12.599151945026092"><ele>56.199999999999996</ele><time>2026-03-30T07:32:36.999Z</time></trkpt><trkpt lat="45.98211145463561" lon="12.599078152070163"><ele>56.0</ele><time>2026-03-30T07:32:37.999Z</time></trkpt><trkpt lat="45.982154965326295" lon="12.59891419598634"><ele>56.0</ele><time>2026-03-30T07:32:38.999Z</time></trkpt><trkpt lat="45.982205951210105" lon="12.598729931433246"><ele>56.0</ele><time>2026-03-30T07:32:39.999Z</time></trkpt><trkpt lat="45.982256248893485" lon="12.598551978078447"><ele>56.0</ele><time>2026-03-30T07:32:40.999Z</time></trkpt><trkpt lat="45.98230717343551" lon="12.59837998318052"><ele>56.0</ele><time>2026-03-30T07:32:41.999Z</time></trkpt><trkpt lat="45.982362854374756" lon="12.59820017455653"><ele>56.0</ele><time>2026-03-30T07:32:42.999Z</time></trkpt><trkpt lat="45.982415357773185" lon="12.598037481616561"><ele>55.99999999999999</ele><time>2026-03-30T07:32:43.999Z</time></trkpt><trkpt lat="45.982458474864075" lon="12.597903874153523"><ele>55.99999999999999</ele><time>2026-03-30T07:32:44.999Z</time></trkpt><trkpt lat="45.98249168814573" lon="12.597799363526107"><ele>56.0</ele><time>2026-03-30T07:32:45.999Z</time></trkpt><trkpt lat="45.982529979578665" lon="12.597676137061674"><ele>56.0</ele><time>2026-03-30T07:32:47.999Z</time></trkpt><trkpt lat="45.98255033632626" lon="12.59757868581944"><ele>56.0</ele><time>2026-03-30T07:33:48.999Z</time></trkpt><trkpt lat="45.98261776449427" lon="12.597383491941732"><ele>56.0</ele><time>2026-03-30T07:33:50.999Z</time></trkpt><trkpt lat="45.98265462788017" lon="12.597218697826724"><ele>56.0</ele><time>2026-03-30T07:33:52Z</time></trkpt><trkpt lat="45.982728942146245" lon="12.597034152952883"><ele>56.0</ele><time>2026-03-30T07:33:53Z</time></trkpt><trkpt lat="45.98279795097645" lon="12.596826938936406"><ele>56.0</ele><time>2026-03-30T07:33:54Z</time></trkpt><trkpt lat="45.982855626990805" lon="12.596657334590848"><ele>55.99999999999999</ele><time>2026-03-30T07:33:55Z</time></trkpt><trkpt lat="45.98291176306561" lon="12.596503869596335"><ele>55.99999999999999</ele><time>2026-03-30T07:33:56Z</time></trkpt><trkpt lat="45.982953296468274" lon="12.596369933366539"><ele>56.0</ele><time>2026-03-30T07:33:57Z</time></trkpt><trkpt lat="45.9830068645964" lon="12.596260345844255"><ele>56.0</ele><time>2026-03-30T07:33:58Z</time></trkpt><trkpt lat="45.98305592941038" lon="12.596143760067404"><ele>56.0</ele><time>2026-03-30T07:33:59Z</time></trkpt><trkpt lat="45.983123249670385" lon="12.595996865351395"><ele>56.0</ele><time>2026-03-30T07:34:00Z</time></trkpt><trkpt lat="45.983193640068215" lon="12.595844591952604"><ele>56.0</ele><time>2026-03-30T07:34:01Z</time></trkpt><trkpt lat="45.983292361627406" lon="12.5956780276444"><ele>56.0</ele><time>2026-03-30T07:34:02Z</time></trkpt><trkpt lat="45.98337021617013" lon="12.59553198244778"><ele>56.5</ele><time>2026-03-30T07:34:03Z</time></trkpt><trkpt lat="45.98343664388189" lon="12.59539165524031"><ele>57.0</ele><time>2026-03-30T07:34:04Z</time></trkpt><trkpt lat="45.983520145546706" lon="12.595246522697686"><ele>57.5</ele><time>2026-03-30T07:34:05Z</time></trkpt><trkpt lat="45.983601959847064" lon="12.595042693253891"><ele>58.0</ele><time>2026-03-30T07:34:06Z</time></trkpt><trkpt lat="45.983684977461635" lon="12.594780518942741"><ele>57.5</ele><time>2026-03-30T07:34:07Z</time></trkpt><trkpt lat="45.98377050061411" lon="12.594482749505797"><ele>57.0</ele><time>2026-03-30T07:34:08Z</time></trkpt><trkpt lat="45.983856760903855" lon="12.594178260521883"><ele>57.0</ele><time>2026-03-30T07:34:09Z</time></trkpt><trkpt lat="45.983938926421956" lon="12.593905218151843"><ele>57.0</ele><time>2026-03-30T07:34:10Z</time></trkpt><trkpt lat="45.98401198411516" lon="12.593662665174795"><ele>57.0</ele><time>2026-03-30T07:34:11Z</time></trkpt><trkpt lat="45.9840836305364" lon="12.593425125578186"><ele>57.33333333333333</ele><time>2026-03-30T07:34:12Z</time></trkpt><trkpt lat="45.984158768561485" lon="12.59318127061839"><ele>57.666666666666664</ele><time>2026-03-30T07:34:13Z</time></trkpt><trkpt lat="45.984225578047145" lon="12.592961690110732"><ele>58.0</ele><time>2026-03-30T07:34:14Z</time></trkpt><trkpt lat="45.984286461216804" lon="12.592763410783343"><ele>58.166666666666664</ele><time>2026-03-30T07:34:15Z</time></trkpt><trkpt lat="45.98433582158256" lon="12.592601332274706"><ele>58.33333333333333</ele><time>2026-03-30T07:34:16Z</time></trkpt><trkpt lat="45.984376781969026" lon="12.592475066641315"><ele>58.5</ele><time>2026-03-30T07:34:17Z</time></trkpt><trkpt lat="45.984415069248264" lon="12.592392694939527"><ele>58.66666666666667</ele><time>2026-03-30T07:34:18Z</time></trkpt><trkpt lat="45.98446547978275" lon="12.592333642207883"><ele>58.833333333333336</ele><time>2026-03-30T07:34:19Z</time></trkpt><trkpt lat="45.98452765312993" lon="12.59229329846307"><ele>59.0</ele><time>2026-03-30T07:34:20Z</time></trkpt><trkpt lat="45.98461992616669" lon="12.592248076911181"><ele>59.0</ele><time>2026-03-30T07:34:21Z</time></trkpt><trkpt lat="45.98467000156612" lon="12.592127333725033"><ele>59.0</ele><time>2026-03-30T07:34:22Z</time></trkpt><trkpt lat="45.98471603730186" lon="12.591996914357027"><ele>59.0</ele><time>2026-03-30T07:34:23Z</time></trkpt><trkpt lat="45.984763287231466" lon="12.591821213176114"><ele>59.0</ele><time>2026-03-30T07:34:24Z</time></trkpt><trkpt lat="45.9848206124551" lon="12.59163893664061"><ele>58.333333333333336</ele><time>2026-03-30T07:34:25Z</time></trkpt><trkpt lat="45.98488877337349" lon="12.591442147365685"><ele>57.66666666666667</ele><time>2026-03-30T07:34:26Z</time></trkpt><trkpt lat="45.984959904572335" lon="12.591240984895116"><ele>57.0</ele><time>2026-03-30T07:34:27Z</time></trkpt><trkpt lat="45.985030405555904" lon="12.591048577303159"><ele>58.66666666666667</ele><time>2026-03-30T07:34:28Z</time></trkpt><trkpt lat="45.98510195727509" lon="12.590853879760823"><ele>60.333333333333336</ele><time>2026-03-30T07:34:29Z</time></trkpt><trkpt lat="45.98517464725851" lon="12.590658267449019"><ele>62.0</ele><time>2026-03-30T07:34:30Z</time></trkpt><trkpt lat="45.98524121013876" lon="12.590473810395704"><ele>62.25</ele><time>2026-03-30T07:34:31Z</time></trkpt><trkpt lat="45.98530722333786" lon="12.59030028012257"><ele>62.5</ele><time>2026-03-30T07:34:32Z</time></trkpt><trkpt lat="45.98537549260369" lon="12.590127309318442"><ele>62.75</ele><time>2026-03-30T07:34:33Z</time></trkpt><trkpt lat="45.98544724802565" lon="12.589951260162644"><ele>63.0</ele><time>2026-03-30T07:34:34Z</time></trkpt><trkpt lat="45.985520756521616" lon="12.589769947071412"><ele>63.0</ele><time>2026-03-30T07:34:35Z</time></trkpt><trkpt lat="45.985594309218364" lon="12.589588859513173"><ele>63.0</ele><time>2026-03-30T07:34:36Z</time></trkpt><trkpt lat="45.985663395920255" lon="12.589418673219539"><ele>63.0</ele><time>2026-03-30T07:34:37Z</time></trkpt><trkpt lat="45.985728905328195" lon="12.589258224324086"><ele>63.0</ele><time>2026-03-30T07:34:38Z</time></trkpt><trkpt lat="45.98579301759803" lon="12.58909892533282"><ele>62.75</ele><time>2026-03-30T07:34:39Z</time></trkpt><trkpt lat="45.9858552065611" lon="12.58894115507872"><ele>62.5</ele><time>2026-03-30T07:34:40Z</time></trkpt><trkpt lat="45.98591472859341" lon="12.588787836316783"><ele>62.25</ele><time>2026-03-30T07:34:41Z</time></trkpt><trkpt lat="45.985976748066555" lon="12.588641493234604"><ele>62.0</ele><time>2026-03-30T07:34:42Z</time></trkpt><trkpt lat="45.98603962894334" lon="12.588487600593414"><ele>62.0</ele><time>2026-03-30T07:34:43Z</time></trkpt><trkpt lat="45.98610022054607" lon="12.58834038618498"><ele>62.0</ele><time>2026-03-30T07:34:44Z</time></trkpt><trkpt lat="45.98615925029005" lon="12.588200710537754"><ele>62.0</ele><time>2026-03-30T07:34:45Z</time></trkpt><trkpt lat="45.98621296196118" lon="12.588070310017937"><ele>62.0</ele><time>2026-03-30T07:34:46Z</time></trkpt><trkpt lat="45.98626416305548" lon="12.587951496497215"><ele>62.0</ele><time>2026-03-30T07:34:46.999Z</time></trkpt><trkpt lat="45.98631850165405" lon="12.587844886748139"><ele>62.0</ele><time>2026-03-30T07:34:47.999Z</time></trkpt><trkpt lat="45.986365522188244" lon="12.587757592751384"><ele>62.0</ele><time>2026-03-30T07:34:48.999Z</time></trkpt><trkpt lat="45.986415998325214" lon="12.587652783125067"><ele>62.0</ele><time>2026-03-30T07:34:50.999Z</time></trkpt><trkpt lat="45.98642806853859" lon="12.587522190142465"><ele>62.0</ele><time>2026-03-30T07:34:53.999Z</time></trkpt><trkpt lat="45.98642444851222" lon="12.587357321537063"><ele>62.0</ele><time>2026-03-30T07:34:54.999Z</time></trkpt><trkpt lat="45.9864514285757" lon="12.587228394189392"><ele>62.0</ele><time>2026-03-30T07:34:55.999Z</time></trkpt><trkpt lat="45.98650053967324" lon="12.587086414025801"><ele>62.0</ele><time>2026-03-30T07:34:56.999Z</time></trkpt><trkpt lat="45.98656722539197" lon="12.586941525898593"><ele>62.0</ele><time>2026-03-30T07:34:57.999Z</time></trkpt><trkpt lat="45.98663788100674" lon="12.58678462294824"><ele>62.0</ele><time>2026-03-30T07:34:58.999Z</time></trkpt><trkpt lat="45.98670948435873" lon="12.586586611566473"><ele>62.0</ele><time>2026-03-30T07:34:59.999Z</time></trkpt><trkpt lat="45.98678547995345" lon="12.586364147891068"><ele>62.0</ele><time>2026-03-30T07:35:00.999Z</time></trkpt><trkpt lat="45.98687486535114" lon="12.586120164785013"><ele>62.0</ele><time>2026-03-30T07:35:01.999Z</time></trkpt><trkpt lat="45.98697870441066" lon="12.58584817070112"><ele>62.0</ele><time>2026-03-30T07:35:02.999Z</time></trkpt><trkpt lat="45.98708123388671" lon="12.585584053254953"><ele>62.0</ele><time>2026-03-30T07:35:03.999Z</time></trkpt><trkpt lat="45.98717938745024" lon="12.585337009051186"><ele>62.0</ele><time>2026-03-30T07:35:04.999Z</time></trkpt><trkpt lat="45.98727048116777" lon="12.5850974280735"><ele>62.0</ele><time>2026-03-30T07:35:05.999Z</time></trkpt><trkpt lat="45.987361457982416" lon="12.584858828591788"><ele>62.0</ele><time>2026-03-30T07:35:06.999Z</time></trkpt><trkpt lat="45.9874513797443" lon="12.584624260531486"><ele>62.0</ele><time>2026-03-30T07:35:07.999Z</time></trkpt><trkpt lat="45.98753992503005" lon="12.584398850027059"><ele>62.0</ele><time>2026-03-30T07:35:08.999Z</time></trkpt><trkpt lat="45.98763030487457" lon="12.584172706044832"><ele>62.0</ele><time>2026-03-30T07:35:09.999Z</time></trkpt><trkpt lat="45.98771476949067" lon="12.583951143003258"><ele>62.0</ele><time>2026-03-30T07:35:10.999Z</time></trkpt><trkpt lat="45.987795577109154" lon="12.583734056581797"><ele>62.0</ele><time>2026-03-30T07:35:11.999Z</time></trkpt><trkpt lat="45.987873133053256" lon="12.583526479111697"><ele>62.0</ele><time>2026-03-30T07:35:12.999Z</time></trkpt><trkpt lat="45.987950162134304" lon="12.583320808051916"><ele>62.0</ele><time>2026-03-30T07:35:13.999Z</time></trkpt><trkpt lat="45.98802748181836" lon="12.583118743457389"><ele>62.0</ele><time>2026-03-30T07:35:14.999Z</time></trkpt><trkpt lat="45.988103721852255" lon="12.582915003073518"><ele>62.0</ele><time>2026-03-30T07:35:15.999Z</time></trkpt><trkpt lat="45.98817909873825" lon="12.582705438317697"><ele>62.0</ele><time>2026-03-30T07:35:16.999Z</time></trkpt><trkpt lat="45.988255623699615" lon="12.582499101131164"><ele>61.66666666666667</ele><time>2026-03-30T07:35:17.999Z</time></trkpt><trkpt lat="45.988332895549604" lon="12.582288191138852"><ele>61.33333333333333</ele><time>2026-03-30T07:35:18.999Z</time></trkpt><trkpt lat="45.988407455621264" lon="12.58207529184045"><ele>61.0</ele><time>2026-03-30T07:35:19.999Z</time></trkpt><trkpt lat="45.98847906191645" lon="12.58186005863"><ele>61.0</ele><time>2026-03-30T07:35:20.999Z</time></trkpt><trkpt lat="45.9885493589331" lon="12.581643551978669"><ele>61.0</ele><time>2026-03-30T07:35:21.999Z</time></trkpt><trkpt lat="45.98861740401992" lon="12.581435642603"><ele>61.0</ele><time>2026-03-30T07:35:22.999Z</time></trkpt><trkpt lat="45.988679818484044" lon="12.58124237722293"><ele>60.33333333333333</ele><time>2026-03-30T07:35:23.999Z</time></trkpt><trkpt lat="45.98874328389043" lon="12.581048570876128"><ele>59.66666666666667</ele><time>2026-03-30T07:35:24.999Z</time></trkpt><trkpt lat="45.98880870270855" lon="12.58085135797855"><ele>59.0</ele><time>2026-03-30T07:35:25.999Z</time></trkpt><trkpt lat="45.988877400852815" lon="12.580653930812758"><ele>59.0</ele><time>2026-03-30T07:35:26.999Z</time></trkpt><trkpt lat="45.988943800073535" lon="12.580465493009058"><ele>59.0</ele><time>2026-03-30T07:35:27.999Z</time></trkpt><trkpt lat="45.98900783042805" lon="12.58028496418676"><ele>59.0</ele><time>2026-03-30T07:35:28.999Z</time></trkpt><trkpt lat="45.98907161530144" lon="12.580098690600689"><ele>59.0</ele><time>2026-03-30T07:35:29.999Z</time></trkpt><trkpt lat="45.9891334572224" lon="12.579906739412488"><ele>59.25</ele><time>2026-03-30T07:35:30.999Z</time></trkpt><trkpt lat="45.98919327258934" lon="12.579709876945756"><ele>59.5</ele><time>2026-03-30T07:35:31.999Z</time></trkpt><trkpt lat="45.98925272073431" lon="12.579511840644411"><ele>59.75</ele><time>2026-03-30T07:35:32.999Z</time></trkpt><trkpt lat="45.989313488244115" lon="12.579318925137303"><ele>60.0</ele><time>2026-03-30T07:35:33.999Z</time></trkpt><trkpt lat="45.98937023133002" lon="12.579128506826889"><ele>60.25</ele><time>2026-03-30T07:35:34.999Z</time></trkpt><trkpt lat="45.98943994591027" lon="12.578942059204634"><ele>60.5</ele><time>2026-03-30T07:35:35.999Z</time></trkpt><trkpt lat="45.98949868751518" lon="12.57876951329966"><ele>60.75</ele><time>2026-03-30T07:35:36.999Z</time></trkpt><trkpt lat="45.98956336563733" lon="12.578598606115396"><ele>61.0</ele><time>2026-03-30T07:35:37.999Z</time></trkpt><trkpt lat="45.98961950649241" lon="12.578433668873874"><ele>60.75</ele><time>2026-03-30T07:35:38.999Z</time></trkpt><trkpt lat="45.989671372267075" lon="12.57825816152092"><ele>60.5</ele><time>2026-03-30T07:35:39.999Z</time></trkpt><trkpt lat="45.98972268757443" lon="12.578093518009096"><ele>60.25</ele><time>2026-03-30T07:35:40.999Z</time></trkpt><trkpt lat="45.98977287879468" lon="12.577948131280042"><ele>60.0</ele><time>2026-03-30T07:35:41.999Z</time></trkpt><trkpt lat="45.98981891314236" lon="12.577813066387314"><ele>60.0</ele><time>2026-03-30T07:35:42.999Z</time></trkpt><trkpt lat="45.98986534961623" lon="12.577687272105143"><ele>60.0</ele><time>2026-03-30T07:35:43.999Z</time></trkpt><trkpt lat="45.989904112383456" lon="12.577555147717813"><ele>60.0</ele><time>2026-03-30T07:35:44.999Z</time></trkpt><trkpt lat="45.98995207421433" lon="12.577379878225534"><ele>60.0</ele><time>2026-03-30T07:35:45.999Z</time></trkpt><trkpt lat="45.99000315062565" lon="12.577192645705932"><ele>60.2</ele><time>2026-03-30T07:35:46.999Z</time></trkpt><trkpt lat="45.99005613763841" lon="12.577011678039796"><ele>60.4</ele><time>2026-03-30T07:35:47.999Z</time></trkpt><trkpt lat="45.990102594566935" lon="12.576856880648664"><ele>60.599999999999994</ele><time>2026-03-30T07:35:48.999Z</time></trkpt><trkpt lat="45.99014760878385" lon="12.576724664228593"><ele>60.8</ele><time>2026-03-30T07:35:49.999Z</time></trkpt><trkpt lat="45.99019364746288" lon="12.576645398752825"><ele>61.0</ele><time>2026-03-30T07:35:50.999Z</time></trkpt><trkpt lat="45.990325054326476" lon="12.576674083604926"><ele>61.0</ele><time>2026-03-30T07:35:52.999Z</time></trkpt><trkpt lat="45.99044548847853" lon="12.576685883722215"><ele>60.99999999999999</ele><time>2026-03-30T07:35:53.999Z</time></trkpt><trkpt lat="45.99054317174032" lon="12.576655539988066"><ele>60.99999999999999</ele><time>2026-03-30T07:35:54.999Z</time></trkpt><trkpt lat="45.990614530359444" lon="12.576586622028936"><ele>61.0</ele><time>2026-03-30T07:35:55.999Z</time></trkpt><trkpt lat="45.99066931354834" lon="12.576456332292887"><ele>61.0</ele><time>2026-03-30T07:35:56.999Z</time></trkpt><trkpt lat="45.99073878377919" lon="12.576250696077103"><ele>60.33333333333333</ele><time>2026-03-30T07:35:58Z</time></trkpt><trkpt lat="45.99079733271612" lon="12.575995888085773"><ele>59.66666666666667</ele><time>2026-03-30T07:35:59Z</time></trkpt><trkpt lat="45.9908228809142" lon="12.575748018592524"><ele>59.0</ele><time>2026-03-30T07:36:00Z</time></trkpt><trkpt lat="45.990830404390245" lon="12.575480022522223"><ele>59.333333333333336</ele><time>2026-03-30T07:36:01Z</time></trkpt><trkpt lat="45.990871309421564" lon="12.575226026625272"><ele>59.66666666666667</ele><time>2026-03-30T07:36:02Z</time></trkpt><trkpt lat="45.99096498601342" lon="12.57497570538196"><ele>60.0</ele><time>2026-03-30T07:36:03Z</time></trkpt><trkpt lat="45.99104072967379" lon="12.574696305352361"><ele>59.5</ele><time>2026-03-30T07:36:04Z</time></trkpt><trkpt lat="45.99114654771643" lon="12.574393717943513"><ele>59.0</ele><time>2026-03-30T07:36:05Z</time></trkpt><trkpt lat="45.99125140004738" lon="12.574065003673665"><ele>59.0</ele><time>2026-03-30T07:36:06Z</time></trkpt><trkpt lat="45.991354639681965" lon="12.57373491363132"><ele>59.0</ele><time>2026-03-30T07:36:07Z</time></trkpt><trkpt lat="45.99147012754632" lon="12.573432516301427"><ele>59.5</ele><time>2026-03-30T07:36:08Z</time></trkpt><trkpt lat="45.991553134106375" lon="12.57311545874184"><ele>60.0</ele><time>2026-03-30T07:36:09Z</time></trkpt><trkpt lat="45.99165314078493" lon="12.572804283408876"><ele>59.66666666666667</ele><time>2026-03-30T07:36:10Z</time></trkpt><trkpt lat="45.99174656036778" lon="12.572526178019036"><ele>59.333333333333336</ele><time>2026-03-30T07:36:11Z</time></trkpt><trkpt lat="45.99182939539212" lon="12.572270405516308"><ele>59.0</ele><time>2026-03-30T07:36:12Z</time></trkpt><trkpt lat="45.991901749260016" lon="12.572044938146405"><ele>58.66666666666667</ele><time>2026-03-30T07:36:13Z</time></trkpt><trkpt lat="45.991974793315464" lon="12.571821796032214"><ele>58.33333333333333</ele><time>2026-03-30T07:36:14Z</time></trkpt><trkpt lat="45.992038597711876" lon="12.571613625468608"><ele>58.0</ele><time>2026-03-30T07:36:15Z</time></trkpt><trkpt lat="45.99209385651553" lon="12.571425650596701"><ele>58.0</ele><time>2026-03-30T07:36:16Z</time></trkpt><trkpt lat="45.99213996684543" lon="12.57127181997582"><ele>58.0</ele><time>2026-03-30T07:36:17Z</time></trkpt><trkpt lat="45.99217781403338" lon="12.571157074680011"><ele>58.0</ele><time>2026-03-30T07:36:18Z</time></trkpt><trkpt lat="45.99220972644012" lon="12.571078029288863"><ele>58.0</ele><time>2026-03-30T07:36:19Z</time></trkpt><trkpt lat="45.99226854450164" lon="12.570938968262851"><ele>58.0</ele><time>2026-03-30T07:36:23Z</time></trkpt><trkpt lat="45.99231847019776" lon="12.570814881678276"><ele>58.0</ele><time>2026-03-30T07:36:24Z</time></trkpt><trkpt lat="45.992385259390204" lon="12.570657429620857"><ele>58.0</ele><time>2026-03-30T07:36:25Z</time></trkpt><trkpt lat="45.992463832889506" lon="12.570477620266248"><ele>58.0</ele><time>2026-03-30T07:36:26Z</time></trkpt><trkpt lat="45.99256233066123" lon="12.570256667870906"><ele>57.33333333333333</ele><time>2026-03-30T07:36:27Z</time></trkpt><trkpt lat="45.99267446434614" lon="12.570020426896082"><ele>56.66666666666667</ele><time>2026-03-30T07:36:28Z</time></trkpt><trkpt lat="45.99279009790553" lon="12.569780080630172"><ele>56.0</ele><time>2026-03-30T07:36:29Z</time></trkpt><trkpt lat="45.992893998383764" lon="12.569555395873959"><ele>56.0</ele><time>2026-03-30T07:36:30Z</time></trkpt><trkpt lat="45.9929926459219" lon="12.569319247828899"><ele>56.0</ele><time>2026-03-30T07:36:31Z</time></trkpt><trkpt lat="45.99307558080774" lon="12.569074031123037"><ele>56.0</ele><time>2026-03-30T07:36:32Z</time></trkpt><trkpt lat="45.99314447978758" lon="12.568819248407154"><ele>56.66666666666667</ele><time>2026-03-30T07:36:33Z</time></trkpt><trkpt lat="45.9932050110725" lon="12.568546162316528"><ele>57.33333333333333</ele><time>2026-03-30T07:36:34Z</time></trkpt><trkpt lat="45.99326357793641" lon="12.56825716419914"><ele>58.0</ele><time>2026-03-30T07:36:35Z</time></trkpt><trkpt lat="45.993327105763505" lon="12.567955492497136"><ele>58.0</ele><time>2026-03-30T07:36:36Z</time></trkpt><trkpt lat="45.993391946283346" lon="12.56770018851185"><ele>58.0</ele><time>2026-03-30T07:36:37Z</time></trkpt><trkpt lat="45.99345662151444" lon="12.567472155365788"><ele>58.0</ele><time>2026-03-30T07:36:38Z</time></trkpt><trkpt lat="45.99351392903084" lon="12.567282644182532"><ele>58.0</ele><time>2026-03-30T07:36:39Z</time></trkpt><trkpt lat="45.993559524111625" lon="12.567129481390245"><ele>58.0</ele><time>2026-03-30T07:36:40Z</time></trkpt><trkpt lat="45.99359697935567" lon="12.56701049059993"><ele>58.0</ele><time>2026-03-30T07:36:41Z</time></trkpt><trkpt lat="45.99363918568626" lon="12.566893227703883"><ele>58.0</ele><time>2026-03-30T07:36:42Z</time></trkpt><trkpt lat="45.99370920912473" lon="12.566721480567285"><ele>58.0</ele><time>2026-03-30T07:36:43Z</time></trkpt><trkpt lat="45.99378638152765" lon="12.566527995029238"><ele>57.666666666666664</ele><time>2026-03-30T07:36:44Z</time></trkpt><trkpt lat="45.99389436640991" lon="12.566289969257705"><ele>57.33333333333333</ele><time>2026-03-30T07:36:45Z</time></trkpt><trkpt lat="45.99400584184382" lon="12.566066315015503"><ele>57.0</ele><time>2026-03-30T07:36:46Z</time></trkpt><trkpt lat="45.99413344957524" lon="12.565801840502921"><ele>57.0</ele><time>2026-03-30T07:36:47Z</time></trkpt><trkpt lat="45.99424682517012" lon="12.565586852508057"><ele>57.0</ele><time>2026-03-30T07:36:48Z</time></trkpt><trkpt lat="45.99435445524907" lon="12.56539122251667"><ele>57.0</ele><time>2026-03-30T07:36:49Z</time></trkpt><trkpt lat="45.99447805756362" lon="12.565191618784693"><ele>56.66666666666667</ele><time>2026-03-30T07:36:50Z</time></trkpt><trkpt lat="45.9946037610128" lon="12.564987648706799"><ele>56.333333333333336</ele><time>2026-03-30T07:36:51Z</time></trkpt><trkpt lat="45.99472087530124" lon="12.564783129126925"><ele>56.0</ele><time>2026-03-30T07:36:52Z</time></trkpt><trkpt lat="45.99483931903652" lon="12.564562075785252"><ele>55.66666666666667</ele><time>2026-03-30T07:36:53Z</time></trkpt><trkpt lat="45.99496401016276" lon="12.56431512820946"><ele>55.33333333333333</ele><time>2026-03-30T07:36:54Z</time></trkpt><trkpt lat="45.99508015602499" lon="12.564086171548636"><ele>55.0</ele><time>2026-03-30T07:36:55Z</time></trkpt><trkpt lat="45.99519117266383" lon="12.563867215659961"><ele>55.666666666666664</ele><time>2026-03-30T07:36:56Z</time></trkpt><trkpt lat="45.995320851996446" lon="12.563622397349851"><ele>56.33333333333333</ele><time>2026-03-30T07:36:57Z</time></trkpt><trkpt lat="45.995465553486135" lon="12.563359207223035"><ele>57.0</ele><time>2026-03-30T07:36:58Z</time></trkpt><trkpt lat="45.99559686349463" lon="12.563121262517566"><ele>57.0</ele><time>2026-03-30T07:36:59Z</time></trkpt><trkpt lat="45.99571120418963" lon="12.56291628615552"><ele>57.0</ele><time>2026-03-30T07:37:00Z</time></trkpt><trkpt lat="45.995816464680985" lon="12.562725460393306"><ele>57.0</ele><time>2026-03-30T07:37:01Z</time></trkpt><trkpt lat="45.99592079273285" lon="12.562540369021695"><ele>57.0</ele><time>2026-03-30T07:37:02Z</time></trkpt><trkpt lat="45.99603457470505" lon="12.562337775418142"><ele>57.0</ele><time>2026-03-30T07:37:02.999Z</time></trkpt><trkpt lat="45.99614113250412" lon="12.562149821079265"><ele>57.0</ele><time>2026-03-30T07:37:03.999Z</time></trkpt><trkpt lat="45.996238330330094" lon="12.56198501436856"><ele>57.25</ele><time>2026-03-30T07:37:04.999Z</time></trkpt><trkpt lat="45.9963364401125" lon="12.56182838054294"><ele>57.5</ele><time>2026-03-30T07:37:05.999Z</time></trkpt><trkpt lat="45.996437162492896" lon="12.561675653800018"><ele>57.75</ele><time>2026-03-30T07:37:06.999Z</time></trkpt><trkpt lat="45.99652719989852" lon="12.561534929277524"><ele>58.0</ele><time>2026-03-30T07:37:07.999Z</time></trkpt><trkpt lat="45.99659882006522" lon="12.561409390334145"><ele>57.99999999999999</ele><time>2026-03-30T07:37:08.999Z</time></trkpt><trkpt lat="45.996658130069456" lon="12.56129940606889"><ele>58.0</ele><time>2026-03-30T07:37:09.999Z</time></trkpt><trkpt lat="45.996708717247806" lon="12.561204243362717"><ele>58.0</ele><time>2026-03-30T07:37:10.999Z</time></trkpt><trkpt lat="45.99674869575506" lon="12.561121477408852"><ele>58.0</ele><time>2026-03-30T07:37:11.999Z</time></trkpt><trkpt lat="45.99681254594256" lon="12.56099687750901"><ele>57.99999999999999</ele><time>2026-03-30T07:37:13.999Z</time></trkpt><trkpt lat="45.996872246916034" lon="12.560926425391031"><ele>58.0</ele><time>2026-03-30T07:37:18.999Z</time></trkpt><trkpt lat="45.99693057950641" lon="12.560860910307092"><ele>58.25</ele><time>2026-03-30T07:37:19.999Z</time></trkpt><trkpt lat="45.99701004543381" lon="12.560776951582058"><ele>58.5</ele><time>2026-03-30T07:37:20.999Z</time></trkpt><trkpt lat="45.99710652849428" lon="12.560685175772889"><ele>58.75</ele><time>2026-03-30T07:37:21.999Z</time></trkpt><trkpt lat="45.99721994572139" lon="12.560597856953466"><ele>59.0</ele><time>2026-03-30T07:37:22.999Z</time></trkpt><trkpt lat="45.99734401028952" lon="12.560518647216881"><ele>59.0</ele><time>2026-03-30T07:37:23.999Z</time></trkpt><trkpt lat="45.997462904540846" lon="12.560446275795234"><ele>59.0</ele><time>2026-03-30T07:37:24.999Z</time></trkpt><trkpt lat="45.9975837105831" lon="12.560373377685313"><ele>59.0</ele><time>2026-03-30T07:37:25.999Z</time></trkpt><trkpt lat="45.997696260729725" lon="12.560268210388482"><ele>59.0</ele><time>2026-03-30T07:37:26.999Z</time></trkpt><trkpt lat="45.99779430322647" lon="12.560130325344035"><ele>58.75</ele><time>2026-03-30T07:37:27.999Z</time></trkpt><trkpt lat="45.99787912822813" lon="12.55997567839236"><ele>58.5</ele><time>2026-03-30T07:37:28.999Z</time></trkpt><trkpt lat="45.99795144259274" lon="12.559815174566252"><ele>58.25</ele><time>2026-03-30T07:37:29.999Z</time></trkpt><trkpt lat="45.99801655352554" lon="12.559654904281274"><ele>58.0</ele><time>2026-03-30T07:37:30.999Z</time></trkpt><trkpt lat="45.99807836312022" lon="12.559498666936463"><ele>57.75</ele><time>2026-03-30T07:37:31.999Z</time></trkpt><trkpt lat="45.99814120508571" lon="12.559347082419949"><ele>57.5</ele><time>2026-03-30T07:37:32.999Z</time></trkpt><trkpt lat="45.99820370706716" lon="12.55919955141884"><ele>57.25</ele><time>2026-03-30T07:37:33.999Z</time></trkpt><trkpt lat="45.99827966468482" lon="12.559068638509073"><ele>57.0</ele><time>2026-03-30T07:37:34.999Z</time></trkpt><trkpt lat="45.99833241882447" lon="12.55891768551128"><ele>57.0</ele><time>2026-03-30T07:37:35.999Z</time></trkpt><trkpt lat="45.9983995400629" lon="12.558801495219885"><ele>57.0</ele><time>2026-03-30T07:37:36.999Z</time></trkpt><trkpt lat="45.99845320969309" lon="12.55868192010005"><ele>57.0</ele><time>2026-03-30T07:37:37.999Z</time></trkpt><trkpt lat="45.998504370367016" lon="12.558568431082485"><ele>57.0</ele><time>2026-03-30T07:37:38.999Z</time></trkpt><trkpt lat="45.99855746282924" lon="12.558456753701037"><ele>57.0</ele><time>2026-03-30T07:37:39.999Z</time></trkpt><trkpt lat="45.99860944655624" lon="12.558347408677106"><ele>57.0</ele><time>2026-03-30T07:37:40.999Z</time></trkpt><trkpt lat="45.998661171213506" lon="12.558237833126666"><ele>57.0</ele><time>2026-03-30T07:37:41.999Z</time></trkpt><trkpt lat="45.99870148585342" lon="12.55812729626416"><ele>57.0</ele><time>2026-03-30T07:37:42.999Z</time></trkpt><trkpt lat="45.99873241193312" lon="12.558046706874283"><ele>57.0</ele><time>2026-03-30T07:37:43.999Z</time></trkpt><trkpt lat="45.99875117658376" lon="12.55795659667338"><ele>57.0</ele><time>2026-03-30T07:37:46.999Z</time></trkpt><trkpt lat="45.99882340551973" lon="12.557749891440961"><ele>56.66666666666667</ele><time>2026-03-30T07:37:48.999Z</time></trkpt><trkpt lat="45.998869687581575" lon="12.557579096027236"><ele>56.333333333333336</ele><time>2026-03-30T07:37:49.999Z</time></trkpt><trkpt lat="45.998951562549074" lon="12.557390832631915"><ele>56.0</ele><time>2026-03-30T07:37:50.999Z</time></trkpt><trkpt lat="45.999045102852754" lon="12.557185869957827"><ele>56.66666666666667</ele><time>2026-03-30T07:37:51.999Z</time></trkpt><trkpt lat="45.999127915602834" lon="12.556984243768117"><ele>57.33333333333333</ele><time>2026-03-30T07:37:52.999Z</time></trkpt><trkpt lat="45.99919678294015" lon="12.556774560565295"><ele>58.0</ele><time>2026-03-30T07:37:53.999Z</time></trkpt><trkpt lat="45.99925982102788" lon="12.556554495768628"><ele>58.33333333333333</ele><time>2026-03-30T07:37:54.999Z</time></trkpt><trkpt lat="45.99931717855436" lon="12.556354904615409"><ele>58.66666666666667</ele><time>2026-03-30T07:37:55.999Z</time></trkpt><trkpt lat="45.9993738871693" lon="12.55615512079052"><ele>59.0</ele><time>2026-03-30T07:37:56.999Z</time></trkpt><trkpt lat="45.99943323445952" lon="12.555945353907905"><ele>59.0</ele><time>2026-03-30T07:37:57.999Z</time></trkpt><trkpt lat="45.99949254699007" lon="12.555727955695986"><ele>59.0</ele><time>2026-03-30T07:37:58.999Z</time></trkpt><trkpt lat="45.999554492307524" lon="12.555508965133933"><ele>59.0</ele><time>2026-03-30T07:37:59.999Z</time></trkpt><trkpt lat="45.99962610370646" lon="12.555278239202403"><ele>58.333333333333336</ele><time>2026-03-30T07:38:00.999Z</time></trkpt><trkpt lat="45.99971362092972" lon="12.555031076093162"><ele>57.66666666666667</ele><time>2026-03-30T07:38:01.999Z</time></trkpt><trkpt lat="45.999819425224835" lon="12.554761353515728"><ele>57.0</ele><time>2026-03-30T07:38:02.999Z</time></trkpt><trkpt lat="45.99994113400472" lon="12.554463096303786"><ele>57.0</ele><time>2026-03-30T07:38:04Z</time></trkpt><trkpt lat="46.00005940651252" lon="12.554176948689316"><ele>57.0</ele><time>2026-03-30T07:38:05Z</time></trkpt><trkpt lat="46.00016339289403" lon="12.553928252975716"><ele>57.0</ele><time>2026-03-30T07:38:06Z</time></trkpt><trkpt lat="46.00026336521678" lon="12.553705293904695"><ele>56.75</ele><time>2026-03-30T07:38:07Z</time></trkpt><trkpt lat="46.000354742442845" lon="12.553512125172846"><ele>56.5</ele><time>2026-03-30T07:38:08Z</time></trkpt><trkpt lat="46.00044087387726" lon="12.553344189744065"><ele>56.25</ele><time>2026-03-30T07:38:09Z</time></trkpt><trkpt lat="46.00052024735738" lon="12.553191450249487"><ele>56.0</ele><time>2026-03-30T07:38:10Z</time></trkpt><trkpt lat="46.00059109516845" lon="12.553057856727053"><ele>56.00000000000001</ele><time>2026-03-30T07:38:11Z</time></trkpt><trkpt lat="46.000657650112494" lon="12.552971284548404"><ele>56.0</ele><time>2026-03-30T07:38:12Z</time></trkpt><trkpt lat="46.0007072819872" lon="12.552892003623622"><ele>56.0</ele><time>2026-03-30T07:38:13Z</time></trkpt><trkpt lat="46.000701201684244" lon="12.55277362405261"><ele>56.0</ele><time>2026-03-30T07:38:14Z</time></trkpt><trkpt lat="46.00069349196765" lon="12.55265642633698"><ele>56.00000000000001</ele><time>2026-03-30T07:38:15Z</time></trkpt><trkpt lat="46.00067669199666" lon="12.552490830939346"><ele>56.0</ele><time>2026-03-30T07:38:16Z</time></trkpt><trkpt lat="46.000693164962925" lon="12.552313340677344"><ele>55.66666666666667</ele><time>2026-03-30T07:38:17Z</time></trkpt><trkpt lat="46.000765902404524" lon="12.552136489254343"><ele>55.33333333333333</ele><time>2026-03-30T07:38:18Z</time></trkpt><trkpt lat="46.00084685130584" lon="12.551927260102154"><ele>55.0</ele><time>2026-03-30T07:38:19Z</time></trkpt><trkpt lat="46.00092727324313" lon="12.551692928770244"><ele>55.0</ele><time>2026-03-30T07:38:20Z</time></trkpt><trkpt lat="46.001017394488386" lon="12.55146442496286"><ele>55.0</ele><time>2026-03-30T07:38:21Z</time></trkpt><trkpt lat="46.00108302507879" lon="12.55125461094999"><ele>55.0</ele><time>2026-03-30T07:38:22Z</time></trkpt><trkpt lat="46.00112827398388" lon="12.55105756914959"><ele>55.0</ele><time>2026-03-30T07:38:23Z</time></trkpt><trkpt lat="46.001158858888296" lon="12.550847065359463"><ele>55.0</ele><time>2026-03-30T07:38:24Z</time></trkpt><trkpt lat="46.00118166466184" lon="12.550584894570797"><ele>55.0</ele><time>2026-03-30T07:38:25Z</time></trkpt><trkpt lat="46.0012051401772" lon="12.55031091532836"><ele>54.75</ele><time>2026-03-30T07:38:26Z</time></trkpt><trkpt lat="46.00122491527257" lon="12.550088147985337"><ele>54.5</ele><time>2026-03-30T07:38:27Z</time></trkpt><trkpt lat="46.00124510469143" lon="12.549903871256019"><ele>54.25</ele><time>2026-03-30T07:38:28Z</time></trkpt><trkpt lat="46.0012751901118" lon="12.54972843316589"><ele>54.0</ele><time>2026-03-30T07:38:29Z</time></trkpt><trkpt lat="46.001350349484255" lon="12.549545678276498"><ele>54.0</ele><time>2026-03-30T07:38:30Z</time></trkpt><trkpt lat="46.00143182634053" lon="12.549275683257427"><ele>54.0</ele><time>2026-03-30T07:38:31Z</time></trkpt><trkpt lat="46.00148931908691" lon="12.54901861261144"><ele>54.0</ele><time>2026-03-30T07:38:32Z</time></trkpt><trkpt lat="46.00155291026602" lon="12.548808492412093"><ele>53.33333333333333</ele><time>2026-03-30T07:38:33Z</time></trkpt><trkpt lat="46.001619146610174" lon="12.54862258399084"><ele>52.666666666666664</ele><time>2026-03-30T07:38:34Z</time></trkpt><trkpt lat="46.00170507897685" lon="12.548437055500708"><ele>52.0</ele><time>2026-03-30T07:38:35Z</time></trkpt><trkpt lat="46.00180396130654" lon="12.548243011204882"><ele>52.5</ele><time>2026-03-30T07:38:36Z</time></trkpt><trkpt lat="46.00190146080869" lon="12.548060636125728"><ele>53.0</ele><time>2026-03-30T07:38:37Z</time></trkpt><trkpt lat="46.001997169682625" lon="12.547899677560462"><ele>53.5</ele><time>2026-03-30T07:38:38Z</time></trkpt><trkpt lat="46.00209639066191" lon="12.54775401918616"><ele>54.0</ele><time>2026-03-30T07:38:39Z</time></trkpt><trkpt lat="46.00220118458609" lon="12.547628611431348"><ele>54.0</ele><time>2026-03-30T07:38:40Z</time></trkpt><trkpt lat="46.002301845945965" lon="12.547498840830864"><ele>54.0</ele><time>2026-03-30T07:38:41Z</time></trkpt><trkpt lat="46.00240650721222" lon="12.547329493424977"><ele>54.0</ele><time>2026-03-30T07:38:42Z</time></trkpt><trkpt lat="46.00251409122833" lon="12.54713826524619"><ele>54.33333333333333</ele><time>2026-03-30T07:38:43Z</time></trkpt><trkpt lat="46.002615076166286" lon="12.54694016239769"><ele>54.666666666666664</ele><time>2026-03-30T07:38:44Z</time></trkpt><trkpt lat="46.00270798797594" lon="12.546738081077862"><ele>55.0</ele><time>2026-03-30T07:38:45Z</time></trkpt><trkpt lat="46.0027883186639" lon="12.546539154510102"><ele>55.0</ele><time>2026-03-30T07:38:46Z</time></trkpt><trkpt lat="46.00286405729696" lon="12.546328675470761"><ele>55.0</ele><time>2026-03-30T07:38:47Z</time></trkpt><trkpt lat="46.00293550374175" lon="12.54608569978274"><ele>55.0</ele><time>2026-03-30T07:38:48Z</time></trkpt><trkpt lat="46.00299822701309" lon="12.545853642057613"><ele>54.666666666666664</ele><time>2026-03-30T07:38:49Z</time></trkpt><trkpt lat="46.00306958155553" lon="12.545634918191526"><ele>54.33333333333333</ele><time>2026-03-30T07:38:50Z</time></trkpt><trkpt lat="46.00316195167416" lon="12.545430168148831"><ele>54.0</ele><time>2026-03-30T07:38:51Z</time></trkpt><trkpt lat="46.003278905228186" lon="12.545195583306002"><ele>54.33333333333333</ele><time>2026-03-30T07:38:52Z</time></trkpt><trkpt lat="46.00341080778089" lon="12.544930202398124"><ele>54.666666666666664</ele><time>2026-03-30T07:38:53Z</time></trkpt><trkpt lat="46.0035260979447" lon="12.54469891732736"><ele>55.0</ele><time>2026-03-30T07:38:54Z</time></trkpt><trkpt lat="46.00362487607043" lon="12.544498015085395"><ele>54.5</ele><time>2026-03-30T07:38:55Z</time></trkpt><trkpt lat="46.0037138339974" lon="12.544319609248834"><ele>54.0</ele><time>2026-03-30T07:38:56Z</time></trkpt><trkpt lat="46.00379073745495" lon="12.544163286026983"><ele>53.5</ele><time>2026-03-30T07:38:57Z</time></trkpt><trkpt lat="46.00385704708919" lon="12.544030638362042"><ele>53.0</ele><time>2026-03-30T07:38:58Z</time></trkpt><trkpt lat="46.00392709778486" lon="12.543935220914381"><ele>53.00000000000001</ele><time>2026-03-30T07:38:59Z</time></trkpt><trkpt lat="46.00395702624974" lon="12.543834130973805"><ele>53.0</ele><time>2026-03-30T07:39:00Z</time></trkpt><trkpt lat="46.0040032124766" lon="12.543718879701945"><ele>53.0</ele><time>2026-03-30T07:39:02Z</time></trkpt><trkpt lat="46.004052304727125" lon="12.543635784936901"><ele>53.0</ele><time>2026-03-30T07:39:03Z</time></trkpt><trkpt lat="46.004102914093025" lon="12.543539690188"><ele>53.00000000000001</ele><time>2026-03-30T07:39:04Z</time></trkpt><trkpt lat="46.00416915586223" lon="12.543428208667242"><ele>53.0</ele><time>2026-03-30T07:39:05Z</time></trkpt><trkpt lat="46.00422470585169" lon="12.543304437793047"><ele>53.0</ele><time>2026-03-30T07:39:06Z</time></trkpt><trkpt lat="46.004300715970274" lon="12.543180931339826"><ele>53.0</ele><time>2026-03-30T07:39:07Z</time></trkpt><trkpt lat="46.00438079671243" lon="12.543039338003496"><ele>53.0</ele><time>2026-03-30T07:39:08Z</time></trkpt><trkpt lat="46.00446907539419" lon="12.542899420267567"><ele>53.0</ele><time>2026-03-30T07:39:09Z</time></trkpt><trkpt lat="46.004560713133685" lon="12.542755521142958"><ele>53.0</ele><time>2026-03-30T07:39:10Z</time></trkpt><trkpt lat="46.00464727618705" lon="12.542611987863362"><ele>53.0</ele><time>2026-03-30T07:39:11Z</time></trkpt><trkpt lat="46.00473233017277" lon="12.542475020356148"><ele>53.0</ele><time>2026-03-30T07:39:12Z</time></trkpt><trkpt lat="46.004817103943566" lon="12.542340549751303"><ele>53.0</ele><time>2026-03-30T07:39:13Z</time></trkpt><trkpt lat="46.004913038954385" lon="12.542200813642786"><ele>52.333333333333336</ele><time>2026-03-30T07:39:14Z</time></trkpt><trkpt lat="46.00501862622614" lon="12.54204467737089"><ele>51.66666666666667</ele><time>2026-03-30T07:39:14.999Z</time></trkpt><trkpt lat="46.005129701217776" lon="12.541891095223741"><ele>51.0</ele><time>2026-03-30T07:39:15.999Z</time></trkpt><trkpt lat="46.005244783581794" lon="12.54173228153601"><ele>51.0</ele><time>2026-03-30T07:39:16.999Z</time></trkpt><trkpt lat="46.005355807093316" lon="12.541574080330374"><ele>51.0</ele><time>2026-03-30T07:39:17.999Z</time></trkpt><trkpt lat="46.005468566427226" lon="12.541405795852043"><ele>51.0</ele><time>2026-03-30T07:39:18.999Z</time></trkpt><trkpt lat="46.00559198882218" lon="12.541206860867252"><ele>51.0</ele><time>2026-03-30T07:39:19.999Z</time></trkpt><trkpt lat="46.0057350906219" lon="12.540999195209036"><ele>51.0</ele><time>2026-03-30T07:39:20.999Z</time></trkpt><trkpt lat="46.005877066656474" lon="12.540753763495946"><ele>51.0</ele><time>2026-03-30T07:39:21.999Z</time></trkpt><trkpt lat="46.00600598689897" lon="12.540547548542662"><ele>52.0</ele><time>2026-03-30T07:39:22.999Z</time></trkpt><trkpt lat="46.00613843927375" lon="12.540338660259895"><ele>53.0</ele><time>2026-03-30T07:39:23.999Z</time></trkpt><trkpt lat="46.00625722351235" lon="12.54014477453167"><ele>54.0</ele><time>2026-03-30T07:39:24.999Z</time></trkpt><trkpt lat="46.006374375133895" lon="12.539951006295722"><ele>54.0</ele><time>2026-03-30T07:39:25.999Z</time></trkpt><trkpt lat="46.0064909832437" lon="12.539759128531117"><ele>54.0</ele><time>2026-03-30T07:39:26.999Z</time></trkpt><trkpt lat="46.00660975865025" lon="12.539553121761312"><ele>54.0</ele><time>2026-03-30T07:39:27.999Z</time></trkpt><trkpt lat="46.00672783611248" lon="12.539339637882929"><ele>53.66666666666667</ele><time>2026-03-30T07:39:28.999Z</time></trkpt><trkpt lat="46.00683030818233" lon="12.539152181751417"><ele>53.333333333333336</ele><time>2026-03-30T07:39:29.999Z</time></trkpt><trkpt lat="46.006926939521556" lon="12.538982454973462"><ele>53.0</ele><time>2026-03-30T07:39:30.999Z</time></trkpt><trkpt lat="46.00701507560885" lon="12.538832745699157"><ele>53.0</ele><time>2026-03-30T07:39:31.999Z</time></trkpt><trkpt lat="46.00710798686081" lon="12.53865668547073"><ele>53.0</ele><time>2026-03-30T07:39:32.999Z</time></trkpt><trkpt lat="46.0071964745987" lon="12.538502228795513"><ele>53.0</ele><time>2026-03-30T07:39:33.999Z</time></trkpt><trkpt lat="46.00728603291443" lon="12.538366493191246"><ele>53.0</ele><time>2026-03-30T07:39:34.999Z</time></trkpt><trkpt lat="46.007395585547954" lon="12.538205455198645"><ele>53.0</ele><time>2026-03-30T07:39:35.999Z</time></trkpt><trkpt lat="46.00747818803317" lon="12.538051619017685"><ele>53.0</ele><time>2026-03-30T07:39:36.999Z</time></trkpt><trkpt lat="46.00755183270233" lon="12.5379085503065"><ele>53.0</ele><time>2026-03-30T07:39:37.999Z</time></trkpt><trkpt lat="46.00763202325736" lon="12.537769912195373"><ele>53.0</ele><time>2026-03-30T07:39:38.999Z</time></trkpt><trkpt lat="46.00770543005982" lon="12.537649268916148"><ele>53.0</ele><time>2026-03-30T07:39:39.999Z</time></trkpt><trkpt lat="46.00773916009534" lon="12.537509206882795"><ele>53.0</ele><time>2026-03-30T07:39:40.999Z</time></trkpt><trkpt lat="46.00773885633136" lon="12.537348353537146"><ele>53.0</ele><time>2026-03-30T07:39:41.999Z</time></trkpt><trkpt lat="46.00774244598028" lon="12.53719744340471"><ele>53.0</ele><time>2026-03-30T07:39:42.999Z</time></trkpt><trkpt lat="46.00776586795234" lon="12.537072206653646"><ele>53.0</ele><time>2026-03-30T07:39:43.999Z</time></trkpt><trkpt lat="46.0077762849021" lon="12.53694930009548"><ele>53.2</ele><time>2026-03-30T07:39:44.999Z</time></trkpt><trkpt lat="46.00779105052633" lon="12.53681664809273"><ele>53.4</ele><time>2026-03-30T07:39:45.999Z</time></trkpt><trkpt lat="46.00781282342599" lon="12.536686792578882"><ele>53.60000000000001</ele><time>2026-03-30T07:39:46.999Z</time></trkpt><trkpt lat="46.007818516783075" lon="12.536559571711438"><ele>53.800000000000004</ele><time>2026-03-30T07:39:47.999Z</time></trkpt><trkpt lat="46.00784307104076" lon="12.53644487595649"><ele>54.0</ele><time>2026-03-30T07:39:48.999Z</time></trkpt><trkpt lat="46.0078781555853" lon="12.536320732695273"><ele>54.0</ele><time>2026-03-30T07:39:49.999Z</time></trkpt><trkpt lat="46.0079374754018" lon="12.536233304702897"><ele>54.00000000000001</ele><time>2026-03-30T07:39:50.999Z</time></trkpt><trkpt lat="46.007971082894564" lon="12.536128018541298"><ele>54.00000000000001</ele><time>2026-03-30T07:39:51.999Z</time></trkpt><trkpt lat="46.008071957645974" lon="12.536047924128615"><ele>54.0</ele><time>2026-03-30T07:39:53.999Z</time></trkpt><trkpt lat="46.008159656972786" lon="12.536041282775898"><ele>54.0</ele><time>2026-03-30T07:39:54.999Z</time></trkpt><trkpt lat="46.00825378603237" lon="12.5360089534665"><ele>53.75</ele><time>2026-03-30T07:39:55.999Z</time></trkpt><trkpt lat="46.00835884520987" lon="12.535947409047145"><ele>53.5</ele><time>2026-03-30T07:39:56.999Z</time></trkpt><trkpt lat="46.008464258789324" lon="12.535851955607756"><ele>53.25</ele><time>2026-03-30T07:39:57.999Z</time></trkpt><trkpt lat="46.00859305364724" lon="12.535706918808971"><ele>53.0</ele><time>2026-03-30T07:39:58.999Z</time></trkpt><trkpt lat="46.00874634979406" lon="12.535520307510984"><ele>52.66666666666667</ele><time>2026-03-30T07:39:59.999Z</time></trkpt><trkpt lat="46.00889703697269" lon="12.53537075169824"><ele>52.33333333333333</ele><time>2026-03-30T07:40:00.999Z</time></trkpt><trkpt lat="46.00903019825661" lon="12.53524927464794"><ele>52.0</ele><time>2026-03-30T07:40:01.999Z</time></trkpt><trkpt lat="46.009153395262146" lon="12.535117520807075"><ele>52.0</ele><time>2026-03-30T07:40:02.999Z</time></trkpt><trkpt lat="46.00926370418876" lon="12.534972687297188"><ele>52.0</ele><time>2026-03-30T07:40:03.999Z</time></trkpt><trkpt lat="46.00935595972015" lon="12.534835223627313"><ele>52.0</ele><time>2026-03-30T07:40:04.999Z</time></trkpt><trkpt lat="46.00942984109975" lon="12.534710076049645"><ele>52.0</ele><time>2026-03-30T07:40:05.999Z</time></trkpt><trkpt lat="46.00949125565576" lon="12.534604205194043"><ele>51.99999999999999</ele><time>2026-03-30T07:40:06.999Z</time></trkpt><trkpt lat="46.00954791777114" lon="12.534519245306607"><ele>52.0</ele><time>2026-03-30T07:40:07.999Z</time></trkpt><trkpt lat="46.009607634147756" lon="12.534457169967217"><ele>52.0</ele><time>2026-03-30T07:40:08.999Z</time></trkpt><trkpt lat="46.009673238525444" lon="12.534388655578876"><ele>52.0</ele><time>2026-03-30T07:40:10Z</time></trkpt><trkpt lat="46.00974658480275" lon="12.53433183578152"><ele>51.99999999999999</ele><time>2026-03-30T07:40:11Z</time></trkpt><trkpt lat="46.009828847036786" lon="12.534286680422678"><ele>52.0</ele><time>2026-03-30T07:40:12Z</time></trkpt><trkpt lat="46.00992933860023" lon="12.534250930404228"><ele>52.25</ele><time>2026-03-30T07:40:13Z</time></trkpt><trkpt lat="46.010042803743055" lon="12.534206258887913"><ele>52.5</ele><time>2026-03-30T07:40:14Z</time></trkpt><trkpt lat="46.01016715849445" lon="12.534158559914367"><ele>52.75</ele><time>2026-03-30T07:40:15Z</time></trkpt><trkpt lat="46.010296213157076" lon="12.534085260100337"><ele>53.0</ele><time>2026-03-30T07:40:16Z</time></trkpt><trkpt lat="46.01043473812977" lon="12.533976379037673"><ele>53.0</ele><time>2026-03-30T07:40:17Z</time></trkpt><trkpt lat="46.010578563245225" lon="12.533848682437535"><ele>53.0</ele><time>2026-03-30T07:40:18Z</time></trkpt><trkpt lat="46.01073935021896" lon="12.533726361240193"><ele>53.0</ele><time>2026-03-30T07:40:19Z</time></trkpt><trkpt lat="46.010867467182784" lon="12.533612197743958"><ele>53.25</ele><time>2026-03-30T07:40:20Z</time></trkpt><trkpt lat="46.01096875064092" lon="12.533503461949662"><ele>53.5</ele><time>2026-03-30T07:40:21Z</time></trkpt><trkpt lat="46.011056820675364" lon="12.53342963317653"><ele>53.75</ele><time>2026-03-30T07:40:22Z</time></trkpt><trkpt lat="46.0111447689659" lon="12.533317820132527"><ele>54.0</ele><time>2026-03-30T07:40:23Z</time></trkpt><trkpt lat="46.01124966917982" lon="12.53316305158498"><ele>54.0</ele><time>2026-03-30T07:40:24Z</time></trkpt><trkpt lat="46.01137571852492" lon="12.532985887155794"><ele>54.0</ele><time>2026-03-30T07:40:25Z</time></trkpt><trkpt lat="46.01149509971072" lon="12.532822671163087"><ele>54.0</ele><time>2026-03-30T07:40:26Z</time></trkpt><trkpt lat="46.01160230920075" lon="12.532663110716948"><ele>53.33333333333333</ele><time>2026-03-30T07:40:27Z</time></trkpt><trkpt lat="46.011716518716455" lon="12.532468860184133"><ele>52.666666666666664</ele><time>2026-03-30T07:40:28Z</time></trkpt><trkpt lat="46.01183041479807" lon="12.532288273326582"><ele>52.0</ele><time>2026-03-30T07:40:29Z</time></trkpt><trkpt lat="46.01194590741502" lon="12.532139918118833"><ele>52.33333333333333</ele><time>2026-03-30T07:40:30Z</time></trkpt><trkpt lat="46.012075755180504" lon="12.531993136480432"><ele>52.66666666666667</ele><time>2026-03-30T07:40:31Z</time></trkpt><trkpt lat="46.012210472922604" lon="12.531848439438226"><ele>53.0</ele><time>2026-03-30T07:40:32Z</time></trkpt><trkpt lat="46.01234826793498" lon="12.531710112189824"><ele>53.0</ele><time>2026-03-30T07:40:33Z</time></trkpt><trkpt lat="46.01247648005882" lon="12.531592018451565"><ele>53.0</ele><time>2026-03-30T07:40:34Z</time></trkpt><trkpt lat="46.01260672405718" lon="12.531486272435993"><ele>53.0</ele><time>2026-03-30T07:40:35Z</time></trkpt><trkpt lat="46.012750829016056" lon="12.531375768574902"><ele>52.66666666666667</ele><time>2026-03-30T07:40:36Z</time></trkpt><trkpt lat="46.01292584264734" lon="12.53125096077558"><ele>52.33333333333333</ele><time>2026-03-30T07:40:37Z</time></trkpt><trkpt lat="46.01312288223882" lon="12.531117842465239"><ele>52.0</ele><time>2026-03-30T07:40:38Z</time></trkpt><trkpt lat="46.01331238841735" lon="12.530995169350403"><ele>52.0</ele><time>2026-03-30T07:40:39Z</time></trkpt><trkpt lat="46.01349508964174" lon="12.530866105341275"><ele>52.0</ele><time>2026-03-30T07:40:40Z</time></trkpt><trkpt lat="46.01367202164653" lon="12.530723725071603"><ele>52.0</ele><time>2026-03-30T07:40:41Z</time></trkpt><trkpt lat="46.013831545776455" lon="12.530571499266115"><ele>52.0</ele><time>2026-03-30T07:40:42Z</time></trkpt><trkpt lat="46.01396980658917" lon="12.530433419770816"><ele>52.0</ele><time>2026-03-30T07:40:43Z</time></trkpt><trkpt lat="46.01410133276375" lon="12.530300510881538"><ele>52.0</ele><time>2026-03-30T07:40:44Z</time></trkpt><trkpt lat="46.01420970085314" lon="12.530187324085903"><ele>53.25</ele><time>2026-03-30T07:40:45Z</time></trkpt><trkpt lat="46.01430727867955" lon="12.530083380118047"><ele>54.5</ele><time>2026-03-30T07:40:46Z</time></trkpt><trkpt lat="46.01441629205993" lon="12.529987044007118"><ele>55.75</ele><time>2026-03-30T07:40:47Z</time></trkpt><trkpt lat="46.014519258779025" lon="12.529826458088136"><ele>57.0</ele><time>2026-03-30T07:40:48Z</time></trkpt><trkpt lat="46.01464226960558" lon="12.52968740437761"><ele>57.0</ele><time>2026-03-30T07:40:49Z</time></trkpt><trkpt lat="46.01476387370503" lon="12.52955658139753"><ele>57.0</ele><time>2026-03-30T07:40:50Z</time></trkpt><trkpt lat="46.01489984396831" lon="12.529434947705319"><ele>57.0</ele><time>2026-03-30T07:40:51Z</time></trkpt><trkpt lat="46.01503458313962" lon="12.529311973892684"><ele>57.25</ele><time>2026-03-30T07:40:52Z</time></trkpt><trkpt lat="46.01516843543249" lon="12.529168542945973"><ele>57.5</ele><time>2026-03-30T07:40:53Z</time></trkpt><trkpt lat="46.01528306110371" lon="12.529048050826157"><ele>57.75</ele><time>2026-03-30T07:40:54Z</time></trkpt><trkpt lat="46.01538081008858" lon="12.528954951317244"><ele>58.0</ele><time>2026-03-30T07:40:55Z</time></trkpt><trkpt lat="46.01546896695328" lon="12.52886716422061"><ele>58.0</ele><time>2026-03-30T07:40:56Z</time></trkpt><trkpt lat="46.015542814340186" lon="12.528775932808038"><ele>58.0</ele><time>2026-03-30T07:40:57Z</time></trkpt><trkpt lat="46.01560664848826" lon="12.528691520027419"><ele>58.0</ele><time>2026-03-30T07:40:58Z</time></trkpt><trkpt lat="46.01566835999963" lon="12.528611996738"><ele>58.0</ele><time>2026-03-30T07:40:59Z</time></trkpt><trkpt lat="46.015744374040615" lon="12.528509145847678"><ele>58.0</ele><time>2026-03-30T07:41:00Z</time></trkpt><trkpt lat="46.01584411616807" lon="12.528377709988215"><ele>57.33333333333333</ele><time>2026-03-30T07:41:01Z</time></trkpt><trkpt lat="46.015974428775415" lon="12.528263553105358"><ele>56.66666666666667</ele><time>2026-03-30T07:41:02Z</time></trkpt><trkpt lat="46.01609614814856" lon="12.528144298727819"><ele>56.0</ele><time>2026-03-30T07:41:03Z</time></trkpt><trkpt lat="46.01622563087841" lon="12.528020452763078"><ele>55.25</ele><time>2026-03-30T07:41:04Z</time></trkpt><trkpt lat="46.01633933281357" lon="12.52788903148554"><ele>54.5</ele><time>2026-03-30T07:41:05Z</time></trkpt><trkpt lat="46.01645320402" lon="12.527785080033786"><ele>53.75</ele><time>2026-03-30T07:41:06Z</time></trkpt><trkpt lat="46.016549479891964" lon="12.527684914659012"><ele>53.0</ele><time>2026-03-30T07:41:07Z</time></trkpt><trkpt lat="46.01662967002956" lon="12.527585101326554"><ele>53.4</ele><time>2026-03-30T07:41:08Z</time></trkpt><trkpt lat="46.016704077156234" lon="12.527494329945235"><ele>53.8</ele><time>2026-03-30T07:41:09Z</time></trkpt><trkpt lat="46.0167576532471" lon="12.527385743844038"><ele>54.2</ele><time>2026-03-30T07:41:10Z</time></trkpt><trkpt lat="46.01682559055083" lon="12.52730840270745"><ele>54.6</ele><time>2026-03-30T07:41:11Z</time></trkpt><trkpt lat="46.01691655588545" lon="12.527251763241107"><ele>55.0</ele><time>2026-03-30T07:41:12Z</time></trkpt><trkpt lat="46.01699879278751" lon="12.527156819321897"><ele>55.25</ele><time>2026-03-30T07:41:13Z</time></trkpt><trkpt lat="46.01708744975974" lon="12.527052585329196"><ele>55.5</ele><time>2026-03-30T07:41:14Z</time></trkpt><trkpt lat="46.017199395065326" lon="12.52695599839981"><ele>55.75</ele><time>2026-03-30T07:41:15Z</time></trkpt><trkpt lat="46.01731659062524" lon="12.526823576117888"><ele>56.0</ele><time>2026-03-30T07:41:16Z</time></trkpt><trkpt lat="46.01743918498489" lon="12.52668505361187"><ele>56.0</ele><time>2026-03-30T07:41:17Z</time></trkpt><trkpt lat="46.01756411333825" lon="12.526505948511193"><ele>56.0</ele><time>2026-03-30T07:41:18Z</time></trkpt><trkpt lat="46.01770171771266" lon="12.526327374936503"><ele>56.0</ele><time>2026-03-30T07:41:19Z</time></trkpt><trkpt lat="46.01783158421366" lon="12.52616732172208"><ele>55.8</ele><time>2026-03-30T07:41:20Z</time></trkpt><trkpt lat="46.017930205096846" lon="12.5260086043412"><ele>55.599999999999994</ele><time>2026-03-30T07:41:21Z</time></trkpt><trkpt lat="46.01800799461427" lon="12.525889941660578"><ele>55.4</ele><time>2026-03-30T07:41:22Z</time></trkpt><trkpt lat="46.01806671170202" lon="12.525799882721929"><ele>55.2</ele><time>2026-03-30T07:41:22.999Z</time></trkpt><trkpt lat="46.0181273841572" lon="12.525745296977878"><ele>55.0</ele><time>2026-03-30T07:41:23.999Z</time></trkpt><trkpt lat="46.01819353332062" lon="12.525683902715958"><ele>55.0</ele><time>2026-03-30T07:41:28.999Z</time></trkpt><trkpt lat="46.018218537346876" lon="12.52555583273048"><ele>55.0</ele><time>2026-03-30T07:41:35.999Z</time></trkpt><trkpt lat="46.018262176689355" lon="12.525458607675855"><ele>55.0</ele><time>2026-03-30T07:41:36.999Z</time></trkpt><trkpt lat="46.01802050725079" lon="12.525193413176035"><ele>54.666666666666664</ele><time>2026-03-30T07:41:37.999Z</time></trkpt><trkpt lat="46.018009190931814" lon="12.525081017541746"><ele>54.33333333333333</ele><time>2026-03-30T07:41:38.999Z</time></trkpt><trkpt lat="46.01798833456027" lon="12.524978284557152"><ele>54.0</ele><time>2026-03-30T07:41:39.999Z</time></trkpt><trkpt lat="46.01796974447819" lon="12.524867972800983"><ele>53.66666666666667</ele><time>2026-03-30T07:41:40.999Z</time></trkpt><trkpt lat="46.01795785547461" lon="12.524758336799193"><ele>53.333333333333336</ele><time>2026-03-30T07:41:41.999Z</time></trkpt><trkpt lat="46.01795398228218" lon="12.524650642861664"><ele>53.0</ele><time>2026-03-30T07:41:42.999Z</time></trkpt><trkpt lat="46.01795269231577" lon="12.52452192364301"><ele>52.8</ele><time>2026-03-30T07:41:43.999Z</time></trkpt><trkpt lat="46.01794810222887" lon="12.524374132348182"><ele>52.599999999999994</ele><time>2026-03-30T07:41:44.999Z</time></trkpt><trkpt lat="46.01795258520487" lon="12.52423478602999"><ele>52.400000000000006</ele><time>2026-03-30T07:41:45.999Z</time></trkpt><trkpt lat="46.017949542722995" lon="12.524110969965271"><ele>52.2</ele><time>2026-03-30T07:41:46.999Z</time></trkpt><trkpt lat="46.017954271075645" lon="12.52396780062936"><ele>52.0</ele><time>2026-03-30T07:41:47.999Z</time></trkpt><trkpt lat="46.01796416763282" lon="12.523807264752215"><ele>51.75</ele><time>2026-03-30T07:41:48.999Z</time></trkpt><trkpt lat="46.017975958823996" lon="12.523644603837663"><ele>51.5</ele><time>2026-03-30T07:41:49.999Z</time></trkpt><trkpt lat="46.01798276461552" lon="12.52347536530433"><ele>51.25</ele><time>2026-03-30T07:41:50.999Z</time></trkpt><trkpt lat="46.01799658040783" lon="12.523308781852148"><ele>51.0</ele><time>2026-03-30T07:41:51.999Z</time></trkpt><trkpt lat="46.01802556748817" lon="12.523149073747831"><ele>51.0</ele><time>2026-03-30T07:41:52.999Z</time></trkpt><trkpt lat="46.01806585470907" lon="12.522976515791607"><ele>51.0</ele><time>2026-03-30T07:41:53.999Z</time></trkpt><trkpt lat="46.018113026878105" lon="12.52279506210713"><ele>51.0</ele><time>2026-03-30T07:41:54.999Z</time></trkpt><trkpt lat="46.018159185710694" lon="12.522606799395827"><ele>51.0</ele><time>2026-03-30T07:41:55.999Z</time></trkpt><trkpt lat="46.01820726572381" lon="12.522429428813046"><ele>51.0</ele><time>2026-03-30T07:41:56.999Z</time></trkpt><trkpt lat="46.018251386121584" lon="12.522281876875635"><ele>51.0</ele><time>2026-03-30T07:41:57.999Z</time></trkpt><trkpt lat="46.018286812789476" lon="12.522158285202824"><ele>51.0</ele><time>2026-03-30T07:41:58.999Z</time></trkpt><trkpt lat="46.01830878082215" lon="12.52204726152484"><ele>51.0</ele><time>2026-03-30T07:41:59.999Z</time></trkpt><trkpt lat="46.01830553181327" lon="12.521949084824588"><ele>51.0</ele><time>2026-03-30T07:42:00.999Z</time></trkpt><trkpt lat="46.01827910285041" lon="12.521826817063012"><ele>51.0</ele><time>2026-03-30T07:42:01.999Z</time></trkpt><trkpt lat="46.01822428956648" lon="12.521667929205536"><ele>51.0</ele><time>2026-03-30T07:42:02.999Z</time></trkpt><trkpt lat="46.0181805600354" lon="12.521496122179865"><ele>51.0</ele><time>2026-03-30T07:42:03.999Z</time></trkpt><trkpt lat="46.01815867175815" lon="12.521317584681483"><ele>51.0</ele><time>2026-03-30T07:42:04.999Z</time></trkpt><trkpt lat="46.01813858835112" lon="12.521134139653698"><ele>51.0</ele><time>2026-03-30T07:42:05.999Z</time></trkpt><trkpt lat="46.01810874057918" lon="12.520970759632586"><ele>51.199999999999996</ele><time>2026-03-30T07:42:06.999Z</time></trkpt><trkpt lat="46.01807794748456" lon="12.520860475602582"><ele>51.4</ele><time>2026-03-30T07:42:07.999Z</time></trkpt><trkpt lat="46.0180521394347" lon="12.52076859939335"><ele>51.6</ele><time>2026-03-30T07:42:08.999Z</time></trkpt><trkpt lat="46.01804312544672" lon="12.52064210651832"><ele>51.8</ele><time>2026-03-30T07:42:09.999Z</time></trkpt><trkpt lat="46.01805255876636" lon="12.520477468780513"><ele>52.0</ele><time>2026-03-30T07:42:10.999Z</time></trkpt><trkpt lat="46.01805070090644" lon="12.52029639368357"><ele>51.25</ele><time>2026-03-30T07:42:11.999Z</time></trkpt><trkpt lat="46.01802345864663" lon="12.520135236583023"><ele>50.5</ele><time>2026-03-30T07:42:12.999Z</time></trkpt><trkpt lat="46.017980365443755" lon="12.519995030492142"><ele>49.75</ele><time>2026-03-30T07:42:13.999Z</time></trkpt><trkpt lat="46.01792202813889" lon="12.519841483883262"><ele>49.0</ele><time>2026-03-30T07:42:14.999Z</time></trkpt><trkpt lat="46.017847431505366" lon="12.519674230970196"><ele>48.75</ele><time>2026-03-30T07:42:16Z</time></trkpt><trkpt lat="46.017767512107575" lon="12.519498854160501"><ele>48.5</ele><time>2026-03-30T07:42:17Z</time></trkpt><trkpt lat="46.01769715359982" lon="12.519337901524914"><ele>48.25</ele><time>2026-03-30T07:42:18Z</time></trkpt><trkpt lat="46.01761888486486" lon="12.51918645950569"><ele>48.0</ele><time>2026-03-30T07:42:19Z</time></trkpt><trkpt lat="46.01752742283118" lon="12.519044887204759"><ele>47.25</ele><time>2026-03-30T07:42:20Z</time></trkpt><trkpt lat="46.017441018341366" lon="12.51890331308948"><ele>46.5</ele><time>2026-03-30T07:42:21Z</time></trkpt><trkpt lat="46.01736978550262" lon="12.518757562878742"><ele>45.75</ele><time>2026-03-30T07:42:22Z</time></trkpt><trkpt lat="46.017311611964686" lon="12.518614858902946"><ele>45.0</ele><time>2026-03-30T07:42:23Z</time></trkpt><trkpt lat="46.01725717193261" lon="12.518514599617747"><ele>45.0</ele><time>2026-03-30T07:42:24Z</time></trkpt><trkpt lat="46.01718637216066" lon="12.518434077220906"><ele>45.0</ele><time>2026-03-30T07:42:25Z</time></trkpt><trkpt lat="46.01709695811214" lon="12.518352523593375"><ele>45.0</ele><time>2026-03-30T07:42:26Z</time></trkpt><trkpt lat="46.017019396039814" lon="12.51828299673171"><ele>45.0</ele><time>2026-03-30T07:42:27Z</time></trkpt><trkpt lat="46.01694824477016" lon="12.518220698273208"><ele>45.0</ele><time>2026-03-30T07:42:28Z</time></trkpt><trkpt lat="46.01688172026873" lon="12.518134067010466"><ele>45.0</ele><time>2026-03-30T07:42:30Z</time></trkpt><trkpt lat="46.01689215443251" lon="12.518037913342967"><ele>45.0</ele><time>2026-03-30T07:42:32Z</time></trkpt><trkpt lat="46.01694204198907" lon="12.517963796933698"><ele>45.0</ele><time>2026-03-30T07:42:34Z</time></trkpt><trkpt lat="46.01698685581629" lon="12.517839892279392"><ele>45.0</ele><time>2026-03-30T07:42:38Z</time></trkpt><trkpt lat="46.01702816893047" lon="12.517729089001051"><ele>45.0</ele><time>2026-03-30T07:42:40Z</time></trkpt><trkpt lat="46.0170920119183" lon="12.517601846040023"><ele>45.0</ele><time>2026-03-30T07:42:42Z</time></trkpt><trkpt lat="46.017166681280784" lon="12.517612303991317"><ele>45.0</ele><time>2026-03-30T07:42:44Z</time></trkpt><trkpt lat="46.01723739720246" lon="12.517786448352563"><ele>45.0</ele><time>2026-03-30T07:42:46Z</time></trkpt><trkpt lat="46.01730458496634" lon="12.517905660372481"><ele>45.0</ele><time>2026-03-30T07:42:47Z</time></trkpt><trkpt lat="46.01740841522869" lon="12.518021297775155"><ele>45.0</ele><time>2026-03-30T07:42:48Z</time></trkpt><trkpt lat="46.01752747693162" lon="12.518164520544317"><ele>45.75</ele><time>2026-03-30T07:42:49Z</time></trkpt><trkpt lat="46.017624950835874" lon="12.518311067895077"><ele>46.5</ele><time>2026-03-30T07:42:50Z</time></trkpt><trkpt lat="46.01770016880739" lon="12.518450596002758"><ele>47.25</ele><time>2026-03-30T07:42:51Z</time></trkpt><trkpt lat="46.017765710578054" lon="12.518573888902193"><ele>48.0</ele><time>2026-03-30T07:42:52Z</time></trkpt><trkpt lat="46.017832088991824" lon="12.518672107256007"><ele>48.0</ele><time>2026-03-30T07:42:53Z</time></trkpt><trkpt lat="46.017895665128485" lon="12.518775656190261"><ele>48.0</ele><time>2026-03-30T07:42:54Z</time></trkpt><trkpt lat="46.01796328503577" lon="12.518881942230113"><ele>48.0</ele><time>2026-03-30T07:42:55Z</time></trkpt><trkpt lat="46.018038502705544" lon="12.519012353098825"><ele>48.0</ele><time>2026-03-30T07:42:56Z</time></trkpt><trkpt lat="46.01810871797002" lon="12.519130012899602"><ele>48.0</ele><time>2026-03-30T07:42:57Z</time></trkpt><trkpt lat="46.01816954364419" lon="12.519270424911094"><ele>48.0</ele><time>2026-03-30T07:42:58Z</time></trkpt><trkpt lat="46.01824751029785" lon="12.519408145342496"><ele>48.0</ele><time>2026-03-30T07:42:59Z</time></trkpt><trkpt lat="46.01833212731787" lon="12.519516794215567"><ele>48.0</ele><time>2026-03-30T07:43:00Z</time></trkpt><trkpt lat="46.01841561485962" lon="12.519622872015539"><ele>48.0</ele><time>2026-03-30T07:43:01Z</time></trkpt><trkpt lat="46.01846726408679" lon="12.519775184523818"><ele>48.33333333333333</ele><time>2026-03-30T07:43:02Z</time></trkpt><trkpt lat="46.01850775193218" lon="12.519983470972955"><ele>48.666666666666664</ele><time>2026-03-30T07:43:03Z</time></trkpt><trkpt lat="46.018603325471034" lon="12.520158771063247"><ele>49.0</ele><time>2026-03-30T07:43:04Z</time></trkpt><trkpt lat="46.018722581842184" lon="12.520312472629428"><ele>50.0</ele><time>2026-03-30T07:43:05Z</time></trkpt><trkpt lat="46.018814550786" lon="12.520484319690452"><ele>51.0</ele><time>2026-03-30T07:43:06Z</time></trkpt><trkpt lat="46.018889166544284" lon="12.52067000560665"><ele>52.0</ele><time>2026-03-30T07:43:07Z</time></trkpt><trkpt lat="46.01898457070524" lon="12.52082402243897"><ele>53.0</ele><time>2026-03-30T07:43:08Z</time></trkpt><trkpt lat="46.019091969522236" lon="12.520966701855109"><ele>52.66666666666667</ele><time>2026-03-30T07:43:09Z</time></trkpt><trkpt lat="46.01918363154248" lon="12.521150313343984"><ele>52.33333333333333</ele><time>2026-03-30T07:43:10Z</time></trkpt><trkpt lat="46.019282318587" lon="12.521321697723137"><ele>52.0</ele><time>2026-03-30T07:43:11Z</time></trkpt><trkpt lat="46.019371084948865" lon="12.521481141605696"><ele>52.0</ele><time>2026-03-30T07:43:12Z</time></trkpt><trkpt lat="46.01946429070779" lon="12.521628679803658"><ele>52.0</ele><time>2026-03-30T07:43:13Z</time></trkpt><trkpt lat="46.019542760238906" lon="12.521826529001334"><ele>52.0</ele><time>2026-03-30T07:43:14Z</time></trkpt><trkpt lat="46.01962954458012" lon="12.521978613975106"><ele>52.0</ele><time>2026-03-30T07:43:15Z</time></trkpt><trkpt lat="46.01968044047697" lon="12.52214321754213"><ele>52.0</ele><time>2026-03-30T07:43:16Z</time></trkpt><trkpt lat="46.01974057086024" lon="12.52229780587329"><ele>52.0</ele><time>2026-03-30T07:43:17Z</time></trkpt><trkpt lat="46.01980164014663" lon="12.522466386592065"><ele>52.0</ele><time>2026-03-30T07:43:18Z</time></trkpt><trkpt lat="46.01984524053905" lon="12.522655675035173"><ele>52.0</ele><time>2026-03-30T07:43:19Z</time></trkpt><trkpt lat="46.01990962950819" lon="12.522834668988901"><ele>52.0</ele><time>2026-03-30T07:43:20Z</time></trkpt><trkpt lat="46.01993822949209" lon="12.523026676797382"><ele>52.0</ele><time>2026-03-30T07:43:21Z</time></trkpt><trkpt lat="46.01999085283983" lon="12.523180915767629"><ele>52.0</ele><time>2026-03-30T07:43:22Z</time></trkpt><trkpt lat="46.02002848657843" lon="12.523309979974886"><ele>52.0</ele><time>2026-03-30T07:43:23Z</time></trkpt><trkpt lat="46.020045055602345" lon="12.523431815432192"><ele>52.0</ele><time>2026-03-30T07:43:24Z</time></trkpt><trkpt lat="46.02008254567829" lon="12.523514845578894"><ele>52.25</ele><time>2026-03-30T07:43:25Z</time></trkpt><trkpt lat="46.02013856913472" lon="12.523602221699248"><ele>52.5</ele><time>2026-03-30T07:43:27Z</time></trkpt><trkpt lat="46.020256689209155" lon="12.523571939777325"><ele>52.75</ele><time>2026-03-30T07:43:30Z</time></trkpt><trkpt lat="46.02036460983526" lon="12.52348212506441"><ele>53.0</ele><time>2026-03-30T07:43:31Z</time></trkpt><trkpt lat="46.02050128356537" lon="12.523407973869517"><ele>53.0</ele><time>2026-03-30T07:43:32Z</time></trkpt><trkpt lat="46.02061884731493" lon="12.523338782957575"><ele>53.0</ele><time>2026-03-30T07:43:33Z</time></trkpt><trkpt lat="46.02071716568706" lon="12.523280916834679"><ele>53.0</ele><time>2026-03-30T07:43:34Z</time></trkpt><trkpt lat="46.020780174334206" lon="12.523131346295054"><ele>53.0</ele><time>2026-03-30T07:43:35Z</time></trkpt><trkpt lat="46.02086966158837" lon="12.523036004737945"><ele>53.599999999999994</ele><time>2026-03-30T07:43:35.999Z</time></trkpt><trkpt lat="46.020971783924196" lon="12.522966316422329"><ele>54.199999999999996</ele><time>2026-03-30T07:43:36.999Z</time></trkpt><trkpt lat="46.02105752563506" lon="12.52287878002399"><ele>54.8</ele><time>2026-03-30T07:43:37.999Z</time></trkpt><trkpt lat="46.02113398083615" lon="12.522800422091088"><ele>55.4</ele><time>2026-03-30T07:43:38.999Z</time></trkpt><trkpt lat="46.02119448519597" lon="12.522709650969084"><ele>56.0</ele><time>2026-03-30T07:43:39.999Z</time></trkpt><trkpt lat="46.021264600768035" lon="12.52264407947238"><ele>56.16666666666667</ele><time>2026-03-30T07:43:40.999Z</time></trkpt><trkpt lat="46.02132578318424" lon="12.522569723725175"><ele>56.333333333333336</ele><time>2026-03-30T07:43:41.999Z</time></trkpt><trkpt lat="46.021389198909546" lon="12.522496409700873"><ele>56.5</ele><time>2026-03-30T07:43:42.999Z</time></trkpt><trkpt lat="46.02145162577821" lon="12.522424559986227"><ele>56.66666666666667</ele><time>2026-03-30T07:43:43.999Z</time></trkpt><trkpt lat="46.021512015006195" lon="12.522350511147645"><ele>56.833333333333336</ele><time>2026-03-30T07:43:44.999Z</time></trkpt><trkpt lat="46.021563584822104" lon="12.522265416690075"><ele>57.0</ele><time>2026-03-30T07:43:45.999Z</time></trkpt><trkpt lat="46.02161334407162" lon="12.522173426916552"><ele>57.0</ele><time>2026-03-30T07:43:46.999Z</time></trkpt><trkpt lat="46.02165870495484" lon="12.522074687501748"><ele>57.0</ele><time>2026-03-30T07:43:47.999Z</time></trkpt><trkpt lat="46.02170039264303" lon="12.521973505161247"><ele>57.0</ele><time>2026-03-30T07:43:48.999Z</time></trkpt><trkpt lat="46.02174463845566" lon="12.521866126095908"><ele>57.0</ele><time>2026-03-30T07:43:49.999Z</time></trkpt><trkpt lat="46.02179653127345" lon="12.521752684627309"><ele>57.0</ele><time>2026-03-30T07:43:50.999Z</time></trkpt><trkpt lat="46.02184914588809" lon="12.521637282750543"><ele>57.0</ele><time>2026-03-30T07:43:51.999Z</time></trkpt><trkpt lat="46.021917419311094" lon="12.521531675090204"><ele>56.8</ele><time>2026-03-30T07:43:52.999Z</time></trkpt><trkpt lat="46.02197643607317" lon="12.521413932383323"><ele>56.6</ele><time>2026-03-30T07:43:53.999Z</time></trkpt><trkpt lat="46.02203276091616" lon="12.521293021746835"><ele>56.39999999999999</ele><time>2026-03-30T07:43:54.999Z</time></trkpt><trkpt lat="46.02207304495578" lon="12.521156105801932"><ele>56.199999999999996</ele><time>2026-03-30T07:43:55.999Z</time></trkpt><trkpt lat="46.022134698367715" lon="12.521035287292221"><ele>56.0</ele><time>2026-03-30T07:43:56.999Z</time></trkpt><trkpt lat="46.02218527005341" lon="12.520910264525481"><ele>56.0</ele><time>2026-03-30T07:43:57.999Z</time></trkpt><trkpt lat="46.02223227872204" lon="12.520796490500878"><ele>55.99999999999999</ele><time>2026-03-30T07:43:58.999Z</time></trkpt><trkpt lat="46.0222749577504" lon="12.52067491077562"><ele>55.99999999999999</ele><time>2026-03-30T07:43:59.999Z</time></trkpt><trkpt lat="46.02232282984281" lon="12.520552377326691"><ele>56.0</ele><time>2026-03-30T07:44:00.999Z</time></trkpt><trkpt lat="46.022367326758534" lon="12.52042779681084"><ele>56.0</ele><time>2026-03-30T07:44:01.999Z</time></trkpt><trkpt lat="46.02242327603284" lon="12.520315110465456"><ele>55.8</ele><time>2026-03-30T07:44:02.999Z</time></trkpt><trkpt lat="46.02248140951775" lon="12.520206646770417"><ele>55.599999999999994</ele><time>2026-03-30T07:44:03.999Z</time></trkpt><trkpt lat="46.02253632974058" lon="12.520097433102814"><ele>55.4</ele><time>2026-03-30T07:44:04.999Z</time></trkpt><trkpt lat="46.022596494619776" lon="12.519993056628197"><ele>55.2</ele><time>2026-03-30T07:44:05.999Z</time></trkpt><trkpt lat="46.02265873551016" lon="12.519890637796117"><ele>55.0</ele><time>2026-03-30T07:44:06.999Z</time></trkpt><trkpt lat="46.022724798097805" lon="12.51978899133771"><ele>55.0</ele><time>2026-03-30T07:44:07.999Z</time></trkpt><trkpt lat="46.02279335970699" lon="12.519691447216752"><ele>55.0</ele><time>2026-03-30T07:44:08.999Z</time></trkpt><trkpt lat="46.02286235663349" lon="12.519592999179862"><ele>55.0</ele><time>2026-03-30T07:44:09.999Z</time></trkpt><trkpt lat="46.022931673664694" lon="12.519489846091647"><ele>55.0</ele><time>2026-03-30T07:44:10.999Z</time></trkpt><trkpt lat="46.02300313119138" lon="12.519386131699694"><ele>55.0</ele><time>2026-03-30T07:44:11.999Z</time></trkpt><trkpt lat="46.023079404815775" lon="12.519288372867596"><ele>55.0</ele><time>2026-03-30T07:44:12.999Z</time></trkpt><trkpt lat="46.02315565799101" lon="12.519185738508375"><ele>55.0</ele><time>2026-03-30T07:44:13.999Z</time></trkpt><trkpt lat="46.02322710689366" lon="12.519079909244539"><ele>55.0</ele><time>2026-03-30T07:44:14.999Z</time></trkpt><trkpt lat="46.02329917385867" lon="12.51897186349809"><ele>55.0</ele><time>2026-03-30T07:44:15.999Z</time></trkpt><trkpt lat="46.02337266236823" lon="12.518864179054745"><ele>55.0</ele><time>2026-03-30T07:44:16.999Z</time></trkpt><trkpt lat="46.02344590176466" lon="12.51874796872496"><ele>55.2</ele><time>2026-03-30T07:44:17.999Z</time></trkpt><trkpt lat="46.02352401655195" lon="12.518629968191036"><ele>55.4</ele><time>2026-03-30T07:44:18.999Z</time></trkpt><trkpt lat="46.02359266255569" lon="12.51849954635134"><ele>55.599999999999994</ele><time>2026-03-30T07:44:19.999Z</time></trkpt><trkpt lat="46.023660678849375" lon="12.518378188560593"><ele>55.8</ele><time>2026-03-30T07:44:20.999Z</time></trkpt><trkpt lat="46.02371817469584" lon="12.51824965577802"><ele>56.0</ele><time>2026-03-30T07:44:22Z</time></trkpt><trkpt lat="46.023763986283576" lon="12.51812058558549"><ele>56.0</ele><time>2026-03-30T07:44:23Z</time></trkpt><trkpt lat="46.02380284203386" lon="12.517990688564952"><ele>55.99999999999999</ele><time>2026-03-30T07:44:24Z</time></trkpt><trkpt lat="46.02384075130271" lon="12.517863173379865"><ele>55.99999999999999</ele><time>2026-03-30T07:44:25Z</time></trkpt><trkpt lat="46.02387521746358" lon="12.51773697774801"><ele>56.0</ele><time>2026-03-30T07:44:26Z</time></trkpt><trkpt lat="46.023904744049666" lon="12.517608378213936"><ele>56.0</ele><time>2026-03-30T07:44:27Z</time></trkpt><trkpt lat="46.02392927567161" lon="12.517480484277502"><ele>56.0</ele><time>2026-03-30T07:44:28Z</time></trkpt><trkpt lat="46.023957186262045" lon="12.51734819200461"><ele>55.99999999999999</ele><time>2026-03-30T07:44:29Z</time></trkpt><trkpt lat="46.02398467001964" lon="12.517210991230321"><ele>55.99999999999999</ele><time>2026-03-30T07:44:30Z</time></trkpt><trkpt lat="46.024012558670734" lon="12.517070119232201"><ele>56.0</ele><time>2026-03-30T07:44:31Z</time></trkpt><trkpt lat="46.02404655629853" lon="12.516925085988449"><ele>56.0</ele><time>2026-03-30T07:44:32Z</time></trkpt><trkpt lat="46.02408589351219" lon="12.516778329324502"><ele>56.00000000000001</ele><time>2026-03-30T07:44:33Z</time></trkpt><trkpt lat="46.02412545577244" lon="12.516649466585596"><ele>56.0</ele><time>2026-03-30T07:44:34Z</time></trkpt><trkpt lat="46.0241673398826" lon="12.51652763224776"><ele>56.0</ele><time>2026-03-30T07:44:35Z</time></trkpt><trkpt lat="46.02420201827811" lon="12.51641023697631"><ele>56.0</ele><time>2026-03-30T07:44:36Z</time></trkpt><trkpt lat="46.024235634755925" lon="12.516304756389355"><ele>56.00000000000001</ele><time>2026-03-30T07:44:37Z</time></trkpt><trkpt lat="46.024265597294146" lon="12.516203703326358"><ele>56.0</ele><time>2026-03-30T07:44:38Z</time></trkpt><trkpt lat="46.0242982577592" lon="12.51610568093618"><ele>56.14285714285714</ele><time>2026-03-30T07:44:39Z</time></trkpt><trkpt lat="46.02432835257721" lon="12.516010218064325"><ele>56.285714285714285</ele><time>2026-03-30T07:44:40Z</time></trkpt><trkpt lat="46.024359462235466" lon="12.51591413609973"><ele>56.42857142857143</ele><time>2026-03-30T07:44:41Z</time></trkpt><trkpt lat="46.02439569932191" lon="12.515819913192864"><ele>56.57142857142857</ele><time>2026-03-30T07:44:42Z</time></trkpt><trkpt lat="46.02442978852466" lon="12.515726092024703"><ele>56.71428571428571</ele><time>2026-03-30T07:44:43Z</time></trkpt><trkpt lat="46.02446100330075" lon="12.515625797375908"><ele>56.857142857142854</ele><time>2026-03-30T07:44:44Z</time></trkpt><trkpt lat="46.02448707987355" lon="12.515527645606797"><ele>57.0</ele><time>2026-03-30T07:44:45Z</time></trkpt><trkpt lat="46.02451413605213" lon="12.51542060636088"><ele>57.0</ele><time>2026-03-30T07:44:46Z</time></trkpt><trkpt lat="46.02453935381068" lon="12.515307197169898"><ele>57.0</ele><time>2026-03-30T07:44:47Z</time></trkpt><trkpt lat="46.02456579761754" lon="12.515192157031038"><ele>57.0</ele><time>2026-03-30T07:44:48Z</time></trkpt><trkpt lat="46.02458995763558" lon="12.51508265352013"><ele>57.0</ele><time>2026-03-30T07:44:49Z</time></trkpt><trkpt lat="46.024632800918695" lon="12.514977399988975"><ele>57.0</ele><time>2026-03-30T07:44:50Z</time></trkpt><trkpt lat="46.02466323190681" lon="12.514858735028776"><ele>57.0</ele><time>2026-03-30T07:44:51Z</time></trkpt><trkpt lat="46.02469315006421" lon="12.514747367011084"><ele>57.0</ele><time>2026-03-30T07:44:52Z</time></trkpt><trkpt lat="46.024726452523126" lon="12.514635261514732"><ele>57.0</ele><time>2026-03-30T07:44:53Z</time></trkpt><trkpt lat="46.02476194719595" lon="12.514525336706333"><ele>57.0</ele><time>2026-03-30T07:44:54Z</time></trkpt><trkpt lat="46.024800214610394" lon="12.514418415924125"><ele>57.0</ele><time>2026-03-30T07:44:55Z</time></trkpt><trkpt lat="46.0248372566894" lon="12.514315187473615"><ele>57.0</ele><time>2026-03-30T07:44:56Z</time></trkpt><trkpt lat="46.024874924010255" lon="12.514210442467883"><ele>57.0</ele><time>2026-03-30T07:44:57Z</time></trkpt><trkpt lat="46.02491233165198" lon="12.514106419630268"><ele>56.857142857142854</ele><time>2026-03-30T07:44:58Z</time></trkpt><trkpt lat="46.02494691396679" lon="12.514010253424155"><ele>56.71428571428571</ele><time>2026-03-30T07:44:59Z</time></trkpt><trkpt lat="46.0249802404344" lon="12.51391757948962"><ele>56.57142857142857</ele><time>2026-03-30T07:45:00Z</time></trkpt><trkpt lat="46.025004017072106" lon="12.5138218421221"><ele>56.42857142857143</ele><time>2026-03-30T07:45:01Z</time></trkpt><trkpt lat="46.025034694326095" lon="12.513733848937637"><ele>56.285714285714285</ele><time>2026-03-30T07:45:02Z</time></trkpt><trkpt lat="46.025070476025626" lon="12.513651471183003"><ele>56.14285714285714</ele><time>2026-03-30T07:45:03Z</time></trkpt><trkpt lat="46.02511818097982" lon="12.513581842020248"><ele>56.0</ele><time>2026-03-30T07:45:04Z</time></trkpt><trkpt lat="46.025170648072745" lon="12.513512536089097"><ele>56.00000000000001</ele><time>2026-03-30T07:45:05Z</time></trkpt><trkpt lat="46.0252227142942" lon="12.513439318480861"><ele>56.0</ele><time>2026-03-30T07:45:06Z</time></trkpt><trkpt lat="46.02527207367388" lon="12.51335738522448"><ele>56.0</ele><time>2026-03-30T07:45:07Z</time></trkpt><trkpt lat="46.02532234086708" lon="12.513268799200132"><ele>56.0</ele><time>2026-03-30T07:45:08Z</time></trkpt><trkpt lat="46.02536555940414" lon="12.513171144660813"><ele>56.00000000000001</ele><time>2026-03-30T07:45:09Z</time></trkpt><trkpt lat="46.0254053763757" lon="12.513065507674977"><ele>56.0</ele><time>2026-03-30T07:45:10Z</time></trkpt><trkpt lat="46.025444456758564" lon="12.512958469490894"><ele>55.833333333333336</ele><time>2026-03-30T07:45:11Z</time></trkpt><trkpt lat="46.02548076405041" lon="12.512847880309083"><ele>55.66666666666667</ele><time>2026-03-30T07:45:12Z</time></trkpt><trkpt lat="46.02551614187945" lon="12.512734325830822"><ele>55.5</ele><time>2026-03-30T07:45:13Z</time></trkpt><trkpt lat="46.02555246965617" lon="12.512621575298402"><ele>55.33333333333333</ele><time>2026-03-30T07:45:14Z</time></trkpt><trkpt lat="46.0256003222272" lon="12.51252548693255"><ele>55.166666666666664</ele><time>2026-03-30T07:45:15Z</time></trkpt><trkpt lat="46.02565255990166" lon="12.512450404858063"><ele>55.0</ele><time>2026-03-30T07:45:16Z</time></trkpt><trkpt lat="46.02571977036651" lon="12.512377599539965"><ele>55.0</ele><time>2026-03-30T07:45:17Z</time></trkpt><trkpt lat="46.02579110889413" lon="12.512307387486716"><ele>55.0</ele><time>2026-03-30T07:45:18Z</time></trkpt><trkpt lat="46.02586650142325" lon="12.512236175012761"><ele>55.0</ele><time>2026-03-30T07:45:19Z</time></trkpt><trkpt lat="46.02594880461736" lon="12.512168672253512"><ele>55.0</ele><time>2026-03-30T07:45:20Z</time></trkpt><trkpt lat="46.026038951559556" lon="12.512104483248661"><ele>55.0</ele><time>2026-03-30T07:45:21Z</time></trkpt><trkpt lat="46.02613304197324" lon="12.512051944466263"><ele>54.83333333333333</ele><time>2026-03-30T07:45:22Z</time></trkpt><trkpt lat="46.02622357869395" lon="12.512007709431073"><ele>54.666666666666664</ele><time>2026-03-30T07:45:23Z</time></trkpt><trkpt lat="46.02630890486777" lon="12.51197497318626"><ele>54.5</ele><time>2026-03-30T07:45:24Z</time></trkpt><trkpt lat="46.026385898895796" lon="12.51195822887108"><ele>54.33333333333333</ele><time>2026-03-30T07:45:25Z</time></trkpt><trkpt lat="46.02647908338313" lon="12.511932085854555"><ele>54.166666666666664</ele><time>2026-03-30T07:45:27Z</time></trkpt><trkpt lat="46.026544210559535" lon="12.511929784534965"><ele>54.0</ele><time>2026-03-30T07:45:30Z</time></trkpt><trkpt lat="46.02657948605214" lon="12.511739199948487"><ele>54.0</ele><time>2026-03-30T07:45:32Z</time></trkpt><trkpt lat="46.026573044328345" lon="12.511634297417276"><ele>54.0</ele><time>2026-03-30T07:45:33Z</time></trkpt><trkpt lat="46.02657976199936" lon="12.511509745910663"><ele>54.0</ele><time>2026-03-30T07:45:34Z</time></trkpt><trkpt lat="46.02658973196869" lon="12.51139243616264"><ele>54.0</ele><time>2026-03-30T07:45:35Z</time></trkpt><trkpt lat="46.02660050350291" lon="12.511263364650564"><ele>54.0</ele><time>2026-03-30T07:45:36Z</time></trkpt><trkpt lat="46.02661440295446" lon="12.511132438233457"><ele>54.0</ele><time>2026-03-30T07:45:37Z</time></trkpt><trkpt lat="46.02663111475094" lon="12.510995792763055"><ele>54.400000000000006</ele><time>2026-03-30T07:45:38Z</time></trkpt><trkpt lat="46.02665306627756" lon="12.510854278832463"><ele>54.800000000000004</ele><time>2026-03-30T07:45:39Z</time></trkpt><trkpt lat="46.02667074928285" lon="12.510715146945062"><ele>55.199999999999996</ele><time>2026-03-30T07:45:40Z</time></trkpt><trkpt lat="46.02668425762598" lon="12.510575917338464"><ele>55.599999999999994</ele><time>2026-03-30T07:45:41Z</time></trkpt><trkpt lat="46.026694312746194" lon="12.510431956801028"><ele>56.0</ele><time>2026-03-30T07:45:42Z</time></trkpt><trkpt lat="46.026701337848365" lon="12.510286866827483"><ele>56.0</ele><time>2026-03-30T07:45:43Z</time></trkpt><trkpt lat="46.02670972438674" lon="12.51014118591731"><ele>55.99999999999999</ele><time>2026-03-30T07:45:44Z</time></trkpt><trkpt lat="46.026720031040384" lon="12.509998670466054"><ele>55.99999999999999</ele><time>2026-03-30T07:45:45Z</time></trkpt><trkpt lat="46.02673522241609" lon="12.509856385296603"><ele>56.0</ele><time>2026-03-30T07:45:46Z</time></trkpt><trkpt lat="46.026751941315915" lon="12.50971877208092"><ele>56.0</ele><time>2026-03-30T07:45:47Z</time></trkpt><trkpt lat="46.02676428404695" lon="12.509581523021176"><ele>55.833333333333336</ele><time>2026-03-30T07:45:47.999Z</time></trkpt><trkpt lat="46.02677636208711" lon="12.509445192033457"><ele>55.66666666666667</ele><time>2026-03-30T07:45:48.999Z</time></trkpt><trkpt lat="46.02678322099446" lon="12.509306291050821"><ele>55.5</ele><time>2026-03-30T07:45:49.999Z</time></trkpt><trkpt lat="46.02678349024293" lon="12.509176984122687"><ele>55.33333333333333</ele><time>2026-03-30T07:45:50.999Z</time></trkpt><trkpt lat="46.026777634650834" lon="12.509055389191397"><ele>55.166666666666664</ele><time>2026-03-30T07:45:51.999Z</time></trkpt><trkpt lat="46.02676967419717" lon="12.508943488258232"><ele>55.0</ele><time>2026-03-30T07:45:52.999Z</time></trkpt><trkpt lat="46.0267665231073" lon="12.508839437145996"><ele>54.99999999999999</ele><time>2026-03-30T07:45:53.999Z</time></trkpt><trkpt lat="46.026765394319085" lon="12.508741542580882"><ele>55.0</ele><time>2026-03-30T07:45:54.999Z</time></trkpt><trkpt lat="46.02673396637107" lon="12.508662695139108"><ele>55.0</ele><time>2026-03-30T07:45:55.999Z</time></trkpt><trkpt lat="46.026779750122294" lon="12.50854409794861"><ele>55.0</ele><time>2026-03-30T07:45:56.999Z</time></trkpt><trkpt lat="46.026797092970924" lon="12.508440878843288"><ele>54.99999999999999</ele><time>2026-03-30T07:45:57.999Z</time></trkpt><trkpt lat="46.02682679653857" lon="12.50833909425614"><ele>55.0</ele><time>2026-03-30T07:45:58.999Z</time></trkpt><trkpt lat="46.0268579055389" lon="12.508234918985584"><ele>55.0</ele><time>2026-03-30T07:45:59.999Z</time></trkpt><trkpt lat="46.02690859891621" lon="12.508138558476908"><ele>55.0</ele><time>2026-03-30T07:46:00.999Z</time></trkpt><trkpt lat="46.02696295447797" lon="12.50804234038464"><ele>55.0</ele><time>2026-03-30T07:46:01.999Z</time></trkpt><trkpt lat="46.02702430398137" lon="12.507935207844515"><ele>55.0</ele><time>2026-03-30T07:46:02.999Z</time></trkpt><trkpt lat="46.02708423301349" lon="12.507825577080423"><ele>55.0</ele><time>2026-03-30T07:46:03.999Z</time></trkpt><trkpt lat="46.02713782721922" lon="12.50770968833996"><ele>55.6</ele><time>2026-03-30T07:46:04.999Z</time></trkpt><trkpt lat="46.027185810275526" lon="12.507584246727724"><ele>56.2</ele><time>2026-03-30T07:46:05.999Z</time></trkpt><trkpt lat="46.02723893294412" lon="12.507460615433944"><ele>56.8</ele><time>2026-03-30T07:46:06.999Z</time></trkpt><trkpt lat="46.027293586028" lon="12.507329727630424"><ele>57.4</ele><time>2026-03-30T07:46:07.999Z</time></trkpt><trkpt lat="46.02736034816421" lon="12.507199818549262"><ele>58.0</ele><time>2026-03-30T07:46:08.999Z</time></trkpt><trkpt lat="46.02743517372803" lon="12.507072654789448"><ele>58.75</ele><time>2026-03-30T07:46:09.999Z</time></trkpt><trkpt lat="46.027516842175906" lon="12.506947345245177"><ele>59.5</ele><time>2026-03-30T07:46:10.999Z</time></trkpt><trkpt lat="46.027603451730315" lon="12.506823214193352"><ele>60.25</ele><time>2026-03-30T07:46:11.999Z</time></trkpt><trkpt lat="46.02769387532365" lon="12.506701662047785"><ele>61.0</ele><time>2026-03-30T07:46:12.999Z</time></trkpt><trkpt lat="46.02778535137482" lon="12.506586481164097"><ele>61.0</ele><time>2026-03-30T07:46:13.999Z</time></trkpt><trkpt lat="46.027881319456505" lon="12.506474059889948"><ele>61.0</ele><time>2026-03-30T07:46:14.999Z</time></trkpt><trkpt lat="46.0279988930889" lon="12.506394844593094"><ele>61.0</ele><time>2026-03-30T07:46:15.999Z</time></trkpt><trkpt lat="46.02809801646301" lon="12.506269550795295"><ele>61.0</ele><time>2026-03-30T07:46:16.999Z</time></trkpt><trkpt lat="46.028121072664455" lon="12.506052577126404"><ele>61.5</ele><time>2026-03-30T07:46:17.999Z</time></trkpt><trkpt lat="46.028192409679896" lon="12.505903888301825"><ele>62.0</ele><time>2026-03-30T07:46:18.999Z</time></trkpt><trkpt lat="46.02826138142619" lon="12.505752561022195"><ele>62.5</ele><time>2026-03-30T07:46:19.999Z</time></trkpt><trkpt lat="46.02832714072225" lon="12.505596753335224"><ele>63.0</ele><time>2026-03-30T07:46:20.999Z</time></trkpt><trkpt lat="46.02838296323933" lon="12.5054446663786"><ele>63.599999999999994</ele><time>2026-03-30T07:46:21.999Z</time></trkpt><trkpt lat="46.02843739957935" lon="12.505299374626208"><ele>64.19999999999999</ele><time>2026-03-30T07:46:22.999Z</time></trkpt><trkpt lat="46.028486359787706" lon="12.505160082121975"><ele>64.8</ele><time>2026-03-30T07:46:23.999Z</time></trkpt><trkpt lat="46.02853921004574" lon="12.505032104753353"><ele>65.39999999999999</ele><time>2026-03-30T07:46:24.999Z</time></trkpt><trkpt lat="46.028588017720494" lon="12.504904603608255"><ele>66.0</ele><time>2026-03-30T07:46:25.999Z</time></trkpt><trkpt lat="46.02863167370803" lon="12.504775568348197"><ele>66.0</ele><time>2026-03-30T07:46:26.999Z</time></trkpt><trkpt lat="46.02867249289655" lon="12.504642277923258"><ele>66.0</ele><time>2026-03-30T07:46:28Z</time></trkpt><trkpt lat="46.02871253902051" lon="12.504506415686949"><ele>66.0</ele><time>2026-03-30T07:46:29Z</time></trkpt><trkpt lat="46.02875141901858" lon="12.504367566566902"><ele>66.0</ele><time>2026-03-30T07:46:30Z</time></trkpt><trkpt lat="46.028792205542686" lon="12.50422120571197"><ele>66.0</ele><time>2026-03-30T07:46:31Z</time></trkpt><trkpt lat="46.028835210896716" lon="12.504067061059967"><ele>67.0</ele><time>2026-03-30T07:46:32Z</time></trkpt><trkpt lat="46.02887967857951" lon="12.503917196468475"><ele>68.0</ele><time>2026-03-30T07:46:33Z</time></trkpt><trkpt lat="46.02894413292344" lon="12.503778234156718"><ele>69.0</ele><time>2026-03-30T07:46:34Z</time></trkpt><trkpt lat="46.02899656248143" lon="12.503633101618052"><ele>70.0</ele><time>2026-03-30T07:46:35Z</time></trkpt><trkpt lat="46.02904643328916" lon="12.503494886464152"><ele>72.0</ele><time>2026-03-30T07:46:36Z</time></trkpt><trkpt lat="46.0290838474647" lon="12.503352973180691"><ele>74.0</ele><time>2026-03-30T07:46:37Z</time></trkpt><trkpt lat="46.02912993386564" lon="12.503227376659938"><ele>76.0</ele><time>2026-03-30T07:46:38Z</time></trkpt><trkpt lat="46.02917604538113" lon="12.50311087331168"><ele>78.0</ele><time>2026-03-30T07:46:39Z</time></trkpt><trkpt lat="46.02922347326503" lon="12.50300508385464"><ele>80.0</ele><time>2026-03-30T07:46:40Z</time></trkpt><trkpt lat="46.02927550179245" lon="12.50290851997558"><ele>74.6</ele><time>2026-03-30T07:46:41Z</time></trkpt><trkpt lat="46.02933230529592" lon="12.502824330190638"><ele>69.2</ele><time>2026-03-30T07:46:42Z</time></trkpt><trkpt lat="46.029411524690126" lon="12.502766763702652"><ele>63.8</ele><time>2026-03-30T07:46:43Z</time></trkpt><trkpt lat="46.02948604633818" lon="12.502682182203886"><ele>58.4</ele><time>2026-03-30T07:46:44Z</time></trkpt><trkpt lat="46.029562311006856" lon="12.502595622425307"><ele>53.0</ele><time>2026-03-30T07:46:45Z</time></trkpt><trkpt lat="46.02964176861096" lon="12.502513931897992"><ele>53.00000000000001</ele><time>2026-03-30T07:46:46Z</time></trkpt><trkpt lat="46.02971942078567" lon="12.502437496858716"><ele>53.0</ele><time>2026-03-30T07:46:47Z</time></trkpt><trkpt lat="46.02979543556667" lon="12.502362825801123"><ele>53.0</ele><time>2026-03-30T07:46:48Z</time></trkpt><trkpt lat="46.029870822631594" lon="12.502292776987586"><ele>53.0</ele><time>2026-03-30T07:46:49Z</time></trkpt><trkpt lat="46.02993296710933" lon="12.502216224938042"><ele>53.00000000000001</ele><time>2026-03-30T07:46:50Z</time></trkpt><trkpt lat="46.03001618267024" lon="12.50219449771769"><ele>53.0</ele><time>2026-03-30T07:46:51Z</time></trkpt><trkpt lat="46.0301060803032" lon="12.502161505441563"><ele>53.2</ele><time>2026-03-30T07:46:52Z</time></trkpt><trkpt lat="46.03020487574034" lon="12.502114006230316"><ele>53.4</ele><time>2026-03-30T07:46:53Z</time></trkpt><trkpt lat="46.030289846164955" lon="12.502056574958619"><ele>53.60000000000001</ele><time>2026-03-30T07:46:54Z</time></trkpt><trkpt lat="46.030366833345596" lon="12.50200076120874"><ele>53.800000000000004</ele><time>2026-03-30T07:46:55Z</time></trkpt><trkpt lat="46.03044834597148" lon="12.501942009715293"><ele>54.0</ele><time>2026-03-30T07:46:56Z</time></trkpt><trkpt lat="46.03052807408923" lon="12.501869058284644"><ele>52.333333333333336</ele><time>2026-03-30T07:46:57Z</time></trkpt><trkpt lat="46.03059350128101" lon="12.501783163198212"><ele>50.666666666666664</ele><time>2026-03-30T07:46:58Z</time></trkpt><trkpt lat="46.030643932465274" lon="12.501684227692165"><ele>49.0</ele><time>2026-03-30T07:46:59Z</time></trkpt><trkpt lat="46.03067146706379" lon="12.501582284467625"><ele>47.33333333333333</ele><time>2026-03-30T07:47:00Z</time></trkpt><trkpt lat="46.030690679419955" lon="12.501427502352245"><ele>45.666666666666664</ele><time>2026-03-30T07:47:02Z</time></trkpt><trkpt lat="46.0306872520393" lon="12.501311813916159"><ele>44.0</ele><time>2026-03-30T07:47:04Z</time></trkpt><trkpt lat="46.030668530520636" lon="12.501175382142888"><ele>43.800000000000004</ele><time>2026-03-30T07:47:06Z</time></trkpt><trkpt lat="46.03059651689205" lon="12.50104652169059"><ele>43.6</ele><time>2026-03-30T07:47:08Z</time></trkpt><trkpt lat="46.03053355698397" lon="12.500943176811688"><ele>43.4</ele><time>2026-03-30T07:47:10Z</time></trkpt><trkpt lat="46.030428407860335" lon="12.500866698056047"><ele>43.2</ele><time>2026-03-30T07:47:12Z</time></trkpt><trkpt lat="46.03037508162581" lon="12.500803063449165"><ele>43.0</ele><time>2026-03-30T07:47:13Z</time></trkpt><trkpt lat="46.030301005183624" lon="12.500659997567261"><ele>43.0</ele><time>2026-03-30T07:47:15Z</time></trkpt><trkpt lat="46.03030008594428" lon="12.500554451126304"><ele>43.0</ele><time>2026-03-30T07:47:16Z</time></trkpt><trkpt lat="46.03027003285502" lon="12.500432282076504"><ele>43.0</ele><time>2026-03-30T07:47:17Z</time></trkpt><trkpt lat="46.03025709173089" lon="12.500290113801954"><ele>43.0</ele><time>2026-03-30T07:47:18Z</time></trkpt><trkpt lat="46.03024669586455" lon="12.500166123682346"><ele>43.0</ele><time>2026-03-30T07:47:19Z</time></trkpt><trkpt lat="46.030235418400906" lon="12.50005287168914"><ele>43.0</ele><time>2026-03-30T07:47:20Z</time></trkpt><trkpt lat="46.03022661559499" lon="12.4999324091782"><ele>43.0</ele><time>2026-03-30T07:47:21Z</time></trkpt><trkpt lat="46.03021627736154" lon="12.499807404937654"><ele>43.0</ele><time>2026-03-30T07:47:22Z</time></trkpt><trkpt lat="46.03021006841975" lon="12.499685745241308"><ele>43.0</ele><time>2026-03-30T07:47:23Z</time></trkpt><trkpt lat="46.03020642525345" lon="12.499578036462896"><ele>43.0</ele><time>2026-03-30T07:47:24Z</time></trkpt><trkpt lat="46.03019716524049" lon="12.499476586007598"><ele>43.0</ele><time>2026-03-30T07:47:25Z</time></trkpt><trkpt lat="46.03018524200651" lon="12.49937491253081"><ele>43.0</ele><time>2026-03-30T07:47:26Z</time></trkpt><trkpt lat="46.0301668994723" lon="12.499277480056607"><ele>43.333333333333336</ele><time>2026-03-30T07:47:27Z</time></trkpt><trkpt lat="46.03012862161149" lon="12.499196824845278"><ele>43.66666666666667</ele><time>2026-03-30T07:47:28Z</time></trkpt><trkpt lat="46.03006226509747" lon="12.499133500072386"><ele>44.0</ele><time>2026-03-30T07:47:29Z</time></trkpt><trkpt lat="46.029993583214605" lon="12.499061012982683"><ele>44.333333333333336</ele><time>2026-03-30T07:47:30Z</time></trkpt><trkpt lat="46.029914650028466" lon="12.498994153112298"><ele>44.666666666666664</ele><time>2026-03-30T07:47:31Z</time></trkpt><trkpt lat="46.02983278648541" lon="12.498924796923584"><ele>45.0</ele><time>2026-03-30T07:47:32Z</time></trkpt><trkpt lat="46.02974168853445" lon="12.498870151449271"><ele>45.333333333333336</ele><time>2026-03-30T07:47:33Z</time></trkpt><trkpt lat="46.02967166452294" lon="12.498804402679918"><ele>45.666666666666664</ele><time>2026-03-30T07:47:34Z</time></trkpt><trkpt lat="46.029606942791524" lon="12.498754464774352"><ele>46.0</ele><time>2026-03-30T07:47:35Z</time></trkpt><trkpt lat="46.02955102599776" lon="12.498690250483975"><ele>46.33333333333333</ele><time>2026-03-30T07:47:36Z</time></trkpt><trkpt lat="46.02949538772817" lon="12.498642606301022"><ele>46.666666666666664</ele><time>2026-03-30T07:47:37Z</time></trkpt><trkpt lat="46.029433499059486" lon="12.498530666838889"><ele>47.0</ele><time>2026-03-30T07:47:39Z</time></trkpt><trkpt lat="46.02947560619228" lon="12.498366513642678"><ele>45.8</ele><time>2026-03-30T07:47:41Z</time></trkpt><trkpt lat="46.029544517574095" lon="12.498303267238489"><ele>44.6</ele><time>2026-03-30T07:47:42Z</time></trkpt><trkpt lat="46.02961603445228" lon="12.498219631186595"><ele>43.4</ele><time>2026-03-30T07:47:43Z</time></trkpt><trkpt lat="46.02968875358246" lon="12.498120909430066"><ele>42.199999999999996</ele><time>2026-03-30T07:47:44Z</time></trkpt><trkpt lat="46.02976839223716" lon="12.498050490462607"><ele>41.0</ele><time>2026-03-30T07:47:45Z</time></trkpt><trkpt lat="46.029860202720904" lon="12.497934719646693"><ele>41.25</ele><time>2026-03-30T07:47:46Z</time></trkpt><trkpt lat="46.029965720708006" lon="12.497789228100965"><ele>41.5</ele><time>2026-03-30T07:47:47Z</time></trkpt><trkpt lat="46.030063806890354" lon="12.497670478768073"><ele>41.75</ele><time>2026-03-30T07:47:48Z</time></trkpt><trkpt lat="46.030156891795066" lon="12.497585812198855"><ele>42.0</ele><time>2026-03-30T07:47:49Z</time></trkpt><trkpt lat="46.03025417056536" lon="12.497518279546883"><ele>42.0</ele><time>2026-03-30T07:47:50Z</time></trkpt><trkpt lat="46.030358416527385" lon="12.49745542534876"><ele>42.0</ele><time>2026-03-30T07:47:51Z</time></trkpt><trkpt lat="46.03047296482069" lon="12.497343143272003"><ele>42.0</ele><time>2026-03-30T07:47:51.999Z</time></trkpt><trkpt lat="46.03056123691109" lon="12.497231653550667"><ele>42.0</ele><time>2026-03-30T07:47:52.999Z</time></trkpt><trkpt lat="46.03065186415764" lon="12.497120727727301"><ele>41.75</ele><time>2026-03-30T07:47:53.999Z</time></trkpt><trkpt lat="46.030754072685646" lon="12.497013141615366"><ele>41.5</ele><time>2026-03-30T07:47:54.999Z</time></trkpt><trkpt lat="46.030858684028146" lon="12.496914872489972"><ele>41.25</ele><time>2026-03-30T07:47:55.999Z</time></trkpt><trkpt lat="46.030964989042275" lon="12.496831926529175"><ele>41.0</ele><time>2026-03-30T07:47:56.999Z</time></trkpt><trkpt lat="46.03107315119159" lon="12.496760708909756"><ele>42.0</ele><time>2026-03-30T07:47:57.999Z</time></trkpt><trkpt lat="46.031176610673846" lon="12.496692352705063"><ele>43.0</ele><time>2026-03-30T07:47:58.999Z</time></trkpt><trkpt lat="46.03127858419234" lon="12.496617538556377"><ele>44.0</ele><time>2026-03-30T07:47:59.999Z</time></trkpt><trkpt lat="46.03137658576735" lon="12.496535541686688"><ele>45.0</ele><time>2026-03-30T07:48:00.999Z</time></trkpt><trkpt lat="46.03146499499134" lon="12.496451647700873"><ele>46.0</ele><time>2026-03-30T07:48:01.999Z</time></trkpt><trkpt lat="46.031549070371796" lon="12.49636763451861"><ele>46.0</ele><time>2026-03-30T07:48:02.999Z</time></trkpt><trkpt lat="46.031628220595245" lon="12.496259611451087"><ele>46.0</ele><time>2026-03-30T07:48:03.999Z</time></trkpt><trkpt lat="46.03169142290008" lon="12.496119191400572"><ele>46.0</ele><time>2026-03-30T07:48:04.999Z</time></trkpt><trkpt lat="46.03174131509564" lon="12.495953363957424"><ele>46.0</ele><time>2026-03-30T07:48:05.999Z</time></trkpt><trkpt lat="46.031783176012325" lon="12.495776261463106"><ele>46.0</ele><time>2026-03-30T07:48:06.999Z</time></trkpt><trkpt lat="46.03181752462499" lon="12.495608517985646"><ele>46.0</ele><time>2026-03-30T07:48:07.999Z</time></trkpt><trkpt lat="46.0318511111731" lon="12.495454723967772"><ele>46.0</ele><time>2026-03-30T07:48:08.999Z</time></trkpt><trkpt lat="46.03189417336077" lon="12.495308778957755"><ele>46.0</ele><time>2026-03-30T07:48:09.999Z</time></trkpt><trkpt lat="46.03194895223605" lon="12.495174012067332"><ele>45.8</ele><time>2026-03-30T07:48:10.999Z</time></trkpt><trkpt lat="46.032013469890586" lon="12.495048326482818"><ele>45.599999999999994</ele><time>2026-03-30T07:48:11.999Z</time></trkpt><trkpt lat="46.032083232377275" lon="12.494929897013325"><ele>45.4</ele><time>2026-03-30T07:48:12.999Z</time></trkpt><trkpt lat="46.032152968332724" lon="12.494822415363725"><ele>45.2</ele><time>2026-03-30T07:48:13.999Z</time></trkpt><trkpt lat="46.03222402402129" lon="12.494733697103104"><ele>45.0</ele><time>2026-03-30T07:48:14.999Z</time></trkpt><trkpt lat="46.032289321018496" lon="12.494653790771556"><ele>45.5</ele><time>2026-03-30T07:48:15.999Z</time></trkpt><trkpt lat="46.03235211292121" lon="12.494577506138146"><ele>46.0</ele><time>2026-03-30T07:48:16.999Z</time></trkpt><trkpt lat="46.03241374029385" lon="12.494507921679586"><ele>46.5</ele><time>2026-03-30T07:48:17.999Z</time></trkpt><trkpt lat="46.03247706402755" lon="12.494451052720116"><ele>47.0</ele><time>2026-03-30T07:48:18.999Z</time></trkpt><trkpt lat="46.03254216807498" lon="12.494407671601724"><ele>47.5</ele><time>2026-03-30T07:48:19.999Z</time></trkpt><trkpt lat="46.0326172047705" lon="12.494368543546813"><ele>48.0</ele><time>2026-03-30T07:48:20.999Z</time></trkpt><trkpt lat="46.03269752512925" lon="12.49433356571981"><ele>48.0</ele><time>2026-03-30T07:48:21.999Z</time></trkpt><trkpt lat="46.032784021517294" lon="12.494310032100731"><ele>48.0</ele><time>2026-03-30T07:48:22.999Z</time></trkpt><trkpt lat="46.03287543795878" lon="12.494289845949279"><ele>48.0</ele><time>2026-03-30T07:48:23.999Z</time></trkpt><trkpt lat="46.03297094316475" lon="12.49426989493138"><ele>48.0</ele><time>2026-03-30T07:48:24.999Z</time></trkpt><trkpt lat="46.03306947565111" lon="12.494237878290324"><ele>48.0</ele><time>2026-03-30T07:48:25.999Z</time></trkpt><trkpt lat="46.03317066544433" lon="12.494188288559677"><ele>48.0</ele><time>2026-03-30T07:48:26.999Z</time></trkpt><trkpt lat="46.03326364798165" lon="12.494121251039882"><ele>48.0</ele><time>2026-03-30T07:48:27.999Z</time></trkpt><trkpt lat="46.033338441069304" lon="12.494043979529513"><ele>48.0</ele><time>2026-03-30T07:48:28.999Z</time></trkpt><trkpt lat="46.03340428964611" lon="12.493980300803466"><ele>48.0</ele><time>2026-03-30T07:48:29.999Z</time></trkpt><trkpt lat="46.03347035154915" lon="12.493941725713112"><ele>48.0</ele><time>2026-03-30T07:48:30.999Z</time></trkpt><trkpt lat="46.03354818787848" lon="12.493927764498174"><ele>48.0</ele><time>2026-03-30T07:48:31.999Z</time></trkpt><trkpt lat="46.033636965568625" lon="12.493939295848474"><ele>48.8</ele><time>2026-03-30T07:48:32.999Z</time></trkpt><trkpt lat="46.03372013053352" lon="12.493962838220522"><ele>49.599999999999994</ele><time>2026-03-30T07:48:34Z</time></trkpt><trkpt lat="46.033801269444204" lon="12.493939294068795"><ele>50.400000000000006</ele><time>2026-03-30T07:48:35Z</time></trkpt><trkpt lat="46.03388877248582" lon="12.493858540302156"><ele>51.2</ele><time>2026-03-30T07:48:36Z</time></trkpt><trkpt lat="46.033991156655986" lon="12.493736422628539"><ele>52.0</ele><time>2026-03-30T07:48:37Z</time></trkpt><trkpt lat="46.03408557352789" lon="12.49360669572361"><ele>52.666666666666664</ele><time>2026-03-30T07:48:38Z</time></trkpt><trkpt lat="46.03416277963014" lon="12.493496879007225"><ele>53.33333333333333</ele><time>2026-03-30T07:48:39Z</time></trkpt><trkpt lat="46.034224595427695" lon="12.493407691992754"><ele>54.0</ele><time>2026-03-30T07:48:40Z</time></trkpt><trkpt lat="46.03427252175132" lon="12.493331672834891"><ele>54.66666666666667</ele><time>2026-03-30T07:48:41Z</time></trkpt><trkpt lat="46.03433934163236" lon="12.493242069380686"><ele>55.333333333333336</ele><time>2026-03-30T07:48:43Z</time></trkpt><trkpt lat="46.03438014789975" lon="12.493151390779609"><ele>56.0</ele><time>2026-03-30T07:48:57Z</time></trkpt><trkpt lat="46.03443465126195" lon="12.493079466307995"><ele>56.0</ele><time>2026-03-30T07:48:58Z</time></trkpt><trkpt lat="46.0345132731245" lon="12.493013850575514"><ele>55.99999999999999</ele><time>2026-03-30T07:48:59Z</time></trkpt><trkpt lat="46.03457794271789" lon="12.492917047872236"><ele>55.99999999999999</ele><time>2026-03-30T07:49:00Z</time></trkpt><trkpt lat="46.034651626885" lon="12.49279001464108"><ele>56.0</ele><time>2026-03-30T07:49:01Z</time></trkpt><trkpt lat="46.03471591039248" lon="12.492660372224957"><ele>56.0</ele><time>2026-03-30T07:49:02Z</time></trkpt><trkpt lat="46.03476990653826" lon="12.492518486087732"><ele>57.0</ele><time>2026-03-30T07:49:03Z</time></trkpt><trkpt lat="46.03482995619777" lon="12.492341901276186"><ele>58.0</ele><time>2026-03-30T07:49:04Z</time></trkpt><trkpt lat="46.034886527834054" lon="12.492172243303365"><ele>59.0</ele><time>2026-03-30T07:49:05Z</time></trkpt><trkpt lat="46.034939137594456" lon="12.492012576185932"><ele>60.0</ele><time>2026-03-30T07:49:06Z</time></trkpt><trkpt lat="46.034991635027154" lon="12.49186365189125"><ele>61.6</ele><time>2026-03-30T07:49:07Z</time></trkpt><trkpt lat="46.035047010455465" lon="12.491720131067126"><ele>63.2</ele><time>2026-03-30T07:49:08Z</time></trkpt><trkpt lat="46.035106337673284" lon="12.491590401320403"><ele>64.8</ele><time>2026-03-30T07:49:09Z</time></trkpt><trkpt lat="46.035172698245205" lon="12.491467242627886"><ele>66.4</ele><time>2026-03-30T07:49:10Z</time></trkpt><trkpt lat="46.035237155077795" lon="12.491342610669413"><ele>68.0</ele><time>2026-03-30T07:49:11Z</time></trkpt><trkpt lat="46.03529533688736" lon="12.491218321647471"><ele>68.83333333333334</ele><time>2026-03-30T07:49:12Z</time></trkpt><trkpt lat="46.03534213250289" lon="12.491102185553622"><ele>69.66666666666667</ele><time>2026-03-30T07:49:13Z</time></trkpt><trkpt lat="46.03538607987509" lon="12.490986735588407"><ele>70.5</ele><time>2026-03-30T07:49:14Z</time></trkpt><trkpt lat="46.03542656892019" lon="12.49087833220232"><ele>71.33333333333333</ele><time>2026-03-30T07:49:15Z</time></trkpt><trkpt lat="46.035469666844435" lon="12.490766047138486"><ele>72.16666666666666</ele><time>2026-03-30T07:49:16Z</time></trkpt><trkpt lat="46.03550838852041" lon="12.490670272695912"><ele>73.0</ele><time>2026-03-30T07:49:17Z</time></trkpt><trkpt lat="46.0355473452712" lon="12.490590213584355"><ele>73.0</ele><time>2026-03-30T07:49:18Z</time></trkpt><trkpt lat="46.035565731366376" lon="12.490503170090589"><ele>73.0</ele><time>2026-03-30T07:49:19Z</time></trkpt><trkpt lat="46.035551180696984" lon="12.490400073264501"><ele>73.0</ele><time>2026-03-30T07:49:20Z</time></trkpt><trkpt lat="46.03553925546002" lon="12.49030264296624"><ele>73.0</ele><time>2026-03-30T07:49:21Z</time></trkpt><trkpt lat="46.03553807410305" lon="12.49018757477809"><ele>73.0</ele><time>2026-03-30T07:49:22Z</time></trkpt><trkpt lat="46.0355195774793" lon="12.490071745340417"><ele>73.0</ele><time>2026-03-30T07:49:23Z</time></trkpt><trkpt lat="46.03549587209998" lon="12.489958962919019"><ele>73.0</ele><time>2026-03-30T07:49:24Z</time></trkpt><trkpt lat="46.0354710187085" lon="12.48986271879828"><ele>74.4</ele><time>2026-03-30T07:49:25Z</time></trkpt><trkpt lat="46.03539822535341" lon="12.48972881692447"><ele>75.8</ele><time>2026-03-30T07:49:27Z</time></trkpt><trkpt lat="46.035387583895485" lon="12.489623886741937"><ele>77.2</ele><time>2026-03-30T07:49:29Z</time></trkpt><trkpt lat="46.03547312820766" lon="12.489510774584778"><ele>78.6</ele><time>2026-03-30T07:49:30Z</time></trkpt><trkpt lat="46.03551412070229" lon="12.489429055893558"><ele>80.0</ele><time>2026-03-30T07:49:31Z</time></trkpt><trkpt lat="46.035552070558104" lon="12.489335543855189"><ele>81.0</ele><time>2026-03-30T07:49:32Z</time></trkpt><trkpt lat="46.03559250990183" lon="12.489244036005816"><ele>82.0</ele><time>2026-03-30T07:49:33Z</time></trkpt><trkpt lat="46.035635258614136" lon="12.489149776708121"><ele>83.0</ele><time>2026-03-30T07:49:34Z</time></trkpt><trkpt lat="46.0356879571271" lon="12.489012296746003"><ele>84.0</ele><time>2026-03-30T07:49:35Z</time></trkpt><trkpt lat="46.03574614628829" lon="12.488895220371555"><ele>85.0</ele><time>2026-03-30T07:49:36Z</time></trkpt><trkpt lat="46.03580837700017" lon="12.488796366872428"><ele>87.8</ele><time>2026-03-30T07:49:37Z</time></trkpt><trkpt lat="46.03588130759633" lon="12.488720035563633"><ele>90.6</ele><time>2026-03-30T07:49:38Z</time></trkpt><trkpt lat="46.0359824073048" lon="12.488620925197717"><ele>93.4</ele><time>2026-03-30T07:49:39Z</time></trkpt><trkpt lat="46.03606766072338" lon="12.48855978675946"><ele>96.2</ele><time>2026-03-30T07:49:40Z</time></trkpt><trkpt lat="46.03614635452698" lon="12.488480817124321"><ele>99.0</ele><time>2026-03-30T07:49:41Z</time></trkpt><trkpt lat="46.03620273841936" lon="12.48836656138152"><ele>99.0</ele><time>2026-03-30T07:49:42Z</time></trkpt><trkpt lat="46.036249476639796" lon="12.488224124267182"><ele>99.0</ele><time>2026-03-30T07:49:43Z</time></trkpt><trkpt lat="46.03629893131952" lon="12.488064677218627"><ele>99.0</ele><time>2026-03-30T07:49:44Z</time></trkpt><trkpt lat="46.03633305439415" lon="12.487911163558056"><ele>99.0</ele><time>2026-03-30T07:49:45Z</time></trkpt><trkpt lat="46.03635657633246" lon="12.487773131943618"><ele>99.0</ele><time>2026-03-30T07:49:46Z</time></trkpt><trkpt lat="46.036355732952735" lon="12.487642180276467"><ele>100.6</ele><time>2026-03-30T07:49:47Z</time></trkpt><trkpt lat="46.036323493953354" lon="12.487529364944375"><ele>102.2</ele><time>2026-03-30T07:49:48Z</time></trkpt><trkpt lat="46.03627788565514" lon="12.487430706400394"><ele>103.79999999999998</ele><time>2026-03-30T07:49:49Z</time></trkpt><trkpt lat="46.03623246537229" lon="12.487346537795842"><ele>105.39999999999999</ele><time>2026-03-30T07:49:50Z</time></trkpt><trkpt lat="46.036187220234076" lon="12.487246286445442"><ele>107.0</ele><time>2026-03-30T07:49:52Z</time></trkpt><trkpt lat="46.03628138343159" lon="12.487068427930797"><ele>109.0</ele><time>2026-03-30T07:49:55Z</time></trkpt><trkpt lat="46.036337505237086" lon="12.486950272446698"><ele>111.0</ele><time>2026-03-30T07:49:57Z</time></trkpt><trkpt lat="46.03641591798711" lon="12.486839288533071"><ele>113.0</ele><time>2026-03-30T07:50:00Z</time></trkpt><trkpt lat="46.03624556857846" lon="12.48675437084573"><ele>115.0</ele><time>2026-03-30T07:50:00.999Z</time></trkpt><trkpt lat="46.03630934764491" lon="12.486611809652366"><ele>115.0</ele><time>2026-03-30T07:50:03.999Z</time></trkpt><trkpt lat="46.03644720300157" lon="12.486608069182852"><ele>115.0</ele><time>2026-03-30T07:50:04.999Z</time></trkpt><trkpt lat="46.03648253804783" lon="12.486504239026683"><ele>115.0</ele><time>2026-03-30T07:50:05.999Z</time></trkpt><trkpt lat="46.03653178929737" lon="12.486390304096089"><ele>115.0</ele><time>2026-03-30T07:50:06.999Z</time></trkpt><trkpt lat="46.03658186830485" lon="12.486284364550457"><ele>115.0</ele><time>2026-03-30T07:50:07.999Z</time></trkpt><trkpt lat="46.03663552477858" lon="12.486186834789182"><ele>117.83333333333334</ele><time>2026-03-30T07:50:08.999Z</time></trkpt><trkpt lat="46.03669595145729" lon="12.486077291808893"><ele>120.66666666666667</ele><time>2026-03-30T07:50:09.999Z</time></trkpt><trkpt lat="46.0367510267641" lon="12.485969364722944"><ele>123.5</ele><time>2026-03-30T07:50:10.999Z</time></trkpt><trkpt lat="46.03678854069066" lon="12.485895644192889"><ele>126.33333333333334</ele><time>2026-03-30T07:50:11.999Z</time></trkpt><trkpt lat="46.0368300415233" lon="12.48581408883357"><ele>129.16666666666666</ele><time>2026-03-30T07:50:12.999Z</time></trkpt><trkpt lat="46.03687413191206" lon="12.48572744248434"><ele>132.0</ele><time>2026-03-30T07:50:13.999Z</time></trkpt><trkpt lat="46.036945750912835" lon="12.485586695981413"><ele>132.0</ele><time>2026-03-30T07:50:15.999Z</time></trkpt><trkpt lat="46.03698255649269" lon="12.48550226049655"><ele>132.0</ele><time>2026-03-30T07:50:16.999Z</time></trkpt><trkpt lat="46.03682350345081" lon="12.485189243686108"><ele>132.0</ele><time>2026-03-30T07:50:17.999Z</time></trkpt><trkpt lat="46.03681699143402" lon="12.485059697240683"><ele>132.0</ele><time>2026-03-30T07:50:18.999Z</time></trkpt><trkpt lat="46.03681425899084" lon="12.484938181890783"><ele>133.66666666666666</ele><time>2026-03-30T07:50:19.999Z</time></trkpt><trkpt lat="46.036808122764334" lon="12.484818729524942"><ele>135.33333333333334</ele><time>2026-03-30T07:50:20.999Z</time></trkpt><trkpt lat="46.03681433718212" lon="12.484714804388469"><ele>137.0</ele><time>2026-03-30T07:50:21.999Z</time></trkpt><trkpt lat="46.03682726625026" lon="12.484604062496986"><ele>138.66666666666669</ele><time>2026-03-30T07:50:22.999Z</time></trkpt><trkpt lat="46.03685264063672" lon="12.484482262406694"><ele>140.33333333333334</ele><time>2026-03-30T07:50:23.999Z</time></trkpt><trkpt lat="46.03687742400697" lon="12.484349879206246"><ele>142.0</ele><time>2026-03-30T07:50:24.999Z</time></trkpt><trkpt lat="46.03690933082455" lon="12.484183097904372"><ele>144.0</ele><time>2026-03-30T07:50:25.999Z</time></trkpt><trkpt lat="46.03694124360297" lon="12.48405087975362"><ele>146.0</ele><time>2026-03-30T07:50:26.999Z</time></trkpt><trkpt lat="46.03698094449088" lon="12.483919693002877"><ele>148.0</ele><time>2026-03-30T07:50:27.999Z</time></trkpt><trkpt lat="46.037023639943854" lon="12.48379829877406"><ele>150.0</ele><time>2026-03-30T07:50:28.999Z</time></trkpt><trkpt lat="46.03706258130071" lon="12.483673933820373"><ele>152.0</ele><time>2026-03-30T07:50:29.999Z</time></trkpt><trkpt lat="46.037092604064036" lon="12.483557459241364"><ele>153.6</ele><time>2026-03-30T07:50:30.999Z</time></trkpt><trkpt lat="46.03710748257247" lon="12.483436276652352"><ele>155.2</ele><time>2026-03-30T07:50:31.999Z</time></trkpt><trkpt lat="46.03713531842999" lon="12.483276920100268"><ele>156.8</ele><time>2026-03-30T07:50:32.999Z</time></trkpt><trkpt lat="46.03715562748996" lon="12.483136376045344"><ele>158.4</ele><time>2026-03-30T07:50:33.999Z</time></trkpt><trkpt lat="46.03717721916981" lon="12.482989889942774"><ele>160.0</ele><time>2026-03-30T07:50:34.999Z</time></trkpt><trkpt lat="46.03720663498451" lon="12.482856429918218"><ele>161.33333333333334</ele><time>2026-03-30T07:50:35.999Z</time></trkpt><trkpt lat="46.03724125404734" lon="12.482701754713833"><ele>162.66666666666669</ele><time>2026-03-30T07:50:36.999Z</time></trkpt><trkpt lat="46.037275014303454" lon="12.48256149732682"><ele>164.0</ele><time>2026-03-30T07:50:37.999Z</time></trkpt><trkpt lat="46.03730432881397" lon="12.482455496388745"><ele>165.33333333333334</ele><time>2026-03-30T07:50:38.999Z</time></trkpt><trkpt lat="46.03732940445396" lon="12.482366081373554"><ele>166.66666666666666</ele><time>2026-03-30T07:50:40Z</time></trkpt><trkpt lat="46.0373590442584" lon="12.482282501189953"><ele>168.0</ele><time>2026-03-30T07:50:41Z</time></trkpt><trkpt lat="46.037429284269734" lon="12.482201500556613"><ele>169.83333333333334</ele><time>2026-03-30T07:50:43Z</time></trkpt><trkpt lat="46.03754172805262" lon="12.482117432922587"><ele>171.66666666666666</ele><time>2026-03-30T07:50:45Z</time></trkpt><trkpt lat="46.03761066790622" lon="12.482098964065784"><ele>173.5</ele><time>2026-03-30T07:50:46Z</time></trkpt><trkpt lat="46.03767686217019" lon="12.482103092833885"><ele>175.33333333333331</ele><time>2026-03-30T07:50:47Z</time></trkpt><trkpt lat="46.0377531612731" lon="12.482155090369774"><ele>177.16666666666666</ele><time>2026-03-30T07:50:48Z</time></trkpt><trkpt lat="46.03782642143348" lon="12.482192527357897"><ele>179.0</ele><time>2026-03-30T07:50:49Z</time></trkpt><trkpt lat="46.037907501732946" lon="12.482220176839432"><ele>179.0</ele><time>2026-03-30T07:50:50Z</time></trkpt><trkpt lat="46.03797112491847" lon="12.48225050138319"><ele>179.0</ele><time>2026-03-30T07:50:51Z</time></trkpt><trkpt lat="46.038029405344" lon="12.482291770228304"><ele>179.0</ele><time>2026-03-30T07:50:52Z</time></trkpt><trkpt lat="46.03811101606073" lon="12.482274718739806"><ele>179.0</ele><time>2026-03-30T07:50:55Z</time></trkpt><trkpt lat="46.038144272049706" lon="12.482124069216514"><ele>179.0</ele><time>2026-03-30T07:50:57Z</time></trkpt><trkpt lat="46.038188275292256" lon="12.482034555804406"><ele>179.0</ele><time>2026-03-30T07:50:59Z</time></trkpt><trkpt lat="46.0382743237915" lon="12.482022181429969"><ele>183.6</ele><time>2026-03-30T07:51:01Z</time></trkpt><trkpt lat="46.03834522961553" lon="12.48196745274484"><ele>188.2</ele><time>2026-03-30T07:51:03Z</time></trkpt><trkpt lat="46.03844740629821" lon="12.481893215338417"><ele>192.79999999999998</ele><time>2026-03-30T07:51:05Z</time></trkpt><trkpt lat="46.038525536188445" lon="12.481834245857673"><ele>197.39999999999998</ele><time>2026-03-30T07:51:07Z</time></trkpt><trkpt lat="46.03857131871174" lon="12.481753054236236"><ele>202.0</ele><time>2026-03-30T07:51:09Z</time></trkpt><trkpt lat="46.038605956814166" lon="12.481582797433703"><ele>201.99999999999997</ele><time>2026-03-30T07:51:12Z</time></trkpt><trkpt lat="46.038633809914494" lon="12.481472030867328"><ele>202.0</ele><time>2026-03-30T07:51:14Z</time></trkpt><trkpt lat="46.038686128457506" lon="12.481401224890519"><ele>202.0</ele><time>2026-03-30T07:51:17Z</time></trkpt><trkpt lat="46.038768980406786" lon="12.481410996478797"><ele>202.0</ele><time>2026-03-30T07:51:19Z</time></trkpt><trkpt lat="46.038854481262454" lon="12.481427357546576"><ele>201.99999999999997</ele><time>2026-03-30T07:51:21Z</time></trkpt><trkpt lat="46.0388589291291" lon="12.481528583260493"><ele>202.0</ele><time>2026-03-30T07:51:58.999Z</time></trkpt><trkpt lat="46.038799196781746" lon="12.481499825395211"><ele>202.0</ele><time>2026-03-30T07:52:06.999Z</time></trkpt><trkpt lat="46.03883788553894" lon="12.48141963153054"><ele>202.0</ele><time>2026-03-30T07:52:11.999Z</time></trkpt><trkpt lat="46.038881240905916" lon="12.481491173811554"><ele>202.0</ele><time>2026-03-30T07:52:15.999Z</time></trkpt><trkpt lat="46.03890234247359" lon="12.481584652422976"><ele>202.0</ele><time>2026-03-30T07:52:21.999Z</time></trkpt><trkpt lat="46.038964090123216" lon="12.481613558475567"><ele>202.0</ele><time>2026-03-30T07:52:31.999Z</time></trkpt><trkpt lat="46.03889786604269" lon="12.48157049906359"><ele>202.0</ele><time>2026-03-30T07:52:49Z</time></trkpt><trkpt lat="46.03882141840733" lon="12.481511787608095"><ele>202.0</ele><time>2026-03-30T07:52:52Z</time></trkpt><trkpt lat="46.038774125432504" lon="12.48142358032425"><ele>201.99999999999997</ele><time>2026-03-30T07:52:58Z</time></trkpt><trkpt lat="46.038708598212864" lon="12.481414335907507"><ele>202.0</ele><time>2026-03-30T07:53:00Z</time></trkpt><trkpt lat="46.03866931857059" lon="12.481491386022673"><ele>202.0</ele><time>2026-03-30T07:53:03Z</time></trkpt><trkpt lat="46.038631748999954" lon="12.481622465903802"><ele>202.0</ele><time>2026-03-30T07:53:06Z</time></trkpt><trkpt lat="46.038609943457416" lon="12.4817369539504"><ele>201.99999999999997</ele><time>2026-03-30T07:53:09Z</time></trkpt><trkpt lat="46.038541751007905" lon="12.481818982087166"><ele>202.0</ele><time>2026-03-30T07:53:12Z</time></trkpt><trkpt lat="46.03848406410029" lon="12.48188846294269"><ele>201.99999999999997</ele><time>2026-03-30T07:53:14Z</time></trkpt><trkpt lat="46.03840662174328" lon="12.48193390201482"><ele>202.0</ele><time>2026-03-30T07:53:17Z</time></trkpt><trkpt lat="46.038327598274094" lon="12.481976324430251"><ele>202.0</ele><time>2026-03-30T07:53:19Z</time></trkpt><trkpt lat="46.03826417731369" lon="12.482026829078716"><ele>202.0</ele><time>2026-03-30T07:53:21Z</time></trkpt><trkpt lat="46.038190365429365" lon="12.482089507629198"><ele>201.99999999999997</ele><time>2026-03-30T07:53:23Z</time></trkpt><trkpt lat="46.0381388950151" lon="12.482183682410259"><ele>202.0</ele><time>2026-03-30T07:53:26Z</time></trkpt><trkpt lat="46.038079905703945" lon="12.482294492571697"><ele>199.39999999999998</ele><time>2026-03-30T07:53:28Z</time></trkpt><trkpt lat="46.037997350945325" lon="12.482269048908242"><ele>196.79999999999998</ele><time>2026-03-30T07:53:31Z</time></trkpt><trkpt lat="46.03790879222373" lon="12.482188307111526"><ele>194.2</ele><time>2026-03-30T07:53:33Z</time></trkpt><trkpt lat="46.03779714673396" lon="12.48213025536857"><ele>191.6</ele><time>2026-03-30T07:53:35Z</time></trkpt><trkpt lat="46.03769383930875" lon="12.482135909918574"><ele>189.0</ele><time>2026-03-30T07:53:37Z</time></trkpt><trkpt lat="46.03759807163618" lon="12.482093342184939"><ele>189.0</ele><time>2026-03-30T07:53:39Z</time></trkpt><trkpt lat="46.037510806197695" lon="12.482135872935233"><ele>189.0</ele><time>2026-03-30T07:53:41Z</time></trkpt><trkpt lat="46.03743231104491" lon="12.482223611933117"><ele>189.0</ele><time>2026-03-30T07:53:43Z</time></trkpt><trkpt lat="46.03736918750331" lon="12.482303727866348"><ele>189.0</ele><time>2026-03-30T07:53:50Z</time></trkpt><trkpt lat="46.037403066059554" lon="12.48222104719789"><ele>189.0</ele><time>2026-03-30T07:54:19.999Z</time></trkpt><trkpt lat="46.03747397665928" lon="12.482096914227327"><ele>189.0</ele><time>2026-03-30T07:54:21.999Z</time></trkpt><trkpt lat="46.03752473413778" lon="12.482016100380829"><ele>189.0</ele><time>2026-03-30T07:54:22.999Z</time></trkpt><trkpt lat="46.037568900574335" lon="12.481917780948985"><ele>189.0</ele><time>2026-03-30T07:54:23.999Z</time></trkpt><trkpt lat="46.037584740803254" lon="12.48182920489697"><ele>189.0</ele><time>2026-03-30T07:54:24.999Z</time></trkpt><trkpt lat="46.037635435982104" lon="12.481699988945836"><ele>189.0</ele><time>2026-03-30T07:54:26.999Z</time></trkpt><trkpt lat="46.03766454438465" lon="12.481586136913375"><ele>189.0</ele><time>2026-03-30T07:54:28.999Z</time></trkpt><trkpt lat="46.037625709635066" lon="12.481459024204492"><ele>189.0</ele><time>2026-03-30T07:54:30.999Z</time></trkpt><trkpt lat="46.03760264219058" lon="12.481373169855079"><ele>189.0</ele><time>2026-03-30T07:54:31.999Z</time></trkpt><trkpt lat="46.03758634609283" lon="12.481269761437746"><ele>189.0</ele><time>2026-03-30T07:54:33.999Z</time></trkpt><trkpt lat="46.03764240541928" lon="12.48122666493952"><ele>189.0</ele><time>2026-03-30T07:54:40.999Z</time></trkpt><trkpt lat="46.037706914334045" lon="12.481233875911737"><ele>189.0</ele><time>2026-03-30T07:54:41.999Z</time></trkpt><trkpt lat="46.037816432225675" lon="12.48131081944166"><ele>189.0</ele><time>2026-03-30T07:54:42.999Z</time></trkpt><trkpt lat="46.037886361172916" lon="12.481306718879859"><ele>189.0</ele><time>2026-03-30T07:54:43.999Z</time></trkpt><trkpt lat="46.037955792896206" lon="12.481286316207367"><ele>189.0</ele><time>2026-03-30T07:54:44.999Z</time></trkpt><trkpt lat="46.03803316930824" lon="12.481166073157024"><ele>189.0</ele><time>2026-03-30T07:54:46.999Z</time></trkpt><trkpt lat="46.03802818516714" lon="12.48099603471508"><ele>189.0</ele><time>2026-03-30T07:54:48.999Z</time></trkpt><trkpt lat="46.03798722374497" lon="12.480922495231052"><ele>189.0</ele><time>2026-03-30T07:54:49.999Z</time></trkpt><trkpt lat="46.037924332062296" lon="12.480863408738264"><ele>189.0</ele><time>2026-03-30T07:54:50.999Z</time></trkpt><trkpt lat="46.03786800242298" lon="12.480782878293434"><ele>191.39999999999998</ele><time>2026-03-30T07:54:52Z</time></trkpt><trkpt lat="46.037795480004434" lon="12.480710035783607"><ele>193.8</ele><time>2026-03-30T07:54:53Z</time></trkpt><trkpt lat="46.03772780316486" lon="12.480628171090233"><ele>196.2</ele><time>2026-03-30T07:54:54Z</time></trkpt><trkpt lat="46.03766039722168" lon="12.480527519125442"><ele>198.60000000000002</ele><time>2026-03-30T07:54:55Z</time></trkpt><trkpt lat="46.037591601455695" lon="12.480419199658861"><ele>201.0</ele><time>2026-03-30T07:54:56Z</time></trkpt><trkpt lat="46.037524473775306" lon="12.4803046410287"><ele>202.60000000000002</ele><time>2026-03-30T07:54:57Z</time></trkpt><trkpt lat="46.03745524901513" lon="12.480182989796837"><ele>204.2</ele><time>2026-03-30T07:54:58Z</time></trkpt><trkpt lat="46.037387740683634" lon="12.480067797674545"><ele>205.8</ele><time>2026-03-30T07:54:59Z</time></trkpt><trkpt lat="46.03731563391141" lon="12.479954185271728"><ele>207.39999999999998</ele><time>2026-03-30T07:55:00Z</time></trkpt><trkpt lat="46.03724315791548" lon="12.479842496923755"><ele>209.0</ele><time>2026-03-30T07:55:01Z</time></trkpt><trkpt lat="46.03717188295864" lon="12.479735042068965"><ele>209.00000000000003</ele><time>2026-03-30T07:55:02Z</time></trkpt><trkpt lat="46.03709394941131" lon="12.47965060250544"><ele>209.0</ele><time>2026-03-30T07:55:03Z</time></trkpt><trkpt lat="46.03704608469258" lon="12.479566267506703"><ele>209.0</ele><time>2026-03-30T07:55:04Z</time></trkpt><trkpt lat="46.03702168955324" lon="12.479481753018671"><ele>209.0</ele><time>2026-03-30T07:55:05Z</time></trkpt><trkpt lat="46.03701935348145" lon="12.479386683764012"><ele>209.00000000000003</ele><time>2026-03-30T07:55:06Z</time></trkpt><trkpt lat="46.03709461816166" lon="12.479279452666967"><ele>209.0</ele><time>2026-03-30T07:55:08Z</time></trkpt><trkpt lat="46.03721891195655" lon="12.479308928460272"><ele>210.33333333333334</ele><time>2026-03-30T07:55:10Z</time></trkpt><trkpt lat="46.037276818380015" lon="12.479372069789024"><ele>211.66666666666669</ele><time>2026-03-30T07:55:11Z</time></trkpt><trkpt lat="46.03734586565411" lon="12.479438349027404"><ele>213.0</ele><time>2026-03-30T07:55:12Z</time></trkpt><trkpt lat="46.037421755290836" lon="12.47950491367983"><ele>214.33333333333331</ele><time>2026-03-30T07:55:13Z</time></trkpt><trkpt lat="46.03750646660223" lon="12.47957314003206"><ele>215.66666666666666</ele><time>2026-03-30T07:55:14Z</time></trkpt><trkpt lat="46.0376038454822" lon="12.479630328733881"><ele>217.0</ele><time>2026-03-30T07:55:15Z</time></trkpt><trkpt lat="46.03770441449195" lon="12.47967608214529"><ele>217.0</ele><time>2026-03-30T07:55:16Z</time></trkpt><trkpt lat="46.03781038300598" lon="12.479705250284528"><ele>217.0</ele><time>2026-03-30T07:55:17Z</time></trkpt><trkpt lat="46.03792086576086" lon="12.47971388751014"><ele>217.0</ele><time>2026-03-30T07:55:18Z</time></trkpt><trkpt lat="46.03803363941414" lon="12.479716236978964"><ele>217.0</ele><time>2026-03-30T07:55:19Z</time></trkpt><trkpt lat="46.03814966602573" lon="12.479718178576556"><ele>217.0</ele><time>2026-03-30T07:55:20Z</time></trkpt><trkpt lat="46.03826676874571" lon="12.479723472019565"><ele>219.0</ele><time>2026-03-30T07:55:21Z</time></trkpt><trkpt lat="46.03838539958627" lon="12.479727934562446"><ele>221.0</ele><time>2026-03-30T07:55:22Z</time></trkpt><trkpt lat="46.0385055593092" lon="12.479736406445902"><ele>223.0</ele><time>2026-03-30T07:55:23Z</time></trkpt><trkpt lat="46.03861934633769" lon="12.47975151316975"><ele>225.0</ele><time>2026-03-30T07:55:24Z</time></trkpt><trkpt lat="46.038713292509144" lon="12.479764371119826"><ele>227.0</ele><time>2026-03-30T07:55:25Z</time></trkpt><trkpt lat="46.03878866296973" lon="12.47976173347828"><ele>227.0</ele><time>2026-03-30T07:55:26Z</time></trkpt><trkpt lat="46.03885106366189" lon="12.479735503508689"><ele>227.00000000000003</ele><time>2026-03-30T07:55:27Z</time></trkpt><trkpt lat="46.03890878559272" lon="12.47968158216718"><ele>227.0</ele><time>2026-03-30T07:55:28Z</time></trkpt><trkpt lat="46.03895070050252" lon="12.479604991939116"><ele>227.0</ele><time>2026-03-30T07:55:29Z</time></trkpt><trkpt lat="46.03896837460947" lon="12.479510376333407"><ele>227.00000000000003</ele><time>2026-03-30T07:55:30Z</time></trkpt><trkpt lat="46.03895252853558" lon="12.47941789354813"><ele>227.0</ele><time>2026-03-30T07:55:31Z</time></trkpt><trkpt lat="46.03892192918949" lon="12.47932469814186"><ele>227.0</ele><time>2026-03-30T07:55:32Z</time></trkpt><trkpt lat="46.03883859873559" lon="12.479264763694957"><ele>230.2</ele><time>2026-03-30T07:55:33Z</time></trkpt><trkpt lat="46.03876117727395" lon="12.479194841507434"><ele>233.39999999999998</ele><time>2026-03-30T07:55:34Z</time></trkpt><trkpt lat="46.03867925759508" lon="12.479114320392254"><ele>236.60000000000002</ele><time>2026-03-30T07:55:35Z</time></trkpt><trkpt lat="46.03859363891571" lon="12.479023289854835"><ele>239.8</ele><time>2026-03-30T07:55:36Z</time></trkpt><trkpt lat="46.038501444921074" lon="12.478926315451446"><ele>243.0</ele><time>2026-03-30T07:55:37Z</time></trkpt><trkpt lat="46.0384076732491" lon="12.478821738275897"><ele>244.25</ele><time>2026-03-30T07:55:38Z</time></trkpt><trkpt lat="46.03831419341293" lon="12.47871213304632"><ele>245.5</ele><time>2026-03-30T07:55:39Z</time></trkpt><trkpt lat="46.03822527957748" lon="12.478600132753792"><ele>246.75</ele><time>2026-03-30T07:55:40Z</time></trkpt><trkpt lat="46.03813959245131" lon="12.478484289186545"><ele>248.0</ele><time>2026-03-30T07:55:41Z</time></trkpt><trkpt lat="46.03806939890426" lon="12.478386872454054"><ele>248.0</ele><time>2026-03-30T07:55:42Z</time></trkpt><trkpt lat="46.03801723029332" lon="12.478308505975502"><ele>248.0</ele><time>2026-03-30T07:55:43Z</time></trkpt><trkpt lat="46.03797428945449" lon="12.478168405747121"><ele>248.0</ele><time>2026-03-30T07:55:45Z</time></trkpt><trkpt lat="46.03802839156302" lon="12.47804466184102"><ele>248.0</ele><time>2026-03-30T07:55:47Z</time></trkpt><trkpt lat="46.03814611783417" lon="12.478037922870476"><ele>248.0</ele><time>2026-03-30T07:55:49Z</time></trkpt><trkpt lat="46.038204039833154" lon="12.478117393907416"><ele>248.0</ele><time>2026-03-30T07:55:50Z</time></trkpt><trkpt lat="46.03828068391897" lon="12.478158261643246"><ele>248.0</ele><time>2026-03-30T07:55:51Z</time></trkpt><trkpt lat="46.03836134535861" lon="12.478202854194466"><ele>248.0</ele><time>2026-03-30T07:55:52Z</time></trkpt><trkpt lat="46.038460020492685" lon="12.478220128718393"><ele>248.0</ele><time>2026-03-30T07:55:53Z</time></trkpt><trkpt lat="46.038564208958256" lon="12.4782286629757"><ele>248.0</ele><time>2026-03-30T07:55:54Z</time></trkpt><trkpt lat="46.03867642479756" lon="12.478234958220108"><ele>250.75</ele><time>2026-03-30T07:55:55Z</time></trkpt><trkpt lat="46.03879556340621" lon="12.478243821523492"><ele>253.5</ele><time>2026-03-30T07:55:56Z</time></trkpt><trkpt lat="46.038921787742446" lon="12.478252696142118"><ele>256.25</ele><time>2026-03-30T07:55:57Z</time></trkpt><trkpt lat="46.03905648687039" lon="12.478261348357986"><ele>259.0</ele><time>2026-03-30T07:55:58Z</time></trkpt><trkpt lat="46.03919699393403" lon="12.478268403874637"><ele>261.0</ele><time>2026-03-30T07:55:59Z</time></trkpt><trkpt lat="46.039341547178374" lon="12.47827350681487"><ele>263.0</ele><time>2026-03-30T07:56:00Z</time></trkpt><trkpt lat="46.039481482514724" lon="12.478275226010162"><ele>265.0</ele><time>2026-03-30T07:56:01Z</time></trkpt><trkpt lat="46.03962081959439" lon="12.478283311649825"><ele>267.0</ele><time>2026-03-30T07:56:02Z</time></trkpt><trkpt lat="46.03975248644783" lon="12.478294809657509"><ele>267.0</ele><time>2026-03-30T07:56:03Z</time></trkpt><trkpt lat="46.03986298035255" lon="12.478302605470715"><ele>267.0</ele><time>2026-03-30T07:56:04Z</time></trkpt><trkpt lat="46.03995334843824" lon="12.478308514571637"><ele>267.0</ele><time>2026-03-30T07:56:05Z</time></trkpt><trkpt lat="46.04002881949821" lon="12.47831537832906"><ele>267.0</ele><time>2026-03-30T07:56:06Z</time></trkpt><trkpt lat="46.04014670996689" lon="12.478293072915834"><ele>267.0</ele><time>2026-03-30T07:56:08Z</time></trkpt><trkpt lat="46.04020211539235" lon="12.478238462955947"><ele>269.2</ele><time>2026-03-30T07:56:09Z</time></trkpt><trkpt lat="46.04024599741442" lon="12.478158416714304"><ele>271.4</ele><time>2026-03-30T07:56:10Z</time></trkpt><trkpt lat="46.04039985908272" lon="12.478309422359004"><ele>273.6</ele><time>2026-03-30T07:56:16Z</time></trkpt><trkpt lat="46.040436484018116" lon="12.478386556581288"><ele>275.8</ele><time>2026-03-30T07:56:18Z</time></trkpt><trkpt lat="46.040498465728525" lon="12.478465401052143"><ele>278.0</ele><time>2026-03-30T07:56:20.999Z</time></trkpt><trkpt lat="46.04056787095712" lon="12.478589155169836"><ele>278.0</ele><time>2026-03-30T07:56:23.999Z</time></trkpt><trkpt lat="46.04057028196391" lon="12.478743435776634"><ele>278.0</ele><time>2026-03-30T07:56:25.999Z</time></trkpt><trkpt lat="46.040573169475906" lon="12.478881452518113"><ele>278.0</ele><time>2026-03-30T07:56:27.999Z</time></trkpt><trkpt lat="46.04056509931065" lon="12.479010491386681"><ele>278.0</ele><time>2026-03-30T07:56:30.999Z</time></trkpt><trkpt lat="46.04056774614981" lon="12.479124483202787"><ele>278.0</ele><time>2026-03-30T07:56:32.999Z</time></trkpt><trkpt lat="46.04059060775628" lon="12.479284194868411"><ele>276.0</ele><time>2026-03-30T07:56:34.999Z</time></trkpt><trkpt lat="46.04062332879672" lon="12.47940383506734"><ele>274.0</ele><time>2026-03-30T07:56:36.999Z</time></trkpt><trkpt lat="46.04068044466026" lon="12.479484722094439"><ele>272.0</ele><time>2026-03-30T07:56:39.999Z</time></trkpt><trkpt lat="46.040692377558756" lon="12.47958066945057"><ele>270.0</ele><time>2026-03-30T07:56:41.999Z</time></trkpt><trkpt lat="46.0406342676572" lon="12.479451025747222"><ele>268.0</ele><time>2026-03-30T07:56:55.999Z</time></trkpt><trkpt lat="46.04059218469231" lon="12.479365295272482"><ele>266.0</ele><time>2026-03-30T07:56:58Z</time></trkpt><trkpt lat="46.040563783678415" lon="12.479230365226373"><ele>266.0</ele><time>2026-03-30T07:57:00Z</time></trkpt><trkpt lat="46.040553639567435" lon="12.479074864661747"><ele>266.0</ele><time>2026-03-30T07:57:02Z</time></trkpt><trkpt lat="46.040552456273716" lon="12.47892846128436"><ele>266.0</ele><time>2026-03-30T07:57:04Z</time></trkpt><trkpt lat="46.0405393681221" lon="12.478820502838374"><ele>266.0</ele><time>2026-03-30T07:57:16Z</time></trkpt><trkpt lat="46.04053058432241" lon="12.478722552816013"><ele>266.0</ele><time>2026-03-30T07:57:17Z</time></trkpt><trkpt lat="46.04052887605679" lon="12.478607807910523"><ele>266.0</ele><time>2026-03-30T07:57:18Z</time></trkpt><trkpt lat="46.04051093059378" lon="12.478511021106636"><ele>268.0</ele><time>2026-03-30T07:57:19Z</time></trkpt><trkpt lat="46.04046576994912" lon="12.47844763587673"><ele>270.0</ele><time>2026-03-30T07:57:21Z</time></trkpt><trkpt lat="46.04040728834846" lon="12.478370035929885"><ele>272.0</ele><time>2026-03-30T07:57:23Z</time></trkpt><trkpt lat="46.040365027066365" lon="12.478281728683212"><ele>274.0</ele><time>2026-03-30T07:57:24Z</time></trkpt><trkpt lat="46.040323584467316" lon="12.47818851052293"><ele>276.0</ele><time>2026-03-30T07:57:25Z</time></trkpt><trkpt lat="46.040247985862386" lon="12.47803688249803"><ele>278.0</ele><time>2026-03-30T07:57:27Z</time></trkpt><trkpt lat="46.04016295143361" lon="12.477955454278376"><ele>280.5</ele><time>2026-03-30T07:57:28Z</time></trkpt><trkpt lat="46.04005405436389" lon="12.477876812965492"><ele>283.0</ele><time>2026-03-30T07:57:29Z</time></trkpt><trkpt lat="46.03992340246075" lon="12.477796739345909"><ele>285.5</ele><time>2026-03-30T07:57:30Z</time></trkpt><trkpt lat="46.03980683631519" lon="12.47763865444153"><ele>288.0</ele><time>2026-03-30T07:57:31Z</time></trkpt><trkpt lat="46.03968800638539" lon="12.477540471579982"><ele>288.0</ele><time>2026-03-30T07:57:32Z</time></trkpt><trkpt lat="46.03957012681828" lon="12.477442777778958"><ele>288.0</ele><time>2026-03-30T07:57:33Z</time></trkpt><trkpt lat="46.039455479989336" lon="12.47734736274536"><ele>288.0</ele><time>2026-03-30T07:57:34Z</time></trkpt><trkpt lat="46.039349584972705" lon="12.477259231261966"><ele>288.0</ele><time>2026-03-30T07:57:35Z</time></trkpt><trkpt lat="46.03924196895879" lon="12.47717310338963"><ele>288.6</ele><time>2026-03-30T07:57:36Z</time></trkpt><trkpt lat="46.03913934345009" lon="12.477094638063011"><ele>289.20000000000005</ele><time>2026-03-30T07:57:37Z</time></trkpt><trkpt lat="46.03903530458318" lon="12.477019345320738"><ele>289.8</ele><time>2026-03-30T07:57:38Z</time></trkpt><trkpt lat="46.03893499227405" lon="12.4769489782644"><ele>290.40000000000003</ele><time>2026-03-30T07:57:39Z</time></trkpt><trkpt lat="46.038849798462664" lon="12.47688835442976"><ele>291.0</ele><time>2026-03-30T07:57:40Z</time></trkpt><trkpt lat="46.0387792378581" lon="12.47682760630818"><ele>291.0</ele><time>2026-03-30T07:57:41Z</time></trkpt><trkpt lat="46.038744812217786" lon="12.476687142838141"><ele>291.0</ele><time>2026-03-30T07:57:43Z</time></trkpt><trkpt lat="46.03882148733538" lon="12.476568802076887"><ele>291.0</ele><time>2026-03-30T07:57:45Z</time></trkpt><trkpt lat="46.03888941109834" lon="12.476559947522924"><ele>291.0</ele><time>2026-03-30T07:57:46Z</time></trkpt><trkpt lat="46.03896125633929" lon="12.476589894810164"><ele>291.0</ele><time>2026-03-30T07:57:47Z</time></trkpt><trkpt lat="46.03903060946599" lon="12.476631611631177"><ele>291.0</ele><time>2026-03-30T07:57:48Z</time></trkpt><trkpt lat="46.03911460608773" lon="12.476661845377818"><ele>294.0</ele><time>2026-03-30T07:57:49Z</time></trkpt><trkpt lat="46.03920801568209" lon="12.476683884328931"><ele>297.0</ele><time>2026-03-30T07:57:50Z</time></trkpt><trkpt lat="46.039310535997984" lon="12.476703815199173"><ele>300.0</ele><time>2026-03-30T07:57:51Z</time></trkpt><trkpt lat="46.03942232257722" lon="12.476706838833005"><ele>303.0</ele><time>2026-03-30T07:57:52Z</time></trkpt><trkpt lat="46.03954444718826" lon="12.476697520325004"><ele>306.0</ele><time>2026-03-30T07:57:53Z</time></trkpt><trkpt lat="46.03970511210984" lon="12.476680004183743"><ele>306.0</ele><time>2026-03-30T07:57:54Z</time></trkpt><trkpt lat="46.039890791595724" lon="12.476657731419232"><ele>306.0</ele><time>2026-03-30T07:57:55Z</time></trkpt><trkpt lat="46.040078714717616" lon="12.476628817228836"><ele>306.0</ele><time>2026-03-30T07:57:56Z</time></trkpt><trkpt lat="46.04025797412185" lon="12.47660863407951"><ele>308.0</ele><time>2026-03-30T07:57:57Z</time></trkpt><trkpt lat="46.0404145002901" lon="12.476606616314747"><ele>310.0</ele><time>2026-03-30T07:57:58Z</time></trkpt><trkpt lat="46.04055759492223" lon="12.476621520137579"><ele>312.0</ele><time>2026-03-30T07:57:59Z</time></trkpt><trkpt lat="46.040702737080046" lon="12.476654015947606"><ele>314.0</ele><time>2026-03-30T07:58:00Z</time></trkpt><trkpt lat="46.040846098900175" lon="12.47669612342183"><ele>315.79999999999995</ele><time>2026-03-30T07:58:01Z</time></trkpt><trkpt lat="46.040966239424094" lon="12.476746323116851"><ele>317.59999999999997</ele><time>2026-03-30T07:58:02Z</time></trkpt><trkpt lat="46.04106521982866" lon="12.47681276106904"><ele>319.4</ele><time>2026-03-30T07:58:03Z</time></trkpt><trkpt lat="46.041158038921665" lon="12.476889463186497"><ele>321.2</ele><time>2026-03-30T07:58:04Z</time></trkpt><trkpt lat="46.04122863385985" lon="12.47696204421286"><ele>323.0</ele><time>2026-03-30T07:58:05Z</time></trkpt><trkpt lat="46.04128404206613" lon="12.477006906228137"><ele>323.0</ele><time>2026-03-30T07:58:06Z</time></trkpt><trkpt lat="46.0413877950122" lon="12.47699535376061"><ele>323.0</ele><time>2026-03-30T07:58:08Z</time></trkpt><trkpt lat="46.04142515583724" lon="12.476850803793166"><ele>323.0</ele><time>2026-03-30T07:58:10Z</time></trkpt><trkpt lat="46.04141893903551" lon="12.476737417252272"><ele>323.0</ele><time>2026-03-30T07:58:11Z</time></trkpt><trkpt lat="46.04135539584667" lon="12.476594319961544"><ele>323.0</ele><time>2026-03-30T07:58:12Z</time></trkpt><trkpt lat="46.041276319805405" lon="12.476447750597357"><ele>323.0</ele><time>2026-03-30T07:58:13Z</time></trkpt><trkpt lat="46.041198781641036" lon="12.476313373570113"><ele>323.0</ele><time>2026-03-30T07:58:14Z</time></trkpt><trkpt lat="46.04111661609981" lon="12.476196475118996"><ele>323.0</ele><time>2026-03-30T07:58:15Z</time></trkpt><trkpt lat="46.041030598473704" lon="12.476099286922558"><ele>323.0</ele><time>2026-03-30T07:58:16Z</time></trkpt><trkpt lat="46.040937481371536" lon="12.47603243959927"><ele>324.5</ele><time>2026-03-30T07:58:17Z</time></trkpt><trkpt lat="46.04084869759647" lon="12.475981381583734"><ele>326.0</ele><time>2026-03-30T07:58:18Z</time></trkpt><trkpt lat="46.040762277428264" lon="12.475934611371374"><ele>327.5</ele><time>2026-03-30T07:58:19Z</time></trkpt><trkpt lat="46.04067769028723" lon="12.475892933137033"><ele>329.0</ele><time>2026-03-30T07:58:20Z</time></trkpt><trkpt lat="46.040596721277225" lon="12.475853189282498"><ele>330.5</ele><time>2026-03-30T07:58:20.999Z</time></trkpt><trkpt lat="46.0405171218742" lon="12.475814117734018"><ele>332.0</ele><time>2026-03-30T07:58:21.999Z</time></trkpt><trkpt lat="46.0404376714919" lon="12.475775119387613"><ele>332.0</ele><time>2026-03-30T07:58:22.999Z</time></trkpt><trkpt lat="46.04035670468982" lon="12.475734647948745"><ele>332.0</ele><time>2026-03-30T07:58:23.999Z</time></trkpt><trkpt lat="46.040268114580265" lon="12.475699911112752"><ele>332.0</ele><time>2026-03-30T07:58:24.999Z</time></trkpt><trkpt lat="46.0402080527752" lon="12.475659132546431"><ele>332.0</ele><time>2026-03-30T07:58:25.999Z</time></trkpt><trkpt lat="46.040136618443654" lon="12.475518652939563"><ele>332.0</ele><time>2026-03-30T07:58:27.999Z</time></trkpt><trkpt lat="46.040165001555" lon="12.475389240767493"><ele>332.0</ele><time>2026-03-30T07:58:29.999Z</time></trkpt><trkpt lat="46.04026185243126" lon="12.475318345104714"><ele>332.0</ele><time>2026-03-30T07:58:31.999Z</time></trkpt><trkpt lat="46.04031609401306" lon="12.475365536487427"><ele>332.0</ele><time>2026-03-30T07:58:32.999Z</time></trkpt><trkpt lat="46.040392532427056" lon="12.475372619768839"><ele>332.0</ele><time>2026-03-30T07:58:33.999Z</time></trkpt><trkpt lat="46.0404906389119" lon="12.475413046096977"><ele>332.0</ele><time>2026-03-30T07:58:34.999Z</time></trkpt><trkpt lat="46.04060374088553" lon="12.47544920331057"><ele>332.0</ele><time>2026-03-30T07:58:35.999Z</time></trkpt><trkpt lat="46.04069824195045" lon="12.4754715621188"><ele>332.0</ele><time>2026-03-30T07:58:36.999Z</time></trkpt><trkpt lat="46.04077138280373" lon="12.47547197227895"><ele>332.0</ele><time>2026-03-30T07:58:37.999Z</time></trkpt><trkpt lat="46.04084597330461" lon="12.475441169763254"><ele>332.0</ele><time>2026-03-30T07:58:39.999Z</time></trkpt><trkpt lat="46.04070514724485" lon="12.475283406672391"><ele>332.0</ele><time>2026-03-30T07:58:43.999Z</time></trkpt><trkpt lat="46.04062662374549" lon="12.475240617118269"><ele>334.1666666666667</ele><time>2026-03-30T07:58:45.999Z</time></trkpt><trkpt lat="46.04054196034022" lon="12.47517970612702"><ele>336.33333333333337</ele><time>2026-03-30T07:58:47.999Z</time></trkpt><trkpt lat="46.04046997495982" lon="12.475143981459837"><ele>338.5</ele><time>2026-03-30T07:58:48.999Z</time></trkpt><trkpt lat="46.04040305320012" lon="12.475110144322029"><ele>340.6666666666667</ele><time>2026-03-30T07:58:49.999Z</time></trkpt><trkpt lat="46.04032087300671" lon="12.475046079429951"><ele>342.8333333333333</ele><time>2026-03-30T07:58:50.999Z</time></trkpt><trkpt lat="46.04024836295295" lon="12.474999613255973"><ele>345.0</ele><time>2026-03-30T07:58:51.999Z</time></trkpt><trkpt lat="46.04018036352625" lon="12.474870156558849"><ele>345.0</ele><time>2026-03-30T07:58:53.999Z</time></trkpt><trkpt lat="46.040173453474985" lon="12.474713116007853"><ele>345.0</ele><time>2026-03-30T07:58:55.999Z</time></trkpt><trkpt lat="46.04017970416478" lon="12.474544562977984"><ele>345.0</ele><time>2026-03-30T07:58:57.999Z</time></trkpt><trkpt lat="46.04018225093549" lon="12.474451390220565"><ele>345.0</ele><time>2026-03-30T07:58:58.999Z</time></trkpt><trkpt lat="46.040177848788105" lon="12.474359955099068"><ele>345.0</ele><time>2026-03-30T07:58:59.999Z</time></trkpt><trkpt lat="46.04016175281571" lon="12.474241030110486"><ele>345.0</ele><time>2026-03-30T07:59:01.999Z</time></trkpt><trkpt lat="46.04023367665071" lon="12.474202059542304"><ele>347.3333333333333</ele><time>2026-03-30T07:59:04Z</time></trkpt><trkpt lat="46.04033574609816" lon="12.474237538199647"><ele>349.6666666666667</ele><time>2026-03-30T07:59:06Z</time></trkpt><trkpt lat="46.04039641461381" lon="12.474280885470215"><ele>352.0</ele><time>2026-03-30T07:59:07Z</time></trkpt><trkpt lat="46.04045696631406" lon="12.474332004559693"><ele>354.33333333333337</ele><time>2026-03-30T07:59:08Z</time></trkpt><trkpt lat="46.04053135513344" lon="12.474393409863168"><ele>356.6666666666667</ele><time>2026-03-30T07:59:10Z</time></trkpt><trkpt lat="46.040596188315156" lon="12.474421527659887"><ele>359.0</ele><time>2026-03-30T07:59:12Z</time></trkpt><trkpt lat="46.040670472485616" lon="12.474445770531737"><ele>359.0</ele><time>2026-03-30T07:59:16Z</time></trkpt><trkpt lat="46.040741489872026" lon="12.474476612005976"><ele>359.0</ele><time>2026-03-30T07:59:20Z</time></trkpt><trkpt lat="46.0406986595329" lon="12.474396343111817"><ele>359.0</ele><time>2026-03-30T07:59:26Z</time></trkpt><trkpt lat="46.04062192077055" lon="12.474390899481799"><ele>359.0</ele><time>2026-03-30T07:59:28Z</time></trkpt><trkpt lat="46.0405378422493" lon="12.474387926965669"><ele>359.0</ele><time>2026-03-30T07:59:30Z</time></trkpt><trkpt lat="46.04045592861123" lon="12.47435870202065"><ele>359.0</ele><time>2026-03-30T07:59:32Z</time></trkpt><trkpt lat="46.04040006176467" lon="12.474303731114741"><ele>359.0</ele><time>2026-03-30T07:59:34Z</time></trkpt><trkpt lat="46.0403294415415" lon="12.474251857106347"><ele>359.0</ele><time>2026-03-30T07:59:36Z</time></trkpt><trkpt lat="46.04024391512099" lon="12.474209178270625"><ele>359.0</ele><time>2026-03-30T07:59:39Z</time></trkpt><trkpt lat="46.04017798821543" lon="12.474259725757848"><ele>359.0</ele><time>2026-03-30T07:59:50Z</time></trkpt><trkpt lat="46.040196703312546" lon="12.474413324177286"><ele>359.0</ele><time>2026-03-30T07:59:52Z</time></trkpt><trkpt lat="46.04020737142726" lon="12.474567779141982"><ele>355.5</ele><time>2026-03-30T07:59:54Z</time></trkpt><trkpt lat="46.04020788618266" lon="12.474743267882456"><ele>352.0</ele><time>2026-03-30T07:59:56Z</time></trkpt><trkpt lat="46.04021757974405" lon="12.474886376497828"><ele>348.5</ele><time>2026-03-30T07:59:58Z</time></trkpt><trkpt lat="46.040287091137834" lon="12.475004851420657"><ele>345.0</ele><time>2026-03-30T08:00:00Z</time></trkpt><trkpt lat="46.04041012374785" lon="12.47506066403514"><ele>345.0</ele><time>2026-03-30T08:00:02Z</time></trkpt><trkpt lat="46.04048522073479" lon="12.475095007556785"><ele>345.0</ele><time>2026-03-30T08:00:03Z</time></trkpt><trkpt lat="46.040584746207244" lon="12.475164053794725"><ele>345.0</ele><time>2026-03-30T08:00:05Z</time></trkpt><trkpt lat="46.04058746959771" lon="12.475442260124883"><ele>345.0</ele><time>2026-03-30T08:00:06Z</time></trkpt><trkpt lat="46.04065976793176" lon="12.475458849382495"><ele>344.1666666666667</ele><time>2026-03-30T08:00:08Z</time></trkpt><trkpt lat="46.040723178453234" lon="12.475466172562411"><ele>343.3333333333333</ele><time>2026-03-30T08:00:09Z</time></trkpt><trkpt lat="46.04081018657955" lon="12.475462897832328"><ele>342.5</ele><time>2026-03-30T08:00:10Z</time></trkpt><trkpt lat="46.040925500938684" lon="12.475444771339308"><ele>341.66666666666663</ele><time>2026-03-30T08:00:12Z</time></trkpt><trkpt lat="46.0409930561334" lon="12.475437858312986"><ele>340.8333333333333</ele><time>2026-03-30T08:00:13Z</time></trkpt><trkpt lat="46.041057286004275" lon="12.475434697830519"><ele>340.0</ele><time>2026-03-30T08:00:14Z</time></trkpt><trkpt lat="46.04113146944105" lon="12.475438473098338"><ele>340.0</ele><time>2026-03-30T08:00:15Z</time></trkpt><trkpt lat="46.041227140432746" lon="12.475450031510787"><ele>340.0</ele><time>2026-03-30T08:00:16Z</time></trkpt><trkpt lat="46.04131136813359" lon="12.475534203277865"><ele>340.0</ele><time>2026-03-30T08:00:17Z</time></trkpt><trkpt lat="46.04138988838649" lon="12.475625428707396"><ele>340.0</ele><time>2026-03-30T08:00:18Z</time></trkpt><trkpt lat="46.04146909221366" lon="12.475743382772142"><ele>340.0</ele><time>2026-03-30T08:00:19Z</time></trkpt><trkpt lat="46.041569422574526" lon="12.475849267711"><ele>340.75</ele><time>2026-03-30T08:00:20Z</time></trkpt><trkpt lat="46.04164931603569" lon="12.475988578974247"><ele>341.5</ele><time>2026-03-30T08:00:21Z</time></trkpt><trkpt lat="46.04174383832005" lon="12.47611103334794"><ele>342.25</ele><time>2026-03-30T08:00:22Z</time></trkpt><trkpt lat="46.04183366279019" lon="12.476226588199944"><ele>343.0</ele><time>2026-03-30T08:00:23Z</time></trkpt><trkpt lat="46.04192174217918" lon="12.476322618738681"><ele>343.0</ele><time>2026-03-30T08:00:24Z</time></trkpt><trkpt lat="46.042007156967955" lon="12.476398283783828"><ele>343.0</ele><time>2026-03-30T08:00:25Z</time></trkpt><trkpt lat="46.042097765834" lon="12.47644529395535"><ele>343.0</ele><time>2026-03-30T08:00:26Z</time></trkpt><trkpt lat="46.042202326330234" lon="12.476484361037729"><ele>343.0</ele><time>2026-03-30T08:00:27Z</time></trkpt><trkpt lat="46.04232936308183" lon="12.476527114118804"><ele>343.0</ele><time>2026-03-30T08:00:28Z</time></trkpt><trkpt lat="46.042447589774554" lon="12.476579294253492"><ele>348.59999999999997</ele><time>2026-03-30T08:00:29Z</time></trkpt><trkpt lat="46.04255525172286" lon="12.476650388308759"><ele>354.2</ele><time>2026-03-30T08:00:30Z</time></trkpt><trkpt lat="46.04265307091002" lon="12.47672997285645"><ele>359.8</ele><time>2026-03-30T08:00:31Z</time></trkpt><trkpt lat="46.042742321562905" lon="12.47682562961631"><ele>365.4</ele><time>2026-03-30T08:00:31.999Z</time></trkpt><trkpt lat="46.04282166282144" lon="12.476929866297299"><ele>371.0</ele><time>2026-03-30T08:00:32.999Z</time></trkpt><trkpt lat="46.04289255133846" lon="12.47703929077298"><ele>368.4</ele><time>2026-03-30T08:00:33.999Z</time></trkpt><trkpt lat="46.042959415820214" lon="12.477148410711642"><ele>365.8</ele><time>2026-03-30T08:00:34.999Z</time></trkpt><trkpt lat="46.043021056107605" lon="12.477260183410985"><ele>363.2</ele><time>2026-03-30T08:00:35.999Z</time></trkpt><trkpt lat="46.04307402315602" lon="12.477377715895665"><ele>360.59999999999997</ele><time>2026-03-30T08:00:36.999Z</time></trkpt><trkpt lat="46.04311915610041" lon="12.477496940946155"><ele>358.0</ele><time>2026-03-30T08:00:37.999Z</time></trkpt><trkpt lat="46.043157512526285" lon="12.477616237856555"><ele>358.0</ele><time>2026-03-30T08:00:38.999Z</time></trkpt><trkpt lat="46.04319898953618" lon="12.477732379159137"><ele>358.0</ele><time>2026-03-30T08:00:39.999Z</time></trkpt><trkpt lat="46.04324040568665" lon="12.477846110963577"><ele>358.0</ele><time>2026-03-30T08:00:40.999Z</time></trkpt><trkpt lat="46.043284060504575" lon="12.477955987015974"><ele>358.0</ele><time>2026-03-30T08:00:41.999Z</time></trkpt><trkpt lat="46.04332987147239" lon="12.478062795543293"><ele>358.0</ele><time>2026-03-30T08:00:42.999Z</time></trkpt><trkpt lat="46.043362781210526" lon="12.478180955437566"><ele>358.0</ele><time>2026-03-30T08:00:43.999Z</time></trkpt><trkpt lat="46.043423617767075" lon="12.47826907719015"><ele>361.0</ele><time>2026-03-30T08:00:44.999Z</time></trkpt><trkpt lat="46.04347801088289" lon="12.478345044068806"><ele>364.0</ele><time>2026-03-30T08:00:45.999Z</time></trkpt><trkpt lat="46.04353882046311" lon="12.478398324733948"><ele>367.0</ele><time>2026-03-30T08:00:46.999Z</time></trkpt><trkpt lat="46.04360060980237" lon="12.478419359162077"><ele>370.0</ele><time>2026-03-30T08:00:47.999Z</time></trkpt><trkpt lat="46.043691501980696" lon="12.478349398908879"><ele>373.0</ele><time>2026-03-30T08:00:49.999Z</time></trkpt><trkpt lat="46.043720768270774" lon="12.47825820261532"><ele>376.0</ele><time>2026-03-30T08:00:50.999Z</time></trkpt><trkpt lat="46.04371428848657" lon="12.478162339268435"><ele>376.0</ele><time>2026-03-30T08:00:51.999Z</time></trkpt><trkpt lat="46.04368196357901" lon="12.47804121020786"><ele>376.0</ele><time>2026-03-30T08:00:52.999Z</time></trkpt><trkpt lat="46.04363222035601" lon="12.477915921272716"><ele>376.0</ele><time>2026-03-30T08:00:53.999Z</time></trkpt><trkpt lat="46.04358703277368" lon="12.477758975678181"><ele>376.0</ele><time>2026-03-30T08:00:54.999Z</time></trkpt><trkpt lat="46.04354888298711" lon="12.477631267009203"><ele>376.0</ele><time>2026-03-30T08:00:55.999Z</time></trkpt><trkpt lat="46.043508229453984" lon="12.477528894602717"><ele>377.8333333333333</ele><time>2026-03-30T08:00:56.999Z</time></trkpt><trkpt lat="46.04349302411689" lon="12.477421710467096"><ele>379.66666666666663</ele><time>2026-03-30T08:00:57.999Z</time></trkpt><trkpt lat="46.04349455294985" lon="12.477326773665403"><ele>381.5</ele><time>2026-03-30T08:00:58.999Z</time></trkpt><trkpt lat="46.04357032029249" lon="12.477225726767648"><ele>383.3333333333333</ele><time>2026-03-30T08:01:00.999Z</time></trkpt><trkpt lat="46.04367424479906" lon="12.477283075085175"><ele>385.1666666666667</ele><time>2026-03-30T08:01:02.999Z</time></trkpt><trkpt lat="46.04370997229539" lon="12.47738782271478"><ele>387.0</ele><time>2026-03-30T08:01:03.999Z</time></trkpt><trkpt lat="46.043739221894135" lon="12.477520236909324"><ele>387.0</ele><time>2026-03-30T08:01:04.999Z</time></trkpt><trkpt lat="46.043769940830686" lon="12.477693883504092"><ele>387.0</ele><time>2026-03-30T08:01:05.999Z</time></trkpt><trkpt lat="46.04382188693439" lon="12.477867471705167"><ele>387.0</ele><time>2026-03-30T08:01:06.999Z</time></trkpt><trkpt lat="46.04389486305438" lon="12.478024471350922"><ele>387.0</ele><time>2026-03-30T08:01:07.999Z</time></trkpt><trkpt lat="46.043976809342574" lon="12.478187652116096"><ele>384.25</ele><time>2026-03-30T08:01:08.999Z</time></trkpt><trkpt lat="46.0440663401697" lon="12.47834674432017"><ele>381.5</ele><time>2026-03-30T08:01:10Z</time></trkpt><trkpt lat="46.04414914626589" lon="12.478491926131703"><ele>378.75</ele><time>2026-03-30T08:01:11Z</time></trkpt><trkpt lat="46.04420866645155" lon="12.47862620448218"><ele>376.0</ele><time>2026-03-30T08:01:12Z</time></trkpt><trkpt lat="46.044247860465724" lon="12.478777954506151"><ele>385.0</ele><time>2026-03-30T08:01:13Z</time></trkpt><trkpt lat="46.0442760842976" lon="12.478963056527702"><ele>394.0</ele><time>2026-03-30T08:01:14Z</time></trkpt><trkpt lat="46.04430888685301" lon="12.47918963990159"><ele>403.0</ele><time>2026-03-30T08:01:15Z</time></trkpt><trkpt lat="46.04436342220988" lon="12.479433941858812"><ele>404.0</ele><time>2026-03-30T08:01:16Z</time></trkpt><trkpt lat="46.04441997531991" lon="12.47962250392744"><ele>405.0</ele><time>2026-03-30T08:01:17Z</time></trkpt><trkpt lat="46.04447534986235" lon="12.479770883913108"><ele>406.0</ele><time>2026-03-30T08:01:18Z</time></trkpt><trkpt lat="46.04451555725771" lon="12.479901570179415"><ele>407.0</ele><time>2026-03-30T08:01:19Z</time></trkpt><trkpt lat="46.04452459632206" lon="12.4800217425689"><ele>408.0</ele><time>2026-03-30T08:01:20Z</time></trkpt><trkpt lat="46.04451289019696" lon="12.480148537513905"><ele>408.0</ele><time>2026-03-30T08:01:21Z</time></trkpt><trkpt lat="46.04447768586856" lon="12.480271425112917"><ele>408.0</ele><time>2026-03-30T08:01:22Z</time></trkpt><trkpt lat="46.044426376106834" lon="12.480401124007221"><ele>408.0</ele><time>2026-03-30T08:01:23Z</time></trkpt><trkpt lat="46.04435525901035" lon="12.48052891044945"><ele>408.0</ele><time>2026-03-30T08:01:24Z</time></trkpt><trkpt lat="46.04424886748172" lon="12.480640108780591"><ele>408.0</ele><time>2026-03-30T08:01:25Z</time></trkpt><trkpt lat="46.04414044295077" lon="12.480813355758267"><ele>409.0</ele><time>2026-03-30T08:01:26Z</time></trkpt><trkpt lat="46.044003269432096" lon="12.480998605301025"><ele>410.0</ele><time>2026-03-30T08:01:27Z</time></trkpt><trkpt lat="46.04387273146306" lon="12.481203673693594"><ele>411.0</ele><time>2026-03-30T08:01:28Z</time></trkpt><trkpt lat="46.04377097953904" lon="12.48137440051506"><ele>411.0</ele><time>2026-03-30T08:01:29Z</time></trkpt><trkpt lat="46.04368569391891" lon="12.481536040060524"><ele>411.0</ele><time>2026-03-30T08:01:30Z</time></trkpt><trkpt lat="46.0436092438383" lon="12.481711660244798"><ele>411.0</ele><time>2026-03-30T08:01:31Z</time></trkpt><trkpt lat="46.04353883741376" lon="12.48189737967948"><ele>411.0</ele><time>2026-03-30T08:01:32Z</time></trkpt><trkpt lat="46.04348200162488" lon="12.482059905741098"><ele>413.75</ele><time>2026-03-30T08:01:33Z</time></trkpt><trkpt lat="46.04344300517229" lon="12.48220864358289"><ele>416.5</ele><time>2026-03-30T08:01:34Z</time></trkpt><trkpt lat="46.043422885824384" lon="12.48236264725036"><ele>419.25</ele><time>2026-03-30T08:01:35Z</time></trkpt><trkpt lat="46.04341704647046" lon="12.482531869263006"><ele>422.0</ele><time>2026-03-30T08:01:36Z</time></trkpt><trkpt lat="46.04342327090543" lon="12.482705245480856"><ele>422.0</ele><time>2026-03-30T08:01:37Z</time></trkpt><trkpt lat="46.04342953810123" lon="12.48288054071901"><ele>422.0</ele><time>2026-03-30T08:01:38Z</time></trkpt><trkpt lat="46.04344135149178" lon="12.483051168991524"><ele>422.0</ele><time>2026-03-30T08:01:39Z</time></trkpt><trkpt lat="46.04346518667202" lon="12.4832059649885"><ele>422.0</ele><time>2026-03-30T08:01:40Z</time></trkpt><trkpt lat="46.04349985548925" lon="12.48334691333831"><ele>421.75</ele><time>2026-03-30T08:01:41Z</time></trkpt><trkpt lat="46.04355067724953" lon="12.483488588287944"><ele>421.5</ele><time>2026-03-30T08:01:42Z</time></trkpt><trkpt lat="46.04361069915662" lon="12.483628098345301"><ele>421.25</ele><time>2026-03-30T08:01:43Z</time></trkpt><trkpt lat="46.043676896190334" lon="12.483772647336874"><ele>421.0</ele><time>2026-03-30T08:01:44Z</time></trkpt><trkpt lat="46.04374196670769" lon="12.483926318039085"><ele>419.0</ele><time>2026-03-30T08:01:45Z</time></trkpt><trkpt lat="46.04381001606391" lon="12.484089270794314"><ele>417.0</ele><time>2026-03-30T08:01:46Z</time></trkpt><trkpt lat="46.043866497843986" lon="12.484253444030731"><ele>415.0</ele><time>2026-03-30T08:01:47Z</time></trkpt><trkpt lat="46.04390787239683" lon="12.484413693939201"><ele>413.0</ele><time>2026-03-30T08:01:48Z</time></trkpt><trkpt lat="46.043933178248366" lon="12.48456961745641"><ele>411.79999999999995</ele><time>2026-03-30T08:01:49Z</time></trkpt><trkpt lat="46.043943858145724" lon="12.484724717161194"><ele>410.6</ele><time>2026-03-30T08:01:50Z</time></trkpt><trkpt lat="46.0439397518736" lon="12.484880663910928"><ele>409.4</ele><time>2026-03-30T08:01:51Z</time></trkpt><trkpt lat="46.04392867934607" lon="12.485035003764699"><ele>408.20000000000005</ele><time>2026-03-30T08:01:52Z</time></trkpt><trkpt lat="46.04390758355514" lon="12.48518439108592"><ele>407.0</ele><time>2026-03-30T08:01:53Z</time></trkpt><trkpt lat="46.0438607579707" lon="12.485304252932218"><ele>407.20000000000005</ele><time>2026-03-30T08:01:54Z</time></trkpt><trkpt lat="46.043841933460996" lon="12.48543462162216"><ele>407.4</ele><time>2026-03-30T08:01:55Z</time></trkpt><trkpt lat="46.0438218416492" lon="12.48556666851559"><ele>407.6</ele><time>2026-03-30T08:01:56Z</time></trkpt><trkpt lat="46.043822115027695" lon="12.485702600133179"><ele>407.79999999999995</ele><time>2026-03-30T08:01:57Z</time></trkpt><trkpt lat="46.04384534467078" lon="12.485839766425574"><ele>408.0</ele><time>2026-03-30T08:01:58Z</time></trkpt><trkpt lat="46.04387896421642" lon="12.485975522751827"><ele>408.0</ele><time>2026-03-30T08:01:59Z</time></trkpt><trkpt lat="46.04393090770497" lon="12.486104330042819"><ele>408.0</ele><time>2026-03-30T08:02:00Z</time></trkpt><trkpt lat="46.04399708764046" lon="12.486224205644984"><ele>408.0</ele><time>2026-03-30T08:02:01Z</time></trkpt><trkpt lat="46.044071350617195" lon="12.486337645109849"><ele>408.0</ele><time>2026-03-30T08:02:02Z</time></trkpt><trkpt lat="46.04415050294671" lon="12.486450331585818"><ele>408.0</ele><time>2026-03-30T08:02:03Z</time></trkpt><trkpt lat="46.04422031585047" lon="12.486575522141132"><ele>412.5</ele><time>2026-03-30T08:02:04Z</time></trkpt><trkpt lat="46.04428079400029" lon="12.48671141401009"><ele>417.0</ele><time>2026-03-30T08:02:05Z</time></trkpt><trkpt lat="46.04433206834415" lon="12.486855409783427"><ele>421.5</ele><time>2026-03-30T08:02:06Z</time></trkpt><trkpt lat="46.044380059988384" lon="12.487003853110776"><ele>426.0</ele><time>2026-03-30T08:02:07Z</time></trkpt><trkpt lat="46.044431440420254" lon="12.48715171095219"><ele>426.0</ele><time>2026-03-30T08:02:08Z</time></trkpt><trkpt lat="46.04448068962422" lon="12.487304010536644"><ele>426.0</ele><time>2026-03-30T08:02:09Z</time></trkpt><trkpt lat="46.044531106487916" lon="12.48745640710872"><ele>426.0</ele><time>2026-03-30T08:02:10Z</time></trkpt><trkpt lat="46.04458943535019" lon="12.487608183810815"><ele>426.0</ele><time>2026-03-30T08:02:11Z</time></trkpt><trkpt lat="46.04465201146632" lon="12.487759161570382"><ele>426.0</ele><time>2026-03-30T08:02:12Z</time></trkpt><trkpt lat="46.04471144283324" lon="12.487910896932222"><ele>426.0</ele><time>2026-03-30T08:02:13Z</time></trkpt><trkpt lat="46.04477001516512" lon="12.488065446560638"><ele>426.0</ele><time>2026-03-30T08:02:14Z</time></trkpt><trkpt lat="46.0448280609803" lon="12.488227161637965"><ele>426.0</ele><time>2026-03-30T08:02:15Z</time></trkpt><trkpt lat="46.04489287626531" lon="12.488383480863044"><ele>422.25</ele><time>2026-03-30T08:02:16Z</time></trkpt><trkpt lat="46.04495270746137" lon="12.488535543724332"><ele>418.5</ele><time>2026-03-30T08:02:17Z</time></trkpt><trkpt lat="46.045002711383155" lon="12.488681023894328"><ele>414.75</ele><time>2026-03-30T08:02:18Z</time></trkpt><trkpt lat="46.04504489096986" lon="12.488828585365402"><ele>411.0</ele><time>2026-03-30T08:02:19Z</time></trkpt><trkpt lat="46.04507913219474" lon="12.488978596832872"><ele>416.4</ele><time>2026-03-30T08:02:20Z</time></trkpt><trkpt lat="46.045109532125025" lon="12.489129176778649"><ele>421.8</ele><time>2026-03-30T08:02:21Z</time></trkpt><trkpt lat="46.04513658470439" lon="12.489281414487301"><ele>427.19999999999993</ele><time>2026-03-30T08:02:22Z</time></trkpt><trkpt lat="46.045167412629844" lon="12.489432843567696"><ele>432.59999999999997</ele><time>2026-03-30T08:02:23Z</time></trkpt><trkpt lat="46.04520392972253" lon="12.489582557886418"><ele>438.0</ele><time>2026-03-30T08:02:24Z</time></trkpt><trkpt lat="46.04523511095739" lon="12.48973530504205"><ele>438.0</ele><time>2026-03-30T08:02:25Z</time></trkpt><trkpt lat="46.04525979957146" lon="12.489890266532298"><ele>438.0</ele><time>2026-03-30T08:02:26Z</time></trkpt><trkpt lat="46.04528074874001" lon="12.490051769826335"><ele>438.0</ele><time>2026-03-30T08:02:27Z</time></trkpt><trkpt lat="46.04530630979545" lon="12.49021636504123"><ele>438.0</ele><time>2026-03-30T08:02:28Z</time></trkpt><trkpt lat="46.04533989061908" lon="12.490380940184691"><ele>436.75</ele><time>2026-03-30T08:02:29Z</time></trkpt><trkpt lat="46.045378934337734" lon="12.490543885204115"><ele>435.5</ele><time>2026-03-30T08:02:30Z</time></trkpt><trkpt lat="46.04542671717198" lon="12.49070045506119"><ele>434.25</ele><time>2026-03-30T08:02:31Z</time></trkpt><trkpt lat="46.04547395480441" lon="12.490850302630518"><ele>433.0</ele><time>2026-03-30T08:02:31.999Z</time></trkpt><trkpt lat="46.04551731011869" lon="12.490990123296134"><ele>433.0</ele><time>2026-03-30T08:02:32.999Z</time></trkpt><trkpt lat="46.045561291293794" lon="12.491119234718102"><ele>432.99999999999994</ele><time>2026-03-30T08:02:33.999Z</time></trkpt><trkpt lat="46.045606990337774" lon="12.491234792440636"><ele>432.99999999999994</ele><time>2026-03-30T08:02:34.999Z</time></trkpt><trkpt lat="46.045629750848654" lon="12.491351385634006"><ele>433.0</ele><time>2026-03-30T08:02:35.999Z</time></trkpt><trkpt lat="46.04572216960345" lon="12.49141973230748"><ele>433.0</ele><time>2026-03-30T08:02:36.999Z</time></trkpt><trkpt lat="46.045791014325324" lon="12.491502353250517"><ele>435.59999999999997</ele><time>2026-03-30T08:02:37.999Z</time></trkpt><trkpt lat="46.04587624308962" lon="12.491590445707404"><ele>438.19999999999993</ele><time>2026-03-30T08:02:38.999Z</time></trkpt><trkpt lat="46.04596363263441" lon="12.491670048941579"><ele>440.8</ele><time>2026-03-30T08:02:39.999Z</time></trkpt><trkpt lat="46.04605146681781" lon="12.491747535587347"><ele>443.4</ele><time>2026-03-30T08:02:40.999Z</time></trkpt><trkpt lat="46.046140603528656" lon="12.491824753259309"><ele>446.0</ele><time>2026-03-30T08:02:41.999Z</time></trkpt><trkpt lat="46.046231878135096" lon="12.491900637368227"><ele>446.0</ele><time>2026-03-30T08:02:42.999Z</time></trkpt><trkpt lat="46.046329500622114" lon="12.491976125306596"><ele>446.0</ele><time>2026-03-30T08:02:43.999Z</time></trkpt><trkpt lat="46.046436633268286" lon="12.492055270404746"><ele>446.0</ele><time>2026-03-30T08:02:44.999Z</time></trkpt><trkpt lat="46.046540475027314" lon="12.492133373948919"><ele>446.0</ele><time>2026-03-30T08:02:45.999Z</time></trkpt><trkpt lat="46.0466399413802" lon="12.492207258595979"><ele>446.8</ele><time>2026-03-30T08:02:46.999Z</time></trkpt><trkpt lat="46.04673051256736" lon="12.492279282787083"><ele>447.6</ele><time>2026-03-30T08:02:47.999Z</time></trkpt><trkpt lat="46.04681639858859" lon="12.492344179352472"><ele>448.4</ele><time>2026-03-30T08:02:48.999Z</time></trkpt><trkpt lat="46.04690083410371" lon="12.492410270099386"><ele>449.2</ele><time>2026-03-30T08:02:49.999Z</time></trkpt><trkpt lat="46.04698518533444" lon="12.492475253693184"><ele>450.0</ele><time>2026-03-30T08:02:50.999Z</time></trkpt><trkpt lat="46.04706606766144" lon="12.492539219519415"><ele>450.0</ele><time>2026-03-30T08:02:51.999Z</time></trkpt><trkpt lat="46.04714299505726" lon="12.49260399194899"><ele>450.0</ele><time>2026-03-30T08:02:52.999Z</time></trkpt><trkpt lat="46.04721942720585" lon="12.492669940116741"><ele>450.0</ele><time>2026-03-30T08:02:53.999Z</time></trkpt><trkpt lat="46.04729572402516" lon="12.492739751675693"><ele>450.0</ele><time>2026-03-30T08:02:54.999Z</time></trkpt><trkpt lat="46.0473737415749" lon="12.492806625876865"><ele>450.0</ele><time>2026-03-30T08:02:55.999Z</time></trkpt><trkpt lat="46.04744985477173" lon="12.49287333621676"><ele>450.0</ele><time>2026-03-30T08:02:56.999Z</time></trkpt><trkpt lat="46.04752400737369" lon="12.492937073815096"><ele>451.0</ele><time>2026-03-30T08:02:57.999Z</time></trkpt><trkpt lat="46.04759899011038" lon="12.492996858149402"><ele>452.0</ele><time>2026-03-30T08:02:58.999Z</time></trkpt><trkpt lat="46.04767296617691" lon="12.493055181497546"><ele>453.0</ele><time>2026-03-30T08:02:59.999Z</time></trkpt><trkpt lat="46.0477443021393" lon="12.4931176046898"><ele>454.0</ele><time>2026-03-30T08:03:00.999Z</time></trkpt><trkpt lat="46.04781396153933" lon="12.493183447236396"><ele>455.0</ele><time>2026-03-30T08:03:01.999Z</time></trkpt><trkpt lat="46.04787776772886" lon="12.4932537577037"><ele>456.0</ele><time>2026-03-30T08:03:02.999Z</time></trkpt><trkpt lat="46.04794077666099" lon="12.493322441724532"><ele>456.0</ele><time>2026-03-30T08:03:03.999Z</time></trkpt><trkpt lat="46.047998397201525" lon="12.49338277375111"><ele>455.99999999999994</ele><time>2026-03-30T08:03:04.999Z</time></trkpt><trkpt lat="46.0480584593391" lon="12.493437774211612"><ele>456.0</ele><time>2026-03-30T08:03:05.999Z</time></trkpt><trkpt lat="46.048117211720125" lon="12.4934933256649"><ele>456.0</ele><time>2026-03-30T08:03:06.999Z</time></trkpt><trkpt lat="46.04818267603555" lon="12.493528253314794"><ele>455.99999999999994</ele><time>2026-03-30T08:03:07.999Z</time></trkpt><trkpt lat="46.04825784710673" lon="12.493521372479902"><ele>456.0</ele><time>2026-03-30T08:03:08.999Z</time></trkpt><trkpt lat="46.04832555704186" lon="12.493492352829573"><ele>456.0</ele><time>2026-03-30T08:03:09.999Z</time></trkpt><trkpt lat="46.04838772517844" lon="12.493471423496793"><ele>458.8333333333333</ele><time>2026-03-30T08:03:10.999Z</time></trkpt><trkpt lat="46.04851677055552" lon="12.493519256673228"><ele>461.66666666666663</ele><time>2026-03-30T08:03:12.999Z</time></trkpt><trkpt lat="46.04858275621778" lon="12.493553979540328"><ele>464.5</ele><time>2026-03-30T08:03:13.999Z</time></trkpt><trkpt lat="46.048650678586576" lon="12.493590642235773"><ele>467.3333333333333</ele><time>2026-03-30T08:03:14.999Z</time></trkpt><trkpt lat="46.04872774521638" lon="12.493630696842157"><ele>470.16666666666663</ele><time>2026-03-30T08:03:16Z</time></trkpt><trkpt lat="46.048801817063996" lon="12.4936743421697"><ele>473.0</ele><time>2026-03-30T08:03:17Z</time></trkpt><trkpt lat="46.048877627786965" lon="12.493730628231226"><ele>472.66666666666663</ele><time>2026-03-30T08:03:18Z</time></trkpt><trkpt lat="46.0489566135073" lon="12.493789794884965"><ele>472.3333333333333</ele><time>2026-03-30T08:03:19Z</time></trkpt><trkpt lat="46.04903971282827" lon="12.493848665785382"><ele>472.0</ele><time>2026-03-30T08:03:20Z</time></trkpt><trkpt lat="46.04912806158835" lon="12.493903026212255"><ele>471.66666666666663</ele><time>2026-03-30T08:03:21Z</time></trkpt><trkpt lat="46.04920259841417" lon="12.493955087389594"><ele>471.3333333333333</ele><time>2026-03-30T08:03:22Z</time></trkpt><trkpt lat="46.049266427135784" lon="12.494008525674982"><ele>471.0</ele><time>2026-03-30T08:03:23Z</time></trkpt><trkpt lat="46.04933496743086" lon="12.494062400427573"><ele>471.0</ele><time>2026-03-30T08:03:24Z</time></trkpt><trkpt lat="46.04941139675211" lon="12.494119222477789"><ele>471.0</ele><time>2026-03-30T08:03:25Z</time></trkpt><trkpt lat="46.04948562042239" lon="12.4941877334732"><ele>471.0</ele><time>2026-03-30T08:03:26Z</time></trkpt><trkpt lat="46.0495561925984" lon="12.49426602626492"><ele>471.0</ele><time>2026-03-30T08:03:27Z</time></trkpt><trkpt lat="46.04963019094074" lon="12.494339913014517"><ele>471.0</ele><time>2026-03-30T08:03:28Z</time></trkpt><trkpt lat="46.04970639637387" lon="12.494411539115802"><ele>471.0</ele><time>2026-03-30T08:03:29Z</time></trkpt><trkpt lat="46.049789881148314" lon="12.49447091498538"><ele>471.0</ele><time>2026-03-30T08:03:30Z</time></trkpt><trkpt lat="46.04986181503531" lon="12.494536779140137"><ele>471.0</ele><time>2026-03-30T08:03:31Z</time></trkpt><trkpt lat="46.04993301904931" lon="12.494608470547302"><ele>471.0</ele><time>2026-03-30T08:03:32Z</time></trkpt><trkpt lat="46.05000324416611" lon="12.494689189106763"><ele>471.0</ele><time>2026-03-30T08:03:33Z</time></trkpt><trkpt lat="46.05006882134664" lon="12.494774036940049"><ele>471.0</ele><time>2026-03-30T08:03:34Z</time></trkpt><trkpt lat="46.05013558185499" lon="12.494865856008655"><ele>471.0</ele><time>2026-03-30T08:03:35Z</time></trkpt><trkpt lat="46.05019474760873" lon="12.494942678005675"><ele>471.7142857142858</ele><time>2026-03-30T08:03:36Z</time></trkpt><trkpt lat="46.05024841121718" lon="12.495012234949028"><ele>472.42857142857144</ele><time>2026-03-30T08:03:37Z</time></trkpt><trkpt lat="46.05029636968582" lon="12.495073500551447"><ele>473.14285714285717</ele><time>2026-03-30T08:03:38Z</time></trkpt><trkpt lat="46.05034900704281" lon="12.49513052964034"><ele>473.8571428571429</ele><time>2026-03-30T08:03:39Z</time></trkpt><trkpt lat="46.05040719245275" lon="12.495190197984739"><ele>474.57142857142856</ele><time>2026-03-30T08:03:40Z</time></trkpt><trkpt lat="46.05047148070039" lon="12.49523973928562"><ele>475.2857142857143</ele><time>2026-03-30T08:03:41Z</time></trkpt><trkpt lat="46.0505377147201" lon="12.495286725540781"><ele>476.0</ele><time>2026-03-30T08:03:42Z</time></trkpt><trkpt lat="46.05060754049229" lon="12.495326845357244"><ele>475.99999999999994</ele><time>2026-03-30T08:03:43Z</time></trkpt><trkpt lat="46.05067981329098" lon="12.495364805326526"><ele>476.0</ele><time>2026-03-30T08:03:44Z</time></trkpt><trkpt lat="46.05074979904713" lon="12.49540454193918"><ele>476.0</ele><time>2026-03-30T08:03:45Z</time></trkpt><trkpt lat="46.05081387180164" lon="12.495419234333566"><ele>476.0</ele><time>2026-03-30T08:03:46Z</time></trkpt><trkpt lat="46.05093518084276" lon="12.495377887325853"><ele>475.99999999999994</ele><time>2026-03-30T08:03:48Z</time></trkpt><trkpt lat="46.05100245777102" lon="12.49532090821228"><ele>476.0</ele><time>2026-03-30T08:03:50Z</time></trkpt><trkpt lat="46.05104585388982" lon="12.495252936018503"><ele>476.0</ele><time>2026-03-30T08:03:57Z</time></trkpt><trkpt lat="46.05113215605252" lon="12.495275354103487"><ele>476.0</ele><time>2026-03-30T08:04:00Z</time></trkpt><trkpt lat="46.05116450682628" lon="12.495439675814684"><ele>476.0</ele><time>2026-03-30T08:04:02Z</time></trkpt><trkpt lat="46.051197269046206" lon="12.495591064511455"><ele>476.0</ele><time>2026-03-30T08:04:04Z</time></trkpt><trkpt lat="46.05124549764264" lon="12.495739147172914"><ele>476.0</ele><time>2026-03-30T08:04:06Z</time></trkpt><trkpt lat="46.05128534626135" lon="12.495815089172847"><ele>475.99999999999994</ele><time>2026-03-30T08:04:07Z</time></trkpt><trkpt lat="46.05133297470091" lon="12.49587555722494"><ele>476.0</ele><time>2026-03-30T08:04:08Z</time></trkpt><trkpt lat="46.05143380385309" lon="12.495968912409113"><ele>476.0</ele><time>2026-03-30T08:04:10Z</time></trkpt><trkpt lat="46.05154259253948" lon="12.496028549279313"><ele>476.0</ele><time>2026-03-30T08:04:12Z</time></trkpt><trkpt lat="46.051611772950146" lon="12.496053660672434"><ele>475.99999999999994</ele><time>2026-03-30T08:04:13Z</time></trkpt><trkpt lat="46.051679430311914" lon="12.496090546852628"><ele>476.0</ele><time>2026-03-30T08:04:14Z</time></trkpt><trkpt lat="46.05177288859267" lon="12.496164416512709"><ele>476.8333333333333</ele><time>2026-03-30T08:04:16Z</time></trkpt><trkpt lat="46.051827380026886" lon="12.496258592320556"><ele>477.66666666666663</ele><time>2026-03-30T08:04:18Z</time></trkpt><trkpt lat="46.05187149328528" lon="12.496365702444937"><ele>478.5</ele><time>2026-03-30T08:04:20Z</time></trkpt><trkpt lat="46.051901622527815" lon="12.496482594756545"><ele>479.33333333333337</ele><time>2026-03-30T08:04:23Z</time></trkpt><trkpt lat="46.05187913218383" lon="12.49659507888856"><ele>480.1666666666667</ele><time>2026-03-30T08:04:28Z</time></trkpt><trkpt lat="46.051858876612265" lon="12.496693159413038"><ele>481.0</ele><time>2026-03-30T08:04:30Z</time></trkpt><trkpt lat="46.05188635985891" lon="12.496525271731725"><ele>481.0</ele><time>2026-03-30T08:04:40Z</time></trkpt><trkpt lat="46.05187620345349" lon="12.49642479725716"><ele>481.0</ele><time>2026-03-30T08:04:41Z</time></trkpt><trkpt lat="46.05182097237575" lon="12.49630034591348"><ele>481.0</ele><time>2026-03-30T08:04:43Z</time></trkpt><trkpt lat="46.051908237796084" lon="12.49633323674625"><ele>481.0</ele><time>2026-03-30T08:04:48Z</time></trkpt><trkpt lat="46.0519487475086" lon="12.496408028022556"><ele>481.0</ele><time>2026-03-30T08:04:49Z</time></trkpt><trkpt lat="46.05205154754342" lon="12.496504143402074"><ele>481.0</ele><time>2026-03-30T08:04:51Z</time></trkpt><trkpt lat="46.052114188313176" lon="12.496534431507758"><ele>481.0</ele><time>2026-03-30T08:04:52Z</time></trkpt><trkpt lat="46.05221080624597" lon="12.496605290536879"><ele>481.0</ele><time>2026-03-30T08:04:53.999Z</time></trkpt><trkpt lat="46.05231008417002" lon="12.496686675641056"><ele>481.0</ele><time>2026-03-30T08:04:55.999Z</time></trkpt><trkpt lat="46.0524027805819" lon="12.496755633060781"><ele>481.0</ele><time>2026-03-30T08:04:57.999Z</time></trkpt><trkpt lat="46.05251552091871" lon="12.496819563673146"><ele>484.6</ele><time>2026-03-30T08:04:59.999Z</time></trkpt><trkpt lat="46.052616036656154" lon="12.496914924757673"><ele>488.20000000000005</ele><time>2026-03-30T08:05:01.999Z</time></trkpt><trkpt lat="46.05266351155804" lon="12.497065686852055"><ele>491.79999999999995</ele><time>2026-03-30T08:05:03.999Z</time></trkpt><trkpt lat="46.052693711737035" lon="12.497190180751993"><ele>495.4</ele><time>2026-03-30T08:05:05.999Z</time></trkpt><trkpt lat="46.052723000405244" lon="12.497325803160287"><ele>499.0</ele><time>2026-03-30T08:05:07.999Z</time></trkpt><trkpt lat="46.05277976424935" lon="12.497448421336221"><ele>499.0</ele><time>2026-03-30T08:05:09.999Z</time></trkpt><trkpt lat="46.05282198096809" lon="12.49758362838126"><ele>499.0</ele><time>2026-03-30T08:05:11.999Z</time></trkpt><trkpt lat="46.05285494542732" lon="12.497674109125391"><ele>499.0</ele><time>2026-03-30T08:05:13.999Z</time></trkpt><trkpt lat="46.052903715702804" lon="12.497778202966874"><ele>499.0</ele><time>2026-03-30T08:05:15.999Z</time></trkpt><trkpt lat="46.05284297103761" lon="12.49764569766518"><ele>499.0</ele><time>2026-03-30T08:05:28Z</time></trkpt><trkpt lat="46.05280402793093" lon="12.49753492632255"><ele>499.00000000000006</ele><time>2026-03-30T08:05:30Z</time></trkpt><trkpt lat="46.05275307052481" lon="12.497386192329968"><ele>499.0</ele><time>2026-03-30T08:05:32Z</time></trkpt><trkpt lat="46.05272085287304" lon="12.497292072449259"><ele>499.0</ele><time>2026-03-30T08:05:33Z</time></trkpt><trkpt lat="46.05268548309163" lon="12.497198474265304"><ele>499.0</ele><time>2026-03-30T08:05:34Z</time></trkpt><trkpt lat="46.05265780704785" lon="12.497110841487485"><ele>499.00000000000006</ele><time>2026-03-30T08:05:35Z</time></trkpt><trkpt lat="46.052631404486924" lon="12.497014472976193"><ele>499.0</ele><time>2026-03-30T08:05:36Z</time></trkpt><trkpt lat="46.052598286814955" lon="12.496935418813091"><ele>499.6666666666667</ele><time>2026-03-30T08:05:37Z</time></trkpt><trkpt lat="46.052548695439256" lon="12.496872388672584"><ele>500.33333333333337</ele><time>2026-03-30T08:05:38Z</time></trkpt><trkpt lat="46.052496105019586" lon="12.496819898021416"><ele>501.0</ele><time>2026-03-30T08:05:39Z</time></trkpt><trkpt lat="46.05237753363297" lon="12.496771356450408"><ele>501.66666666666663</ele><time>2026-03-30T08:05:41Z</time></trkpt><trkpt lat="46.052308017015235" lon="12.49673025572574"><ele>502.3333333333333</ele><time>2026-03-30T08:05:42Z</time></trkpt><trkpt lat="46.052218977214814" lon="12.496647844467262"><ele>503.0</ele><time>2026-03-30T08:05:44Z</time></trkpt><trkpt lat="46.05212739892977" lon="12.496575269073118"><ele>500.0</ele><time>2026-03-30T08:05:46Z</time></trkpt><trkpt lat="46.05202411099609" lon="12.496515386015892"><ele>496.99999999999994</ele><time>2026-03-30T08:05:48Z</time></trkpt><trkpt lat="46.051927246095616" lon="12.496426254036981"><ele>493.99999999999994</ele><time>2026-03-30T08:05:50Z</time></trkpt><trkpt lat="46.05188710183421" lon="12.496349158957761"><ele>491.0</ele><time>2026-03-30T08:05:51Z</time></trkpt><trkpt lat="46.05182996964056" lon="12.496233248396663"><ele>488.0</ele><time>2026-03-30T08:05:53Z</time></trkpt><trkpt lat="46.05182445670514" lon="12.49635753564931"><ele>486.8333333333333</ele><time>2026-03-30T08:05:57Z</time></trkpt><trkpt lat="46.05187326672114" lon="12.496451186139447"><ele>485.66666666666663</ele><time>2026-03-30T08:05:58Z</time></trkpt><trkpt lat="46.0518843476861" lon="12.496541084778528"><ele>484.5</ele><time>2026-03-30T08:05:59Z</time></trkpt><trkpt lat="46.051869141853516" lon="12.49666619103398"><ele>483.33333333333337</ele><time>2026-03-30T08:06:00Z</time></trkpt><trkpt lat="46.051845705570145" lon="12.496794701629932"><ele>482.1666666666667</ele><time>2026-03-30T08:06:01Z</time></trkpt><trkpt lat="46.05182358261164" lon="12.496919320004649"><ele>481.0</ele><time>2026-03-30T08:06:02Z</time></trkpt><trkpt lat="46.0518025743114" lon="12.497054722641085"><ele>479.50000000000006</ele><time>2026-03-30T08:06:03Z</time></trkpt><trkpt lat="46.05178805927861" lon="12.497177124166845"><ele>478.0</ele><time>2026-03-30T08:06:04Z</time></trkpt><trkpt lat="46.05178137686907" lon="12.497300684143271"><ele>476.5</ele><time>2026-03-30T08:06:05Z</time></trkpt><trkpt lat="46.05177835004695" lon="12.497423558179909"><ele>475.0</ele><time>2026-03-30T08:06:06Z</time></trkpt><trkpt lat="46.05178133278283" lon="12.497545153366621"><ele>473.50000000000006</ele><time>2026-03-30T08:06:07Z</time></trkpt><trkpt lat="46.05179533103507" lon="12.497662171739513"><ele>472.0</ele><time>2026-03-30T08:06:08Z</time></trkpt><trkpt lat="46.05180294370874" lon="12.497784523064784"><ele>472.00000000000006</ele><time>2026-03-30T08:06:09Z</time></trkpt><trkpt lat="46.051803347202" lon="12.497901092301461"><ele>472.0</ele><time>2026-03-30T08:06:10Z</time></trkpt><trkpt lat="46.051822370770836" lon="12.49800042497991"><ele>472.0</ele><time>2026-03-30T08:06:11Z</time></trkpt><trkpt lat="46.051842467914504" lon="12.498093637050415"><ele>472.0</ele><time>2026-03-30T08:06:12Z</time></trkpt><trkpt lat="46.051883347203386" lon="12.49823884234422"><ele>472.00000000000006</ele><time>2026-03-30T08:06:14Z</time></trkpt><trkpt lat="46.051788090252685" lon="12.49828900529263"><ele>472.0</ele><time>2026-03-30T08:06:17Z</time></trkpt><trkpt lat="46.05175308050869" lon="12.498192537747155"><ele>472.0</ele><time>2026-03-30T08:06:18Z</time></trkpt><trkpt lat="46.05173407457984" lon="12.49808480876853"><ele>472.00000000000006</ele><time>2026-03-30T08:06:19Z</time></trkpt><trkpt lat="46.05168881749722" lon="12.497955255644568"><ele>472.00000000000006</ele><time>2026-03-30T08:06:20Z</time></trkpt><trkpt lat="46.05163334375649" lon="12.497810953738918"><ele>472.0</ele><time>2026-03-30T08:06:21Z</time></trkpt><trkpt lat="46.05157300631638" lon="12.497670421027415"><ele>472.0</ele><time>2026-03-30T08:06:22Z</time></trkpt><trkpt lat="46.05151523818202" lon="12.497539822071015"><ele>466.20000000000005</ele><time>2026-03-30T08:06:23Z</time></trkpt><trkpt lat="46.051463059932075" lon="12.497415059244329"><ele>460.40000000000003</ele><time>2026-03-30T08:06:24Z</time></trkpt><trkpt lat="46.051415001803974" lon="12.497295107925583"><ele>454.59999999999997</ele><time>2026-03-30T08:06:25Z</time></trkpt><trkpt lat="46.05137609784091" lon="12.497210368507988"><ele>448.79999999999995</ele><time>2026-03-30T08:06:26Z</time></trkpt><trkpt lat="46.05131208067174" lon="12.497126806340374"><ele>443.0</ele><time>2026-03-30T08:06:28Z</time></trkpt><trkpt lat="46.05127900147577" lon="12.497287624245343"><ele>442.99999999999994</ele><time>2026-03-30T08:06:31Z</time></trkpt><trkpt lat="46.051319301777546" lon="12.497402105494258"><ele>443.0</ele><time>2026-03-30T08:06:32Z</time></trkpt><trkpt lat="46.05135610684891" lon="12.497523943653627"><ele>443.0</ele><time>2026-03-30T08:06:33Z</time></trkpt><trkpt lat="46.051376771602975" lon="12.497640711574736"><ele>443.0</ele><time>2026-03-30T08:06:34Z</time></trkpt><trkpt lat="46.05138828477435" lon="12.497743410874634"><ele>442.99999999999994</ele><time>2026-03-30T08:06:35Z</time></trkpt><trkpt lat="46.05140751492622" lon="12.497843105917452"><ele>443.0</ele><time>2026-03-30T08:06:36Z</time></trkpt><trkpt lat="46.05143343765481" lon="12.497947146723094"><ele>446.0</ele><time>2026-03-30T08:06:37Z</time></trkpt><trkpt lat="46.05146210759377" lon="12.498046334270665"><ele>448.99999999999994</ele><time>2026-03-30T08:06:38Z</time></trkpt><trkpt lat="46.051489183653615" lon="12.498129078066757"><ele>451.99999999999994</ele><time>2026-03-30T08:06:39Z</time></trkpt><trkpt lat="46.05154844463962" lon="12.498300460564522"><ele>455.0</ele><time>2026-03-30T08:06:41Z</time></trkpt><trkpt lat="46.051594152372864" lon="12.49841584522211"><ele>458.0</ele><time>2026-03-30T08:06:42Z</time></trkpt><trkpt lat="46.05164540678849" lon="12.498549961905294"><ele>458.0</ele><time>2026-03-30T08:06:43Z</time></trkpt><trkpt lat="46.05169386223545" lon="12.49867683051287"><ele>457.99999999999994</ele><time>2026-03-30T08:06:44Z</time></trkpt><trkpt lat="46.051747386945124" lon="12.498789597115582"><ele>457.99999999999994</ele><time>2026-03-30T08:06:45Z</time></trkpt><trkpt lat="46.05180843769556" lon="12.498905601944243"><ele>458.0</ele><time>2026-03-30T08:06:46Z</time></trkpt><trkpt lat="46.051883225933885" lon="12.499022020025704"><ele>458.0</ele><time>2026-03-30T08:06:47Z</time></trkpt><trkpt lat="46.05198359612057" lon="12.499143058262042"><ele>453.59999999999997</ele><time>2026-03-30T08:06:48Z</time></trkpt><trkpt lat="46.05208413818523" lon="12.499246418282526"><ele>449.19999999999993</ele><time>2026-03-30T08:06:49Z</time></trkpt><trkpt lat="46.05217109834797" lon="12.49934559284081"><ele>444.8</ele><time>2026-03-30T08:06:50Z</time></trkpt><trkpt lat="46.052251240150206" lon="12.49942827073152"><ele>440.4</ele><time>2026-03-30T08:06:51Z</time></trkpt><trkpt lat="46.052324537477304" lon="12.499489145377146"><ele>436.0</ele><time>2026-03-30T08:06:52Z</time></trkpt><trkpt lat="46.05239658829174" lon="12.499527992405971"><ele>435.33333333333337</ele><time>2026-03-30T08:06:53Z</time></trkpt><trkpt lat="46.05244722252296" lon="12.49961467279693"><ele>434.6666666666667</ele><time>2026-03-30T08:06:55Z</time></trkpt><trkpt lat="46.05240589377814" lon="12.499775127053544"><ele>434.0</ele><time>2026-03-30T08:06:57Z</time></trkpt><trkpt lat="46.05234146925079" lon="12.499852502068672"><ele>433.33333333333337</ele><time>2026-03-30T08:06:58Z</time></trkpt><trkpt lat="46.05227022444505" lon="12.499926379993306"><ele>432.6666666666667</ele><time>2026-03-30T08:06:59Z</time></trkpt><trkpt lat="46.05222694283339" lon="12.500004303117866"><ele>432.0</ele><time>2026-03-30T08:07:00Z</time></trkpt><trkpt lat="46.05217311537238" lon="12.500160105751688"><ele>432.0</ele><time>2026-03-30T08:07:02Z</time></trkpt><trkpt lat="46.052110649536786" lon="12.50028668856755"><ele>432.0</ele><time>2026-03-30T08:07:04Z</time></trkpt><trkpt lat="46.05203237748464" lon="12.500375859729607"><ele>432.0</ele><time>2026-03-30T08:07:05.999Z</time></trkpt><trkpt lat="46.05188011841479" lon="12.500393122359517"><ele>432.0</ele><time>2026-03-30T08:07:07.999Z</time></trkpt><trkpt lat="46.05178628940812" lon="12.500413367839036"><ele>431.1666666666667</ele><time>2026-03-30T08:07:08.999Z</time></trkpt><trkpt lat="46.05168878078375" lon="12.500449735936817"><ele>430.33333333333337</ele><time>2026-03-30T08:07:09.999Z</time></trkpt><trkpt lat="46.05162285094498" lon="12.500458826572418"><ele>429.5</ele><time>2026-03-30T08:07:10.999Z</time></trkpt><trkpt lat="46.05155395683147" lon="12.500452710382051"><ele>428.6666666666667</ele><time>2026-03-30T08:07:11.999Z</time></trkpt><trkpt lat="46.05149106515492" lon="12.500407219179452"><ele>427.83333333333337</ele><time>2026-03-30T08:07:12.999Z</time></trkpt><trkpt lat="46.05141186092579" lon="12.500320996305758"><ele>427.0</ele><time>2026-03-30T08:07:13.999Z</time></trkpt><trkpt lat="46.05132933600181" lon="12.500248350254745"><ele>423.6666666666667</ele><time>2026-03-30T08:07:14.999Z</time></trkpt><trkpt lat="46.05124231653391" lon="12.500205075043265"><ele>420.33333333333337</ele><time>2026-03-30T08:07:15.999Z</time></trkpt><trkpt lat="46.05116128662625" lon="12.500183830484401"><ele>417.0</ele><time>2026-03-30T08:07:16.999Z</time></trkpt><trkpt lat="46.05108900073025" lon="12.500179709986629"><ele>413.66666666666663</ele><time>2026-03-30T08:07:17.999Z</time></trkpt><trkpt lat="46.051018517779575" lon="12.500196437939604"><ele>410.3333333333333</ele><time>2026-03-30T08:07:18.999Z</time></trkpt><trkpt lat="46.05095743802139" lon="12.500252512729865"><ele>407.0</ele><time>2026-03-30T08:07:19.999Z</time></trkpt><trkpt lat="46.05089302851074" lon="12.500338964751563"><ele>406.75</ele><time>2026-03-30T08:07:20.999Z</time></trkpt><trkpt lat="46.050818714316584" lon="12.500438497580582"><ele>406.5</ele><time>2026-03-30T08:07:21.999Z</time></trkpt><trkpt lat="46.050710149107374" lon="12.500506483322324"><ele>406.25</ele><time>2026-03-30T08:07:22.999Z</time></trkpt><trkpt lat="46.05059409761517" lon="12.500568593613933"><ele>406.0</ele><time>2026-03-30T08:07:23.999Z</time></trkpt><trkpt lat="46.050492913591754" lon="12.50062517020556"><ele>406.0</ele><time>2026-03-30T08:07:24.999Z</time></trkpt><trkpt lat="46.05038928428411" lon="12.500694165557315"><ele>406.0</ele><time>2026-03-30T08:07:25.999Z</time></trkpt><trkpt lat="46.0502940572778" lon="12.500779842276103"><ele>406.0</ele><time>2026-03-30T08:07:26.999Z</time></trkpt><trkpt lat="46.050213721804354" lon="12.500860889843262"><ele>406.0</ele><time>2026-03-30T08:07:28Z</time></trkpt><trkpt lat="46.05011235516097" lon="12.500946031065064"><ele>406.0</ele><time>2026-03-30T08:07:29Z</time></trkpt><trkpt lat="46.05000944331754" lon="12.501011012832453"><ele>403.5</ele><time>2026-03-30T08:07:30Z</time></trkpt><trkpt lat="46.049888352533046" lon="12.501056495590577"><ele>401.0</ele><time>2026-03-30T08:07:31Z</time></trkpt><trkpt lat="46.0497759769455" lon="12.501115733618759"><ele>398.5</ele><time>2026-03-30T08:07:32Z</time></trkpt><trkpt lat="46.049677478440124" lon="12.501185831461482"><ele>396.0</ele><time>2026-03-30T08:07:33Z</time></trkpt><trkpt lat="46.049585596534094" lon="12.501263220954764"><ele>396.0</ele><time>2026-03-30T08:07:34Z</time></trkpt><trkpt lat="46.049517809314956" lon="12.501312414884483"><ele>396.0</ele><time>2026-03-30T08:07:35Z</time></trkpt><trkpt lat="46.04944574743721" lon="12.501414399002753"><ele>396.0</ele><time>2026-03-30T08:07:37Z</time></trkpt><trkpt lat="46.049494991897596" lon="12.501534502751383"><ele>396.0</ele><time>2026-03-30T08:07:39Z</time></trkpt><trkpt lat="46.0495555166001" lon="12.501610448840093"><ele>396.0</ele><time>2026-03-30T08:07:40Z</time></trkpt><trkpt lat="46.049656304624385" lon="12.501691521135475"><ele>396.0</ele><time>2026-03-30T08:07:41Z</time></trkpt><trkpt lat="46.04977409956861" lon="12.501785504834537"><ele>396.0</ele><time>2026-03-30T08:07:42Z</time></trkpt><trkpt lat="46.04988184761045" lon="12.501902964616459"><ele>396.0</ele><time>2026-03-30T08:07:43Z</time></trkpt><trkpt lat="46.04997208639897" lon="12.502004316354473"><ele>396.0</ele><time>2026-03-30T08:07:44Z</time></trkpt><trkpt lat="46.05003952314913" lon="12.50209342286481"><ele>397.3333333333333</ele><time>2026-03-30T08:07:45Z</time></trkpt><trkpt lat="46.05008594402417" lon="12.502180314100299"><ele>398.66666666666663</ele><time>2026-03-30T08:07:46Z</time></trkpt><trkpt lat="46.050116765189046" lon="12.502275766190797"><ele>400.0</ele><time>2026-03-30T08:07:47Z</time></trkpt><trkpt lat="46.05011887720835" lon="12.50238314771682"><ele>401.3333333333333</ele><time>2026-03-30T08:07:48Z</time></trkpt><trkpt lat="46.0500931559552" lon="12.502494179616038"><ele>402.66666666666663</ele><time>2026-03-30T08:07:49Z</time></trkpt><trkpt lat="46.0500494944304" lon="12.502626246912042"><ele>404.0</ele><time>2026-03-30T08:07:50Z</time></trkpt><trkpt lat="46.05000542384617" lon="12.502779653778498"><ele>403.2</ele><time>2026-03-30T08:07:51Z</time></trkpt><trkpt lat="46.04997816994277" lon="12.502956612629536"><ele>402.4</ele><time>2026-03-30T08:07:52Z</time></trkpt><trkpt lat="46.049969049324666" lon="12.503096489459772"><ele>401.6</ele><time>2026-03-30T08:07:53Z</time></trkpt><trkpt lat="46.049960292773044" lon="12.503230460691999"><ele>400.8</ele><time>2026-03-30T08:07:54Z</time></trkpt><trkpt lat="46.04995301568564" lon="12.503351792226287"><ele>400.0</ele><time>2026-03-30T08:07:55Z</time></trkpt><trkpt lat="46.04994568123747" lon="12.503473666601634"><ele>400.0</ele><time>2026-03-30T08:07:56Z</time></trkpt><trkpt lat="46.04995592973595" lon="12.503606046547883"><ele>400.0</ele><time>2026-03-30T08:07:57Z</time></trkpt><trkpt lat="46.049978291632314" lon="12.503741490469588"><ele>400.0</ele><time>2026-03-30T08:07:58Z</time></trkpt><trkpt lat="46.05000820632312" lon="12.50387707828838"><ele>400.0</ele><time>2026-03-30T08:07:59Z</time></trkpt><trkpt lat="46.05002897969434" lon="12.504000510124694"><ele>400.0</ele><time>2026-03-30T08:08:00Z</time></trkpt><trkpt lat="46.05001982674755" lon="12.504130036988963"><ele>398.4</ele><time>2026-03-30T08:08:01Z</time></trkpt><trkpt lat="46.049986463716145" lon="12.504264567172894"><ele>396.8</ele><time>2026-03-30T08:08:02Z</time></trkpt><trkpt lat="46.049961209394446" lon="12.50439807643497"><ele>395.20000000000005</ele><time>2026-03-30T08:08:03Z</time></trkpt><trkpt lat="46.0499664040458" lon="12.504526560771914"><ele>393.6</ele><time>2026-03-30T08:08:04Z</time></trkpt><trkpt lat="46.049986616479075" lon="12.504668286116901"><ele>392.0</ele><time>2026-03-30T08:08:05Z</time></trkpt><trkpt lat="46.05000158816067" lon="12.504824353748061"><ele>390.6</ele><time>2026-03-30T08:08:06Z</time></trkpt><trkpt lat="46.05000008868709" lon="12.504969576732956"><ele>389.20000000000005</ele><time>2026-03-30T08:08:07Z</time></trkpt><trkpt lat="46.04998620572736" lon="12.505118479577687"><ele>387.8</ele><time>2026-03-30T08:08:08Z</time></trkpt><trkpt lat="46.04996764606254" lon="12.505256517357001"><ele>386.4</ele><time>2026-03-30T08:08:09Z</time></trkpt><trkpt lat="46.04996933527291" lon="12.505391862876554"><ele>385.0</ele><time>2026-03-30T08:08:10Z</time></trkpt><trkpt lat="46.04996458936469" lon="12.505552752382568"><ele>383.6666666666667</ele><time>2026-03-30T08:08:11Z</time></trkpt><trkpt lat="46.04996034031964" lon="12.505686249287958"><ele>382.33333333333337</ele><time>2026-03-30T08:08:12Z</time></trkpt><trkpt lat="46.04996533156136" lon="12.505799208062033"><ele>381.0</ele><time>2026-03-30T08:08:13Z</time></trkpt><trkpt lat="46.049965818322974" lon="12.505946908822752"><ele>379.6666666666667</ele><time>2026-03-30T08:08:14Z</time></trkpt><trkpt lat="46.04998827069986" lon="12.506065306916282"><ele>378.33333333333337</ele><time>2026-03-30T08:08:15Z</time></trkpt><trkpt lat="46.05002071479716" lon="12.506158773663845"><ele>377.0</ele><time>2026-03-30T08:08:16Z</time></trkpt><trkpt lat="46.05008412621624" lon="12.506264391157293"><ele>374.0</ele><time>2026-03-30T08:08:17Z</time></trkpt><trkpt lat="46.05015472544495" lon="12.506407928900169"><ele>371.0</ele><time>2026-03-30T08:08:18Z</time></trkpt><trkpt lat="46.05020362860686" lon="12.506511769276946"><ele>368.0</ele><time>2026-03-30T08:08:19Z</time></trkpt><trkpt lat="46.05022901145673" lon="12.506640174471402"><ele>365.0</ele><time>2026-03-30T08:08:20Z</time></trkpt><trkpt lat="46.05024609154022" lon="12.506766579756714"><ele>362.0</ele><time>2026-03-30T08:08:21Z</time></trkpt><trkpt lat="46.05026171449059" lon="12.506879501168722"><ele>362.0</ele><time>2026-03-30T08:08:22Z</time></trkpt><trkpt lat="46.0502615995348" lon="12.507022574790607"><ele>362.0</ele><time>2026-03-30T08:08:24Z</time></trkpt><trkpt lat="46.05021341315839" lon="12.507100201436524"><ele>362.0</ele><time>2026-03-30T08:08:29Z</time></trkpt><trkpt lat="46.05013005091" lon="12.506988695114833"><ele>362.0</ele><time>2026-03-30T08:08:32Z</time></trkpt><trkpt lat="46.0501067492747" lon="12.506861842340035"><ele>362.0</ele><time>2026-03-30T08:08:33Z</time></trkpt><trkpt lat="46.05008818223626" lon="12.506763670954571"><ele>362.0</ele><time>2026-03-30T08:08:34Z</time></trkpt><trkpt lat="46.049988853407164" lon="12.506650491642144"><ele>358.5</ele><time>2026-03-30T08:08:36Z</time></trkpt><trkpt lat="46.0498971804772" lon="12.506627194576657"><ele>355.0</ele><time>2026-03-30T08:08:37Z</time></trkpt><trkpt lat="46.049799833927665" lon="12.506614901423085"><ele>351.5</ele><time>2026-03-30T08:08:38Z</time></trkpt><trkpt lat="46.049721186457724" lon="12.506590313935565"><ele>348.0</ele><time>2026-03-30T08:08:39Z</time></trkpt><trkpt lat="46.049655725399504" lon="12.506530856775472"><ele>344.5</ele><time>2026-03-30T08:08:40Z</time></trkpt><trkpt lat="46.04959707033571" lon="12.506446464423732"><ele>341.0</ele><time>2026-03-30T08:08:41Z</time></trkpt><trkpt lat="46.049537445077675" lon="12.506340132744644"><ele>341.0</ele><time>2026-03-30T08:08:42Z</time></trkpt><trkpt lat="46.04949893788848" lon="12.506246404981542"><ele>341.0</ele><time>2026-03-30T08:08:43Z</time></trkpt><trkpt lat="46.049474317276605" lon="12.506134733546748"><ele>341.0</ele><time>2026-03-30T08:08:44Z</time></trkpt><trkpt lat="46.04946616721206" lon="12.506006636336458"><ele>341.0</ele><time>2026-03-30T08:08:45Z</time></trkpt><trkpt lat="46.04942308791798" lon="12.505869127233101"><ele>341.0</ele><time>2026-03-30T08:08:47Z</time></trkpt><trkpt lat="46.04934039725469" lon="12.505911527327841"><ele>341.0</ele><time>2026-03-30T08:08:49Z</time></trkpt><trkpt lat="46.049340179938774" lon="12.506077742055394"><ele>341.0</ele><time>2026-03-30T08:08:51Z</time></trkpt><trkpt lat="46.049377910189776" lon="12.506169776238986"><ele>341.0</ele><time>2026-03-30T08:08:52Z</time></trkpt><trkpt lat="46.049417874295436" lon="12.50628327136033"><ele>341.0</ele><time>2026-03-30T08:08:53Z</time></trkpt><trkpt lat="46.049426944552785" lon="12.506404006610017"><ele>341.0</ele><time>2026-03-30T08:08:54Z</time></trkpt><trkpt lat="46.04941496718742" lon="12.506547888615305"><ele>341.0</ele><time>2026-03-30T08:08:55Z</time></trkpt><trkpt lat="46.04939705495664" lon="12.506711216016496"><ele>341.0</ele><time>2026-03-30T08:08:56Z</time></trkpt><trkpt lat="46.049380448510846" lon="12.506852940243334"><ele>341.0</ele><time>2026-03-30T08:08:57Z</time></trkpt><trkpt lat="46.04937633288806" lon="12.506978864540644"><ele>341.0</ele><time>2026-03-30T08:08:58Z</time></trkpt><trkpt lat="46.049394660000104" lon="12.50708295470596"><ele>341.0</ele><time>2026-03-30T08:08:59Z</time></trkpt><trkpt lat="46.04943236288773" lon="12.50720443843274"><ele>341.0</ele><time>2026-03-30T08:09:00Z</time></trkpt><trkpt lat="46.04948454163314" lon="12.507297273381848"><ele>341.0</ele><time>2026-03-30T08:09:01Z</time></trkpt><trkpt lat="46.04955162443517" lon="12.507373122588854"><ele>339.83333333333337</ele><time>2026-03-30T08:09:02Z</time></trkpt><trkpt lat="46.04961413056092" lon="12.507404621550524"><ele>338.6666666666667</ele><time>2026-03-30T08:09:03Z</time></trkpt><trkpt lat="46.049678879274076" lon="12.507458960161332"><ele>337.5</ele><time>2026-03-30T08:09:05Z</time></trkpt><trkpt lat="46.04965192747595" lon="12.507558315327259"><ele>336.3333333333333</ele><time>2026-03-30T08:09:07Z</time></trkpt><trkpt lat="46.049544871178405" lon="12.507521353939342"><ele>335.16666666666663</ele><time>2026-03-30T08:09:09Z</time></trkpt><trkpt lat="46.04945388079246" lon="12.507457796135181"><ele>334.0</ele><time>2026-03-30T08:09:10Z</time></trkpt><trkpt lat="46.04935867608224" lon="12.507401094567912"><ele>334.0</ele><time>2026-03-30T08:09:11Z</time></trkpt><trkpt lat="46.049285625999744" lon="12.50738194683965"><ele>334.0</ele><time>2026-03-30T08:09:12Z</time></trkpt><trkpt lat="46.049213550060685" lon="12.507303718570295"><ele>334.0</ele><time>2026-03-30T08:09:13.999Z</time></trkpt><trkpt lat="46.04918466770548" lon="12.507209574832865"><ele>334.0</ele><time>2026-03-30T08:09:14.999Z</time></trkpt><trkpt lat="46.04916029484002" lon="12.507091532726541"><ele>334.0</ele><time>2026-03-30T08:09:15.999Z</time></trkpt><trkpt lat="46.04914730883173" lon="12.506971246200704"><ele>334.0</ele><time>2026-03-30T08:09:16.999Z</time></trkpt><trkpt lat="46.04912601801442" lon="12.506862630995117"><ele>330.3333333333333</ele><time>2026-03-30T08:09:17.999Z</time></trkpt><trkpt lat="46.049077511998036" lon="12.506758564608054"><ele>326.66666666666663</ele><time>2026-03-30T08:09:18.999Z</time></trkpt><trkpt lat="46.04900661894456" lon="12.506689694439888"><ele>323.0</ele><time>2026-03-30T08:09:19.999Z</time></trkpt><trkpt lat="46.048928393989854" lon="12.506616416764404"><ele>319.3333333333333</ele><time>2026-03-30T08:09:20.999Z</time></trkpt><trkpt lat="46.04887933859454" lon="12.506548709212666"><ele>315.6666666666667</ele><time>2026-03-30T08:09:21.999Z</time></trkpt><trkpt lat="46.04884942919168" lon="12.50646198560727"><ele>312.0</ele><time>2026-03-30T08:09:22.999Z</time></trkpt><trkpt lat="46.04883272203348" lon="12.506258869443911"><ele>312.6666666666667</ele><time>2026-03-30T08:09:24.999Z</time></trkpt><trkpt lat="46.04881508431004" lon="12.506150996644243"><ele>313.3333333333333</ele><time>2026-03-30T08:09:25.999Z</time></trkpt><trkpt lat="46.048767566122265" lon="12.506075670101431"><ele>314.0</ele><time>2026-03-30T08:09:26.999Z</time></trkpt><trkpt lat="46.04869243729651" lon="12.506002833357904"><ele>314.66666666666663</ele><time>2026-03-30T08:09:27.999Z</time></trkpt><trkpt lat="46.04860552773223" lon="12.505914555007557"><ele>315.3333333333333</ele><time>2026-03-30T08:09:28.999Z</time></trkpt><trkpt lat="46.048531845145206" lon="12.505826524935243"><ele>316.0</ele><time>2026-03-30T08:09:29.999Z</time></trkpt><trkpt lat="46.04846231609997" lon="12.505726854454709"><ele>316.0</ele><time>2026-03-30T08:09:30.999Z</time></trkpt><trkpt lat="46.04839956225831" lon="12.505638720159089"><ele>316.0</ele><time>2026-03-30T08:09:31.999Z</time></trkpt><trkpt lat="46.0483472122487" lon="12.50554610296886"><ele>316.0</ele><time>2026-03-30T08:09:32.999Z</time></trkpt><trkpt lat="46.04829521564071" lon="12.505442454135547"><ele>316.0</ele><time>2026-03-30T08:09:34Z</time></trkpt><trkpt lat="46.04825850309515" lon="12.505340514042262"><ele>316.0</ele><time>2026-03-30T08:09:35Z</time></trkpt><trkpt lat="46.04822476896391" lon="12.505251859989126"><ele>316.0</ele><time>2026-03-30T08:09:36Z</time></trkpt><trkpt lat="46.04817957942533" lon="12.505176692646412"><ele>311.2</ele><time>2026-03-30T08:09:38Z</time></trkpt><trkpt lat="46.048163977564165" lon="12.50528897232497"><ele>306.40000000000003</ele><time>2026-03-30T08:09:41Z</time></trkpt><trkpt lat="46.04820576482322" lon="12.505400315975772"><ele>301.6</ele><time>2026-03-30T08:09:42Z</time></trkpt><trkpt lat="46.0482646246639" lon="12.505546554952879"><ele>296.8</ele><time>2026-03-30T08:09:43Z</time></trkpt><trkpt lat="46.04829111521832" lon="12.5056916550048"><ele>292.0</ele><time>2026-03-30T08:09:44Z</time></trkpt><trkpt lat="46.04829004079466" lon="12.50582536982522"><ele>290.0</ele><time>2026-03-30T08:09:45Z</time></trkpt><trkpt lat="46.04829081905778" lon="12.50595150209073"><ele>288.0</ele><time>2026-03-30T08:09:46Z</time></trkpt><trkpt lat="46.04828421994877" lon="12.506087070623597"><ele>286.0</ele><time>2026-03-30T08:09:47Z</time></trkpt><trkpt lat="46.04828647791719" lon="12.506189911514396"><ele>284.0</ele><time>2026-03-30T08:09:48Z</time></trkpt><trkpt lat="46.048309365047885" lon="12.506286198135333"><ele>282.0</ele><time>2026-03-30T08:09:49Z</time></trkpt><trkpt lat="46.04830096498621" lon="12.506427884216897"><ele>280.0</ele><time>2026-03-30T08:09:51Z</time></trkpt><trkpt lat="46.04823970344332" lon="12.50648692463185"><ele>279.4</ele><time>2026-03-30T08:09:52Z</time></trkpt><trkpt lat="46.04816750950846" lon="12.506569931676419"><ele>278.8</ele><time>2026-03-30T08:09:53Z</time></trkpt><trkpt lat="46.04811476823145" lon="12.506681564361203"><ele>278.2</ele><time>2026-03-30T08:09:54Z</time></trkpt><trkpt lat="46.04809105404959" lon="12.506830506882158"><ele>277.6</ele><time>2026-03-30T08:09:55Z</time></trkpt><trkpt lat="46.04807076231447" lon="12.506979611961004"><ele>277.0</ele><time>2026-03-30T08:09:56Z</time></trkpt><trkpt lat="46.04805573807632" lon="12.507119987378204"><ele>276.75</ele><time>2026-03-30T08:09:57Z</time></trkpt><trkpt lat="46.0480461527998" lon="12.507272517284344"><ele>276.5</ele><time>2026-03-30T08:09:58Z</time></trkpt><trkpt lat="46.04802446492257" lon="12.50743209953452"><ele>276.25</ele><time>2026-03-30T08:09:59Z</time></trkpt><trkpt lat="46.04799313264775" lon="12.507608617593768"><ele>276.0</ele><time>2026-03-30T08:10:00Z</time></trkpt><trkpt lat="46.047968751965236" lon="12.507806611344398"><ele>275.75</ele><time>2026-03-30T08:10:01Z</time></trkpt><trkpt lat="46.047954034584876" lon="12.507996204532631"><ele>275.5</ele><time>2026-03-30T08:10:02Z</time></trkpt><trkpt lat="46.04793836274902" lon="12.508179822625145"><ele>275.25</ele><time>2026-03-30T08:10:03Z</time></trkpt><trkpt lat="46.04792237929588" lon="12.508360402782882"><ele>275.0</ele><time>2026-03-30T08:10:04Z</time></trkpt><trkpt lat="46.047907900699975" lon="12.508531621783373"><ele>275.0</ele><time>2026-03-30T08:10:05Z</time></trkpt><trkpt lat="46.04789056645012" lon="12.508707278906916"><ele>275.0</ele><time>2026-03-30T08:10:06Z</time></trkpt><trkpt lat="46.04787262239153" lon="12.508868304981242"><ele>275.0</ele><time>2026-03-30T08:10:07Z</time></trkpt><trkpt lat="46.04785529127163" lon="12.50900995701327"><ele>275.0</ele><time>2026-03-30T08:10:08Z</time></trkpt><trkpt lat="46.04782638951338" lon="12.509135017468779"><ele>275.0</ele><time>2026-03-30T08:10:09Z</time></trkpt><trkpt lat="46.047821194259036" lon="12.509237112408117"><ele>274.83333333333337</ele><time>2026-03-30T08:10:10Z</time></trkpt><trkpt lat="46.04784214140797" lon="12.50937259687132"><ele>274.6666666666667</ele><time>2026-03-30T08:10:12Z</time></trkpt><trkpt lat="46.04792111492198" lon="12.509423241040432"><ele>274.5</ele><time>2026-03-30T08:10:14Z</time></trkpt><trkpt lat="46.04802359696093" lon="12.509371057038464"><ele>274.3333333333333</ele><time>2026-03-30T08:10:16Z</time></trkpt><trkpt lat="46.048087651414946" lon="12.509385795036714"><ele>274.16666666666663</ele><time>2026-03-30T08:10:18Z</time></trkpt><trkpt lat="46.048060906063775" lon="12.50950374045203"><ele>274.0</ele><time>2026-03-30T08:10:20Z</time></trkpt><trkpt lat="46.04795430482095" lon="12.5095488868254"><ele>274.0</ele><time>2026-03-30T08:10:22Z</time></trkpt><trkpt lat="46.047870342582335" lon="12.509523004164349"><ele>274.0</ele><time>2026-03-30T08:10:23Z</time></trkpt><trkpt lat="46.04779956143236" lon="12.509501561925994"><ele>274.0</ele><time>2026-03-30T08:10:24Z</time></trkpt><trkpt lat="46.047731358198256" lon="12.509424568252527"><ele>274.0</ele><time>2026-03-30T08:10:26Z</time></trkpt><trkpt lat="46.04770525707082" lon="12.509341212941251"><ele>274.0</ele><time>2026-03-30T08:10:27Z</time></trkpt><trkpt lat="46.04766272548118" lon="12.509244203160836"><ele>274.0</ele><time>2026-03-30T08:10:28Z</time></trkpt><trkpt lat="46.04763767379355" lon="12.509147014782034"><ele>274.0</ele><time>2026-03-30T08:10:29Z</time></trkpt><trkpt lat="46.04762082274408" lon="12.509032439200798"><ele>274.0</ele><time>2026-03-30T08:10:30Z</time></trkpt><trkpt lat="46.04760904045513" lon="12.508880082714892"><ele>274.0</ele><time>2026-03-30T08:10:31Z</time></trkpt><trkpt lat="46.04758991900584" lon="12.508718610853572"><ele>274.0</ele><time>2026-03-30T08:10:32Z</time></trkpt><trkpt lat="46.047554805462" lon="12.50854291356168"><ele>274.0</ele><time>2026-03-30T08:10:33Z</time></trkpt><trkpt lat="46.04752684359859" lon="12.50839926836862"><ele>274.2</ele><time>2026-03-30T08:10:34Z</time></trkpt><trkpt lat="46.04749628943069" lon="12.50826219185762"><ele>274.4</ele><time>2026-03-30T08:10:35Z</time></trkpt><trkpt lat="46.04746421013113" lon="12.508145879916194"><ele>274.6</ele><time>2026-03-30T08:10:36Z</time></trkpt><trkpt lat="46.047433805244246" lon="12.508013987059444"><ele>274.8</ele><time>2026-03-30T08:10:37Z</time></trkpt><trkpt lat="46.04742354918854" lon="12.507888959363017"><ele>275.0</ele><time>2026-03-30T08:10:38Z</time></trkpt><trkpt lat="46.04742534513308" lon="12.507768924227474"><ele>268.5</ele><time>2026-03-30T08:10:39Z</time></trkpt><trkpt lat="46.0474408709331" lon="12.50766202819538"><ele>262.0</ele><time>2026-03-30T08:10:40Z</time></trkpt><trkpt lat="46.04744352570177" lon="12.507520917893762"><ele>255.5</ele><time>2026-03-30T08:10:42Z</time></trkpt><trkpt lat="46.047365436236454" lon="12.507524576113157"><ele>249.0</ele><time>2026-03-30T08:10:44Z</time></trkpt><trkpt lat="46.047352064400776" lon="12.507618523005547"><ele>242.50000000000003</ele><time>2026-03-30T08:10:46Z</time></trkpt><trkpt lat="46.04734992605527" lon="12.507722457703613"><ele>236.0</ele><time>2026-03-30T08:10:47Z</time></trkpt><trkpt lat="46.04735152572607" lon="12.507887218949062"><ele>237.0</ele><time>2026-03-30T08:10:48Z</time></trkpt><trkpt lat="46.04733130442884" lon="12.508056192940579"><ele>238.00000000000003</ele><time>2026-03-30T08:10:49Z</time></trkpt><trkpt lat="46.047305876934416" lon="12.508215797636005"><ele>239.00000000000003</ele><time>2026-03-30T08:10:50Z</time></trkpt><trkpt lat="46.047283345216044" lon="12.50837740633766"><ele>240.0</ele><time>2026-03-30T08:10:51Z</time></trkpt><trkpt lat="46.04726995026752" lon="12.508518346874963"><ele>241.0</ele><time>2026-03-30T08:10:52Z</time></trkpt><trkpt lat="46.04725487374347" lon="12.508651303337777"><ele>241.8</ele><time>2026-03-30T08:10:53Z</time></trkpt><trkpt lat="46.04723031037747" lon="12.508786548459362"><ele>242.60000000000002</ele><time>2026-03-30T08:10:54Z</time></trkpt><trkpt lat="46.047193295252455" lon="12.508915540795709"><ele>243.4</ele><time>2026-03-30T08:10:55Z</time></trkpt><trkpt lat="46.047160997030474" lon="12.50905262180183"><ele>244.2</ele><time>2026-03-30T08:10:56Z</time></trkpt><trkpt lat="46.04712500219805" lon="12.509171147053717"><ele>245.0</ele><time>2026-03-30T08:10:57Z</time></trkpt><trkpt lat="46.047089275623684" lon="12.509290397265595"><ele>245.00000000000003</ele><time>2026-03-30T08:10:58Z</time></trkpt><trkpt lat="46.047050837519215" lon="12.509395944734784"><ele>245.0</ele><time>2026-03-30T08:10:59Z</time></trkpt><trkpt lat="46.04700685968779" lon="12.509506784591453"><ele>245.0</ele><time>2026-03-30T08:11:00Z</time></trkpt><trkpt lat="46.046954600657905" lon="12.509596437364479"><ele>245.0</ele><time>2026-03-30T08:11:01Z</time></trkpt><trkpt lat="46.04688018866546" lon="12.509675627583414"><ele>245.00000000000003</ele><time>2026-03-30T08:11:02Z</time></trkpt><trkpt lat="46.04678825357405" lon="12.509713756233898"><ele>245.0</ele><time>2026-03-30T08:11:03Z</time></trkpt><trkpt lat="46.046688004586215" lon="12.509737538464037"><ele>241.0</ele><time>2026-03-30T08:11:03.999Z</time></trkpt><trkpt lat="46.046592280364074" lon="12.509746077343332"><ele>237.0</ele><time>2026-03-30T08:11:04.999Z</time></trkpt><trkpt lat="46.0465087290813" lon="12.509749702588364"><ele>233.0</ele><time>2026-03-30T08:11:05.999Z</time></trkpt><trkpt lat="46.046434869331186" lon="12.50975616376297"><ele>229.0</ele><time>2026-03-30T08:11:06.999Z</time></trkpt><trkpt lat="46.04636242893494" lon="12.509771950905423"><ele>225.0</ele><time>2026-03-30T08:11:07.999Z</time></trkpt><trkpt lat="46.04625723324664" lon="12.509869335436083"><ele>225.0</ele><time>2026-03-30T08:11:09.999Z</time></trkpt><trkpt lat="46.04618962338315" lon="12.51002560303037"><ele>225.0</ele><time>2026-03-30T08:11:11.999Z</time></trkpt><trkpt lat="46.04616002188961" lon="12.51012166918461"><ele>225.0</ele><time>2026-03-30T08:11:12.999Z</time></trkpt><trkpt lat="46.046151246791055" lon="12.510228266414298"><ele>225.0</ele><time>2026-03-30T08:11:13.999Z</time></trkpt><trkpt lat="46.046145131877196" lon="12.510356340059312"><ele>225.0</ele><time>2026-03-30T08:11:14.999Z</time></trkpt><trkpt lat="46.046146123247006" lon="12.510501112969795"><ele>225.16666666666666</ele><time>2026-03-30T08:11:15.999Z</time></trkpt><trkpt lat="46.04614785671303" lon="12.510657746115493"><ele>225.33333333333331</ele><time>2026-03-30T08:11:16.999Z</time></trkpt><trkpt lat="46.04614943752831" lon="12.51079578751534"><ele>225.5</ele><time>2026-03-30T08:11:17.999Z</time></trkpt><trkpt lat="46.046159964901506" lon="12.510922632634243"><ele>225.66666666666666</ele><time>2026-03-30T08:11:18.999Z</time></trkpt><trkpt lat="46.04618109639145" lon="12.511029891848398"><ele>225.83333333333331</ele><time>2026-03-30T08:11:19.999Z</time></trkpt><trkpt lat="46.04621746818415" lon="12.511126419257288"><ele>226.0</ele><time>2026-03-30T08:11:20.999Z</time></trkpt><trkpt lat="46.04624782020148" lon="12.51124908486241"><ele>226.0</ele><time>2026-03-30T08:11:22.999Z</time></trkpt><trkpt lat="46.04617539061606" lon="12.5113200506368"><ele>226.00000000000003</ele><time>2026-03-30T08:11:24.999Z</time></trkpt><trkpt lat="46.046097679613744" lon="12.511253246968135"><ele>226.00000000000003</ele><time>2026-03-30T08:11:26.999Z</time></trkpt><trkpt lat="46.04606804717043" lon="12.511102921214091"><ele>226.0</ele><time>2026-03-30T08:11:28.999Z</time></trkpt><trkpt lat="46.046063211534985" lon="12.510959871262848"><ele>226.0</ele><time>2026-03-30T08:11:29.999Z</time></trkpt><trkpt lat="46.046035501468616" lon="12.510830810396845"><ele>226.0</ele><time>2026-03-30T08:11:30.999Z</time></trkpt><trkpt lat="46.0459682344898" lon="12.51068370432241"><ele>226.00000000000003</ele><time>2026-03-30T08:11:31.999Z</time></trkpt><trkpt lat="46.04590387480238" lon="12.51054454791979"><ele>226.00000000000003</ele><time>2026-03-30T08:11:32.999Z</time></trkpt><trkpt lat="46.04586522130399" lon="12.51042157957716"><ele>226.0</ele><time>2026-03-30T08:11:33.999Z</time></trkpt><trkpt lat="46.04583025047043" lon="12.510303198067794"><ele>226.0</ele><time>2026-03-30T08:11:34.999Z</time></trkpt><trkpt lat="46.04580417548102" lon="12.510182857117979"><ele>222.20000000000002</ele><time>2026-03-30T08:11:35.999Z</time></trkpt><trkpt lat="46.04578915241614" lon="12.51005774418858"><ele>218.40000000000003</ele><time>2026-03-30T08:11:36.999Z</time></trkpt><trkpt lat="46.04577911357471" lon="12.509922492271007"><ele>214.6</ele><time>2026-03-30T08:11:37.999Z</time></trkpt><trkpt lat="46.04576617160129" lon="12.509779627413742"><ele>210.8</ele><time>2026-03-30T08:11:38.999Z</time></trkpt><trkpt lat="46.045751475024645" lon="12.509624157345133"><ele>207.0</ele><time>2026-03-30T08:11:40Z</time></trkpt><trkpt lat="46.045735853684995" lon="12.509472925309748"><ele>206.0</ele><time>2026-03-30T08:11:41Z</time></trkpt><trkpt lat="46.04572443420648" lon="12.509338009829076"><ele>205.0</ele><time>2026-03-30T08:11:42Z</time></trkpt><trkpt lat="46.04570763801675" lon="12.509213229627585"><ele>204.0</ele><time>2026-03-30T08:11:43Z</time></trkpt><trkpt lat="46.0456962242874" lon="12.509100149552912"><ele>203.0</ele><time>2026-03-30T08:11:44Z</time></trkpt><trkpt lat="46.045685530997055" lon="12.508981230849285"><ele>202.0</ele><time>2026-03-30T08:11:45Z</time></trkpt><trkpt lat="46.04568600320526" lon="12.508846221294075"><ele>201.0</ele><time>2026-03-30T08:11:46Z</time></trkpt><trkpt lat="46.04570355013635" lon="12.508686467894057"><ele>199.4</ele><time>2026-03-30T08:11:47Z</time></trkpt><trkpt lat="46.04571492692413" lon="12.508505054098098"><ele>197.8</ele><time>2026-03-30T08:11:48Z</time></trkpt><trkpt lat="46.04571868985609" lon="12.508336798160604"><ele>196.20000000000002</ele><time>2026-03-30T08:11:49Z</time></trkpt><trkpt lat="46.04572041448447" lon="12.508210920993273"><ele>194.60000000000002</ele><time>2026-03-30T08:11:50Z</time></trkpt><trkpt lat="46.04572329231101" lon="12.508103073500909"><ele>193.0</ele><time>2026-03-30T08:11:51Z</time></trkpt><trkpt lat="46.045745658639895" lon="12.508013246206733"><ele>192.99999999999997</ele><time>2026-03-30T08:11:52Z</time></trkpt><trkpt lat="46.04578761891736" lon="12.507936298595368"><ele>193.0</ele><time>2026-03-30T08:11:53Z</time></trkpt><trkpt lat="46.0458442596657" lon="12.50787322720852"><ele>193.0</ele><time>2026-03-30T08:11:54Z</time></trkpt><trkpt lat="46.0459149121442" lon="12.507820445250372"><ele>193.0</ele><time>2026-03-30T08:11:55Z</time></trkpt><trkpt lat="46.04599082643936" lon="12.507782526590978"><ele>192.99999999999997</ele><time>2026-03-30T08:11:56Z</time></trkpt><trkpt lat="46.04609251542915" lon="12.507661073502815"><ele>193.0</ele><time>2026-03-30T08:11:58Z</time></trkpt><trkpt lat="46.04613405670561" lon="12.507538132524875"><ele>192.4</ele><time>2026-03-30T08:11:59Z</time></trkpt><trkpt lat="46.046176724801335" lon="12.507402941274622"><ele>191.8</ele><time>2026-03-30T08:12:00Z</time></trkpt><trkpt lat="46.04621712088406" lon="12.507296700751136"><ele>191.2</ele><time>2026-03-30T08:12:01Z</time></trkpt><trkpt lat="46.04625365656796" lon="12.507181503266057"><ele>190.6</ele><time>2026-03-30T08:12:02Z</time></trkpt><trkpt lat="46.04628735056811" lon="12.507044941944782"><ele>190.0</ele><time>2026-03-30T08:12:03Z</time></trkpt><trkpt lat="46.04630763075451" lon="12.50692530065457"><ele>190.0</ele><time>2026-03-30T08:12:04Z</time></trkpt><trkpt lat="46.046306785054384" lon="12.506802089645845"><ele>190.0</ele><time>2026-03-30T08:12:05Z</time></trkpt><trkpt lat="46.04629907382593" lon="12.506684788308071"><ele>190.0</ele><time>2026-03-30T08:12:06Z</time></trkpt><trkpt lat="46.04627524416904" lon="12.506572658339358"><ele>190.0</ele><time>2026-03-30T08:12:07Z</time></trkpt><trkpt lat="46.04623498757716" lon="12.506456730514097"><ele>190.0</ele><time>2026-03-30T08:12:08Z</time></trkpt><trkpt lat="46.04618334752526" lon="12.506330054471741"><ele>190.0</ele><time>2026-03-30T08:12:09Z</time></trkpt><trkpt lat="46.04613977401232" lon="12.506210483997405"><ele>190.6</ele><time>2026-03-30T08:12:10Z</time></trkpt><trkpt lat="46.04608065288581" lon="12.506075952128562"><ele>191.2</ele><time>2026-03-30T08:12:11Z</time></trkpt><trkpt lat="46.04601409504565" lon="12.505961847960695"><ele>191.8</ele><time>2026-03-30T08:12:12Z</time></trkpt><trkpt lat="46.04595355778178" lon="12.505858933072288"><ele>192.4</ele><time>2026-03-30T08:12:13Z</time></trkpt><trkpt lat="46.04589210781651" lon="12.50576888138144"><ele>193.0</ele><time>2026-03-30T08:12:14Z</time></trkpt><trkpt lat="46.045833623470934" lon="12.505691069819559"><ele>187.49999999999997</ele><time>2026-03-30T08:12:15Z</time></trkpt><trkpt lat="46.045711244615404" lon="12.505647371047353"><ele>182.0</ele><time>2026-03-30T08:12:17Z</time></trkpt><trkpt lat="46.0456271314037" lon="12.505646020642772"><ele>176.5</ele><time>2026-03-30T08:12:18Z</time></trkpt><trkpt lat="46.0455528497278" lon="12.505626364787318"><ele>171.0</ele><time>2026-03-30T08:12:19Z</time></trkpt><trkpt lat="46.04548877194267" lon="12.505578679388877"><ele>165.5</ele><time>2026-03-30T08:12:20Z</time></trkpt><trkpt lat="46.04542660178895" lon="12.505512154195163"><ele>160.0</ele><time>2026-03-30T08:12:21Z</time></trkpt><trkpt lat="46.045375238293566" lon="12.505414075225975"><ele>162.16666666666669</ele><time>2026-03-30T08:12:22Z</time></trkpt><trkpt lat="46.04533084307265" lon="12.505311846272324"><ele>164.33333333333334</ele><time>2026-03-30T08:12:23Z</time></trkpt><trkpt lat="46.045290099303216" lon="12.505214899435627"><ele>166.5</ele><time>2026-03-30T08:12:24Z</time></trkpt><trkpt lat="46.04524725267724" lon="12.50511728220682"><ele>168.66666666666666</ele><time>2026-03-30T08:12:25Z</time></trkpt><trkpt lat="46.04520453304696" lon="12.505018417003674"><ele>170.83333333333331</ele><time>2026-03-30T08:12:26Z</time></trkpt><trkpt lat="46.04515975277207" lon="12.504922706914538"><ele>173.0</ele><time>2026-03-30T08:12:27Z</time></trkpt><trkpt lat="46.04511047879477" lon="12.504821531580015"><ele>173.0</ele><time>2026-03-30T08:12:28Z</time></trkpt><trkpt lat="46.045073460100404" lon="12.504702003427166"><ele>173.0</ele><time>2026-03-30T08:12:29Z</time></trkpt><trkpt lat="46.04503253088032" lon="12.504568979324912"><ele>173.0</ele><time>2026-03-30T08:12:30Z</time></trkpt><trkpt lat="46.044999289084664" lon="12.504436141578475"><ele>173.0</ele><time>2026-03-30T08:12:31Z</time></trkpt><trkpt lat="46.04496764725669" lon="12.504310120213331"><ele>173.0</ele><time>2026-03-30T08:12:32Z</time></trkpt><trkpt lat="46.04494361105463" lon="12.50416836863779"><ele>167.0</ele><time>2026-03-30T08:12:33Z</time></trkpt><trkpt lat="46.04490728379248" lon="12.504017244716042"><ele>161.0</ele><time>2026-03-30T08:12:34Z</time></trkpt><trkpt lat="46.044860650020375" lon="12.503872407550608"><ele>155.0</ele><time>2026-03-30T08:12:35Z</time></trkpt><trkpt lat="46.04479233333795" lon="12.503735742445558"><ele>149.0</ele><time>2026-03-30T08:12:36Z</time></trkpt><trkpt lat="46.04473331938933" lon="12.503600733389957"><ele>143.0</ele><time>2026-03-30T08:12:37Z</time></trkpt><trkpt lat="46.04469069260961" lon="12.503447400376434"><ele>143.0</ele><time>2026-03-30T08:12:38Z</time></trkpt><trkpt lat="46.04464423176583" lon="12.503282687681798"><ele>143.0</ele><time>2026-03-30T08:12:39Z</time></trkpt><trkpt lat="46.0446102094743" lon="12.503130950062594"><ele>143.0</ele><time>2026-03-30T08:12:40Z</time></trkpt><trkpt lat="46.04457112237203" lon="12.502982763886957"><ele>143.0</ele><time>2026-03-30T08:12:41Z</time></trkpt><trkpt lat="46.04453132396925" lon="12.502831928549677"><ele>143.20000000000002</ele><time>2026-03-30T08:12:42Z</time></trkpt><trkpt lat="46.04449147487372" lon="12.502687989995687"><ele>143.4</ele><time>2026-03-30T08:12:43Z</time></trkpt><trkpt lat="46.04445561039958" lon="12.50255794375726"><ele>143.60000000000002</ele><time>2026-03-30T08:12:44Z</time></trkpt><trkpt lat="46.044421074326834" lon="12.502413538520651"><ele>143.8</ele><time>2026-03-30T08:12:45Z</time></trkpt><trkpt lat="46.04439803389343" lon="12.502277090081696"><ele>144.0</ele><time>2026-03-30T08:12:46Z</time></trkpt><trkpt lat="46.04438535042596" lon="12.502134642012749"><ele>144.0</ele><time>2026-03-30T08:12:47Z</time></trkpt><trkpt lat="46.04437971004308" lon="12.501986894668999"><ele>144.0</ele><time>2026-03-30T08:12:48Z</time></trkpt><trkpt lat="46.044377496329986" lon="12.501839857249696"><ele>144.0</ele><time>2026-03-30T08:12:49Z</time></trkpt><trkpt lat="46.044383764335194" lon="12.501673928479649"><ele>144.0</ele><time>2026-03-30T08:12:50Z</time></trkpt><trkpt lat="46.0443924300655" lon="12.501512009366566"><ele>144.0</ele><time>2026-03-30T08:12:51Z</time></trkpt><trkpt lat="46.0443978537523" lon="12.501349823254555"><ele>143.0</ele><time>2026-03-30T08:12:52Z</time></trkpt><trkpt lat="46.04440628296294" lon="12.501186369187277"><ele>142.0</ele><time>2026-03-30T08:12:53Z</time></trkpt><trkpt lat="46.04441728231" lon="12.501024812608248"><ele>141.0</ele><time>2026-03-30T08:12:54Z</time></trkpt><trkpt lat="46.04443094804122" lon="12.500857911042146"><ele>140.0</ele><time>2026-03-30T08:12:55Z</time></trkpt><trkpt lat="46.04444005470229" lon="12.500703503711991"><ele>140.0</ele><time>2026-03-30T08:12:56Z</time></trkpt><trkpt lat="46.044454740500655" lon="12.500550520341173"><ele>140.0</ele><time>2026-03-30T08:12:57Z</time></trkpt><trkpt lat="46.04447016880421" lon="12.50040597030805"><ele>140.0</ele><time>2026-03-30T08:12:58Z</time></trkpt><trkpt lat="46.04448165032399" lon="12.500286924526257"><ele>140.0</ele><time>2026-03-30T08:12:59Z</time></trkpt><trkpt lat="46.04444789848664" lon="12.500142650080399"><ele>140.0</ele><time>2026-03-30T08:13:00.999Z</time></trkpt><trkpt lat="46.04433376528062" lon="12.500145363240753"><ele>140.0</ele><time>2026-03-30T08:13:02.999Z</time></trkpt><trkpt lat="46.044296325903055" lon="12.500303425755838"><ele>140.0</ele><time>2026-03-30T08:13:04.999Z</time></trkpt><trkpt lat="46.04430276461664" lon="12.500425754549358"><ele>140.0</ele><time>2026-03-30T08:13:05.999Z</time></trkpt><trkpt lat="46.04432527466853" lon="12.500557901200644"><ele>140.0</ele><time>2026-03-30T08:13:06.999Z</time></trkpt><trkpt lat="46.04431831790718" lon="12.500680193196946"><ele>140.0</ele><time>2026-03-30T08:13:07.999Z</time></trkpt><trkpt lat="46.044280453908506" lon="12.500802041543237"><ele>140.0</ele><time>2026-03-30T08:13:08.999Z</time></trkpt><trkpt lat="46.04424167174027" lon="12.50092342379299"><ele>140.0</ele><time>2026-03-30T08:13:09.999Z</time></trkpt><trkpt lat="46.04420454344913" lon="12.501067567668214"><ele>140.0</ele><time>2026-03-30T08:13:10.999Z</time></trkpt><trkpt lat="46.04418435083451" lon="12.501194533409016"><ele>140.0</ele><time>2026-03-30T08:13:11.999Z</time></trkpt><trkpt lat="46.04416561212892" lon="12.501300882932522"><ele>140.0</ele><time>2026-03-30T08:13:12.999Z</time></trkpt><trkpt lat="46.0441116114546" lon="12.501469050234466"><ele>134.2</ele><time>2026-03-30T08:13:14.999Z</time></trkpt><trkpt lat="46.044087724002075" lon="12.50155742869416"><ele>128.4</ele><time>2026-03-30T08:13:15.999Z</time></trkpt><trkpt lat="46.04406261988584" lon="12.501665529533064"><ele>122.6</ele><time>2026-03-30T08:13:16.999Z</time></trkpt><trkpt lat="46.044023924055786" lon="12.501823941201435"><ele>116.8</ele><time>2026-03-30T08:13:17.999Z</time></trkpt><trkpt lat="46.043985066339395" lon="12.501996266073109"><ele>111.0</ele><time>2026-03-30T08:13:18.999Z</time></trkpt><trkpt lat="46.043953746896015" lon="12.502141770787516"><ele>110.83333333333333</ele><time>2026-03-30T08:13:19.999Z</time></trkpt><trkpt lat="46.043928878531005" lon="12.502271130188724"><ele>110.66666666666666</ele><time>2026-03-30T08:13:20.999Z</time></trkpt><trkpt lat="46.04389868537951" lon="12.502403269172166"><ele>110.5</ele><time>2026-03-30T08:13:21.999Z</time></trkpt><trkpt lat="46.04386423221466" lon="12.502517854221233"><ele>110.33333333333333</ele><time>2026-03-30T08:13:22.999Z</time></trkpt><trkpt lat="46.04383502146321" lon="12.502640686477152"><ele>110.16666666666666</ele><time>2026-03-30T08:13:23.999Z</time></trkpt><trkpt lat="46.04382213094125" lon="12.502747023636891"><ele>110.0</ele><time>2026-03-30T08:13:24.999Z</time></trkpt><trkpt lat="46.043802935854984" lon="12.502867507376699"><ele>109.99999999999999</ele><time>2026-03-30T08:13:25.999Z</time></trkpt><trkpt lat="46.04379025949855" lon="12.502982391168837"><ele>110.0</ele><time>2026-03-30T08:13:26.999Z</time></trkpt><trkpt lat="46.0437683274857" lon="12.503119720778205"><ele>110.0</ele><time>2026-03-30T08:13:27.999Z</time></trkpt><trkpt lat="46.0437490441566" lon="12.503251807387887"><ele>110.0</ele><time>2026-03-30T08:13:28.999Z</time></trkpt><trkpt lat="46.043742696952584" lon="12.503376329505844"><ele>109.99999999999999</ele><time>2026-03-30T08:13:29.999Z</time></trkpt><trkpt lat="46.043748346041866" lon="12.50350249062811"><ele>110.0</ele><time>2026-03-30T08:13:30.999Z</time></trkpt><trkpt lat="46.043763898556605" lon="12.503626215165827"><ele>109.99999999999999</ele><time>2026-03-30T08:13:31.999Z</time></trkpt><trkpt lat="46.04378294338008" lon="12.503737619774238"><ele>110.0</ele><time>2026-03-30T08:13:32.999Z</time></trkpt><trkpt lat="46.04380593077789" lon="12.503877149240335"><ele>110.0</ele><time>2026-03-30T08:13:34.999Z</time></trkpt><trkpt lat="46.04372587261274" lon="12.503908757800364"><ele>110.0</ele><time>2026-03-30T08:13:36.999Z</time></trkpt><trkpt lat="46.04368392866382" lon="12.503807653105149"><ele>109.99999999999999</ele><time>2026-03-30T08:13:38.999Z</time></trkpt><trkpt lat="46.043676782717235" lon="12.50371482898689"><ele>110.0</ele><time>2026-03-30T08:13:39.999Z</time></trkpt><trkpt lat="46.04367050161231" lon="12.503588142664691"><ele>110.0</ele><time>2026-03-30T08:13:40.999Z</time></trkpt><trkpt lat="46.043649331130744" lon="12.503470177766095"><ele>110.0</ele><time>2026-03-30T08:13:41.999Z</time></trkpt><trkpt lat="46.04359440262407" lon="12.503324529679032"><ele>110.0</ele><time>2026-03-30T08:13:42.999Z</time></trkpt><trkpt lat="46.043524990638595" lon="12.50316896848847"><ele>110.0</ele><time>2026-03-30T08:13:43.999Z</time></trkpt><trkpt lat="46.043473717157184" lon="12.50303161654608"><ele>110.0</ele><time>2026-03-30T08:13:44.999Z</time></trkpt><trkpt lat="46.04343245564989" lon="12.502913259674266"><ele>110.0</ele><time>2026-03-30T08:13:46Z</time></trkpt><trkpt lat="46.0433921288359" lon="12.502797859950869"><ele>110.0</ele><time>2026-03-30T08:13:47Z</time></trkpt><trkpt lat="46.04334753579809" lon="12.502658027322939"><ele>110.0</ele><time>2026-03-30T08:13:48Z</time></trkpt><trkpt lat="46.043318395746724" lon="12.502505816066938"><ele>110.0</ele><time>2026-03-30T08:13:49Z</time></trkpt><trkpt lat="46.043294057860685" lon="12.502343750539206"><ele>110.0</ele><time>2026-03-30T08:13:50Z</time></trkpt><trkpt lat="46.04327408854284" lon="12.502211450233885"><ele>106.6</ele><time>2026-03-30T08:13:51Z</time></trkpt><trkpt lat="46.04325423927801" lon="12.502086581365914"><ele>103.2</ele><time>2026-03-30T08:13:52Z</time></trkpt><trkpt lat="46.043221456380174" lon="12.50199745647252"><ele>99.80000000000001</ele><time>2026-03-30T08:13:53Z</time></trkpt><trkpt lat="46.0431398372931" lon="12.501903855176394"><ele>96.4</ele><time>2026-03-30T08:13:55Z</time></trkpt><trkpt lat="46.04303965252164" lon="12.501923748635184"><ele>93.0</ele><time>2026-03-30T08:13:57Z</time></trkpt><trkpt lat="46.042926944403646" lon="12.501970674550618"><ele>93.0</ele><time>2026-03-30T08:13:59Z</time></trkpt><trkpt lat="46.04284964936645" lon="12.501980563639792"><ele>93.0</ele><time>2026-03-30T08:14:00Z</time></trkpt><trkpt lat="46.04277512354284" lon="12.501990059947898"><ele>93.0</ele><time>2026-03-30T08:14:01Z</time></trkpt><trkpt lat="46.042711139479984" lon="12.50200358016538"><ele>93.0</ele><time>2026-03-30T08:14:02Z</time></trkpt><trkpt lat="46.042648829152135" lon="12.502025114379881"><ele>93.0</ele><time>2026-03-30T08:14:03Z</time></trkpt><trkpt lat="46.04254098477056" lon="12.502098277562702"><ele>93.0</ele><time>2026-03-30T08:14:05Z</time></trkpt><trkpt lat="46.0424734668783" lon="12.502160595497346"><ele>91.5</ele><time>2026-03-30T08:14:06Z</time></trkpt><trkpt lat="46.04240618806885" lon="12.502236866861505"><ele>90.0</ele><time>2026-03-30T08:14:07Z</time></trkpt><trkpt lat="46.04233330871392" lon="12.5023193444397"><ele>88.5</ele><time>2026-03-30T08:14:08Z</time></trkpt><trkpt lat="46.04226419800913" lon="12.502415726501514"><ele>87.0</ele><time>2026-03-30T08:14:09Z</time></trkpt><trkpt lat="46.04220508510381" lon="12.502506461698646"><ele>85.5</ele><time>2026-03-30T08:14:10Z</time></trkpt><trkpt lat="46.04214835497797" lon="12.502593252047197"><ele>84.0</ele><time>2026-03-30T08:14:11Z</time></trkpt><trkpt lat="46.042086276022495" lon="12.502667990065413"><ele>84.0</ele><time>2026-03-30T08:14:12Z</time></trkpt><trkpt lat="46.04200868422397" lon="12.502729186293973"><ele>84.0</ele><time>2026-03-30T08:14:13Z</time></trkpt><trkpt lat="46.04192504954472" lon="12.50278386814073"><ele>84.0</ele><time>2026-03-30T08:14:14Z</time></trkpt><trkpt lat="46.041852657506894" lon="12.502849040148579"><ele>84.0</ele><time>2026-03-30T08:14:15Z</time></trkpt><trkpt lat="46.04179167484613" lon="12.502984621100591"><ele>84.0</ele><time>2026-03-30T08:14:17Z</time></trkpt><trkpt lat="46.04180874313811" lon="12.503157910573211"><ele>83.4</ele><time>2026-03-30T08:14:19Z</time></trkpt><trkpt lat="46.04184020994811" lon="12.503239123484997"><ele>82.80000000000001</ele><time>2026-03-30T08:14:20Z</time></trkpt><trkpt lat="46.04187278777843" lon="12.503369592318489"><ele>82.19999999999999</ele><time>2026-03-30T08:14:22Z</time></trkpt><trkpt lat="46.04180881920314" lon="12.503485343879396"><ele>81.6</ele><time>2026-03-30T08:14:24Z</time></trkpt><trkpt lat="46.04171087122544" lon="12.50354257189037"><ele>81.0</ele><time>2026-03-30T08:14:26Z</time></trkpt><trkpt lat="46.04160860947221" lon="12.503578718838455"><ele>80.39999999999999</ele><time>2026-03-30T08:14:28Z</time></trkpt><trkpt lat="46.041502591372456" lon="12.503593251545347"><ele>79.8</ele><time>2026-03-30T08:14:30Z</time></trkpt><trkpt lat="46.04139641095813" lon="12.50364862361567"><ele>79.19999999999999</ele><time>2026-03-30T08:14:32Z</time></trkpt><trkpt lat="46.041296365834796" lon="12.503709709047737"><ele>78.6</ele><time>2026-03-30T08:14:34Z</time></trkpt><trkpt lat="46.041222004056294" lon="12.503703153004523"><ele>78.0</ele><time>2026-03-30T08:14:36Z</time></trkpt><trkpt lat="46.041173071343685" lon="12.503872149005314"><ele>78.0</ele><time>2026-03-30T08:14:46Z</time></trkpt><trkpt lat="46.04117188882718" lon="12.503983507609044"><ele>78.0</ele><time>2026-03-30T08:14:47Z</time></trkpt><trkpt lat="46.0411646916183" lon="12.50410818247526"><ele>78.0</ele><time>2026-03-30T08:14:48Z</time></trkpt><trkpt lat="46.04114344045845" lon="12.504228824498274"><ele>78.0</ele><time>2026-03-30T08:14:49Z</time></trkpt><trkpt lat="46.04110935164154" lon="12.504364219371862"><ele>78.0</ele><time>2026-03-30T08:14:50Z</time></trkpt><trkpt lat="46.04106794344405" lon="12.50447049008658"><ele>78.0</ele><time>2026-03-30T08:14:51Z</time></trkpt><trkpt lat="46.041025558264124" lon="12.504563932259149"><ele>77.83333333333333</ele><time>2026-03-30T08:14:52Z</time></trkpt><trkpt lat="46.04097906774027" lon="12.50465563583612"><ele>77.66666666666667</ele><time>2026-03-30T08:14:53Z</time></trkpt><trkpt lat="46.040928198517676" lon="12.504749322057526"><ele>77.5</ele><time>2026-03-30T08:14:54Z</time></trkpt><trkpt lat="46.04087138158154" lon="12.504844894938774"><ele>77.33333333333334</ele><time>2026-03-30T08:14:55Z</time></trkpt><trkpt lat="46.04080330142521" lon="12.504922193894494"><ele>77.16666666666667</ele><time>2026-03-30T08:14:56Z</time></trkpt><trkpt lat="46.040732073734866" lon="12.504983476553152"><ele>77.0</ele><time>2026-03-30T08:14:57Z</time></trkpt><trkpt lat="46.04065733352205" lon="12.505036894080682"><ele>76.33333333333334</ele><time>2026-03-30T08:14:58Z</time></trkpt><trkpt lat="46.04056952649303" lon="12.505084890486769"><ele>75.66666666666667</ele><time>2026-03-30T08:14:59Z</time></trkpt><trkpt lat="46.040468442309226" lon="12.50512965576624"><ele>75.0</ele><time>2026-03-30T08:15:00Z</time></trkpt><trkpt lat="46.040373647967535" lon="12.50516976228498"><ele>74.33333333333333</ele><time>2026-03-30T08:15:01Z</time></trkpt><trkpt lat="46.040298210765634" lon="12.505200268735901"><ele>73.66666666666666</ele><time>2026-03-30T08:15:02Z</time></trkpt><trkpt lat="46.04022880738929" lon="12.505209155193375"><ele>73.0</ele><time>2026-03-30T08:15:03Z</time></trkpt><trkpt lat="46.04014050682642" lon="12.505227228153624"><ele>73.0</ele><time>2026-03-30T08:15:05Z</time></trkpt><trkpt lat="46.040072343458284" lon="12.505249677397218"><ele>73.0</ele><time>2026-03-30T08:21:09Z</time></trkpt><trkpt lat="46.03994916128497" lon="12.505250419727556"><ele>73.0</ele><time>2026-03-30T08:21:11Z</time></trkpt><trkpt lat="46.03988263747675" lon="12.505254290169912"><ele>73.0</ele><time>2026-03-30T08:21:12Z</time></trkpt><trkpt lat="46.03978930239106" lon="12.505265256020648"><ele>73.0</ele><time>2026-03-30T08:21:13.999Z</time></trkpt><trkpt lat="46.03966839584415" lon="12.505333990363702"><ele>73.4</ele><time>2026-03-30T08:21:15.999Z</time></trkpt><trkpt lat="46.03957040591096" lon="12.505413203729393"><ele>73.8</ele><time>2026-03-30T08:21:16.999Z</time></trkpt><trkpt lat="46.039483446597814" lon="12.50548597743222"><ele>74.2</ele><time>2026-03-30T08:21:17.999Z</time></trkpt><trkpt lat="46.039404345983485" lon="12.505554968965782"><ele>74.6</ele><time>2026-03-30T08:21:18.999Z</time></trkpt><trkpt lat="46.03931984409029" lon="12.505628669429301"><ele>75.0</ele><time>2026-03-30T08:21:19.999Z</time></trkpt><trkpt lat="46.039234788609384" lon="12.505699608339278"><ele>75.0</ele><time>2026-03-30T08:21:20.999Z</time></trkpt><trkpt lat="46.03914646935932" lon="12.50577037105199"><ele>75.0</ele><time>2026-03-30T08:21:21.999Z</time></trkpt><trkpt lat="46.03906941745407" lon="12.505845140068091"><ele>75.0</ele><time>2026-03-30T08:21:22.999Z</time></trkpt><trkpt lat="46.03899449575211" lon="12.50588330818606"><ele>75.0</ele><time>2026-03-30T08:21:23.999Z</time></trkpt><trkpt lat="46.03891802296816" lon="12.505937899534711"><ele>75.0</ele><time>2026-03-30T08:21:24.999Z</time></trkpt><trkpt lat="46.03884299494182" lon="12.505991459592579"><ele>75.0</ele><time>2026-03-30T08:21:25.999Z</time></trkpt><trkpt lat="46.03877960853409" lon="12.506035561396443"><ele>74.99999999999999</ele><time>2026-03-30T08:21:26.999Z</time></trkpt><trkpt lat="46.038720059246266" lon="12.50607387418278"><ele>75.0</ele><time>2026-03-30T08:21:27.999Z</time></trkpt><trkpt lat="46.03865494299536" lon="12.506114045250616"><ele>75.0</ele><time>2026-03-30T08:21:28.999Z</time></trkpt><trkpt lat="46.038588727948024" lon="12.506141894865971"><ele>75.0</ele><time>2026-03-30T08:21:29.999Z</time></trkpt><trkpt lat="46.03851890333938" lon="12.506148681723221"><ele>75.0</ele><time>2026-03-30T08:21:30.999Z</time></trkpt><trkpt lat="46.03843909404249" lon="12.506164633679404"><ele>74.99999999999999</ele><time>2026-03-30T08:21:31.999Z</time></trkpt><trkpt lat="46.03835659371261" lon="12.506184014044619"><ele>75.0</ele><time>2026-03-30T08:21:32.999Z</time></trkpt><trkpt lat="46.03827345208065" lon="12.506204286364602"><ele>73.8</ele><time>2026-03-30T08:21:33.999Z</time></trkpt><trkpt lat="46.03818679405994" lon="12.506225415884192"><ele>72.6</ele><time>2026-03-30T08:21:34.999Z</time></trkpt><trkpt lat="46.038099902532416" lon="12.506242020350346"><ele>71.4</ele><time>2026-03-30T08:21:35.999Z</time></trkpt><trkpt lat="46.038007117690675" lon="12.506252739919216"><ele>70.2</ele><time>2026-03-30T08:21:36.999Z</time></trkpt><trkpt lat="46.037912177529805" lon="12.506261347882148"><ele>69.0</ele><time>2026-03-30T08:21:37.999Z</time></trkpt><trkpt lat="46.03782401823086" lon="12.506269154733253"><ele>69.0</ele><time>2026-03-30T08:21:38.999Z</time></trkpt><trkpt lat="46.03774267429329" lon="12.506278728373811"><ele>69.0</ele><time>2026-03-30T08:21:39.999Z</time></trkpt><trkpt lat="46.0376635710426" lon="12.506302938632519"><ele>69.0</ele><time>2026-03-30T08:21:40.999Z</time></trkpt><trkpt lat="46.037583993470356" lon="12.506338164292774"><ele>69.0</ele><time>2026-03-30T08:21:41.999Z</time></trkpt><trkpt lat="46.03750734764529" lon="12.506377283348424"><ele>69.0</ele><time>2026-03-30T08:21:42.999Z</time></trkpt><trkpt lat="46.03743098363802" lon="12.506429521446304"><ele>69.0</ele><time>2026-03-30T08:21:43.999Z</time></trkpt><trkpt lat="46.03736361940761" lon="12.506482283314703"><ele>68.83333333333333</ele><time>2026-03-30T08:21:44.999Z</time></trkpt><trkpt lat="46.03729495141523" lon="12.506546798029733"><ele>68.66666666666667</ele><time>2026-03-30T08:21:45.999Z</time></trkpt><trkpt lat="46.03722208186462" lon="12.506614944539457"><ele>68.5</ele><time>2026-03-30T08:21:46.999Z</time></trkpt><trkpt lat="46.03714655442384" lon="12.506686566858916"><ele>68.33333333333334</ele><time>2026-03-30T08:21:47.999Z</time></trkpt><trkpt lat="46.037080546052096" lon="12.506754423311214"><ele>68.16666666666667</ele><time>2026-03-30T08:21:48.999Z</time></trkpt><trkpt lat="46.0370203164566" lon="12.506818689910792"><ele>68.0</ele><time>2026-03-30T08:21:49.999Z</time></trkpt><trkpt lat="46.03696433420628" lon="12.50688153510445"><ele>68.0</ele><time>2026-03-30T08:21:50.999Z</time></trkpt><trkpt lat="46.03688754434489" lon="12.506970555106143"><ele>68.0</ele><time>2026-03-30T08:21:52.999Z</time></trkpt><trkpt lat="46.036895517414266" lon="12.507205462471603"><ele>68.0</ele><time>2026-03-30T08:21:55.999Z</time></trkpt><trkpt lat="46.03693254542381" lon="12.50730565922574"><ele>68.0</ele><time>2026-03-30T08:21:56.999Z</time></trkpt><trkpt lat="46.03699212382031" lon="12.507396760943978"><ele>68.0</ele><time>2026-03-30T08:21:57.999Z</time></trkpt><trkpt lat="46.0370527044336" lon="12.50750521067354"><ele>67.66666666666667</ele><time>2026-03-30T08:21:58.999Z</time></trkpt><trkpt lat="46.03711835677282" lon="12.50761586703434"><ele>67.33333333333334</ele><time>2026-03-30T08:21:59.999Z</time></trkpt><trkpt lat="46.037176649748424" lon="12.507707513384075"><ele>67.0</ele><time>2026-03-30T08:22:00.999Z</time></trkpt><trkpt lat="46.03720781856379" lon="12.507804700544183"><ele>66.66666666666667</ele><time>2026-03-30T08:22:01.999Z</time></trkpt><trkpt lat="46.03725357158148" lon="12.507889660751172"><ele>66.33333333333333</ele><time>2026-03-30T08:22:02.999Z</time></trkpt><trkpt lat="46.037302100208166" lon="12.507977229818895"><ele>66.0</ele><time>2026-03-30T08:22:03.999Z</time></trkpt><trkpt lat="46.03735078715068" lon="12.508061006780194"><ele>66.83333333333333</ele><time>2026-03-30T08:22:04.999Z</time></trkpt><trkpt lat="46.037394373645746" lon="12.508131453303877"><ele>67.66666666666667</ele><time>2026-03-30T08:22:05.999Z</time></trkpt><trkpt lat="46.03747827866661" lon="12.508238671735725"><ele>68.5</ele><time>2026-03-30T08:22:07.999Z</time></trkpt><trkpt lat="46.03753364694724" lon="12.508354439596442"><ele>69.33333333333334</ele><time>2026-03-30T08:22:10Z</time></trkpt><trkpt lat="46.03760234801824" lon="12.508463600957366"><ele>70.16666666666667</ele><time>2026-03-30T08:22:12Z</time></trkpt><trkpt lat="46.03764766542843" lon="12.508535607256874"><ele>71.0</ele><time>2026-03-30T08:22:13Z</time></trkpt><trkpt lat="46.03757576110502" lon="12.508783149317011"><ele>71.16666666666667</ele><time>2026-03-30T08:22:14Z</time></trkpt><trkpt lat="46.03759917644783" lon="12.508886597137966"><ele>71.33333333333334</ele><time>2026-03-30T08:22:15Z</time></trkpt><trkpt lat="46.0376251985239" lon="12.508992771549421"><ele>71.5</ele><time>2026-03-30T08:22:16Z</time></trkpt><trkpt lat="46.03766180751177" lon="12.50908840030929"><ele>71.66666666666667</ele><time>2026-03-30T08:22:17Z</time></trkpt><trkpt lat="46.03771549591947" lon="12.509190456227335"><ele>71.83333333333333</ele><time>2026-03-30T08:22:18Z</time></trkpt><trkpt lat="46.03776776083659" lon="12.509288765544623"><ele>72.0</ele><time>2026-03-30T08:22:19Z</time></trkpt><trkpt lat="46.03781420708721" lon="12.509368014585977"><ele>72.0</ele><time>2026-03-30T08:22:20Z</time></trkpt><trkpt lat="46.03784780844708" lon="12.50951223773484"><ele>72.0</ele><time>2026-03-30T08:22:22Z</time></trkpt><trkpt lat="46.03785353990847" lon="12.509602869744059"><ele>72.0</ele><time>2026-03-30T08:22:23Z</time></trkpt><trkpt lat="46.03785106407985" lon="12.50974487066837"><ele>72.0</ele><time>2026-03-30T08:22:25Z</time></trkpt><trkpt lat="46.037820606687625" lon="12.509902111964248"><ele>72.0</ele><time>2026-03-30T08:22:27Z</time></trkpt><trkpt lat="46.03780098598926" lon="12.510040597524085"><ele>72.42857142857143</ele><time>2026-03-30T08:22:29Z</time></trkpt><trkpt lat="46.03781105675221" lon="12.510130128427217"><ele>72.85714285714286</ele><time>2026-03-30T08:22:32Z</time></trkpt><trkpt lat="46.03789679571727" lon="12.510194009757749"><ele>73.28571428571428</ele><time>2026-03-30T08:22:38Z</time></trkpt><trkpt lat="46.037954590632836" lon="12.51023531054971"><ele>73.71428571428572</ele><time>2026-03-30T08:22:39Z</time></trkpt><trkpt lat="46.038019031259495" lon="12.510269110323971"><ele>74.14285714285714</ele><time>2026-03-30T08:22:40Z</time></trkpt><trkpt lat="46.03809039529401" lon="12.510278296190231"><ele>74.57142857142857</ele><time>2026-03-30T08:22:41Z</time></trkpt><trkpt lat="46.03815276816919" lon="12.510299748178523"><ele>75.0</ele><time>2026-03-30T08:22:42Z</time></trkpt><trkpt lat="46.03822997838845" lon="12.510302871449984"><ele>75.0</ele><time>2026-03-30T08:22:44Z</time></trkpt><trkpt lat="46.03833477905789" lon="12.51028099193963"><ele>75.0</ele><time>2026-03-30T08:22:46Z</time></trkpt><trkpt lat="46.03843796650921" lon="12.510248159285654"><ele>75.0</ele><time>2026-03-30T08:22:48Z</time></trkpt><trkpt lat="46.03854910337304" lon="12.510234673386382"><ele>75.0</ele><time>2026-03-30T08:22:50Z</time></trkpt><trkpt lat="46.03867736467655" lon="12.51023701199272"><ele>75.0</ele><time>2026-03-30T08:22:52Z</time></trkpt><trkpt lat="46.038764985973245" lon="12.510228889800146"><ele>75.0</ele><time>2026-03-30T08:22:53Z</time></trkpt><trkpt lat="46.03886457662581" lon="12.510216383293889"><ele>75.0</ele><time>2026-03-30T08:22:54Z</time></trkpt><trkpt lat="46.03894709726192" lon="12.510213218276228"><ele>75.0</ele><time>2026-03-30T08:22:55Z</time></trkpt><trkpt lat="46.039041951099335" lon="12.510215244574784"><ele>75.0</ele><time>2026-03-30T08:22:56Z</time></trkpt><trkpt lat="46.03912156899317" lon="12.510216854396715"><ele>75.0</ele><time>2026-03-30T08:22:57Z</time></trkpt><trkpt lat="46.03923758144925" lon="12.51022653797912"><ele>76.0</ele><time>2026-03-30T08:22:59Z</time></trkpt><trkpt lat="46.03934763714453" lon="12.510239031818411"><ele>77.0</ele><time>2026-03-30T08:23:01Z</time></trkpt><trkpt lat="46.039447668312455" lon="12.510285166296567"><ele>78.0</ele><time>2026-03-30T08:23:03Z</time></trkpt><trkpt lat="46.03951001135995" lon="12.510319087414082"><ele>79.0</ele><time>2026-03-30T08:23:04Z</time></trkpt><trkpt lat="46.03959637737478" lon="12.510399676341791"><ele>80.0</ele><time>2026-03-30T08:23:06Z</time></trkpt><trkpt lat="46.039668400550106" lon="12.5105029431476"><ele>80.0</ele><time>2026-03-30T08:23:08Z</time></trkpt><trkpt lat="46.039738138763674" lon="12.510643243009051"><ele>80.0</ele><time>2026-03-30T08:23:10Z</time></trkpt><trkpt lat="46.03979497677526" lon="12.510779962927373"><ele>80.0</ele><time>2026-03-30T08:23:12Z</time></trkpt><trkpt lat="46.03984889473637" lon="12.510896811358533"><ele>80.0</ele><time>2026-03-30T08:23:13.999Z</time></trkpt><trkpt lat="46.039911141127355" lon="12.51102594120837"><ele>80.0</ele><time>2026-03-30T08:23:15.999Z</time></trkpt><trkpt lat="46.039947249424344" lon="12.511127974079185"><ele>80.33333333333334</ele><time>2026-03-30T08:23:16.999Z</time></trkpt><trkpt lat="46.03997974478169" lon="12.511228402003631"><ele>80.66666666666667</ele><time>2026-03-30T08:23:17.999Z</time></trkpt><trkpt lat="46.04001753538857" lon="12.511325653644615"><ele>81.0</ele><time>2026-03-30T08:23:18.999Z</time></trkpt><trkpt lat="46.04004707993989" lon="12.511415024634134"><ele>81.33333333333333</ele><time>2026-03-30T08:23:19.999Z</time></trkpt><trkpt lat="46.04011816025633" lon="12.511563258459754"><ele>81.66666666666666</ele><time>2026-03-30T08:23:21.999Z</time></trkpt><trkpt lat="46.0401579291466" lon="12.511643947700781"><ele>82.0</ele><time>2026-03-30T08:23:22.999Z</time></trkpt><trkpt lat="46.04021118326801" lon="12.511777774946145"><ele>83.16666666666666</ele><time>2026-03-30T08:23:24.999Z</time></trkpt><trkpt lat="46.04025969241559" lon="12.511868787571473"><ele>84.33333333333333</ele><time>2026-03-30T08:23:26.999Z</time></trkpt><trkpt lat="46.040324290847366" lon="12.511972671374801"><ele>85.5</ele><time>2026-03-30T08:23:28.999Z</time></trkpt><trkpt lat="46.0403740387359" lon="12.512075431855067"><ele>86.66666666666667</ele><time>2026-03-30T08:23:30.999Z</time></trkpt><trkpt lat="46.04041776732914" lon="12.512173635142132"><ele>87.83333333333334</ele><time>2026-03-30T08:23:32.999Z</time></trkpt><trkpt lat="46.04046251076273" lon="12.512243279479755"><ele>89.0</ele><time>2026-03-30T08:23:33.999Z</time></trkpt><trkpt lat="46.04053311112029" lon="12.512359753999222"><ele>88.4</ele><time>2026-03-30T08:23:35.999Z</time></trkpt><trkpt lat="46.040583304789145" lon="12.512423688726095"><ele>87.80000000000001</ele><time>2026-03-30T08:23:36.999Z</time></trkpt><trkpt lat="46.040660498453825" lon="12.512541063580523"><ele>87.19999999999999</ele><time>2026-03-30T08:23:38.999Z</time></trkpt><trkpt lat="46.040748052204655" lon="12.512670311669014"><ele>86.6</ele><time>2026-03-30T08:23:40.999Z</time></trkpt><trkpt lat="46.04080988711567" lon="12.512761957900466"><ele>86.0</ele><time>2026-03-30T08:23:42.999Z</time></trkpt><trkpt lat="46.040909465031476" lon="12.512815909734721"><ele>86.0</ele><time>2026-03-30T08:23:44.999Z</time></trkpt><trkpt lat="46.040970899241245" lon="12.512873920001566"><ele>86.0</ele><time>2026-03-30T08:23:46.999Z</time></trkpt><trkpt lat="46.041043655254775" lon="12.512952834859256"><ele>86.0</ele><time>2026-03-30T08:23:49.999Z</time></trkpt><trkpt lat="46.04110829098531" lon="12.512993457758661"><ele>86.0</ele><time>2026-03-30T08:23:51.999Z</time></trkpt><trkpt lat="46.04121999895883" lon="12.51301753715412"><ele>86.0</ele><time>2026-03-30T08:23:54.999Z</time></trkpt><trkpt lat="46.04132083407197" lon="12.513116329599676"><ele>87.0</ele><time>2026-03-30T08:23:58.999Z</time></trkpt><trkpt lat="46.041346601727916" lon="12.51326568935013"><ele>88.0</ele><time>2026-03-30T08:24:01.999Z</time></trkpt><trkpt lat="46.041362421957245" lon="12.513397564968615"><ele>89.0</ele><time>2026-03-30T08:24:04.999Z</time></trkpt><trkpt lat="46.041437674678825" lon="12.513460102079765"><ele>90.0</ele><time>2026-03-30T08:24:07.999Z</time></trkpt><trkpt lat="46.04151056604741" lon="12.513475900552303"><ele>91.0</ele><time>2026-03-30T08:24:08.999Z</time></trkpt><trkpt lat="46.04157315012393" lon="12.513498426791374"><ele>92.0</ele><time>2026-03-30T08:24:09.999Z</time></trkpt><trkpt lat="46.041624951784065" lon="12.513609551198803"><ele>91.8</ele><time>2026-03-30T08:24:11.999Z</time></trkpt><trkpt lat="46.04167882067894" lon="12.513706462339522"><ele>91.6</ele><time>2026-03-30T08:24:13.999Z</time></trkpt><trkpt lat="46.041778020735514" lon="12.513806914953133"><ele>91.39999999999999</ele><time>2026-03-30T08:24:16Z</time></trkpt><trkpt lat="46.04183534483187" lon="12.513921428780584"><ele>91.19999999999999</ele><time>2026-03-30T08:24:18Z</time></trkpt><trkpt lat="46.041833923214405" lon="12.514033662445556"><ele>91.0</ele><time>2026-03-30T08:24:20Z</time></trkpt><trkpt lat="46.041855184339624" lon="12.514166653294419"><ele>91.0</ele><time>2026-03-30T08:24:23Z</time></trkpt><trkpt lat="46.041877555070734" lon="12.514285194173361"><ele>91.0</ele><time>2026-03-30T08:24:25Z</time></trkpt><trkpt lat="46.04201528490947" lon="12.514401493257932"><ele>91.0</ele><time>2026-03-30T08:24:27Z</time></trkpt><trkpt lat="46.04208470464131" lon="12.514495036000886"><ele>91.0</ele><time>2026-03-30T08:24:28Z</time></trkpt><trkpt lat="46.04213871389702" lon="12.514597548899763"><ele>91.0</ele><time>2026-03-30T08:24:29Z</time></trkpt><trkpt lat="46.04218835778838" lon="12.514681361836086"><ele>92.0</ele><time>2026-03-30T08:24:30Z</time></trkpt><trkpt lat="46.04228013790501" lon="12.514763319347944"><ele>93.0</ele><time>2026-03-30T08:24:32Z</time></trkpt><trkpt lat="46.04235143768201" lon="12.51487706152794"><ele>94.0</ele><time>2026-03-30T08:24:34Z</time></trkpt><trkpt lat="46.04238042347961" lon="12.514971579715592"><ele>95.0</ele><time>2026-03-30T08:24:35Z</time></trkpt><trkpt lat="46.04242261304954" lon="12.515064248932685"><ele>96.00000000000001</ele><time>2026-03-30T08:24:36Z</time></trkpt><trkpt lat="46.042458987170534" lon="12.515164050921026"><ele>97.0</ele><time>2026-03-30T08:24:37Z</time></trkpt><trkpt lat="46.04247926160525" lon="12.51526590972134"><ele>97.16666666666667</ele><time>2026-03-30T08:24:38Z</time></trkpt><trkpt lat="46.042501566808916" lon="12.515365551182773"><ele>97.33333333333334</ele><time>2026-03-30T08:24:39Z</time></trkpt><trkpt lat="46.042524876370734" lon="12.515479067764506"><ele>97.5</ele><time>2026-03-30T08:24:40Z</time></trkpt><trkpt lat="46.04255476224689" lon="12.515573449224133"><ele>97.66666666666666</ele><time>2026-03-30T08:24:41Z</time></trkpt><trkpt lat="46.0425707946877" lon="12.515693402931122"><ele>97.83333333333333</ele><time>2026-03-30T08:24:43Z</time></trkpt><trkpt lat="46.04256107488175" lon="12.515819786509649"><ele>98.0</ele><time>2026-03-30T08:24:45Z</time></trkpt><trkpt lat="46.04256929583548" lon="12.515912583741908"><ele>97.99999999999999</ele><time>2026-03-30T08:24:46Z</time></trkpt><trkpt lat="46.0426018030998" lon="12.516000297597513"><ele>98.0</ele><time>2026-03-30T08:24:47Z</time></trkpt><trkpt lat="46.04264034778609" lon="12.516115649314608"><ele>98.0</ele><time>2026-03-30T08:24:48Z</time></trkpt><trkpt lat="46.042679741510725" lon="12.51621032103318"><ele>98.0</ele><time>2026-03-30T08:24:49Z</time></trkpt><trkpt lat="46.04272886458044" lon="12.516316407367045"><ele>97.99999999999999</ele><time>2026-03-30T08:24:50Z</time></trkpt><trkpt lat="46.04278155389292" lon="12.516412036306741"><ele>98.0</ele><time>2026-03-30T08:24:51Z</time></trkpt><trkpt lat="46.04283307393266" lon="12.516485101013599"><ele>98.66666666666666</ele><time>2026-03-30T08:24:52Z</time></trkpt><trkpt lat="46.0428739565679" lon="12.516565149556312"><ele>99.33333333333333</ele><time>2026-03-30T08:24:53Z</time></trkpt><trkpt lat="46.042899471458846" lon="12.516652217052352"><ele>100.0</ele><time>2026-03-30T08:24:54Z</time></trkpt><trkpt lat="46.04291290767933" lon="12.516741158175517"><ele>100.66666666666666</ele><time>2026-03-30T08:24:55Z</time></trkpt><trkpt lat="46.04294400343261" lon="12.516836334783775"><ele>101.33333333333333</ele><time>2026-03-30T08:24:56Z</time></trkpt><trkpt lat="46.04301784324056" lon="12.516954163471112"><ele>102.0</ele><time>2026-03-30T08:24:58Z</time></trkpt><trkpt lat="46.04308093030186" lon="12.516993154393589"><ele>102.5</ele><time>2026-03-30T08:24:59Z</time></trkpt><trkpt lat="46.04314629289306" lon="12.51710364643536"><ele>103.0</ele><time>2026-03-30T08:25:01Z</time></trkpt><trkpt lat="46.043154758008725" lon="12.51720842015755"><ele>103.5</ele><time>2026-03-30T08:25:02Z</time></trkpt><trkpt lat="46.043162575893696" lon="12.517320421990856"><ele>104.0</ele><time>2026-03-30T08:25:03Z</time></trkpt><trkpt lat="46.04320308959327" lon="12.517402385555767"><ele>104.5</ele><time>2026-03-30T08:25:04Z</time></trkpt><trkpt lat="46.04324734238275" lon="12.517472322114534"><ele>105.0</ele><time>2026-03-30T08:25:05Z</time></trkpt><trkpt lat="46.043302435192466" lon="12.517629463640068"><ele>105.0</ele><time>2026-03-30T08:25:06.999Z</time></trkpt><trkpt lat="46.04331438895703" lon="12.51782182936454"><ele>105.0</ele><time>2026-03-30T08:25:08.999Z</time></trkpt><trkpt lat="46.043323016365335" lon="12.517929877035472"><ele>105.0</ele><time>2026-03-30T08:25:09.999Z</time></trkpt><trkpt lat="46.04333793005215" lon="12.518059987839502"><ele>105.0</ele><time>2026-03-30T08:25:10.999Z</time></trkpt><trkpt lat="46.04334562091217" lon="12.518160850215116"><ele>105.0</ele><time>2026-03-30T08:25:11.999Z</time></trkpt><trkpt lat="46.04331705801801" lon="12.518268524235866"><ele>105.33333333333333</ele><time>2026-03-30T08:25:13.999Z</time></trkpt><trkpt lat="46.0432595813225" lon="12.51832202521939"><ele>105.66666666666666</ele><time>2026-03-30T08:25:16.999Z</time></trkpt><trkpt lat="46.04324943646058" lon="12.518455535832917"><ele>106.0</ele><time>2026-03-30T08:25:18.999Z</time></trkpt><trkpt lat="46.04327911244825" lon="12.518564164158374"><ele>106.33333333333333</ele><time>2026-03-30T08:25:19.999Z</time></trkpt><trkpt lat="46.04332478333945" lon="12.518695891037341"><ele>106.66666666666666</ele><time>2026-03-30T08:25:20.999Z</time></trkpt><trkpt lat="46.043358848965" lon="12.51879783860804"><ele>107.0</ele><time>2026-03-30T08:25:21.999Z</time></trkpt><trkpt lat="46.043377310050616" lon="12.518902158433017"><ele>107.39999999999999</ele><time>2026-03-30T08:25:22.999Z</time></trkpt><trkpt lat="46.043394051770015" lon="12.519035224273185"><ele>107.79999999999998</ele><time>2026-03-30T08:25:23.999Z</time></trkpt><trkpt lat="46.0434294490313" lon="12.519180175359784"><ele>108.2</ele><time>2026-03-30T08:25:24.999Z</time></trkpt><trkpt lat="46.0434637944625" lon="12.519308345977086"><ele>108.6</ele><time>2026-03-30T08:25:25.999Z</time></trkpt><trkpt lat="46.04349637113568" lon="12.519426538508949"><ele>109.0</ele><time>2026-03-30T08:25:26.999Z</time></trkpt><trkpt lat="46.04353548390092" lon="12.519536815700611"><ele>110.00000000000001</ele><time>2026-03-30T08:25:27.999Z</time></trkpt><trkpt lat="46.043585660205274" lon="12.519621915161629"><ele>111.0</ele><time>2026-03-30T08:25:28.999Z</time></trkpt><trkpt lat="46.04364448252906" lon="12.519733434029536"><ele>112.0</ele><time>2026-03-30T08:25:29.999Z</time></trkpt><trkpt lat="46.04370315312498" lon="12.51983652632894"><ele>113.0</ele><time>2026-03-30T08:25:30.999Z</time></trkpt><trkpt lat="46.04375702954992" lon="12.51993226203474"><ele>114.00000000000001</ele><time>2026-03-30T08:25:31.999Z</time></trkpt><trkpt lat="46.043788814941124" lon="12.52001697291789"><ele>115.0</ele><time>2026-03-30T08:25:32.999Z</time></trkpt><trkpt lat="46.04380675759387" lon="12.52018138485567"><ele>115.0</ele><time>2026-03-30T08:25:34.999Z</time></trkpt><trkpt lat="46.04390375156218" lon="12.520274495560383"><ele>115.0</ele><time>2026-03-30T08:25:36.999Z</time></trkpt><trkpt lat="46.0439897960097" lon="12.52030782322346"><ele>115.0</ele><time>2026-03-30T08:25:37.999Z</time></trkpt><trkpt lat="46.044079508547604" lon="12.520332477639062"><ele>115.0</ele><time>2026-03-30T08:25:38.999Z</time></trkpt><trkpt lat="46.044157267911054" lon="12.520359141282135"><ele>115.0</ele><time>2026-03-30T08:25:39.999Z</time></trkpt><trkpt lat="46.04426247700695" lon="12.520485167770222"><ele>115.6</ele><time>2026-03-30T08:25:41.999Z</time></trkpt><trkpt lat="46.04431222709067" lon="12.520570587076712"><ele>116.2</ele><time>2026-03-30T08:25:42.999Z</time></trkpt><trkpt lat="46.04435874992348" lon="12.520676728259742"><ele>116.80000000000001</ele><time>2026-03-30T08:25:43.999Z</time></trkpt><trkpt lat="46.044406504128034" lon="12.52080998236742"><ele>117.4</ele><time>2026-03-30T08:25:44.999Z</time></trkpt><trkpt lat="46.04444672759007" lon="12.520908208880867"><ele>118.0</ele><time>2026-03-30T08:25:45.999Z</time></trkpt><trkpt lat="46.044495594232096" lon="12.52106193521902"><ele>118.0</ele><time>2026-03-30T08:25:47.999Z</time></trkpt><trkpt lat="46.04451140926883" lon="12.521154119422604"><ele>118.0</ele><time>2026-03-30T08:25:48.999Z</time></trkpt><trkpt lat="46.044528347062595" lon="12.521261116431184"><ele>118.0</ele><time>2026-03-30T08:25:49.999Z</time></trkpt><trkpt lat="46.044556716852156" lon="12.521344677421785"><ele>118.0</ele><time>2026-03-30T08:25:50.999Z</time></trkpt><trkpt lat="46.044607492100305" lon="12.521411547361534"><ele>118.0</ele><time>2026-03-30T08:25:51.999Z</time></trkpt><trkpt lat="46.04465716800427" lon="12.521502728961003"><ele>118.0</ele><time>2026-03-30T08:25:52.999Z</time></trkpt><trkpt lat="46.04469267913162" lon="12.521602938105273"><ele>118.0</ele><time>2026-03-30T08:25:54.999Z</time></trkpt><trkpt lat="46.044727471825205" lon="12.521682953896175"><ele>118.66666666666667</ele><time>2026-03-30T08:26:08.999Z</time></trkpt><trkpt lat="46.04475074048084" lon="12.521778205933575"><ele>119.33333333333334</ele><time>2026-03-30T08:26:09.999Z</time></trkpt><trkpt lat="46.0447721411647" lon="12.521866555535436"><ele>120.0</ele><time>2026-03-30T08:26:10.999Z</time></trkpt><trkpt lat="46.044788302060226" lon="12.521965365004364"><ele>120.66666666666666</ele><time>2026-03-30T08:26:11.999Z</time></trkpt><trkpt lat="46.04480760497079" lon="12.522083175364383"><ele>121.33333333333333</ele><time>2026-03-30T08:26:12.999Z</time></trkpt><trkpt lat="46.044822036170906" lon="12.522188607694046"><ele>122.0</ele><time>2026-03-30T08:26:13.999Z</time></trkpt><trkpt lat="46.044850423876596" lon="12.522360862787645"><ele>121.99999999999999</ele><time>2026-03-30T08:26:15.999Z</time></trkpt><trkpt lat="46.04488470836523" lon="12.522520502257924"><ele>122.0</ele><time>2026-03-30T08:26:17.999Z</time></trkpt><trkpt lat="46.044916868374315" lon="12.522632186669217"><ele>122.0</ele><time>2026-03-30T08:26:19.999Z</time></trkpt><trkpt lat="46.04496611588166" lon="12.52272527353319"><ele>122.0</ele><time>2026-03-30T08:26:22Z</time></trkpt><trkpt lat="46.04502235676408" lon="12.522808493680861"><ele>121.99999999999999</ele><time>2026-03-30T08:26:24Z</time></trkpt><trkpt lat="46.04505883953665" lon="12.522893010172012"><ele>122.0</ele><time>2026-03-30T08:26:27Z</time></trkpt><trkpt lat="46.04499111070246" lon="12.52278496748598"><ele>122.8</ele><time>2026-03-30T08:26:39Z</time></trkpt><trkpt lat="46.04492553897288" lon="12.522689470899975"><ele>123.6</ele><time>2026-03-30T08:26:41Z</time></trkpt><trkpt lat="46.044884220962935" lon="12.522582290136272"><ele>124.39999999999999</ele><time>2026-03-30T08:26:43Z</time></trkpt><trkpt lat="46.04486294362861" lon="12.522481708792407"><ele>125.19999999999999</ele><time>2026-03-30T08:26:45Z</time></trkpt><trkpt lat="46.04483874166886" lon="12.52235069265579"><ele>126.0</ele><time>2026-03-30T08:26:47Z</time></trkpt><trkpt lat="46.04480647893651" lon="12.52215865142091"><ele>126.0</ele><time>2026-03-30T08:26:49Z</time></trkpt><trkpt lat="46.04479250112787" lon="12.522068385679447"><ele>126.0</ele><time>2026-03-30T08:26:50Z</time></trkpt><trkpt lat="46.04476752506524" lon="12.521936686878597"><ele>126.0</ele><time>2026-03-30T08:26:52Z</time></trkpt><trkpt lat="46.04474612849007" lon="12.521846142774923"><ele>126.0</ele><time>2026-03-30T08:26:54Z</time></trkpt><trkpt lat="46.044720821469596" lon="12.521730135065258"><ele>126.0</ele><time>2026-03-30T08:26:56Z</time></trkpt><trkpt lat="46.04467899437969" lon="12.521633439720521"><ele>126.0</ele><time>2026-03-30T08:26:59Z</time></trkpt><trkpt lat="46.044752391235576" lon="12.521546495196947"><ele>125.19999999999999</ele><time>2026-03-30T08:27:09Z</time></trkpt><trkpt lat="46.04484377735784" lon="12.52150768572347"><ele>124.39999999999999</ele><time>2026-03-30T08:27:11Z</time></trkpt><trkpt lat="46.0449081674684" lon="12.521496911934701"><ele>123.6</ele><time>2026-03-30T08:27:13Z</time></trkpt><trkpt lat="46.04497889244096" lon="12.521630423502334"><ele>122.8</ele><time>2026-03-30T08:27:16Z</time></trkpt><trkpt lat="46.045028762616056" lon="12.521703022216709"><ele>122.0</ele><time>2026-03-30T08:27:17Z</time></trkpt><trkpt lat="46.045059669036526" lon="12.521861349636756"><ele>121.99999999999999</ele><time>2026-03-30T08:27:19Z</time></trkpt><trkpt lat="46.045139620079276" lon="12.522000265675237"><ele>122.0</ele><time>2026-03-30T08:27:21Z</time></trkpt><trkpt lat="46.04519216590143" lon="12.52207813106925"><ele>122.0</ele><time>2026-03-30T08:27:22Z</time></trkpt><trkpt lat="46.04522555096069" lon="12.522171664892834"><ele>122.0</ele><time>2026-03-30T08:27:23Z</time></trkpt><trkpt lat="46.04526046797097" lon="12.522263690541882"><ele>121.99999999999999</ele><time>2026-03-30T08:27:24Z</time></trkpt><trkpt lat="46.045301214244866" lon="12.522369073592243"><ele>122.0</ele><time>2026-03-30T08:27:26Z</time></trkpt><trkpt lat="46.045397091479046" lon="12.522410634628205"><ele>121.99999999999999</ele><time>2026-03-30T08:27:27.999Z</time></trkpt><trkpt lat="46.045452405106786" lon="12.522465234303215"><ele>122.0</ele><time>2026-03-30T08:27:28.999Z</time></trkpt><trkpt lat="46.0454879410091" lon="12.522542908675716"><ele>122.0</ele><time>2026-03-30T08:27:29.999Z</time></trkpt><trkpt lat="46.0455508037752" lon="12.522616801640911"><ele>122.0</ele><time>2026-03-30T08:27:31.999Z</time></trkpt><trkpt lat="46.04562261523529" lon="12.522608714873746"><ele>121.99999999999999</ele><time>2026-03-30T08:27:33.999Z</time></trkpt><trkpt lat="46.04572722752703" lon="12.52264165714361"><ele>122.0</ele><time>2026-03-30T08:27:35.999Z</time></trkpt><trkpt lat="46.04578968865315" lon="12.522615403049842"><ele>122.0</ele><time>2026-03-30T08:27:46.999Z</time></trkpt><trkpt lat="46.045767199730214" lon="12.52250579557899"><ele>121.99999999999999</ele><time>2026-03-30T08:27:48.999Z</time></trkpt><trkpt lat="46.04574016313611" lon="12.52239505182726"><ele>121.99999999999999</ele><time>2026-03-30T08:27:49.999Z</time></trkpt><trkpt lat="46.04569709313269" lon="12.522320340281283"><ele>122.0</ele><time>2026-03-30T08:27:50.999Z</time></trkpt><trkpt lat="46.045582337754844" lon="12.522238746303152"><ele>122.0</ele><time>2026-03-30T08:27:52.999Z</time></trkpt><trkpt lat="46.04551459775471" lon="12.522126423197996"><ele>122.0</ele><time>2026-03-30T08:27:54.999Z</time></trkpt><trkpt lat="46.04551304862455" lon="12.522026054052345"><ele>121.99999999999999</ele><time>2026-03-30T08:27:56.999Z</time></trkpt><trkpt lat="46.04559353772216" lon="12.521976833397968"><ele>121.99999999999999</ele><time>2026-03-30T08:27:58.999Z</time></trkpt><trkpt lat="46.045712276824766" lon="12.522039877618782"><ele>122.0</ele><time>2026-03-30T08:28:00.999Z</time></trkpt><trkpt lat="46.04577512855996" lon="12.522110489856136"><ele>122.0</ele><time>2026-03-30T08:28:01.999Z</time></trkpt><trkpt lat="46.045855620223" lon="12.522199490210637"><ele>123.39999999999999</ele><time>2026-03-30T08:28:02.999Z</time></trkpt><trkpt lat="46.04594532979066" lon="12.522293795870633"><ele>124.79999999999998</ele><time>2026-03-30T08:28:03.999Z</time></trkpt><trkpt lat="46.046031934859265" lon="12.52237781384831"><ele>126.2</ele><time>2026-03-30T08:28:04.999Z</time></trkpt><trkpt lat="46.046099702246416" lon="12.522466885437295"><ele>127.6</ele><time>2026-03-30T08:28:05.999Z</time></trkpt><trkpt lat="46.04615577742715" lon="12.522548756238184"><ele>129.0</ele><time>2026-03-30T08:28:06.999Z</time></trkpt><trkpt lat="46.04621003705783" lon="12.522635813297416"><ele>129.0</ele><time>2026-03-30T08:28:07.999Z</time></trkpt><trkpt lat="46.0462617892509" lon="12.522728080283702"><ele>129.0</ele><time>2026-03-30T08:28:08.999Z</time></trkpt><trkpt lat="46.046313786534554" lon="12.522823324333663"><ele>129.0</ele><time>2026-03-30T08:28:09.999Z</time></trkpt><trkpt lat="46.04636372525336" lon="12.522927213761085"><ele>129.0</ele><time>2026-03-30T08:28:10.999Z</time></trkpt><trkpt lat="46.046399559033844" lon="12.523009608055453"><ele>129.0</ele><time>2026-03-30T08:28:11.999Z</time></trkpt><trkpt lat="46.046437795239925" lon="12.523085995831503"><ele>129.0</ele><time>2026-03-30T08:28:12.999Z</time></trkpt><trkpt lat="46.046484076388175" lon="12.523171700611176"><ele>128.8</ele><time>2026-03-30T08:28:13.999Z</time></trkpt><trkpt lat="46.04654077322079" lon="12.523251991360207"><ele>128.60000000000002</ele><time>2026-03-30T08:28:14.999Z</time></trkpt><trkpt lat="46.0466059427704" lon="12.523309809967909"><ele>128.4</ele><time>2026-03-30T08:28:15.999Z</time></trkpt><trkpt lat="46.04668426093344" lon="12.523354042684929"><ele>128.20000000000002</ele><time>2026-03-30T08:28:16.999Z</time></trkpt><trkpt lat="46.04677575967232" lon="12.52339381864921"><ele>128.0</ele><time>2026-03-30T08:28:17.999Z</time></trkpt><trkpt lat="46.046886411634745" lon="12.523450456301335"><ele>129.0</ele><time>2026-03-30T08:28:18.999Z</time></trkpt><trkpt lat="46.04701098396276" lon="12.523509952775473"><ele>130.0</ele><time>2026-03-30T08:28:19.999Z</time></trkpt><trkpt lat="46.04712212341934" lon="12.523547796299615"><ele>131.0</ele><time>2026-03-30T08:28:20.999Z</time></trkpt><trkpt lat="46.047231749904626" lon="12.523611114143439"><ele>132.0</ele><time>2026-03-30T08:28:21.999Z</time></trkpt><trkpt lat="46.047353358528675" lon="12.523699285656276"><ele>132.4</ele><time>2026-03-30T08:28:22.999Z</time></trkpt><trkpt lat="46.04745941777782" lon="12.523777512119151"><ele>132.79999999999998</ele><time>2026-03-30T08:28:23.999Z</time></trkpt><trkpt lat="46.04754805252931" lon="12.5238513276131"><ele>133.2</ele><time>2026-03-30T08:28:24.999Z</time></trkpt><trkpt lat="46.04761595224374" lon="12.523904384455589"><ele>133.6</ele><time>2026-03-30T08:28:25.999Z</time></trkpt><trkpt lat="46.04768989777471" lon="12.523938959309696"><ele>134.0</ele><time>2026-03-30T08:28:26.999Z</time></trkpt><trkpt lat="46.047778635981125" lon="12.524007200743318"><ele>135.16666666666666</ele><time>2026-03-30T08:28:29Z</time></trkpt><trkpt lat="46.04781865477328" lon="12.524090709337344"><ele>136.33333333333331</ele><time>2026-03-30T08:28:30Z</time></trkpt><trkpt lat="46.04784852525151" lon="12.5241966093391"><ele>137.5</ele><time>2026-03-30T08:28:31Z</time></trkpt><trkpt lat="46.04793033643993" lon="12.524314648176807"><ele>138.66666666666666</ele><time>2026-03-30T08:28:33Z</time></trkpt><trkpt lat="46.04799633471172" lon="12.524353309214208"><ele>139.83333333333334</ele><time>2026-03-30T08:28:34Z</time></trkpt><trkpt lat="46.04805982341333" lon="12.524392844416287"><ele>141.0</ele><time>2026-03-30T08:28:35Z</time></trkpt><trkpt lat="46.04814488603816" lon="12.524503716793095"><ele>141.28571428571428</ele><time>2026-03-30T08:28:36Z</time></trkpt><trkpt lat="46.04819944016276" lon="12.524593719454012"><ele>141.57142857142856</ele><time>2026-03-30T08:28:37Z</time></trkpt><trkpt lat="46.04824130284803" lon="12.524664222374813"><ele>141.85714285714283</ele><time>2026-03-30T08:28:38Z</time></trkpt><trkpt lat="46.04826319760798" lon="12.524750928044131"><ele>142.14285714285714</ele><time>2026-03-30T08:28:39Z</time></trkpt><trkpt lat="46.04826165379334" lon="12.524848986663727"><ele>142.42857142857142</ele><time>2026-03-30T08:28:40Z</time></trkpt><trkpt lat="46.048250152340756" lon="12.524946441006644"><ele>142.7142857142857</ele><time>2026-03-30T08:28:41Z</time></trkpt><trkpt lat="46.048244584217336" lon="12.525068375939808"><ele>143.0</ele><time>2026-03-30T08:28:42Z</time></trkpt><trkpt lat="46.048243423343685" lon="12.52517276030922"><ele>143.0</ele><time>2026-03-30T08:28:43Z</time></trkpt><trkpt lat="46.048217635710664" lon="12.525279682579416"><ele>143.0</ele><time>2026-03-30T08:28:45Z</time></trkpt><trkpt lat="46.048141474336454" lon="12.52536144943569"><ele>143.0</ele><time>2026-03-30T08:28:47Z</time></trkpt><trkpt lat="46.04818048767231" lon="12.525462701222837"><ele>143.0</ele><time>2026-03-30T08:28:49Z</time></trkpt><trkpt lat="46.04829376546916" lon="12.525555214517642"><ele>143.0</ele><time>2026-03-30T08:28:51Z</time></trkpt><trkpt lat="46.04839914137841" lon="12.525630412478657"><ele>143.83333333333331</ele><time>2026-03-30T08:28:53Z</time></trkpt><trkpt lat="46.04846388523578" lon="12.525657352776264"><ele>144.66666666666666</ele><time>2026-03-30T08:28:54Z</time></trkpt><trkpt lat="46.04853694432229" lon="12.525677387762569"><ele>145.5</ele><time>2026-03-30T08:28:55Z</time></trkpt><trkpt lat="46.048603756418665" lon="12.525691197471243"><ele>146.33333333333334</ele><time>2026-03-30T08:28:56Z</time></trkpt><trkpt lat="46.04868020930921" lon="12.52571777825547"><ele>147.16666666666669</ele><time>2026-03-30T08:28:57Z</time></trkpt><trkpt lat="46.048784469099566" lon="12.525728833079489"><ele>148.0</ele><time>2026-03-30T08:28:58Z</time></trkpt><trkpt lat="46.04888876817695" lon="12.525733892258934"><ele>148.0</ele><time>2026-03-30T08:28:59Z</time></trkpt><trkpt lat="46.04897096767684" lon="12.525736853999817"><ele>148.0</ele><time>2026-03-30T08:29:00Z</time></trkpt><trkpt lat="46.04905164212147" lon="12.525754697131639"><ele>148.0</ele><time>2026-03-30T08:29:01Z</time></trkpt><trkpt lat="46.04915487621351" lon="12.525762083881727"><ele>148.0</ele><time>2026-03-30T08:29:02Z</time></trkpt><trkpt lat="46.04923872829776" lon="12.525764592901574"><ele>148.0</ele><time>2026-03-30T08:29:03Z</time></trkpt><trkpt lat="46.04930290600142" lon="12.525772706959863"><ele>148.0</ele><time>2026-03-30T08:29:04Z</time></trkpt><trkpt lat="46.04934621852985" lon="12.525891546585061"><ele>148.6</ele><time>2026-03-30T08:29:07Z</time></trkpt><trkpt lat="46.049337075138176" lon="12.526054517022615"><ele>149.20000000000002</ele><time>2026-03-30T08:29:09Z</time></trkpt><trkpt lat="46.049328920943395" lon="12.526156590757765"><ele>149.8</ele><time>2026-03-30T08:29:11Z</time></trkpt><trkpt lat="46.04931062136444" lon="12.526288908163721"><ele>150.4</ele><time>2026-03-30T08:29:13Z</time></trkpt><trkpt lat="46.04937181183031" lon="12.526356987662604"><ele>151.0</ele><time>2026-03-30T08:29:17Z</time></trkpt><trkpt lat="46.04947615390969" lon="12.526447820119827"><ele>151.66666666666669</ele><time>2026-03-30T08:29:20Z</time></trkpt><trkpt lat="46.049499883261795" lon="12.52657854118582"><ele>152.33333333333334</ele><time>2026-03-30T08:29:22Z</time></trkpt><trkpt lat="46.049537814232856" lon="12.526688201782017"><ele>153.0</ele><time>2026-03-30T08:29:24Z</time></trkpt><trkpt lat="46.04964716334894" lon="12.526698508262886"><ele>153.66666666666666</ele><time>2026-03-30T08:29:27Z</time></trkpt><trkpt lat="46.04971101858366" lon="12.526726140866256"><ele>154.33333333333331</ele><time>2026-03-30T08:29:28Z</time></trkpt><trkpt lat="46.049766705913335" lon="12.526832838895343"><ele>155.0</ele><time>2026-03-30T08:29:30Z</time></trkpt><trkpt lat="46.04975725026426" lon="12.526935683477845"><ele>155.0</ele><time>2026-03-30T08:29:32Z</time></trkpt><trkpt lat="46.049756108665385" lon="12.527048829729821"><ele>155.0</ele><time>2026-03-30T08:29:34Z</time></trkpt><trkpt lat="46.04983403541498" lon="12.52711139947476"><ele>155.0</ele><time>2026-03-30T08:29:36Z</time></trkpt><trkpt lat="46.04985873830158" lon="12.52724500328677"><ele>155.0</ele><time>2026-03-30T08:29:38Z</time></trkpt><trkpt lat="46.04990247550855" lon="12.527366383457329"><ele>155.0</ele><time>2026-03-30T08:29:40Z</time></trkpt><trkpt lat="46.049970502000974" lon="12.527500283772033"><ele>156.16666666666666</ele><time>2026-03-30T08:29:42Z</time></trkpt><trkpt lat="46.05003614121774" lon="12.527594601685372"><ele>157.33333333333331</ele><time>2026-03-30T08:29:44Z</time></trkpt><trkpt lat="46.05012340905059" lon="12.52770454110249"><ele>158.5</ele><time>2026-03-30T08:29:46Z</time></trkpt><trkpt lat="46.05017165949473" lon="12.527783425024232"><ele>159.66666666666666</ele><time>2026-03-30T08:29:48Z</time></trkpt><trkpt lat="46.050217242340686" lon="12.527850337197659"><ele>160.83333333333334</ele><time>2026-03-30T08:29:50Z</time></trkpt><trkpt lat="46.05019791694814" lon="12.527944262178012"><ele>162.0</ele><time>2026-03-30T08:29:52Z</time></trkpt><trkpt lat="46.05025884127417" lon="12.527995348954208"><ele>162.33333333333334</ele><time>2026-03-30T08:29:55Z</time></trkpt><trkpt lat="46.050264714781235" lon="12.528096824347276"><ele>162.66666666666666</ele><time>2026-03-30T08:29:57Z</time></trkpt><trkpt lat="46.050244542662384" lon="12.528208130916346"><ele>163.0</ele><time>2026-03-30T08:29:59Z</time></trkpt><trkpt lat="46.050258732645" lon="12.52835357998931"><ele>163.33333333333331</ele><time>2026-03-30T08:30:02Z</time></trkpt><trkpt lat="46.05024111617975" lon="12.528475077250334"><ele>163.66666666666666</ele><time>2026-03-30T08:30:04Z</time></trkpt><trkpt lat="46.05022113661569" lon="12.528590686112537"><ele>164.0</ele><time>2026-03-30T08:30:06Z</time></trkpt><trkpt lat="46.050204205035584" lon="12.528707855723162"><ele>164.66666666666666</ele><time>2026-03-30T08:30:08Z</time></trkpt><trkpt lat="46.05017518177512" lon="12.528826113300754"><ele>165.33333333333331</ele><time>2026-03-30T08:30:10Z</time></trkpt><trkpt lat="46.05020420729856" lon="12.52893550881737"><ele>166.0</ele><time>2026-03-30T08:30:12.999Z</time></trkpt><trkpt lat="46.05022680447237" lon="12.52905783246091"><ele>166.66666666666666</ele><time>2026-03-30T08:30:16.999Z</time></trkpt><trkpt lat="46.05021001893501" lon="12.52916581479381"><ele>167.33333333333334</ele><time>2026-03-30T08:30:18.999Z</time></trkpt><trkpt lat="46.050185879785474" lon="12.52929643713269"><ele>168.0</ele><time>2026-03-30T08:30:20.999Z</time></trkpt><trkpt lat="46.05019030627387" lon="12.529400940594597"><ele>168.0</ele><time>2026-03-30T08:30:22.999Z</time></trkpt><trkpt lat="46.05027466887414" lon="12.529378867916796"><ele>168.0</ele><time>2026-03-30T08:30:32.999Z</time></trkpt><trkpt lat="46.05037599638437" lon="12.529374272089036"><ele>168.0</ele><time>2026-03-30T08:30:35Z</time></trkpt><trkpt lat="46.050498215531974" lon="12.529419942163392"><ele>168.0</ele><time>2026-03-30T08:30:37Z</time></trkpt><trkpt lat="46.05057369942059" lon="12.529434504982406"><ele>168.0</ele><time>2026-03-30T08:30:38Z</time></trkpt><trkpt lat="46.05067646955423" lon="12.529445651388372"><ele>168.0</ele><time>2026-03-30T08:30:39Z</time></trkpt><trkpt lat="46.05078393471038" lon="12.529456626297527"><ele>168.0</ele><time>2026-03-30T08:30:40Z</time></trkpt><trkpt lat="46.050901542147386" lon="12.529472237912323"><ele>168.0</ele><time>2026-03-30T08:30:41Z</time></trkpt><trkpt lat="46.051015848941915" lon="12.52948505947033"><ele>168.0</ele><time>2026-03-30T08:30:42Z</time></trkpt><trkpt lat="46.05111339658153" lon="12.529504919053238"><ele>168.0</ele><time>2026-03-30T08:30:43Z</time></trkpt><trkpt lat="46.051205487038295" lon="12.52953237259835"><ele>169.16666666666666</ele><time>2026-03-30T08:30:44Z</time></trkpt><trkpt lat="46.05129530941058" lon="12.529563686570365"><ele>170.33333333333334</ele><time>2026-03-30T08:30:45Z</time></trkpt><trkpt lat="46.05138503418863" lon="12.529593335022316"><ele>171.5</ele><time>2026-03-30T08:30:46Z</time></trkpt><trkpt lat="46.051467356579906" lon="12.529606726818136"><ele>172.66666666666669</ele><time>2026-03-30T08:30:47Z</time></trkpt><trkpt lat="46.05153734884274" lon="12.529613048880954"><ele>173.83333333333334</ele><time>2026-03-30T08:30:48Z</time></trkpt><trkpt lat="46.051645020314936" lon="12.529656284553255"><ele>175.0</ele><time>2026-03-30T08:30:50Z</time></trkpt><trkpt lat="46.051689822485976" lon="12.529769940923016"><ele>175.0</ele><time>2026-03-30T08:30:52Z</time></trkpt><trkpt lat="46.05167781410711" lon="12.529940622536856"><ele>175.0</ele><time>2026-03-30T08:30:54Z</time></trkpt><trkpt lat="46.051637644416175" lon="12.530061627824383"><ele>175.0</ele><time>2026-03-30T08:30:55Z</time></trkpt><trkpt lat="46.05157257897277" lon="12.53018634512696"><ele>175.0</ele><time>2026-03-30T08:30:57Z</time></trkpt><trkpt lat="46.05154222468548" lon="12.530326959578783"><ele>175.0</ele><time>2026-03-30T08:30:59Z</time></trkpt><trkpt lat="46.0515444011937" lon="12.530428003658786"><ele>175.16666666666669</ele><time>2026-03-30T08:31:00Z</time></trkpt><trkpt lat="46.05157002224993" lon="12.530528695312796"><ele>175.33333333333334</ele><time>2026-03-30T08:31:01Z</time></trkpt><trkpt lat="46.05160457624069" lon="12.530625364829246"><ele>175.5</ele><time>2026-03-30T08:31:02Z</time></trkpt><trkpt lat="46.051660522347106" lon="12.53071065274874"><ele>175.66666666666666</ele><time>2026-03-30T08:31:03Z</time></trkpt><trkpt lat="46.05171847753958" lon="12.530782277574723"><ele>175.83333333333331</ele><time>2026-03-30T08:31:04Z</time></trkpt><trkpt lat="46.05178480433103" lon="12.530872526189977"><ele>176.0</ele><time>2026-03-30T08:31:05Z</time></trkpt><trkpt lat="46.05185888687322" lon="12.530964665010844"><ele>177.0</ele><time>2026-03-30T08:31:06Z</time></trkpt><trkpt lat="46.051925939701185" lon="12.531042160750449"><ele>178.0</ele><time>2026-03-30T08:31:07Z</time></trkpt><trkpt lat="46.051997358117895" lon="12.531119110681178"><ele>179.0</ele><time>2026-03-30T08:31:08Z</time></trkpt><trkpt lat="46.05206437092774" lon="12.531194459607628"><ele>180.0</ele><time>2026-03-30T08:31:09Z</time></trkpt><trkpt lat="46.05213861141076" lon="12.53125776325096"><ele>181.0</ele><time>2026-03-30T08:31:10Z</time></trkpt><trkpt lat="46.05221470987514" lon="12.531322447343046"><ele>182.0</ele><time>2026-03-30T08:31:11Z</time></trkpt><trkpt lat="46.05230261962406" lon="12.531373183659129"><ele>182.0</ele><time>2026-03-30T08:31:12Z</time></trkpt><trkpt lat="46.05239598566262" lon="12.531420742499733"><ele>182.0</ele><time>2026-03-30T08:31:13Z</time></trkpt><trkpt lat="46.05247673603135" lon="12.531470086365905"><ele>182.0</ele><time>2026-03-30T08:31:14Z</time></trkpt><trkpt lat="46.052539662364715" lon="12.53151188638056"><ele>182.0</ele><time>2026-03-30T08:31:15Z</time></trkpt><trkpt lat="46.05258430044513" lon="12.531576966066458"><ele>182.0</ele><time>2026-03-30T08:31:16Z</time></trkpt><trkpt lat="46.052636232905556" lon="12.5316686897874"><ele>182.0</ele><time>2026-03-30T08:31:17Z</time></trkpt><trkpt lat="46.05267331161725" lon="12.531762120186254"><ele>183.16666666666666</ele><time>2026-03-30T08:31:18Z</time></trkpt><trkpt lat="46.052707530343014" lon="12.531847614405915"><ele>184.33333333333331</ele><time>2026-03-30T08:31:19Z</time></trkpt><trkpt lat="46.05274618701425" lon="12.531945087882722"><ele>185.5</ele><time>2026-03-30T08:31:20Z</time></trkpt><trkpt lat="46.05279019813662" lon="12.532048584544162"><ele>186.66666666666666</ele><time>2026-03-30T08:31:21Z</time></trkpt><trkpt lat="46.052833406669635" lon="12.532148009429731"><ele>187.83333333333334</ele><time>2026-03-30T08:31:22Z</time></trkpt><trkpt lat="46.05287794822475" lon="12.532246649784767"><ele>189.0</ele><time>2026-03-30T08:31:23Z</time></trkpt><trkpt lat="46.052924195532" lon="12.532352435503688"><ele>189.0</ele><time>2026-03-30T08:31:24Z</time></trkpt><trkpt lat="46.05295675405143" lon="12.532459869364738"><ele>189.0</ele><time>2026-03-30T08:31:25Z</time></trkpt><trkpt lat="46.05296516709955" lon="12.53256416944108"><ele>189.0</ele><time>2026-03-30T08:31:26Z</time></trkpt><trkpt lat="46.05296991511354" lon="12.532671961604954"><ele>189.0</ele><time>2026-03-30T08:31:27Z</time></trkpt><trkpt lat="46.052962580171965" lon="12.532779849069758"><ele>189.0</ele><time>2026-03-30T08:31:28Z</time></trkpt><trkpt lat="46.05296613566893" lon="12.532879912464711"><ele>189.0</ele><time>2026-03-30T08:31:29Z</time></trkpt><trkpt lat="46.05296279075128" lon="12.532992502694487"><ele>189.2</ele><time>2026-03-30T08:31:31Z</time></trkpt><trkpt lat="46.05291537686763" lon="12.53306646181967"><ele>189.39999999999998</ele><time>2026-03-30T08:31:34Z</time></trkpt><trkpt lat="46.05283433943816" lon="12.533079892113582"><ele>189.6</ele><time>2026-03-30T08:31:35Z</time></trkpt><trkpt lat="46.05274363054888" lon="12.533116674664623"><ele>189.8</ele><time>2026-03-30T08:31:36Z</time></trkpt><trkpt lat="46.05263478345342" lon="12.533149985279467"><ele>190.0</ele><time>2026-03-30T08:31:37Z</time></trkpt><trkpt lat="46.05252300241959" lon="12.53316586402723"><ele>189.0</ele><time>2026-03-30T08:31:38Z</time></trkpt><trkpt lat="46.052422981618584" lon="12.533165780731014"><ele>188.0</ele><time>2026-03-30T08:31:39Z</time></trkpt><trkpt lat="46.052328148050584" lon="12.533173638486293"><ele>187.0</ele><time>2026-03-30T08:31:40Z</time></trkpt><trkpt lat="46.05223855613127" lon="12.533187374346731"><ele>186.0</ele><time>2026-03-30T08:31:41Z</time></trkpt><trkpt lat="46.052159975979635" lon="12.533197621134256"><ele>185.0</ele><time>2026-03-30T08:31:42Z</time></trkpt><trkpt lat="46.05207756356549" lon="12.53318324501397"><ele>184.0</ele><time>2026-03-30T08:31:43Z</time></trkpt><trkpt lat="46.051997421807506" lon="12.533201677912343"><ele>184.0</ele><time>2026-03-30T08:31:44Z</time></trkpt><trkpt lat="46.051920176593526" lon="12.53322212595386"><ele>184.0</ele><time>2026-03-30T08:31:45Z</time></trkpt><trkpt lat="46.05185128507684" lon="12.533247720907752"><ele>184.0</ele><time>2026-03-30T08:31:46Z</time></trkpt><trkpt lat="46.05178207240071" lon="12.533278652689233"><ele>184.0</ele><time>2026-03-30T08:31:47Z</time></trkpt><trkpt lat="46.051719692177265" lon="12.533312090174716"><ele>184.0</ele><time>2026-03-30T08:31:48Z</time></trkpt><trkpt lat="46.05165941546782" lon="12.533347238739243"><ele>184.0</ele><time>2026-03-30T08:31:49Z</time></trkpt><trkpt lat="46.051599402802765" lon="12.533383495431979"><ele>184.0</ele><time>2026-03-30T08:31:50Z</time></trkpt><trkpt lat="46.05154378525943" lon="12.533433081713126"><ele>182.33333333333334</ele><time>2026-03-30T08:31:51Z</time></trkpt><trkpt lat="46.05142987528993" lon="12.533502346417215"><ele>180.66666666666666</ele><time>2026-03-30T08:31:53Z</time></trkpt><trkpt lat="46.05133002654947" lon="12.533560907238975"><ele>179.0</ele><time>2026-03-30T08:31:55Z</time></trkpt><trkpt lat="46.051497755766285" lon="12.533830866848813"><ele>178.5</ele><time>2026-03-30T08:32:01Z</time></trkpt><trkpt lat="46.051594966590116" lon="12.533915806226542"><ele>178.0</ele><time>2026-03-30T08:32:02Z</time></trkpt><trkpt lat="46.05171041834843" lon="12.53402965137064"><ele>177.5</ele><time>2026-03-30T08:32:03Z</time></trkpt><trkpt lat="46.05180899893855" lon="12.534145780493695"><ele>177.0</ele><time>2026-03-30T08:32:04Z</time></trkpt><trkpt lat="46.0519095392511" lon="12.534240020277672"><ele>178.2</ele><time>2026-03-30T08:32:05Z</time></trkpt><trkpt lat="46.05201263420226" lon="12.534327889853024"><ele>179.39999999999998</ele><time>2026-03-30T08:32:06Z</time></trkpt><trkpt lat="46.05210966026212" lon="12.534407079256438"><ele>180.60000000000002</ele><time>2026-03-30T08:32:07Z</time></trkpt><trkpt lat="46.05220060722807" lon="12.534474343570224"><ele>181.8</ele><time>2026-03-30T08:32:08Z</time></trkpt><trkpt lat="46.05228446372758" lon="12.534531797961204"><ele>183.0</ele><time>2026-03-30T08:32:09Z</time></trkpt><trkpt lat="46.052356923879245" lon="12.534598490740294"><ele>183.0</ele><time>2026-03-30T08:32:10Z</time></trkpt><trkpt lat="46.0524175449515" lon="12.534676245874765"><ele>183.0</ele><time>2026-03-30T08:32:11Z</time></trkpt><trkpt lat="46.052474248141365" lon="12.534773852464292"><ele>183.0</ele><time>2026-03-30T08:32:12Z</time></trkpt><trkpt lat="46.052534318496136" lon="12.534857985041143"><ele>183.0</ele><time>2026-03-30T08:32:13Z</time></trkpt><trkpt lat="46.052595245677686" lon="12.534938703750225"><ele>183.0</ele><time>2026-03-30T08:32:14Z</time></trkpt><trkpt lat="46.05266715832835" lon="12.534990699095216"><ele>183.0</ele><time>2026-03-30T08:32:15Z</time></trkpt><trkpt lat="46.052744468401684" lon="12.535016835598828"><ele>184.2</ele><time>2026-03-30T08:32:16Z</time></trkpt><trkpt lat="46.05282969369987" lon="12.5350282722583"><ele>185.4</ele><time>2026-03-30T08:32:17Z</time></trkpt><trkpt lat="46.05291171927985" lon="12.53501749819184"><ele>186.6</ele><time>2026-03-30T08:32:18Z</time></trkpt><trkpt lat="46.05298681130652" lon="12.53500133488385"><ele>187.79999999999998</ele><time>2026-03-30T08:32:19Z</time></trkpt><trkpt lat="46.05309048518069" lon="12.534983428101873"><ele>189.0</ele><time>2026-03-30T08:32:21Z</time></trkpt><trkpt lat="46.05316937492093" lon="12.535160238205858"><ele>189.0</ele><time>2026-03-30T08:32:25Z</time></trkpt><trkpt lat="46.05316894250157" lon="12.535254447295154"><ele>189.0</ele><time>2026-03-30T08:32:26Z</time></trkpt><trkpt lat="46.05312520314684" lon="12.535398400175362"><ele>189.0</ele><time>2026-03-30T08:32:28Z</time></trkpt><trkpt lat="46.05319834422408" lon="12.53551558347083"><ele>189.0</ele><time>2026-03-30T08:32:31Z</time></trkpt><trkpt lat="46.05329875769189" lon="12.535535207899503"><ele>189.0</ele><time>2026-03-30T08:32:33Z</time></trkpt><trkpt lat="46.053398183376224" lon="12.535551864384843"><ele>189.0</ele><time>2026-03-30T08:32:34.999Z</time></trkpt><trkpt lat="46.05332588249457" lon="12.535542365683689"><ele>189.0</ele><time>2026-03-30T08:32:54Z</time></trkpt><trkpt lat="46.05323115314635" lon="12.535524575858046"><ele>189.0</ele><time>2026-03-30T08:32:56Z</time></trkpt><trkpt lat="46.05316526993261" lon="12.535491825397255"><ele>189.0</ele><time>2026-03-30T08:32:58Z</time></trkpt><trkpt lat="46.053110029176246" lon="12.535443872555877"><ele>189.0</ele><time>2026-03-30T08:33:07Z</time></trkpt><trkpt lat="46.05318842588867" lon="12.535046190467543"><ele>189.0</ele><time>2026-03-30T08:33:12Z</time></trkpt><trkpt lat="46.05321945729798" lon="12.534877755315824"><ele>189.0</ele><time>2026-03-30T08:33:14Z</time></trkpt><trkpt lat="46.05324912982841" lon="12.534789031400637"><ele>189.0</ele><time>2026-03-30T08:33:15Z</time></trkpt><trkpt lat="46.053290504349704" lon="12.534699159564182"><ele>189.0</ele><time>2026-03-30T08:33:16Z</time></trkpt><trkpt lat="46.053338127332935" lon="12.534611032327218"><ele>189.0</ele><time>2026-03-30T08:33:17Z</time></trkpt><trkpt lat="46.05338632382559" lon="12.53451606889376"><ele>189.0</ele><time>2026-03-30T08:33:18Z</time></trkpt><trkpt lat="46.05343402203893" lon="12.534423114385493"><ele>190.16666666666666</ele><time>2026-03-30T08:33:19Z</time></trkpt><trkpt lat="46.05348158280677" lon="12.534334723579825"><ele>191.33333333333331</ele><time>2026-03-30T08:33:20Z</time></trkpt><trkpt lat="46.0535358199547" lon="12.53426911472862"><ele>192.5</ele><time>2026-03-30T08:33:21Z</time></trkpt><trkpt lat="46.05360182741611" lon="12.534215822780881"><ele>193.66666666666666</ele><time>2026-03-30T08:33:22Z</time></trkpt><trkpt lat="46.05367777259496" lon="12.534174406131875"><ele>194.83333333333331</ele><time>2026-03-30T08:33:23Z</time></trkpt><trkpt lat="46.05376335034856" lon="12.534137571854107"><ele>196.0</ele><time>2026-03-30T08:33:24Z</time></trkpt><trkpt lat="46.053845761061105" lon="12.534099033725827"><ele>195.99999999999997</ele><time>2026-03-30T08:33:25Z</time></trkpt><trkpt lat="46.05393276732765" lon="12.534054938832147"><ele>196.0</ele><time>2026-03-30T08:33:26Z</time></trkpt><trkpt lat="46.054020993405395" lon="12.534007244049972"><ele>196.0</ele><time>2026-03-30T08:33:27Z</time></trkpt><trkpt lat="46.05410502597491" lon="12.533968857919493"><ele>196.0</ele><time>2026-03-30T08:33:28Z</time></trkpt><trkpt lat="46.05418575883059" lon="12.53392575658885"><ele>195.99999999999997</ele><time>2026-03-30T08:33:29Z</time></trkpt><trkpt lat="46.05426222439162" lon="12.53388984016408"><ele>196.0</ele><time>2026-03-30T08:33:30Z</time></trkpt><trkpt lat="46.05432761385977" lon="12.533859557237014"><ele>197.16666666666666</ele><time>2026-03-30T08:33:31Z</time></trkpt><trkpt lat="46.05444945447809" lon="12.533867811698943"><ele>198.33333333333331</ele><time>2026-03-30T08:33:33Z</time></trkpt><trkpt lat="46.05452050749031" lon="12.533873721451688"><ele>199.5</ele><time>2026-03-30T08:33:34Z</time></trkpt><trkpt lat="46.05458538700867" lon="12.533900721768063"><ele>200.66666666666669</ele><time>2026-03-30T08:33:35Z</time></trkpt><trkpt lat="46.0546537443336" lon="12.533930049475453"><ele>201.83333333333334</ele><time>2026-03-30T08:33:36Z</time></trkpt><trkpt lat="46.05472716920066" lon="12.533958250929103"><ele>203.0</ele><time>2026-03-30T08:33:37Z</time></trkpt><trkpt lat="46.0548005081162" lon="12.534038497415757"><ele>203.00000000000003</ele><time>2026-03-30T08:33:38Z</time></trkpt><trkpt lat="46.05487440426249" lon="12.534106395128115"><ele>203.0</ele><time>2026-03-30T08:33:39Z</time></trkpt><trkpt lat="46.054951684440894" lon="12.5341471434852"><ele>203.0</ele><time>2026-03-30T08:33:40Z</time></trkpt><trkpt lat="46.05502931291478" lon="12.534189433331333"><ele>203.0</ele><time>2026-03-30T08:33:41Z</time></trkpt><trkpt lat="46.05510535134461" lon="12.534218411042977"><ele>203.00000000000003</ele><time>2026-03-30T08:33:42Z</time></trkpt><trkpt lat="46.05519603300149" lon="12.534222503915636"><ele>203.0</ele><time>2026-03-30T08:33:43Z</time></trkpt><trkpt lat="46.05527311999942" lon="12.534222503917277"><ele>203.66666666666669</ele><time>2026-03-30T08:33:44Z</time></trkpt><trkpt lat="46.055345726113536" lon="12.534213764843644"><ele>204.33333333333334</ele><time>2026-03-30T08:33:45Z</time></trkpt><trkpt lat="46.05541382051017" lon="12.53420775209272"><ele>205.0</ele><time>2026-03-30T08:33:46Z</time></trkpt><trkpt lat="46.055513750487336" lon="12.534196214869437"><ele>205.66666666666669</ele><time>2026-03-30T08:33:48Z</time></trkpt><trkpt lat="46.05542795227809" lon="12.534206504237396"><ele>206.33333333333334</ele><time>2026-03-30T08:33:59Z</time></trkpt><trkpt lat="46.055328528034345" lon="12.534215283428097"><ele>207.0</ele><time>2026-03-30T08:34:01Z</time></trkpt><trkpt lat="46.055217849692745" lon="12.534215532728368"><ele>207.0</ele><time>2026-03-30T08:34:03Z</time></trkpt><trkpt lat="46.055211412354105" lon="12.534428923003109"><ele>207.0</ele><time>2026-03-30T08:34:07Z</time></trkpt><trkpt lat="46.05524762437353" lon="12.534516948650564"><ele>207.0</ele><time>2026-03-30T08:34:08Z</time></trkpt><trkpt lat="46.05527772232324" lon="12.53461746699513"><ele>207.0</ele><time>2026-03-30T08:34:09Z</time></trkpt><trkpt lat="46.05530214993529" lon="12.534708264857723"><ele>207.0</ele><time>2026-03-30T08:34:10Z</time></trkpt><trkpt lat="46.05533744920438" lon="12.534792078863783"><ele>207.0</ele><time>2026-03-30T08:34:11Z</time></trkpt><trkpt lat="46.055394166909664" lon="12.534848217504498"><ele>206.8</ele><time>2026-03-30T08:34:12Z</time></trkpt><trkpt lat="46.055449430434706" lon="12.534893949059148"><ele>206.6</ele><time>2026-03-30T08:34:13Z</time></trkpt><trkpt lat="46.0555087640369" lon="12.534988511923174"><ele>206.4</ele><time>2026-03-30T08:34:15Z</time></trkpt><trkpt lat="46.0555274571985" lon="12.53514908120753"><ele>206.20000000000002</ele><time>2026-03-30T08:34:17Z</time></trkpt><trkpt lat="46.055535021337846" lon="12.535323127325315"><ele>206.0</ele><time>2026-03-30T08:34:19Z</time></trkpt><trkpt lat="46.05549675737785" lon="12.535433354720652"><ele>205.20000000000002</ele><time>2026-03-30T08:34:20Z</time></trkpt><trkpt lat="46.055463660219104" lon="12.535570892913363"><ele>204.4</ele><time>2026-03-30T08:34:21Z</time></trkpt><trkpt lat="46.0554364150852" lon="12.535701091784357"><ele>203.6</ele><time>2026-03-30T08:34:22Z</time></trkpt><trkpt lat="46.05541071879084" lon="12.535821644433382"><ele>202.8</ele><time>2026-03-30T08:34:23Z</time></trkpt><trkpt lat="46.05539977594217" lon="12.535944293205134"><ele>202.0</ele><time>2026-03-30T08:34:24Z</time></trkpt><trkpt lat="46.05538676371228" lon="12.536064432320895"><ele>201.99999999999997</ele><time>2026-03-30T08:34:25Z</time></trkpt><trkpt lat="46.05538444704056" lon="12.536174670185945"><ele>202.0</ele><time>2026-03-30T08:34:26Z</time></trkpt><trkpt lat="46.05539385717305" lon="12.536283565126347"><ele>202.0</ele><time>2026-03-30T08:34:27Z</time></trkpt><trkpt lat="46.05540739722858" lon="12.536387838768661"><ele>202.0</ele><time>2026-03-30T08:34:28Z</time></trkpt><trkpt lat="46.05543087425721" lon="12.536491968633937"><ele>201.99999999999997</ele><time>2026-03-30T08:34:29Z</time></trkpt><trkpt lat="46.05546631465038" lon="12.536612517012243"><ele>202.0</ele><time>2026-03-30T08:34:30Z</time></trkpt><trkpt lat="46.05551331878675" lon="12.536732620095107"><ele>201.39999999999998</ele><time>2026-03-30T08:34:31Z</time></trkpt><trkpt lat="46.055558939535466" lon="12.536856132087687"><ele>200.79999999999998</ele><time>2026-03-30T08:34:32Z</time></trkpt><trkpt lat="46.05560702527063" lon="12.536980011755283"><ele>200.2</ele><time>2026-03-30T08:34:33Z</time></trkpt><trkpt lat="46.05565941002897" lon="12.537094168649999"><ele>199.6</ele><time>2026-03-30T08:34:34Z</time></trkpt><trkpt lat="46.055710598200484" lon="12.537208788384879"><ele>199.0</ele><time>2026-03-30T08:34:35Z</time></trkpt><trkpt lat="46.05576518513399" lon="12.537322941539694"><ele>198.83333333333331</ele><time>2026-03-30T08:34:36Z</time></trkpt><trkpt lat="46.055819735357545" lon="12.537434128377338"><ele>198.66666666666666</ele><time>2026-03-30T08:34:37Z</time></trkpt><trkpt lat="46.055856703422585" lon="12.537557396425045"><ele>198.5</ele><time>2026-03-30T08:34:38Z</time></trkpt><trkpt lat="46.055906825775764" lon="12.53766351912897"><ele>198.33333333333331</ele><time>2026-03-30T08:34:39Z</time></trkpt><trkpt lat="46.05595296738972" lon="12.5377537500476"><ele>198.16666666666666</ele><time>2026-03-30T08:34:40Z</time></trkpt><trkpt lat="46.056006023055154" lon="12.537823317668774"><ele>198.0</ele><time>2026-03-30T08:34:41Z</time></trkpt><trkpt lat="46.056038500444934" lon="12.537905370073572"><ele>198.0</ele><time>2026-03-30T08:34:42Z</time></trkpt><trkpt lat="46.05606590601206" lon="12.538074912938331"><ele>198.0</ele><time>2026-03-30T08:34:44Z</time></trkpt><trkpt lat="46.05606224099502" lon="12.538167358062832"><ele>198.0</ele><time>2026-03-30T08:34:45Z</time></trkpt><trkpt lat="46.05604581716305" lon="12.538265060651696"><ele>198.0</ele><time>2026-03-30T08:34:46Z</time></trkpt><trkpt lat="46.05602431410677" lon="12.538363723875548"><ele>198.0</ele><time>2026-03-30T08:34:47Z</time></trkpt><trkpt lat="46.055994854694355" lon="12.538447500377872"><ele>198.0</ele><time>2026-03-30T08:34:48Z</time></trkpt><trkpt lat="46.0559614377451" lon="12.5385258837502"><ele>198.0</ele><time>2026-03-30T08:34:49Z</time></trkpt><trkpt lat="46.055925791060076" lon="12.538603402202737"><ele>198.0</ele><time>2026-03-30T08:34:50Z</time></trkpt><trkpt lat="46.05589218310267" lon="12.538691805558955"><ele>198.0</ele><time>2026-03-30T08:34:51Z</time></trkpt><trkpt lat="46.055854428669164" lon="12.538785952531333"><ele>198.0</ele><time>2026-03-30T08:34:52Z</time></trkpt><trkpt lat="46.05580913307878" lon="12.53887414879148"><ele>198.0</ele><time>2026-03-30T08:34:53Z</time></trkpt><trkpt lat="46.05576895420282" lon="12.538960820459863"><ele>198.0</ele><time>2026-03-30T08:34:54Z</time></trkpt><trkpt lat="46.055711732220864" lon="12.539023436842703"><ele>198.0</ele><time>2026-03-30T08:34:55Z</time></trkpt><trkpt lat="46.055667983873235" lon="12.539106798948401"><ele>196.60000000000002</ele><time>2026-03-30T08:34:56Z</time></trkpt><trkpt lat="46.055595801835395" lon="12.539184905955832"><ele>195.20000000000002</ele><time>2026-03-30T08:34:57Z</time></trkpt><trkpt lat="46.055526151671245" lon="12.539267418576541"><ele>193.8</ele><time>2026-03-30T08:34:58Z</time></trkpt><trkpt lat="46.05545628199927" lon="12.539350743334614"><ele>192.4</ele><time>2026-03-30T08:34:59Z</time></trkpt><trkpt lat="46.055383763090774" lon="12.539447382548383"><ele>191.0</ele><time>2026-03-30T08:35:00Z</time></trkpt><trkpt lat="46.05530859171051" lon="12.539545782106293"><ele>190.8</ele><time>2026-03-30T08:35:01Z</time></trkpt><trkpt lat="46.055225635353146" lon="12.539648101361108"><ele>190.60000000000002</ele><time>2026-03-30T08:35:02Z</time></trkpt><trkpt lat="46.05515100000707" lon="12.539748995426326"><ele>190.4</ele><time>2026-03-30T08:35:03Z</time></trkpt><trkpt lat="46.05508353823564" lon="12.53984663572307"><ele>190.2</ele><time>2026-03-30T08:35:04Z</time></trkpt><trkpt lat="46.055022595567706" lon="12.539931163322425"><ele>190.0</ele><time>2026-03-30T08:35:05Z</time></trkpt><trkpt lat="46.05496253665965" lon="12.54001249650322"><ele>190.0</ele><time>2026-03-30T08:35:07Z</time></trkpt><trkpt lat="46.055020577132396" lon="12.539941938650466"><ele>190.0</ele><time>2026-03-30T08:35:15Z</time></trkpt><trkpt lat="46.055066687202874" lon="12.539869275507193"><ele>190.0</ele><time>2026-03-30T08:35:16Z</time></trkpt><trkpt lat="46.05518985987637" lon="12.539746043216212"><ele>190.0</ele><time>2026-03-30T08:35:17Z</time></trkpt><trkpt lat="46.05525657233587" lon="12.539653526678654"><ele>190.0</ele><time>2026-03-30T08:35:18Z</time></trkpt><trkpt lat="46.055298303702216" lon="12.539545577405361"><ele>190.2</ele><time>2026-03-30T08:35:19Z</time></trkpt><trkpt lat="46.05537240750539" lon="12.539459839570247"><ele>190.4</ele><time>2026-03-30T08:35:20Z</time></trkpt><trkpt lat="46.05543891355536" lon="12.539379069492528"><ele>190.60000000000002</ele><time>2026-03-30T08:35:21Z</time></trkpt><trkpt lat="46.05551812140824" lon="12.539290965785236"><ele>190.8</ele><time>2026-03-30T08:35:22Z</time></trkpt><trkpt lat="46.0556034404179" lon="12.539191530101704"><ele>191.0</ele><time>2026-03-30T08:35:23Z</time></trkpt><trkpt lat="46.05567665253675" lon="12.539096669983982"><ele>191.0</ele><time>2026-03-30T08:35:24Z</time></trkpt><trkpt lat="46.05574242054275" lon="12.539007766058534"><ele>191.0</ele><time>2026-03-30T08:35:25Z</time></trkpt><trkpt lat="46.05580010521301" lon="12.53891543258271"><ele>191.0</ele><time>2026-03-30T08:35:26Z</time></trkpt><trkpt lat="46.05585509056862" lon="12.538815327865843"><ele>191.0</ele><time>2026-03-30T08:35:27Z</time></trkpt><trkpt lat="46.05590418461455" lon="12.538692121137746"><ele>191.0</ele><time>2026-03-30T08:35:28Z</time></trkpt><trkpt lat="46.05595340041252" lon="12.538591297602709"><ele>191.0</ele><time>2026-03-30T08:35:29Z</time></trkpt><trkpt lat="46.05599096845458" lon="12.53846499490606"><ele>191.5</ele><time>2026-03-30T08:35:31Z</time></trkpt><trkpt lat="46.056064398883585" lon="12.53856853792536"><ele>192.0</ele><time>2026-03-30T08:35:34Z</time></trkpt><trkpt lat="46.05611078440613" lon="12.538663663597886"><ele>192.5</ele><time>2026-03-30T08:35:37Z</time></trkpt><trkpt lat="46.05615308830289" lon="12.538743462017926"><ele>193.0</ele><time>2026-03-30T08:35:39Z</time></trkpt><trkpt lat="46.05620331653467" lon="12.538832595834682"><ele>193.50000000000003</ele><time>2026-03-30T08:35:41Z</time></trkpt><trkpt lat="46.05627375779397" lon="12.53883956622286"><ele>194.0</ele><time>2026-03-30T08:35:44Z</time></trkpt><trkpt lat="46.056322147132384" lon="12.538750400683332"><ele>194.66666666666669</ele><time>2026-03-30T08:35:46Z</time></trkpt><trkpt lat="46.056378972445636" lon="12.53864996844395"><ele>195.33333333333334</ele><time>2026-03-30T08:35:48Z</time></trkpt><trkpt lat="46.05646519991055" lon="12.538624496064722"><ele>196.0</ele><time>2026-03-30T08:35:50Z</time></trkpt><trkpt lat="46.05654842815294" lon="12.538636394694718"><ele>196.66666666666669</ele><time>2026-03-30T08:35:52Z</time></trkpt><trkpt lat="46.05661793663777" lon="12.538681665774531"><ele>197.33333333333334</ele><time>2026-03-30T08:35:54Z</time></trkpt><trkpt lat="46.05666424705566" lon="12.53876910772248"><ele>198.0</ele><time>2026-03-30T08:35:56Z</time></trkpt><trkpt lat="46.05671963684677" lon="12.538931174500716"><ele>196.5</ele><time>2026-03-30T08:35:58Z</time></trkpt><trkpt lat="46.05672984875412" lon="12.53903038331904"><ele>195.0</ele><time>2026-03-30T08:35:59Z</time></trkpt><trkpt lat="46.056732013084705" lon="12.539133881166853"><ele>193.5</ele><time>2026-03-30T08:36:00Z</time></trkpt><trkpt lat="46.05672629472403" lon="12.539236927717083"><ele>192.0</ele><time>2026-03-30T08:36:01Z</time></trkpt><trkpt lat="46.05673205474089" lon="12.53935472787619"><ele>190.5</ele><time>2026-03-30T08:36:02Z</time></trkpt><trkpt lat="46.0567642247924" lon="12.53947288715935"><ele>189.0</ele><time>2026-03-30T08:36:03Z</time></trkpt><trkpt lat="46.05680371701418" lon="12.539582101989156"><ele>188.39999999999998</ele><time>2026-03-30T08:36:04Z</time></trkpt><trkpt lat="46.05682572370669" lon="12.539682435282895"><ele>187.8</ele><time>2026-03-30T08:36:05Z</time></trkpt><trkpt lat="46.05689578890574" lon="12.539857295802696"><ele>187.2</ele><time>2026-03-30T08:36:07Z</time></trkpt><trkpt lat="46.056955497281336" lon="12.539970478918963"><ele>186.60000000000002</ele><time>2026-03-30T08:36:08Z</time></trkpt><trkpt lat="46.05702174203533" lon="12.54010267992163"><ele>186.0</ele><time>2026-03-30T08:36:09Z</time></trkpt><trkpt lat="46.0570694297301" lon="12.54024011592483"><ele>186.0</ele><time>2026-03-30T08:36:10Z</time></trkpt><trkpt lat="46.05710538532455" lon="12.540330298938747"><ele>186.0</ele><time>2026-03-30T08:36:11Z</time></trkpt><trkpt lat="46.05715308992686" lon="12.540419949557405"><ele>186.0</ele><time>2026-03-30T08:36:12Z</time></trkpt><trkpt lat="46.057256024185754" lon="12.540376112280043"><ele>186.0</ele><time>2026-03-30T08:36:15Z</time></trkpt><trkpt lat="46.0573111142198" lon="12.540317757027697"><ele>186.0</ele><time>2026-03-30T08:36:16Z</time></trkpt><trkpt lat="46.057351224635354" lon="12.540236060049482"><ele>186.0</ele><time>2026-03-30T08:36:17Z</time></trkpt><trkpt lat="46.05739300122085" lon="12.540118610958183"><ele>186.0</ele><time>2026-03-30T08:36:18Z</time></trkpt><trkpt lat="46.05741748001454" lon="12.539992430954053"><ele>186.0</ele><time>2026-03-30T08:36:19Z</time></trkpt><trkpt lat="46.05744318177878" lon="12.539875538140018"><ele>186.0</ele><time>2026-03-30T08:36:20Z</time></trkpt><trkpt lat="46.05746379893261" lon="12.539787653522273"><ele>186.0</ele><time>2026-03-30T08:36:21Z</time></trkpt><trkpt lat="46.05749950428606" lon="12.539677334148317"><ele>186.0</ele><time>2026-03-30T08:36:23Z</time></trkpt><trkpt lat="46.05761363830438" lon="12.539663082088405"><ele>186.0</ele><time>2026-03-30T08:36:25Z</time></trkpt><trkpt lat="46.057702210386985" lon="12.5396798453525"><ele>187.8</ele><time>2026-03-30T08:36:26Z</time></trkpt><trkpt lat="46.05779184041244" lon="12.539694218200037"><ele>189.60000000000002</ele><time>2026-03-30T08:36:27Z</time></trkpt><trkpt lat="46.05785822564101" lon="12.539729193339923"><ele>191.4</ele><time>2026-03-30T08:36:28Z</time></trkpt><trkpt lat="46.05795714542837" lon="12.539810932446967"><ele>193.2</ele><time>2026-03-30T08:36:30Z</time></trkpt><trkpt lat="46.05805568164755" lon="12.539844857381258"><ele>195.0</ele><time>2026-03-30T08:36:32Z</time></trkpt><trkpt lat="46.058139954213104" lon="12.539759989502834"><ele>195.0</ele><time>2026-03-30T08:36:34Z</time></trkpt><trkpt lat="46.058184857440054" lon="12.539696015258698"><ele>195.0</ele><time>2026-03-30T08:36:35Z</time></trkpt><trkpt lat="46.0582497000638" lon="12.539642809567885"><ele>195.0</ele><time>2026-03-30T08:36:36Z</time></trkpt><trkpt lat="46.058330213524926" lon="12.539607247275363"><ele>195.0</ele><time>2026-03-30T08:36:37Z</time></trkpt><trkpt lat="46.058402797225725" lon="12.53957584388171"><ele>195.0</ele><time>2026-03-30T08:36:38Z</time></trkpt><trkpt lat="46.05847719539456" lon="12.539584759369838"><ele>195.0</ele><time>2026-03-30T08:36:40Z</time></trkpt><trkpt lat="46.058581118273274" lon="12.539564598770156"><ele>196.2</ele><time>2026-03-30T08:36:42Z</time></trkpt><trkpt lat="46.05868454218583" lon="12.539523421216357"><ele>197.4</ele><time>2026-03-30T08:36:44Z</time></trkpt><trkpt lat="46.0587467020926" lon="12.53959747346199"><ele>198.60000000000002</ele><time>2026-03-30T08:36:52Z</time></trkpt><trkpt lat="46.058806196201445" lon="12.53972092501008"><ele>199.8</ele><time>2026-03-30T08:36:54Z</time></trkpt><trkpt lat="46.05891028460623" lon="12.539816041235994"><ele>201.0</ele><time>2026-03-30T08:36:56Z</time></trkpt><trkpt lat="46.058971967438616" lon="12.539865442566587"><ele>201.0</ele><time>2026-03-30T08:36:57Z</time></trkpt><trkpt lat="46.05904030838308" lon="12.539898772195546"><ele>201.0</ele><time>2026-03-30T08:36:58Z</time></trkpt><trkpt lat="46.059096396440474" lon="12.539953547522094"><ele>201.0</ele><time>2026-03-30T08:36:59Z</time></trkpt><trkpt lat="46.05914933616455" lon="12.54007744398328"><ele>201.0</ele><time>2026-03-30T08:37:01Z</time></trkpt><trkpt lat="46.059159755456534" lon="12.540174352243111"><ele>201.0</ele><time>2026-03-30T08:37:02Z</time></trkpt><trkpt lat="46.0591763514895" lon="12.540338856751985"><ele>201.0</ele><time>2026-03-30T08:37:04Z</time></trkpt><trkpt lat="46.05921035232578" lon="12.540435398613566"><ele>202.20000000000002</ele><time>2026-03-30T08:37:06Z</time></trkpt><trkpt lat="46.05923128745322" lon="12.5405217673553"><ele>203.4</ele><time>2026-03-30T08:37:07Z</time></trkpt><trkpt lat="46.059296638174835" lon="12.54070698140403"><ele>204.6</ele><time>2026-03-30T08:37:09Z</time></trkpt><trkpt lat="46.059345415454665" lon="12.540815116762598"><ele>205.8</ele><time>2026-03-30T08:37:10Z</time></trkpt><trkpt lat="46.059396166597296" lon="12.540942706718102"><ele>207.0</ele><time>2026-03-30T08:37:12Z</time></trkpt><trkpt lat="46.05943751044369" lon="12.541032206743372"><ele>207.0</ele><time>2026-03-30T08:37:13Z</time></trkpt><trkpt lat="46.05949010094931" lon="12.541101861813198"><ele>207.0</ele><time>2026-03-30T08:37:14Z</time></trkpt><trkpt lat="46.0595510541182" lon="12.541182087600198"><ele>207.0</ele><time>2026-03-30T08:37:15Z</time></trkpt><trkpt lat="46.059626321398625" lon="12.541222366062469"><ele>207.0</ele><time>2026-03-30T08:37:16Z</time></trkpt><trkpt lat="46.059702358223056" lon="12.541254850851185"><ele>207.0</ele><time>2026-03-30T08:37:17Z</time></trkpt><trkpt lat="46.05978609849203" lon="12.54135826984171"><ele>207.0</ele><time>2026-03-30T08:37:19Z</time></trkpt><trkpt lat="46.05989058295878" lon="12.541438137682128"><ele>208.39999999999998</ele><time>2026-03-30T08:37:21Z</time></trkpt><trkpt lat="46.059990307479545" lon="12.541447853644376"><ele>209.79999999999998</ele><time>2026-03-30T08:37:23Z</time></trkpt><trkpt lat="46.06008258912306" lon="12.541453455819894"><ele>211.2</ele><time>2026-03-30T08:37:25Z</time></trkpt><trkpt lat="46.060138203073926" lon="12.541520102205213"><ele>212.6</ele><time>2026-03-30T08:37:27Z</time></trkpt><trkpt lat="46.06021726524813" lon="12.541669994220673"><ele>214.0</ele><time>2026-03-30T08:37:29Z</time></trkpt><trkpt lat="46.06032785927028" lon="12.541715319725625"><ele>213.99999999999997</ele><time>2026-03-30T08:37:31Z</time></trkpt><trkpt lat="46.060394069775455" lon="12.541693040172607"><ele>214.0</ele><time>2026-03-30T08:37:32Z</time></trkpt><trkpt lat="46.060457041039875" lon="12.541681653909823"><ele>214.0</ele><time>2026-03-30T08:37:33Z</time></trkpt><trkpt lat="46.06056753672317" lon="12.541646025193947"><ele>214.0</ele><time>2026-03-30T08:37:35Z</time></trkpt><trkpt lat="46.0606384144463" lon="12.541621444466992"><ele>213.99999999999997</ele><time>2026-03-30T08:37:36Z</time></trkpt><trkpt lat="46.06074849860099" lon="12.541621684786941"><ele>214.0</ele><time>2026-03-30T08:37:38Z</time></trkpt><trkpt lat="46.06081082169484" lon="12.541662686663182"><ele>215.16666666666666</ele><time>2026-03-30T08:37:39Z</time></trkpt><trkpt lat="46.060871263924916" lon="12.541708349345566"><ele>216.33333333333331</ele><time>2026-03-30T08:37:40Z</time></trkpt><trkpt lat="46.06093577641528" lon="12.541744920953482"><ele>217.5</ele><time>2026-03-30T08:37:42Z</time></trkpt><trkpt lat="46.061033936307716" lon="12.54169958790112"><ele>218.66666666666669</ele><time>2026-03-30T08:37:44Z</time></trkpt><trkpt lat="46.06105885978805" lon="12.541613064253337"><ele>219.83333333333334</ele><time>2026-03-30T08:37:49Z</time></trkpt><trkpt lat="46.06114994106975" lon="12.54156810111668"><ele>221.0</ele><time>2026-03-30T08:37:52Z</time></trkpt><trkpt lat="46.06119945651712" lon="12.541498558322045"><ele>221.00000000000003</ele><time>2026-03-30T08:37:53Z</time></trkpt><trkpt lat="46.061274536919164" lon="12.541414014642024"><ele>221.0</ele><time>2026-03-30T08:37:55Z</time></trkpt><trkpt lat="46.06137110025229" lon="12.541445472958241"><ele>221.0</ele><time>2026-03-30T08:37:57Z</time></trkpt><trkpt lat="46.061433749119765" lon="12.541434650637315"><ele>221.0</ele><time>2026-03-30T08:37:59Z</time></trkpt><trkpt lat="46.061523797456196" lon="12.541357328689234"><ele>221.00000000000003</ele><time>2026-03-30T08:38:02Z</time></trkpt><trkpt lat="46.06159243683212" lon="12.541319936721017"><ele>221.0</ele><time>2026-03-30T08:38:04Z</time></trkpt><trkpt lat="46.06172762948302" lon="12.541287877106388"><ele>221.00000000000003</ele><time>2026-03-30T08:38:39Z</time></trkpt><trkpt lat="46.061790007629234" lon="12.541269016276944"><ele>221.0</ele><time>2026-03-30T08:38:44Z</time></trkpt><trkpt lat="46.06171864244546" lon="12.54133296212648"><ele>221.0</ele><time>2026-03-30T08:38:59Z</time></trkpt><trkpt lat="46.0616427461294" lon="12.541343086147622"><ele>221.0</ele><time>2026-03-30T08:39:04Z</time></trkpt><trkpt lat="46.06155683510936" lon="12.541399259096274"><ele>221.00000000000003</ele><time>2026-03-30T08:39:06Z</time></trkpt><trkpt lat="46.06149803103574" lon="12.541457191342397"><ele>221.0</ele><time>2026-03-30T08:39:08Z</time></trkpt><trkpt lat="46.061424425237306" lon="12.541464065419442"><ele>221.00000000000003</ele><time>2026-03-30T08:39:10Z</time></trkpt><trkpt lat="46.061327971874995" lon="12.541453415825249"><ele>221.0</ele><time>2026-03-30T08:39:12Z</time></trkpt><trkpt lat="46.061254808051515" lon="12.54153283652843"><ele>221.0</ele><time>2026-03-30T08:39:14Z</time></trkpt><trkpt lat="46.06117955339045" lon="12.541597127602417"><ele>221.0</ele><time>2026-03-30T08:39:16Z</time></trkpt><trkpt lat="46.0611120291233" lon="12.541652908622318"><ele>221.00000000000003</ele><time>2026-03-30T08:39:18Z</time></trkpt><trkpt lat="46.061110168987675" lon="12.541777970688125"><ele>221.0</ele><time>2026-03-30T08:39:21Z</time></trkpt><trkpt lat="46.06105836325042" lon="12.541865861967633"><ele>221.00000000000003</ele><time>2026-03-30T08:39:23Z</time></trkpt><trkpt lat="46.06101934138547" lon="12.541942649228103"><ele>221.0</ele><time>2026-03-30T08:39:25Z</time></trkpt><trkpt lat="46.061046211055206" lon="12.542048544188505"><ele>221.0</ele><time>2026-03-30T08:39:27Z</time></trkpt><trkpt lat="46.06106841521473" lon="12.542142956951656"><ele>221.0</ele><time>2026-03-30T08:39:29Z</time></trkpt><trkpt lat="46.0610087424072" lon="12.542189973138287"><ele>221.0</ele><time>2026-03-30T08:42:00Z</time></trkpt><trkpt lat="46.061029011409275" lon="12.542092901147901"><ele>221.00000000000003</ele><time>2026-03-30T08:42:17Z</time></trkpt><trkpt lat="46.06101080456313" lon="12.541976356080317"><ele>221.0</ele><time>2026-03-30T08:42:20Z</time></trkpt><trkpt lat="46.06105403868238" lon="12.541865946688327"><ele>221.00000000000003</ele><time>2026-03-30T08:42:23Z</time></trkpt><trkpt lat="46.06108816091868" lon="12.541745892865825"><ele>221.0</ele><time>2026-03-30T08:42:26Z</time></trkpt><trkpt lat="46.06101036345136" lon="12.541763813465378"><ele>221.0</ele><time>2026-03-30T08:42:31Z</time></trkpt><trkpt lat="46.060936044416614" lon="12.541772832745258"><ele>221.0</ele><time>2026-03-30T08:42:33Z</time></trkpt><trkpt lat="46.060854548411484" lon="12.541714292794888"><ele>221.00000000000003</ele><time>2026-03-30T08:42:35Z</time></trkpt><trkpt lat="46.06077889452496" lon="12.54166433788278"><ele>221.0</ele><time>2026-03-30T08:42:37Z</time></trkpt><trkpt lat="46.06068938307519" lon="12.54165309126464"><ele>221.0</ele><time>2026-03-30T08:42:39Z</time></trkpt><trkpt lat="46.060588574175" lon="12.541678405047346"><ele>221.00000000000003</ele><time>2026-03-30T08:42:41Z</time></trkpt><trkpt lat="46.06052442226883" lon="12.541714190501558"><ele>221.00000000000003</ele><time>2026-03-30T08:42:44Z</time></trkpt><trkpt lat="46.06061955275629" lon="12.541638679537956"><ele>221.0</ele><time>2026-03-30T08:42:56Z</time></trkpt><trkpt lat="46.060728363389146" lon="12.541621096778506"><ele>221.0</ele><time>2026-03-30T08:42:58Z</time></trkpt><trkpt lat="46.060821591517005" lon="12.541681917284091"><ele>221.0</ele><time>2026-03-30T08:43:01Z</time></trkpt><trkpt lat="46.06093108931913" lon="12.541718446073713"><ele>221.00000000000003</ele><time>2026-03-30T08:43:09Z</time></trkpt><trkpt lat="46.06103415868956" lon="12.541700684628767"><ele>221.00000000000003</ele><time>2026-03-30T08:43:11Z</time></trkpt><trkpt lat="46.06108985591366" lon="12.541597674963093"><ele>221.0</ele><time>2026-03-30T08:43:13Z</time></trkpt><trkpt lat="46.061162717475106" lon="12.541548094558626"><ele>221.0</ele><time>2026-03-30T08:43:15Z</time></trkpt><trkpt lat="46.06123150060679" lon="12.54148159063324"><ele>221.00000000000003</ele><time>2026-03-30T08:43:17Z</time></trkpt><trkpt lat="46.06132369233733" lon="12.541416197885633"><ele>221.0</ele><time>2026-03-30T08:43:19Z</time></trkpt><trkpt lat="46.06138715579381" lon="12.541433298299378"><ele>221.0</ele><time>2026-03-30T08:43:20Z</time></trkpt><trkpt lat="46.06146785315185" lon="12.541410685996366"><ele>221.0</ele><time>2026-03-30T08:43:23Z</time></trkpt><trkpt lat="46.061532063238204" lon="12.54136228549775"><ele>221.00000000000003</ele><time>2026-03-30T08:43:25Z</time></trkpt><trkpt lat="46.061598837245135" lon="12.541319728635901"><ele>221.0</ele><time>2026-03-30T08:43:27Z</time></trkpt><trkpt lat="46.06151048685592" lon="12.541383135793795"><ele>221.00000000000003</ele><time>2026-03-30T08:44:50Z</time></trkpt><trkpt lat="46.061453858363464" lon="12.541447995460757"><ele>221.0</ele><time>2026-03-30T08:44:52Z</time></trkpt><trkpt lat="46.0613480539224" lon="12.541444000085503"><ele>221.0</ele><time>2026-03-30T08:44:55Z</time></trkpt><trkpt lat="46.06125088987063" lon="12.541488060792245"><ele>221.0</ele><time>2026-03-30T08:44:57Z</time></trkpt><trkpt lat="46.061195018207705" lon="12.541554139813641"><ele>221.00000000000003</ele><time>2026-03-30T08:44:59Z</time></trkpt><trkpt lat="46.061119353087115" lon="12.541636951905296"><ele>221.0</ele><time>2026-03-30T08:45:03Z</time></trkpt><trkpt lat="46.06104345220416" lon="12.541723809737823"><ele>221.00000000000003</ele><time>2026-03-30T08:45:06Z</time></trkpt><trkpt lat="46.060940420481685" lon="12.541724637377314"><ele>221.0</ele><time>2026-03-30T08:45:08Z</time></trkpt><trkpt lat="46.06087154817732" lon="12.54167793764362"><ele>221.0</ele><time>2026-03-30T08:45:10Z</time></trkpt><trkpt lat="46.06081332758266" lon="12.541642011357371"><ele>221.0</ele><time>2026-03-30T08:45:11Z</time></trkpt><trkpt lat="46.06074858892141" lon="12.541618405375798"><ele>221.00000000000003</ele><time>2026-03-30T08:45:12Z</time></trkpt><trkpt lat="46.060667877685574" lon="12.541623074823784"><ele>221.0</ele><time>2026-03-30T08:45:13Z</time></trkpt><trkpt lat="46.06059975880427" lon="12.541662783410448"><ele>219.83333333333334</ele><time>2026-03-30T08:45:14Z</time></trkpt><trkpt lat="46.06053192220565" lon="12.541698556667267"><ele>218.66666666666669</ele><time>2026-03-30T08:45:15Z</time></trkpt><trkpt lat="46.060461108523704" lon="12.541724915129699"><ele>217.5</ele><time>2026-03-30T08:45:16Z</time></trkpt><trkpt lat="46.0603538077467" lon="12.541706053403718"><ele>216.33333333333331</ele><time>2026-03-30T08:45:18Z</time></trkpt><trkpt lat="46.06028174340155" lon="12.541701199081984"><ele>215.16666666666666</ele><time>2026-03-30T08:45:20Z</time></trkpt><trkpt lat="46.06019717303717" lon="12.541637591515594"><ele>214.0</ele><time>2026-03-30T08:45:24Z</time></trkpt><trkpt lat="46.06013519799464" lon="12.541488886312036"><ele>214.0</ele><time>2026-03-30T08:45:26Z</time></trkpt><trkpt lat="46.060038239001436" lon="12.541472142107006"><ele>213.99999999999997</ele><time>2026-03-30T08:45:29Z</time></trkpt><trkpt lat="46.05994486536735" lon="12.541461049273591"><ele>213.99999999999997</ele><time>2026-03-30T08:45:31Z</time></trkpt><trkpt lat="46.05984704162825" lon="12.54141958782704"><ele>214.0</ele><time>2026-03-30T08:45:33Z</time></trkpt><trkpt lat="46.05975750132443" lon="12.541358419313275"><ele>214.0</ele><time>2026-03-30T08:45:35Z</time></trkpt><trkpt lat="46.0597136782786" lon="12.541292986637826"><ele>212.83333333333331</ele><time>2026-03-30T08:45:36Z</time></trkpt><trkpt lat="46.059616822299986" lon="12.541229863057188"><ele>211.66666666666666</ele><time>2026-03-30T08:45:38Z</time></trkpt><trkpt lat="46.05951485540145" lon="12.541146920680807"><ele>210.5</ele><time>2026-03-30T08:45:40Z</time></trkpt><trkpt lat="46.05945687961715" lon="12.54108590001516"><ele>209.33333333333331</ele><time>2026-03-30T08:45:41Z</time></trkpt><trkpt lat="46.05941632840851" lon="12.541009444818325"><ele>208.16666666666666</ele><time>2026-03-30T08:45:42Z</time></trkpt><trkpt lat="46.059373578361665" lon="12.540922544904353"><ele>207.0</ele><time>2026-03-30T08:45:43Z</time></trkpt><trkpt lat="46.059348212235875" lon="12.5408375722582"><ele>207.0</ele><time>2026-03-30T08:45:44Z</time></trkpt><trkpt lat="46.059293371879924" lon="12.54069376662772"><ele>207.0</ele><time>2026-03-30T08:45:46Z</time></trkpt><trkpt lat="46.05926497419254" lon="12.540602982149197"><ele>207.0</ele><time>2026-03-30T08:45:47Z</time></trkpt><trkpt lat="46.059227608778684" lon="12.540526910899235"><ele>207.0</ele><time>2026-03-30T08:45:48Z</time></trkpt><trkpt lat="46.05918600508972" lon="12.54038391849822"><ele>207.0</ele><time>2026-03-30T08:45:50Z</time></trkpt><trkpt lat="46.059160118871006" lon="12.54026542699746"><ele>207.0</ele><time>2026-03-30T08:45:52Z</time></trkpt><trkpt lat="46.05913900592958" lon="12.540100036371497"><ele>205.8</ele><time>2026-03-30T08:45:54Z</time></trkpt><trkpt lat="46.05909541549211" lon="12.53997361007954"><ele>204.6</ele><time>2026-03-30T08:45:56Z</time></trkpt><trkpt lat="46.05896138376574" lon="12.539880299490576"><ele>203.4</ele><time>2026-03-30T08:45:58Z</time></trkpt><trkpt lat="46.058884031328326" lon="12.539824299214857"><ele>202.20000000000002</ele><time>2026-03-30T08:45:59Z</time></trkpt><trkpt lat="46.05880551005841" lon="12.53978379764123"><ele>201.0</ele><time>2026-03-30T08:46:00Z</time></trkpt><trkpt lat="46.05874613451846" lon="12.539639386836532"><ele>201.0</ele><time>2026-03-30T08:46:02Z</time></trkpt><trkpt lat="46.05870114477291" lon="12.539573154222436"><ele>201.0</ele><time>2026-03-30T08:46:04Z</time></trkpt><trkpt lat="46.05863321593367" lon="12.539581478232531"><ele>201.0</ele><time>2026-03-30T08:46:06Z</time></trkpt><trkpt lat="46.05851973488167" lon="12.539609962650744"><ele>201.0</ele><time>2026-03-30T08:46:08Z</time></trkpt><trkpt lat="46.05841251353196" lon="12.539596452750327"><ele>201.0</ele><time>2026-03-30T08:46:10Z</time></trkpt><trkpt lat="46.058292517061034" lon="12.539666263730307"><ele>199.8</ele><time>2026-03-30T08:46:12Z</time></trkpt><trkpt lat="46.05820929920936" lon="12.53970644574041"><ele>198.60000000000002</ele><time>2026-03-30T08:46:13Z</time></trkpt><trkpt lat="46.058143918170316" lon="12.539747791006173"><ele>197.4</ele><time>2026-03-30T08:46:14Z</time></trkpt><trkpt lat="46.058045970635824" lon="12.539836807690351"><ele>196.2</ele><time>2026-03-30T08:46:16Z</time></trkpt><trkpt lat="46.057952668981095" lon="12.539829665845552"><ele>195.0</ele><time>2026-03-30T08:46:18Z</time></trkpt><trkpt lat="46.05787850308466" lon="12.539730385699352"><ele>195.0</ele><time>2026-03-30T08:46:20Z</time></trkpt><trkpt lat="46.05776406249506" lon="12.539700342426196"><ele>195.0</ele><time>2026-03-30T08:46:22Z</time></trkpt><trkpt lat="46.057656505251344" lon="12.539681013866387"><ele>195.0</ele><time>2026-03-30T08:46:24Z</time></trkpt><trkpt lat="46.057546735744914" lon="12.539698072740025"><ele>195.0</ele><time>2026-03-30T08:46:26Z</time></trkpt><trkpt lat="46.05747551496177" lon="12.539791524114417"><ele>195.0</ele><time>2026-03-30T08:46:29Z</time></trkpt><trkpt lat="46.05744910435911" lon="12.539913841235613"><ele>193.5</ele><time>2026-03-30T08:46:30Z</time></trkpt><trkpt lat="46.05742735969662" lon="12.540051173812808"><ele>192.0</ele><time>2026-03-30T08:46:31Z</time></trkpt><trkpt lat="46.05740475544721" lon="12.54014686485134"><ele>190.5</ele><time>2026-03-30T08:46:32Z</time></trkpt><trkpt lat="46.05737883243536" lon="12.540230522633756"><ele>189.0</ele><time>2026-03-30T08:46:33Z</time></trkpt><trkpt lat="46.05730516102678" lon="12.540348191865775"><ele>187.5</ele><time>2026-03-30T08:46:35Z</time></trkpt><trkpt lat="46.05722826921739" lon="12.540427268393183"><ele>186.0</ele><time>2026-03-30T08:46:37Z</time></trkpt><trkpt lat="46.05724762902915" lon="12.540573399995344"><ele>185.60000000000002</ele><time>2026-03-30T08:46:41Z</time></trkpt><trkpt lat="46.05729178517423" lon="12.540686924933384"><ele>185.2</ele><time>2026-03-30T08:46:42Z</time></trkpt><trkpt lat="46.05731189786454" lon="12.540811459007939"><ele>184.8</ele><time>2026-03-30T08:46:43Z</time></trkpt><trkpt lat="46.05732255595381" lon="12.540939050456123"><ele>184.39999999999998</ele><time>2026-03-30T08:46:44Z</time></trkpt><trkpt lat="46.057325201553724" lon="12.541038802634828"><ele>184.0</ele><time>2026-03-30T08:46:45Z</time></trkpt><trkpt lat="46.057339211932415" lon="12.541202906865376"><ele>184.0</ele><time>2026-03-30T08:46:47Z</time></trkpt><trkpt lat="46.05733956852352" lon="12.541307654583093"><ele>184.0</ele><time>2026-03-30T08:46:48Z</time></trkpt><trkpt lat="46.05734243625423" lon="12.541435365635012"><ele>184.0</ele><time>2026-03-30T08:46:49Z</time></trkpt><trkpt lat="46.05735189299385" lon="12.541573493085194"><ele>184.0</ele><time>2026-03-30T08:46:50Z</time></trkpt><trkpt lat="46.05736138370805" lon="12.54170977662903"><ele>184.0</ele><time>2026-03-30T08:46:51Z</time></trkpt><trkpt lat="46.057368895335394" lon="12.54183542692988"><ele>184.0</ele><time>2026-03-30T08:46:52Z</time></trkpt><trkpt lat="46.057365624134114" lon="12.54193524090933"><ele>184.0</ele><time>2026-03-30T08:46:53Z</time></trkpt><trkpt lat="46.057370752181605" lon="12.54203748999048"><ele>184.0</ele><time>2026-03-30T08:46:54Z</time></trkpt><trkpt lat="46.05739230600308" lon="12.542181019548481"><ele>184.0</ele><time>2026-03-30T08:46:56Z</time></trkpt><trkpt lat="46.057396369446806" lon="12.542315687595979"><ele>184.0</ele><time>2026-03-30T08:46:58Z</time></trkpt><trkpt lat="46.05736533953171" lon="12.54244247154519"><ele>184.0</ele><time>2026-03-30T08:47:08Z</time></trkpt><trkpt lat="46.05734909282283" lon="12.542539634007941"><ele>184.0</ele><time>2026-03-30T08:47:09Z</time></trkpt><trkpt lat="46.057297739138235" lon="12.542717114884931"><ele>183.5</ele><time>2026-03-30T08:47:11Z</time></trkpt><trkpt lat="46.05725228293853" lon="12.542809355701102"><ele>183.0</ele><time>2026-03-30T08:47:12Z</time></trkpt><trkpt lat="46.05721371227861" lon="12.5428939497476"><ele>182.5</ele><time>2026-03-30T08:47:13Z</time></trkpt><trkpt lat="46.057180617412705" lon="12.54298310405732"><ele>182.0</ele><time>2026-03-30T08:47:14Z</time></trkpt><trkpt lat="46.05716114920007" lon="12.543118336862344"><ele>181.5</ele><time>2026-03-30T08:47:15Z</time></trkpt><trkpt lat="46.05715020767108" lon="12.543273631190425"><ele>181.0</ele><time>2026-03-30T08:47:16Z</time></trkpt><trkpt lat="46.05712875508854" lon="12.54344029102246"><ele>180.20000000000002</ele><time>2026-03-30T08:47:17Z</time></trkpt><trkpt lat="46.05711462804942" lon="12.543580395830269"><ele>179.4</ele><time>2026-03-30T08:47:18Z</time></trkpt><trkpt lat="46.05708986074967" lon="12.543719123716262"><ele>178.6</ele><time>2026-03-30T08:47:19Z</time></trkpt><trkpt lat="46.05706341249883" lon="12.54385821620029"><ele>177.8</ele><time>2026-03-30T08:47:20Z</time></trkpt><trkpt lat="46.05704536803215" lon="12.543973842798133"><ele>177.0</ele><time>2026-03-30T08:47:21Z</time></trkpt><trkpt lat="46.05703808764297" lon="12.544095055662254"><ele>176.39999999999998</ele><time>2026-03-30T08:47:22Z</time></trkpt><trkpt lat="46.05703864230903" lon="12.544241887049415"><ele>175.79999999999998</ele><time>2026-03-30T08:47:23Z</time></trkpt><trkpt lat="46.05703576766228" lon="12.544392303566113"><ele>175.2</ele><time>2026-03-30T08:47:24Z</time></trkpt><trkpt lat="46.05702305616616" lon="12.544566238834454"><ele>174.6</ele><time>2026-03-30T08:47:25Z</time></trkpt><trkpt lat="46.05701889211781" lon="12.544718377973421"><ele>174.0</ele><time>2026-03-30T08:47:26Z</time></trkpt><trkpt lat="46.057008269529824" lon="12.544853081055129"><ele>174.0</ele><time>2026-03-30T08:47:27Z</time></trkpt><trkpt lat="46.05700159791611" lon="12.544975342135475"><ele>174.0</ele><time>2026-03-30T08:47:28Z</time></trkpt><trkpt lat="46.05699246862954" lon="12.545118533378412"><ele>174.0</ele><time>2026-03-30T08:47:29Z</time></trkpt><trkpt lat="46.056982083633315" lon="12.545257557717594"><ele>174.0</ele><time>2026-03-30T08:47:30Z</time></trkpt><trkpt lat="46.056975789117836" lon="12.54539306268624"><ele>174.0</ele><time>2026-03-30T08:47:31Z</time></trkpt><trkpt lat="46.056963228230615" lon="12.545538373372201"><ele>173.66666666666666</ele><time>2026-03-30T08:47:32Z</time></trkpt><trkpt lat="46.05695936724549" lon="12.545670607841547"><ele>173.33333333333334</ele><time>2026-03-30T08:47:33Z</time></trkpt><trkpt lat="46.056953305773455" lon="12.545791900195985"><ele>173.0</ele><time>2026-03-30T08:47:34Z</time></trkpt><trkpt lat="46.05694206633474" lon="12.545906737822577"><ele>172.66666666666669</ele><time>2026-03-30T08:47:35Z</time></trkpt><trkpt lat="46.05693296425474" lon="12.546005036747506"><ele>172.33333333333334</ele><time>2026-03-30T08:47:36Z</time></trkpt><trkpt lat="46.056921283459445" lon="12.546099573900017"><ele>172.0</ele><time>2026-03-30T08:47:37Z</time></trkpt><trkpt lat="46.05691502591245" lon="12.546194521646024"><ele>171.16666666666669</ele><time>2026-03-30T08:47:38Z</time></trkpt><trkpt lat="46.05690649696306" lon="12.54631224493695"><ele>170.33333333333334</ele><time>2026-03-30T08:47:39Z</time></trkpt><trkpt lat="46.05688307531447" lon="12.546438006318311"><ele>169.5</ele><time>2026-03-30T08:47:40Z</time></trkpt><trkpt lat="46.056859915276746" lon="12.546550393392804"><ele>168.66666666666666</ele><time>2026-03-30T08:47:41Z</time></trkpt><trkpt lat="46.056861595633116" lon="12.546662348653946"><ele>167.83333333333331</ele><time>2026-03-30T08:47:42Z</time></trkpt><trkpt lat="46.0568499886576" lon="12.546803994068682"><ele>167.0</ele><time>2026-03-30T08:47:43Z</time></trkpt><trkpt lat="46.0568289791263" lon="12.546938390352823"><ele>166.83333333333331</ele><time>2026-03-30T08:47:44Z</time></trkpt><trkpt lat="46.05681393115405" lon="12.547060519666779"><ele>166.66666666666666</ele><time>2026-03-30T08:47:45Z</time></trkpt><trkpt lat="46.056813807707634" lon="12.5471865563953"><ele>166.5</ele><time>2026-03-30T08:47:46Z</time></trkpt><trkpt lat="46.056813043446596" lon="12.547313545266269"><ele>166.33333333333334</ele><time>2026-03-30T08:47:47Z</time></trkpt><trkpt lat="46.05680350337604" lon="12.547421817876819"><ele>166.16666666666669</ele><time>2026-03-30T08:47:48Z</time></trkpt><trkpt lat="46.05678537392972" lon="12.547538582480676"><ele>166.0</ele><time>2026-03-30T08:47:49Z</time></trkpt><trkpt lat="46.05676328241478" lon="12.547681717172926"><ele>166.0</ele><time>2026-03-30T08:47:50Z</time></trkpt><trkpt lat="46.05673693119061" lon="12.547796123104764"><ele>166.0</ele><time>2026-03-30T08:47:51Z</time></trkpt><trkpt lat="46.05670292608842" lon="12.547929549304227"><ele>166.0</ele><time>2026-03-30T08:47:52Z</time></trkpt><trkpt lat="46.0566755595964" lon="12.548058454485403"><ele>166.0</ele><time>2026-03-30T08:47:53Z</time></trkpt><trkpt lat="46.05664612671155" lon="12.548175701007684"><ele>166.0</ele><time>2026-03-30T08:47:54Z</time></trkpt><trkpt lat="46.05661162200436" lon="12.548285463421347"><ele>166.0</ele><time>2026-03-30T08:47:55Z</time></trkpt><trkpt lat="46.0565834725365" lon="12.54839317998645"><ele>165.16666666666669</ele><time>2026-03-30T08:47:56Z</time></trkpt><trkpt lat="46.056573557793605" lon="12.548506605670655"><ele>164.33333333333334</ele><time>2026-03-30T08:47:57Z</time></trkpt><trkpt lat="46.05657375167344" lon="12.548643755080116"><ele>163.5</ele><time>2026-03-30T08:47:58Z</time></trkpt><trkpt lat="46.05658998252803" lon="12.548793414505095"><ele>162.66666666666666</ele><time>2026-03-30T08:47:59Z</time></trkpt><trkpt lat="46.05660543821459" lon="12.548914175980835"><ele>161.83333333333331</ele><time>2026-03-30T08:48:00Z</time></trkpt><trkpt lat="46.05661861437454" lon="12.549020105023148"><ele>161.0</ele><time>2026-03-30T08:48:01Z</time></trkpt><trkpt lat="46.056633120174894" lon="12.54912035505724"><ele>161.0</ele><time>2026-03-30T08:48:02Z</time></trkpt><trkpt lat="46.05664770488858" lon="12.549210318789287"><ele>161.0</ele><time>2026-03-30T08:48:03Z</time></trkpt><trkpt lat="46.05668738524622" lon="12.549294228471636"><ele>161.0</ele><time>2026-03-30T08:48:04Z</time></trkpt><trkpt lat="46.056687921202794" lon="12.549423856133883"><ele>161.0</ele><time>2026-03-30T08:48:06Z</time></trkpt><trkpt lat="46.05671336688989" lon="12.549562967878003"><ele>161.0</ele><time>2026-03-30T08:48:08Z</time></trkpt><trkpt lat="46.056751499457846" lon="12.549732758325923"><ele>161.0</ele><time>2026-03-30T08:48:10Z</time></trkpt><trkpt lat="46.05676669293573" lon="12.549821744306938"><ele>160.83333333333331</ele><time>2026-03-30T08:48:11Z</time></trkpt><trkpt lat="46.0567840148539" lon="12.549922669471156"><ele>160.66666666666666</ele><time>2026-03-30T08:48:12Z</time></trkpt><trkpt lat="46.05680151133243" lon="12.550018054958068"><ele>160.5</ele><time>2026-03-30T08:48:13Z</time></trkpt><trkpt lat="46.05682276191991" lon="12.550110212192987"><ele>160.33333333333334</ele><time>2026-03-30T08:48:14Z</time></trkpt><trkpt lat="46.056843760750546" lon="12.55021289359363"><ele>160.16666666666669</ele><time>2026-03-30T08:48:15Z</time></trkpt><trkpt lat="46.056872619533515" lon="12.550316573428354"><ele>160.0</ele><time>2026-03-30T08:48:16Z</time></trkpt><trkpt lat="46.056908883127164" lon="12.550453535662589"><ele>160.0</ele><time>2026-03-30T08:48:18Z</time></trkpt><trkpt lat="46.05686797440341" lon="12.549937740280724"><ele>160.0</ele><time>2026-03-30T08:48:26Z</time></trkpt><trkpt lat="46.05692367035373" lon="12.549836484786509"><ele>160.0</ele><time>2026-03-30T08:48:27Z</time></trkpt><trkpt lat="46.05699031139888" lon="12.549720598592836"><ele>160.0</ele><time>2026-03-30T08:48:28Z</time></trkpt><trkpt lat="46.05704705435355" lon="12.54961814159805"><ele>160.0</ele><time>2026-03-30T08:48:29Z</time></trkpt><trkpt lat="46.05710557306608" lon="12.54953382399948"><ele>160.0</ele><time>2026-03-30T08:48:30Z</time></trkpt><trkpt lat="46.05715635605793" lon="12.549460652533611"><ele>160.0</ele><time>2026-03-30T08:48:31Z</time></trkpt><trkpt lat="46.05750595782606" lon="12.549819461472142"><ele>159.83333333333334</ele><time>2026-03-30T08:48:32Z</time></trkpt><trkpt lat="46.05756920250953" lon="12.549753359407575"><ele>159.66666666666669</ele><time>2026-03-30T08:48:33Z</time></trkpt><trkpt lat="46.05762746599082" lon="12.549675612812708"><ele>159.5</ele><time>2026-03-30T08:48:34Z</time></trkpt><trkpt lat="46.0576764755358" lon="12.549599614310445"><ele>159.33333333333334</ele><time>2026-03-30T08:48:35Z</time></trkpt><trkpt lat="46.05771731063297" lon="12.549514795857245"><ele>159.16666666666666</ele><time>2026-03-30T08:48:36Z</time></trkpt><trkpt lat="46.057768470488746" lon="12.549420326049885"><ele>159.0</ele><time>2026-03-30T08:48:37Z</time></trkpt><trkpt lat="46.05781760735497" lon="12.549313279213113"><ele>159.33333333333334</ele><time>2026-03-30T08:48:38Z</time></trkpt><trkpt lat="46.057854273062446" lon="12.5492230595155"><ele>159.66666666666666</ele><time>2026-03-30T08:48:39Z</time></trkpt><trkpt lat="46.05788258346941" lon="12.54912771533442"><ele>160.0</ele><time>2026-03-30T08:48:40Z</time></trkpt><trkpt lat="46.05792289426835" lon="12.54901293785457"><ele>160.33333333333331</ele><time>2026-03-30T08:48:41Z</time></trkpt><trkpt lat="46.05796859792246" lon="12.54888734670991"><ele>160.66666666666666</ele><time>2026-03-30T08:48:42Z</time></trkpt><trkpt lat="46.0580206987139" lon="12.548755338956497"><ele>161.0</ele><time>2026-03-30T08:48:43Z</time></trkpt><trkpt lat="46.05807221583005" lon="12.548647104472732"><ele>161.4</ele><time>2026-03-30T08:48:44Z</time></trkpt><trkpt lat="46.058128502690856" lon="12.548526797777754"><ele>161.8</ele><time>2026-03-30T08:48:45Z</time></trkpt><trkpt lat="46.05818538721628" lon="12.548398650701941"><ele>162.20000000000002</ele><time>2026-03-30T08:48:46Z</time></trkpt><trkpt lat="46.058237447845194" lon="12.548282100235587"><ele>162.60000000000002</ele><time>2026-03-30T08:48:47Z</time></trkpt><trkpt lat="46.05826936612192" lon="12.548177961622567"><ele>163.0</ele><time>2026-03-30T08:48:48Z</time></trkpt><trkpt lat="46.05830200542702" lon="12.548083521025815"><ele>163.4</ele><time>2026-03-30T08:48:49Z</time></trkpt><trkpt lat="46.05838477893868" lon="12.547966825665323"><ele>163.8</ele><time>2026-03-30T08:48:51Z</time></trkpt><trkpt lat="46.05843366298266" lon="12.547889604624224"><ele>164.2</ele><time>2026-03-30T08:48:52Z</time></trkpt><trkpt lat="46.058489631802466" lon="12.547784221430078"><ele>164.6</ele><time>2026-03-30T08:48:53Z</time></trkpt><trkpt lat="46.05854101575792" lon="12.547665262999102"><ele>165.0</ele><time>2026-03-30T08:48:54Z</time></trkpt><trkpt lat="46.05859174712749" lon="12.547557815830347"><ele>165.4</ele><time>2026-03-30T08:48:55Z</time></trkpt><trkpt lat="46.05864029757091" lon="12.54746194656991"><ele>165.8</ele><time>2026-03-30T08:48:56Z</time></trkpt><trkpt lat="46.05869679474027" lon="12.547367693366839"><ele>166.2</ele><time>2026-03-30T08:48:57Z</time></trkpt><trkpt lat="46.05876241316227" lon="12.547281209991624"><ele>166.6</ele><time>2026-03-30T08:48:58Z</time></trkpt><trkpt lat="46.0588224416035" lon="12.547157161314143"><ele>167.0</ele><time>2026-03-30T08:48:59Z</time></trkpt><trkpt lat="46.05888132872244" lon="12.547024992240033"><ele>167.8</ele><time>2026-03-30T08:49:00Z</time></trkpt><trkpt lat="46.05892786469616" lon="12.546885060603094"><ele>168.6</ele><time>2026-03-30T08:49:01Z</time></trkpt><trkpt lat="46.05897189205953" lon="12.546742599273447"><ele>169.4</ele><time>2026-03-30T08:49:02Z</time></trkpt><trkpt lat="46.05901267341639" lon="12.546633859687423"><ele>170.20000000000002</ele><time>2026-03-30T08:49:03Z</time></trkpt><trkpt lat="46.0590572754142" lon="12.546524332749946"><ele>171.0</ele><time>2026-03-30T08:49:04Z</time></trkpt><trkpt lat="46.05908561366233" lon="12.54640620527821"><ele>171.0</ele><time>2026-03-30T08:49:05Z</time></trkpt><trkpt lat="46.059115242183616" lon="12.546316503986679"><ele>171.0</ele><time>2026-03-30T08:49:06Z</time></trkpt><trkpt lat="46.059138132216155" lon="12.546180452004878"><ele>171.0</ele><time>2026-03-30T08:49:08Z</time></trkpt><trkpt lat="46.05909816363846" lon="12.546101553132027"><ele>171.0</ele><time>2026-03-30T08:49:13Z</time></trkpt><trkpt lat="46.05911830752851" lon="12.546210658407997"><ele>171.0</ele><time>2026-03-30T08:49:16Z</time></trkpt><trkpt lat="46.05919192650846" lon="12.546247891277782"><ele>171.0</ele><time>2026-03-30T08:49:18Z</time></trkpt><trkpt lat="46.059265158767346" lon="12.546341413886221"><ele>171.20000000000002</ele><time>2026-03-30T08:49:20Z</time></trkpt><trkpt lat="46.059298682342266" lon="12.546424004269797"><ele>171.4</ele><time>2026-03-30T08:49:21Z</time></trkpt><trkpt lat="46.059353059607254" lon="12.54654121993668"><ele>171.6</ele><time>2026-03-30T08:49:23Z</time></trkpt><trkpt lat="46.059430746831495" lon="12.546679102166022"><ele>171.8</ele><time>2026-03-30T08:49:24.999Z</time></trkpt><trkpt lat="46.05949676477916" lon="12.546775812744748"><ele>172.0</ele><time>2026-03-30T08:49:27Z</time></trkpt><trkpt lat="46.05954915965172" lon="12.54683839942469"><ele>172.0</ele><time>2026-03-30T08:49:28Z</time></trkpt><trkpt lat="46.059603568860936" lon="12.54689938174566"><ele>172.0</ele><time>2026-03-30T08:49:29Z</time></trkpt><trkpt lat="46.05966424209507" lon="12.54696041710258"><ele>172.0</ele><time>2026-03-30T08:49:30Z</time></trkpt><trkpt lat="46.05976591646828" lon="12.547077117117485"><ele>172.0</ele><time>2026-03-30T08:49:32Z</time></trkpt><trkpt lat="46.05982529070213" lon="12.547151325000204"><ele>172.0</ele><time>2026-03-30T08:49:33Z</time></trkpt><trkpt lat="46.059869300666215" lon="12.547235044349145"><ele>172.0</ele><time>2026-03-30T08:49:34Z</time></trkpt><trkpt lat="46.05991310757722" lon="12.547323459079905"><ele>171.39999999999998</ele><time>2026-03-30T08:49:35Z</time></trkpt><trkpt lat="46.05997428319776" lon="12.547448520847768"><ele>170.79999999999998</ele><time>2026-03-30T08:49:37Z</time></trkpt><trkpt lat="46.06003179193021" lon="12.5475781998652"><ele>170.2</ele><time>2026-03-30T08:49:39Z</time></trkpt><trkpt lat="46.06007167538625" lon="12.54766257121187"><ele>169.6</ele><time>2026-03-30T08:49:40Z</time></trkpt><trkpt lat="46.060109501186574" lon="12.547747160279322"><ele>169.0</ele><time>2026-03-30T08:49:41Z</time></trkpt><trkpt lat="46.06016124993145" lon="12.547875404766307"><ele>168.16666666666669</ele><time>2026-03-30T08:49:43Z</time></trkpt><trkpt lat="46.06018820806546" lon="12.547957588934398"><ele>167.33333333333334</ele><time>2026-03-30T08:49:44Z</time></trkpt><trkpt lat="46.060244273283885" lon="12.548087256930767"><ele>166.5</ele><time>2026-03-30T08:49:46Z</time></trkpt><trkpt lat="46.06028453011227" lon="12.548163336647542"><ele>165.66666666666666</ele><time>2026-03-30T08:49:47Z</time></trkpt><trkpt lat="46.060376629568566" lon="12.548104227484712"><ele>164.83333333333331</ele><time>2026-03-30T08:49:52Z</time></trkpt><trkpt lat="46.06046647781201" lon="12.54810784756512"><ele>164.0</ele><time>2026-03-30T08:49:54Z</time></trkpt><trkpt lat="46.06056480055418" lon="12.548159453852264"><ele>164.0</ele><time>2026-03-30T08:49:56Z</time></trkpt><trkpt lat="46.06070359098411" lon="12.548242041455744"><ele>164.0</ele><time>2026-03-30T08:49:58Z</time></trkpt><trkpt lat="46.06077226750364" lon="12.548273856815724"><ele>164.0</ele><time>2026-03-30T08:49:59Z</time></trkpt><trkpt lat="46.06083610697734" lon="12.548302472032393"><ele>164.0</ele><time>2026-03-30T08:50:00Z</time></trkpt><trkpt lat="46.06092691090634" lon="12.548298479424611"><ele>164.0</ele><time>2026-03-30T08:50:02Z</time></trkpt><trkpt lat="46.0608678285878" lon="12.548421030095291"><ele>164.0</ele><time>2026-03-30T08:50:06Z</time></trkpt><trkpt lat="46.06079920192989" lon="12.548416657510883"><ele>164.0</ele><time>2026-03-30T08:50:07Z</time></trkpt><trkpt lat="46.06070545834027" lon="12.54839325280278"><ele>164.0</ele><time>2026-03-30T08:50:08Z</time></trkpt><trkpt lat="46.06062943032308" lon="12.548340914823093"><ele>164.0</ele><time>2026-03-30T08:50:09Z</time></trkpt><trkpt lat="46.06055221222087" lon="12.548277298723148"><ele>164.0</ele><time>2026-03-30T08:50:10Z</time></trkpt><trkpt lat="46.060492121006206" lon="12.548190605831838"><ele>164.0</ele><time>2026-03-30T08:50:11Z</time></trkpt><trkpt lat="46.06042493241058" lon="12.548100986967476"><ele>164.0</ele><time>2026-03-30T08:50:13Z</time></trkpt><trkpt lat="46.060352810230185" lon="12.548108231663276"><ele>164.0</ele><time>2026-03-30T08:50:15Z</time></trkpt><trkpt lat="46.060275457633004" lon="12.548208078814723"><ele>164.0</ele><time>2026-03-30T08:50:17Z</time></trkpt><trkpt lat="46.06027384195349" lon="12.54830187688336"><ele>164.0</ele><time>2026-03-30T08:50:18Z</time></trkpt><trkpt lat="46.060277716131296" lon="12.548421538357095"><ele>164.0</ele><time>2026-03-30T08:50:19Z</time></trkpt><trkpt lat="46.06030204203957" lon="12.5485503177613"><ele>164.0</ele><time>2026-03-30T08:50:20Z</time></trkpt><trkpt lat="46.06033660229018" lon="12.548665926936762"><ele>163.7142857142857</ele><time>2026-03-30T08:50:21Z</time></trkpt><trkpt lat="46.06037998668686" lon="12.548742141284713"><ele>163.42857142857142</ele><time>2026-03-30T08:50:22Z</time></trkpt><trkpt lat="46.06043593078375" lon="12.548791026746066"><ele>163.14285714285714</ele><time>2026-03-30T08:50:23Z</time></trkpt><trkpt lat="46.060500233529176" lon="12.548802962910592"><ele>162.85714285714283</ele><time>2026-03-30T08:50:24Z</time></trkpt><trkpt lat="46.06057772260967" lon="12.54878132716984"><ele>162.57142857142856</ele><time>2026-03-30T08:50:25Z</time></trkpt><trkpt lat="46.06065968829979" lon="12.548762147254683"><ele>162.28571428571428</ele><time>2026-03-30T08:50:26Z</time></trkpt><trkpt lat="46.06070780903031" lon="12.54883116303946"><ele>162.0</ele><time>2026-03-30T08:50:28Z</time></trkpt><trkpt lat="46.06068699220416" lon="12.548944126262285"><ele>162.0</ele><time>2026-03-30T08:50:30Z</time></trkpt><trkpt lat="46.06062476601576" lon="12.549092150021265"><ele>162.0</ele><time>2026-03-30T08:50:32Z</time></trkpt><trkpt lat="46.060582452186225" lon="12.54920458209611"><ele>162.0</ele><time>2026-03-30T08:50:33Z</time></trkpt><trkpt lat="46.06054868367917" lon="12.549318038081164"><ele>162.0</ele><time>2026-03-30T08:50:34Z</time></trkpt><trkpt lat="46.06051163069308" lon="12.549416850358561"><ele>162.0</ele><time>2026-03-30T08:50:35Z</time></trkpt><trkpt lat="46.06047473947033" lon="12.549512512999879"><ele>162.0</ele><time>2026-03-30T08:50:36Z</time></trkpt><trkpt lat="46.06043697036489" lon="12.549604536758375"><ele>161.5</ele><time>2026-03-30T08:50:37Z</time></trkpt><trkpt lat="46.060404664243215" lon="12.549691269116497"><ele>161.0</ele><time>2026-03-30T08:50:38Z</time></trkpt><trkpt lat="46.060373981189514" lon="12.549773426673838"><ele>160.5</ele><time>2026-03-30T08:50:39Z</time></trkpt><trkpt lat="46.06037152638906" lon="12.54992086933778"><ele>160.0</ele><time>2026-03-30T08:50:41Z</time></trkpt><trkpt lat="46.06042958050323" lon="12.550059875112018"><ele>159.5</ele><time>2026-03-30T08:50:43Z</time></trkpt><trkpt lat="46.06047791430469" lon="12.55013396028925"><ele>159.0</ele><time>2026-03-30T08:50:44Z</time></trkpt><trkpt lat="46.06053029293506" lon="12.550198999081347"><ele>159.0</ele><time>2026-03-30T08:50:45Z</time></trkpt><trkpt lat="46.06059566030559" lon="12.550255781542154"><ele>159.0</ele><time>2026-03-30T08:50:46Z</time></trkpt><trkpt lat="46.06066774467215" lon="12.550295502609304"><ele>159.0</ele><time>2026-03-30T08:50:47Z</time></trkpt><trkpt lat="46.06074622090452" lon="12.55031998580921"><ele>159.0</ele><time>2026-03-30T08:50:48Z</time></trkpt><trkpt lat="46.06082883379575" lon="12.550324769629349"><ele>159.0</ele><time>2026-03-30T08:50:49Z</time></trkpt><trkpt lat="46.06090853435817" lon="12.550325791711806"><ele>159.0</ele><time>2026-03-30T08:50:50Z</time></trkpt><trkpt lat="46.06098015820626" lon="12.550311725527303"><ele>158.66666666666666</ele><time>2026-03-30T08:50:51Z</time></trkpt><trkpt lat="46.06106942155762" lon="12.550340712963637"><ele>158.33333333333334</ele><time>2026-03-30T08:50:53Z</time></trkpt><trkpt lat="46.06114011573112" lon="12.550392734766687"><ele>158.0</ele><time>2026-03-30T08:50:55Z</time></trkpt><trkpt lat="46.06124129179193" lon="12.550346989363856"><ele>157.66666666666669</ele><time>2026-03-30T08:50:57Z</time></trkpt><trkpt lat="46.06129742164312" lon="12.550285969838468"><ele>157.33333333333334</ele><time>2026-03-30T08:50:58Z</time></trkpt><trkpt lat="46.0613436217638" lon="12.550196124715207"><ele>157.0</ele><time>2026-03-30T08:50:59Z</time></trkpt><trkpt lat="46.06138061247842" lon="12.550089053310337"><ele>157.0</ele><time>2026-03-30T08:51:00Z</time></trkpt><trkpt lat="46.06140355867405" lon="12.550002602634704"><ele>157.0</ele><time>2026-03-30T08:51:01Z</time></trkpt><trkpt lat="46.061463188982884" lon="12.549915965489657"><ele>157.0</ele><time>2026-03-30T08:51:03Z</time></trkpt><trkpt lat="46.06156479025664" lon="12.549956286000421"><ele>157.0</ele><time>2026-03-30T08:51:05Z</time></trkpt><trkpt lat="46.061631774910495" lon="12.550028544984707"><ele>157.0</ele><time>2026-03-30T08:51:06Z</time></trkpt><trkpt lat="46.06170537029269" lon="12.550107688087376"><ele>157.0</ele><time>2026-03-30T08:51:07Z</time></trkpt><trkpt lat="46.06177383108686" lon="12.550166199129325"><ele>157.0</ele><time>2026-03-30T08:51:08Z</time></trkpt><trkpt lat="46.0618372998481" lon="12.550207718715159"><ele>157.0</ele><time>2026-03-30T08:51:09Z</time></trkpt><trkpt lat="46.06189179555561" lon="12.550334795749785"><ele>157.0</ele><time>2026-03-30T08:51:11Z</time></trkpt><trkpt lat="46.061900832752144" lon="12.55044564009366"><ele>157.0</ele><time>2026-03-30T08:51:12Z</time></trkpt><trkpt lat="46.06189710601702" lon="12.550595768972912"><ele>157.0</ele><time>2026-03-30T08:51:13Z</time></trkpt><trkpt lat="46.06189082956104" lon="12.550754493128126"><ele>156.2</ele><time>2026-03-30T08:51:14Z</time></trkpt><trkpt lat="46.06188458347085" lon="12.550920719625992"><ele>155.39999999999998</ele><time>2026-03-30T08:51:15Z</time></trkpt><trkpt lat="46.06188022514263" lon="12.55108199419701"><ele>154.60000000000002</ele><time>2026-03-30T08:51:16Z</time></trkpt><trkpt lat="46.06186745160536" lon="12.551228776838256"><ele>153.8</ele><time>2026-03-30T08:51:17Z</time></trkpt><trkpt lat="46.06185529131071" lon="12.551350607532619"><ele>153.0</ele><time>2026-03-30T08:51:18Z</time></trkpt><trkpt lat="46.06184900846685" lon="12.551453379811438"><ele>153.0</ele><time>2026-03-30T08:51:19Z</time></trkpt><trkpt lat="46.06186003595325" lon="12.55154698388229"><ele>153.0</ele><time>2026-03-30T08:51:20Z</time></trkpt><trkpt lat="46.061899037306176" lon="12.551637106154589"><ele>153.0</ele><time>2026-03-30T08:51:21Z</time></trkpt><trkpt lat="46.06192917042047" lon="12.551717357951397"><ele>153.0</ele><time>2026-03-30T08:51:23Z</time></trkpt><trkpt lat="46.061989848697046" lon="12.551673538687307"><ele>153.0</ele><time>2026-03-30T08:51:28Z</time></trkpt><trkpt lat="46.062072693499495" lon="12.551492317614008"><ele>153.0</ele><time>2026-03-30T08:51:30Z</time></trkpt><trkpt lat="46.06214218348615" lon="12.551367904488789"><ele>153.0</ele><time>2026-03-30T08:51:31Z</time></trkpt><trkpt lat="46.06220963005143" lon="12.551243909617709"><ele>153.0</ele><time>2026-03-30T08:51:32Z</time></trkpt><trkpt lat="46.06226855386801" lon="12.551120584894655"><ele>153.0</ele><time>2026-03-30T08:51:33Z</time></trkpt><trkpt lat="46.062321270916975" lon="12.550992410785897"><ele>153.0</ele><time>2026-03-30T08:51:34Z</time></trkpt><trkpt lat="46.06235867489174" lon="12.550874311810247"><ele>153.0</ele><time>2026-03-30T08:51:35Z</time></trkpt><trkpt lat="46.062388203346956" lon="12.550773548568976"><ele>153.0</ele><time>2026-03-30T08:51:36Z</time></trkpt><trkpt lat="46.06240293663953" lon="12.550663287993277"><ele>153.0</ele><time>2026-03-30T08:51:37Z</time></trkpt><trkpt lat="46.06242494914899" lon="12.550513893481513"><ele>153.0</ele><time>2026-03-30T08:51:38Z</time></trkpt><trkpt lat="46.06244251105086" lon="12.550404837629179"><ele>153.0</ele><time>2026-03-30T08:51:39Z</time></trkpt><trkpt lat="46.06245025367136" lon="12.550262766980088"><ele>153.0</ele><time>2026-03-30T08:51:41Z</time></trkpt><trkpt lat="46.06244755714868" lon="12.55042326716445"><ele>153.0</ele><time>2026-03-30T08:51:52Z</time></trkpt><trkpt lat="46.062415797203705" lon="12.550604657232755"><ele>153.0</ele><time>2026-03-30T08:51:53Z</time></trkpt><trkpt lat="46.062408268748314" lon="12.550776349834733"><ele>153.0</ele><time>2026-03-30T08:51:54Z</time></trkpt><trkpt lat="46.06237433994047" lon="12.55089483530761"><ele>153.0</ele><time>2026-03-30T08:51:55Z</time></trkpt><trkpt lat="46.06233647011805" lon="12.551010107995323"><ele>153.0</ele><time>2026-03-30T08:51:56Z</time></trkpt><trkpt lat="46.062295785900936" lon="12.55111734682069"><ele>153.0</ele><time>2026-03-30T08:51:57Z</time></trkpt><trkpt lat="46.062258181786106" lon="12.551208603354091"><ele>153.0</ele><time>2026-03-30T08:51:58Z</time></trkpt><trkpt lat="46.06220876733346" lon="12.551304967830355"><ele>153.0</ele><time>2026-03-30T08:51:59Z</time></trkpt><trkpt lat="46.06214514023968" lon="12.551410684524015"><ele>153.0</ele><time>2026-03-30T08:52:00Z</time></trkpt><trkpt lat="46.06210076322407" lon="12.55149663167512"><ele>153.0</ele><time>2026-03-30T08:52:01Z</time></trkpt><trkpt lat="46.06206215516377" lon="12.551580770471055"><ele>153.0</ele><time>2026-03-30T08:52:02Z</time></trkpt><trkpt lat="46.06202104256527" lon="12.551650614216157"><ele>153.0</ele><time>2026-03-30T08:52:03Z</time></trkpt><trkpt lat="46.06197989161752" lon="12.551746436260132"><ele>153.0</ele><time>2026-03-30T08:52:05Z</time></trkpt><trkpt lat="46.06203156530665" lon="12.551877895293982"><ele>153.0</ele><time>2026-03-30T08:52:08Z</time></trkpt><trkpt lat="46.062099894537525" lon="12.552085229006765"><ele>153.0</ele><time>2026-03-30T08:52:10Z</time></trkpt><trkpt lat="46.06212953456571" lon="12.55220689782778"><ele>153.0</ele><time>2026-03-30T08:52:11Z</time></trkpt><trkpt lat="46.062167601241775" lon="12.552323734537683"><ele>152.6</ele><time>2026-03-30T08:52:12Z</time></trkpt><trkpt lat="46.06222176653586" lon="12.552446373498489"><ele>152.20000000000002</ele><time>2026-03-30T08:52:13Z</time></trkpt><trkpt lat="46.06226917826457" lon="12.552562972260452"><ele>151.8</ele><time>2026-03-30T08:52:14Z</time></trkpt><trkpt lat="46.06230412151656" lon="12.552662090151431"><ele>151.4</ele><time>2026-03-30T08:52:15Z</time></trkpt><trkpt lat="46.062318308602606" lon="12.5528133422917"><ele>151.0</ele><time>2026-03-30T08:52:17Z</time></trkpt><trkpt lat="46.06231306306038" lon="12.552927488816911"><ele>151.0</ele><time>2026-03-30T08:52:18Z</time></trkpt><trkpt lat="46.06232808229578" lon="12.553058914758493"><ele>151.0</ele><time>2026-03-30T08:52:19Z</time></trkpt><trkpt lat="46.06234438354932" lon="12.553193962178694"><ele>151.0</ele><time>2026-03-30T08:52:20Z</time></trkpt><trkpt lat="46.06235386581423" lon="12.553314865031282"><ele>151.0</ele><time>2026-03-30T08:52:21Z</time></trkpt><trkpt lat="46.06235976094052" lon="12.553415489474737"><ele>151.0</ele><time>2026-03-30T08:52:22Z</time></trkpt><trkpt lat="46.06236955702514" lon="12.553516155057139"><ele>151.0</ele><time>2026-03-30T08:52:23Z</time></trkpt><trkpt lat="46.062411937240604" lon="12.553670772753184"><ele>150.83333333333334</ele><time>2026-03-30T08:52:25Z</time></trkpt><trkpt lat="46.06243611478249" lon="12.553756336277523"><ele>150.66666666666669</ele><time>2026-03-30T08:52:26Z</time></trkpt><trkpt lat="46.062459495394556" lon="12.55385259457054"><ele>150.5</ele><time>2026-03-30T08:52:27Z</time></trkpt><trkpt lat="46.06248546720419" lon="12.553945431377121"><ele>150.33333333333334</ele><time>2026-03-30T08:52:28Z</time></trkpt><trkpt lat="46.06251366725715" lon="12.554029472638863"><ele>150.16666666666666</ele><time>2026-03-30T08:52:29Z</time></trkpt><trkpt lat="46.06257783369378" lon="12.554165458609086"><ele>150.0</ele><time>2026-03-30T08:52:31Z</time></trkpt><trkpt lat="46.06264044715548" lon="12.55421071474544"><ele>151.2</ele><time>2026-03-30T08:52:32Z</time></trkpt><trkpt lat="46.062698675644754" lon="12.554326195875888"><ele>152.4</ele><time>2026-03-30T08:52:34Z</time></trkpt><trkpt lat="46.062722356865905" lon="12.554449267397732"><ele>153.6</ele><time>2026-03-30T08:52:35Z</time></trkpt><trkpt lat="46.06274306173519" lon="12.554593901425804"><ele>154.8</ele><time>2026-03-30T08:52:36Z</time></trkpt><trkpt lat="46.062766739971075" lon="12.554707506305498"><ele>156.0</ele><time>2026-03-30T08:52:37Z</time></trkpt><trkpt lat="46.06284485103405" lon="12.554863210546852"><ele>156.0</ele><time>2026-03-30T08:52:39Z</time></trkpt><trkpt lat="46.06291567622437" lon="12.554992233620919"><ele>156.0</ele><time>2026-03-30T08:52:41Z</time></trkpt><trkpt lat="46.06299446754675" lon="12.555137450878062"><ele>156.0</ele><time>2026-03-30T08:52:43Z</time></trkpt><trkpt lat="46.063042462096796" lon="12.555209623104528"><ele>156.0</ele><time>2026-03-30T08:52:44Z</time></trkpt><trkpt lat="46.06313535775194" lon="12.5553008838528"><ele>156.0</ele><time>2026-03-30T08:52:46Z</time></trkpt><trkpt lat="46.06324642021124" lon="12.555336043338217"><ele>159.4</ele><time>2026-03-30T08:52:48Z</time></trkpt><trkpt lat="46.06330965273026" lon="12.555352979536133"><ele>162.8</ele><time>2026-03-30T08:52:49Z</time></trkpt><trkpt lat="46.063386347731004" lon="12.555531170666296"><ele>166.20000000000002</ele><time>2026-03-30T08:52:51Z</time></trkpt><trkpt lat="46.06342484192733" lon="12.55562415440636"><ele>169.6</ele><time>2026-03-30T08:52:52Z</time></trkpt><trkpt lat="46.063478032523754" lon="12.555764701636619"><ele>173.0</ele><time>2026-03-30T08:52:54Z</time></trkpt><trkpt lat="46.063567473155594" lon="12.555855551459304"><ele>173.8</ele><time>2026-03-30T08:52:56Z</time></trkpt><trkpt lat="46.06363854335511" lon="12.555972322806289"><ele>174.60000000000002</ele><time>2026-03-30T08:52:58Z</time></trkpt><trkpt lat="46.063644471628464" lon="12.55607201588629"><ele>175.39999999999998</ele><time>2026-03-30T08:52:59Z</time></trkpt><trkpt lat="46.06364072223711" lon="12.556197195195937"><ele>176.2</ele><time>2026-03-30T08:53:00Z</time></trkpt><trkpt lat="46.06363363516948" lon="12.556313924109235"><ele>177.0</ele><time>2026-03-30T08:53:01Z</time></trkpt><trkpt lat="46.063669708580804" lon="12.556465923071228"><ele>177.2</ele><time>2026-03-30T08:53:03Z</time></trkpt><trkpt lat="46.06376836072026" lon="12.556513559607017"><ele>177.39999999999998</ele><time>2026-03-30T08:53:05Z</time></trkpt><trkpt lat="46.06386428001089" lon="12.556569286766285"><ele>177.60000000000002</ele><time>2026-03-30T08:53:07Z</time></trkpt><trkpt lat="46.06391591672884" lon="12.556630027228248"><ele>177.8</ele><time>2026-03-30T08:53:08Z</time></trkpt><trkpt lat="46.06395683557213" lon="12.556742638643067"><ele>178.0</ele><time>2026-03-30T08:53:10Z</time></trkpt><trkpt lat="46.06404578185787" lon="12.55684564228409"><ele>179.4</ele><time>2026-03-30T08:53:12Z</time></trkpt><trkpt lat="46.064131911523724" lon="12.556895778768428"><ele>180.8</ele><time>2026-03-30T08:53:14Z</time></trkpt><trkpt lat="46.064200467933354" lon="12.55699046763915"><ele>182.2</ele><time>2026-03-30T08:53:16Z</time></trkpt><trkpt lat="46.06420933428602" lon="12.557176741968943"><ele>183.6</ele><time>2026-03-30T08:53:18Z</time></trkpt><trkpt lat="46.064223169261496" lon="12.557273727815026"><ele>185.0</ele><time>2026-03-30T08:53:19Z</time></trkpt><trkpt lat="46.06425071961123" lon="12.55735833550214"><ele>186.0</ele><time>2026-03-30T08:53:20Z</time></trkpt><trkpt lat="46.064323424168016" lon="12.557480032383067"><ele>187.0</ele><time>2026-03-30T08:53:22Z</time></trkpt><trkpt lat="46.06437463121784" lon="12.557546716484413"><ele>188.0</ele><time>2026-03-30T08:53:23Z</time></trkpt><trkpt lat="46.06441408902357" lon="12.557652005729853"><ele>189.0</ele><time>2026-03-30T08:53:25Z</time></trkpt><trkpt lat="46.064389494047774" lon="12.557767795932067"><ele>190.0</ele><time>2026-03-30T08:53:27Z</time></trkpt><trkpt lat="46.06441113725042" lon="12.557867248359553"><ele>191.0</ele><time>2026-03-30T08:53:28Z</time></trkpt><trkpt lat="46.064476188325216" lon="12.55798104072095"><ele>191.2857142857143</ele><time>2026-03-30T08:53:30Z</time></trkpt><trkpt lat="46.06456464878893" lon="12.55802200412196"><ele>191.57142857142856</ele><time>2026-03-30T08:53:32Z</time></trkpt><trkpt lat="46.06462404957284" lon="12.558079019934011"><ele>191.85714285714286</ele><time>2026-03-30T08:53:33Z</time></trkpt><trkpt lat="46.064673768925935" lon="12.558135025133884"><ele>192.14285714285717</ele><time>2026-03-30T08:53:34Z</time></trkpt><trkpt lat="46.06473040510764" lon="12.558183275348302"><ele>192.42857142857144</ele><time>2026-03-30T08:53:35Z</time></trkpt><trkpt lat="46.06479078729479" lon="12.558262462148473"><ele>192.71428571428572</ele><time>2026-03-30T08:53:36Z</time></trkpt><trkpt lat="46.06484594708783" lon="12.558312757730526"><ele>193.0</ele><time>2026-03-30T08:53:37Z</time></trkpt><trkpt lat="46.064980315383984" lon="12.558350313448123"><ele>193.8</ele><time>2026-03-30T08:53:39Z</time></trkpt><trkpt lat="46.065065258434835" lon="12.558363614908675"><ele>194.60000000000002</ele><time>2026-03-30T08:53:40Z</time></trkpt><trkpt lat="46.06513299687829" lon="12.558382747161785"><ele>195.39999999999998</ele><time>2026-03-30T08:53:41Z</time></trkpt><trkpt lat="46.06526068531088" lon="12.55846907605079"><ele>196.2</ele><time>2026-03-30T08:53:43Z</time></trkpt><trkpt lat="46.06531406230603" lon="12.558521832225175"><ele>197.0</ele><time>2026-03-30T08:53:44Z</time></trkpt><trkpt lat="46.06539349382734" lon="12.558581310978107"><ele>197.0</ele><time>2026-03-30T08:53:46Z</time></trkpt><trkpt lat="46.065460287397464" lon="12.55862037595363"><ele>197.0</ele><time>2026-03-30T08:53:48Z</time></trkpt><trkpt lat="46.06553764158486" lon="12.55862312838532"><ele>197.0</ele><time>2026-03-30T08:53:51Z</time></trkpt><trkpt lat="46.06560232136761" lon="12.558688454504308"><ele>197.0</ele><time>2026-03-30T08:53:53Z</time></trkpt><trkpt lat="46.06570024167776" lon="12.558667317038246"><ele>197.0</ele><time>2026-03-30T08:53:55Z</time></trkpt><trkpt lat="46.06581562597255" lon="12.558729506793913"><ele>197.33333333333334</ele><time>2026-03-30T08:53:57Z</time></trkpt><trkpt lat="46.065906434419595" lon="12.558783059535415"><ele>197.66666666666669</ele><time>2026-03-30T08:53:58Z</time></trkpt><trkpt lat="46.06598766131731" lon="12.558795589674796"><ele>198.0</ele><time>2026-03-30T08:53:59Z</time></trkpt><trkpt lat="46.06605152958335" lon="12.55878366401587"><ele>198.33333333333331</ele><time>2026-03-30T08:54:00Z</time></trkpt><trkpt lat="46.06615910083628" lon="12.558894890809915"><ele>198.66666666666666</ele><time>2026-03-30T08:54:02Z</time></trkpt><trkpt lat="46.066215157093964" lon="12.558940006109108"><ele>199.0</ele><time>2026-03-30T08:54:03Z</time></trkpt><trkpt lat="46.06627395768218" lon="12.558974109378749"><ele>199.0</ele><time>2026-03-30T08:54:04Z</time></trkpt><trkpt lat="46.066368678491806" lon="12.558983200677618"><ele>199.0</ele><time>2026-03-30T08:54:06Z</time></trkpt><trkpt lat="46.066452954599136" lon="12.559007850809108"><ele>199.0</ele><time>2026-03-30T08:54:08Z</time></trkpt><trkpt lat="46.06652764219942" lon="12.559125047591186"><ele>199.0</ele><time>2026-03-30T08:54:10Z</time></trkpt><trkpt lat="46.066605436629054" lon="12.559204844863688"><ele>199.0</ele><time>2026-03-30T08:54:12Z</time></trkpt><trkpt lat="46.06673603093786" lon="12.559230578843493"><ele>201.16666666666666</ele><time>2026-03-30T08:54:14Z</time></trkpt><trkpt lat="46.06679820807331" lon="12.559247873480976"><ele>203.33333333333331</ele><time>2026-03-30T08:54:15Z</time></trkpt><trkpt lat="46.06691205055583" lon="12.559278474403724"><ele>205.5</ele><time>2026-03-30T08:54:17Z</time></trkpt><trkpt lat="46.06698138224534" lon="12.559299051751513"><ele>207.66666666666669</ele><time>2026-03-30T08:54:19Z</time></trkpt><trkpt lat="46.06705040192136" lon="12.559265571007437"><ele>209.83333333333334</ele><time>2026-03-30T08:54:22Z</time></trkpt><trkpt lat="46.06712764760691" lon="12.559338575825068"><ele>212.0</ele><time>2026-03-30T08:54:24Z</time></trkpt><trkpt lat="46.06720536395875" lon="12.5593793440443"><ele>212.0</ele><time>2026-03-30T08:54:26Z</time></trkpt><trkpt lat="46.06727387224718" lon="12.55941503991934"><ele>212.0</ele><time>2026-03-30T08:54:27Z</time></trkpt><trkpt lat="46.06736531435277" lon="12.55944776123715"><ele>212.0</ele><time>2026-03-30T08:54:29Z</time></trkpt><trkpt lat="46.06742865939157" lon="12.559545713869657"><ele>212.0</ele><time>2026-03-30T08:54:32Z</time></trkpt><trkpt lat="46.06749126339049" lon="12.55965945534833"><ele>212.0</ele><time>2026-03-30T08:54:34Z</time></trkpt><trkpt lat="46.06753089191293" lon="12.559806799457453"><ele>212.66666666666669</ele><time>2026-03-30T08:54:36Z</time></trkpt><trkpt lat="46.067546830702305" lon="12.559958758205893"><ele>213.33333333333334</ele><time>2026-03-30T08:54:38Z</time></trkpt><trkpt lat="46.06754018236529" lon="12.560049728699559"><ele>214.0</ele><time>2026-03-30T08:54:39Z</time></trkpt><trkpt lat="46.06748088013087" lon="12.560134962116603"><ele>214.66666666666669</ele><time>2026-03-30T08:54:46Z</time></trkpt><trkpt lat="46.06753263393198" lon="12.560224037738116"><ele>215.33333333333334</ele><time>2026-03-30T09:01:34Z</time></trkpt><trkpt lat="46.06761637738978" lon="12.560284130824789"><ele>216.0</ele><time>2026-03-30T09:01:37Z</time></trkpt><trkpt lat="46.067663765562266" lon="12.560387645739155"><ele>216.0</ele><time>2026-03-30T09:01:40Z</time></trkpt><trkpt lat="46.06765698967438" lon="12.560502961921191"><ele>216.0</ele><time>2026-03-30T09:01:42Z</time></trkpt><trkpt lat="46.06760229621618" lon="12.560571850958388"><ele>216.0</ele><time>2026-03-30T09:01:44Z</time></trkpt><trkpt lat="46.067543279451094" lon="12.560627338181083"><ele>216.0</ele><time>2026-03-30T09:01:46Z</time></trkpt><trkpt lat="46.067515709856664" lon="12.560727646205873"><ele>216.0</ele><time>2026-03-30T09:01:48Z</time></trkpt><trkpt lat="46.0674985296586" lon="12.560820477148086"><ele>216.0</ele><time>2026-03-30T09:01:50Z</time></trkpt><trkpt lat="46.0674674697992" lon="12.560917915399804"><ele>216.0</ele><time>2026-03-30T09:01:52Z</time></trkpt><trkpt lat="46.06743615541613" lon="12.561069324898005"><ele>214.33333333333334</ele><time>2026-03-30T09:01:54Z</time></trkpt><trkpt lat="46.06742904278088" lon="12.561165324043342"><ele>212.66666666666669</ele><time>2026-03-30T09:01:55Z</time></trkpt><trkpt lat="46.067418401229205" lon="12.561307347971157"><ele>211.0</ele><time>2026-03-30T09:01:57Z</time></trkpt><trkpt lat="46.067410028069155" lon="12.561436907936235"><ele>209.33333333333334</ele><time>2026-03-30T09:01:59Z</time></trkpt><trkpt lat="46.06740105489745" lon="12.561532029926152"><ele>207.66666666666669</ele><time>2026-03-30T09:02:00Z</time></trkpt><trkpt lat="46.067383945458474" lon="12.561623843506892"><ele>206.0</ele><time>2026-03-30T09:02:01Z</time></trkpt><trkpt lat="46.06733861661776" lon="12.561774504308232"><ele>204.20000000000002</ele><time>2026-03-30T09:02:03Z</time></trkpt><trkpt lat="46.06730654572474" lon="12.561857366139805"><ele>202.4</ele><time>2026-03-30T09:02:04Z</time></trkpt><trkpt lat="46.067263326405275" lon="12.562010123687573"><ele>200.6</ele><time>2026-03-30T09:02:06Z</time></trkpt><trkpt lat="46.06718391266676" lon="12.562135405522918"><ele>198.8</ele><time>2026-03-30T09:02:08Z</time></trkpt><trkpt lat="46.06709528981305" lon="12.562244870035494"><ele>197.0</ele><time>2026-03-30T09:02:10Z</time></trkpt><trkpt lat="46.06703590612516" lon="12.562420738133248"><ele>196.2</ele><time>2026-03-30T09:02:12Z</time></trkpt><trkpt lat="46.06699154117487" lon="12.562501574913155"><ele>195.39999999999998</ele><time>2026-03-30T09:02:13Z</time></trkpt><trkpt lat="46.066934751782426" lon="12.562565194079909"><ele>194.60000000000002</ele><time>2026-03-30T09:02:14Z</time></trkpt><trkpt lat="46.06689125785425" lon="12.562718541230378"><ele>193.8</ele><time>2026-03-30T09:02:16Z</time></trkpt><trkpt lat="46.0669010232903" lon="12.562902967189151"><ele>193.0</ele><time>2026-03-30T09:02:18Z</time></trkpt><trkpt lat="46.066904701651225" lon="12.5630270039799"><ele>191.8</ele><time>2026-03-30T09:02:19Z</time></trkpt><trkpt lat="46.066891528636255" lon="12.563131232640677"><ele>190.60000000000002</ele><time>2026-03-30T09:02:20Z</time></trkpt><trkpt lat="46.06688400512121" lon="12.56327191343924"><ele>189.39999999999998</ele><time>2026-03-30T09:02:22Z</time></trkpt><trkpt lat="46.06691561189784" lon="12.563396497665833"><ele>188.2</ele><time>2026-03-30T09:02:23Z</time></trkpt><trkpt lat="46.066942399027795" lon="12.563494418556807"><ele>187.0</ele><time>2026-03-30T09:02:24Z</time></trkpt><trkpt lat="46.06695863063343" lon="12.563660917980743"><ele>185.6</ele><time>2026-03-30T09:02:26Z</time></trkpt><trkpt lat="46.06693527492423" lon="12.563764796279212"><ele>184.2</ele><time>2026-03-30T09:02:27Z</time></trkpt><trkpt lat="46.066881064361695" lon="12.563864746307413"><ele>182.8</ele><time>2026-03-30T09:02:28Z</time></trkpt><trkpt lat="46.06680827569398" lon="12.563945009911663"><ele>181.4</ele><time>2026-03-30T09:02:29Z</time></trkpt><trkpt lat="46.06674674004553" lon="12.56400421673466"><ele>180.0</ele><time>2026-03-30T09:02:30Z</time></trkpt><trkpt lat="46.06663396498156" lon="12.564064589413272"><ele>179.2</ele><time>2026-03-30T09:02:32Z</time></trkpt><trkpt lat="46.06655107220497" lon="12.56412590853869"><ele>178.4</ele><time>2026-03-30T09:02:34Z</time></trkpt><trkpt lat="46.06649607966504" lon="12.564235156312265"><ele>177.60000000000002</ele><time>2026-03-30T09:02:36Z</time></trkpt><trkpt lat="46.06648890225737" lon="12.56436867493077"><ele>176.8</ele><time>2026-03-30T09:02:38Z</time></trkpt><trkpt lat="46.06656382916865" lon="12.564526728229907"><ele>176.0</ele><time>2026-03-30T09:02:40Z</time></trkpt><trkpt lat="46.06662699556764" lon="12.564621258712682"><ele>175.33333333333331</ele><time>2026-03-30T09:02:41Z</time></trkpt><trkpt lat="46.06669266267849" lon="12.564684701190059"><ele>174.66666666666666</ele><time>2026-03-30T09:02:42Z</time></trkpt><trkpt lat="46.06674275912746" lon="12.564784611804592"><ele>174.0</ele><time>2026-03-30T09:02:43Z</time></trkpt><trkpt lat="46.0667826761803" lon="12.564892426189038"><ele>173.33333333333334</ele><time>2026-03-30T09:02:44Z</time></trkpt><trkpt lat="46.066816507712446" lon="12.564974914881748"><ele>172.66666666666669</ele><time>2026-03-30T09:02:45Z</time></trkpt><trkpt lat="46.06684432283331" lon="12.565068678447755"><ele>172.0</ele><time>2026-03-30T09:02:46Z</time></trkpt><trkpt lat="46.06685096852843" lon="12.56517046869063"><ele>172.0</ele><time>2026-03-30T09:02:47Z</time></trkpt><trkpt lat="46.06685272620949" lon="12.56527014092034"><ele>172.0</ele><time>2026-03-30T09:02:48Z</time></trkpt><trkpt lat="46.06685007538325" lon="12.565366645146165"><ele>172.0</ele><time>2026-03-30T09:02:49Z</time></trkpt><trkpt lat="46.06685704014126" lon="12.56553885689067"><ele>172.0</ele><time>2026-03-30T09:02:51Z</time></trkpt><trkpt lat="46.06687013758903" lon="12.565721843315862"><ele>172.0</ele><time>2026-03-30T09:02:53Z</time></trkpt><trkpt lat="46.06682117597787" lon="12.565875459407497"><ele>170.0</ele><time>2026-03-30T09:02:55Z</time></trkpt><trkpt lat="46.06676635323965" lon="12.565937297981396"><ele>168.0</ele><time>2026-03-30T09:02:56Z</time></trkpt><trkpt lat="46.066693672754994" lon="12.566006937559983"><ele>166.0</ele><time>2026-03-30T09:02:57Z</time></trkpt><trkpt lat="46.066613872213246" lon="12.56606619082239"><ele>164.0</ele><time>2026-03-30T09:02:58Z</time></trkpt><trkpt lat="46.06655186885279" lon="12.566151733527844"><ele>162.0</ele><time>2026-03-30T09:02:59Z</time></trkpt><trkpt lat="46.06649703919407" lon="12.566209589312331"><ele>160.0</ele><time>2026-03-30T09:03:00Z</time></trkpt><trkpt lat="46.066436024673585" lon="12.566265841001558"><ele>157.66666666666669</ele><time>2026-03-30T09:03:01Z</time></trkpt><trkpt lat="46.066389875422864" lon="12.566329002580662"><ele>155.33333333333334</ele><time>2026-03-30T09:03:02Z</time></trkpt><trkpt lat="46.06635176165141" lon="12.566466101478223"><ele>153.0</ele><time>2026-03-30T09:03:04Z</time></trkpt><trkpt lat="46.06632437412604" lon="12.566636848667395"><ele>150.66666666666666</ele><time>2026-03-30T09:03:06Z</time></trkpt><trkpt lat="46.06630645409394" lon="12.566741122286514"><ele>148.33333333333331</ele><time>2026-03-30T09:03:07Z</time></trkpt><trkpt lat="46.06628470724506" lon="12.56684289400719"><ele>146.0</ele><time>2026-03-30T09:03:08Z</time></trkpt><trkpt lat="46.066212699139285" lon="12.566985130501198"><ele>146.0</ele><time>2026-03-30T09:03:10Z</time></trkpt><trkpt lat="46.066150266325145" lon="12.56706630411092"><ele>146.0</ele><time>2026-03-30T09:03:11Z</time></trkpt><trkpt lat="46.06607138048673" lon="12.567138186166057"><ele>146.0</ele><time>2026-03-30T09:03:12Z</time></trkpt><trkpt lat="46.065999487757665" lon="12.567215403947758"><ele>146.0</ele><time>2026-03-30T09:03:13Z</time></trkpt><trkpt lat="46.06591299008842" lon="12.567301763808958"><ele>146.0</ele><time>2026-03-30T09:03:14Z</time></trkpt><trkpt lat="46.06584102316704" lon="12.56739934088211"><ele>146.0</ele><time>2026-03-30T09:03:15Z</time></trkpt><trkpt lat="46.06578556619122" lon="12.567471335263148"><ele>146.0</ele><time>2026-03-30T09:03:16Z</time></trkpt><trkpt lat="46.06572725089297" lon="12.567525591684333"><ele>146.0</ele><time>2026-03-30T09:03:17Z</time></trkpt><trkpt lat="46.065652776829644" lon="12.567622854089446"><ele>146.0</ele><time>2026-03-30T09:03:19Z</time></trkpt><trkpt lat="46.06560241676753" lon="12.567693495249811"><ele>146.0</ele><time>2026-03-30T09:03:21Z</time></trkpt><trkpt lat="46.0655597654566" lon="12.567770529199423"><ele>146.0</ele><time>2026-03-30T09:03:24Z</time></trkpt><trkpt lat="46.065643942532915" lon="12.567685606430091"><ele>146.0</ele><time>2026-03-30T09:03:28Z</time></trkpt><trkpt lat="46.065678464359564" lon="12.567583258252899"><ele>146.0</ele><time>2026-03-30T09:03:29Z</time></trkpt><trkpt lat="46.06573577361222" lon="12.567503353057042"><ele>146.0</ele><time>2026-03-30T09:03:30Z</time></trkpt><trkpt lat="46.06580931962849" lon="12.567423571203642"><ele>146.0</ele><time>2026-03-30T09:03:31Z</time></trkpt><trkpt lat="46.06589272575927" lon="12.567329245753191"><ele>146.0</ele><time>2026-03-30T09:03:32Z</time></trkpt><trkpt lat="46.06597112136461" lon="12.5672422192751"><ele>146.0</ele><time>2026-03-30T09:03:33Z</time></trkpt><trkpt lat="46.0660548518994" lon="12.567157685874044"><ele>146.0</ele><time>2026-03-30T09:03:34Z</time></trkpt><trkpt lat="46.06613619403872" lon="12.567072635877357"><ele>146.0</ele><time>2026-03-30T09:03:35Z</time></trkpt><trkpt lat="46.066210878120366" lon="12.566991553743994"><ele>146.0</ele><time>2026-03-30T09:03:36Z</time></trkpt><trkpt lat="46.06625924588504" lon="12.566915968680805"><ele>146.0</ele><time>2026-03-30T09:03:37Z</time></trkpt><trkpt lat="46.066306269735335" lon="12.566798010563145"><ele>146.0</ele><time>2026-03-30T09:03:38Z</time></trkpt><trkpt lat="46.06632775591077" lon="12.56667303598775"><ele>146.0</ele><time>2026-03-30T09:03:39Z</time></trkpt><trkpt lat="46.066353127013784" lon="12.566533298825822"><ele>146.0</ele><time>2026-03-30T09:03:40Z</time></trkpt><trkpt lat="46.06638254110261" lon="12.566401722102482"><ele>146.0</ele><time>2026-03-30T09:03:41Z</time></trkpt><trkpt lat="46.06640787544349" lon="12.566299658638362"><ele>146.0</ele><time>2026-03-30T09:03:42Z</time></trkpt><trkpt lat="46.06650864990964" lon="12.566162931633245"><ele>147.2</ele><time>2026-03-30T09:03:44Z</time></trkpt><trkpt lat="46.06659921746083" lon="12.566097484049283"><ele>148.39999999999998</ele><time>2026-03-30T09:03:45Z</time></trkpt><trkpt lat="46.06669050378982" lon="12.566028072966136"><ele>149.6</ele><time>2026-03-30T09:03:46Z</time></trkpt><trkpt lat="46.06676622625452" lon="12.565945608783132"><ele>150.79999999999998</ele><time>2026-03-30T09:03:47Z</time></trkpt><trkpt lat="46.06683620995019" lon="12.565856390450561"><ele>152.0</ele><time>2026-03-30T09:03:49Z</time></trkpt><trkpt lat="46.0668687659032" lon="12.565731598417887"><ele>153.33333333333331</ele><time>2026-03-30T09:03:51Z</time></trkpt><trkpt lat="46.0668622618991" lon="12.565620649155322"><ele>154.66666666666666</ele><time>2026-03-30T09:03:52Z</time></trkpt><trkpt lat="46.06684466152194" lon="12.565509415650368"><ele>156.0</ele><time>2026-03-30T09:03:53Z</time></trkpt><trkpt lat="46.06682160768396" lon="12.56538437649382"><ele>157.33333333333334</ele><time>2026-03-30T09:03:54Z</time></trkpt><trkpt lat="46.0668013764858" lon="12.565268517025055"><ele>158.66666666666669</ele><time>2026-03-30T09:03:55Z</time></trkpt><trkpt lat="46.066810184852365" lon="12.565157836995045"><ele>160.0</ele><time>2026-03-30T09:03:56Z</time></trkpt><trkpt lat="46.0668032208974" lon="12.56505302036055"><ele>160.83333333333334</ele><time>2026-03-30T09:03:57Z</time></trkpt><trkpt lat="46.066783655137854" lon="12.564959221074805"><ele>161.66666666666669</ele><time>2026-03-30T09:03:58Z</time></trkpt><trkpt lat="46.06674951161053" lon="12.564872954272449"><ele>162.5</ele><time>2026-03-30T09:03:59Z</time></trkpt><trkpt lat="46.06670243307296" lon="12.5647720739442"><ele>163.33333333333334</ele><time>2026-03-30T09:04:00Z</time></trkpt><trkpt lat="46.06664475275078" lon="12.564660471600538"><ele>164.16666666666666</ele><time>2026-03-30T09:04:01Z</time></trkpt><trkpt lat="46.0665832267819" lon="12.564596382314901"><ele>165.0</ele><time>2026-03-30T09:04:02Z</time></trkpt><trkpt lat="46.06652184986006" lon="12.56452087819709"><ele>167.2</ele><time>2026-03-30T09:04:03Z</time></trkpt><trkpt lat="46.06646983882374" lon="12.56438651410058"><ele>169.4</ele><time>2026-03-30T09:04:05Z</time></trkpt><trkpt lat="46.066484000349426" lon="12.564290831236345"><ele>171.60000000000002</ele><time>2026-03-30T09:04:06Z</time></trkpt><trkpt lat="46.066516287483005" lon="12.564211883349442"><ele>173.8</ele><time>2026-03-30T09:04:07Z</time></trkpt><trkpt lat="46.066605363609774" lon="12.564096058218336"><ele>176.0</ele><time>2026-03-30T09:04:08.999Z</time></trkpt><trkpt lat="46.066710744832974" lon="12.564059540044061"><ele>176.66666666666666</ele><time>2026-03-30T09:04:10.999Z</time></trkpt><trkpt lat="46.06678109539918" lon="12.564018090308005"><ele>177.33333333333331</ele><time>2026-03-30T09:04:11.999Z</time></trkpt><trkpt lat="46.06684068089339" lon="12.563938467559838"><ele>178.0</ele><time>2026-03-30T09:04:12.999Z</time></trkpt><trkpt lat="46.06688075571042" lon="12.563805909849016"><ele>178.66666666666666</ele><time>2026-03-30T09:04:13.999Z</time></trkpt><trkpt lat="46.06692421530216" lon="12.563695279200523"><ele>179.33333333333334</ele><time>2026-03-30T09:04:14.999Z</time></trkpt><trkpt lat="46.06694234154783" lon="12.563587481197697"><ele>180.0</ele><time>2026-03-30T09:04:15.999Z</time></trkpt><trkpt lat="46.066920693855685" lon="12.56346582495574"><ele>181.16666666666666</ele><time>2026-03-30T09:04:17.999Z</time></trkpt><trkpt lat="46.06687776325102" lon="12.56339163183841"><ele>182.33333333333334</ele><time>2026-03-30T09:04:18.999Z</time></trkpt><trkpt lat="46.066847133243535" lon="12.563302738873668"><ele>183.5</ele><time>2026-03-30T09:04:19.999Z</time></trkpt><trkpt lat="46.06683738724714" lon="12.563203358014547"><ele>184.66666666666669</ele><time>2026-03-30T09:04:20.999Z</time></trkpt><trkpt lat="46.066846329788945" lon="12.563098187618944"><ele>185.83333333333334</ele><time>2026-03-30T09:04:21.999Z</time></trkpt><trkpt lat="46.06687160667485" lon="12.562992080256365"><ele>187.0</ele><time>2026-03-30T09:04:22.999Z</time></trkpt><trkpt lat="46.06688534093162" lon="12.562820159646579"><ele>188.2</ele><time>2026-03-30T09:04:23.999Z</time></trkpt><trkpt lat="46.06688468034826" lon="12.562680508290763"><ele>189.39999999999998</ele><time>2026-03-30T09:04:25Z</time></trkpt><trkpt lat="46.06692847306474" lon="12.562553026424402"><ele>190.60000000000002</ele><time>2026-03-30T09:04:27Z</time></trkpt><trkpt lat="46.06702770661303" lon="12.562413599526712"><ele>191.8</ele><time>2026-03-30T09:04:29Z</time></trkpt><trkpt lat="46.067070105187724" lon="12.562324142407428"><ele>193.0</ele><time>2026-03-30T09:04:30Z</time></trkpt><trkpt lat="46.06710729021498" lon="12.562220846244227"><ele>192.99999999999997</ele><time>2026-03-30T09:04:31Z</time></trkpt><trkpt lat="46.0671522806587" lon="12.562118068239382"><ele>193.0</ele><time>2026-03-30T09:04:32Z</time></trkpt><trkpt lat="46.06725051419725" lon="12.562034096853129"><ele>193.0</ele><time>2026-03-30T09:04:34Z</time></trkpt><trkpt lat="46.067276370642" lon="12.56192916408449"><ele>193.0</ele><time>2026-03-30T09:04:36Z</time></trkpt><trkpt lat="46.067289724037785" lon="12.561830661763763"><ele>192.99999999999997</ele><time>2026-03-30T09:04:37Z</time></trkpt><trkpt lat="46.06731616339308" lon="12.561740085235405"><ele>193.0</ele><time>2026-03-30T09:04:38Z</time></trkpt><trkpt lat="46.06735368728003" lon="12.561654785759911"><ele>193.66666666666666</ele><time>2026-03-30T09:04:39Z</time></trkpt><trkpt lat="46.06739858712899" lon="12.561557940001988"><ele>194.33333333333331</ele><time>2026-03-30T09:04:40Z</time></trkpt><trkpt lat="46.06741422183671" lon="12.561454381973908"><ele>195.0</ele><time>2026-03-30T09:04:41Z</time></trkpt><trkpt lat="46.067417814469934" lon="12.561342775047915"><ele>195.66666666666669</ele><time>2026-03-30T09:04:42Z</time></trkpt><trkpt lat="46.06742369549972" lon="12.561234407107706"><ele>196.33333333333334</ele><time>2026-03-30T09:04:43Z</time></trkpt><trkpt lat="46.06743175937896" lon="12.561132867371658"><ele>197.0</ele><time>2026-03-30T09:04:44Z</time></trkpt><trkpt lat="46.06744850473208" lon="12.561026234055088"><ele>200.16666666666669</ele><time>2026-03-30T09:04:45Z</time></trkpt><trkpt lat="46.067465407362754" lon="12.560937174815882"><ele>203.33333333333334</ele><time>2026-03-30T09:04:46Z</time></trkpt><trkpt lat="46.06750348032881" lon="12.560830777971406"><ele>206.5</ele><time>2026-03-30T09:04:48Z</time></trkpt><trkpt lat="46.06758740493579" lon="12.560790961657283"><ele>209.66666666666669</ele><time>2026-03-30T09:04:50Z</time></trkpt><trkpt lat="46.067697911614786" lon="12.560846650959713"><ele>212.83333333333334</ele><time>2026-03-30T09:04:52Z</time></trkpt><trkpt lat="46.067761414543284" lon="12.560856394184478"><ele>216.0</ele><time>2026-03-30T09:04:53Z</time></trkpt><trkpt lat="46.0678713420362" lon="12.560817848906233"><ele>216.0</ele><time>2026-03-30T09:04:55Z</time></trkpt><trkpt lat="46.067783302114165" lon="12.560817780475292"><ele>216.0</ele><time>2026-03-30T09:05:08Z</time></trkpt><trkpt lat="46.06769738436016" lon="12.560844632776119"><ele>216.0</ele><time>2026-03-30T09:05:10Z</time></trkpt><trkpt lat="46.0676284283603" lon="12.560824935228881"><ele>216.0</ele><time>2026-03-30T09:05:12Z</time></trkpt><trkpt lat="46.06756551993358" lon="12.560804478774234"><ele>216.0</ele><time>2026-03-30T09:05:14Z</time></trkpt><trkpt lat="46.067537290884694" lon="12.560712597514494"><ele>216.0</ele><time>2026-03-30T09:05:20Z</time></trkpt><trkpt lat="46.06762354574337" lon="12.560601471450497"><ele>216.0</ele><time>2026-03-30T09:05:23Z</time></trkpt><trkpt lat="46.06768047017611" lon="12.560485140717098"><ele>216.0</ele><time>2026-03-30T09:05:25Z</time></trkpt><trkpt lat="46.06764626483161" lon="12.560376206512487"><ele>216.0</ele><time>2026-03-30T09:05:27Z</time></trkpt><trkpt lat="46.06759774859568" lon="12.56031383536094"><ele>216.0</ele><time>2026-03-30T09:05:28Z</time></trkpt><trkpt lat="46.067533885399364" lon="12.560273678190542"><ele>216.0</ele><time>2026-03-30T09:05:29Z</time></trkpt><trkpt lat="46.06746722212413" lon="12.560217201469237"><ele>216.0</ele><time>2026-03-30T09:05:31Z</time></trkpt><trkpt lat="46.06756922768157" lon="12.560272985256404"><ele>216.0</ele><time>2026-03-30T09:05:44Z</time></trkpt><trkpt lat="46.06762573145711" lon="12.56034593961147"><ele>216.0</ele><time>2026-03-30T09:05:47Z</time></trkpt><trkpt lat="46.06765228307334" lon="12.56043578343356"><ele>216.0</ele><time>2026-03-30T09:05:48Z</time></trkpt><trkpt lat="46.06760488249587" lon="12.560569098699336"><ele>216.0</ele><time>2026-03-30T09:05:50Z</time></trkpt><trkpt lat="46.067530812980976" lon="12.560658995106854"><ele>216.0</ele><time>2026-03-30T09:05:52Z</time></trkpt><trkpt lat="46.06751010593844" lon="12.560747076973989"><ele>216.0</ele><time>2026-03-30T09:05:54Z</time></trkpt><trkpt lat="46.06748409202087" lon="12.560836503425058"><ele>214.57142857142856</ele><time>2026-03-30T09:05:56Z</time></trkpt><trkpt lat="46.06744192272295" lon="12.560962405396525"><ele>213.14285714285714</ele><time>2026-03-30T09:05:58Z</time></trkpt><trkpt lat="46.06742872485415" lon="12.561056860252707"><ele>211.71428571428572</ele><time>2026-03-30T09:05:59Z</time></trkpt><trkpt lat="46.06741943555725" lon="12.561151515541468"><ele>210.28571428571428</ele><time>2026-03-30T09:06:00Z</time></trkpt><trkpt lat="46.06741341888911" lon="12.561253161891186"><ele>208.85714285714286</ele><time>2026-03-30T09:06:01Z</time></trkpt><trkpt lat="46.067409076343296" lon="12.561349441224573"><ele>207.42857142857142</ele><time>2026-03-30T09:06:02Z</time></trkpt><trkpt lat="46.06739799033318" lon="12.561452875978597"><ele>206.0</ele><time>2026-03-30T09:06:03Z</time></trkpt><trkpt lat="46.06738977774974" lon="12.561557411032085"><ele>204.20000000000002</ele><time>2026-03-30T09:06:04Z</time></trkpt><trkpt lat="46.06737324906805" lon="12.561667874269524"><ele>202.4</ele><time>2026-03-30T09:06:05Z</time></trkpt><trkpt lat="46.06734892629792" lon="12.5617533885341"><ele>200.6</ele><time>2026-03-30T09:06:06Z</time></trkpt><trkpt lat="46.06728938416119" lon="12.561912255924035"><ele>198.8</ele><time>2026-03-30T09:06:08Z</time></trkpt><trkpt lat="46.06724609564485" lon="12.56207114607811"><ele>197.0</ele><time>2026-03-30T09:06:10Z</time></trkpt><trkpt lat="46.06719475865193" lon="12.562136747218808"><ele>196.42857142857144</ele><time>2026-03-30T09:06:11Z</time></trkpt><trkpt lat="46.067134946175585" lon="12.562191782794287"><ele>195.85714285714286</ele><time>2026-03-30T09:06:12Z</time></trkpt><trkpt lat="46.06708906277519" lon="12.56225671024577"><ele>195.28571428571428</ele><time>2026-03-30T09:06:13Z</time></trkpt><trkpt lat="46.06705852726248" lon="12.56234751807151"><ele>194.71428571428572</ele><time>2026-03-30T09:06:14Z</time></trkpt><trkpt lat="46.06702642792764" lon="12.562457278685587"><ele>194.14285714285714</ele><time>2026-03-30T09:06:14.999Z</time></trkpt><trkpt lat="46.066979182777764" lon="12.562525583270935"><ele>193.57142857142858</ele><time>2026-03-30T09:06:15.999Z</time></trkpt><trkpt lat="46.06692430588983" lon="12.562600013732906"><ele>193.0</ele><time>2026-03-30T09:06:16.999Z</time></trkpt><trkpt lat="46.066883775552455" lon="12.562675474317121"><ele>192.99999999999997</ele><time>2026-03-30T09:06:17.999Z</time></trkpt><trkpt lat="46.066898206301204" lon="12.562828173312905"><ele>193.0</ele><time>2026-03-30T09:06:19.999Z</time></trkpt><trkpt lat="46.06691005515966" lon="12.56296509961274"><ele>193.0</ele><time>2026-03-30T09:06:20.999Z</time></trkpt><trkpt lat="46.06689907925549" lon="12.563101686340072"><ele>193.0</ele><time>2026-03-30T09:06:21.999Z</time></trkpt><trkpt lat="46.066886685631665" lon="12.563205670224319"><ele>192.99999999999997</ele><time>2026-03-30T09:06:22.999Z</time></trkpt><trkpt lat="46.066890890347885" lon="12.563306633523963"><ele>193.0</ele><time>2026-03-30T09:06:23.999Z</time></trkpt><trkpt lat="46.06694452955717" lon="12.563473487512166"><ele>191.99999999999997</ele><time>2026-03-30T09:06:25.999Z</time></trkpt><trkpt lat="46.06700790815853" lon="12.56347166835673"><ele>191.0</ele><time>2026-03-30T09:06:30.999Z</time></trkpt><trkpt lat="46.06706827284959" lon="12.56335610164329"><ele>190.0</ele><time>2026-03-30T09:06:32.999Z</time></trkpt><trkpt lat="46.06713514296539" lon="12.563299018198132"><ele>189.0</ele><time>2026-03-30T09:06:34.999Z</time></trkpt><trkpt lat="46.06721723987001" lon="12.563355803201175"><ele>188.0</ele><time>2026-03-30T09:06:36.999Z</time></trkpt><trkpt lat="46.067322703662256" lon="12.563400146375967"><ele>187.0</ele><time>2026-03-30T09:06:39Z</time></trkpt><trkpt lat="46.06742978911681" lon="12.563466024799345"><ele>187.8</ele><time>2026-03-30T09:06:41Z</time></trkpt><trkpt lat="46.06750225614829" lon="12.563583980151616"><ele>188.6</ele><time>2026-03-30T09:06:43Z</time></trkpt><trkpt lat="46.06756000242303" lon="12.563759090675838"><ele>189.4</ele><time>2026-03-30T09:06:45Z</time></trkpt><trkpt lat="46.06758073164039" lon="12.563854552208294"><ele>190.20000000000002</ele><time>2026-03-30T09:06:46Z</time></trkpt><trkpt lat="46.0676478083344" lon="12.563988642326875"><ele>191.0</ele><time>2026-03-30T09:06:48Z</time></trkpt><trkpt lat="46.067713154138545" lon="12.564042353975028"><ele>189.66666666666666</ele><time>2026-03-30T09:06:49Z</time></trkpt><trkpt lat="46.0677856846802" lon="12.56407885618242"><ele>188.33333333333331</ele><time>2026-03-30T09:06:50Z</time></trkpt><trkpt lat="46.0678761339721" lon="12.564120078878306"><ele>187.0</ele><time>2026-03-30T09:06:51Z</time></trkpt><trkpt lat="46.06797384062887" lon="12.564149566680928"><ele>185.66666666666666</ele><time>2026-03-30T09:06:52Z</time></trkpt><trkpt lat="46.06803518318473" lon="12.564176813841797"><ele>184.33333333333334</ele><time>2026-03-30T09:06:53Z</time></trkpt><trkpt lat="46.06809868893643" lon="12.56421211561173"><ele>183.0</ele><time>2026-03-30T09:06:54Z</time></trkpt><trkpt lat="46.06816274067378" lon="12.564245715944226"><ele>183.0</ele><time>2026-03-30T09:06:55Z</time></trkpt><trkpt lat="46.068233753268665" lon="12.564262535648421"><ele>183.0</ele><time>2026-03-30T09:06:56Z</time></trkpt><trkpt lat="46.06834289363031" lon="12.5642541400522"><ele>183.0</ele><time>2026-03-30T09:06:58Z</time></trkpt><trkpt lat="46.06840924704028" lon="12.564372111909872"><ele>183.0</ele><time>2026-03-30T09:07:00Z</time></trkpt><trkpt lat="46.068347915583765" lon="12.564319852265703"><ele>183.0</ele><time>2026-03-30T09:07:28Z</time></trkpt><trkpt lat="46.06825689180963" lon="12.564292625175426"><ele>183.0</ele><time>2026-03-30T09:07:30Z</time></trkpt><trkpt lat="46.0681947187939" lon="12.564307791015349"><ele>183.0</ele><time>2026-03-30T09:07:31Z</time></trkpt><trkpt lat="46.06812109064549" lon="12.564301388465147"><ele>183.0</ele><time>2026-03-30T09:07:32Z</time></trkpt><trkpt lat="46.0680466768776" lon="12.564246613603167"><ele>183.0</ele><time>2026-03-30T09:07:33Z</time></trkpt><trkpt lat="46.06795638942293" lon="12.564199235085393"><ele>183.0</ele><time>2026-03-30T09:07:34Z</time></trkpt><trkpt lat="46.067858358205626" lon="12.564181517481334"><ele>183.0</ele><time>2026-03-30T09:07:35Z</time></trkpt><trkpt lat="46.06777181919454" lon="12.564153727881136"><ele>183.0</ele><time>2026-03-30T09:07:36Z</time></trkpt><trkpt lat="46.06770391190411" lon="12.564108452829872"><ele>183.0</ele><time>2026-03-30T09:07:37Z</time></trkpt><trkpt lat="46.06765496090203" lon="12.56403792915327"><ele>183.0</ele><time>2026-03-30T09:07:38Z</time></trkpt><trkpt lat="46.06762077505997" lon="12.5639554597561"><ele>183.0</ele><time>2026-03-30T09:07:39Z</time></trkpt><trkpt lat="46.06760055597218" lon="12.563861185574362"><ele>183.0</ele><time>2026-03-30T09:07:40Z</time></trkpt><trkpt lat="46.06757720051961" lon="12.563730007133314"><ele>183.0</ele><time>2026-03-30T09:07:41Z</time></trkpt><trkpt lat="46.067539414576125" lon="12.563612667751586"><ele>183.66666666666666</ele><time>2026-03-30T09:07:42Z</time></trkpt><trkpt lat="46.06749977901637" lon="12.56353691465045"><ele>184.33333333333334</ele><time>2026-03-30T09:07:43Z</time></trkpt><trkpt lat="46.06740863420161" lon="12.56345729353847"><ele>185.0</ele><time>2026-03-30T09:07:45Z</time></trkpt><trkpt lat="46.067329679064684" lon="12.563439977697476"><ele>185.66666666666669</ele><time>2026-03-30T09:07:46Z</time></trkpt><trkpt lat="46.06726264282747" lon="12.563426514156948"><ele>186.33333333333334</ele><time>2026-03-30T09:07:47Z</time></trkpt><trkpt lat="46.067204900102496" lon="12.563367680928906"><ele>187.0</ele><time>2026-03-30T09:07:48Z</time></trkpt><trkpt lat="46.06710850294445" lon="12.563322075296371"><ele>187.0</ele><time>2026-03-30T09:07:50Z</time></trkpt><trkpt lat="46.0670434566708" lon="12.563446033630326"><ele>187.0</ele><time>2026-03-30T09:07:52Z</time></trkpt><trkpt lat="46.06699327512179" lon="12.563518989358784"><ele>187.0</ele><time>2026-03-30T09:07:53Z</time></trkpt><trkpt lat="46.066927092813515" lon="12.563675825438958"><ele>187.0</ele><time>2026-03-30T09:07:55Z</time></trkpt><trkpt lat="46.06690427712291" lon="12.563778472215384"><ele>187.0</ele><time>2026-03-30T09:07:56Z</time></trkpt><trkpt lat="46.06687506584944" lon="12.563869052874246"><ele>185.6</ele><time>2026-03-30T09:07:57Z</time></trkpt><trkpt lat="46.066809532920686" lon="12.563956021602452"><ele>184.2</ele><time>2026-03-30T09:07:58Z</time></trkpt><trkpt lat="46.06672676911367" lon="12.563998754914937"><ele>182.8</ele><time>2026-03-30T09:07:59Z</time></trkpt><trkpt lat="46.0666576645747" lon="12.564040072063143"><ele>181.4</ele><time>2026-03-30T09:08:00Z</time></trkpt><trkpt lat="46.06655878926858" lon="12.564093573432784"><ele>180.0</ele><time>2026-03-30T09:08:02Z</time></trkpt><trkpt lat="46.06649678645291" lon="12.56422873231971"><ele>179.0</ele><time>2026-03-30T09:08:04Z</time></trkpt><trkpt lat="46.06650289661655" lon="12.564404268546424"><ele>178.0</ele><time>2026-03-30T09:08:06Z</time></trkpt><trkpt lat="46.06659236512895" lon="12.56457774877116"><ele>177.0</ele><time>2026-03-30T09:08:08Z</time></trkpt><trkpt lat="46.0666712144606" lon="12.564657611987313"><ele>176.0</ele><time>2026-03-30T09:08:09Z</time></trkpt><trkpt lat="46.06674114774668" lon="12.564739954823814"><ele>175.33333333333331</ele><time>2026-03-30T09:08:10Z</time></trkpt><trkpt lat="46.066788179441154" lon="12.564828751991824"><ele>174.66666666666666</ele><time>2026-03-30T09:08:11Z</time></trkpt><trkpt lat="46.06681688560207" lon="12.564945930287843"><ele>174.0</ele><time>2026-03-30T09:08:12Z</time></trkpt><trkpt lat="46.06684556702314" lon="12.565056440703607"><ele>173.33333333333334</ele><time>2026-03-30T09:08:13Z</time></trkpt><trkpt lat="46.06686622984368" lon="12.56516263472775"><ele>172.66666666666669</ele><time>2026-03-30T09:08:14Z</time></trkpt><trkpt lat="46.066859834165186" lon="12.565273459596245"><ele>172.0</ele><time>2026-03-30T09:08:15Z</time></trkpt><trkpt lat="46.06685957136326" lon="12.565389693641023"><ele>170.0</ele><time>2026-03-30T09:08:16Z</time></trkpt><trkpt lat="46.06685915713863" lon="12.565507014153576"><ele>168.0</ele><time>2026-03-30T09:08:17Z</time></trkpt><trkpt lat="46.066867918190255" lon="12.565614444637072"><ele>166.0</ele><time>2026-03-30T09:08:18Z</time></trkpt><trkpt lat="46.06686874496639" lon="12.565722607762014"><ele>164.0</ele><time>2026-03-30T09:08:19Z</time></trkpt><trkpt lat="46.06684018946975" lon="12.56587551429043"><ele>162.0</ele><time>2026-03-30T09:08:20.999Z</time></trkpt><trkpt lat="46.06677522542958" lon="12.565940485798489"><ele>160.0</ele><time>2026-03-30T09:08:21.999Z</time></trkpt><trkpt lat="46.06669497338582" lon="12.5660116951967"><ele>158.4</ele><time>2026-03-30T09:08:22.999Z</time></trkpt><trkpt lat="46.0665998147809" lon="12.566105436888577"><ele>156.8</ele><time>2026-03-30T09:08:23.999Z</time></trkpt><trkpt lat="46.06650775466863" lon="12.56619966080785"><ele>155.2</ele><time>2026-03-30T09:08:24.999Z</time></trkpt><trkpt lat="46.06643095212983" lon="12.566272331775025"><ele>153.6</ele><time>2026-03-30T09:08:25.999Z</time></trkpt><trkpt lat="46.06639100038462" lon="12.566365320630025"><ele>152.0</ele><time>2026-03-30T09:08:26.999Z</time></trkpt><trkpt lat="46.066357069617226" lon="12.56644732004268"><ele>150.79999999999998</ele><time>2026-03-30T09:08:27.999Z</time></trkpt><trkpt lat="46.066326153711316" lon="12.566581701773222"><ele>149.6</ele><time>2026-03-30T09:08:28.999Z</time></trkpt><trkpt lat="46.06629968560869" lon="12.566727187520245"><ele>148.39999999999998</ele><time>2026-03-30T09:08:29.999Z</time></trkpt><trkpt lat="46.06626786260865" lon="12.566859519044918"><ele>147.2</ele><time>2026-03-30T09:08:30.999Z</time></trkpt><trkpt lat="46.06622673344439" lon="12.56696229027789"><ele>146.0</ele><time>2026-03-30T09:08:32Z</time></trkpt><trkpt lat="46.06617028923866" lon="12.567052103088782"><ele>146.0</ele><time>2026-03-30T09:08:33Z</time></trkpt><trkpt lat="46.06608304388796" lon="12.567139741317272"><ele>146.0</ele><time>2026-03-30T09:08:34Z</time></trkpt><trkpt lat="46.06597425564805" lon="12.567240557627166"><ele>146.0</ele><time>2026-03-30T09:08:35Z</time></trkpt><trkpt lat="46.06586714225931" lon="12.567361445395656"><ele>146.0</ele><time>2026-03-30T09:08:36Z</time></trkpt><trkpt lat="46.065777903835546" lon="12.567475338837534"><ele>145.83333333333331</ele><time>2026-03-30T09:08:37Z</time></trkpt><trkpt lat="46.06569718597083" lon="12.56756834945006"><ele>145.66666666666666</ele><time>2026-03-30T09:08:38Z</time></trkpt><trkpt lat="46.06563212773195" lon="12.567659660521597"><ele>145.5</ele><time>2026-03-30T09:08:39Z</time></trkpt><trkpt lat="46.065581413851135" lon="12.567736828668373"><ele>145.33333333333334</ele><time>2026-03-30T09:08:40Z</time></trkpt><trkpt lat="46.06553737765452" lon="12.56781192851508"><ele>145.16666666666669</ele><time>2026-03-30T09:08:42Z</time></trkpt><trkpt lat="46.06553742359667" lon="12.567942671243594"><ele>145.0</ele><time>2026-03-30T09:09:16Z</time></trkpt><trkpt lat="46.06560902874001" lon="12.568111699398965"><ele>145.0</ele><time>2026-03-30T09:09:18Z</time></trkpt><trkpt lat="46.06567639781558" lon="12.568213754054177"><ele>145.0</ele><time>2026-03-30T09:09:19Z</time></trkpt><trkpt lat="46.06574658581027" lon="12.568314553904274"><ele>145.0</ele><time>2026-03-30T09:09:20Z</time></trkpt><trkpt lat="46.06582459223048" lon="12.568416472201479"><ele>145.0</ele><time>2026-03-30T09:09:21Z</time></trkpt><trkpt lat="46.06589804921858" lon="12.568505975474356"><ele>145.0</ele><time>2026-03-30T09:09:22Z</time></trkpt><trkpt lat="46.065973112242666" lon="12.568598152139538"><ele>145.25</ele><time>2026-03-30T09:09:23Z</time></trkpt><trkpt lat="46.06605932391275" lon="12.56870339255045"><ele>145.5</ele><time>2026-03-30T09:09:24Z</time></trkpt><trkpt lat="46.06615955967226" lon="12.568823085999997"><ele>145.75</ele><time>2026-03-30T09:09:25Z</time></trkpt><trkpt lat="46.06625466898345" lon="12.56895177530435"><ele>146.0</ele><time>2026-03-30T09:09:26Z</time></trkpt><trkpt lat="46.06635840171778" lon="12.569083376898016"><ele>146.0</ele><time>2026-03-30T09:09:27Z</time></trkpt><trkpt lat="46.066467466855954" lon="12.569222357081378"><ele>146.0</ele><time>2026-03-30T09:09:28Z</time></trkpt><trkpt lat="46.06657504319375" lon="12.569358873732671"><ele>146.0</ele><time>2026-03-30T09:09:29Z</time></trkpt><trkpt lat="46.066676916593245" lon="12.569494709246506"><ele>146.0</ele><time>2026-03-30T09:09:30Z</time></trkpt><trkpt lat="46.06678101904361" lon="12.56963156131489"><ele>146.25</ele><time>2026-03-30T09:09:31Z</time></trkpt><trkpt lat="46.06688986056082" lon="12.569767647009966"><ele>146.5</ele><time>2026-03-30T09:09:32Z</time></trkpt><trkpt lat="46.0670016167579" lon="12.569904033889534"><ele>146.75</ele><time>2026-03-30T09:09:33Z</time></trkpt><trkpt lat="46.06711122745408" lon="12.570043177340542"><ele>147.0</ele><time>2026-03-30T09:09:34Z</time></trkpt><trkpt lat="46.06721983041486" lon="12.570187455054374"><ele>147.0</ele><time>2026-03-30T09:09:35Z</time></trkpt><trkpt lat="46.06732882584889" lon="12.570329733170423"><ele>147.0</ele><time>2026-03-30T09:09:36Z</time></trkpt><trkpt lat="46.06743944454597" lon="12.570470690156284"><ele>147.0</ele><time>2026-03-30T09:09:37Z</time></trkpt><trkpt lat="46.067549808202784" lon="12.570611736228786"><ele>147.0</ele><time>2026-03-30T09:09:38Z</time></trkpt><trkpt lat="46.06765912263422" lon="12.570748056006316"><ele>147.5</ele><time>2026-03-30T09:09:39Z</time></trkpt><trkpt lat="46.067766186842505" lon="12.570882402085854"><ele>148.0</ele><time>2026-03-30T09:09:40Z</time></trkpt><trkpt lat="46.06786987453171" lon="12.571013399364624"><ele>148.5</ele><time>2026-03-30T09:09:41Z</time></trkpt><trkpt lat="46.06797043852026" lon="12.571139261046998"><ele>149.0</ele><time>2026-03-30T09:09:42Z</time></trkpt><trkpt lat="46.068070615065494" lon="12.571260049705522"><ele>149.0</ele><time>2026-03-30T09:09:43Z</time></trkpt><trkpt lat="46.06816813940766" lon="12.57138244770795"><ele>149.0</ele><time>2026-03-30T09:09:44Z</time></trkpt><trkpt lat="46.06826380262058" lon="12.57149871427085"><ele>149.0</ele><time>2026-03-30T09:09:45Z</time></trkpt><trkpt lat="46.06836912617663" lon="12.571599750098699"><ele>149.0</ele><time>2026-03-30T09:09:46Z</time></trkpt><trkpt lat="46.06848502951071" lon="12.57168156433789"><ele>150.0</ele><time>2026-03-30T09:09:47Z</time></trkpt><trkpt lat="46.06860747597951" lon="12.57174492452554"><ele>151.0</ele><time>2026-03-30T09:09:48Z</time></trkpt><trkpt lat="46.068733744991015" lon="12.571796058808705"><ele>152.0</ele><time>2026-03-30T09:09:49Z</time></trkpt><trkpt lat="46.06886389107105" lon="12.57183942629797"><ele>153.0</ele><time>2026-03-30T09:09:50Z</time></trkpt><trkpt lat="46.068995734874534" lon="12.571868743437225"><ele>154.25</ele><time>2026-03-30T09:09:51Z</time></trkpt><trkpt lat="46.06913297031804" lon="12.571869399816512"><ele>155.5</ele><time>2026-03-30T09:09:52Z</time></trkpt><trkpt lat="46.069269617365016" lon="12.571859310291686"><ele>156.75</ele><time>2026-03-30T09:09:53Z</time></trkpt><trkpt lat="46.0693967515007" lon="12.571847968495486"><ele>158.0</ele><time>2026-03-30T09:09:54Z</time></trkpt><trkpt lat="46.06951169937278" lon="12.571837964736428"><ele>158.0</ele><time>2026-03-30T09:09:55Z</time></trkpt><trkpt lat="46.069615509414916" lon="12.571827970241506"><ele>158.0</ele><time>2026-03-30T09:09:56Z</time></trkpt><trkpt lat="46.0697115642049" lon="12.5718153821898"><ele>158.0</ele><time>2026-03-30T09:09:57Z</time></trkpt><trkpt lat="46.06981329339382" lon="12.571798455566055"><ele>158.0</ele><time>2026-03-30T09:09:58Z</time></trkpt><trkpt lat="46.0699218134694" lon="12.57178539290774"><ele>158.0</ele><time>2026-03-30T09:09:59Z</time></trkpt><trkpt lat="46.070035328248096" lon="12.57177872255958"><ele>158.0</ele><time>2026-03-30T09:10:00Z</time></trkpt><trkpt lat="46.07015099867045" lon="12.57177917311757"><ele>158.0</ele><time>2026-03-30T09:10:01Z</time></trkpt><trkpt lat="46.07026747807137" lon="12.571788989694832"><ele>158.0</ele><time>2026-03-30T09:10:02Z</time></trkpt><trkpt lat="46.07038360023992" lon="12.571812519042776"><ele>158.0</ele><time>2026-03-30T09:10:03Z</time></trkpt><trkpt lat="46.070496158217686" lon="12.571856025827701"><ele>158.0</ele><time>2026-03-30T09:10:04Z</time></trkpt><trkpt lat="46.07060412985953" lon="12.571915291497813"><ele>158.0</ele><time>2026-03-30T09:10:05Z</time></trkpt><trkpt lat="46.07070382483421" lon="12.571993905596301"><ele>158.0</ele><time>2026-03-30T09:10:06Z</time></trkpt><trkpt lat="46.070794833380035" lon="12.572080981706023"><ele>158.0</ele><time>2026-03-30T09:10:07Z</time></trkpt><trkpt lat="46.07087664173033" lon="12.572176398283794"><ele>158.0</ele><time>2026-03-30T09:10:08Z</time></trkpt><trkpt lat="46.07095126969343" lon="12.572281560013082"><ele>158.20000000000002</ele><time>2026-03-30T09:10:09Z</time></trkpt><trkpt lat="46.07102043247195" lon="12.57239701201825"><ele>158.4</ele><time>2026-03-30T09:10:10Z</time></trkpt><trkpt lat="46.07107969530043" lon="12.572526238050916"><ele>158.60000000000002</ele><time>2026-03-30T09:10:11Z</time></trkpt><trkpt lat="46.07113640560352" lon="12.572664311014613"><ele>158.8</ele><time>2026-03-30T09:10:12Z</time></trkpt><trkpt lat="46.07119385554115" lon="12.572806278486997"><ele>159.0</ele><time>2026-03-30T09:10:13Z</time></trkpt><trkpt lat="46.071250558149515" lon="12.572956315709526"><ele>159.0</ele><time>2026-03-30T09:10:14Z</time></trkpt><trkpt lat="46.071303981651134" lon="12.573113025444988"><ele>159.0</ele><time>2026-03-30T09:10:15Z</time></trkpt><trkpt lat="46.07136344819752" lon="12.573275244436266"><ele>159.0</ele><time>2026-03-30T09:10:16Z</time></trkpt><trkpt lat="46.07142643920829" lon="12.573438459364914"><ele>159.0</ele><time>2026-03-30T09:10:17Z</time></trkpt><trkpt lat="46.07149039044668" lon="12.573606651868005"><ele>158.5</ele><time>2026-03-30T09:10:18Z</time></trkpt><trkpt lat="46.07155494443735" lon="12.573779285161635"><ele>158.0</ele><time>2026-03-30T09:10:19Z</time></trkpt><trkpt lat="46.071620737152465" lon="12.573956889767041"><ele>157.5</ele><time>2026-03-30T09:10:20Z</time></trkpt><trkpt lat="46.071689337741965" lon="12.574136492917946"><ele>157.0</ele><time>2026-03-30T09:10:21Z</time></trkpt><trkpt lat="46.07175745058743" lon="12.5743176593139"><ele>158.25</ele><time>2026-03-30T09:10:22Z</time></trkpt><trkpt lat="46.071825610521394" lon="12.574501975357384"><ele>159.5</ele><time>2026-03-30T09:10:23Z</time></trkpt><trkpt lat="46.07189381431146" lon="12.574684771901262"><ele>160.75</ele><time>2026-03-30T09:10:24Z</time></trkpt><trkpt lat="46.07196277529896" lon="12.574866871335642"><ele>162.0</ele><time>2026-03-30T09:10:25Z</time></trkpt><trkpt lat="46.07202999824002" lon="12.575050824781743"><ele>162.25</ele><time>2026-03-30T09:10:26Z</time></trkpt><trkpt lat="46.07209739102318" lon="12.575235646047567"><ele>162.5</ele><time>2026-03-30T09:10:27Z</time></trkpt><trkpt lat="46.07216584458777" lon="12.575418692312619"><ele>162.75</ele><time>2026-03-30T09:10:28Z</time></trkpt><trkpt lat="46.07223743027795" lon="12.575596897589328"><ele>163.0</ele><time>2026-03-30T09:10:29Z</time></trkpt><trkpt lat="46.07231359451156" lon="12.5757666476418"><ele>163.0</ele><time>2026-03-30T09:10:30Z</time></trkpt><trkpt lat="46.07239429128919" lon="12.575930413087674"><ele>163.0</ele><time>2026-03-30T09:10:31Z</time></trkpt><trkpt lat="46.072481002990365" lon="12.576084058576253"><ele>163.0</ele><time>2026-03-30T09:10:32Z</time></trkpt><trkpt lat="46.0725747384144" lon="12.576224764377718"><ele>163.0</ele><time>2026-03-30T09:10:33Z</time></trkpt><trkpt lat="46.07267647983551" lon="12.576353007644506"><ele>164.25</ele><time>2026-03-30T09:10:34Z</time></trkpt><trkpt lat="46.072780777826885" lon="12.576468147320353"><ele>165.5</ele><time>2026-03-30T09:10:35Z</time></trkpt><trkpt lat="46.07288719774461" lon="12.576577083712225"><ele>166.75</ele><time>2026-03-30T09:10:36Z</time></trkpt><trkpt lat="46.0729929777098" lon="12.576673732950397"><ele>168.0</ele><time>2026-03-30T09:10:37Z</time></trkpt><trkpt lat="46.07309431879893" lon="12.57677218251742"><ele>168.0</ele><time>2026-03-30T09:10:38Z</time></trkpt><trkpt lat="46.073191736767264" lon="12.576867110222146"><ele>168.0</ele><time>2026-03-30T09:10:39Z</time></trkpt><trkpt lat="46.073283007325415" lon="12.57696715118916"><ele>168.0</ele><time>2026-03-30T09:10:40Z</time></trkpt><trkpt lat="46.07337401358575" lon="12.577069718101237"><ele>168.0</ele><time>2026-03-30T09:10:41Z</time></trkpt><trkpt lat="46.07346743207049" lon="12.57717218081114"><ele>169.5</ele><time>2026-03-30T09:10:42Z</time></trkpt><trkpt lat="46.07356257101438" lon="12.57727404908944"><ele>171.0</ele><time>2026-03-30T09:10:43Z</time></trkpt><trkpt lat="46.07366039008447" lon="12.577374572847718"><ele>172.5</ele><time>2026-03-30T09:10:44Z</time></trkpt><trkpt lat="46.073759542615036" lon="12.577474890941208"><ele>174.0</ele><time>2026-03-30T09:10:45Z</time></trkpt><trkpt lat="46.07385836711766" lon="12.577580280180234"><ele>174.0</ele><time>2026-03-30T09:10:46Z</time></trkpt><trkpt lat="46.07396241750747" lon="12.577685606011531"><ele>174.0</ele><time>2026-03-30T09:10:47Z</time></trkpt><trkpt lat="46.07405864357858" lon="12.577780152820571"><ele>174.0</ele><time>2026-03-30T09:10:48Z</time></trkpt><trkpt lat="46.074150471140676" lon="12.57786328663823"><ele>174.0</ele><time>2026-03-30T09:10:49Z</time></trkpt><trkpt lat="46.07424454775537" lon="12.577937013342426"><ele>174.39999999999998</ele><time>2026-03-30T09:10:50Z</time></trkpt><trkpt lat="46.074341293230454" lon="12.577994756002004"><ele>174.8</ele><time>2026-03-30T09:10:51Z</time></trkpt><trkpt lat="46.07443364394111" lon="12.578037597380103"><ele>175.2</ele><time>2026-03-30T09:10:52Z</time></trkpt><trkpt lat="46.07451888082188" lon="12.578066054057297"><ele>175.60000000000002</ele><time>2026-03-30T09:10:53Z</time></trkpt><trkpt lat="46.074608446427" lon="12.578072700208885"><ele>176.0</ele><time>2026-03-30T09:10:54Z</time></trkpt><trkpt lat="46.07470487915087" lon="12.578078387744823"><ele>176.0</ele><time>2026-03-30T09:10:55Z</time></trkpt><trkpt lat="46.07480272642325" lon="12.578077652010446"><ele>176.0</ele><time>2026-03-30T09:10:56Z</time></trkpt><trkpt lat="46.07490430943385" lon="12.57805470454277"><ele>176.0</ele><time>2026-03-30T09:10:57Z</time></trkpt><trkpt lat="46.07500355263336" lon="12.578015119381323"><ele>176.0</ele><time>2026-03-30T09:10:58Z</time></trkpt><trkpt lat="46.075103154060415" lon="12.5779644705845"><ele>176.0</ele><time>2026-03-30T09:10:59Z</time></trkpt><trkpt lat="46.07520283843753" lon="12.577903319724092"><ele>176.8</ele><time>2026-03-30T09:11:00Z</time></trkpt><trkpt lat="46.07530084505212" lon="12.577835847625726"><ele>177.60000000000002</ele><time>2026-03-30T09:11:01Z</time></trkpt><trkpt lat="46.075400223497475" lon="12.577764240709572"><ele>178.4</ele><time>2026-03-30T09:11:02Z</time></trkpt><trkpt lat="46.075498104431205" lon="12.57768537164221"><ele>179.2</ele><time>2026-03-30T09:11:03Z</time></trkpt><trkpt lat="46.07559549216661" lon="12.577599657867344"><ele>180.0</ele><time>2026-03-30T09:11:04Z</time></trkpt><trkpt lat="46.07569389759706" lon="12.577514818516796"><ele>180.5</ele><time>2026-03-30T09:11:05Z</time></trkpt><trkpt lat="46.07579289208276" lon="12.577430109675667"><ele>181.0</ele><time>2026-03-30T09:11:06Z</time></trkpt><trkpt lat="46.0758926847675" lon="12.577344078357829"><ele>181.5</ele><time>2026-03-30T09:11:07Z</time></trkpt><trkpt lat="46.07599301921353" lon="12.57725626644005"><ele>182.0</ele><time>2026-03-30T09:11:08Z</time></trkpt><trkpt lat="46.07609558965108" lon="12.577169258343469"><ele>182.0</ele><time>2026-03-30T09:11:09Z</time></trkpt><trkpt lat="46.07620187653452" lon="12.57708097769843"><ele>182.0</ele><time>2026-03-30T09:11:10Z</time></trkpt><trkpt lat="46.07629593160254" lon="12.577003147134635"><ele>182.0</ele><time>2026-03-30T09:11:11Z</time></trkpt><trkpt lat="46.076388969961904" lon="12.576923373240112"><ele>182.0</ele><time>2026-03-30T09:11:12Z</time></trkpt><trkpt lat="46.07647830490721" lon="12.57684928072742"><ele>182.0</ele><time>2026-03-30T09:11:13Z</time></trkpt><trkpt lat="46.07655956838371" lon="12.576786621799398"><ele>182.83333333333331</ele><time>2026-03-30T09:11:14Z</time></trkpt><trkpt lat="46.07663596092615" lon="12.576729298284159"><ele>183.66666666666666</ele><time>2026-03-30T09:11:15Z</time></trkpt><trkpt lat="46.07671027554175" lon="12.576663239929825"><ele>184.5</ele><time>2026-03-30T09:11:16Z</time></trkpt><trkpt lat="46.076783375162464" lon="12.576589943709656"><ele>185.33333333333334</ele><time>2026-03-30T09:11:17Z</time></trkpt><trkpt lat="46.07684159138861" lon="12.576522006328599"><ele>186.16666666666669</ele><time>2026-03-30T09:11:18Z</time></trkpt><trkpt lat="46.07690486609144" lon="12.576451969541742"><ele>187.0</ele><time>2026-03-30T09:11:19Z</time></trkpt><trkpt lat="46.07698455027081" lon="12.576390055838392"><ele>187.0</ele><time>2026-03-30T09:11:20Z</time></trkpt><trkpt lat="46.077092361767924" lon="12.57631643978919"><ele>187.0</ele><time>2026-03-30T09:11:21Z</time></trkpt><trkpt lat="46.07720890199541" lon="12.576243531971036"><ele>187.0</ele><time>2026-03-30T09:11:22Z</time></trkpt><trkpt lat="46.0773200476465" lon="12.576158014164486"><ele>187.0</ele><time>2026-03-30T09:11:23Z</time></trkpt><trkpt lat="46.07743015742609" lon="12.576066718445727"><ele>188.0</ele><time>2026-03-30T09:11:24Z</time></trkpt><trkpt lat="46.07754159282233" lon="12.575963131956492"><ele>189.0</ele><time>2026-03-30T09:11:25Z</time></trkpt><trkpt lat="46.077665721367374" lon="12.575862981118256"><ele>190.0</ele><time>2026-03-30T09:11:26Z</time></trkpt><trkpt lat="46.077787286223405" lon="12.575767095054363"><ele>191.0</ele><time>2026-03-30T09:11:27Z</time></trkpt><trkpt lat="46.07790020823355" lon="12.57567114126094"><ele>191.0</ele><time>2026-03-30T09:11:28Z</time></trkpt><trkpt lat="46.07801511016388" lon="12.575577128502278"><ele>191.0</ele><time>2026-03-30T09:11:29Z</time></trkpt><trkpt lat="46.07812378092119" lon="12.575489614620793"><ele>191.0</ele><time>2026-03-30T09:11:30Z</time></trkpt><trkpt lat="46.07823180102811" lon="12.575406665551636"><ele>191.0</ele><time>2026-03-30T09:11:31Z</time></trkpt><trkpt lat="46.078342191289096" lon="12.575330017054373"><ele>192.25</ele><time>2026-03-30T09:11:32Z</time></trkpt><trkpt lat="46.07845391112659" lon="12.575242739538426"><ele>193.5</ele><time>2026-03-30T09:11:33Z</time></trkpt><trkpt lat="46.07856064918491" lon="12.57513477331677"><ele>194.75</ele><time>2026-03-30T09:11:34Z</time></trkpt><trkpt lat="46.07867770527501" lon="12.575032980995553"><ele>196.0</ele><time>2026-03-30T09:11:35Z</time></trkpt><trkpt lat="46.078808251596236" lon="12.574944637510384"><ele>196.0</ele><time>2026-03-30T09:11:36Z</time></trkpt><trkpt lat="46.078926169402344" lon="12.574856222765314"><ele>196.0</ele><time>2026-03-30T09:11:37Z</time></trkpt><trkpt lat="46.079028124193336" lon="12.57476118409523"><ele>196.0</ele><time>2026-03-30T09:11:38Z</time></trkpt><trkpt lat="46.07910586960097" lon="12.574666228139463"><ele>196.0</ele><time>2026-03-30T09:11:39Z</time></trkpt><trkpt lat="46.07916974026074" lon="12.574582388353871"><ele>196.0</ele><time>2026-03-30T09:11:40Z</time></trkpt><trkpt lat="46.07922775368469" lon="12.574504929574577"><ele>196.99999999999997</ele><time>2026-03-30T09:11:41Z</time></trkpt><trkpt lat="46.07928069692151" lon="12.574409534592482"><ele>198.0</ele><time>2026-03-30T09:11:42Z</time></trkpt><trkpt lat="46.07933243474583" lon="12.574319179918009"><ele>199.0</ele><time>2026-03-30T09:11:43Z</time></trkpt><trkpt lat="46.079389549122226" lon="12.574229919475437"><ele>200.0</ele><time>2026-03-30T09:11:44Z</time></trkpt><trkpt lat="46.079448739546365" lon="12.574150810177041"><ele>200.99999999999997</ele><time>2026-03-30T09:11:45Z</time></trkpt><trkpt lat="46.07951994687502" lon="12.574055014637977"><ele>202.0</ele><time>2026-03-30T09:11:46Z</time></trkpt><trkpt lat="46.07957391492" lon="12.573975786307633"><ele>202.0</ele><time>2026-03-30T09:11:47Z</time></trkpt><trkpt lat="46.079669278986344" lon="12.573871510254214"><ele>202.0</ele><time>2026-03-30T09:11:49Z</time></trkpt><trkpt lat="46.07970872231865" lon="12.573770396661201"><ele>202.0</ele><time>2026-03-30T09:11:51Z</time></trkpt><trkpt lat="46.079726054624906" lon="12.573656086553699"><ele>202.0</ele><time>2026-03-30T09:11:54Z</time></trkpt><trkpt lat="46.079716459199325" lon="12.573485815113896"><ele>202.0</ele><time>2026-03-30T09:11:56Z</time></trkpt><trkpt lat="46.07970882375772" lon="12.57337449926077"><ele>202.2</ele><time>2026-03-30T09:11:57Z</time></trkpt><trkpt lat="46.079713895257115" lon="12.573251113224094"><ele>202.39999999999998</ele><time>2026-03-30T09:11:58Z</time></trkpt><trkpt lat="46.079743051085416" lon="12.573096668158573"><ele>202.60000000000002</ele><time>2026-03-30T09:11:59Z</time></trkpt><trkpt lat="46.079780409103364" lon="12.572949056774227"><ele>202.8</ele><time>2026-03-30T09:12:00Z</time></trkpt><trkpt lat="46.07980520848079" lon="12.572824341969909"><ele>203.0</ele><time>2026-03-30T09:12:01Z</time></trkpt><trkpt lat="46.07981407428236" lon="12.5726904297939"><ele>204.0</ele><time>2026-03-30T09:12:02Z</time></trkpt><trkpt lat="46.07981515487446" lon="12.572553788094037"><ele>205.0</ele><time>2026-03-30T09:12:03Z</time></trkpt><trkpt lat="46.07981063912579" lon="12.572423496666374"><ele>206.0</ele><time>2026-03-30T09:12:04Z</time></trkpt><trkpt lat="46.07979373992262" lon="12.572311599334013"><ele>207.0</ele><time>2026-03-30T09:12:05Z</time></trkpt><trkpt lat="46.079759128823845" lon="12.572170665496174"><ele>208.0</ele><time>2026-03-30T09:12:07Z</time></trkpt><trkpt lat="46.07975746422237" lon="12.572014842748164"><ele>210.0</ele><time>2026-03-30T09:12:09Z</time></trkpt><trkpt lat="46.07982351592258" lon="12.571862746437935"><ele>212.0</ele><time>2026-03-30T09:12:11Z</time></trkpt><trkpt lat="46.079895765649226" lon="12.571745364848192"><ele>214.0</ele><time>2026-03-30T09:12:12Z</time></trkpt><trkpt lat="46.07996615533301" lon="12.571608141961917"><ele>216.0</ele><time>2026-03-30T09:12:13Z</time></trkpt><trkpt lat="46.080024012226176" lon="12.571455167894063"><ele>216.0</ele><time>2026-03-30T09:12:14Z</time></trkpt><trkpt lat="46.080080422511976" lon="12.571338191780661"><ele>216.00000000000003</ele><time>2026-03-30T09:12:15Z</time></trkpt><trkpt lat="46.08014532922507" lon="12.571253267006886"><ele>216.00000000000003</ele><time>2026-03-30T09:12:16Z</time></trkpt><trkpt lat="46.08022978475234" lon="12.571171259235586"><ele>216.0</ele><time>2026-03-30T09:12:17Z</time></trkpt><trkpt lat="46.08031505166109" lon="12.571081255666597"><ele>216.0</ele><time>2026-03-30T09:12:18Z</time></trkpt><trkpt lat="46.080384615893784" lon="12.570997637809606"><ele>218.0</ele><time>2026-03-30T09:12:19Z</time></trkpt><trkpt lat="46.08044172976474" lon="12.570937045693485"><ele>220.0</ele><time>2026-03-30T09:12:20Z</time></trkpt><trkpt lat="46.08053361517757" lon="12.570842649532246"><ele>222.0</ele><time>2026-03-30T09:12:22Z</time></trkpt><trkpt lat="46.08058281646016" lon="12.570783240867181"><ele>224.0</ele><time>2026-03-30T09:12:23Z</time></trkpt><trkpt lat="46.08063350520939" lon="12.570722841539348"><ele>226.0</ele><time>2026-03-30T09:12:24Z</time></trkpt><trkpt lat="46.0806952314481" lon="12.5706562476406"><ele>228.0</ele><time>2026-03-30T09:12:25Z</time></trkpt><trkpt lat="46.08074466642632" lon="12.570592137056119"><ele>226.16666666666666</ele><time>2026-03-30T09:12:26Z</time></trkpt><trkpt lat="46.08080085690949" lon="12.570544286396514"><ele>224.33333333333331</ele><time>2026-03-30T09:12:27Z</time></trkpt><trkpt lat="46.08086567204803" lon="12.5704676110437"><ele>222.5</ele><time>2026-03-30T09:12:29Z</time></trkpt><trkpt lat="46.08092483183834" lon="12.57041144909431"><ele>220.66666666666666</ele><time>2026-03-30T09:12:31Z</time></trkpt><trkpt lat="46.08098354649792" lon="12.570516536540516"><ele>218.83333333333331</ele><time>2026-03-30T09:12:35Z</time></trkpt><trkpt lat="46.08096341947981" lon="12.57061845898961"><ele>217.0</ele><time>2026-03-30T09:12:37Z</time></trkpt><trkpt lat="46.08090982423373" lon="12.57067530937429"><ele>217.0</ele><time>2026-03-30T09:12:39Z</time></trkpt><trkpt lat="46.080841706801614" lon="12.570705287849254"><ele>217.0</ele><time>2026-03-30T09:12:41Z</time></trkpt><trkpt lat="46.080740224551334" lon="12.570714871511521"><ele>217.0</ele><time>2026-03-30T09:12:43Z</time></trkpt><trkpt lat="46.080638121629505" lon="12.570775362917683"><ele>217.0</ele><time>2026-03-30T09:12:45Z</time></trkpt><trkpt lat="46.08057525048773" lon="12.57085435590103"><ele>217.0</ele><time>2026-03-30T09:12:47Z</time></trkpt><trkpt lat="46.08048416970117" lon="12.570804438390564"><ele>219.2</ele><time>2026-03-30T09:12:50Z</time></trkpt><trkpt lat="46.080418894680776" lon="12.570664006085742"><ele>221.39999999999998</ele><time>2026-03-30T09:12:52Z</time></trkpt><trkpt lat="46.08038539147763" lon="12.570584194488156"><ele>223.60000000000002</ele><time>2026-03-30T09:12:53Z</time></trkpt><trkpt lat="46.080347743961546" lon="12.570501127639904"><ele>225.8</ele><time>2026-03-30T09:12:54Z</time></trkpt><trkpt lat="46.0802657726003" lon="12.570364698399612"><ele>228.0</ele><time>2026-03-30T09:12:56Z</time></trkpt><trkpt lat="46.08024642652198" lon="12.570258641327975"><ele>230.2</ele><time>2026-03-30T09:12:58Z</time></trkpt><trkpt lat="46.08028770222656" lon="12.57014985459958"><ele>232.4</ele><time>2026-03-30T09:13:11Z</time></trkpt><trkpt lat="46.08030693214983" lon="12.570019580550703"><ele>234.59999999999997</ele><time>2026-03-30T09:13:13Z</time></trkpt><trkpt lat="46.080317504205276" lon="12.569874455080651"><ele>236.79999999999998</ele><time>2026-03-30T09:13:15Z</time></trkpt><trkpt lat="46.080334091744376" lon="12.569768988309509"><ele>239.0</ele><time>2026-03-30T09:13:18Z</time></trkpt><trkpt lat="46.08026172038546" lon="12.56967712374772"><ele>239.0</ele><time>2026-03-30T09:13:21Z</time></trkpt><trkpt lat="46.0803247133903" lon="12.569721114099346"><ele>238.99999999999997</ele><time>2026-03-30T09:13:32Z</time></trkpt><trkpt lat="46.08031684028655" lon="12.569824297796956"><ele>238.99999999999997</ele><time>2026-03-30T09:13:34Z</time></trkpt><trkpt lat="46.08030210994802" lon="12.569978037200197"><ele>239.0</ele><time>2026-03-30T09:13:36Z</time></trkpt><trkpt lat="46.08029763162538" lon="12.570116072765131"><ele>239.0</ele><time>2026-03-30T09:13:38Z</time></trkpt><trkpt lat="46.08026725147947" lon="12.570265463075096"><ele>236.79999999999998</ele><time>2026-03-30T09:13:40Z</time></trkpt><trkpt lat="46.08025111595346" lon="12.570406786737513"><ele>234.59999999999997</ele><time>2026-03-30T09:13:42Z</time></trkpt><trkpt lat="46.0802643785289" lon="12.570504077542282"><ele>232.4</ele><time>2026-03-30T09:13:44Z</time></trkpt><trkpt lat="46.080273020498424" lon="12.570655214832716"><ele>230.2</ele><time>2026-03-30T09:13:46Z</time></trkpt><trkpt lat="46.08027211070749" lon="12.570815693667473"><ele>228.0</ele><time>2026-03-30T09:13:48Z</time></trkpt><trkpt lat="46.080270679332386" lon="12.570913801105403"><ele>228.0</ele><time>2026-03-30T09:13:49Z</time></trkpt><trkpt lat="46.080255443487715" lon="12.571013097227228"><ele>228.0</ele><time>2026-03-30T09:13:50Z</time></trkpt><trkpt lat="46.080231896812585" lon="12.571147459413414"><ele>228.0</ele><time>2026-03-30T09:13:52Z</time></trkpt><trkpt lat="46.08019586634665" lon="12.57126106123717"><ele>228.0</ele><time>2026-03-30T09:13:54Z</time></trkpt><trkpt lat="46.08013665928535" lon="12.571327395337097"><ele>228.0</ele><time>2026-03-30T09:13:55Z</time></trkpt><trkpt lat="46.08006663844144" lon="12.571423467418438"><ele>228.0</ele><time>2026-03-30T09:13:56Z</time></trkpt><trkpt lat="46.0800035849191" lon="12.57154790045241"><ele>227.60000000000002</ele><time>2026-03-30T09:13:57Z</time></trkpt><trkpt lat="46.079932946121126" lon="12.571708687798287"><ele>227.20000000000002</ele><time>2026-03-30T09:13:58Z</time></trkpt><trkpt lat="46.079864510641876" lon="12.571861462243735"><ele>226.8</ele><time>2026-03-30T09:13:59Z</time></trkpt><trkpt lat="46.07981095205408" lon="12.571980578508361"><ele>226.4</ele><time>2026-03-30T09:14:00Z</time></trkpt><trkpt lat="46.079769774016675" lon="12.572074318927784"><ele>226.0</ele><time>2026-03-30T09:14:01Z</time></trkpt><trkpt lat="46.079768436660494" lon="12.572204986639713"><ele>222.4</ele><time>2026-03-30T09:14:03Z</time></trkpt><trkpt lat="46.079789261604994" lon="12.572291677786179"><ele>218.8</ele><time>2026-03-30T09:14:04Z</time></trkpt><trkpt lat="46.07981949030244" lon="12.572440618598108"><ele>215.20000000000002</ele><time>2026-03-30T09:14:05Z</time></trkpt><trkpt lat="46.079828243043124" lon="12.572599687097266"><ele>211.60000000000002</ele><time>2026-03-30T09:14:06Z</time></trkpt><trkpt lat="46.07981327853495" lon="12.572756259117801"><ele>208.0</ele><time>2026-03-30T09:14:07Z</time></trkpt><trkpt lat="46.079786409344784" lon="12.572922272300032"><ele>207.0</ele><time>2026-03-30T09:14:08Z</time></trkpt><trkpt lat="46.07976289533963" lon="12.573087415718152"><ele>206.0</ele><time>2026-03-30T09:14:09Z</time></trkpt><trkpt lat="46.07973594139371" lon="12.573233797370422"><ele>205.0</ele><time>2026-03-30T09:14:10Z</time></trkpt><trkpt lat="46.07971337035107" lon="12.573359242227022"><ele>204.0</ele><time>2026-03-30T09:14:11Z</time></trkpt><trkpt lat="46.07970648518196" lon="12.57347637329509"><ele>203.0</ele><time>2026-03-30T09:14:12Z</time></trkpt><trkpt lat="46.07970721534367" lon="12.57358477623931"><ele>203.0</ele><time>2026-03-30T09:14:13Z</time></trkpt><trkpt lat="46.079714362988106" lon="12.573686153396201"><ele>203.0</ele><time>2026-03-30T09:14:14Z</time></trkpt><trkpt lat="46.079730647679156" lon="12.573843138588543"><ele>203.0</ele><time>2026-03-30T09:14:16Z</time></trkpt><trkpt lat="46.07976150648033" lon="12.573937427003614"><ele>203.0</ele><time>2026-03-30T09:14:17Z</time></trkpt><trkpt lat="46.079819870021296" lon="12.57406073841673"><ele>203.0</ele><time>2026-03-30T09:14:18Z</time></trkpt><trkpt lat="46.07989179198506" lon="12.574195790329629"><ele>203.0</ele><time>2026-03-30T09:14:19Z</time></trkpt><trkpt lat="46.07997412957624" lon="12.574342835319158"><ele>203.0</ele><time>2026-03-30T09:14:20Z</time></trkpt><trkpt lat="46.08005398271588" lon="12.57447157185807"><ele>203.0</ele><time>2026-03-30T09:14:21Z</time></trkpt><trkpt lat="46.08011734757813" lon="12.574584563717487"><ele>203.0</ele><time>2026-03-30T09:14:22Z</time></trkpt><trkpt lat="46.08018301701522" lon="12.574715227372245"><ele>203.00000000000003</ele><time>2026-03-30T09:14:23Z</time></trkpt><trkpt lat="46.080237705601846" lon="12.57482784046986"><ele>203.0</ele><time>2026-03-30T09:14:24Z</time></trkpt><trkpt lat="46.080278262306614" lon="12.574918855741219"><ele>203.0</ele><time>2026-03-30T09:14:25Z</time></trkpt><trkpt lat="46.08030229685248" lon="12.575008386071657"><ele>203.0</ele><time>2026-03-30T09:14:26Z</time></trkpt><trkpt lat="46.08031421778415" lon="12.57511013082262"><ele>203.00000000000003</ele><time>2026-03-30T09:14:27Z</time></trkpt><trkpt lat="46.08031668624474" lon="12.575214560342289"><ele>203.0</ele><time>2026-03-30T09:14:28Z</time></trkpt><trkpt lat="46.08032239895852" lon="12.575322861646711"><ele>203.14285714285714</ele><time>2026-03-30T09:14:29Z</time></trkpt><trkpt lat="46.080335821441224" lon="12.575433779671297"><ele>203.28571428571428</ele><time>2026-03-30T09:14:30Z</time></trkpt><trkpt lat="46.08035467884854" lon="12.575536268279048"><ele>203.42857142857144</ele><time>2026-03-30T09:14:31Z</time></trkpt><trkpt lat="46.08037528940154" lon="12.575634755993313"><ele>203.57142857142856</ele><time>2026-03-30T09:14:32Z</time></trkpt><trkpt lat="46.08039089651894" lon="12.575738371497113"><ele>203.71428571428572</ele><time>2026-03-30T09:14:33Z</time></trkpt><trkpt lat="46.08039824472346" lon="12.57584626843054"><ele>203.85714285714286</ele><time>2026-03-30T09:14:34Z</time></trkpt><trkpt lat="46.080413740529465" lon="12.575953498614515"><ele>204.0</ele><time>2026-03-30T09:14:35Z</time></trkpt><trkpt lat="46.08042969338408" lon="12.576053988463425"><ele>204.0</ele><time>2026-03-30T09:14:36Z</time></trkpt><trkpt lat="46.080446217146935" lon="12.576149771766529"><ele>204.0</ele><time>2026-03-30T09:14:37Z</time></trkpt><trkpt lat="46.08046597431264" lon="12.576241675799048"><ele>204.0</ele><time>2026-03-30T09:14:38Z</time></trkpt><trkpt lat="46.08048476047967" lon="12.576330107607372"><ele>204.0</ele><time>2026-03-30T09:14:39Z</time></trkpt><trkpt lat="46.08050409322434" lon="12.576424760833866"><ele>204.0</ele><time>2026-03-30T09:14:40Z</time></trkpt><trkpt lat="46.0805185845874" lon="12.57651528970052"><ele>204.0</ele><time>2026-03-30T09:14:41Z</time></trkpt><trkpt lat="46.08053875633957" lon="12.576648928747872"><ele>204.0</ele><time>2026-03-30T09:14:43Z</time></trkpt><trkpt lat="46.08061722211527" lon="12.57677361276212"><ele>204.25</ele><time>2026-03-30T09:14:46Z</time></trkpt><trkpt lat="46.08071382574541" lon="12.576835765601965"><ele>204.5</ele><time>2026-03-30T09:14:47Z</time></trkpt><trkpt lat="46.08081852917794" lon="12.576912900660576"><ele>204.75</ele><time>2026-03-30T09:14:48Z</time></trkpt><trkpt lat="46.08092944868167" lon="12.576999149222429"><ele>205.0</ele><time>2026-03-30T09:14:49Z</time></trkpt><trkpt lat="46.08104980103887" lon="12.577089877293345"><ele>205.5</ele><time>2026-03-30T09:14:50Z</time></trkpt><trkpt lat="46.08115544498977" lon="12.577169272219724"><ele>206.0</ele><time>2026-03-30T09:14:51Z</time></trkpt><trkpt lat="46.08125048988716" lon="12.577242884768046"><ele>206.5</ele><time>2026-03-30T09:14:52Z</time></trkpt><trkpt lat="46.081349871055416" lon="12.577320743022318"><ele>207.0</ele><time>2026-03-30T09:14:53Z</time></trkpt><trkpt lat="46.08145200801714" lon="12.577401009282765"><ele>207.0</ele><time>2026-03-30T09:14:54Z</time></trkpt><trkpt lat="46.08155542422157" lon="12.577482238979757"><ele>207.0</ele><time>2026-03-30T09:14:55Z</time></trkpt><trkpt lat="46.0816622996895" lon="12.577566915112588"><ele>207.0</ele><time>2026-03-30T09:14:56Z</time></trkpt><trkpt lat="46.081772476108654" lon="12.577650604679487"><ele>207.0</ele><time>2026-03-30T09:14:57Z</time></trkpt><trkpt lat="46.081883497114006" lon="12.577736344341943"><ele>208.0</ele><time>2026-03-30T09:14:58Z</time></trkpt><trkpt lat="46.081998368718665" lon="12.577826735148538"><ele>209.0</ele><time>2026-03-30T09:14:59Z</time></trkpt><trkpt lat="46.082113536177786" lon="12.577920128199015"><ele>210.0</ele><time>2026-03-30T09:15:00Z</time></trkpt><trkpt lat="46.082226350391885" lon="12.578012315565104"><ele>211.0</ele><time>2026-03-30T09:15:01Z</time></trkpt><trkpt lat="46.08233855935612" lon="12.578108935225158"><ele>211.25</ele><time>2026-03-30T09:15:02Z</time></trkpt><trkpt lat="46.08244749951322" lon="12.578215490447727"><ele>211.5</ele><time>2026-03-30T09:15:03Z</time></trkpt><trkpt lat="46.082544139114155" lon="12.578326317276682"><ele>211.75</ele><time>2026-03-30T09:15:04Z</time></trkpt><trkpt lat="46.08263413972924" lon="12.578439028650788"><ele>212.0</ele><time>2026-03-30T09:15:05Z</time></trkpt><trkpt lat="46.08272233874339" lon="12.578558785641263"><ele>212.0</ele><time>2026-03-30T09:15:06Z</time></trkpt><trkpt lat="46.08281392132986" lon="12.57867593790382"><ele>212.0</ele><time>2026-03-30T09:15:07Z</time></trkpt><trkpt lat="46.0829046936436" lon="12.578791387933002"><ele>212.0</ele><time>2026-03-30T09:15:08Z</time></trkpt><trkpt lat="46.08299336769195" lon="12.578910535764322"><ele>212.0</ele><time>2026-03-30T09:15:09Z</time></trkpt><trkpt lat="46.08308054599465" lon="12.579033830934208"><ele>212.25</ele><time>2026-03-30T09:15:10Z</time></trkpt><trkpt lat="46.083169635579644" lon="12.579156387127588"><ele>212.5</ele><time>2026-03-30T09:15:11Z</time></trkpt><trkpt lat="46.08326279442673" lon="12.579276996700544"><ele>212.75</ele><time>2026-03-30T09:15:12Z</time></trkpt><trkpt lat="46.0833555000249" lon="12.579401477929988"><ele>213.0</ele><time>2026-03-30T09:15:13Z</time></trkpt><trkpt lat="46.08344950782944" lon="12.579526295168439"><ele>212.25</ele><time>2026-03-30T09:15:14Z</time></trkpt><trkpt lat="46.08354510103261" lon="12.579649637231329"><ele>211.5</ele><time>2026-03-30T09:15:15Z</time></trkpt><trkpt lat="46.083644973952374" lon="12.579771870198245"><ele>210.75</ele><time>2026-03-30T09:15:16Z</time></trkpt><trkpt lat="46.08374278436676" lon="12.579895906518663"><ele>210.0</ele><time>2026-03-30T09:15:17Z</time></trkpt><trkpt lat="46.083840489797204" lon="12.580020347464316"><ele>210.0</ele><time>2026-03-30T09:15:18Z</time></trkpt><trkpt lat="46.08393619718619" lon="12.580145561993545"><ele>210.0</ele><time>2026-03-30T09:15:19Z</time></trkpt><trkpt lat="46.08403334286091" lon="12.580271556808253"><ele>210.0</ele><time>2026-03-30T09:15:20Z</time></trkpt><trkpt lat="46.08413160925774" lon="12.580396740049894"><ele>210.0</ele><time>2026-03-30T09:15:21Z</time></trkpt><trkpt lat="46.08422926416199" lon="12.580523044519841"><ele>209.0</ele><time>2026-03-30T09:15:22Z</time></trkpt><trkpt lat="46.08432962461363" lon="12.580652345443973"><ele>208.0</ele><time>2026-03-30T09:15:23Z</time></trkpt><trkpt lat="46.08443282539369" lon="12.58078329432908"><ele>207.0</ele><time>2026-03-30T09:15:24Z</time></trkpt><trkpt lat="46.084535783543124" lon="12.580916305442793"><ele>206.0</ele><time>2026-03-30T09:15:25Z</time></trkpt><trkpt lat="46.0846366930579" lon="12.581048111882643"><ele>206.5</ele><time>2026-03-30T09:15:26Z</time></trkpt><trkpt lat="46.08474040178952" lon="12.581185225209781"><ele>207.0</ele><time>2026-03-30T09:15:27Z</time></trkpt><trkpt lat="46.08485041257856" lon="12.581323201191708"><ele>207.5</ele><time>2026-03-30T09:15:28Z</time></trkpt><trkpt lat="46.084963991852405" lon="12.581464431728122"><ele>208.0</ele><time>2026-03-30T09:15:29Z</time></trkpt><trkpt lat="46.08507199697522" lon="12.581606401147528"><ele>208.0</ele><time>2026-03-30T09:15:30Z</time></trkpt><trkpt lat="46.08517615493923" lon="12.581742937258888"><ele>208.0</ele><time>2026-03-30T09:15:31Z</time></trkpt><trkpt lat="46.085279860822965" lon="12.581876491750398"><ele>208.0</ele><time>2026-03-30T09:15:32Z</time></trkpt><trkpt lat="46.085383161555065" lon="12.582009632582443"><ele>208.0</ele><time>2026-03-30T09:15:33Z</time></trkpt><trkpt lat="46.08548647701459" lon="12.582144973915328"><ele>208.75</ele><time>2026-03-30T09:15:34Z</time></trkpt><trkpt lat="46.085590409565704" lon="12.582281571485755"><ele>209.5</ele><time>2026-03-30T09:15:35Z</time></trkpt><trkpt lat="46.085694875448944" lon="12.582417580790494"><ele>210.25</ele><time>2026-03-30T09:15:36Z</time></trkpt><trkpt lat="46.085800240466874" lon="12.582556354554809"><ele>211.0</ele><time>2026-03-30T09:15:37Z</time></trkpt><trkpt lat="46.08590493902711" lon="12.582695005552447"><ele>211.0</ele><time>2026-03-30T09:15:38Z</time></trkpt><trkpt lat="46.086011242065325" lon="12.582829951852528"><ele>211.0</ele><time>2026-03-30T09:15:39Z</time></trkpt><trkpt lat="46.086114085588754" lon="12.582957745313982"><ele>211.0</ele><time>2026-03-30T09:15:40Z</time></trkpt><trkpt lat="46.086211613469004" lon="12.58307981651637"><ele>211.0</ele><time>2026-03-30T09:15:41Z</time></trkpt><trkpt lat="46.0863027704783" lon="12.583201559239392"><ele>209.75</ele><time>2026-03-30T09:15:42Z</time></trkpt><trkpt lat="46.086392642094246" lon="12.583313052535098"><ele>208.5</ele><time>2026-03-30T09:15:43Z</time></trkpt><trkpt lat="46.08647489593945" lon="12.58342651385091"><ele>207.25</ele><time>2026-03-30T09:15:44Z</time></trkpt><trkpt lat="46.0865554463767" lon="12.583534389311986"><ele>206.0</ele><time>2026-03-30T09:15:45Z</time></trkpt><trkpt lat="46.0866382387805" lon="12.583641825521795"><ele>204.75</ele><time>2026-03-30T09:15:46Z</time></trkpt><trkpt lat="46.08672196640585" lon="12.58375191736726"><ele>203.5</ele><time>2026-03-30T09:15:47Z</time></trkpt><trkpt lat="46.08680869710577" lon="12.58386095026728"><ele>202.25</ele><time>2026-03-30T09:15:48Z</time></trkpt><trkpt lat="46.08689710430803" lon="12.583973540495014"><ele>201.0</ele><time>2026-03-30T09:15:49Z</time></trkpt><trkpt lat="46.08698552007928" lon="12.584091130359898"><ele>201.0</ele><time>2026-03-30T09:15:50Z</time></trkpt><trkpt lat="46.08707558406341" lon="12.584209250514492"><ele>201.0</ele><time>2026-03-30T09:15:51Z</time></trkpt><trkpt lat="46.08716953040388" lon="12.58432914296443"><ele>201.0</ele><time>2026-03-30T09:15:52Z</time></trkpt><trkpt lat="46.08726388987665" lon="12.58445139250359"><ele>201.0</ele><time>2026-03-30T09:15:53Z</time></trkpt><trkpt lat="46.08735814212741" lon="12.584571981984942"><ele>199.5</ele><time>2026-03-30T09:15:54Z</time></trkpt><trkpt lat="46.087451034858795" lon="12.584693978584783"><ele>198.0</ele><time>2026-03-30T09:15:55Z</time></trkpt><trkpt lat="46.08754599077279" lon="12.584813799716615"><ele>196.5</ele><time>2026-03-30T09:15:56Z</time></trkpt><trkpt lat="46.08763962772752" lon="12.584938692300314"><ele>195.0</ele><time>2026-03-30T09:15:57Z</time></trkpt><trkpt lat="46.087734226561324" lon="12.585063120164966"><ele>195.0</ele><time>2026-03-30T09:15:58Z</time></trkpt><trkpt lat="46.08782948704687" lon="12.585185837889801"><ele>195.0</ele><time>2026-03-30T09:15:59Z</time></trkpt><trkpt lat="46.08792309245368" lon="12.585309519866016"><ele>195.0</ele><time>2026-03-30T09:16:00Z</time></trkpt><trkpt lat="46.08801531898796" lon="12.585432396478513"><ele>195.0</ele><time>2026-03-30T09:16:01Z</time></trkpt><trkpt lat="46.08810918630296" lon="12.585552215962865"><ele>194.5</ele><time>2026-03-30T09:16:02Z</time></trkpt><trkpt lat="46.08820200024729" lon="12.585671526457741"><ele>194.0</ele><time>2026-03-30T09:16:03Z</time></trkpt><trkpt lat="46.08829405810238" lon="12.585786745795989"><ele>193.5</ele><time>2026-03-30T09:16:04Z</time></trkpt><trkpt lat="46.08838141488796" lon="12.585898911070915"><ele>193.0</ele><time>2026-03-30T09:16:05Z</time></trkpt><trkpt lat="46.08846375991114" lon="12.58601292074205"><ele>192.99999999999997</ele><time>2026-03-30T09:16:06Z</time></trkpt><trkpt lat="46.088540695457404" lon="12.5861202499311"><ele>193.0</ele><time>2026-03-30T09:16:07Z</time></trkpt><trkpt lat="46.0886088431415" lon="12.586213855405418"><ele>193.0</ele><time>2026-03-30T09:16:08Z</time></trkpt><trkpt lat="46.08866059203728" lon="12.58628237397316"><ele>193.0</ele><time>2026-03-30T09:16:09Z</time></trkpt><trkpt lat="46.08867216859256" lon="12.586381614827243"><ele>192.99999999999997</ele><time>2026-03-30T09:16:12Z</time></trkpt><trkpt lat="46.08862843492345" lon="12.586456484060992"><ele>193.0</ele><time>2026-03-30T09:16:14Z</time></trkpt><trkpt lat="46.08856745094962" lon="12.586490668999225"><ele>192.99999999999997</ele><time>2026-03-30T09:16:18Z</time></trkpt><trkpt lat="46.08857219761176" lon="12.586389917120389"><ele>193.0</ele><time>2026-03-30T09:16:24Z</time></trkpt><trkpt lat="46.08852428173302" lon="12.586450373938234"><ele>193.0</ele><time>2026-03-30T09:18:48Z</time></trkpt><trkpt lat="46.08861085319785" lon="12.586430454980595"><ele>193.0</ele><time>2026-03-30T09:18:53.001Z</time></trkpt><trkpt lat="46.08865361085884" lon="12.586348955718355"><ele>192.99999999999997</ele><time>2026-03-30T09:18:54.001Z</time></trkpt><trkpt lat="46.08874479642477" lon="12.586329058468207"><ele>193.0</ele><time>2026-03-30T09:18:58.001Z</time></trkpt><trkpt lat="46.08880804775866" lon="12.58640528536713"><ele>193.0</ele><time>2026-03-30T09:18:59.001Z</time></trkpt><trkpt lat="46.08890787149931" lon="12.586550776339207"><ele>193.0</ele><time>2026-03-30T09:19:00Z</time></trkpt><trkpt lat="46.0890126638121" lon="12.586695782537557"><ele>193.0</ele><time>2026-03-30T09:19:01Z</time></trkpt><trkpt lat="46.08912876308864" lon="12.586845895297644"><ele>193.0</ele><time>2026-03-30T09:19:02Z</time></trkpt><trkpt lat="46.08925092659337" lon="12.586992956405835"><ele>194.33333333333331</ele><time>2026-03-30T09:19:03Z</time></trkpt><trkpt lat="46.089363230629345" lon="12.587138950729187"><ele>195.66666666666669</ele><time>2026-03-30T09:19:04Z</time></trkpt><trkpt lat="46.08947600491378" lon="12.587287225079155"><ele>197.0</ele><time>2026-03-30T09:19:05Z</time></trkpt><trkpt lat="46.089586390203145" lon="12.587440198759374"><ele>197.0</ele><time>2026-03-30T09:19:06Z</time></trkpt><trkpt lat="46.089699985781266" lon="12.587592181354585"><ele>197.0</ele><time>2026-03-30T09:19:07Z</time></trkpt><trkpt lat="46.08981386609325" lon="12.587745542496847"><ele>197.0</ele><time>2026-03-30T09:19:08Z</time></trkpt><trkpt lat="46.0899326197989" lon="12.587899835917923"><ele>199.0</ele><time>2026-03-30T09:19:09Z</time></trkpt><trkpt lat="46.09004840068432" lon="12.588049042494355"><ele>201.0</ele><time>2026-03-30T09:19:10Z</time></trkpt><trkpt lat="46.090161286095565" lon="12.588197026321977"><ele>203.0</ele><time>2026-03-30T09:19:11Z</time></trkpt><trkpt lat="46.090268997677754" lon="12.58834039800032"><ele>203.0</ele><time>2026-03-30T09:19:12Z</time></trkpt><trkpt lat="46.090376974643945" lon="12.588480951009425"><ele>203.0</ele><time>2026-03-30T09:19:13Z</time></trkpt><trkpt lat="46.09048213580566" lon="12.588616245389362"><ele>203.0</ele><time>2026-03-30T09:19:14Z</time></trkpt><trkpt lat="46.090576725573115" lon="12.588736715254331"><ele>203.0</ele><time>2026-03-30T09:19:15Z</time></trkpt><trkpt lat="46.090675349089025" lon="12.588864652464673"><ele>204.0</ele><time>2026-03-30T09:19:16Z</time></trkpt><trkpt lat="46.090769573861415" lon="12.588997857651837"><ele>205.0</ele><time>2026-03-30T09:19:17Z</time></trkpt><trkpt lat="46.09086638416228" lon="12.589125922910947"><ele>206.0</ele><time>2026-03-30T09:19:18Z</time></trkpt><trkpt lat="46.09096006779406" lon="12.589246134886823"><ele>207.0</ele><time>2026-03-30T09:19:19Z</time></trkpt><trkpt lat="46.091056992937155" lon="12.589372906659337"><ele>207.0</ele><time>2026-03-30T09:19:20Z</time></trkpt><trkpt lat="46.091154093798586" lon="12.589498747782375"><ele>207.0</ele><time>2026-03-30T09:19:21Z</time></trkpt><trkpt lat="46.09125096072129" lon="12.58962739080257"><ele>207.0</ele><time>2026-03-30T09:19:22Z</time></trkpt><trkpt lat="46.09134725919716" lon="12.589752181088638"><ele>207.0</ele><time>2026-03-30T09:19:23Z</time></trkpt><trkpt lat="46.09144602873121" lon="12.589877073621158"><ele>208.25</ele><time>2026-03-30T09:19:24Z</time></trkpt><trkpt lat="46.091545738197105" lon="12.590001519180257"><ele>209.5</ele><time>2026-03-30T09:19:25Z</time></trkpt><trkpt lat="46.09164392252241" lon="12.590126186232585"><ele>210.75</ele><time>2026-03-30T09:19:26Z</time></trkpt><trkpt lat="46.0917437082329" lon="12.590251116336077"><ele>212.0</ele><time>2026-03-30T09:19:27Z</time></trkpt><trkpt lat="46.091846437073706" lon="12.590375173752482"><ele>214.5</ele><time>2026-03-30T09:19:28Z</time></trkpt><trkpt lat="46.0919518271546" lon="12.590501742253945"><ele>217.0</ele><time>2026-03-30T09:19:29Z</time></trkpt><trkpt lat="46.09205451846527" lon="12.590625399673671"><ele>219.5</ele><time>2026-03-30T09:19:30Z</time></trkpt><trkpt lat="46.092167559644224" lon="12.590743116700569"><ele>222.0</ele><time>2026-03-30T09:19:31Z</time></trkpt><trkpt lat="46.092286241123496" lon="12.590849683527628"><ele>222.0</ele><time>2026-03-30T09:19:32Z</time></trkpt><trkpt lat="46.0924123357165" lon="12.590941392936315"><ele>222.0</ele><time>2026-03-30T09:19:33Z</time></trkpt><trkpt lat="46.092546341580366" lon="12.591017802518673"><ele>222.0</ele><time>2026-03-30T09:19:34Z</time></trkpt><trkpt lat="46.09268340686522" lon="12.591081194861648"><ele>222.0</ele><time>2026-03-30T09:19:35Z</time></trkpt><trkpt lat="46.09283139695091" lon="12.59114328646331"><ele>221.66666666666669</ele><time>2026-03-30T09:19:36Z</time></trkpt><trkpt lat="46.092992157229055" lon="12.591210480188549"><ele>221.33333333333334</ele><time>2026-03-30T09:19:37Z</time></trkpt><trkpt lat="46.09315407710746" lon="12.591279290707703"><ele>221.0</ele><time>2026-03-30T09:19:38Z</time></trkpt><trkpt lat="46.093316997892835" lon="12.591347157319808"><ele>220.33333333333334</ele><time>2026-03-30T09:19:39Z</time></trkpt><trkpt lat="46.09348181299974" lon="12.59141730190332"><ele>219.66666666666669</ele><time>2026-03-30T09:19:40Z</time></trkpt><trkpt lat="46.09364767537904" lon="12.591486832652427"><ele>219.0</ele><time>2026-03-30T09:19:41Z</time></trkpt><trkpt lat="46.09381390296218" lon="12.591556778255597"><ele>219.0</ele><time>2026-03-30T09:19:42Z</time></trkpt><trkpt lat="46.0939775297809" lon="12.591625481174495"><ele>219.0</ele><time>2026-03-30T09:19:43Z</time></trkpt><trkpt lat="46.09414095554286" lon="12.591694117620044"><ele>219.0</ele><time>2026-03-30T09:19:44Z</time></trkpt><trkpt lat="46.094302324506046" lon="12.59176091635109"><ele>219.66666666666669</ele><time>2026-03-30T09:19:45Z</time></trkpt><trkpt lat="46.0944626680544" lon="12.59182498270272"><ele>220.33333333333334</ele><time>2026-03-30T09:19:46Z</time></trkpt><trkpt lat="46.094619994555565" lon="12.591888076783107"><ele>221.0</ele><time>2026-03-30T09:19:47Z</time></trkpt><trkpt lat="46.09477445843382" lon="12.591953016023778"><ele>222.0</ele><time>2026-03-30T09:19:48Z</time></trkpt><trkpt lat="46.09492960692719" lon="12.592016512427827"><ele>223.0</ele><time>2026-03-30T09:19:49Z</time></trkpt><trkpt lat="46.095083044622136" lon="12.59208105092904"><ele>224.0</ele><time>2026-03-30T09:19:50Z</time></trkpt><trkpt lat="46.095236163289655" lon="12.592139600949343"><ele>224.0</ele><time>2026-03-30T09:19:51Z</time></trkpt><trkpt lat="46.095381320785926" lon="12.592194888281632"><ele>224.0</ele><time>2026-03-30T09:19:52Z</time></trkpt><trkpt lat="46.095522493380635" lon="12.592255158383955"><ele>224.0</ele><time>2026-03-30T09:19:53Z</time></trkpt><trkpt lat="46.095664824504226" lon="12.592317970155996"><ele>224.0</ele><time>2026-03-30T09:19:54Z</time></trkpt><trkpt lat="46.09580510822901" lon="12.592373978264503"><ele>225.25</ele><time>2026-03-30T09:19:55Z</time></trkpt><trkpt lat="46.09594486515588" lon="12.592429577640884"><ele>226.5</ele><time>2026-03-30T09:19:56Z</time></trkpt><trkpt lat="46.096083432742105" lon="12.592485593668316"><ele>227.75</ele><time>2026-03-30T09:19:57Z</time></trkpt><trkpt lat="46.096219791947284" lon="12.592542709846056"><ele>229.0</ele><time>2026-03-30T09:19:58Z</time></trkpt><trkpt lat="46.09635685526348" lon="12.59259855475178"><ele>229.0</ele><time>2026-03-30T09:19:59Z</time></trkpt><trkpt lat="46.09649406458795" lon="12.592653913435642"><ele>229.0</ele><time>2026-03-30T09:20:00Z</time></trkpt><trkpt lat="46.096630516043454" lon="12.592708698696947"><ele>229.0</ele><time>2026-03-30T09:20:01Z</time></trkpt><trkpt lat="46.09677498909268" lon="12.592772727652248"><ele>229.0</ele><time>2026-03-30T09:20:02Z</time></trkpt><trkpt lat="46.09692933139934" lon="12.592837626821554"><ele>230.0</ele><time>2026-03-30T09:20:03Z</time></trkpt><trkpt lat="46.097087766226856" lon="12.59290454438754"><ele>231.0</ele><time>2026-03-30T09:20:04Z</time></trkpt><trkpt lat="46.09724533908608" lon="12.592973266224483"><ele>232.0</ele><time>2026-03-30T09:20:05Z</time></trkpt><trkpt lat="46.09741305855314" lon="12.593045733202278"><ele>234.0</ele><time>2026-03-30T09:20:06Z</time></trkpt><trkpt lat="46.09757990459084" lon="12.593108037326918"><ele>236.0</ele><time>2026-03-30T09:20:07Z</time></trkpt><trkpt lat="46.09775128612654" lon="12.593172662349392"><ele>238.0</ele><time>2026-03-30T09:20:08Z</time></trkpt><trkpt lat="46.09791610539789" lon="12.593238811217871"><ele>238.0</ele><time>2026-03-30T09:20:09Z</time></trkpt><trkpt lat="46.098083144553726" lon="12.593307858069858"><ele>238.0</ele><time>2026-03-30T09:20:10Z</time></trkpt><trkpt lat="46.09824935534909" lon="12.593383047794395"><ele>238.0</ele><time>2026-03-30T09:20:11Z</time></trkpt><trkpt lat="46.09841053387976" lon="12.593465879673563"><ele>239.66666666666666</ele><time>2026-03-30T09:20:12Z</time></trkpt><trkpt lat="46.098563558508964" lon="12.593552362623553"><ele>241.33333333333331</ele><time>2026-03-30T09:20:13Z</time></trkpt><trkpt lat="46.09871070858174" lon="12.593638615070894"><ele>243.0</ele><time>2026-03-30T09:20:14Z</time></trkpt><trkpt lat="46.098850271816126" lon="12.593726189012068"><ele>243.0</ele><time>2026-03-30T09:20:15Z</time></trkpt><trkpt lat="46.09898648744108" lon="12.593814530941948"><ele>243.0</ele><time>2026-03-30T09:20:16Z</time></trkpt><trkpt lat="46.099118650985254" lon="12.59390542291305"><ele>243.0</ele><time>2026-03-30T09:20:17Z</time></trkpt><trkpt lat="46.099247560628974" lon="12.593994875634507"><ele>243.0</ele><time>2026-03-30T09:20:18Z</time></trkpt><trkpt lat="46.099375922945505" lon="12.594080344517808"><ele>244.25</ele><time>2026-03-30T09:20:19Z</time></trkpt><trkpt lat="46.09950324199423" lon="12.594164497094681"><ele>245.5</ele><time>2026-03-30T09:20:20Z</time></trkpt><trkpt lat="46.09962776911519" lon="12.594249436983212"><ele>246.75</ele><time>2026-03-30T09:20:21Z</time></trkpt><trkpt lat="46.09975071103537" lon="12.59433621590758"><ele>248.0</ele><time>2026-03-30T09:20:22Z</time></trkpt><trkpt lat="46.099870669969725" lon="12.594430495849076"><ele>248.25</ele><time>2026-03-30T09:20:23Z</time></trkpt><trkpt lat="46.09998714246201" lon="12.594532128518805"><ele>248.5</ele><time>2026-03-30T09:20:24Z</time></trkpt><trkpt lat="46.10010476786277" lon="12.594635402806702"><ele>248.75</ele><time>2026-03-30T09:20:25Z</time></trkpt><trkpt lat="46.10022514197118" lon="12.594732728999231"><ele>249.0</ele><time>2026-03-30T09:20:26Z</time></trkpt><trkpt lat="46.10034554562008" lon="12.594835717126442"><ele>249.0</ele><time>2026-03-30T09:20:27Z</time></trkpt><trkpt lat="46.10046323600478" lon="12.594948007115464"><ele>249.0</ele><time>2026-03-30T09:20:28Z</time></trkpt><trkpt lat="46.10058268663924" lon="12.59505906341805"><ele>249.0</ele><time>2026-03-30T09:20:29Z</time></trkpt><trkpt lat="46.100705614687435" lon="12.595168982011343"><ele>249.0</ele><time>2026-03-30T09:20:30Z</time></trkpt><trkpt lat="46.10083314775784" lon="12.595276547559155"><ele>249.0</ele><time>2026-03-30T09:20:31Z</time></trkpt><trkpt lat="46.10096233930944" lon="12.595385711090753"><ele>249.0</ele><time>2026-03-30T09:20:32Z</time></trkpt><trkpt lat="46.101093449628856" lon="12.595495579174147"><ele>249.0</ele><time>2026-03-30T09:20:33Z</time></trkpt><trkpt lat="46.10122786101129" lon="12.595606079396616"><ele>249.0</ele><time>2026-03-30T09:20:34Z</time></trkpt><trkpt lat="46.101360416408944" lon="12.595720431001137"><ele>249.0</ele><time>2026-03-30T09:20:35Z</time></trkpt><trkpt lat="46.10149274917185" lon="12.595841564093858"><ele>249.0</ele><time>2026-03-30T09:20:36Z</time></trkpt><trkpt lat="46.1016262979674" lon="12.595961556435254"><ele>249.0</ele><time>2026-03-30T09:20:37Z</time></trkpt><trkpt lat="46.101762674181174" lon="12.596081201585037"><ele>249.0</ele><time>2026-03-30T09:20:38Z</time></trkpt><trkpt lat="46.10190007850474" lon="12.596201338980825"><ele>249.0</ele><time>2026-03-30T09:20:39Z</time></trkpt><trkpt lat="46.102027880872484" lon="12.59631257254544"><ele>248.75</ele><time>2026-03-30T09:20:40Z</time></trkpt><trkpt lat="46.10215192896268" lon="12.596424706646195"><ele>248.5</ele><time>2026-03-30T09:20:41Z</time></trkpt><trkpt lat="46.102274187571716" lon="12.596537751963826"><ele>248.25</ele><time>2026-03-30T09:20:42Z</time></trkpt><trkpt lat="46.1023967512462" lon="12.59664822899273"><ele>248.0</ele><time>2026-03-30T09:20:43Z</time></trkpt><trkpt lat="46.102520873190656" lon="12.59675727614118"><ele>248.0</ele><time>2026-03-30T09:20:44Z</time></trkpt><trkpt lat="46.10264495968235" lon="12.596867167060577"><ele>248.0</ele><time>2026-03-30T09:20:45Z</time></trkpt><trkpt lat="46.10277462625191" lon="12.596979584750688"><ele>248.0</ele><time>2026-03-30T09:20:46Z</time></trkpt><trkpt lat="46.1029035532649" lon="12.59709886476267"><ele>248.0</ele><time>2026-03-30T09:20:47Z</time></trkpt><trkpt lat="46.103026419006525" lon="12.597231139852004"><ele>248.0</ele><time>2026-03-30T09:20:48Z</time></trkpt><trkpt lat="46.10313746056559" lon="12.597380644965305"><ele>248.0</ele><time>2026-03-30T09:20:49Z</time></trkpt><trkpt lat="46.103238208208175" lon="12.597547213665774"><ele>250.0</ele><time>2026-03-30T09:20:50Z</time></trkpt><trkpt lat="46.103321944382955" lon="12.597730432647774"><ele>252.0</ele><time>2026-03-30T09:20:51Z</time></trkpt><trkpt lat="46.10339657831863" lon="12.597930153677103"><ele>254.0</ele><time>2026-03-30T09:20:52Z</time></trkpt><trkpt lat="46.103459935081695" lon="12.59814593170491"><ele>254.33333333333334</ele><time>2026-03-30T09:20:53Z</time></trkpt><trkpt lat="46.10351345977855" lon="12.598367307713092"><ele>254.66666666666669</ele><time>2026-03-30T09:20:54Z</time></trkpt><trkpt lat="46.10356473972768" lon="12.598591912053612"><ele>255.0</ele><time>2026-03-30T09:20:55Z</time></trkpt><trkpt lat="46.10362744352228" lon="12.598810111291707"><ele>255.0</ele><time>2026-03-30T09:20:56Z</time></trkpt><trkpt lat="46.10370166009949" lon="12.599014522409814"><ele>255.0</ele><time>2026-03-30T09:20:57Z</time></trkpt><trkpt lat="46.10380102046698" lon="12.599202951746198"><ele>255.0</ele><time>2026-03-30T09:20:58Z</time></trkpt><trkpt lat="46.10390910340369" lon="12.599378033040223"><ele>255.33333333333331</ele><time>2026-03-30T09:20:59Z</time></trkpt><trkpt lat="46.10403354562962" lon="12.599535275969918"><ele>255.66666666666666</ele><time>2026-03-30T09:21:00Z</time></trkpt><trkpt lat="46.10417587140825" lon="12.599669452326703"><ele>256.0</ele><time>2026-03-30T09:21:01Z</time></trkpt><trkpt lat="46.104324324555755" lon="12.599779138357148"><ele>258.66666666666663</ele><time>2026-03-30T09:21:02Z</time></trkpt><trkpt lat="46.10449351134847" lon="12.599854469141446"><ele>261.3333333333333</ele><time>2026-03-30T09:21:03Z</time></trkpt><trkpt lat="46.104679900808854" lon="12.599928521089028"><ele>264.0</ele><time>2026-03-30T09:21:04Z</time></trkpt><trkpt lat="46.1048793248612" lon="12.600000584842054"><ele>267.3333333333333</ele><time>2026-03-30T09:21:05Z</time></trkpt><trkpt lat="46.10509131893802" lon="12.600081152134399"><ele>270.66666666666663</ele><time>2026-03-30T09:21:06Z</time></trkpt><trkpt lat="46.10530888271775" lon="12.600171711294333"><ele>274.0</ele><time>2026-03-30T09:21:07Z</time></trkpt><trkpt lat="46.105539747115444" lon="12.600255954777241"><ele>275.3333333333333</ele><time>2026-03-30T09:21:08Z</time></trkpt><trkpt lat="46.10575711323796" lon="12.600337052191291"><ele>276.6666666666667</ele><time>2026-03-30T09:21:09Z</time></trkpt><trkpt lat="46.105951042380624" lon="12.600409817553269"><ele>278.0</ele><time>2026-03-30T09:21:10Z</time></trkpt><trkpt lat="46.10613032709485" lon="12.6004780015697"><ele>278.0</ele><time>2026-03-30T09:21:11Z</time></trkpt><trkpt lat="46.106289579111596" lon="12.600565333030637"><ele>278.0</ele><time>2026-03-30T09:21:12Z</time></trkpt><trkpt lat="46.10642993957308" lon="12.600668863757727"><ele>278.0</ele><time>2026-03-30T09:21:13Z</time></trkpt><trkpt lat="46.106568388803986" lon="12.600795383987377"><ele>280.0</ele><time>2026-03-30T09:21:14Z</time></trkpt><trkpt lat="46.106708424653576" lon="12.600947869379274"><ele>282.0</ele><time>2026-03-30T09:21:15Z</time></trkpt><trkpt lat="46.10685693188638" lon="12.601116356825768"><ele>284.0</ele><time>2026-03-30T09:21:16Z</time></trkpt><trkpt lat="46.10700669573894" lon="12.601289715910232"><ele>284.6666666666667</ele><time>2026-03-30T09:21:17Z</time></trkpt><trkpt lat="46.10715889924464" lon="12.601459076876672"><ele>285.3333333333333</ele><time>2026-03-30T09:21:18Z</time></trkpt><trkpt lat="46.10730122394935" lon="12.601615525416403"><ele>286.0</ele><time>2026-03-30T09:21:19Z</time></trkpt><trkpt lat="46.107433953874946" lon="12.601760167760037"><ele>286.66666666666663</ele><time>2026-03-30T09:21:20Z</time></trkpt><trkpt lat="46.10755868459332" lon="12.601894546050271"><ele>287.3333333333333</ele><time>2026-03-30T09:21:21Z</time></trkpt><trkpt lat="46.1076829316946" lon="12.602014997641934"><ele>288.0</ele><time>2026-03-30T09:21:22Z</time></trkpt><trkpt lat="46.1078181830539" lon="12.602105237392266"><ele>288.0</ele><time>2026-03-30T09:21:23Z</time></trkpt><trkpt lat="46.10797173568368" lon="12.602174917811526"><ele>288.0</ele><time>2026-03-30T09:21:24Z</time></trkpt><trkpt lat="46.10814528930743" lon="12.602217211846776"><ele>288.0</ele><time>2026-03-30T09:21:25Z</time></trkpt><trkpt lat="46.1083333752449" lon="12.602240806255498"><ele>288.0</ele><time>2026-03-30T09:21:26Z</time></trkpt><trkpt lat="46.108529538643445" lon="12.602250806889465"><ele>288.0</ele><time>2026-03-30T09:21:27Z</time></trkpt><trkpt lat="46.10873791524757" lon="12.602243500089074"><ele>288.0</ele><time>2026-03-30T09:21:28Z</time></trkpt><trkpt lat="46.10895563836086" lon="12.602230428075808"><ele>289.3333333333333</ele><time>2026-03-30T09:21:29Z</time></trkpt><trkpt lat="46.10917538004491" lon="12.602218423408903"><ele>290.66666666666663</ele><time>2026-03-30T09:21:30Z</time></trkpt><trkpt lat="46.10936964479988" lon="12.602207015020161"><ele>292.0</ele><time>2026-03-30T09:21:31Z</time></trkpt><trkpt lat="46.10954386987935" lon="12.602199579810646"><ele>292.0</ele><time>2026-03-30T09:21:32Z</time></trkpt><trkpt lat="46.10971099945581" lon="12.602201047580365"><ele>292.0</ele><time>2026-03-30T09:21:33Z</time></trkpt><trkpt lat="46.10987499012371" lon="12.602198604911742"><ele>292.0</ele><time>2026-03-30T09:21:34Z</time></trkpt><trkpt lat="46.110038966990565" lon="12.60219590334544"><ele>293.66666666666663</ele><time>2026-03-30T09:21:35Z</time></trkpt><trkpt lat="46.110203661781554" lon="12.602193098554498"><ele>295.3333333333333</ele><time>2026-03-30T09:21:36Z</time></trkpt><trkpt lat="46.11036817414379" lon="12.602185832427963"><ele>297.0</ele><time>2026-03-30T09:21:37Z</time></trkpt><trkpt lat="46.110532785141984" lon="12.602173318295492"><ele>297.0</ele><time>2026-03-30T09:21:38Z</time></trkpt><trkpt lat="46.11069566474847" lon="12.602158032110056"><ele>297.0</ele><time>2026-03-30T09:21:39Z</time></trkpt><trkpt lat="46.11085466879222" lon="12.602143356300681"><ele>297.0</ele><time>2026-03-30T09:21:40Z</time></trkpt><trkpt lat="46.11101016006924" lon="12.602130015295009"><ele>297.75</ele><time>2026-03-30T09:21:41Z</time></trkpt><trkpt lat="46.11115950250636" lon="12.602123009509254"><ele>298.5</ele><time>2026-03-30T09:21:42Z</time></trkpt><trkpt lat="46.11129685440771" lon="12.602119505451403"><ele>299.25</ele><time>2026-03-30T09:21:43Z</time></trkpt><trkpt lat="46.111426192694296" lon="12.602123863366431"><ele>300.0</ele><time>2026-03-30T09:21:44Z</time></trkpt><trkpt lat="46.11154845371321" lon="12.60212460539623"><ele>300.75</ele><time>2026-03-30T09:21:45Z</time></trkpt><trkpt lat="46.11167022090438" lon="12.602120689118058"><ele>301.5</ele><time>2026-03-30T09:21:46Z</time></trkpt><trkpt lat="46.11178701751741" lon="12.602119563789032"><ele>302.25</ele><time>2026-03-30T09:21:47Z</time></trkpt><trkpt lat="46.111892411203826" lon="12.602138815809278"><ele>303.0</ele><time>2026-03-30T09:21:48Z</time></trkpt><trkpt lat="46.11200169251149" lon="12.602174961252683"><ele>303.0</ele><time>2026-03-30T09:21:49Z</time></trkpt><trkpt lat="46.112111531778176" lon="12.602231440323141"><ele>303.0</ele><time>2026-03-30T09:21:50Z</time></trkpt><trkpt lat="46.11221443363316" lon="12.602316982225334"><ele>303.0</ele><time>2026-03-30T09:21:51Z</time></trkpt><trkpt lat="46.11230647391464" lon="12.602424397535033"><ele>303.0</ele><time>2026-03-30T09:21:52Z</time></trkpt><trkpt lat="46.112389209918256" lon="12.602561988372754"><ele>303.25</ele><time>2026-03-30T09:21:53Z</time></trkpt><trkpt lat="46.112467265342666" lon="12.60270176880137"><ele>303.5</ele><time>2026-03-30T09:21:54Z</time></trkpt><trkpt lat="46.11253909184593" lon="12.602850299598012"><ele>303.75</ele><time>2026-03-30T09:21:55Z</time></trkpt><trkpt lat="46.112609063163646" lon="12.603006729759484"><ele>304.0</ele><time>2026-03-30T09:21:56Z</time></trkpt><trkpt lat="46.11268276646902" lon="12.603161269603785"><ele>304.0</ele><time>2026-03-30T09:21:57Z</time></trkpt><trkpt lat="46.112757317816474" lon="12.603310535865695"><ele>304.0</ele><time>2026-03-30T09:21:58Z</time></trkpt><trkpt lat="46.11282880705616" lon="12.603453633922927"><ele>304.0</ele><time>2026-03-30T09:21:59Z</time></trkpt><trkpt lat="46.11290080332631" lon="12.60359119342828"><ele>304.0</ele><time>2026-03-30T09:22:00Z</time></trkpt><trkpt lat="46.11297746830325" lon="12.60372586559809"><ele>304.25</ele><time>2026-03-30T09:22:01Z</time></trkpt><trkpt lat="46.1130556846015" lon="12.603859021745087"><ele>304.5</ele><time>2026-03-30T09:22:02Z</time></trkpt><trkpt lat="46.11313164617161" lon="12.603995214590519"><ele>304.75</ele><time>2026-03-30T09:22:03Z</time></trkpt><trkpt lat="46.11320911108058" lon="12.604133959174156"><ele>305.0</ele><time>2026-03-30T09:22:04Z</time></trkpt><trkpt lat="46.11328537171966" lon="12.604270155989942"><ele>305.0</ele><time>2026-03-30T09:22:05Z</time></trkpt><trkpt lat="46.11336321075359" lon="12.604408202039412"><ele>305.0</ele><time>2026-03-30T09:22:06Z</time></trkpt><trkpt lat="46.11343706691159" lon="12.604531418479691"><ele>305.0</ele><time>2026-03-30T09:22:07Z</time></trkpt><trkpt lat="46.11350853200736" lon="12.604649936501056"><ele>305.0</ele><time>2026-03-30T09:22:08Z</time></trkpt><trkpt lat="46.11358334250119" lon="12.604763951568545"><ele>305.0</ele><time>2026-03-30T09:22:09Z</time></trkpt><trkpt lat="46.113663406126726" lon="12.604880317009693"><ele>305.0</ele><time>2026-03-30T09:22:10Z</time></trkpt><trkpt lat="46.11374054942001" lon="12.605006848331836"><ele>305.0</ele><time>2026-03-30T09:22:11Z</time></trkpt><trkpt lat="46.11381749799351" lon="12.605136052035556"><ele>305.0</ele><time>2026-03-30T09:22:12Z</time></trkpt><trkpt lat="46.11389396301756" lon="12.605268637124732"><ele>304.75</ele><time>2026-03-30T09:22:13Z</time></trkpt><trkpt lat="46.11397419828523" lon="12.605401711447964"><ele>304.5</ele><time>2026-03-30T09:22:14Z</time></trkpt><trkpt lat="46.11405271925447" lon="12.605536428657423"><ele>304.25</ele><time>2026-03-30T09:22:15Z</time></trkpt><trkpt lat="46.11413342525052" lon="12.605672338160122"><ele>304.0</ele><time>2026-03-30T09:22:16Z</time></trkpt><trkpt lat="46.11421293931658" lon="12.60581643587741"><ele>304.0</ele><time>2026-03-30T09:22:17Z</time></trkpt><trkpt lat="46.11430112502398" lon="12.605948403735802"><ele>304.0</ele><time>2026-03-30T09:22:18Z</time></trkpt><trkpt lat="46.114404328177024" lon="12.606064737077364"><ele>304.0</ele><time>2026-03-30T09:22:19Z</time></trkpt><trkpt lat="46.11450959556175" lon="12.606173282074801"><ele>304.0</ele><time>2026-03-30T09:22:20Z</time></trkpt><trkpt lat="46.11461849939904" lon="12.60628065006416"><ele>304.0</ele><time>2026-03-30T09:22:21Z</time></trkpt><trkpt lat="46.11472654382739" lon="12.606395182705343"><ele>304.0</ele><time>2026-03-30T09:22:22Z</time></trkpt><trkpt lat="46.11483214147786" lon="12.606517442909372"><ele>304.0</ele><time>2026-03-30T09:22:23Z</time></trkpt><trkpt lat="46.11493720764772" lon="12.60664216821776"><ele>304.0</ele><time>2026-03-30T09:22:24Z</time></trkpt><trkpt lat="46.11503990925764" lon="12.606771912901129"><ele>304.0</ele><time>2026-03-30T09:22:25Z</time></trkpt><trkpt lat="46.115140273879035" lon="12.606906691829325"><ele>304.0</ele><time>2026-03-30T09:22:26Z</time></trkpt><trkpt lat="46.11523670538587" lon="12.607034574911971"><ele>304.0</ele><time>2026-03-30T09:22:27Z</time></trkpt><trkpt lat="46.1153321758721" lon="12.607157263358198"><ele>304.0</ele><time>2026-03-30T09:22:28Z</time></trkpt><trkpt lat="46.11542435960726" lon="12.607274916979978"><ele>304.25</ele><time>2026-03-30T09:22:29Z</time></trkpt><trkpt lat="46.115517251988" lon="12.607389224164866"><ele>304.5</ele><time>2026-03-30T09:22:30Z</time></trkpt><trkpt lat="46.11560920158587" lon="12.607499511816819"><ele>304.75</ele><time>2026-03-30T09:22:31Z</time></trkpt><trkpt lat="46.115705835178844" lon="12.607614728949867"><ele>305.0</ele><time>2026-03-30T09:22:32Z</time></trkpt><trkpt lat="46.11580449652268" lon="12.607737269537461"><ele>303.75</ele><time>2026-03-30T09:22:33Z</time></trkpt><trkpt lat="46.115903100521315" lon="12.607871167560969"><ele>302.5</ele><time>2026-03-30T09:22:34Z</time></trkpt><trkpt lat="46.116000667195436" lon="12.608016524594063"><ele>301.25</ele><time>2026-03-30T09:22:35Z</time></trkpt><trkpt lat="46.11609679146758" lon="12.608173069263206"><ele>300.0</ele><time>2026-03-30T09:22:36Z</time></trkpt><trkpt lat="46.11618710927648" lon="12.608340522295522"><ele>300.0</ele><time>2026-03-30T09:22:37Z</time></trkpt><trkpt lat="46.116273096163376" lon="12.608510945963388"><ele>300.0</ele><time>2026-03-30T09:22:38Z</time></trkpt><trkpt lat="46.116353887156585" lon="12.608677861627363"><ele>300.0</ele><time>2026-03-30T09:22:39Z</time></trkpt><trkpt lat="46.11642691128591" lon="12.608836598272532"><ele>300.0</ele><time>2026-03-30T09:22:40Z</time></trkpt><trkpt lat="46.1164975092774" lon="12.608987763071815"><ele>299.5</ele><time>2026-03-30T09:22:41Z</time></trkpt><trkpt lat="46.11656309466849" lon="12.609135555538815"><ele>299.0</ele><time>2026-03-30T09:22:42Z</time></trkpt><trkpt lat="46.11662780842034" lon="12.609278777081634"><ele>298.5</ele><time>2026-03-30T09:22:43Z</time></trkpt><trkpt lat="46.116693122361696" lon="12.60942582716181"><ele>298.0</ele><time>2026-03-30T09:22:44Z</time></trkpt><trkpt lat="46.11675595928974" lon="12.609575435214605"><ele>298.0</ele><time>2026-03-30T09:22:45Z</time></trkpt><trkpt lat="46.11682233541578" lon="12.609724132763233"><ele>298.0</ele><time>2026-03-30T09:22:46Z</time></trkpt><trkpt lat="46.116887124357035" lon="12.609871958415463"><ele>298.0</ele><time>2026-03-30T09:22:47Z</time></trkpt><trkpt lat="46.116952407596855" lon="12.610019912609701"><ele>298.0</ele><time>2026-03-30T09:22:48Z</time></trkpt><trkpt lat="46.117020317257" lon="12.610173666169663"><ele>297.75</ele><time>2026-03-30T09:22:49Z</time></trkpt><trkpt lat="46.117089053793826" lon="12.610330847734447"><ele>297.5</ele><time>2026-03-30T09:22:50Z</time></trkpt><trkpt lat="46.117159899886474" lon="12.610490144823862"><ele>297.25</ele><time>2026-03-30T09:22:51Z</time></trkpt><trkpt lat="46.11723351887999" lon="12.610650742237356"><ele>297.0</ele><time>2026-03-30T09:22:52Z</time></trkpt><trkpt lat="46.117309822256054" lon="12.610812953418288"><ele>297.0</ele><time>2026-03-30T09:22:53Z</time></trkpt><trkpt lat="46.11738751924098" lon="12.610977933752553"><ele>297.0</ele><time>2026-03-30T09:22:54Z</time></trkpt><trkpt lat="46.11746612210496" lon="12.611144975810715"><ele>297.0</ele><time>2026-03-30T09:22:55Z</time></trkpt><trkpt lat="46.11754174896121" lon="12.61131724974519"><ele>297.0</ele><time>2026-03-30T09:22:56Z</time></trkpt><trkpt lat="46.11761596476683" lon="12.611492945620347"><ele>296.25</ele><time>2026-03-30T09:22:57Z</time></trkpt><trkpt lat="46.11769253086633" lon="12.611668396384625"><ele>295.5</ele><time>2026-03-30T09:22:58Z</time></trkpt><trkpt lat="46.117771831502175" lon="12.611845046635096"><ele>294.75</ele><time>2026-03-30T09:22:59Z</time></trkpt><trkpt lat="46.117851845978976" lon="12.612021159166535"><ele>294.0</ele><time>2026-03-30T09:23:00Z</time></trkpt><trkpt lat="46.11793200375279" lon="12.612196821465929"><ele>293.75</ele><time>2026-03-30T09:23:01Z</time></trkpt><trkpt lat="46.11801281235411" lon="12.612374000640784"><ele>293.5</ele><time>2026-03-30T09:23:02Z</time></trkpt><trkpt lat="46.11809365714235" lon="12.61255227319571"><ele>293.25</ele><time>2026-03-30T09:23:02.999Z</time></trkpt><trkpt lat="46.11817451443316" lon="12.612730163139506"><ele>293.0</ele><time>2026-03-30T09:23:03.999Z</time></trkpt><trkpt lat="46.11825416575234" lon="12.612908101062725"><ele>293.0</ele><time>2026-03-30T09:23:04.999Z</time></trkpt><trkpt lat="46.11833464488423" lon="12.613088552420779"><ele>293.0</ele><time>2026-03-30T09:23:05.999Z</time></trkpt><trkpt lat="46.11841445077718" lon="12.613268982742175"><ele>293.0</ele><time>2026-03-30T09:23:06.999Z</time></trkpt><trkpt lat="46.11849493922347" lon="12.613447050630487"><ele>293.0</ele><time>2026-03-30T09:23:07.999Z</time></trkpt><trkpt lat="46.11857620105815" lon="12.613620238909455"><ele>292.5</ele><time>2026-03-30T09:23:08.999Z</time></trkpt><trkpt lat="46.11865688888926" lon="12.613790680180175"><ele>292.0</ele><time>2026-03-30T09:23:09.999Z</time></trkpt><trkpt lat="46.11873762057569" lon="12.613958551392113"><ele>291.5</ele><time>2026-03-30T09:23:10.999Z</time></trkpt><trkpt lat="46.11881865507018" lon="12.614120519491829"><ele>291.0</ele><time>2026-03-30T09:23:11.999Z</time></trkpt><trkpt lat="46.11889924085563" lon="12.614272189200678"><ele>291.0</ele><time>2026-03-30T09:23:12.999Z</time></trkpt><trkpt lat="46.11897869808248" lon="12.614420290425834"><ele>291.0</ele><time>2026-03-30T09:23:13.999Z</time></trkpt><trkpt lat="46.11905239463182" lon="12.614562685454457"><ele>291.0</ele><time>2026-03-30T09:23:15Z</time></trkpt><trkpt lat="46.1191223660385" lon="12.614701687238993"><ele>291.0</ele><time>2026-03-30T09:23:16Z</time></trkpt><trkpt lat="46.119190331182786" lon="12.61483497486978"><ele>291.5</ele><time>2026-03-30T09:23:17Z</time></trkpt><trkpt lat="46.11925966905917" lon="12.614965587866442"><ele>292.0</ele><time>2026-03-30T09:23:18Z</time></trkpt><trkpt lat="46.11932697139082" lon="12.615096889104594"><ele>292.5</ele><time>2026-03-30T09:23:19Z</time></trkpt><trkpt lat="46.11939378287796" lon="12.61522723381121"><ele>293.0</ele><time>2026-03-30T09:23:20Z</time></trkpt><trkpt lat="46.11945833276012" lon="12.61536589341791"><ele>293.0</ele><time>2026-03-30T09:23:21Z</time></trkpt><trkpt lat="46.119522608590074" lon="12.615509295211016"><ele>293.0</ele><time>2026-03-30T09:23:22Z</time></trkpt><trkpt lat="46.11958878795529" lon="12.615648692542033"><ele>293.0</ele><time>2026-03-30T09:23:23Z</time></trkpt><trkpt lat="46.11965626491241" lon="12.61578438177431"><ele>293.0</ele><time>2026-03-30T09:23:24Z</time></trkpt><trkpt lat="46.11972188674002" lon="12.615920445789186"><ele>293.0</ele><time>2026-03-30T09:23:25Z</time></trkpt><trkpt lat="46.119789118429004" lon="12.616046256792696"><ele>293.0</ele><time>2026-03-30T09:23:26Z</time></trkpt><trkpt lat="46.119852937012446" lon="12.61615437435218"><ele>293.0</ele><time>2026-03-30T09:23:27Z</time></trkpt><trkpt lat="46.11991066450597" lon="12.61625428920068"><ele>293.0</ele><time>2026-03-30T09:23:28Z</time></trkpt><trkpt lat="46.11996631956638" lon="12.616334511404753"><ele>293.0</ele><time>2026-03-30T09:23:29Z</time></trkpt><trkpt lat="46.12002451275647" lon="12.616407059693527"><ele>293.2</ele><time>2026-03-30T09:23:30Z</time></trkpt><trkpt lat="46.120076320371126" lon="12.616498538794632"><ele>293.4</ele><time>2026-03-30T09:23:31Z</time></trkpt><trkpt lat="46.12012856041722" lon="12.616599556800079"><ele>293.59999999999997</ele><time>2026-03-30T09:23:32Z</time></trkpt><trkpt lat="46.12018369131226" lon="12.61670771053742"><ele>293.8</ele><time>2026-03-30T09:23:33Z</time></trkpt><trkpt lat="46.12025634144546" lon="12.616812678341557"><ele>294.0</ele><time>2026-03-30T09:23:34Z</time></trkpt><trkpt lat="46.12031383899818" lon="12.616946294054543"><ele>293.8</ele><time>2026-03-30T09:23:35Z</time></trkpt><trkpt lat="46.12037329396187" lon="12.617072608349723"><ele>293.59999999999997</ele><time>2026-03-30T09:23:36Z</time></trkpt><trkpt lat="46.120431680929144" lon="12.61720788546444"><ele>293.4</ele><time>2026-03-30T09:23:37Z</time></trkpt><trkpt lat="46.120496843841" lon="12.617345115428504"><ele>293.2</ele><time>2026-03-30T09:23:38Z</time></trkpt><trkpt lat="46.12056579272639" lon="12.617462866956112"><ele>293.0</ele><time>2026-03-30T09:23:39Z</time></trkpt><trkpt lat="46.12061942168856" lon="12.617586551945495"><ele>293.0</ele><time>2026-03-30T09:23:40Z</time></trkpt><trkpt lat="46.12069121940531" lon="12.617696668102838"><ele>293.0</ele><time>2026-03-30T09:23:41Z</time></trkpt><trkpt lat="46.120763377827835" lon="12.617816625036058"><ele>293.0</ele><time>2026-03-30T09:23:42Z</time></trkpt><trkpt lat="46.12084170438158" lon="12.617935065758545"><ele>293.0</ele><time>2026-03-30T09:23:43Z</time></trkpt><trkpt lat="46.120920647396694" lon="12.618051777834204"><ele>293.0</ele><time>2026-03-30T09:23:44Z</time></trkpt><trkpt lat="46.12100133323804" lon="12.618167794105007"><ele>293.0</ele><time>2026-03-30T09:23:45Z</time></trkpt><trkpt lat="46.121080043669565" lon="12.618284959744388"><ele>293.0</ele><time>2026-03-30T09:23:46Z</time></trkpt><trkpt lat="46.121158534208476" lon="12.618407407560484"><ele>293.0</ele><time>2026-03-30T09:23:47Z</time></trkpt><trkpt lat="46.12123665863693" lon="12.618524549912188"><ele>293.0</ele><time>2026-03-30T09:23:48Z</time></trkpt><trkpt lat="46.1213098943288" lon="12.618637510381552"><ele>293.0</ele><time>2026-03-30T09:23:49Z</time></trkpt><trkpt lat="46.12138486659244" lon="12.618748882686768"><ele>293.0</ele><time>2026-03-30T09:23:50Z</time></trkpt><trkpt lat="46.121459724184064" lon="12.618859313850535"><ele>293.0</ele><time>2026-03-30T09:23:51Z</time></trkpt><trkpt lat="46.121532348004884" lon="12.618973068706078"><ele>293.0</ele><time>2026-03-30T09:23:52Z</time></trkpt><trkpt lat="46.12160352034906" lon="12.619085269980305"><ele>293.0</ele><time>2026-03-30T09:23:53Z</time></trkpt><trkpt lat="46.121676433862895" lon="12.619198792072037"><ele>293.0</ele><time>2026-03-30T09:23:54Z</time></trkpt><trkpt lat="46.121752620968955" lon="12.61931037124011"><ele>293.5</ele><time>2026-03-30T09:23:55Z</time></trkpt><trkpt lat="46.121830854524454" lon="12.619423582955921"><ele>294.0</ele><time>2026-03-30T09:23:56Z</time></trkpt><trkpt lat="46.12191024497942" lon="12.6195408921821"><ele>294.5</ele><time>2026-03-30T09:23:57Z</time></trkpt><trkpt lat="46.12199033730059" lon="12.619660470015404"><ele>295.0</ele><time>2026-03-30T09:23:58Z</time></trkpt><trkpt lat="46.12207363317714" lon="12.619779594454172"><ele>295.0</ele><time>2026-03-30T09:23:59Z</time></trkpt><trkpt lat="46.122152969196165" lon="12.61989718167686"><ele>295.0</ele><time>2026-03-30T09:24:00Z</time></trkpt><trkpt lat="46.122225816922914" lon="12.62001268757048"><ele>295.0</ele><time>2026-03-30T09:24:01Z</time></trkpt><trkpt lat="46.12230091549687" lon="12.620118609130477"><ele>295.0</ele><time>2026-03-30T09:24:02Z</time></trkpt><trkpt lat="46.122383097668596" lon="12.620214552163638"><ele>295.0</ele><time>2026-03-30T09:24:03Z</time></trkpt><trkpt lat="46.122471858507005" lon="12.620299627804595"><ele>295.0</ele><time>2026-03-30T09:24:04Z</time></trkpt><trkpt lat="46.122567461447666" lon="12.620372002044405"><ele>295.0</ele><time>2026-03-30T09:24:05Z</time></trkpt><trkpt lat="46.122669528875726" lon="12.620435612590319"><ele>295.0</ele><time>2026-03-30T09:24:06Z</time></trkpt><trkpt lat="46.12277227317122" lon="12.620496647563249"><ele>295.0</ele><time>2026-03-30T09:24:07Z</time></trkpt><trkpt lat="46.12287476587861" lon="12.620562902852441"><ele>295.0</ele><time>2026-03-30T09:24:08Z</time></trkpt><trkpt lat="46.12297937176752" lon="12.620628884125221"><ele>295.0</ele><time>2026-03-30T09:24:09Z</time></trkpt><trkpt lat="46.123085319152324" lon="12.620694572655163"><ele>295.0</ele><time>2026-03-30T09:24:10Z</time></trkpt><trkpt lat="46.12319235928393" lon="12.620760705583331"><ele>295.0</ele><time>2026-03-30T09:24:11Z</time></trkpt><trkpt lat="46.12330051201012" lon="12.620828334632284"><ele>295.0</ele><time>2026-03-30T09:24:12Z</time></trkpt><trkpt lat="46.12340942244993" lon="12.620893276613309"><ele>295.25</ele><time>2026-03-30T09:24:13Z</time></trkpt><trkpt lat="46.12351690044863" lon="12.620958623540991"><ele>295.5</ele><time>2026-03-30T09:24:14Z</time></trkpt><trkpt lat="46.123627199196676" lon="12.621023614748758"><ele>295.75</ele><time>2026-03-30T09:24:15Z</time></trkpt><trkpt lat="46.12373659831165" lon="12.621095748373298"><ele>296.0</ele><time>2026-03-30T09:24:16Z</time></trkpt><trkpt lat="46.123850644106085" lon="12.621164356875335"><ele>296.0</ele><time>2026-03-30T09:24:17Z</time></trkpt><trkpt lat="46.12396798526473" lon="12.62123562415805"><ele>296.0</ele><time>2026-03-30T09:24:18Z</time></trkpt><trkpt lat="46.124089215082854" lon="12.621310672777048"><ele>296.0</ele><time>2026-03-30T09:24:19Z</time></trkpt><trkpt lat="46.124211208816455" lon="12.621387282020592"><ele>296.0</ele><time>2026-03-30T09:24:20Z</time></trkpt><trkpt lat="46.124335934220916" lon="12.621465373178621"><ele>296.25</ele><time>2026-03-30T09:24:21Z</time></trkpt><trkpt lat="46.1244610766279" lon="12.621546215727205"><ele>296.5</ele><time>2026-03-30T09:24:22Z</time></trkpt><trkpt lat="46.124589793303755" lon="12.62162349027283"><ele>296.75</ele><time>2026-03-30T09:24:23Z</time></trkpt><trkpt lat="46.12472057459466" lon="12.621703073658992"><ele>297.0</ele><time>2026-03-30T09:24:24Z</time></trkpt><trkpt lat="46.12485165912042" lon="12.621784481094107"><ele>297.25</ele><time>2026-03-30T09:24:25Z</time></trkpt><trkpt lat="46.1249827172438" lon="12.621868356727507"><ele>297.5</ele><time>2026-03-30T09:24:26Z</time></trkpt><trkpt lat="46.12511241100226" lon="12.62195436170321"><ele>297.75</ele><time>2026-03-30T09:24:27Z</time></trkpt><trkpt lat="46.125246790985926" lon="12.622039142025733"><ele>298.0</ele><time>2026-03-30T09:24:28Z</time></trkpt><trkpt lat="46.12538486272141" lon="12.622124200731337"><ele>297.5</ele><time>2026-03-30T09:24:29Z</time></trkpt><trkpt lat="46.12552240908621" lon="12.622208857483352"><ele>297.0</ele><time>2026-03-30T09:24:30Z</time></trkpt><trkpt lat="46.125659822050196" lon="12.622292250871157"><ele>296.5</ele><time>2026-03-30T09:24:31Z</time></trkpt><trkpt lat="46.12579823880489" lon="12.62237469562905"><ele>296.0</ele><time>2026-03-30T09:24:32Z</time></trkpt><trkpt lat="46.125937934279285" lon="12.622455096594424"><ele>297.5</ele><time>2026-03-30T09:24:33Z</time></trkpt><trkpt lat="46.12607542382068" lon="12.622533506320007"><ele>299.0</ele><time>2026-03-30T09:24:34Z</time></trkpt><trkpt lat="46.126204350304" lon="12.622607968809781"><ele>300.5</ele><time>2026-03-30T09:24:35Z</time></trkpt><trkpt lat="46.126323623756264" lon="12.622681130145548"><ele>302.0</ele><time>2026-03-30T09:24:36Z</time></trkpt><trkpt lat="46.12644118330521" lon="12.622753752123398"><ele>301.75</ele><time>2026-03-30T09:24:37Z</time></trkpt><trkpt lat="46.12656196992566" lon="12.622829585458355"><ele>301.5</ele><time>2026-03-30T09:24:38Z</time></trkpt><trkpt lat="46.12668750082089" lon="12.622903740400728"><ele>301.25</ele><time>2026-03-30T09:24:39Z</time></trkpt><trkpt lat="46.12681467003513" lon="12.622980631740507"><ele>301.0</ele><time>2026-03-30T09:24:40Z</time></trkpt><trkpt lat="46.12694424026343" lon="12.623055179460975"><ele>301.0</ele><time>2026-03-30T09:24:41Z</time></trkpt><trkpt lat="46.12707683245768" lon="12.623132521177581"><ele>301.0</ele><time>2026-03-30T09:24:42Z</time></trkpt><trkpt lat="46.12721018507142" lon="12.623215617935523"><ele>301.0</ele><time>2026-03-30T09:24:43Z</time></trkpt><trkpt lat="46.1273466024834" lon="12.623300941953426"><ele>301.0</ele><time>2026-03-30T09:24:44Z</time></trkpt><trkpt lat="46.12748350865537" lon="12.623390542787009"><ele>301.3333333333333</ele><time>2026-03-30T09:24:45Z</time></trkpt><trkpt lat="46.12762499144658" lon="12.62348102492254"><ele>301.6666666666667</ele><time>2026-03-30T09:24:46Z</time></trkpt><trkpt lat="46.1277684312765" lon="12.623572454980593"><ele>302.0</ele><time>2026-03-30T09:24:47Z</time></trkpt><trkpt lat="46.12791280908384" lon="12.623665403269714"><ele>302.33333333333337</ele><time>2026-03-30T09:24:48Z</time></trkpt><trkpt lat="46.128060901910736" lon="12.623759209723747"><ele>302.6666666666667</ele><time>2026-03-30T09:24:49Z</time></trkpt><trkpt lat="46.128209879615106" lon="12.623852018570462"><ele>303.0</ele><time>2026-03-30T09:24:50Z</time></trkpt><trkpt lat="46.12835988187978" lon="12.623942655797084"><ele>303.0</ele><time>2026-03-30T09:24:51Z</time></trkpt><trkpt lat="46.12851118421133" lon="12.624032412281647"><ele>303.0</ele><time>2026-03-30T09:24:52Z</time></trkpt><trkpt lat="46.128664350241664" lon="12.624120443528556"><ele>303.0</ele><time>2026-03-30T09:24:53Z</time></trkpt><trkpt lat="46.128818727620256" lon="12.624210550748312"><ele>303.0</ele><time>2026-03-30T09:24:54Z</time></trkpt><trkpt lat="46.12896917268448" lon="12.624307374925715"><ele>303.0</ele><time>2026-03-30T09:24:55Z</time></trkpt><trkpt lat="46.12911819213495" lon="12.62440636386584"><ele>303.0</ele><time>2026-03-30T09:24:56Z</time></trkpt><trkpt lat="46.12927212248859" lon="12.624502420372048"><ele>301.6666666666667</ele><time>2026-03-30T09:24:57Z</time></trkpt><trkpt lat="46.12942862171819" lon="12.624595050217176"><ele>300.33333333333337</ele><time>2026-03-30T09:24:58Z</time></trkpt><trkpt lat="46.129585670578" lon="12.624690313641489"><ele>299.0</ele><time>2026-03-30T09:24:59Z</time></trkpt><trkpt lat="46.12974046042163" lon="12.624783891009155"><ele>300.0</ele><time>2026-03-30T09:25:00Z</time></trkpt><trkpt lat="46.129898912909006" lon="12.624879896709077"><ele>301.0</ele><time>2026-03-30T09:25:01Z</time></trkpt><trkpt lat="46.13005812992158" lon="12.624976790603844"><ele>302.0</ele><time>2026-03-30T09:25:02Z</time></trkpt><trkpt lat="46.13021901765274" lon="12.625070795071514"><ele>302.0</ele><time>2026-03-30T09:25:03Z</time></trkpt><trkpt lat="46.130378815977686" lon="12.62516465284899"><ele>302.0</ele><time>2026-03-30T09:25:04Z</time></trkpt><trkpt lat="46.130538871999065" lon="12.625258589533642"><ele>302.0</ele><time>2026-03-30T09:25:05Z</time></trkpt><trkpt lat="46.1306963617551" lon="12.625356373313915"><ele>302.33333333333337</ele><time>2026-03-30T09:25:06Z</time></trkpt><trkpt lat="46.13085154611078" lon="12.625453396526588"><ele>302.6666666666667</ele><time>2026-03-30T09:25:07Z</time></trkpt><trkpt lat="46.13100809200685" lon="12.625552976497495"><ele>303.0</ele><time>2026-03-30T09:25:08Z</time></trkpt><trkpt lat="46.13116158137972" lon="12.625649160293147"><ele>303.0</ele><time>2026-03-30T09:25:08.999Z</time></trkpt><trkpt lat="46.13131678208862" lon="12.625742999999794"><ele>303.0</ele><time>2026-03-30T09:25:09.999Z</time></trkpt><trkpt lat="46.13146764958605" lon="12.625836910126909"><ele>303.0</ele><time>2026-03-30T09:25:10.999Z</time></trkpt><trkpt lat="46.13161225984118" lon="12.625928865242562"><ele>303.6666666666667</ele><time>2026-03-30T09:25:11.999Z</time></trkpt><trkpt lat="46.13175332032639" lon="12.626019073488534"><ele>304.33333333333337</ele><time>2026-03-30T09:25:13Z</time></trkpt><trkpt lat="46.13190113298069" lon="12.626108331025174"><ele>305.0</ele><time>2026-03-30T09:25:14Z</time></trkpt><trkpt lat="46.132043787914334" lon="12.626202044939188"><ele>303.0</ele><time>2026-03-30T09:25:15Z</time></trkpt><trkpt lat="46.132189994227005" lon="12.626296850203078"><ele>301.0</ele><time>2026-03-30T09:25:16Z</time></trkpt><trkpt lat="46.13233671114227" lon="12.62639101709995"><ele>299.0</ele><time>2026-03-30T09:25:17Z</time></trkpt><trkpt lat="46.13248301263904" lon="12.626487410318516"><ele>298.6666666666667</ele><time>2026-03-30T09:25:18Z</time></trkpt><trkpt lat="46.13263116881338" lon="12.626582876847218"><ele>298.3333333333333</ele><time>2026-03-30T09:25:19Z</time></trkpt><trkpt lat="46.132779061739" lon="12.626676865563907"><ele>298.0</ele><time>2026-03-30T09:25:20Z</time></trkpt><trkpt lat="46.13292710903752" lon="12.62676825753974"><ele>298.0</ele><time>2026-03-30T09:25:21Z</time></trkpt><trkpt lat="46.13307643897748" lon="12.62686240121179"><ele>298.0</ele><time>2026-03-30T09:25:22Z</time></trkpt><trkpt lat="46.13322669753237" lon="12.626959351601577"><ele>298.0</ele><time>2026-03-30T09:25:23Z</time></trkpt><trkpt lat="46.13337723575668" lon="12.627055016548352"><ele>298.0</ele><time>2026-03-30T09:25:24Z</time></trkpt><trkpt lat="46.13352743170106" lon="12.627153953262464"><ele>298.0</ele><time>2026-03-30T09:25:25Z</time></trkpt><trkpt lat="46.13367645702562" lon="12.627255540220236"><ele>298.0</ele><time>2026-03-30T09:25:26Z</time></trkpt><trkpt lat="46.13382474798542" lon="12.627360439574641"><ele>298.0</ele><time>2026-03-30T09:25:27Z</time></trkpt><trkpt lat="46.13397234394408" lon="12.627467776629022"><ele>298.0</ele><time>2026-03-30T09:25:28Z</time></trkpt><trkpt lat="46.13412193255068" lon="12.627569614549571"><ele>298.0</ele><time>2026-03-30T09:25:29Z</time></trkpt><trkpt lat="46.134270069028595" lon="12.627675070425026"><ele>298.0</ele><time>2026-03-30T09:25:30Z</time></trkpt><trkpt lat="46.134423058008224" lon="12.627774780249064"><ele>298.0</ele><time>2026-03-30T09:25:31Z</time></trkpt><trkpt lat="46.13457741091549" lon="12.627877746167211"><ele>298.0</ele><time>2026-03-30T09:25:32Z</time></trkpt><trkpt lat="46.13473359503442" lon="12.62798019165383"><ele>296.66666666666663</ele><time>2026-03-30T09:25:33Z</time></trkpt><trkpt lat="46.13489520689761" lon="12.628090629855306"><ele>295.3333333333333</ele><time>2026-03-30T09:25:34Z</time></trkpt><trkpt lat="46.135035268993946" lon="12.628191045533454"><ele>294.0</ele><time>2026-03-30T09:25:35Z</time></trkpt><trkpt lat="46.13520956619734" lon="12.628314141311485"><ele>294.0</ele><time>2026-03-30T09:25:36Z</time></trkpt><trkpt lat="46.135373494381085" lon="12.628434880721985"><ele>294.0</ele><time>2026-03-30T09:25:37Z</time></trkpt><trkpt lat="46.13552244064907" lon="12.628557482888247"><ele>294.0</ele><time>2026-03-30T09:25:38Z</time></trkpt><trkpt lat="46.13567418573323" lon="12.628693434675348"><ele>292.6666666666667</ele><time>2026-03-30T09:25:39Z</time></trkpt><trkpt lat="46.135826993193156" lon="12.628841273242214"><ele>291.33333333333337</ele><time>2026-03-30T09:25:40Z</time></trkpt><trkpt lat="46.13597218792198" lon="12.628997392798752"><ele>290.0</ele><time>2026-03-30T09:25:41Z</time></trkpt><trkpt lat="46.13610240194535" lon="12.629147708432836"><ele>290.0</ele><time>2026-03-30T09:25:42Z</time></trkpt><trkpt lat="46.13623126676238" lon="12.6292837802312"><ele>290.0</ele><time>2026-03-30T09:25:43Z</time></trkpt><trkpt lat="46.136367024800684" lon="12.629414087883815"><ele>290.0</ele><time>2026-03-30T09:25:44Z</time></trkpt><trkpt lat="46.13650900497648" lon="12.629548720648524"><ele>288.6666666666667</ele><time>2026-03-30T09:25:45Z</time></trkpt><trkpt lat="46.136660883948714" lon="12.629689396385224"><ele>287.3333333333333</ele><time>2026-03-30T09:25:46Z</time></trkpt><trkpt lat="46.13681893628344" lon="12.629843589327558"><ele>286.0</ele><time>2026-03-30T09:25:47Z</time></trkpt><trkpt lat="46.137005693704495" lon="12.630011817291674"><ele>286.0</ele><time>2026-03-30T09:25:48Z</time></trkpt><trkpt lat="46.13717885415732" lon="12.630160518610719"><ele>286.0</ele><time>2026-03-30T09:25:49Z</time></trkpt><trkpt lat="46.13734385165301" lon="12.630304652044412"><ele>286.0</ele><time>2026-03-30T09:25:50Z</time></trkpt><trkpt lat="46.13750204476033" lon="12.630442530937373"><ele>284.66666666666663</ele><time>2026-03-30T09:25:51Z</time></trkpt><trkpt lat="46.13765575177068" lon="12.63057316011769"><ele>283.3333333333333</ele><time>2026-03-30T09:25:52Z</time></trkpt><trkpt lat="46.13780472296162" lon="12.630696862491266"><ele>282.0</ele><time>2026-03-30T09:25:53Z</time></trkpt><trkpt lat="46.13794686898453" lon="12.630820001583498"><ele>282.0</ele><time>2026-03-30T09:25:54Z</time></trkpt><trkpt lat="46.13808241372817" lon="12.630934823635553"><ele>282.0</ele><time>2026-03-30T09:25:55Z</time></trkpt><trkpt lat="46.13821129799682" lon="12.631052192849587"><ele>282.0</ele><time>2026-03-30T09:25:56Z</time></trkpt><trkpt lat="46.1383309219575" lon="12.631147949096256"><ele>282.0</ele><time>2026-03-30T09:25:57Z</time></trkpt><trkpt lat="46.13845991711643" lon="12.631264627494591"><ele>281.0</ele><time>2026-03-30T09:25:58Z</time></trkpt><trkpt lat="46.138593179761536" lon="12.6313862280603"><ele>280.0</ele><time>2026-03-30T09:25:59Z</time></trkpt><trkpt lat="46.138737346647304" lon="12.631508636907123"><ele>279.0</ele><time>2026-03-30T09:26:00Z</time></trkpt><trkpt lat="46.13888111984608" lon="12.63163170236658"><ele>279.0</ele><time>2026-03-30T09:26:01Z</time></trkpt><trkpt lat="46.13902703202248" lon="12.63174424590238"><ele>279.0</ele><time>2026-03-30T09:26:02Z</time></trkpt><trkpt lat="46.13914839042807" lon="12.63185551841756"><ele>279.0</ele><time>2026-03-30T09:26:03Z</time></trkpt><trkpt lat="46.13924324175524" lon="12.631959257789907"><ele>279.0</ele><time>2026-03-30T09:26:04Z</time></trkpt><trkpt lat="46.13931721383557" lon="12.63202957601695"><ele>279.0</ele><time>2026-03-30T09:26:05Z</time></trkpt><trkpt lat="46.13937137125467" lon="12.632147052113497"><ele>279.0</ele><time>2026-03-30T09:26:07Z</time></trkpt><trkpt lat="46.13944341957506" lon="12.632196696398875"><ele>279.0</ele><time>2026-03-30T09:27:18.999Z</time></trkpt><trkpt lat="46.13943921222589" lon="12.632059366827654"><ele>279.0</ele><time>2026-03-30T09:27:22.999Z</time></trkpt><trkpt lat="46.1393770074331" lon="12.631995778254048"><ele>279.0</ele><time>2026-03-30T09:27:23.999Z</time></trkpt><trkpt lat="46.13928099227447" lon="12.631940999701145"><ele>279.0</ele><time>2026-03-30T09:27:24.999Z</time></trkpt><trkpt lat="46.13918057459218" lon="12.631856183795248"><ele>279.0</ele><time>2026-03-30T09:27:25.999Z</time></trkpt><trkpt lat="46.13906306556454" lon="12.631745091527263"><ele>279.0</ele><time>2026-03-30T09:27:27Z</time></trkpt><trkpt lat="46.13895154887091" lon="12.631659676923833"><ele>279.0</ele><time>2026-03-30T09:27:28Z</time></trkpt><trkpt lat="46.13885503965141" lon="12.631575662799474"><ele>279.0</ele><time>2026-03-30T09:27:29Z</time></trkpt><trkpt lat="46.138752726648804" lon="12.631481327080662"><ele>279.0</ele><time>2026-03-30T09:27:30Z</time></trkpt><trkpt lat="46.13865050028366" lon="12.63138970986176"><ele>279.0</ele><time>2026-03-30T09:27:31Z</time></trkpt><trkpt lat="46.13854981843748" lon="12.631296415717541"><ele>279.0</ele><time>2026-03-30T09:27:32Z</time></trkpt><trkpt lat="46.13845043002788" lon="12.631210211417438"><ele>279.3333333333333</ele><time>2026-03-30T09:27:33Z</time></trkpt><trkpt lat="46.138354733390806" lon="12.631131777886937"><ele>279.6666666666667</ele><time>2026-03-30T09:27:34Z</time></trkpt><trkpt lat="46.13826826476237" lon="12.631066043237036"><ele>280.0</ele><time>2026-03-30T09:27:35Z</time></trkpt><trkpt lat="46.13819219709707" lon="12.631014109241661"><ele>280.33333333333337</ele><time>2026-03-30T09:27:36Z</time></trkpt><trkpt lat="46.13813684153128" lon="12.630943607339228"><ele>280.6666666666667</ele><time>2026-03-30T09:27:37Z</time></trkpt><trkpt lat="46.1380800641134" lon="12.63089475336372"><ele>281.0</ele><time>2026-03-30T09:27:38Z</time></trkpt><trkpt lat="46.13801379631578" lon="12.630837733415936"><ele>281.2</ele><time>2026-03-30T09:27:39Z</time></trkpt><trkpt lat="46.137935523574754" lon="12.630770341039938"><ele>281.40000000000003</ele><time>2026-03-30T09:27:40Z</time></trkpt><trkpt lat="46.137841358828936" lon="12.63068919627994"><ele>281.6</ele><time>2026-03-30T09:27:41Z</time></trkpt><trkpt lat="46.13774429839765" lon="12.630604355973933"><ele>281.8</ele><time>2026-03-30T09:27:42Z</time></trkpt><trkpt lat="46.13765122089609" lon="12.630522775831697"><ele>282.0</ele><time>2026-03-30T09:27:43Z</time></trkpt><trkpt lat="46.137551795034184" lon="12.63045197856813"><ele>282.0</ele><time>2026-03-30T09:27:44Z</time></trkpt><trkpt lat="46.13744792324423" lon="12.63038327036552"><ele>282.0</ele><time>2026-03-30T09:27:45Z</time></trkpt><trkpt lat="46.13735683634199" lon="12.630333958808054"><ele>282.0</ele><time>2026-03-30T09:27:46Z</time></trkpt><trkpt lat="46.137266043661384" lon="12.630291758005654"><ele>282.0</ele><time>2026-03-30T09:27:47Z</time></trkpt><trkpt lat="46.136863176151586" lon="12.631007961761046"><ele>282.0</ele><time>2026-03-30T09:27:48Z</time></trkpt><trkpt lat="46.13674086729088" lon="12.631037427297002"><ele>282.0</ele><time>2026-03-30T09:27:49Z</time></trkpt><trkpt lat="46.136609217026596" lon="12.631085453540218"><ele>282.0</ele><time>2026-03-30T09:27:50Z</time></trkpt><trkpt lat="46.136477284116786" lon="12.631126888398109"><ele>282.0</ele><time>2026-03-30T09:27:51Z</time></trkpt><trkpt lat="46.1363506308646" lon="12.631156770581894"><ele>281.25</ele><time>2026-03-30T09:27:52Z</time></trkpt><trkpt lat="46.13621317019405" lon="12.631187288400636"><ele>280.5</ele><time>2026-03-30T09:27:53Z</time></trkpt><trkpt lat="46.13607637497386" lon="12.631215078672957"><ele>279.75</ele><time>2026-03-30T09:27:54Z</time></trkpt><trkpt lat="46.13595417607324" lon="12.631235124186711"><ele>279.0</ele><time>2026-03-30T09:27:55Z</time></trkpt><trkpt lat="46.13585244258582" lon="12.631254212625228"><ele>279.0</ele><time>2026-03-30T09:27:56Z</time></trkpt><trkpt lat="46.135751780724256" lon="12.63127623649241"><ele>279.0</ele><time>2026-03-30T09:27:57Z</time></trkpt><trkpt lat="46.13565824832527" lon="12.6312963571567"><ele>279.0</ele><time>2026-03-30T09:27:58Z</time></trkpt><trkpt lat="46.13559048838078" lon="12.631308929604833"><ele>279.0</ele><time>2026-03-30T09:27:59Z</time></trkpt><trkpt lat="46.135492945080514" lon="12.631278620114124"><ele>279.0</ele><time>2026-03-30T09:28:01Z</time></trkpt><trkpt lat="46.13536506602618" lon="12.631320918688983"><ele>279.0</ele><time>2026-03-30T09:28:03Z</time></trkpt><trkpt lat="46.13528946697381" lon="12.63137098300009"><ele>279.0</ele><time>2026-03-30T09:28:04Z</time></trkpt><trkpt lat="46.13521818206691" lon="12.631413158833112"><ele>279.0</ele><time>2026-03-30T09:28:05Z</time></trkpt><trkpt lat="46.13516382617587" lon="12.631493873194978"><ele>279.0</ele><time>2026-03-30T09:28:06Z</time></trkpt><trkpt lat="46.13509626919763" lon="12.631582270296118"><ele>279.0</ele><time>2026-03-30T09:28:07Z</time></trkpt><trkpt lat="46.13503185072576" lon="12.631697046016093"><ele>279.0</ele><time>2026-03-30T09:28:08Z</time></trkpt><trkpt lat="46.13497909121926" lon="12.63183261910244"><ele>279.0</ele><time>2026-03-30T09:28:09Z</time></trkpt><trkpt lat="46.134934469574894" lon="12.631962577667668"><ele>279.0</ele><time>2026-03-30T09:28:10Z</time></trkpt><trkpt lat="46.13488769976142" lon="12.632112614741825"><ele>279.0</ele><time>2026-03-30T09:28:11Z</time></trkpt><trkpt lat="46.13483002093593" lon="12.63226888859235"><ele>279.0</ele><time>2026-03-30T09:28:12Z</time></trkpt><trkpt lat="46.13476983964497" lon="12.632411891154447"><ele>278.59999999999997</ele><time>2026-03-30T09:28:13Z</time></trkpt><trkpt lat="46.13471512322109" lon="12.632533983917773"><ele>278.2</ele><time>2026-03-30T09:28:14Z</time></trkpt><trkpt lat="46.134667306052975" lon="12.632651129655928"><ele>277.79999999999995</ele><time>2026-03-30T09:28:15Z</time></trkpt><trkpt lat="46.134621965101665" lon="12.63278467044563"><ele>277.4</ele><time>2026-03-30T09:28:16Z</time></trkpt><trkpt lat="46.13458402178128" lon="12.632934617719378"><ele>277.0</ele><time>2026-03-30T09:28:17Z</time></trkpt><trkpt lat="46.134547422928826" lon="12.633086609845703"><ele>277.0</ele><time>2026-03-30T09:28:18Z</time></trkpt><trkpt lat="46.13451461627629" lon="12.63322027276145"><ele>277.0</ele><time>2026-03-30T09:28:19Z</time></trkpt><trkpt lat="46.13448637905481" lon="12.633345188723906"><ele>277.0</ele><time>2026-03-30T09:28:20Z</time></trkpt><trkpt lat="46.134450256173885" lon="12.633487806261718"><ele>277.0</ele><time>2026-03-30T09:28:21Z</time></trkpt><trkpt lat="46.1344152453041" lon="12.633633636062285"><ele>277.0</ele><time>2026-03-30T09:28:22Z</time></trkpt><trkpt lat="46.13438333755815" lon="12.633733103041676"><ele>276.75</ele><time>2026-03-30T09:28:23Z</time></trkpt><trkpt lat="46.134267244136716" lon="12.633747758161176"><ele>276.5</ele><time>2026-03-30T09:28:24Z</time></trkpt><trkpt lat="46.13423802440021" lon="12.633839206282198"><ele>276.25</ele><time>2026-03-30T09:28:26Z</time></trkpt><trkpt lat="46.134188224483594" lon="12.633937738215195"><ele>276.0</ele><time>2026-03-30T09:28:29Z</time></trkpt><trkpt lat="46.133915172586164" lon="12.63382366999329"><ele>276.0</ele><time>2026-03-30T09:28:31Z</time></trkpt><trkpt lat="46.13381525563489" lon="12.633790341371846"><ele>276.0</ele><time>2026-03-30T09:28:32Z</time></trkpt><trkpt lat="46.13372664976613" lon="12.633768920453244"><ele>276.0</ele><time>2026-03-30T09:28:33Z</time></trkpt><trkpt lat="46.13364324474216" lon="12.633750812324172"><ele>276.0</ele><time>2026-03-30T09:28:34Z</time></trkpt><trkpt lat="46.133561398547094" lon="12.63373753835981"><ele>276.0</ele><time>2026-03-30T09:28:35Z</time></trkpt><trkpt lat="46.13347938600062" lon="12.633720044042086"><ele>276.0</ele><time>2026-03-30T09:28:36Z</time></trkpt><trkpt lat="46.13339383257379" lon="12.63371817253825"><ele>276.0</ele><time>2026-03-30T09:28:37Z</time></trkpt><trkpt lat="46.13329755721153" lon="12.633705403383207"><ele>276.0</ele><time>2026-03-30T09:28:38Z</time></trkpt><trkpt lat="46.133176802189524" lon="12.633694555019604"><ele>276.0</ele><time>2026-03-30T09:28:39Z</time></trkpt><trkpt lat="46.13305609446917" lon="12.633677590257646"><ele>276.0</ele><time>2026-03-30T09:28:40Z</time></trkpt><trkpt lat="46.13292922544627" lon="12.633658018012119"><ele>276.0</ele><time>2026-03-30T09:28:41Z</time></trkpt><trkpt lat="46.1328137844007" lon="12.633653743813433"><ele>276.0</ele><time>2026-03-30T09:28:42Z</time></trkpt><trkpt lat="46.132704621594705" lon="12.633649335125886"><ele>276.0</ele><time>2026-03-30T09:28:43Z</time></trkpt><trkpt lat="46.13259868571397" lon="12.633640705015576"><ele>276.0</ele><time>2026-03-30T09:28:44Z</time></trkpt><trkpt lat="46.132502260732984" lon="12.63363790412758"><ele>276.0</ele><time>2026-03-30T09:28:45Z</time></trkpt><trkpt lat="46.13240763758928" lon="12.633633392222029"><ele>275.8333333333333</ele><time>2026-03-30T09:28:46Z</time></trkpt><trkpt lat="46.13231775459991" lon="12.6336272584493"><ele>275.6666666666667</ele><time>2026-03-30T09:28:47Z</time></trkpt><trkpt lat="46.132239581424926" lon="12.633592818482144"><ele>275.5</ele><time>2026-03-30T09:28:48Z</time></trkpt><trkpt lat="46.13217322390958" lon="12.633581024000478"><ele>275.33333333333337</ele><time>2026-03-30T09:28:49Z</time></trkpt><trkpt lat="46.132065481215335" lon="12.633558739585595"><ele>275.1666666666667</ele><time>2026-03-30T09:28:51Z</time></trkpt><trkpt lat="46.13199686309018" lon="12.633543962568107"><ele>275.0</ele><time>2026-03-30T09:28:52Z</time></trkpt><trkpt lat="46.13190930922619" lon="12.633515332619838"><ele>275.0</ele><time>2026-03-30T09:28:53Z</time></trkpt><trkpt lat="46.131771165554625" lon="12.633473947053528"><ele>275.0</ele><time>2026-03-30T09:28:54Z</time></trkpt><trkpt lat="46.131651750960565" lon="12.633448518579126"><ele>275.0</ele><time>2026-03-30T09:28:55Z</time></trkpt><trkpt lat="46.13152560670227" lon="12.633425080293334"><ele>275.0</ele><time>2026-03-30T09:28:56Z</time></trkpt><trkpt lat="46.13141164311237" lon="12.633405208130386"><ele>275.2</ele><time>2026-03-30T09:28:57Z</time></trkpt><trkpt lat="46.13129751885512" lon="12.633385307962138"><ele>275.4</ele><time>2026-03-30T09:28:58Z</time></trkpt><trkpt lat="46.1311968878236" lon="12.63338430828988"><ele>275.6</ele><time>2026-03-30T09:28:59Z</time></trkpt><trkpt lat="46.13110118142307" lon="12.633347959935536"><ele>275.8</ele><time>2026-03-30T09:29:00Z</time></trkpt><trkpt lat="46.131002954653304" lon="12.633328609452322"><ele>276.0</ele><time>2026-03-30T09:29:01Z</time></trkpt><trkpt lat="46.13089801705238" lon="12.633331169322439"><ele>276.0</ele><time>2026-03-30T09:29:02Z</time></trkpt><trkpt lat="46.130808269185984" lon="12.63334419982511"><ele>276.0</ele><time>2026-03-30T09:29:03Z</time></trkpt><trkpt lat="46.130676735938316" lon="12.6343704061463"><ele>275.5</ele><time>2026-03-30T09:29:04Z</time></trkpt><trkpt lat="46.13061375768067" lon="12.634451325761384"><ele>275.0</ele><time>2026-03-30T09:29:05Z</time></trkpt><trkpt lat="46.13055058635293" lon="12.63453991974557"><ele>274.5</ele><time>2026-03-30T09:29:06Z</time></trkpt><trkpt lat="46.130490873618946" lon="12.634631530253058"><ele>274.0</ele><time>2026-03-30T09:29:07Z</time></trkpt><trkpt lat="46.13042004661715" lon="12.634720587007482"><ele>273.5</ele><time>2026-03-30T09:29:08Z</time></trkpt><trkpt lat="46.13034890160278" lon="12.6347975608895"><ele>273.0</ele><time>2026-03-30T09:29:09Z</time></trkpt><trkpt lat="46.13027626713811" lon="12.634869399273134"><ele>273.0</ele><time>2026-03-30T09:29:11Z</time></trkpt><trkpt lat="46.13031318650558" lon="12.634979321628405"><ele>273.0</ele><time>2026-03-30T09:29:14Z</time></trkpt><trkpt lat="46.13034864468455" lon="12.635101949189902"><ele>273.0</ele><time>2026-03-30T09:29:16Z</time></trkpt><trkpt lat="46.13035088207682" lon="12.635207200497272"><ele>273.0</ele><time>2026-03-30T09:29:18Z</time></trkpt><trkpt lat="46.13028050860832" lon="12.635206376440749"><ele>273.0</ele><time>2026-03-30T09:29:20Z</time></trkpt><trkpt lat="46.130246895887325" lon="12.635120811440494"><ele>273.0</ele><time>2026-03-30T09:29:21.999Z</time></trkpt><trkpt lat="46.13029058208267" lon="12.635024392719956"><ele>273.0</ele><time>2026-03-30T09:29:23.999Z</time></trkpt><trkpt lat="46.13031173999187" lon="12.634921709689792"><ele>273.0</ele><time>2026-03-30T09:29:25.999Z</time></trkpt><trkpt lat="46.13025570836604" lon="12.634865066906377"><ele>273.0</ele><time>2026-03-30T09:29:28.999Z</time></trkpt><trkpt lat="46.130171687795205" lon="12.634927673609283"><ele>273.0</ele><time>2026-03-30T09:29:30.999Z</time></trkpt><trkpt lat="46.130101854662165" lon="12.634982180299433"><ele>273.0</ele><time>2026-03-30T09:29:32Z</time></trkpt><trkpt lat="46.130020599012234" lon="12.635035667936139"><ele>273.0</ele><time>2026-03-30T09:29:33Z</time></trkpt><trkpt lat="46.129917992170896" lon="12.635105806446694"><ele>272.2</ele><time>2026-03-30T09:29:34Z</time></trkpt><trkpt lat="46.12981481414853" lon="12.63518439030805"><ele>271.4</ele><time>2026-03-30T09:29:35Z</time></trkpt><trkpt lat="46.12971806529979" lon="12.635275674287518"><ele>270.59999999999997</ele><time>2026-03-30T09:29:36Z</time></trkpt><trkpt lat="46.12964082515797" lon="12.63534484281917"><ele>269.8</ele><time>2026-03-30T09:29:37Z</time></trkpt><trkpt lat="46.129579687496765" lon="12.635424786867716"><ele>269.0</ele><time>2026-03-30T09:29:38Z</time></trkpt><trkpt lat="46.12949508200807" lon="12.635500626872702"><ele>268.8</ele><time>2026-03-30T09:29:39Z</time></trkpt><trkpt lat="46.12940979593644" lon="12.635578792458071"><ele>268.59999999999997</ele><time>2026-03-30T09:29:40Z</time></trkpt><trkpt lat="46.1293162299347" lon="12.635678355956838"><ele>268.4</ele><time>2026-03-30T09:29:41Z</time></trkpt><trkpt lat="46.12923989707319" lon="12.635769556014335"><ele>268.2</ele><time>2026-03-30T09:29:42Z</time></trkpt><trkpt lat="46.129152672270216" lon="12.635857778090173"><ele>268.0</ele><time>2026-03-30T09:29:43Z</time></trkpt><trkpt lat="46.12906816992565" lon="12.635961000183167"><ele>267.6</ele><time>2026-03-30T09:29:44Z</time></trkpt><trkpt lat="46.128985960657104" lon="12.636063178207545"><ele>267.20000000000005</ele><time>2026-03-30T09:29:45Z</time></trkpt><trkpt lat="46.128895892773045" lon="12.636136242862706"><ele>266.8</ele><time>2026-03-30T09:29:46Z</time></trkpt><trkpt lat="46.12879176169149" lon="12.636204382349472"><ele>266.40000000000003</ele><time>2026-03-30T09:29:47Z</time></trkpt><trkpt lat="46.1286867230807" lon="12.636291243626411"><ele>266.0</ele><time>2026-03-30T09:29:48Z</time></trkpt><trkpt lat="46.128595685527756" lon="12.636383637192042"><ele>266.0</ele><time>2026-03-30T09:29:49Z</time></trkpt><trkpt lat="46.128521196904174" lon="12.63646874162014"><ele>266.0</ele><time>2026-03-30T09:29:50Z</time></trkpt><trkpt lat="46.128445278429204" lon="12.636539076975142"><ele>266.0</ele><time>2026-03-30T09:29:51Z</time></trkpt><trkpt lat="46.12836715072033" lon="12.636584212283417"><ele>266.0</ele><time>2026-03-30T09:29:52Z</time></trkpt><trkpt lat="46.128303827582634" lon="12.636610137261123"><ele>266.0</ele><time>2026-03-30T09:29:53Z</time></trkpt><trkpt lat="46.12822877454456" lon="12.63657842765379"><ele>266.0</ele><time>2026-03-30T09:29:54Z</time></trkpt><trkpt lat="46.128130786670724" lon="12.636561472367259"><ele>265.83333333333337</ele><time>2026-03-30T09:29:55Z</time></trkpt><trkpt lat="46.128026691682244" lon="12.636574136119156"><ele>265.6666666666667</ele><time>2026-03-30T09:29:56Z</time></trkpt><trkpt lat="46.127931513775955" lon="12.636586128438964"><ele>265.5</ele><time>2026-03-30T09:29:57Z</time></trkpt><trkpt lat="46.12784109102211" lon="12.6365977840547"><ele>265.3333333333333</ele><time>2026-03-30T09:29:58Z</time></trkpt><trkpt lat="46.1277663867671" lon="12.636623835768974"><ele>265.16666666666663</ele><time>2026-03-30T09:29:59Z</time></trkpt><trkpt lat="46.12768970036524" lon="12.636659291088801"><ele>265.0</ele><time>2026-03-30T09:30:00Z</time></trkpt><trkpt lat="46.12759453492258" lon="12.636699757820073"><ele>265.0</ele><time>2026-03-30T09:30:01Z</time></trkpt><trkpt lat="46.12751437779028" lon="12.636748650592427"><ele>265.0</ele><time>2026-03-30T09:30:02Z</time></trkpt><trkpt lat="46.12743478617273" lon="12.636816749900829"><ele>265.0</ele><time>2026-03-30T09:30:03Z</time></trkpt><trkpt lat="46.127353221343284" lon="12.636907752113391"><ele>265.0</ele><time>2026-03-30T09:30:04Z</time></trkpt><trkpt lat="46.12727165196657" lon="12.637012797807383"><ele>265.0</ele><time>2026-03-30T09:30:05Z</time></trkpt><trkpt lat="46.127183615427086" lon="12.637097226328734"><ele>263.75</ele><time>2026-03-30T09:30:06Z</time></trkpt><trkpt lat="46.127081534023816" lon="12.637158267987207"><ele>262.5</ele><time>2026-03-30T09:30:07Z</time></trkpt><trkpt lat="46.126966467198685" lon="12.637214793714291"><ele>261.25</ele><time>2026-03-30T09:30:08Z</time></trkpt><trkpt lat="46.126844593013445" lon="12.63727684027558"><ele>260.0</ele><time>2026-03-30T09:30:09Z</time></trkpt><trkpt lat="46.12672502057457" lon="12.637332070497767"><ele>260.0</ele><time>2026-03-30T09:30:10Z</time></trkpt><trkpt lat="46.12660347903403" lon="12.63738464237172"><ele>260.0</ele><time>2026-03-30T09:30:11Z</time></trkpt><trkpt lat="46.12647750431331" lon="12.637467068740351"><ele>260.0</ele><time>2026-03-30T09:30:12Z</time></trkpt><trkpt lat="46.12633152380227" lon="12.637557327880128"><ele>260.0</ele><time>2026-03-30T09:30:13Z</time></trkpt><trkpt lat="46.12620576700451" lon="12.637634292807675"><ele>259.8</ele><time>2026-03-30T09:30:14Z</time></trkpt><trkpt lat="46.12609825363492" lon="12.637708718309923"><ele>259.6</ele><time>2026-03-30T09:30:15Z</time></trkpt><trkpt lat="46.126004327614574" lon="12.63776929070601"><ele>259.4</ele><time>2026-03-30T09:30:16Z</time></trkpt><trkpt lat="46.125907635979274" lon="12.637826569692287"><ele>259.2</ele><time>2026-03-30T09:30:17Z</time></trkpt><trkpt lat="46.12580302042181" lon="12.63790329120468"><ele>259.0</ele><time>2026-03-30T09:30:18Z</time></trkpt><trkpt lat="46.12569571707084" lon="12.637997679637705"><ele>258.59999999999997</ele><time>2026-03-30T09:30:19Z</time></trkpt><trkpt lat="46.12559050269353" lon="12.638080059610495"><ele>258.2</ele><time>2026-03-30T09:30:20Z</time></trkpt><trkpt lat="46.125489136748456" lon="12.638163817109417"><ele>257.79999999999995</ele><time>2026-03-30T09:30:21Z</time></trkpt><trkpt lat="46.12539106974786" lon="12.63824748087059"><ele>257.4</ele><time>2026-03-30T09:30:22Z</time></trkpt><trkpt lat="46.1253069873065" lon="12.638313177836238"><ele>257.0</ele><time>2026-03-30T09:30:23Z</time></trkpt><trkpt lat="46.125234818286785" lon="12.638378098883383"><ele>257.0</ele><time>2026-03-30T09:30:24Z</time></trkpt><trkpt lat="46.125157880480344" lon="12.638433795792219"><ele>257.0</ele><time>2026-03-30T09:30:25Z</time></trkpt><trkpt lat="46.12507355682841" lon="12.638493246668315"><ele>257.0</ele><time>2026-03-30T09:30:26Z</time></trkpt><trkpt lat="46.12499071586698" lon="12.638564457070563"><ele>257.0</ele><time>2026-03-30T09:30:27Z</time></trkpt><trkpt lat="46.12490463099693" lon="12.638640724903432"><ele>257.0</ele><time>2026-03-30T09:30:28Z</time></trkpt><trkpt lat="46.12483008328981" lon="12.638712494976309"><ele>256.6666666666667</ele><time>2026-03-30T09:30:29Z</time></trkpt><trkpt lat="46.1247584336254" lon="12.638768580322491"><ele>256.33333333333337</ele><time>2026-03-30T09:30:30Z</time></trkpt><trkpt lat="46.1246904249711" lon="12.6388237553126"><ele>256.0</ele><time>2026-03-30T09:30:31Z</time></trkpt><trkpt lat="46.12460681087113" lon="12.638880984518861"><ele>255.66666666666669</ele><time>2026-03-30T09:30:32Z</time></trkpt><trkpt lat="46.124518799881024" lon="12.638940743484868"><ele>255.33333333333334</ele><time>2026-03-30T09:30:33Z</time></trkpt><trkpt lat="46.12444198650734" lon="12.639002528112114"><ele>255.0</ele><time>2026-03-30T09:30:34Z</time></trkpt><trkpt lat="46.124366267601914" lon="12.63906177296156"><ele>255.0</ele><time>2026-03-30T09:30:35Z</time></trkpt><trkpt lat="46.124296917752055" lon="12.639129287257648"><ele>255.0</ele><time>2026-03-30T09:30:36Z</time></trkpt><trkpt lat="46.124210046704235" lon="12.639224642842116"><ele>255.0</ele><time>2026-03-30T09:30:37Z</time></trkpt><trkpt lat="46.12411374568055" lon="12.639324180267627"><ele>255.0</ele><time>2026-03-30T09:30:38Z</time></trkpt><trkpt lat="46.12401387260283" lon="12.63942306057012"><ele>255.0</ele><time>2026-03-30T09:30:39Z</time></trkpt><trkpt lat="46.12392060414024" lon="12.639534323516738"><ele>255.16666666666666</ele><time>2026-03-30T09:30:40Z</time></trkpt><trkpt lat="46.12384354460152" lon="12.639637482094864"><ele>255.33333333333331</ele><time>2026-03-30T09:30:41Z</time></trkpt><trkpt lat="46.123782197098116" lon="12.639722472137557"><ele>255.5</ele><time>2026-03-30T09:30:42Z</time></trkpt><trkpt lat="46.12371110890688" lon="12.63979973820661"><ele>255.66666666666666</ele><time>2026-03-30T09:30:43Z</time></trkpt><trkpt lat="46.12363849391275" lon="12.639898124284887"><ele>255.83333333333331</ele><time>2026-03-30T09:30:45Z</time></trkpt><trkpt lat="46.123584008359494" lon="12.639943974578594"><ele>256.0</ele><time>2026-03-30T09:30:47Z</time></trkpt><trkpt lat="46.123519302935826" lon="12.639973764300406"><ele>255.99999999999997</ele><time>2026-03-30T09:30:49Z</time></trkpt><trkpt lat="46.123475309431164" lon="12.640039682438559"><ele>256.0</ele><time>2026-03-30T09:30:53Z</time></trkpt><trkpt lat="46.12341387838542" lon="12.640138649451625"><ele>256.0</ele><time>2026-03-30T09:30:55Z</time></trkpt><trkpt lat="46.12335740428572" lon="12.640202582992561"><ele>256.0</ele><time>2026-03-30T09:30:56Z</time></trkpt><trkpt lat="46.12329273449846" lon="12.640282781110288"><ele>255.99999999999997</ele><time>2026-03-30T09:30:57Z</time></trkpt><trkpt lat="46.123237762327136" lon="12.640388609811453"><ele>256.0</ele><time>2026-03-30T09:30:58Z</time></trkpt><trkpt lat="46.123174167382" lon="12.640508919080418"><ele>256.25</ele><time>2026-03-30T09:30:59Z</time></trkpt><trkpt lat="46.12311815136797" lon="12.640627881850484"><ele>256.5</ele><time>2026-03-30T09:31:00Z</time></trkpt><trkpt lat="46.12307802095543" lon="12.64077589491807"><ele>256.75</ele><time>2026-03-30T09:31:01Z</time></trkpt><trkpt lat="46.12304482244872" lon="12.640959236414924"><ele>257.0</ele><time>2026-03-30T09:31:02Z</time></trkpt><trkpt lat="46.123011933754576" lon="12.641179203286145"><ele>256.5</ele><time>2026-03-30T09:31:03Z</time></trkpt><trkpt lat="46.12297072868496" lon="12.641399867696201"><ele>256.0</ele><time>2026-03-30T09:31:04Z</time></trkpt><trkpt lat="46.12294177096921" lon="12.641586068886404"><ele>255.5</ele><time>2026-03-30T09:31:05Z</time></trkpt><trkpt lat="46.12290377231859" lon="12.641762798955149"><ele>255.0</ele><time>2026-03-30T09:31:06.001Z</time></trkpt><trkpt lat="46.12283974602322" lon="12.641927543765442"><ele>254.75</ele><time>2026-03-30T09:31:07.001Z</time></trkpt><trkpt lat="46.12276853430572" lon="12.642092766776784"><ele>254.5</ele><time>2026-03-30T09:31:08.001Z</time></trkpt><trkpt lat="46.122720827119686" lon="12.642284292758044"><ele>254.25</ele><time>2026-03-30T09:31:09.001Z</time></trkpt><trkpt lat="46.122677883154644" lon="12.642449896871977"><ele>254.0</ele><time>2026-03-30T09:31:10.001Z</time></trkpt><trkpt lat="46.12261738680539" lon="12.642616096636663"><ele>254.0</ele><time>2026-03-30T09:31:11.001Z</time></trkpt><trkpt lat="46.12256234302833" lon="12.642775181530277"><ele>254.0</ele><time>2026-03-30T09:31:12.001Z</time></trkpt><trkpt lat="46.122510842644445" lon="12.642923197111536"><ele>254.0</ele><time>2026-03-30T09:31:13.001Z</time></trkpt><trkpt lat="46.12244745846472" lon="12.643079732696373"><ele>254.0</ele><time>2026-03-30T09:31:14.001Z</time></trkpt><trkpt lat="46.12237452332748" lon="12.643220224360698"><ele>254.00000000000003</ele><time>2026-03-30T09:31:15.001Z</time></trkpt><trkpt lat="46.122307295671376" lon="12.643324929945996"><ele>254.0</ele><time>2026-03-30T09:31:16.001Z</time></trkpt><trkpt lat="46.122250395127395" lon="12.643402582577142"><ele>254.0</ele><time>2026-03-30T09:31:17.001Z</time></trkpt><trkpt lat="46.122234647434595" lon="12.643511518818936"><ele>254.0</ele><time>2026-03-30T09:31:20.001Z</time></trkpt><trkpt lat="46.1222854438399" lon="12.643572867196061"><ele>254.00000000000003</ele><time>2026-03-30T09:31:21.001Z</time></trkpt><trkpt lat="46.122379451210485" lon="12.64367553132158"><ele>254.0</ele><time>2026-03-30T09:31:22.001Z</time></trkpt><trkpt lat="46.122497824182226" lon="12.643807231193016"><ele>254.0</ele><time>2026-03-30T09:31:23.001Z</time></trkpt><trkpt lat="46.12261862007102" lon="12.643941701759537"><ele>254.0</ele><time>2026-03-30T09:31:24.001Z</time></trkpt><trkpt lat="46.12271724098977" lon="12.644077842784212"><ele>254.0</ele><time>2026-03-30T09:31:25.001Z</time></trkpt><trkpt lat="46.12278840952991" lon="12.64420068627118"><ele>254.0</ele><time>2026-03-30T09:31:26.001Z</time></trkpt><trkpt lat="46.122872218573136" lon="12.644313937517206"><ele>254.0</ele><time>2026-03-30T09:31:27Z</time></trkpt><trkpt lat="46.12297265032256" lon="12.644426127931848"><ele>254.0</ele><time>2026-03-30T09:31:28Z</time></trkpt><trkpt lat="46.123090535062126" lon="12.644564285251011"><ele>254.0</ele><time>2026-03-30T09:31:29Z</time></trkpt><trkpt lat="46.123209867099874" lon="12.644727912627074"><ele>254.0</ele><time>2026-03-30T09:31:30Z</time></trkpt><trkpt lat="46.12331274412881" lon="12.644908038425594"><ele>255.33333333333334</ele><time>2026-03-30T09:31:31Z</time></trkpt><trkpt lat="46.123398745247606" lon="12.645098385623891"><ele>256.6666666666667</ele><time>2026-03-30T09:31:32Z</time></trkpt><trkpt lat="46.123473863530286" lon="12.645298277716835"><ele>258.0</ele><time>2026-03-30T09:31:33Z</time></trkpt><trkpt lat="46.12355716940961" lon="12.64549453762112"><ele>258.0</ele><time>2026-03-30T09:31:34Z</time></trkpt><trkpt lat="46.123653070129336" lon="12.645663468214105"><ele>258.0</ele><time>2026-03-30T09:31:35Z</time></trkpt><trkpt lat="46.12375492029467" lon="12.64580122113612"><ele>258.0</ele><time>2026-03-30T09:31:36Z</time></trkpt><trkpt lat="46.12386373054189" lon="12.645938559346392"><ele>258.0</ele><time>2026-03-30T09:31:37Z</time></trkpt><trkpt lat="46.12396841323535" lon="12.64609121322325"><ele>258.25</ele><time>2026-03-30T09:31:38Z</time></trkpt><trkpt lat="46.12406856345869" lon="12.646252364002718"><ele>258.5</ele><time>2026-03-30T09:31:39Z</time></trkpt><trkpt lat="46.12417989408681" lon="12.646416766987405"><ele>258.75</ele><time>2026-03-30T09:31:40Z</time></trkpt><trkpt lat="46.124275167381214" lon="12.646564815489759"><ele>259.0</ele><time>2026-03-30T09:31:41Z</time></trkpt><trkpt lat="46.124368526099026" lon="12.646719603727606"><ele>259.0</ele><time>2026-03-30T09:31:42Z</time></trkpt><trkpt lat="46.12446636609368" lon="12.64689810786667"><ele>259.0</ele><time>2026-03-30T09:31:43Z</time></trkpt><trkpt lat="46.12457819777768" lon="12.647084442487282"><ele>259.0</ele><time>2026-03-30T09:31:44Z</time></trkpt><trkpt lat="46.1246921116819" lon="12.647289494734427"><ele>259.0</ele><time>2026-03-30T09:31:45Z</time></trkpt><trkpt lat="46.12480007348476" lon="12.647497602247638"><ele>259.0</ele><time>2026-03-30T09:31:46Z</time></trkpt><trkpt lat="46.12490833007082" lon="12.647700370988291"><ele>259.0</ele><time>2026-03-30T09:31:47Z</time></trkpt><trkpt lat="46.124998239730715" lon="12.647891423922728"><ele>260.0</ele><time>2026-03-30T09:31:48Z</time></trkpt><trkpt lat="46.125071304701805" lon="12.648089645641992"><ele>261.0</ele><time>2026-03-30T09:31:49Z</time></trkpt><trkpt lat="46.12514514893586" lon="12.64832110916552"><ele>262.0</ele><time>2026-03-30T09:31:50Z</time></trkpt><trkpt lat="46.12523540149161" lon="12.648554482261453"><ele>261.3333333333333</ele><time>2026-03-30T09:31:51Z</time></trkpt><trkpt lat="46.12533249813991" lon="12.648791178824467"><ele>260.6666666666667</ele><time>2026-03-30T09:31:52Z</time></trkpt><trkpt lat="46.12542828554534" lon="12.649035038206408"><ele>260.0</ele><time>2026-03-30T09:31:53Z</time></trkpt><trkpt lat="46.12550823193592" lon="12.649249993878415"><ele>260.0</ele><time>2026-03-30T09:31:54Z</time></trkpt><trkpt lat="46.12558444133982" lon="12.649446382354212"><ele>260.0</ele><time>2026-03-30T09:31:55Z</time></trkpt><trkpt lat="46.125648038759266" lon="12.649624894558686"><ele>260.0</ele><time>2026-03-30T09:31:56Z</time></trkpt><trkpt lat="46.12570818244908" lon="12.649775172260043"><ele>260.0</ele><time>2026-03-30T09:31:57Z</time></trkpt><trkpt lat="46.125755902247995" lon="12.649891369137528"><ele>260.0</ele><time>2026-03-30T09:31:58Z</time></trkpt><trkpt lat="46.1257951413822" lon="12.64998137182628"><ele>260.0</ele><time>2026-03-30T09:31:59Z</time></trkpt><trkpt lat="46.12585433811918" lon="12.65005138527231"><ele>260.0</ele><time>2026-03-30T09:32:00Z</time></trkpt><trkpt lat="46.125937009293196" lon="12.65011763619384"><ele>260.0</ele><time>2026-03-30T09:32:01Z</time></trkpt><trkpt lat="46.12605923599318" lon="12.650174856856742"><ele>260.0</ele><time>2026-03-30T09:32:02Z</time></trkpt><trkpt lat="46.12619962777249" lon="12.65022487669119"><ele>260.0</ele><time>2026-03-30T09:32:03Z</time></trkpt><trkpt lat="46.12636758130775" lon="12.650290642002807"><ele>260.0</ele><time>2026-03-30T09:32:04Z</time></trkpt><trkpt lat="46.12656432564556" lon="12.650375307620665"><ele>260.0</ele><time>2026-03-30T09:32:05Z</time></trkpt><trkpt lat="46.12675383017343" lon="12.650457323875871"><ele>260.75</ele><time>2026-03-30T09:32:06Z</time></trkpt><trkpt lat="46.126904685321165" lon="12.650529264485222"><ele>261.5</ele><time>2026-03-30T09:32:07Z</time></trkpt><trkpt lat="46.127023743370145" lon="12.65058817407602"><ele>262.25</ele><time>2026-03-30T09:32:08Z</time></trkpt><trkpt lat="46.12712174042286" lon="12.650637712453708"><ele>263.0</ele><time>2026-03-30T09:32:09Z</time></trkpt><trkpt lat="46.12719845767458" lon="12.65065959968364"><ele>263.0</ele><time>2026-03-30T09:32:10Z</time></trkpt><trkpt lat="46.1272839108696" lon="12.65070855613396"><ele>263.0</ele><time>2026-03-30T09:32:12Z</time></trkpt><trkpt lat="46.127159901711615" lon="12.650867312103506"><ele>263.0</ele><time>2026-03-30T09:32:16Z</time></trkpt><trkpt lat="46.12703117681035" lon="12.650978111678816"><ele>263.0</ele><time>2026-03-30T09:32:17Z</time></trkpt><trkpt lat="46.12688836765391" lon="12.651078545140106"><ele>263.0</ele><time>2026-03-30T09:32:18Z</time></trkpt><trkpt lat="46.12677437727041" lon="12.651153459934651"><ele>263.0</ele><time>2026-03-30T09:32:19Z</time></trkpt><trkpt lat="46.126672272851046" lon="12.651221789469636"><ele>263.0</ele><time>2026-03-30T09:32:20Z</time></trkpt><trkpt lat="46.12658644316195" lon="12.651281246700512"><ele>263.0</ele><time>2026-03-30T09:32:21Z</time></trkpt><trkpt lat="46.126521766430834" lon="12.65132574681223"><ele>263.0</ele><time>2026-03-30T09:32:22Z</time></trkpt><trkpt lat="46.12643969533387" lon="12.651373653289475"><ele>263.0</ele><time>2026-03-30T09:32:24Z</time></trkpt><trkpt lat="46.126381234473556" lon="12.651443152754485"><ele>263.0</ele><time>2026-03-30T09:32:27Z</time></trkpt><trkpt lat="46.12656840177035" lon="12.65195954923265"><ele>263.0</ele><time>2026-03-30T09:32:30Z</time></trkpt><trkpt lat="46.12662665017332" lon="12.65208198696263"><ele>263.0</ele><time>2026-03-30T09:32:31Z</time></trkpt><trkpt lat="46.126671006042415" lon="12.652173781526837"><ele>263.0</ele><time>2026-03-30T09:32:32Z</time></trkpt><trkpt lat="46.12671501087335" lon="12.65226086217748"><ele>263.0</ele><time>2026-03-30T09:32:33Z</time></trkpt><trkpt lat="46.12676674887839" lon="12.652354278884225"><ele>263.0</ele><time>2026-03-30T09:32:34Z</time></trkpt><trkpt lat="46.1268258140733" lon="12.652442935865649"><ele>263.0</ele><time>2026-03-30T09:32:35Z</time></trkpt><trkpt lat="46.12688146240288" lon="12.652557333258772"><ele>263.0</ele><time>2026-03-30T09:32:36Z</time></trkpt><trkpt lat="46.1269224596192" lon="12.652694169717455"><ele>263.0</ele><time>2026-03-30T09:32:37Z</time></trkpt><trkpt lat="46.126947059844966" lon="12.65283627861271"><ele>263.0</ele><time>2026-03-30T09:32:38Z</time></trkpt><trkpt lat="46.12698021110131" lon="12.652974276209463"><ele>263.0</ele><time>2026-03-30T09:32:39Z</time></trkpt><trkpt lat="46.1270283917743" lon="12.653113760233156"><ele>263.0</ele><time>2026-03-30T09:32:40Z</time></trkpt><trkpt lat="46.1270776627044" lon="12.653253328240424"><ele>263.2</ele><time>2026-03-30T09:32:41Z</time></trkpt><trkpt lat="46.12712600771007" lon="12.653393400921347"><ele>263.4</ele><time>2026-03-30T09:32:42Z</time></trkpt><trkpt lat="46.12716869593063" lon="12.653513343056353"><ele>263.59999999999997</ele><time>2026-03-30T09:32:43Z</time></trkpt><trkpt lat="46.12720979928453" lon="12.653622162828333"><ele>263.8</ele><time>2026-03-30T09:32:44Z</time></trkpt><trkpt lat="46.12724981706469" lon="12.653727615792967"><ele>264.0</ele><time>2026-03-30T09:32:45Z</time></trkpt><trkpt lat="46.12729625674554" lon="12.653839859160426"><ele>264.0</ele><time>2026-03-30T09:32:46.001Z</time></trkpt><trkpt lat="46.12734557789057" lon="12.653946951572493"><ele>264.0</ele><time>2026-03-30T09:32:47.001Z</time></trkpt><trkpt lat="46.127393674873524" lon="12.65405410027387"><ele>264.0</ele><time>2026-03-30T09:32:48.001Z</time></trkpt><trkpt lat="46.127434881726785" lon="12.654169108509768"><ele>264.0</ele><time>2026-03-30T09:32:49.001Z</time></trkpt><trkpt lat="46.127461825937154" lon="12.654272880919066"><ele>264.0</ele><time>2026-03-30T09:32:50.001Z</time></trkpt><trkpt lat="46.12747438737276" lon="12.654374667567602"><ele>264.0</ele><time>2026-03-30T09:32:51.001Z</time></trkpt><trkpt lat="46.12744639837683" lon="12.654497033399059"><ele>264.0</ele><time>2026-03-30T09:32:52.001Z</time></trkpt><trkpt lat="46.12740453247812" lon="12.654627576106307"><ele>264.0</ele><time>2026-03-30T09:32:53.001Z</time></trkpt><trkpt lat="46.12735751146253" lon="12.654761096680136"><ele>264.0</ele><time>2026-03-30T09:32:54.001Z</time></trkpt><trkpt lat="46.12730354439932" lon="12.654926600115335"><ele>264.0</ele><time>2026-03-30T09:32:55.001Z</time></trkpt><trkpt lat="46.127248669120235" lon="12.655099208283593"><ele>264.0</ele><time>2026-03-30T09:32:56.001Z</time></trkpt><trkpt lat="46.12719347249582" lon="12.655280689917996"><ele>264.0</ele><time>2026-03-30T09:32:57.001Z</time></trkpt><trkpt lat="46.127136960250546" lon="12.655466456589526"><ele>264.0</ele><time>2026-03-30T09:32:58.001Z</time></trkpt><trkpt lat="46.12708609472561" lon="12.655626273750462"><ele>264.0</ele><time>2026-03-30T09:32:59.001Z</time></trkpt><trkpt lat="46.1270369703773" lon="12.655777188587905"><ele>264.5</ele><time>2026-03-30T09:33:00.001Z</time></trkpt><trkpt lat="46.12699473259541" lon="12.655922887613476"><ele>265.0</ele><time>2026-03-30T09:33:01.001Z</time></trkpt><trkpt lat="46.12694995929976" lon="12.656089274076331"><ele>265.5</ele><time>2026-03-30T09:33:02.001Z</time></trkpt><trkpt lat="46.126881731589" lon="12.656242510089612"><ele>266.0</ele><time>2026-03-30T09:33:03.001Z</time></trkpt><trkpt lat="46.126797239888035" lon="12.656418673030698"><ele>266.0</ele><time>2026-03-30T09:33:04.001Z</time></trkpt><trkpt lat="46.12671447812743" lon="12.656583036837532"><ele>266.0</ele><time>2026-03-30T09:33:05.001Z</time></trkpt><trkpt lat="46.12664455658439" lon="12.656751717152453"><ele>266.0</ele><time>2026-03-30T09:33:06.001Z</time></trkpt><trkpt lat="46.12658883375496" lon="12.656942613064173"><ele>266.0</ele><time>2026-03-30T09:33:07.001Z</time></trkpt><trkpt lat="46.12655612174489" lon="12.657116847800655"><ele>265.8</ele><time>2026-03-30T09:33:08.001Z</time></trkpt><trkpt lat="46.12652962911304" lon="12.657256100327514"><ele>265.6</ele><time>2026-03-30T09:33:09.001Z</time></trkpt><trkpt lat="46.12650368835607" lon="12.657381738571393"><ele>265.4</ele><time>2026-03-30T09:33:10.001Z</time></trkpt><trkpt lat="46.126485216657414" lon="12.657475165262968"><ele>265.2</ele><time>2026-03-30T09:33:11.001Z</time></trkpt><trkpt lat="46.12650137716372" lon="12.657646763750517"><ele>265.0</ele><time>2026-03-30T09:33:13.001Z</time></trkpt><trkpt lat="46.12644145579426" lon="12.657783743240563"><ele>265.0</ele><time>2026-03-30T09:33:22.001Z</time></trkpt><trkpt lat="46.12639091214965" lon="12.657914633378887"><ele>265.0</ele><time>2026-03-30T09:33:23.001Z</time></trkpt><trkpt lat="46.12633547896276" lon="12.658050770630467"><ele>265.0</ele><time>2026-03-30T09:33:24.001Z</time></trkpt><trkpt lat="46.1262837140478" lon="12.658229735114462"><ele>265.0</ele><time>2026-03-30T09:33:25.001Z</time></trkpt><trkpt lat="46.12623009914359" lon="12.658406405011085"><ele>265.0</ele><time>2026-03-30T09:33:26.001Z</time></trkpt><trkpt lat="46.126177712647205" lon="12.658560532523339"><ele>265.0</ele><time>2026-03-30T09:33:27.001Z</time></trkpt><trkpt lat="46.1261399241738" lon="12.658718644610357"><ele>265.0</ele><time>2026-03-30T09:33:28.001Z</time></trkpt><trkpt lat="46.12610650575678" lon="12.658888786788676"><ele>265.0</ele><time>2026-03-30T09:33:29.001Z</time></trkpt><trkpt lat="46.12608208534973" lon="12.659096784745707"><ele>265.0</ele><time>2026-03-30T09:33:30.001Z</time></trkpt><trkpt lat="46.126082882180086" lon="12.659318958272262"><ele>265.0</ele><time>2026-03-30T09:33:31.001Z</time></trkpt><trkpt lat="46.126032826345416" lon="12.659515444825647"><ele>265.0</ele><time>2026-03-30T09:33:32.001Z</time></trkpt><trkpt lat="46.12600443572667" lon="12.659689738990606"><ele>265.0</ele><time>2026-03-30T09:33:33Z</time></trkpt><trkpt lat="46.12596384499087" lon="12.659840764278595"><ele>264.8333333333333</ele><time>2026-03-30T09:33:34Z</time></trkpt><trkpt lat="46.12594629464311" lon="12.659971943605868"><ele>264.66666666666663</ele><time>2026-03-30T09:33:35Z</time></trkpt><trkpt lat="46.12590812698608" lon="12.660080094655056"><ele>264.5</ele><time>2026-03-30T09:33:36Z</time></trkpt><trkpt lat="46.1259098446337" lon="12.660227390150144"><ele>264.3333333333333</ele><time>2026-03-30T09:33:38Z</time></trkpt><trkpt lat="46.12595960321358" lon="12.660297710434643"><ele>264.1666666666667</ele><time>2026-03-30T09:33:39Z</time></trkpt><trkpt lat="46.12605160498927" lon="12.660285245102452"><ele>264.0</ele><time>2026-03-30T09:33:40Z</time></trkpt><trkpt lat="46.1261318939845" lon="12.660270277806674"><ele>264.0</ele><time>2026-03-30T09:33:41Z</time></trkpt><trkpt lat="46.12624312057313" lon="12.660252271984357"><ele>264.0</ele><time>2026-03-30T09:33:42Z</time></trkpt><trkpt lat="46.12636927405472" lon="12.660240917478825"><ele>264.0</ele><time>2026-03-30T09:33:43Z</time></trkpt><trkpt lat="46.1265257227505" lon="12.660258835876757"><ele>264.0</ele><time>2026-03-30T09:33:44Z</time></trkpt><trkpt lat="46.12671164401558" lon="12.660234173177102"><ele>264.3333333333333</ele><time>2026-03-30T09:33:45Z</time></trkpt><trkpt lat="46.12690756198392" lon="12.660234222097857"><ele>264.66666666666663</ele><time>2026-03-30T09:33:46Z</time></trkpt><trkpt lat="46.12709012415551" lon="12.660233935767403"><ele>265.0</ele><time>2026-03-30T09:33:47Z</time></trkpt><trkpt lat="46.127248141716876" lon="12.66022716132523"><ele>265.0</ele><time>2026-03-30T09:33:48Z</time></trkpt><trkpt lat="46.12738569736521" lon="12.660199610689393"><ele>265.0</ele><time>2026-03-30T09:33:49Z</time></trkpt><trkpt lat="46.12751910251484" lon="12.66019456620263"><ele>265.0</ele><time>2026-03-30T09:33:50Z</time></trkpt><trkpt lat="46.127661332261994" lon="12.66018076142148"><ele>265.0</ele><time>2026-03-30T09:33:51Z</time></trkpt><trkpt lat="46.12781049589652" lon="12.660155520562494"><ele>265.66666666666663</ele><time>2026-03-30T09:33:52Z</time></trkpt><trkpt lat="46.127978669972414" lon="12.660149516173394"><ele>266.3333333333333</ele><time>2026-03-30T09:33:53Z</time></trkpt><trkpt lat="46.12816074224367" lon="12.660110950157117"><ele>267.0</ele><time>2026-03-30T09:33:54Z</time></trkpt><trkpt lat="46.12836078129126" lon="12.660086461986472"><ele>267.3333333333333</ele><time>2026-03-30T09:33:55Z</time></trkpt><trkpt lat="46.128539912975434" lon="12.660072639308316"><ele>267.66666666666663</ele><time>2026-03-30T09:33:56Z</time></trkpt><trkpt lat="46.12871864664973" lon="12.660051125889481"><ele>268.0</ele><time>2026-03-30T09:33:57Z</time></trkpt><trkpt lat="46.12889038370847" lon="12.66002993335391"><ele>268.0</ele><time>2026-03-30T09:33:58Z</time></trkpt><trkpt lat="46.12903970186149" lon="12.660013329808475"><ele>268.0</ele><time>2026-03-30T09:33:59Z</time></trkpt><trkpt lat="46.12917169714652" lon="12.659998349663281"><ele>268.0</ele><time>2026-03-30T09:34:00Z</time></trkpt><trkpt lat="46.12928950751382" lon="12.659983801684525"><ele>268.0</ele><time>2026-03-30T09:34:01Z</time></trkpt><trkpt lat="46.12939439314248" lon="12.659960316429535"><ele>268.2</ele><time>2026-03-30T09:34:02Z</time></trkpt><trkpt lat="46.12949137878605" lon="12.659950495631495"><ele>268.4</ele><time>2026-03-30T09:34:03Z</time></trkpt><trkpt lat="46.129587408404355" lon="12.659936693104187"><ele>268.59999999999997</ele><time>2026-03-30T09:34:04Z</time></trkpt><trkpt lat="46.12969447227623" lon="12.659919459215098"><ele>268.8</ele><time>2026-03-30T09:34:05Z</time></trkpt><trkpt lat="46.12980055206135" lon="12.659885388420381"><ele>269.0</ele><time>2026-03-30T09:34:06Z</time></trkpt><trkpt lat="46.12989663865762" lon="12.659827104868013"><ele>270.0</ele><time>2026-03-30T09:34:07Z</time></trkpt><trkpt lat="46.129996628975285" lon="12.659727791003439"><ele>271.0</ele><time>2026-03-30T09:34:08Z</time></trkpt><trkpt lat="46.1301052952364" lon="12.659581158109171"><ele>272.0</ele><time>2026-03-30T09:34:09Z</time></trkpt><trkpt lat="46.130215908460094" lon="12.659507300022883"><ele>273.0</ele><time>2026-03-30T09:34:10Z</time></trkpt><trkpt lat="46.13032042349056" lon="12.659444403989243"><ele>273.0</ele><time>2026-03-30T09:34:11Z</time></trkpt><trkpt lat="46.130442305410064" lon="12.65937607883287"><ele>273.0</ele><time>2026-03-30T09:34:12Z</time></trkpt><trkpt lat="46.1305788589862" lon="12.659307583263278"><ele>273.0</ele><time>2026-03-30T09:34:13Z</time></trkpt><trkpt lat="46.13070183158886" lon="12.659261540905522"><ele>273.0</ele><time>2026-03-30T09:34:14Z</time></trkpt><trkpt lat="46.130804420452385" lon="12.65923945174074"><ele>273.2</ele><time>2026-03-30T09:34:15Z</time></trkpt><trkpt lat="46.13089128117285" lon="12.659240639344231"><ele>273.4</ele><time>2026-03-30T09:34:16Z</time></trkpt><trkpt lat="46.1309696064359" lon="12.659283218603148"><ele>273.59999999999997</ele><time>2026-03-30T09:34:17Z</time></trkpt><trkpt lat="46.13106685553587" lon="12.659367226795784"><ele>273.8</ele><time>2026-03-30T09:34:18Z</time></trkpt><trkpt lat="46.13119911256602" lon="12.65945920894836"><ele>274.0</ele><time>2026-03-30T09:34:19Z</time></trkpt><trkpt lat="46.13134307825981" lon="12.659570212677222"><ele>274.0</ele><time>2026-03-30T09:34:20Z</time></trkpt><trkpt lat="46.13151778309893" lon="12.659684767735612"><ele>274.0</ele><time>2026-03-30T09:34:21Z</time></trkpt><trkpt lat="46.13170769939823" lon="12.659829438110714"><ele>274.0</ele><time>2026-03-30T09:34:22Z</time></trkpt><trkpt lat="46.13190282653587" lon="12.659983507458772"><ele>274.3333333333333</ele><time>2026-03-30T09:34:23Z</time></trkpt><trkpt lat="46.13206040209473" lon="12.66012398807589"><ele>274.6666666666667</ele><time>2026-03-30T09:34:24Z</time></trkpt><trkpt lat="46.13219528899555" lon="12.660228720166277"><ele>275.0</ele><time>2026-03-30T09:34:25Z</time></trkpt><trkpt lat="46.132302758723796" lon="12.660298150240493"><ele>275.0</ele><time>2026-03-30T09:34:26Z</time></trkpt><trkpt lat="46.13237935474902" lon="12.66037759038211"><ele>275.0</ele><time>2026-03-30T09:34:27Z</time></trkpt><trkpt lat="46.13244112308901" lon="12.660450392639993"><ele>275.0</ele><time>2026-03-30T09:34:28Z</time></trkpt><trkpt lat="46.13250528977105" lon="12.660491210854024"><ele>275.0</ele><time>2026-03-30T09:34:29Z</time></trkpt><trkpt lat="46.132592537300155" lon="12.660544355984968"><ele>275.0</ele><time>2026-03-30T09:34:31Z</time></trkpt><trkpt lat="46.13270871355176" lon="12.66060280907231"><ele>275.1666666666667</ele><time>2026-03-30T09:34:33Z</time></trkpt><trkpt lat="46.13276968500561" lon="12.660646338580431"><ele>275.33333333333337</ele><time>2026-03-30T09:34:34Z</time></trkpt><trkpt lat="46.13281908134405" lon="12.660705470849313"><ele>275.5</ele><time>2026-03-30T09:34:35Z</time></trkpt><trkpt lat="46.13287390038767" lon="12.660752798054355"><ele>275.6666666666667</ele><time>2026-03-30T09:34:38Z</time></trkpt><trkpt lat="46.132757251011235" lon="12.660775829159606"><ele>275.8333333333333</ele><time>2026-03-30T09:34:41Z</time></trkpt><trkpt lat="46.132713009271534" lon="12.660705223689163"><ele>276.0</ele><time>2026-03-30T09:34:42.001Z</time></trkpt><trkpt lat="46.13263711883669" lon="12.660554056892904"><ele>276.0</ele><time>2026-03-30T09:34:44.001Z</time></trkpt><trkpt lat="46.13256744485797" lon="12.660501424115742"><ele>276.0</ele><time>2026-03-30T09:34:45.001Z</time></trkpt><trkpt lat="46.132477685435155" lon="12.660454828791325"><ele>276.0</ele><time>2026-03-30T09:34:46.001Z</time></trkpt><trkpt lat="46.13241557071696" lon="12.660425339603657"><ele>276.0</ele><time>2026-03-30T09:34:47.001Z</time></trkpt><trkpt lat="46.132338608113415" lon="12.660444899534442"><ele>276.0</ele><time>2026-03-30T09:34:49.001Z</time></trkpt><trkpt lat="46.13234118156219" lon="12.660545692576234"><ele>276.0</ele><time>2026-03-30T09:34:51.001Z</time></trkpt><trkpt lat="46.132373756559886" lon="12.660705176821436"><ele>276.0</ele><time>2026-03-30T09:34:52.001Z</time></trkpt><trkpt lat="46.13240909363834" lon="12.660908524454207"><ele>276.0</ele><time>2026-03-30T09:34:53.001Z</time></trkpt><trkpt lat="46.13243970842291" lon="12.66114802441144"><ele>276.0</ele><time>2026-03-30T09:34:54.001Z</time></trkpt><trkpt lat="46.132469780810965" lon="12.661365531437042"><ele>276.0</ele><time>2026-03-30T09:34:55.001Z</time></trkpt><trkpt lat="46.132501659851734" lon="12.661557252701241"><ele>276.0</ele><time>2026-03-30T09:34:56.001Z</time></trkpt><trkpt lat="46.132524028792496" lon="12.661730883083521"><ele>276.0</ele><time>2026-03-30T09:34:57.001Z</time></trkpt><trkpt lat="46.132541484300745" lon="12.661916282054161"><ele>276.0</ele><time>2026-03-30T09:34:58.001Z</time></trkpt><trkpt lat="46.132559117678" lon="12.662102903567757"><ele>276.25</ele><time>2026-03-30T09:34:59.001Z</time></trkpt><trkpt lat="46.132577374222485" lon="12.662302094155415"><ele>276.5</ele><time>2026-03-30T09:35:00.001Z</time></trkpt><trkpt lat="46.13259146049979" lon="12.66251407507264"><ele>276.75</ele><time>2026-03-30T09:35:01.001Z</time></trkpt><trkpt lat="46.13259988108654" lon="12.662739893442811"><ele>277.0</ele><time>2026-03-30T09:35:02.001Z</time></trkpt><trkpt lat="46.132603723528376" lon="12.66296348500815"><ele>277.0</ele><time>2026-03-30T09:35:03.001Z</time></trkpt><trkpt lat="46.13262118781215" lon="12.663186940511743"><ele>277.0</ele><time>2026-03-30T09:35:04.001Z</time></trkpt><trkpt lat="46.13263954267646" lon="12.663416066321656"><ele>277.0</ele><time>2026-03-30T09:35:05.001Z</time></trkpt><trkpt lat="46.1326593102603" lon="12.66364022500901"><ele>277.0</ele><time>2026-03-30T09:35:06.001Z</time></trkpt><trkpt lat="46.13267976228798" lon="12.663858179473282"><ele>277.0</ele><time>2026-03-30T09:35:07.001Z</time></trkpt><trkpt lat="46.13269617821855" lon="12.664059091160537"><ele>277.0</ele><time>2026-03-30T09:35:08.001Z</time></trkpt><trkpt lat="46.13271817653413" lon="12.664264527124487"><ele>277.0</ele><time>2026-03-30T09:35:09.001Z</time></trkpt><trkpt lat="46.13273649220113" lon="12.664447564222288"><ele>277.0</ele><time>2026-03-30T09:35:10.001Z</time></trkpt><trkpt lat="46.13275384871943" lon="12.664602557327123"><ele>277.0</ele><time>2026-03-30T09:35:11.001Z</time></trkpt><trkpt lat="46.132771596915596" lon="12.664746172559369"><ele>277.0</ele><time>2026-03-30T09:35:12.001Z</time></trkpt><trkpt lat="46.132788304675444" lon="12.664892644801585"><ele>277.0</ele><time>2026-03-30T09:35:13.001Z</time></trkpt><trkpt lat="46.13280461319962" lon="12.665006045924203"><ele>277.0</ele><time>2026-03-30T09:35:14.001Z</time></trkpt><trkpt lat="46.13285493435502" lon="12.665081955185236"><ele>277.0</ele><time>2026-03-30T09:35:16.001Z</time></trkpt><trkpt lat="46.13293985209679" lon="12.665116790523365"><ele>277.0</ele><time>2026-03-30T09:35:18.001Z</time></trkpt><trkpt lat="46.13298309357838" lon="12.66519081265401"><ele>277.0</ele><time>2026-03-30T09:35:19.001Z</time></trkpt><trkpt lat="46.133004967008766" lon="12.665287282463956"><ele>277.0</ele><time>2026-03-30T09:35:20.001Z</time></trkpt><trkpt lat="46.1330061873456" lon="12.665393439247948"><ele>277.0</ele><time>2026-03-30T09:35:21.001Z</time></trkpt><trkpt lat="46.1329678125264" lon="12.6655202727572"><ele>277.0</ele><time>2026-03-30T09:35:22.001Z</time></trkpt><trkpt lat="46.132973071945095" lon="12.665666712924013"><ele>277.25</ele><time>2026-03-30T09:35:23.001Z</time></trkpt><trkpt lat="46.13299221824585" lon="12.665833647464675"><ele>277.5</ele><time>2026-03-30T09:35:24.001Z</time></trkpt><trkpt lat="46.13299290790082" lon="12.666010581535781"><ele>277.75</ele><time>2026-03-30T09:35:25.001Z</time></trkpt><trkpt lat="46.13299769884595" lon="12.66619626200994"><ele>278.0</ele><time>2026-03-30T09:35:26.001Z</time></trkpt><trkpt lat="46.132996552541684" lon="12.666387949103468"><ele>278.0</ele><time>2026-03-30T09:35:27.001Z</time></trkpt><trkpt lat="46.132997170416466" lon="12.666591058228423"><ele>278.0</ele><time>2026-03-30T09:35:28.001Z</time></trkpt><trkpt lat="46.13299331369991" lon="12.66679973634199"><ele>278.0</ele><time>2026-03-30T09:35:29.001Z</time></trkpt><trkpt lat="46.13300185904984" lon="12.667018510798124"><ele>278.0</ele><time>2026-03-30T09:35:30.001Z</time></trkpt><trkpt lat="46.133010909753935" lon="12.667234332228414"><ele>277.6666666666667</ele><time>2026-03-30T09:35:31.001Z</time></trkpt><trkpt lat="46.13304185282503" lon="12.667454305424549"><ele>277.3333333333333</ele><time>2026-03-30T09:35:32.001Z</time></trkpt><trkpt lat="46.13305124531718" lon="12.667676825026694"><ele>277.0</ele><time>2026-03-30T09:35:33.001Z</time></trkpt><trkpt lat="46.133094610979576" lon="12.667897690184516"><ele>276.3333333333333</ele><time>2026-03-30T09:35:34.001Z</time></trkpt><trkpt lat="46.13312189249723" lon="12.668119699246486"><ele>275.6666666666667</ele><time>2026-03-30T09:35:35.001Z</time></trkpt><trkpt lat="46.133148625260205" lon="12.668335712661062"><ele>275.0</ele><time>2026-03-30T09:35:36.001Z</time></trkpt><trkpt lat="46.13317039874463" lon="12.66854192135012"><ele>275.25</ele><time>2026-03-30T09:35:37.001Z</time></trkpt><trkpt lat="46.13319398699496" lon="12.668737612017654"><ele>275.5</ele><time>2026-03-30T09:35:38.001Z</time></trkpt><trkpt lat="46.13322175268715" lon="12.668931892092427"><ele>275.75</ele><time>2026-03-30T09:35:39Z</time></trkpt><trkpt lat="46.133254782607175" lon="12.6691268116314"><ele>276.0</ele><time>2026-03-30T09:35:40Z</time></trkpt><trkpt lat="46.13327269551743" lon="12.669326124317095"><ele>276.75</ele><time>2026-03-30T09:35:41Z</time></trkpt><trkpt lat="46.133322319443025" lon="12.669516425913306"><ele>277.5</ele><time>2026-03-30T09:35:42Z</time></trkpt><trkpt lat="46.13335822571145" lon="12.66971517048651"><ele>278.25</ele><time>2026-03-30T09:35:43Z</time></trkpt><trkpt lat="46.13339423436086" lon="12.669914531341519"><ele>279.0</ele><time>2026-03-30T09:35:44Z</time></trkpt><trkpt lat="46.13343043100034" lon="12.670114212165075"><ele>279.0</ele><time>2026-03-30T09:35:45Z</time></trkpt><trkpt lat="46.13346843239062" lon="12.670317496004015"><ele>279.0</ele><time>2026-03-30T09:35:46Z</time></trkpt><trkpt lat="46.13350682503544" lon="12.670519362082118"><ele>279.0</ele><time>2026-03-30T09:35:47Z</time></trkpt><trkpt lat="46.133542269148556" lon="12.670721716546131"><ele>279.0</ele><time>2026-03-30T09:35:48Z</time></trkpt><trkpt lat="46.133574489238924" lon="12.67092323671062"><ele>278.75</ele><time>2026-03-30T09:35:49Z</time></trkpt><trkpt lat="46.13361472996472" lon="12.67111999282965"><ele>278.5</ele><time>2026-03-30T09:35:50Z</time></trkpt><trkpt lat="46.133661213277136" lon="12.671310751514431"><ele>278.25</ele><time>2026-03-30T09:35:51Z</time></trkpt><trkpt lat="46.13370728583215" lon="12.67149691558753"><ele>278.0</ele><time>2026-03-30T09:35:52Z</time></trkpt><trkpt lat="46.133760409820766" lon="12.671677529493197"><ele>278.0</ele><time>2026-03-30T09:35:53Z</time></trkpt><trkpt lat="46.13381344888485" lon="12.671855241899827"><ele>278.0</ele><time>2026-03-30T09:35:54Z</time></trkpt><trkpt lat="46.13386364480112" lon="12.672031202436182"><ele>278.0</ele><time>2026-03-30T09:35:55Z</time></trkpt><trkpt lat="46.1339150815621" lon="12.672207501341758"><ele>278.0</ele><time>2026-03-30T09:35:56Z</time></trkpt><trkpt lat="46.13396946832109" lon="12.672382969710197"><ele>277.75</ele><time>2026-03-30T09:35:57Z</time></trkpt><trkpt lat="46.134025952264004" lon="12.672570526564845"><ele>277.5</ele><time>2026-03-30T09:35:58Z</time></trkpt><trkpt lat="46.134073421264354" lon="12.672736503881652"><ele>277.25</ele><time>2026-03-30T09:35:59Z</time></trkpt><trkpt lat="46.13411832750996" lon="12.672901376691462"><ele>277.0</ele><time>2026-03-30T09:36:00Z</time></trkpt><trkpt lat="46.13416120206816" lon="12.673065777895772"><ele>277.5</ele><time>2026-03-30T09:36:01Z</time></trkpt><trkpt lat="46.13419918344514" lon="12.673231078707612"><ele>278.0</ele><time>2026-03-30T09:36:02Z</time></trkpt><trkpt lat="46.13424006693891" lon="12.673394441005145"><ele>278.5</ele><time>2026-03-30T09:36:03Z</time></trkpt><trkpt lat="46.134281186258725" lon="12.673555744364815"><ele>279.0</ele><time>2026-03-30T09:36:04Z</time></trkpt><trkpt lat="46.134323155015885" lon="12.67371970145838"><ele>279.0</ele><time>2026-03-30T09:36:05Z</time></trkpt><trkpt lat="46.134366832433564" lon="12.67388311668733"><ele>279.0</ele><time>2026-03-30T09:36:06Z</time></trkpt><trkpt lat="46.134413796697444" lon="12.674048477873667"><ele>279.0</ele><time>2026-03-30T09:36:07Z</time></trkpt><trkpt lat="46.13446380196395" lon="12.674214495944225"><ele>279.0</ele><time>2026-03-30T09:36:08Z</time></trkpt><trkpt lat="46.13451717244955" lon="12.674383074910276"><ele>278.75</ele><time>2026-03-30T09:36:09Z</time></trkpt><trkpt lat="46.13456905226565" lon="12.674549217870275"><ele>278.5</ele><time>2026-03-30T09:36:10Z</time></trkpt><trkpt lat="46.134625683580005" lon="12.674716175829195"><ele>278.25</ele><time>2026-03-30T09:36:11Z</time></trkpt><trkpt lat="46.134685060360255" lon="12.674881982558775"><ele>278.0</ele><time>2026-03-30T09:36:12Z</time></trkpt><trkpt lat="46.13474535943943" lon="12.675049112707498"><ele>278.0</ele><time>2026-03-30T09:36:13Z</time></trkpt><trkpt lat="46.134807996919434" lon="12.675223968378265"><ele>278.0</ele><time>2026-03-30T09:36:14Z</time></trkpt><trkpt lat="46.13487308324804" lon="12.675403096606722"><ele>278.0</ele><time>2026-03-30T09:36:15Z</time></trkpt><trkpt lat="46.13493579313388" lon="12.675587728392626"><ele>278.0</ele><time>2026-03-30T09:36:16Z</time></trkpt><trkpt lat="46.13499645138087" lon="12.675773769172576"><ele>278.5</ele><time>2026-03-30T09:36:17Z</time></trkpt><trkpt lat="46.13505769228184" lon="12.675956909275119"><ele>279.0</ele><time>2026-03-30T09:36:18Z</time></trkpt><trkpt lat="46.135118618995726" lon="12.676137860224651"><ele>279.5</ele><time>2026-03-30T09:36:19Z</time></trkpt><trkpt lat="46.13518050888452" lon="12.676313642975456"><ele>280.0</ele><time>2026-03-30T09:36:20Z</time></trkpt><trkpt lat="46.13524123275509" lon="12.676487720402024"><ele>280.0</ele><time>2026-03-30T09:36:21Z</time></trkpt><trkpt lat="46.135300132225964" lon="12.676656632582922"><ele>280.0</ele><time>2026-03-30T09:36:22Z</time></trkpt><trkpt lat="46.13535619390524" lon="12.676823548583188"><ele>280.0</ele><time>2026-03-30T09:36:23Z</time></trkpt><trkpt lat="46.13541185624927" lon="12.676988695390959"><ele>280.0</ele><time>2026-03-30T09:36:24Z</time></trkpt><trkpt lat="46.13546679239103" lon="12.677148885152693"><ele>280.0</ele><time>2026-03-30T09:36:25Z</time></trkpt><trkpt lat="46.13552383477661" lon="12.677304424113956"><ele>280.0</ele><time>2026-03-30T09:36:26Z</time></trkpt><trkpt lat="46.1355835012683" lon="12.677458738817899"><ele>280.0</ele><time>2026-03-30T09:36:27Z</time></trkpt><trkpt lat="46.13563881779369" lon="12.677615723975405"><ele>280.0</ele><time>2026-03-30T09:36:28Z</time></trkpt><trkpt lat="46.13569074554463" lon="12.677769061784675"><ele>280.0</ele><time>2026-03-30T09:36:29Z</time></trkpt><trkpt lat="46.13573887400331" lon="12.677912188097647"><ele>280.0</ele><time>2026-03-30T09:36:30Z</time></trkpt><trkpt lat="46.13578483152253" lon="12.678046349774485"><ele>280.0</ele><time>2026-03-30T09:36:31Z</time></trkpt><trkpt lat="46.135827394386496" lon="12.678177231498731"><ele>280.0</ele><time>2026-03-30T09:36:32Z</time></trkpt><trkpt lat="46.13586824632991" lon="12.678305578157099"><ele>280.0</ele><time>2026-03-30T09:36:33Z</time></trkpt><trkpt lat="46.135907558427405" lon="12.678432675160217"><ele>280.0</ele><time>2026-03-30T09:36:34Z</time></trkpt><trkpt lat="46.13594612527961" lon="12.67855936180654"><ele>280.0</ele><time>2026-03-30T09:36:35Z</time></trkpt><trkpt lat="46.1359875329975" lon="12.678681372996738"><ele>280.0</ele><time>2026-03-30T09:36:36Z</time></trkpt><trkpt lat="46.13602475352509" lon="12.678793856631776"><ele>280.0</ele><time>2026-03-30T09:36:37Z</time></trkpt><trkpt lat="46.1360522668265" lon="12.678880845186804"><ele>280.0</ele><time>2026-03-30T09:36:38Z</time></trkpt><trkpt lat="46.136077166807915" lon="12.678995692366877"><ele>280.0</ele><time>2026-03-30T09:36:41Z</time></trkpt><trkpt lat="46.13610594239801" lon="12.6791730387225"><ele>280.2</ele><time>2026-03-30T09:36:43Z</time></trkpt><trkpt lat="46.13611940689303" lon="12.679303245035156"><ele>280.4</ele><time>2026-03-30T09:36:44Z</time></trkpt><trkpt lat="46.13612346781906" lon="12.679450383226964"><ele>280.6</ele><time>2026-03-30T09:36:45Z</time></trkpt><trkpt lat="46.13612153053407" lon="12.67958836801189"><ele>280.8</ele><time>2026-03-30T09:36:46Z</time></trkpt><trkpt lat="46.13610264849134" lon="12.679712791228276"><ele>281.0</ele><time>2026-03-30T09:36:47.001Z</time></trkpt><trkpt lat="46.13606860454874" lon="12.679822179001393"><ele>280.2</ele><time>2026-03-30T09:36:48.001Z</time></trkpt><trkpt lat="46.136019753536594" lon="12.679912841213037"><ele>279.40000000000003</ele><time>2026-03-30T09:36:49.001Z</time></trkpt><trkpt lat="46.13595087927226" lon="12.680003840011505"><ele>278.6</ele><time>2026-03-30T09:36:50.001Z</time></trkpt><trkpt lat="46.13583468113844" lon="12.680083986435355"><ele>277.8</ele><time>2026-03-30T09:36:51.001Z</time></trkpt><trkpt lat="46.13572844174922" lon="12.680188874306156"><ele>277.0</ele><time>2026-03-30T09:36:52.001Z</time></trkpt><trkpt lat="46.13564083372666" lon="12.680307516585776"><ele>275.6</ele><time>2026-03-30T09:36:53.001Z</time></trkpt><trkpt lat="46.135544912667974" lon="12.680397325277582"><ele>274.2</ele><time>2026-03-30T09:36:54.001Z</time></trkpt><trkpt lat="46.13545740515326" lon="12.680486705807013"><ele>272.8</ele><time>2026-03-30T09:36:55.001Z</time></trkpt><trkpt lat="46.13537044773488" lon="12.680578076590727"><ele>271.4</ele><time>2026-03-30T09:36:56.001Z</time></trkpt><trkpt lat="46.13527814990293" lon="12.680670340390465"><ele>270.0</ele><time>2026-03-30T09:36:57.001Z</time></trkpt><trkpt lat="46.13517497422997" lon="12.680763455451459"><ele>270.0</ele><time>2026-03-30T09:36:58.001Z</time></trkpt><trkpt lat="46.13506558986461" lon="12.680853320272565"><ele>270.0</ele><time>2026-03-30T09:36:59.001Z</time></trkpt><trkpt lat="46.134951108541046" lon="12.680941559704873"><ele>270.0</ele><time>2026-03-30T09:37:00.001Z</time></trkpt><trkpt lat="46.1348340182091" lon="12.681031667782403"><ele>270.0</ele><time>2026-03-30T09:37:01.001Z</time></trkpt><trkpt lat="46.134717646904974" lon="12.681119976577603"><ele>266.6666666666667</ele><time>2026-03-30T09:37:02.001Z</time></trkpt><trkpt lat="46.13457264841026" lon="12.681219856526349"><ele>263.33333333333337</ele><time>2026-03-30T09:37:03.001Z</time></trkpt><trkpt lat="46.13439807214427" lon="12.681329341228766"><ele>260.0</ele><time>2026-03-30T09:37:04.001Z</time></trkpt><trkpt lat="46.134250410454584" lon="12.68142107504231"><ele>260.0</ele><time>2026-03-30T09:37:05.001Z</time></trkpt><trkpt lat="46.13410145252615" lon="12.681518052227386"><ele>260.0</ele><time>2026-03-30T09:37:06.001Z</time></trkpt><trkpt lat="46.133945460180335" lon="12.681634187330141"><ele>260.0</ele><time>2026-03-30T09:37:07.001Z</time></trkpt><trkpt lat="46.133776510330804" lon="12.681744136922324"><ele>258.6666666666667</ele><time>2026-03-30T09:37:08.001Z</time></trkpt><trkpt lat="46.133629134829356" lon="12.68188717403141"><ele>257.3333333333333</ele><time>2026-03-30T09:37:09.001Z</time></trkpt><trkpt lat="46.13350375812711" lon="12.682047577361798"><ele>256.0</ele><time>2026-03-30T09:37:10.001Z</time></trkpt><trkpt lat="46.133374907190536" lon="12.682178797028739"><ele>256.0</ele><time>2026-03-30T09:37:11.001Z</time></trkpt><trkpt lat="46.13324875204232" lon="12.682299398737891"><ele>256.0</ele><time>2026-03-30T09:37:12.001Z</time></trkpt><trkpt lat="46.1331262340368" lon="12.682406748442526"><ele>256.0</ele><time>2026-03-30T09:37:13.001Z</time></trkpt><trkpt lat="46.133011248221486" lon="12.68249469733584"><ele>256.0</ele><time>2026-03-30T09:37:14.001Z</time></trkpt><trkpt lat="46.13290540958158" lon="12.682566361520985"><ele>257.0</ele><time>2026-03-30T09:37:15.001Z</time></trkpt><trkpt lat="46.1328115924711" lon="12.682628669594337"><ele>258.0</ele><time>2026-03-30T09:37:16.001Z</time></trkpt><trkpt lat="46.13272424141508" lon="12.682692820826567"><ele>259.0</ele><time>2026-03-30T09:37:17.001Z</time></trkpt><trkpt lat="46.13265057485036" lon="12.682752316545878"><ele>260.0</ele><time>2026-03-30T09:37:18.001Z</time></trkpt><trkpt lat="46.13259296456713" lon="12.682808804981578"><ele>261.0</ele><time>2026-03-30T09:37:19.001Z</time></trkpt><trkpt lat="46.1325630242311" lon="12.682904670835846"><ele>262.0</ele><time>2026-03-30T09:37:21.001Z</time></trkpt><trkpt lat="46.13262973481315" lon="12.683096233519176"><ele>257.66666666666663</ele><time>2026-03-30T09:37:24.001Z</time></trkpt><trkpt lat="46.13272169715653" lon="12.683238705348368"><ele>253.33333333333331</ele><time>2026-03-30T09:37:25.001Z</time></trkpt><trkpt lat="46.132778874465934" lon="12.68345839738725"><ele>249.0</ele><time>2026-03-30T09:37:26.001Z</time></trkpt><trkpt lat="46.13286117007558" lon="12.683707179422534"><ele>247.0</ele><time>2026-03-30T09:37:27.001Z</time></trkpt><trkpt lat="46.13295482874496" lon="12.683993128686131"><ele>245.0</ele><time>2026-03-30T09:37:28.001Z</time></trkpt><trkpt lat="46.13307292097905" lon="12.684295024646714"><ele>244.5</ele><time>2026-03-30T09:37:29.001Z</time></trkpt><trkpt lat="46.13317905326556" lon="12.684616711020334"><ele>244.0</ele><time>2026-03-30T09:37:30.001Z</time></trkpt><trkpt lat="46.13328684164357" lon="12.684940022829311"><ele>243.0</ele><time>2026-03-30T09:37:31.001Z</time></trkpt><trkpt lat="46.13340030068129" lon="12.685283143303659"><ele>242.0</ele><time>2026-03-30T09:37:32.001Z</time></trkpt><trkpt lat="46.1335123170643" lon="12.685623793143293"><ele>242.0</ele><time>2026-03-30T09:37:33.001Z</time></trkpt><trkpt lat="46.133599127447425" lon="12.685941260992038"><ele>242.0</ele><time>2026-03-30T09:37:34.001Z</time></trkpt><trkpt lat="46.133694350340036" lon="12.686232495931753"><ele>242.33333333333334</ele><time>2026-03-30T09:37:35.001Z</time></trkpt><trkpt lat="46.13378420589229" lon="12.686506848952574"><ele>242.66666666666669</ele><time>2026-03-30T09:37:36.001Z</time></trkpt><trkpt lat="46.133874118830754" lon="12.686781377328765"><ele>243.0</ele><time>2026-03-30T09:37:37.001Z</time></trkpt><trkpt lat="46.133965418638724" lon="12.687052486283918"><ele>243.0</ele><time>2026-03-30T09:37:38.001Z</time></trkpt><trkpt lat="46.134051994204995" lon="12.687307387296926"><ele>243.0</ele><time>2026-03-30T09:37:39.001Z</time></trkpt><trkpt lat="46.13413733684659" lon="12.687559080177111"><ele>243.0</ele><time>2026-03-30T09:37:40.001Z</time></trkpt><trkpt lat="46.13423141798687" lon="12.687786599768907"><ele>242.66666666666669</ele><time>2026-03-30T09:37:41.001Z</time></trkpt><trkpt lat="46.13430675124359" lon="12.688017234283066"><ele>242.33333333333334</ele><time>2026-03-30T09:37:42.001Z</time></trkpt><trkpt lat="46.13438139280024" lon="12.688243698929794"><ele>242.0</ele><time>2026-03-30T09:37:43.001Z</time></trkpt><trkpt lat="46.134454709111125" lon="12.688464710321803"><ele>241.33333333333334</ele><time>2026-03-30T09:37:44.001Z</time></trkpt><trkpt lat="46.13452780862512" lon="12.68868399973284"><ele>240.66666666666669</ele><time>2026-03-30T09:37:45Z</time></trkpt><trkpt lat="46.134597245509134" lon="12.68888910137876"><ele>240.0</ele><time>2026-03-30T09:37:46Z</time></trkpt><trkpt lat="46.13465868716653" lon="12.689081805027019"><ele>240.0</ele><time>2026-03-30T09:37:47Z</time></trkpt><trkpt lat="46.13471620853245" lon="12.68925776135594"><ele>240.0</ele><time>2026-03-30T09:37:48Z</time></trkpt><trkpt lat="46.13477531882745" lon="12.689432273822026"><ele>240.0</ele><time>2026-03-30T09:37:49Z</time></trkpt><trkpt lat="46.13482744544988" lon="12.68959361490964"><ele>240.0</ele><time>2026-03-30T09:37:50Z</time></trkpt><trkpt lat="46.13487707798861" lon="12.689746811616557"><ele>240.25</ele><time>2026-03-30T09:37:51Z</time></trkpt><trkpt lat="46.1349242464053" lon="12.689904177349455"><ele>240.5</ele><time>2026-03-30T09:37:52Z</time></trkpt><trkpt lat="46.134976477349774" lon="12.690067305518582"><ele>240.75</ele><time>2026-03-30T09:37:53Z</time></trkpt><trkpt lat="46.1350315016398" lon="12.690230880202348"><ele>241.0</ele><time>2026-03-30T09:37:54Z</time></trkpt><trkpt lat="46.13508649194837" lon="12.690401914540946"><ele>241.0</ele><time>2026-03-30T09:37:55Z</time></trkpt><trkpt lat="46.13514374639594" lon="12.690577571862573"><ele>241.0</ele><time>2026-03-30T09:37:56Z</time></trkpt><trkpt lat="46.13520475231462" lon="12.690761768689448"><ele>241.0</ele><time>2026-03-30T09:37:57Z</time></trkpt><trkpt lat="46.135266646921835" lon="12.69095535471632"><ele>241.0</ele><time>2026-03-30T09:37:58Z</time></trkpt><trkpt lat="46.13533210849276" lon="12.691163641201356"><ele>240.66666666666666</ele><time>2026-03-30T09:37:59Z</time></trkpt><trkpt lat="46.1354024403183" lon="12.6913731992892"><ele>240.33333333333331</ele><time>2026-03-30T09:38:00Z</time></trkpt><trkpt lat="46.135479761384104" lon="12.691591220458815"><ele>240.0</ele><time>2026-03-30T09:38:01Z</time></trkpt><trkpt lat="46.13555769892068" lon="12.691826683096801"><ele>241.0</ele><time>2026-03-30T09:38:02Z</time></trkpt><trkpt lat="46.13563946702126" lon="12.692084091914355"><ele>242.0</ele><time>2026-03-30T09:38:03Z</time></trkpt><trkpt lat="46.1357341229055" lon="12.692367038632735"><ele>243.0</ele><time>2026-03-30T09:38:04Z</time></trkpt><trkpt lat="46.13582023537363" lon="12.692624668008095"><ele>243.0</ele><time>2026-03-30T09:38:05Z</time></trkpt><trkpt lat="46.1359003828559" lon="12.69287099574157"><ele>243.0</ele><time>2026-03-30T09:38:06Z</time></trkpt><trkpt lat="46.135974319990275" lon="12.69310200141066"><ele>243.0</ele><time>2026-03-30T09:38:07Z</time></trkpt><trkpt lat="46.13604095073749" lon="12.693304552928637"><ele>243.0</ele><time>2026-03-30T09:38:08Z</time></trkpt><trkpt lat="46.13610236481989" lon="12.693473489738373"><ele>243.0</ele><time>2026-03-30T09:38:09Z</time></trkpt><trkpt lat="46.136165412139185" lon="12.693610721988069"><ele>243.0</ele><time>2026-03-30T09:38:10Z</time></trkpt><trkpt lat="46.136240218760484" lon="12.693691063271475"><ele>243.0</ele><time>2026-03-30T09:38:11Z</time></trkpt><trkpt lat="46.13632484949169" lon="12.693731825372463"><ele>243.0</ele><time>2026-03-30T09:38:12Z</time></trkpt><trkpt lat="46.13641434504989" lon="12.693719518215056"><ele>244.0</ele><time>2026-03-30T09:38:13Z</time></trkpt><trkpt lat="46.13652827820233" lon="12.693664851715804"><ele>245.0</ele><time>2026-03-30T09:38:14Z</time></trkpt><trkpt lat="46.136660948916365" lon="12.69357249961088"><ele>246.0</ele><time>2026-03-30T09:38:15Z</time></trkpt><trkpt lat="46.13681361967575" lon="12.693464102300204"><ele>247.0</ele><time>2026-03-30T09:38:16Z</time></trkpt><trkpt lat="46.13698769377233" lon="12.693347939755702"><ele>247.33333333333331</ele><time>2026-03-30T09:38:17Z</time></trkpt><trkpt lat="46.13715325041278" lon="12.693240501905928"><ele>247.66666666666669</ele><time>2026-03-30T09:38:18Z</time></trkpt><trkpt lat="46.13729325963402" lon="12.693150065724625"><ele>248.0</ele><time>2026-03-30T09:38:19Z</time></trkpt><trkpt lat="46.13741538134243" lon="12.693083554518015"><ele>251.0</ele><time>2026-03-30T09:38:20Z</time></trkpt><trkpt lat="46.137555280715304" lon="12.693045133459623"><ele>254.0</ele><time>2026-03-30T09:38:21Z</time></trkpt><trkpt lat="46.13773062615248" lon="12.693026072745845"><ele>257.0</ele><time>2026-03-30T09:38:22Z</time></trkpt><trkpt lat="46.13793202603325" lon="12.6930124943129"><ele>257.0</ele><time>2026-03-30T09:38:23Z</time></trkpt><trkpt lat="46.138152644288354" lon="12.692984529847042"><ele>257.0</ele><time>2026-03-30T09:38:24Z</time></trkpt><trkpt lat="46.13838866742914" lon="12.69293527555151"><ele>256.0</ele><time>2026-03-30T09:38:25Z</time></trkpt><trkpt lat="46.138616768582324" lon="12.692873085693485"><ele>255.0</ele><time>2026-03-30T09:38:26Z</time></trkpt><trkpt lat="46.138818759441676" lon="12.692799717090432"><ele>254.0</ele><time>2026-03-30T09:38:27Z</time></trkpt><trkpt lat="46.13900078124608" lon="12.692727115363137"><ele>256.5</ele><time>2026-03-30T09:38:28Z</time></trkpt><trkpt lat="46.139156630588474" lon="12.692658266791744"><ele>259.0</ele><time>2026-03-30T09:38:29Z</time></trkpt><trkpt lat="46.13927667897708" lon="12.692603201722992"><ele>261.5</ele><time>2026-03-30T09:38:30Z</time></trkpt><trkpt lat="46.139379467285515" lon="12.692590783280671"><ele>264.0</ele><time>2026-03-30T09:38:31Z</time></trkpt><trkpt lat="46.13946857087298" lon="12.692635198313349"><ele>264.0</ele><time>2026-03-30T09:38:32Z</time></trkpt><trkpt lat="46.13953851550877" lon="12.69272822165778"><ele>264.0</ele><time>2026-03-30T09:38:33Z</time></trkpt><trkpt lat="46.139627233582004" lon="12.69286579942237"><ele>264.0</ele><time>2026-03-30T09:38:34Z</time></trkpt><trkpt lat="46.13972969198994" lon="12.693062231150337"><ele>264.0</ele><time>2026-03-30T09:38:35Z</time></trkpt><trkpt lat="46.13983558785096" lon="12.693310123412953"><ele>267.6666666666667</ele><time>2026-03-30T09:38:36Z</time></trkpt><trkpt lat="46.139930766025024" lon="12.693575879893341"><ele>271.33333333333337</ele><time>2026-03-30T09:38:37Z</time></trkpt><trkpt lat="46.14000946400025" lon="12.693865453260283"><ele>275.0</ele><time>2026-03-30T09:38:38Z</time></trkpt><trkpt lat="46.14009469205476" lon="12.694164895251134"><ele>275.6666666666667</ele><time>2026-03-30T09:38:39Z</time></trkpt><trkpt lat="46.140174155634035" lon="12.694434018801365"><ele>276.3333333333333</ele><time>2026-03-30T09:38:40Z</time></trkpt><trkpt lat="46.14024246455295" lon="12.694665364323305"><ele>277.0</ele><time>2026-03-30T09:38:41Z</time></trkpt><trkpt lat="46.140303115920105" lon="12.694868966224908"><ele>277.0</ele><time>2026-03-30T09:38:42Z</time></trkpt><trkpt lat="46.14035828467354" lon="12.695053677336379"><ele>277.0</ele><time>2026-03-30T09:38:43Z</time></trkpt><trkpt lat="46.14042053175299" lon="12.69521386565955"><ele>277.0</ele><time>2026-03-30T09:38:44Z</time></trkpt><trkpt lat="46.140462424483516" lon="12.695369150579886"><ele>277.0</ele><time>2026-03-30T09:38:45Z</time></trkpt><trkpt lat="46.14050746345561" lon="12.695524588464464"><ele>276.75</ele><time>2026-03-30T09:38:46Z</time></trkpt><trkpt lat="46.14055550808377" lon="12.695682563464949"><ele>276.5</ele><time>2026-03-30T09:38:47Z</time></trkpt><trkpt lat="46.14060872916063" lon="12.695848818048258"><ele>276.25</ele><time>2026-03-30T09:38:48Z</time></trkpt><trkpt lat="46.14066281757793" lon="12.696008708038436"><ele>276.0</ele><time>2026-03-30T09:38:49Z</time></trkpt><trkpt lat="46.14071931656102" lon="12.696173720570025"><ele>277.25</ele><time>2026-03-30T09:38:50Z</time></trkpt><trkpt lat="46.140777615495324" lon="12.696344360270452"><ele>278.5</ele><time>2026-03-30T09:38:51Z</time></trkpt><trkpt lat="46.1408348687039" lon="12.696516977195131"><ele>279.75</ele><time>2026-03-30T09:38:52Z</time></trkpt><trkpt lat="46.140893718585765" lon="12.696687786450768"><ele>281.0</ele><time>2026-03-30T09:38:53Z</time></trkpt><trkpt lat="46.14095365525193" lon="12.696862174111539"><ele>281.0</ele><time>2026-03-30T09:38:54Z</time></trkpt><trkpt lat="46.14101498690387" lon="12.697041381635094"><ele>281.0</ele><time>2026-03-30T09:38:55Z</time></trkpt><trkpt lat="46.14107864393875" lon="12.697222370651543"><ele>281.0</ele><time>2026-03-30T09:38:56Z</time></trkpt><trkpt lat="46.14114456460773" lon="12.697407645085493"><ele>281.0</ele><time>2026-03-30T09:38:57.001Z</time></trkpt><trkpt lat="46.14120837692254" lon="12.697594898084759"><ele>281.0</ele><time>2026-03-30T09:38:58.001Z</time></trkpt><trkpt lat="46.14127515354754" lon="12.697789711035986"><ele>281.0</ele><time>2026-03-30T09:38:59.001Z</time></trkpt><trkpt lat="46.141344387963365" lon="12.69798533219697"><ele>281.0</ele><time>2026-03-30T09:39:00.001Z</time></trkpt><trkpt lat="46.14140930482175" lon="12.698178628642985"><ele>281.0</ele><time>2026-03-30T09:39:01.001Z</time></trkpt><trkpt lat="46.14146811387466" lon="12.698358760787924"><ele>281.0</ele><time>2026-03-30T09:39:02.001Z</time></trkpt><trkpt lat="46.14151888690803" lon="12.698522530918648"><ele>281.0</ele><time>2026-03-30T09:39:03.001Z</time></trkpt><trkpt lat="46.14156528908029" lon="12.698667507462652"><ele>281.0</ele><time>2026-03-30T09:39:04.001Z</time></trkpt><trkpt lat="46.141614178923184" lon="12.698800561617578"><ele>281.2</ele><time>2026-03-30T09:39:05.001Z</time></trkpt><trkpt lat="46.14165763807613" lon="12.698925699935169"><ele>281.40000000000003</ele><time>2026-03-30T09:39:06.001Z</time></trkpt><trkpt lat="46.141699722350225" lon="12.69904695478471"><ele>281.6</ele><time>2026-03-30T09:39:07.001Z</time></trkpt><trkpt lat="46.14173519237331" lon="12.699139447813833"><ele>281.8</ele><time>2026-03-30T09:39:08.001Z</time></trkpt><trkpt lat="46.1417800081635" lon="12.699256681926402"><ele>282.0</ele><time>2026-03-30T09:39:10.001Z</time></trkpt><trkpt lat="46.14194803552817" lon="12.69915359088432"><ele>282.0</ele><time>2026-03-30T09:39:14.001Z</time></trkpt><trkpt lat="46.14203561578622" lon="12.6990938438959"><ele>282.0</ele><time>2026-03-30T09:39:15.001Z</time></trkpt><trkpt lat="46.142112134795696" lon="12.698990000534026"><ele>282.0</ele><time>2026-03-30T09:39:16.001Z</time></trkpt><trkpt lat="46.14220416383735" lon="12.698895409277004"><ele>282.0</ele><time>2026-03-30T09:39:17.001Z</time></trkpt><trkpt lat="46.14230191327797" lon="12.6987912234119"><ele>282.0</ele><time>2026-03-30T09:39:18.001Z</time></trkpt><trkpt lat="46.142406482037686" lon="12.69867857707455"><ele>282.0</ele><time>2026-03-30T09:39:19.001Z</time></trkpt><trkpt lat="46.14250867444829" lon="12.69855252277126"><ele>282.0</ele><time>2026-03-30T09:39:20.001Z</time></trkpt><trkpt lat="46.142621031045906" lon="12.698421799972538"><ele>282.0</ele><time>2026-03-30T09:39:21.001Z</time></trkpt><trkpt lat="46.142742067211294" lon="12.698302410488589"><ele>282.0</ele><time>2026-03-30T09:39:22.001Z</time></trkpt><trkpt lat="46.1428612688696" lon="12.698180622361086"><ele>282.0</ele><time>2026-03-30T09:39:23.001Z</time></trkpt><trkpt lat="46.142972522462436" lon="12.698050887164621"><ele>282.0</ele><time>2026-03-30T09:39:24.001Z</time></trkpt><trkpt lat="46.14308885414605" lon="12.69792206637282"><ele>282.0</ele><time>2026-03-30T09:39:25.001Z</time></trkpt><trkpt lat="46.143209894596765" lon="12.697793879146992"><ele>282.0</ele><time>2026-03-30T09:39:26.001Z</time></trkpt><trkpt lat="46.143330893138355" lon="12.69766646146846"><ele>282.0</ele><time>2026-03-30T09:39:27.001Z</time></trkpt><trkpt lat="46.14344827799307" lon="12.69753284506394"><ele>282.0</ele><time>2026-03-30T09:39:28.001Z</time></trkpt><trkpt lat="46.1435646919021" lon="12.697399486178325"><ele>282.0</ele><time>2026-03-30T09:39:29.001Z</time></trkpt><trkpt lat="46.14368226074065" lon="12.697266497415448"><ele>282.0</ele><time>2026-03-30T09:39:30.001Z</time></trkpt><trkpt lat="46.143801144552654" lon="12.697138968831197"><ele>282.0</ele><time>2026-03-30T09:39:31.001Z</time></trkpt><trkpt lat="46.14391693850666" lon="12.697012609074037"><ele>282.0</ele><time>2026-03-30T09:39:32.001Z</time></trkpt><trkpt lat="46.144046597071096" lon="12.696899921285505"><ele>282.0</ele><time>2026-03-30T09:39:33.001Z</time></trkpt><trkpt lat="46.14416836302142" lon="12.696768344654624"><ele>282.0</ele><time>2026-03-30T09:39:34.001Z</time></trkpt><trkpt lat="46.14429244717069" lon="12.696634263739847"><ele>282.6666666666667</ele><time>2026-03-30T09:39:35.001Z</time></trkpt><trkpt lat="46.14440527856495" lon="12.696484654451764"><ele>283.33333333333337</ele><time>2026-03-30T09:39:36.001Z</time></trkpt><trkpt lat="46.14453213159252" lon="12.696347407223572"><ele>284.0</ele><time>2026-03-30T09:39:37.001Z</time></trkpt><trkpt lat="46.14465792067294" lon="12.696209214655616"><ele>284.0</ele><time>2026-03-30T09:39:38.001Z</time></trkpt><trkpt lat="46.14478763636446" lon="12.696077737596205"><ele>284.0</ele><time>2026-03-30T09:39:39.001Z</time></trkpt><trkpt lat="46.144907191827045" lon="12.695952439590345"><ele>284.0</ele><time>2026-03-30T09:39:40.001Z</time></trkpt><trkpt lat="46.14501231233087" lon="12.695841564228116"><ele>284.0</ele><time>2026-03-30T09:39:41.001Z</time></trkpt><trkpt lat="46.145105296975366" lon="12.695747823121058"><ele>284.4</ele><time>2026-03-30T09:39:42.001Z</time></trkpt><trkpt lat="46.14518301031383" lon="12.6956757668759"><ele>284.79999999999995</ele><time>2026-03-30T09:39:43.001Z</time></trkpt><trkpt lat="46.14524821091999" lon="12.695624467734532"><ele>285.20000000000005</ele><time>2026-03-30T09:39:44.001Z</time></trkpt><trkpt lat="46.14530236582058" lon="12.695556553649114"><ele>285.6</ele><time>2026-03-30T09:39:46.001Z</time></trkpt><trkpt lat="46.14540842308967" lon="12.695727780885877"><ele>286.0</ele><time>2026-03-30T09:39:48.001Z</time></trkpt><trkpt lat="46.14545628074131" lon="12.695852950502731"><ele>286.0</ele><time>2026-03-30T09:39:49.001Z</time></trkpt><trkpt lat="46.14553736235475" lon="12.695979309557076"><ele>286.0</ele><time>2026-03-30T09:39:50.001Z</time></trkpt><trkpt lat="46.14560514367991" lon="12.69612273652888"><ele>286.0</ele><time>2026-03-30T09:39:51Z</time></trkpt><trkpt lat="46.14567327425194" lon="12.696258974158079"><ele>286.0</ele><time>2026-03-30T09:39:52Z</time></trkpt><trkpt lat="46.14574059392401" lon="12.696389545454654"><ele>286.0</ele><time>2026-03-30T09:39:53Z</time></trkpt><trkpt lat="46.14580539041672" lon="12.696511004039724"><ele>286.0</ele><time>2026-03-30T09:39:54Z</time></trkpt><trkpt lat="46.14586487071939" lon="12.696628306083108"><ele>286.0</ele><time>2026-03-30T09:39:55Z</time></trkpt><trkpt lat="46.14590527024509" lon="12.6967534319513"><ele>286.0</ele><time>2026-03-30T09:39:56Z</time></trkpt><trkpt lat="46.14595958882143" lon="12.696863651380905"><ele>286.0</ele><time>2026-03-30T09:39:57Z</time></trkpt><trkpt lat="46.14601154206001" lon="12.696968273030306"><ele>286.0</ele><time>2026-03-30T09:39:58Z</time></trkpt><trkpt lat="46.14606264353106" lon="12.69706811551047"><ele>286.0</ele><time>2026-03-30T09:39:59Z</time></trkpt><trkpt lat="46.1461253477759" lon="12.697149991846283"><ele>286.0</ele><time>2026-03-30T09:40:00Z</time></trkpt><trkpt lat="46.1461718868392" lon="12.697245471391106"><ele>286.0</ele><time>2026-03-30T09:40:01Z</time></trkpt><trkpt lat="46.14621694414545" lon="12.697338926956265"><ele>286.0</ele><time>2026-03-30T09:40:02Z</time></trkpt><trkpt lat="46.14626201098146" lon="12.69742315083956"><ele>286.0</ele><time>2026-03-30T09:40:03Z</time></trkpt><trkpt lat="46.14630623919742" lon="12.697504836974261"><ele>286.0</ele><time>2026-03-30T09:40:04Z</time></trkpt><trkpt lat="46.146350508144224" lon="12.697584281972139"><ele>286.0</ele><time>2026-03-30T09:40:05Z</time></trkpt><trkpt lat="46.146378435225586" lon="12.697675479084387"><ele>286.0</ele><time>2026-03-30T09:40:06Z</time></trkpt><trkpt lat="46.14641665230823" lon="12.69774772878289"><ele>286.0</ele><time>2026-03-30T09:40:07Z</time></trkpt><trkpt lat="46.146480479211306" lon="12.697868393981032"><ele>286.0</ele><time>2026-03-30T09:40:09Z</time></trkpt><trkpt lat="46.1465777115852" lon="12.69783872272195"><ele>286.0</ele><time>2026-03-30T09:49:19Z</time></trkpt><trkpt lat="46.14654430812123" lon="12.697736863619188"><ele>286.0</ele><time>2026-03-30T09:49:21Z</time></trkpt><trkpt lat="46.146462699004424" lon="12.697652715788038"><ele>286.0</ele><time>2026-03-30T09:49:22Z</time></trkpt><trkpt lat="46.14637178040137" lon="12.69754486170712"><ele>286.0</ele><time>2026-03-30T09:49:23Z</time></trkpt><trkpt lat="46.14628872431917" lon="12.697431778845223"><ele>286.0</ele><time>2026-03-30T09:49:24Z</time></trkpt><trkpt lat="46.14622406720864" lon="12.69732793713276"><ele>286.0</ele><time>2026-03-30T09:49:25Z</time></trkpt><trkpt lat="46.14616670306678" lon="12.697212209050779"><ele>286.0</ele><time>2026-03-30T09:49:26Z</time></trkpt><trkpt lat="46.14610720090731" lon="12.697076048877548"><ele>286.0</ele><time>2026-03-30T09:49:27Z</time></trkpt><trkpt lat="46.146046099992894" lon="12.696932528275719"><ele>286.0</ele><time>2026-03-30T09:49:28Z</time></trkpt><trkpt lat="46.14598311875841" lon="12.696783571834073"><ele>286.0</ele><time>2026-03-30T09:49:29Z</time></trkpt><trkpt lat="46.14591791715659" lon="12.696645051044408"><ele>286.0</ele><time>2026-03-30T09:49:30Z</time></trkpt><trkpt lat="46.14585648053464" lon="12.696512246111478"><ele>286.0</ele><time>2026-03-30T09:49:31Z</time></trkpt><trkpt lat="46.14579268167028" lon="12.696383384961635"><ele>286.0</ele><time>2026-03-30T09:49:32Z</time></trkpt><trkpt lat="46.145730196561345" lon="12.696258018339304"><ele>286.0</ele><time>2026-03-30T09:49:33Z</time></trkpt><trkpt lat="46.14566747179607" lon="12.696135160921814"><ele>286.0</ele><time>2026-03-30T09:49:34Z</time></trkpt><trkpt lat="46.14560368056088" lon="12.696016085991175"><ele>286.0</ele><time>2026-03-30T09:49:35Z</time></trkpt><trkpt lat="46.14553924911551" lon="12.6959005826053"><ele>286.0</ele><time>2026-03-30T09:49:36Z</time></trkpt><trkpt lat="46.145479819446166" lon="12.695783815500636"><ele>286.0</ele><time>2026-03-30T09:49:37Z</time></trkpt><trkpt lat="46.14542770487799" lon="12.69567775579496"><ele>286.0</ele><time>2026-03-30T09:49:38Z</time></trkpt><trkpt lat="46.14538824611715" lon="12.695600951684266"><ele>286.0</ele><time>2026-03-30T09:49:39Z</time></trkpt><trkpt lat="46.14534055371667" lon="12.695512516340042"><ele>286.0</ele><time>2026-03-30T09:49:42Z</time></trkpt><trkpt lat="46.14526017557979" lon="12.695382054921298"><ele>286.0</ele><time>2026-03-30T09:49:44Z</time></trkpt><trkpt lat="46.14519626323818" lon="12.695271011860333"><ele>286.0</ele><time>2026-03-30T09:49:45Z</time></trkpt><trkpt lat="46.14512010460827" lon="12.695125704315945"><ele>286.0</ele><time>2026-03-30T09:49:46Z</time></trkpt><trkpt lat="46.145032957950164" lon="12.694953999476889"><ele>286.0</ele><time>2026-03-30T09:49:47Z</time></trkpt><trkpt lat="46.144939899362235" lon="12.694777541437404"><ele>285.66666666666663</ele><time>2026-03-30T09:49:48Z</time></trkpt><trkpt lat="46.144844084290604" lon="12.694594028248066"><ele>285.3333333333333</ele><time>2026-03-30T09:49:49Z</time></trkpt><trkpt lat="46.14474943773229" lon="12.694407989613325"><ele>285.0</ele><time>2026-03-30T09:49:50Z</time></trkpt><trkpt lat="46.144654126465916" lon="12.694225950776397"><ele>285.0</ele><time>2026-03-30T09:49:51Z</time></trkpt><trkpt lat="46.14457089648453" lon="12.69406504874835"><ele>285.0</ele><time>2026-03-30T09:49:52Z</time></trkpt><trkpt lat="46.144484968778194" lon="12.693903574621068"><ele>285.0</ele><time>2026-03-30T09:49:53Z</time></trkpt><trkpt lat="46.1444025054898" lon="12.693745308798485"><ele>285.0</ele><time>2026-03-30T09:49:54Z</time></trkpt><trkpt lat="46.144317324169265" lon="12.69358111021075"><ele>284.75</ele><time>2026-03-30T09:49:55Z</time></trkpt><trkpt lat="46.14422995810005" lon="12.693420535207522"><ele>284.5</ele><time>2026-03-30T09:49:56Z</time></trkpt><trkpt lat="46.14414791220384" lon="12.69326591780471"><ele>284.25</ele><time>2026-03-30T09:49:57Z</time></trkpt><trkpt lat="46.14406726423007" lon="12.693118993683258"><ele>284.0</ele><time>2026-03-30T09:49:58Z</time></trkpt><trkpt lat="46.143992267500366" lon="12.692977012402059"><ele>283.5</ele><time>2026-03-30T09:49:59Z</time></trkpt><trkpt lat="46.14392116272269" lon="12.692839263663009"><ele>283.0</ele><time>2026-03-30T09:50:00Z</time></trkpt><trkpt lat="46.14385260414954" lon="12.692703976232202"><ele>282.5</ele><time>2026-03-30T09:50:01Z</time></trkpt><trkpt lat="46.14377726116192" lon="12.692567281060812"><ele>282.0</ele><time>2026-03-30T09:50:02Z</time></trkpt><trkpt lat="46.14370861947597" lon="12.692441845580287"><ele>282.0</ele><time>2026-03-30T09:50:03Z</time></trkpt><trkpt lat="46.14365085382156" lon="12.69232379502415"><ele>282.0</ele><time>2026-03-30T09:50:04Z</time></trkpt><trkpt lat="46.143601988765376" lon="12.692219893853526"><ele>282.0</ele><time>2026-03-30T09:50:05Z</time></trkpt><trkpt lat="46.14356100555036" lon="12.692131211032079"><ele>282.0</ele><time>2026-03-30T09:50:06Z</time></trkpt><trkpt lat="46.14351838366475" lon="12.691995813083354"><ele>282.0</ele><time>2026-03-30T09:50:08Z</time></trkpt><trkpt lat="46.143592223087076" lon="12.691857776236642"><ele>282.0</ele><time>2026-03-30T09:50:11Z</time></trkpt><trkpt lat="46.14366365303023" lon="12.691780711063636"><ele>282.0</ele><time>2026-03-30T09:50:13Z</time></trkpt><trkpt lat="46.14359204228492" lon="12.691560040229117"><ele>282.0</ele><time>2026-03-30T09:50:17Z</time></trkpt><trkpt lat="46.14355667897186" lon="12.691445513345574"><ele>282.0</ele><time>2026-03-30T09:50:18Z</time></trkpt><trkpt lat="46.14352442533382" lon="12.691321006582147"><ele>282.0</ele><time>2026-03-30T09:50:19Z</time></trkpt><trkpt lat="46.14349635656105" lon="12.69118589393085"><ele>281.4</ele><time>2026-03-30T09:50:20Z</time></trkpt><trkpt lat="46.143493464600006" lon="12.691049518132083"><ele>280.79999999999995</ele><time>2026-03-30T09:50:20.999Z</time></trkpt><trkpt lat="46.143515151901326" lon="12.690945693650837"><ele>280.2</ele><time>2026-03-30T09:50:21.999Z</time></trkpt><trkpt lat="46.14352747122601" lon="12.690849835861725"><ele>279.59999999999997</ele><time>2026-03-30T09:50:23.999Z</time></trkpt><trkpt lat="46.14333020045184" lon="12.690798790997487"><ele>279.0</ele><time>2026-03-30T09:50:26.999Z</time></trkpt><trkpt lat="46.14354558266767" lon="12.690718003044465"><ele>279.0</ele><time>2026-03-30T09:50:27.999Z</time></trkpt><trkpt lat="46.143264936130024" lon="12.69058891473578"><ele>279.0</ele><time>2026-03-30T09:50:28.999Z</time></trkpt><trkpt lat="46.143224923101606" lon="12.6904876656092"><ele>279.0</ele><time>2026-03-30T09:50:31Z</time></trkpt><trkpt lat="46.14319518337934" lon="12.690402793594949"><ele>279.0</ele><time>2026-03-30T09:50:32.999Z</time></trkpt><trkpt lat="46.14315769454605" lon="12.690310110013014"><ele>278.1666666666667</ele><time>2026-03-30T09:50:35.999Z</time></trkpt><trkpt lat="46.14312635499568" lon="12.690227803591837"><ele>277.3333333333333</ele><time>2026-03-30T09:50:44Z</time></trkpt><trkpt lat="46.14308388308128" lon="12.690126495715317"><ele>276.5</ele><time>2026-03-30T09:50:45Z</time></trkpt><trkpt lat="46.1430557999652" lon="12.690026251029913"><ele>275.66666666666663</ele><time>2026-03-30T09:50:46Z</time></trkpt><trkpt lat="46.142985040471686" lon="12.689898620644971"><ele>274.8333333333333</ele><time>2026-03-30T09:50:48Z</time></trkpt><trkpt lat="46.14291634739239" lon="12.689801090789969"><ele>274.0</ele><time>2026-03-30T09:50:50Z</time></trkpt><trkpt lat="46.1428080185808" lon="12.689768696118126"><ele>274.0</ele><time>2026-03-30T09:50:52Z</time></trkpt><trkpt lat="46.142744589200404" lon="12.689783682017111"><ele>274.0</ele><time>2026-03-30T09:50:53Z</time></trkpt><trkpt lat="46.142669393005534" lon="12.689834184698787"><ele>274.0</ele><time>2026-03-30T09:50:54Z</time></trkpt><trkpt lat="46.142570161647924" lon="12.689905909850985"><ele>274.0</ele><time>2026-03-30T09:50:55Z</time></trkpt><trkpt lat="46.14245871837013" lon="12.690000668100515"><ele>274.0</ele><time>2026-03-30T09:50:56Z</time></trkpt><trkpt lat="46.142305315028885" lon="12.690135406326043"><ele>273.75</ele><time>2026-03-30T09:50:57Z</time></trkpt><trkpt lat="46.142168638313215" lon="12.690249277217237"><ele>273.5</ele><time>2026-03-30T09:50:58Z</time></trkpt><trkpt lat="46.14204824897856" lon="12.69035175987268"><ele>273.25</ele><time>2026-03-30T09:50:59Z</time></trkpt><trkpt lat="46.14193783690909" lon="12.690441218206773"><ele>273.0</ele><time>2026-03-30T09:51:00Z</time></trkpt><trkpt lat="46.14183747155234" lon="12.690518269512312"><ele>273.0</ele><time>2026-03-30T09:51:01Z</time></trkpt><trkpt lat="46.14175853518323" lon="12.690596534551007"><ele>273.0</ele><time>2026-03-30T09:51:02Z</time></trkpt><trkpt lat="46.14169200916589" lon="12.690679823557767"><ele>273.0</ele><time>2026-03-30T09:51:03Z</time></trkpt><trkpt lat="46.14164525516786" lon="12.690771948316003"><ele>273.0</ele><time>2026-03-30T09:51:04Z</time></trkpt><trkpt lat="46.14160875571152" lon="12.690849998057239"><ele>273.0</ele><time>2026-03-30T09:51:05Z</time></trkpt><trkpt lat="46.141550602776455" lon="12.690953429862429"><ele>273.0</ele><time>2026-03-30T09:51:07Z</time></trkpt><trkpt lat="46.14146374584821" lon="12.69092455203742"><ele>273.0</ele><time>2026-03-30T09:51:10Z</time></trkpt><trkpt lat="46.14146728721999" lon="12.690777646722522"><ele>273.0</ele><time>2026-03-30T09:51:12Z</time></trkpt><trkpt lat="46.14152485573312" lon="12.690680471167385"><ele>273.0</ele><time>2026-03-30T09:51:13Z</time></trkpt><trkpt lat="46.14159353121992" lon="12.69057638002522"><ele>273.0</ele><time>2026-03-30T09:51:14Z</time></trkpt><trkpt lat="46.14167111580309" lon="12.690474226903758"><ele>273.0</ele><time>2026-03-30T09:51:15Z</time></trkpt><trkpt lat="46.14174795849505" lon="12.690383687139038"><ele>273.0</ele><time>2026-03-30T09:51:16Z</time></trkpt><trkpt lat="46.141820895651016" lon="12.690297452091984"><ele>273.0</ele><time>2026-03-30T09:51:17Z</time></trkpt><trkpt lat="46.141899234111975" lon="12.690195278567613"><ele>273.0</ele><time>2026-03-30T09:51:18Z</time></trkpt><trkpt lat="46.14197799787659" lon="12.690069410961861"><ele>273.0</ele><time>2026-03-30T09:51:19Z</time></trkpt><trkpt lat="46.14205013416423" lon="12.68997039440708"><ele>273.0</ele><time>2026-03-30T09:51:20Z</time></trkpt><trkpt lat="46.14212081296284" lon="12.689882925687499"><ele>273.2</ele><time>2026-03-30T09:51:21Z</time></trkpt><trkpt lat="46.14219990758217" lon="12.68979439499782"><ele>273.4</ele><time>2026-03-30T09:51:22Z</time></trkpt><trkpt lat="46.14228627700718" lon="12.689698916693558"><ele>273.59999999999997</ele><time>2026-03-30T09:51:23Z</time></trkpt><trkpt lat="46.14236478314932" lon="12.689614152587746"><ele>273.8</ele><time>2026-03-30T09:51:24Z</time></trkpt><trkpt lat="46.14244838286887" lon="12.689539298361117"><ele>274.0</ele><time>2026-03-30T09:51:25Z</time></trkpt><trkpt lat="46.14253947417284" lon="12.68946967212388"><ele>272.3333333333333</ele><time>2026-03-30T09:51:26Z</time></trkpt><trkpt lat="46.14261266167499" lon="12.689390837359076"><ele>270.66666666666663</ele><time>2026-03-30T09:51:27Z</time></trkpt><trkpt lat="46.14268376202258" lon="12.689319953692808"><ele>269.0</ele><time>2026-03-30T09:51:28Z</time></trkpt><trkpt lat="46.14274990539011" lon="12.689255312242452"><ele>267.3333333333333</ele><time>2026-03-30T09:51:29Z</time></trkpt><trkpt lat="46.142804084237085" lon="12.68920745456468"><ele>265.6666666666667</ele><time>2026-03-30T09:51:30Z</time></trkpt><trkpt lat="46.142841902561955" lon="12.689123972630522"><ele>264.0</ele><time>2026-03-30T09:51:31Z</time></trkpt><trkpt lat="46.14290795945572" lon="12.689043645474609"><ele>264.0</ele><time>2026-03-30T09:51:33Z</time></trkpt><trkpt lat="46.142939058549636" lon="12.68894379662317"><ele>264.0</ele><time>2026-03-30T09:51:35Z</time></trkpt><trkpt lat="46.143043554530564" lon="12.688854967485456"><ele>264.0</ele><time>2026-03-30T09:51:36Z</time></trkpt><trkpt lat="46.143015350490195" lon="12.68877248271832"><ele>264.0</ele><time>2026-03-30T09:51:38Z</time></trkpt><trkpt lat="46.14302263075806" lon="12.688644860262949"><ele>264.0</ele><time>2026-03-30T09:51:45Z</time></trkpt><trkpt lat="46.14312472491464" lon="12.688578999946358"><ele>260.0</ele><time>2026-03-30T09:51:48Z</time></trkpt><trkpt lat="46.14299418875431" lon="12.688295499009365"><ele>256.0</ele><time>2026-03-30T09:51:54Z</time></trkpt><trkpt lat="46.14286949003915" lon="12.688494374703401"><ele>252.0</ele><time>2026-03-30T09:51:56Z</time></trkpt><trkpt lat="46.142773390219375" lon="12.68856042407664"><ele>254.39999999999998</ele><time>2026-03-30T09:51:57Z</time></trkpt><trkpt lat="46.14269135083478" lon="12.688634738314398"><ele>256.79999999999995</ele><time>2026-03-30T09:51:58Z</time></trkpt><trkpt lat="46.142608756527466" lon="12.688735659543624"><ele>259.2</ele><time>2026-03-30T09:51:59Z</time></trkpt><trkpt lat="46.14253149287374" lon="12.688840352114195"><ele>261.59999999999997</ele><time>2026-03-30T09:52:00Z</time></trkpt><trkpt lat="46.142462269230755" lon="12.688945638276467"><ele>264.0</ele><time>2026-03-30T09:52:01Z</time></trkpt><trkpt lat="46.14241050832927" lon="12.689036479406505"><ele>263.8333333333333</ele><time>2026-03-30T09:52:02Z</time></trkpt><trkpt lat="46.14236307762381" lon="12.689102838261364"><ele>263.6666666666667</ele><time>2026-03-30T09:52:03Z</time></trkpt><trkpt lat="46.14230831062252" lon="12.689168853219684"><ele>263.5</ele><time>2026-03-30T09:52:04Z</time></trkpt><trkpt lat="46.14226042119667" lon="12.689228896609555"><ele>263.33333333333337</ele><time>2026-03-30T09:52:05Z</time></trkpt><trkpt lat="46.142211455830676" lon="12.689297391648656"><ele>263.1666666666667</ele><time>2026-03-30T09:52:06Z</time></trkpt><trkpt lat="46.14214732752159" lon="12.68936579064922"><ele>263.0</ele><time>2026-03-30T09:52:07Z</time></trkpt><trkpt lat="46.142051742850626" lon="12.689445401191369"><ele>263.0</ele><time>2026-03-30T09:52:08Z</time></trkpt><trkpt lat="46.141940358639594" lon="12.689541554955637"><ele>263.0</ele><time>2026-03-30T09:52:09Z</time></trkpt><trkpt lat="46.14182682116357" lon="12.689651194207768"><ele>263.0</ele><time>2026-03-30T09:52:10Z</time></trkpt><trkpt lat="46.141722429982565" lon="12.689742949896141"><ele>263.0</ele><time>2026-03-30T09:52:11Z</time></trkpt><trkpt lat="46.14161912926592" lon="12.68981573933474"><ele>260.5</ele><time>2026-03-30T09:52:12Z</time></trkpt><trkpt lat="46.14147784561034" lon="12.689891807977613"><ele>258.0</ele><time>2026-03-30T09:52:13Z</time></trkpt><trkpt lat="46.14134060399349" lon="12.689960219924894"><ele>255.5</ele><time>2026-03-30T09:52:14Z</time></trkpt><trkpt lat="46.141236844605466" lon="12.690022903425207"><ele>253.0</ele><time>2026-03-30T09:52:15Z</time></trkpt><trkpt lat="46.1411572463461" lon="12.690077155112915"><ele>252.99999999999997</ele><time>2026-03-30T09:52:16Z</time></trkpt><trkpt lat="46.14109051248829" lon="12.690113196797613"><ele>253.0</ele><time>2026-03-30T09:52:17Z</time></trkpt><trkpt lat="46.14095940228757" lon="12.690108594752957"><ele>253.0</ele><time>2026-03-30T09:52:19Z</time></trkpt><trkpt lat="46.140886994460956" lon="12.690082762491103"><ele>253.0</ele><time>2026-03-30T09:52:20Z</time></trkpt><trkpt lat="46.14081834478422" lon="12.690054996413405"><ele>252.99999999999997</ele><time>2026-03-30T09:52:21Z</time></trkpt><trkpt lat="46.14075776625794" lon="12.690024191416356"><ele>253.0</ele><time>2026-03-30T09:52:22Z</time></trkpt><trkpt lat="46.14070624533367" lon="12.689958867107629"><ele>252.66666666666666</ele><time>2026-03-30T09:52:23Z</time></trkpt><trkpt lat="46.14067040757684" lon="12.6898618013258"><ele>252.33333333333331</ele><time>2026-03-30T09:52:24Z</time></trkpt><trkpt lat="46.14063299376423" lon="12.689723643268994"><ele>252.0</ele><time>2026-03-30T09:52:25Z</time></trkpt><trkpt lat="46.14057635670299" lon="12.689602576066818"><ele>251.66666666666669</ele><time>2026-03-30T09:52:26Z</time></trkpt><trkpt lat="46.14053793028938" lon="12.689502097154511"><ele>251.33333333333334</ele><time>2026-03-30T09:52:26.999Z</time></trkpt><trkpt lat="46.14050818960062" lon="12.689411553673407"><ele>251.0</ele><time>2026-03-30T09:52:27.999Z</time></trkpt><trkpt lat="46.14045978076386" lon="12.68932427400676"><ele>251.00000000000003</ele><time>2026-03-30T09:52:29.999Z</time></trkpt><trkpt lat="46.14035416339797" lon="12.689358603813115"><ele>251.0</ele><time>2026-03-30T09:52:32.999Z</time></trkpt><trkpt lat="46.140317168540584" lon="12.68945067776798"><ele>251.0</ele><time>2026-03-30T09:52:34.999Z</time></trkpt><trkpt lat="46.14032173534212" lon="12.689558079863822"><ele>251.0</ele><time>2026-03-30T09:52:36.999Z</time></trkpt><trkpt lat="46.14037032217026" lon="12.689693630168476"><ele>251.00000000000003</ele><time>2026-03-30T09:52:38.999Z</time></trkpt><trkpt lat="46.140408567314495" lon="12.68979036320156"><ele>251.0</ele><time>2026-03-30T09:52:39.999Z</time></trkpt><trkpt lat="46.140438712232" lon="12.689872365212736"><ele>251.0</ele><time>2026-03-30T09:52:40.999Z</time></trkpt><trkpt lat="46.14044162192346" lon="12.69003671866459"><ele>251.00000000000003</ele><time>2026-03-30T09:52:42.999Z</time></trkpt><trkpt lat="46.14041116614524" lon="12.690117899032058"><ele>251.00000000000003</ele><time>2026-03-30T09:52:43.999Z</time></trkpt><trkpt lat="46.140353644420934" lon="12.690191285924943"><ele>251.0</ele><time>2026-03-30T09:52:44.999Z</time></trkpt><trkpt lat="46.14026813274828" lon="12.690236802575985"><ele>251.0</ele><time>2026-03-30T09:52:45.999Z</time></trkpt><trkpt lat="46.140143150049894" lon="12.690304019556747"><ele>251.0</ele><time>2026-03-30T09:52:46.999Z</time></trkpt><trkpt lat="46.14001573063236" lon="12.690397674680245"><ele>251.0</ele><time>2026-03-30T09:52:47.999Z</time></trkpt><trkpt lat="46.13989296296429" lon="12.69049870921537"><ele>251.0</ele><time>2026-03-30T09:52:48.999Z</time></trkpt><trkpt lat="46.139789478702966" lon="12.690581913449241"><ele>251.0</ele><time>2026-03-30T09:52:49.999Z</time></trkpt><trkpt lat="46.139703930415436" lon="12.690639060242331"><ele>251.00000000000003</ele><time>2026-03-30T09:52:50.999Z</time></trkpt><trkpt lat="46.13963070812229" lon="12.690692396135919"><ele>251.0</ele><time>2026-03-30T09:52:51.999Z</time></trkpt><trkpt lat="46.13956633031909" lon="12.690747034085195"><ele>251.0</ele><time>2026-03-30T09:52:52.999Z</time></trkpt><trkpt lat="46.139517352429415" lon="12.690805248336284"><ele>251.0</ele><time>2026-03-30T09:52:53.999Z</time></trkpt><trkpt lat="46.139449470894476" lon="12.690892175221284"><ele>251.00000000000003</ele><time>2026-03-30T09:52:54.999Z</time></trkpt><trkpt lat="46.13936091354798" lon="12.690972245276699"><ele>251.0</ele><time>2026-03-30T09:52:55.999Z</time></trkpt><trkpt lat="46.13927448045541" lon="12.691033826382444"><ele>251.0</ele><time>2026-03-30T09:52:56.999Z</time></trkpt><trkpt lat="46.1392082644559" lon="12.691085868849425"><ele>251.00000000000003</ele><time>2026-03-30T09:52:57.999Z</time></trkpt><trkpt lat="46.13911478485224" lon="12.691157710331186"><ele>251.00000000000003</ele><time>2026-03-30T09:52:59.999Z</time></trkpt><trkpt lat="46.139018333418825" lon="12.69117836161424"><ele>251.0</ele><time>2026-03-30T09:53:01.999Z</time></trkpt><trkpt lat="46.138911748182835" lon="12.691234653523235"><ele>251.0</ele><time>2026-03-30T09:53:03.999Z</time></trkpt><trkpt lat="46.13883357258952" lon="12.691340744955168"><ele>250.33333333333334</ele><time>2026-03-30T09:53:05.999Z</time></trkpt><trkpt lat="46.138774281798604" lon="12.691385961536174"><ele>249.66666666666669</ele><time>2026-03-30T09:53:06.999Z</time></trkpt><trkpt lat="46.138694187482315" lon="12.691434920184356"><ele>249.0</ele><time>2026-03-30T09:53:07.999Z</time></trkpt><trkpt lat="46.138609663365536" lon="12.69151436141454"><ele>248.33333333333331</ele><time>2026-03-30T09:53:08.999Z</time></trkpt><trkpt lat="46.13854235089167" lon="12.6915696184738"><ele>247.66666666666666</ele><time>2026-03-30T09:53:09.999Z</time></trkpt><trkpt lat="46.13845424846356" lon="12.6916151224705"><ele>247.0</ele><time>2026-03-30T09:53:10.999Z</time></trkpt><trkpt lat="46.13835473132913" lon="12.691670445674571"><ele>247.0</ele><time>2026-03-30T09:53:11.999Z</time></trkpt><trkpt lat="46.1382626508248" lon="12.691724539415203"><ele>247.0</ele><time>2026-03-30T09:53:12.999Z</time></trkpt><trkpt lat="46.1382002512763" lon="12.691791072632093"><ele>247.0</ele><time>2026-03-30T09:53:13.999Z</time></trkpt><trkpt lat="46.138112785301104" lon="12.691837202357618"><ele>247.0</ele><time>2026-03-30T09:53:14.999Z</time></trkpt><trkpt lat="46.13800926842018" lon="12.691827069539656"><ele>247.0</ele><time>2026-03-30T09:53:15.999Z</time></trkpt><trkpt lat="46.13790933353654" lon="12.691858366229393"><ele>246.6</ele><time>2026-03-30T09:53:16.999Z</time></trkpt><trkpt lat="46.13779744406783" lon="12.691886333026693"><ele>246.2</ele><time>2026-03-30T09:53:17.999Z</time></trkpt><trkpt lat="46.13771953263192" lon="12.691906448976159"><ele>245.8</ele><time>2026-03-30T09:53:18.999Z</time></trkpt><trkpt lat="46.13760052132211" lon="12.691963197778895"><ele>245.4</ele><time>2026-03-30T09:53:20.999Z</time></trkpt><trkpt lat="46.13753290269788" lon="12.692001773023865"><ele>245.0</ele><time>2026-03-30T09:53:21.999Z</time></trkpt><trkpt lat="46.137456485728215" lon="12.692010001315118"><ele>245.0</ele><time>2026-03-30T09:53:23Z</time></trkpt><trkpt lat="46.1373782038916" lon="12.691996306951129"><ele>245.0</ele><time>2026-03-30T09:53:24Z</time></trkpt><trkpt lat="46.13731278127122" lon="12.69201324732381"><ele>245.0</ele><time>2026-03-30T09:53:25Z</time></trkpt><trkpt lat="46.137252040825224" lon="12.691953209581438"><ele>245.0</ele><time>2026-03-30T09:53:27Z</time></trkpt><trkpt lat="46.137233546827105" lon="12.691865559940785"><ele>245.0</ele><time>2026-03-30T09:53:28Z</time></trkpt><trkpt lat="46.13721320442235" lon="12.69175553656437"><ele>245.0</ele><time>2026-03-30T09:53:29Z</time></trkpt><trkpt lat="46.137189805472744" lon="12.69164114034181"><ele>245.0</ele><time>2026-03-30T09:53:30Z</time></trkpt><trkpt lat="46.137158854307614" lon="12.691553964048142"><ele>245.00000000000003</ele><time>2026-03-30T09:53:31Z</time></trkpt><trkpt lat="46.13711157266959" lon="12.691452730480165"><ele>245.0</ele><time>2026-03-30T09:53:32Z</time></trkpt><trkpt lat="46.13706852640538" lon="12.691331014633459"><ele>245.0</ele><time>2026-03-30T09:53:33Z</time></trkpt><trkpt lat="46.13704253851345" lon="12.691228575464027"><ele>245.0</ele><time>2026-03-30T09:53:34Z</time></trkpt><trkpt lat="46.1369841545549" lon="12.691103144662794"><ele>245.00000000000003</ele><time>2026-03-30T09:53:36Z</time></trkpt><trkpt lat="46.136942365749555" lon="12.691028823143753"><ele>245.0</ele><time>2026-03-30T09:53:37Z</time></trkpt><trkpt lat="46.13691191354245" lon="12.69086161398713"><ele>244.83333333333334</ele><time>2026-03-30T09:53:39Z</time></trkpt><trkpt lat="46.136878116818444" lon="12.690763553825315"><ele>244.66666666666669</ele><time>2026-03-30T09:53:40Z</time></trkpt><trkpt lat="46.136840353154476" lon="12.690671647122596"><ele>244.5</ele><time>2026-03-30T09:53:41Z</time></trkpt><trkpt lat="46.13680620631238" lon="12.690583425132134"><ele>244.33333333333331</ele><time>2026-03-30T09:53:42Z</time></trkpt><trkpt lat="46.136699449768635" lon="12.690493997567593"><ele>244.16666666666666</ele><time>2026-03-30T09:53:44Z</time></trkpt><trkpt lat="46.13662474403089" lon="12.690463711797962"><ele>244.0</ele><time>2026-03-30T09:53:45Z</time></trkpt><trkpt lat="46.13654648056929" lon="12.690429246401731"><ele>243.83333333333331</ele><time>2026-03-30T09:53:46Z</time></trkpt><trkpt lat="46.136461290078245" lon="12.6903872929467"><ele>243.66666666666666</ele><time>2026-03-30T09:53:47Z</time></trkpt><trkpt lat="46.13639390225841" lon="12.690334338227993"><ele>243.5</ele><time>2026-03-30T09:53:48Z</time></trkpt><trkpt lat="46.13627035049207" lon="12.69027710814064"><ele>243.33333333333331</ele><time>2026-03-30T09:53:50Z</time></trkpt><trkpt lat="46.13621991263608" lon="12.690211133792435"><ele>243.16666666666666</ele><time>2026-03-30T09:53:51Z</time></trkpt><trkpt lat="46.1361837454312" lon="12.690125122379088"><ele>243.0</ele><time>2026-03-30T09:53:52Z</time></trkpt><trkpt lat="46.13613475528684" lon="12.690038930479941"><ele>242.8</ele><time>2026-03-30T09:53:53Z</time></trkpt><trkpt lat="46.1360724947125" lon="12.68994309436118"><ele>242.60000000000002</ele><time>2026-03-30T09:53:54Z</time></trkpt><trkpt lat="46.13601772476139" lon="12.689878246347641"><ele>242.39999999999998</ele><time>2026-03-30T09:53:55Z</time></trkpt><trkpt lat="46.13590114160359" lon="12.689845735526017"><ele>242.2</ele><time>2026-03-30T09:53:57Z</time></trkpt><trkpt lat="46.13579993951729" lon="12.68979561405462"><ele>242.0</ele><time>2026-03-30T09:53:59Z</time></trkpt><trkpt lat="46.13574042088091" lon="12.689707968540915"><ele>241.83333333333334</ele><time>2026-03-30T09:54:01Z</time></trkpt><trkpt lat="46.1356425038226" lon="12.689640335979012"><ele>241.66666666666669</ele><time>2026-03-30T09:54:03Z</time></trkpt><trkpt lat="46.135568184042285" lon="12.689578133682016"><ele>241.5</ele><time>2026-03-30T09:54:05Z</time></trkpt><trkpt lat="46.13550791639049" lon="12.689501433455922"><ele>241.33333333333331</ele><time>2026-03-30T09:54:07Z</time></trkpt><trkpt lat="46.13542947497582" lon="12.689450496088815"><ele>241.16666666666666</ele><time>2026-03-30T09:54:09Z</time></trkpt><trkpt lat="46.13534371817402" lon="12.689434181134901"><ele>241.0</ele><time>2026-03-30T09:54:11Z</time></trkpt><trkpt lat="46.13541061579482" lon="12.689419161539139"><ele>240.99999999999997</ele><time>2026-03-30T09:57:37Z</time></trkpt><trkpt lat="46.13545949503864" lon="12.689486625139908"><ele>241.0</ele><time>2026-03-30T09:57:39Z</time></trkpt><trkpt lat="46.13555171526623" lon="12.689569462478186"><ele>241.0</ele><time>2026-03-30T09:57:42Z</time></trkpt><trkpt lat="46.135508759770374" lon="12.689656597853356"><ele>241.0</ele><time>2026-03-30T09:57:58Z</time></trkpt><trkpt lat="46.13546129171185" lon="12.689732257408686"><ele>240.99999999999997</ele><time>2026-03-30T09:58:01Z</time></trkpt><trkpt lat="46.13537062030144" lon="12.68966877961531"><ele>241.0</ele><time>2026-03-30T09:58:05.001Z</time></trkpt><trkpt lat="46.13534204531052" lon="12.689586830288972"><ele>240.99999999999997</ele><time>2026-03-30T09:58:08.001Z</time></trkpt><trkpt lat="46.135306327395085" lon="12.689465908269206"><ele>241.0</ele><time>2026-03-30T09:58:11.001Z</time></trkpt><trkpt lat="46.13523434491071" lon="12.689415402811372"><ele>241.0</ele><time>2026-03-30T09:58:13.001Z</time></trkpt><trkpt lat="46.13516308422315" lon="12.689396984595781"><ele>241.0</ele><time>2026-03-30T09:58:15.001Z</time></trkpt><trkpt lat="46.135078609063115" lon="12.689364331340649"><ele>240.99999999999997</ele><time>2026-03-30T09:58:17.001Z</time></trkpt><trkpt lat="46.13500036513736" lon="12.689377068630131"><ele>241.0</ele><time>2026-03-30T09:58:19.001Z</time></trkpt><trkpt lat="46.13491800316974" lon="12.68941380138794"><ele>240.8</ele><time>2026-03-30T09:58:21.001Z</time></trkpt><trkpt lat="46.1348341001638" lon="12.68946287907428"><ele>240.60000000000002</ele><time>2026-03-30T09:58:23.001Z</time></trkpt><trkpt lat="46.13474190059336" lon="12.689511516708137"><ele>240.4</ele><time>2026-03-30T09:58:25.001Z</time></trkpt><trkpt lat="46.13464409277169" lon="12.689549699562425"><ele>240.2</ele><time>2026-03-30T09:58:27.001Z</time></trkpt><trkpt lat="46.1345503647735" lon="12.68957406371554"><ele>240.0</ele><time>2026-03-30T09:58:29.001Z</time></trkpt><trkpt lat="46.13447025480994" lon="12.689597401739837"><ele>240.0</ele><time>2026-03-30T09:58:31.001Z</time></trkpt><trkpt lat="46.1343651509176" lon="12.689624311686071"><ele>240.0</ele><time>2026-03-30T09:58:33.001Z</time></trkpt><trkpt lat="46.1342400636949" lon="12.689652898595574"><ele>240.0</ele><time>2026-03-30T09:58:35.001Z</time></trkpt><trkpt lat="46.13416125409027" lon="12.689672071353117"><ele>240.0</ele><time>2026-03-30T09:58:36.001Z</time></trkpt><trkpt lat="46.134044426590826" lon="12.689707752628316"><ele>240.0</ele><time>2026-03-30T09:58:38.001Z</time></trkpt><trkpt lat="46.133976878943415" lon="12.689723902250444"><ele>239.6</ele><time>2026-03-30T09:58:39.001Z</time></trkpt><trkpt lat="46.13391117318203" lon="12.68973245398098"><ele>239.2</ele><time>2026-03-30T09:58:40.001Z</time></trkpt><trkpt lat="46.13379584897577" lon="12.689746856545057"><ele>238.8</ele><time>2026-03-30T09:58:42.001Z</time></trkpt><trkpt lat="46.133681773564504" lon="12.689765566190951"><ele>238.4</ele><time>2026-03-30T09:58:44.001Z</time></trkpt><trkpt lat="46.13356460049759" lon="12.689825524647752"><ele>238.0</ele><time>2026-03-30T09:58:46Z</time></trkpt><trkpt lat="46.13348163903163" lon="12.68987244915559"><ele>237.99999999999997</ele><time>2026-03-30T09:58:48Z</time></trkpt><trkpt lat="46.13340991571722" lon="12.689876344589013"><ele>238.0</ele><time>2026-03-30T09:58:50Z</time></trkpt><trkpt lat="46.13331126394008" lon="12.689817513649063"><ele>238.0</ele><time>2026-03-30T09:58:52Z</time></trkpt><trkpt lat="46.13326533623856" lon="12.68974243447154"><ele>238.0</ele><time>2026-03-30T09:58:54Z</time></trkpt><trkpt lat="46.13324880034655" lon="12.689626922172083"><ele>237.99999999999997</ele><time>2026-03-30T09:58:56Z</time></trkpt><trkpt lat="46.13324036053004" lon="12.689520483327282"><ele>238.0</ele><time>2026-03-30T09:58:58Z</time></trkpt><trkpt lat="46.13323980712188" lon="12.689375176412584"><ele>238.2</ele><time>2026-03-30T09:59:00Z</time></trkpt><trkpt lat="46.1332414442637" lon="12.689256675752775"><ele>238.4</ele><time>2026-03-30T09:59:02Z</time></trkpt><trkpt lat="46.13326642497218" lon="12.689107974765205"><ele>238.59999999999997</ele><time>2026-03-30T09:59:04Z</time></trkpt><trkpt lat="46.13327672680867" lon="12.688966842228718"><ele>238.79999999999998</ele><time>2026-03-30T09:59:06Z</time></trkpt><trkpt lat="46.13329660416101" lon="12.688847513658283"><ele>239.0</ele><time>2026-03-30T09:59:08Z</time></trkpt><trkpt lat="46.13334244159645" lon="12.68872101629728"><ele>239.0</ele><time>2026-03-30T09:59:10Z</time></trkpt><trkpt lat="46.13341370876747" lon="12.688577772558578"><ele>239.0</ele><time>2026-03-30T09:59:12Z</time></trkpt><trkpt lat="46.13348333334689" lon="12.688442197374775"><ele>239.0</ele><time>2026-03-30T09:59:14Z</time></trkpt><trkpt lat="46.133538537491475" lon="12.6883060831108"><ele>239.0</ele><time>2026-03-30T09:59:16Z</time></trkpt><trkpt lat="46.13357633378465" lon="12.688167748919426"><ele>239.00000000000003</ele><time>2026-03-30T09:59:18Z</time></trkpt><trkpt lat="46.13357906640201" lon="12.68804309751906"><ele>239.0</ele><time>2026-03-30T09:59:20Z</time></trkpt><trkpt lat="46.1335664573419" lon="12.68793766298933"><ele>239.0</ele><time>2026-03-30T09:59:22Z</time></trkpt><trkpt lat="46.13355565943363" lon="12.687813320972898"><ele>239.0</ele><time>2026-03-30T09:59:24Z</time></trkpt><trkpt lat="46.13349414977731" lon="12.687757117202343"><ele>239.00000000000003</ele><time>2026-03-30T09:59:27Z</time></trkpt><trkpt lat="46.13341714288835" lon="12.68780031825307"><ele>239.0</ele><time>2026-03-30T09:59:29Z</time></trkpt><trkpt lat="46.13336227971234" lon="12.687855969660804"><ele>239.0</ele><time>2026-03-30T09:59:30Z</time></trkpt><trkpt lat="46.13326473454327" lon="12.68792208150654"><ele>238.99999999999997</ele><time>2026-03-30T09:59:32Z</time></trkpt><trkpt lat="46.1331975193667" lon="12.687953587647176"><ele>238.99999999999997</ele><time>2026-03-30T09:59:33Z</time></trkpt><trkpt lat="46.1331281352171" lon="12.687986277346907"><ele>239.0</ele><time>2026-03-30T09:59:34Z</time></trkpt><trkpt lat="46.13303279721651" lon="12.688028164246587"><ele>239.0</ele><time>2026-03-30T09:59:36Z</time></trkpt><trkpt lat="46.132926923815546" lon="12.688019854183196"><ele>239.0</ele><time>2026-03-30T09:59:38Z</time></trkpt><trkpt lat="46.13283765004771" lon="12.688002275570787"><ele>238.99999999999997</ele><time>2026-03-30T09:59:40Z</time></trkpt><trkpt lat="46.13275843034683" lon="12.687996435042635"><ele>238.99999999999997</ele><time>2026-03-30T09:59:42Z</time></trkpt><trkpt lat="46.13266811803413" lon="12.687989196785221"><ele>239.0</ele><time>2026-03-30T09:59:44Z</time></trkpt><trkpt lat="46.13255091874827" lon="12.688008503637581"><ele>239.0</ele><time>2026-03-30T09:59:46Z</time></trkpt><trkpt lat="46.13243774990299" lon="12.68800811354552"><ele>238.79999999999998</ele><time>2026-03-30T09:59:48Z</time></trkpt><trkpt lat="46.13236481412001" lon="12.688008672507507"><ele>238.59999999999997</ele><time>2026-03-30T09:59:50Z</time></trkpt><trkpt lat="46.13235701442745" lon="12.687900830656023"><ele>238.4</ele><time>2026-03-30T09:59:53Z</time></trkpt><trkpt lat="46.13234010258053" lon="12.687778077917294"><ele>238.2</ele><time>2026-03-30T09:59:56Z</time></trkpt><trkpt lat="46.13226673138623" lon="12.687701636003018"><ele>238.0</ele><time>2026-03-30T09:59:58Z</time></trkpt><trkpt lat="46.13213418935378" lon="12.687711075819708"><ele>238.0</ele><time>2026-03-30T10:00:00Z</time></trkpt><trkpt lat="46.13204575676224" lon="12.68774896003901"><ele>238.0</ele><time>2026-03-30T10:00:01.001Z</time></trkpt><trkpt lat="46.13192954537713" lon="12.68778271914805"><ele>238.0</ele><time>2026-03-30T10:00:02.001Z</time></trkpt><trkpt lat="46.13182845337672" lon="12.687785827925843"><ele>238.0</ele><time>2026-03-30T10:00:03.001Z</time></trkpt><trkpt lat="46.1317533010921" lon="12.687785933069437"><ele>238.0</ele><time>2026-03-30T10:00:04.001Z</time></trkpt><trkpt lat="46.13168432120854" lon="12.687788783066777"><ele>237.85714285714286</ele><time>2026-03-30T10:00:05.001Z</time></trkpt><trkpt lat="46.13161829621769" lon="12.68778400228515"><ele>237.71428571428572</ele><time>2026-03-30T10:00:06.001Z</time></trkpt><trkpt lat="46.13153946058535" lon="12.687767213543701"><ele>237.57142857142856</ele><time>2026-03-30T10:00:07.001Z</time></trkpt><trkpt lat="46.13145626114476" lon="12.687752995017311"><ele>237.42857142857142</ele><time>2026-03-30T10:00:08.001Z</time></trkpt><trkpt lat="46.13138773533968" lon="12.687729541084705"><ele>237.28571428571428</ele><time>2026-03-30T10:00:09.001Z</time></trkpt><trkpt lat="46.131332562449074" lon="12.68768532746894"><ele>237.1428571428571</ele><time>2026-03-30T10:00:10.001Z</time></trkpt><trkpt lat="46.13127474077422" lon="12.687619153507983"><ele>236.99999999999997</ele><time>2026-03-30T10:00:11.001Z</time></trkpt><trkpt lat="46.13118015937797" lon="12.687511102077544"><ele>237.5</ele><time>2026-03-30T10:00:13.001Z</time></trkpt><trkpt lat="46.131080980546216" lon="12.687438431196059"><ele>238.0</ele><time>2026-03-30T10:00:15.001Z</time></trkpt><trkpt lat="46.13102661239245" lon="12.687386863528655"><ele>238.5</ele><time>2026-03-30T10:00:17.001Z</time></trkpt><trkpt lat="46.130983259899324" lon="12.687309212673687"><ele>239.0</ele><time>2026-03-30T10:00:20.001Z</time></trkpt><trkpt lat="46.13095301555025" lon="12.687163701635406"><ele>239.5</ele><time>2026-03-30T10:00:22.001Z</time></trkpt><trkpt lat="46.13095620989999" lon="12.687059454191914"><ele>240.0</ele><time>2026-03-30T10:00:23.001Z</time></trkpt><trkpt lat="46.130983724842345" lon="12.68692005184903"><ele>240.0</ele><time>2026-03-30T10:00:24.001Z</time></trkpt><trkpt lat="46.1310177527848" lon="12.686742122958718"><ele>240.0</ele><time>2026-03-30T10:00:25.001Z</time></trkpt><trkpt lat="46.13105226174307" lon="12.6865498534027"><ele>240.0</ele><time>2026-03-30T10:00:26.001Z</time></trkpt><trkpt lat="46.1310743646995" lon="12.68639424007704"><ele>240.0</ele><time>2026-03-30T10:00:27.001Z</time></trkpt><trkpt lat="46.13109128427614" lon="12.686265961788008"><ele>240.0</ele><time>2026-03-30T10:00:28.001Z</time></trkpt><trkpt lat="46.131106095396454" lon="12.686147392317144"><ele>240.0</ele><time>2026-03-30T10:00:29.001Z</time></trkpt><trkpt lat="46.13111812239502" lon="12.686039615856819"><ele>240.0</ele><time>2026-03-30T10:00:30.001Z</time></trkpt><trkpt lat="46.13116719921876" lon="12.685944043784874"><ele>240.0</ele><time>2026-03-30T10:00:31.001Z</time></trkpt><trkpt lat="46.13116355905179" lon="12.685780105677745"><ele>240.0</ele><time>2026-03-30T10:00:33.001Z</time></trkpt><trkpt lat="46.13116105707694" lon="12.685686977821364"><ele>240.0</ele><time>2026-03-30T10:00:35.001Z</time></trkpt><trkpt lat="46.13090097926226" lon="12.68564860898012"><ele>240.2</ele><time>2026-03-30T10:00:37.001Z</time></trkpt><trkpt lat="46.13083791274349" lon="12.685635075070591"><ele>240.4</ele><time>2026-03-30T10:00:38.001Z</time></trkpt><trkpt lat="46.13075300919012" lon="12.685496740974823"><ele>240.60000000000002</ele><time>2026-03-30T10:00:40.001Z</time></trkpt><trkpt lat="46.13070487914387" lon="12.685350757691475"><ele>240.8</ele><time>2026-03-30T10:00:42.001Z</time></trkpt><trkpt lat="46.13064164573675" lon="12.685188539291245"><ele>241.0</ele><time>2026-03-30T10:00:44.001Z</time></trkpt><trkpt lat="46.13057857215495" lon="12.685057053370107"><ele>241.4</ele><time>2026-03-30T10:00:46.001Z</time></trkpt><trkpt lat="46.1305032523432" lon="12.684943266037713"><ele>241.8</ele><time>2026-03-30T10:00:48.001Z</time></trkpt><trkpt lat="46.13043227576348" lon="12.684804944038305"><ele>242.20000000000002</ele><time>2026-03-30T10:00:50.001Z</time></trkpt><trkpt lat="46.13039405849014" lon="12.684717778116843"><ele>242.60000000000002</ele><time>2026-03-30T10:00:51Z</time></trkpt><trkpt lat="46.13032650256142" lon="12.68464686133135"><ele>243.0</ele><time>2026-03-30T10:00:52Z</time></trkpt><trkpt lat="46.13024403922531" lon="12.68462875953428"><ele>243.0</ele><time>2026-03-30T10:00:53Z</time></trkpt><trkpt lat="46.13016519402686" lon="12.684647295050123"><ele>243.0</ele><time>2026-03-30T10:00:54Z</time></trkpt><trkpt lat="46.13007555327941" lon="12.684694763179849"><ele>243.0</ele><time>2026-03-30T10:00:55Z</time></trkpt><trkpt lat="46.129984416366256" lon="12.684784296756881"><ele>243.0</ele><time>2026-03-30T10:00:56Z</time></trkpt><trkpt lat="46.129905813271094" lon="12.684871010242647"><ele>243.0</ele><time>2026-03-30T10:00:57Z</time></trkpt><trkpt lat="46.12981765605202" lon="12.684926987410789"><ele>244.4</ele><time>2026-03-30T10:00:58Z</time></trkpt><trkpt lat="46.12973911981692" lon="12.684967527339628"><ele>245.8</ele><time>2026-03-30T10:00:59Z</time></trkpt><trkpt lat="46.129642466166175" lon="12.685027452553541"><ele>247.2</ele><time>2026-03-30T10:01:00Z</time></trkpt><trkpt lat="46.12952987428482" lon="12.685104583107869"><ele>248.6</ele><time>2026-03-30T10:01:01Z</time></trkpt><trkpt lat="46.12942193422543" lon="12.68518143762041"><ele>250.0</ele><time>2026-03-30T10:01:02Z</time></trkpt><trkpt lat="46.12933604375235" lon="12.685239433542877"><ele>248.66666666666666</ele><time>2026-03-30T10:01:03Z</time></trkpt><trkpt lat="46.12925760213759" lon="12.6852946086633"><ele>247.33333333333331</ele><time>2026-03-30T10:01:04Z</time></trkpt><trkpt lat="46.129178346161204" lon="12.685345970247633"><ele>246.0</ele><time>2026-03-30T10:01:05Z</time></trkpt><trkpt lat="46.129107266258295" lon="12.685390003916915"><ele>244.66666666666669</ele><time>2026-03-30T10:01:06Z</time></trkpt><trkpt lat="46.12904269595309" lon="12.685430979807395"><ele>243.33333333333334</ele><time>2026-03-30T10:01:07Z</time></trkpt><trkpt lat="46.12897264638733" lon="12.685477256234842"><ele>242.0</ele><time>2026-03-30T10:01:08Z</time></trkpt><trkpt lat="46.12890666748619" lon="12.685521151583087"><ele>242.0</ele><time>2026-03-30T10:01:09Z</time></trkpt><trkpt lat="46.128843752508224" lon="12.685563097039818"><ele>241.99999999999997</ele><time>2026-03-30T10:01:10Z</time></trkpt><trkpt lat="46.12877898721699" lon="12.68559682113509"><ele>242.0</ele><time>2026-03-30T10:01:11Z</time></trkpt><trkpt lat="46.12870309430531" lon="12.685640765764424"><ele>242.0</ele><time>2026-03-30T10:01:12Z</time></trkpt><trkpt lat="46.128632004810264" lon="12.685677466393726"><ele>241.99999999999997</ele><time>2026-03-30T10:01:13Z</time></trkpt><trkpt lat="46.128569078829386" lon="12.685710475410481"><ele>242.0</ele><time>2026-03-30T10:01:14Z</time></trkpt><trkpt lat="46.12850271911317" lon="12.685765962040865"><ele>242.0</ele><time>2026-03-30T10:01:15Z</time></trkpt><trkpt lat="46.12843611243923" lon="12.685826235158341"><ele>242.0</ele><time>2026-03-30T10:01:16Z</time></trkpt><trkpt lat="46.12837726861346" lon="12.685881426267294"><ele>241.99999999999997</ele><time>2026-03-30T10:01:17Z</time></trkpt><trkpt lat="46.12832162253051" lon="12.68593131043356"><ele>242.0</ele><time>2026-03-30T10:01:18Z</time></trkpt><trkpt lat="46.1282616557123" lon="12.68597215645802"><ele>242.0</ele><time>2026-03-30T10:01:19Z</time></trkpt><trkpt lat="46.12819915487148" lon="12.685990298426233"><ele>241.99999999999997</ele><time>2026-03-30T10:01:20Z</time></trkpt><trkpt lat="46.128127497837035" lon="12.686010840354081"><ele>242.0</ele><time>2026-03-30T10:01:21Z</time></trkpt><trkpt lat="46.128050832730054" lon="12.68604808401297"><ele>242.0</ele><time>2026-03-30T10:01:22Z</time></trkpt><trkpt lat="46.12797312621153" lon="12.686092703416348"><ele>241.83333333333334</ele><time>2026-03-30T10:01:23Z</time></trkpt><trkpt lat="46.12790421323681" lon="12.686140057413937"><ele>241.66666666666669</ele><time>2026-03-30T10:01:24Z</time></trkpt><trkpt lat="46.12783140078378" lon="12.686191316804555"><ele>241.5</ele><time>2026-03-30T10:01:25Z</time></trkpt><trkpt lat="46.127760998284394" lon="12.686234645558148"><ele>241.33333333333331</ele><time>2026-03-30T10:01:26Z</time></trkpt><trkpt lat="46.1276949238453" lon="12.686276498071448"><ele>241.16666666666666</ele><time>2026-03-30T10:01:27Z</time></trkpt><trkpt lat="46.127630131736396" lon="12.686320124399577"><ele>241.0</ele><time>2026-03-30T10:01:28Z</time></trkpt><trkpt lat="46.12756420652637" lon="12.686365642063896"><ele>240.99999999999997</ele><time>2026-03-30T10:01:29Z</time></trkpt><trkpt lat="46.12749634256417" lon="12.686415104747333"><ele>241.0</ele><time>2026-03-30T10:01:30Z</time></trkpt><trkpt lat="46.127423464058005" lon="12.686466966913358"><ele>241.0</ele><time>2026-03-30T10:01:31Z</time></trkpt><trkpt lat="46.1273516328777" lon="12.686518680989058"><ele>241.0</ele><time>2026-03-30T10:01:32Z</time></trkpt><trkpt lat="46.12728200391614" lon="12.68656939271551"><ele>240.99999999999997</ele><time>2026-03-30T10:01:33Z</time></trkpt><trkpt lat="46.12721552187384" lon="12.6866215733422"><ele>241.0</ele><time>2026-03-30T10:01:34Z</time></trkpt><trkpt lat="46.12715174228585" lon="12.686669642558783"><ele>240.16666666666666</ele><time>2026-03-30T10:01:35Z</time></trkpt><trkpt lat="46.12708005399497" lon="12.686724206931386"><ele>239.33333333333331</ele><time>2026-03-30T10:01:36Z</time></trkpt><trkpt lat="46.127005054223076" lon="12.686775052530278"><ele>238.5</ele><time>2026-03-30T10:01:37Z</time></trkpt><trkpt lat="46.12693180918891" lon="12.68682412410099"><ele>237.66666666666669</ele><time>2026-03-30T10:01:38Z</time></trkpt><trkpt lat="46.12685501737461" lon="12.68688386384581"><ele>236.83333333333334</ele><time>2026-03-30T10:01:39Z</time></trkpt><trkpt lat="46.126780616934475" lon="12.686938772961808"><ele>236.0</ele><time>2026-03-30T10:01:40Z</time></trkpt><trkpt lat="46.12671299333205" lon="12.686989500667627"><ele>236.00000000000003</ele><time>2026-03-30T10:01:41Z</time></trkpt><trkpt lat="46.12665223278944" lon="12.687039114087682"><ele>236.0</ele><time>2026-03-30T10:01:42Z</time></trkpt><trkpt lat="46.126597765817735" lon="12.687086054374763"><ele>236.0</ele><time>2026-03-30T10:01:43Z</time></trkpt><trkpt lat="46.12648067583662" lon="12.687179812052927"><ele>236.0</ele><time>2026-03-30T10:01:45Z</time></trkpt><trkpt lat="46.12641388972091" lon="12.687233208594385"><ele>236.00000000000003</ele><time>2026-03-30T10:01:46Z</time></trkpt><trkpt lat="46.126344940493944" lon="12.687287006996302"><ele>236.0</ele><time>2026-03-30T10:01:47Z</time></trkpt><trkpt lat="46.126275467183994" lon="12.687336036723243"><ele>237.16666666666669</ele><time>2026-03-30T10:01:48Z</time></trkpt><trkpt lat="46.126201456951854" lon="12.687396448851889"><ele>238.33333333333334</ele><time>2026-03-30T10:01:49Z</time></trkpt><trkpt lat="46.12613192221513" lon="12.687452917699435"><ele>239.5</ele><time>2026-03-30T10:01:50Z</time></trkpt><trkpt lat="46.12606248104977" lon="12.687505746543275"><ele>240.66666666666669</ele><time>2026-03-30T10:01:51Z</time></trkpt><trkpt lat="46.12599578399874" lon="12.68755967293197"><ele>241.83333333333334</ele><time>2026-03-30T10:01:52Z</time></trkpt><trkpt lat="46.1259261057645" lon="12.6876147491393"><ele>243.0</ele><time>2026-03-30T10:01:53Z</time></trkpt><trkpt lat="46.12585372950371" lon="12.687671169667565"><ele>243.0</ele><time>2026-03-30T10:01:54Z</time></trkpt><trkpt lat="46.125780363510096" lon="12.68772740846663"><ele>243.0</ele><time>2026-03-30T10:01:55Z</time></trkpt><trkpt lat="46.125706165057125" lon="12.687780116956752"><ele>243.0</ele><time>2026-03-30T10:01:56Z</time></trkpt><trkpt lat="46.125640296653025" lon="12.687826909605082"><ele>243.0</ele><time>2026-03-30T10:01:57Z</time></trkpt><trkpt lat="46.125573440917684" lon="12.687873691671411"><ele>243.0</ele><time>2026-03-30T10:01:58Z</time></trkpt><trkpt lat="46.12549883469754" lon="12.687917653401112"><ele>243.0</ele><time>2026-03-30T10:01:59Z</time></trkpt><trkpt lat="46.12541844374824" lon="12.687958066707358"><ele>242.33333333333334</ele><time>2026-03-30T10:02:00Z</time></trkpt><trkpt lat="46.1253415143168" lon="12.687992396588637"><ele>241.66666666666669</ele><time>2026-03-30T10:02:01Z</time></trkpt><trkpt lat="46.125266131810605" lon="12.688022738647346"><ele>241.0</ele><time>2026-03-30T10:02:02Z</time></trkpt><trkpt lat="46.12519858410373" lon="12.688053642453875"><ele>240.33333333333334</ele><time>2026-03-30T10:02:03Z</time></trkpt><trkpt lat="46.125131003555424" lon="12.68809325572869"><ele>239.66666666666669</ele><time>2026-03-30T10:02:04Z</time></trkpt><trkpt lat="46.12506125592522" lon="12.68814115464295"><ele>239.0</ele><time>2026-03-30T10:02:05Z</time></trkpt><trkpt lat="46.124987760044874" lon="12.688187671822604"><ele>239.00000000000003</ele><time>2026-03-30T10:02:06Z</time></trkpt><trkpt lat="46.12491724984288" lon="12.688234916952311"><ele>239.0</ele><time>2026-03-30T10:02:07Z</time></trkpt><trkpt lat="46.12485949642945" lon="12.688285249120385"><ele>239.0</ele><time>2026-03-30T10:02:08Z</time></trkpt><trkpt lat="46.1248017277044" lon="12.68833528448942"><ele>239.0</ele><time>2026-03-30T10:02:09Z</time></trkpt><trkpt lat="46.12474055745591" lon="12.688367817881625"><ele>239.00000000000003</ele><time>2026-03-30T10:02:10Z</time></trkpt><trkpt lat="46.124660560777706" lon="12.68841650625856"><ele>239.0</ele><time>2026-03-30T10:02:11Z</time></trkpt><trkpt lat="46.12457490125395" lon="12.68845982217641"><ele>238.66666666666669</ele><time>2026-03-30T10:02:12Z</time></trkpt><trkpt lat="46.124498238103605" lon="12.68849858304722"><ele>238.33333333333334</ele><time>2026-03-30T10:02:13Z</time></trkpt><trkpt lat="46.1244286333198" lon="12.68854081805844"><ele>238.0</ele><time>2026-03-30T10:02:14Z</time></trkpt><trkpt lat="46.1243185846943" lon="12.688624022944381"><ele>237.66666666666669</ele><time>2026-03-30T10:02:16Z</time></trkpt><trkpt lat="46.12425840072753" lon="12.688667919891119"><ele>237.33333333333334</ele><time>2026-03-30T10:02:17Z</time></trkpt><trkpt lat="46.12418672674737" lon="12.68871785700917"><ele>237.0</ele><time>2026-03-30T10:02:18Z</time></trkpt><trkpt lat="46.124123186273096" lon="12.688757597609415"><ele>237.5</ele><time>2026-03-30T10:02:19Z</time></trkpt><trkpt lat="46.124019897734875" lon="12.688827779705436"><ele>238.0</ele><time>2026-03-30T10:02:21Z</time></trkpt><trkpt lat="46.1239549844818" lon="12.688884025678053"><ele>238.5</ele><time>2026-03-30T10:02:22Z</time></trkpt><trkpt lat="46.1238842767267" lon="12.688934431112989"><ele>239.0</ele><time>2026-03-30T10:02:23Z</time></trkpt><trkpt lat="46.12381343734622" lon="12.688978732414206"><ele>239.5</ele><time>2026-03-30T10:02:24Z</time></trkpt><trkpt lat="46.12374609773509" lon="12.689023242925966"><ele>240.0</ele><time>2026-03-30T10:02:25Z</time></trkpt><trkpt lat="46.1236719239201" lon="12.689076193412026"><ele>240.0</ele><time>2026-03-30T10:02:26.001Z</time></trkpt><trkpt lat="46.12359928324605" lon="12.689133986010228"><ele>240.0</ele><time>2026-03-30T10:02:27.001Z</time></trkpt><trkpt lat="46.12351301426757" lon="12.68919921616687"><ele>240.0</ele><time>2026-03-30T10:02:28.001Z</time></trkpt><trkpt lat="46.123417726037964" lon="12.689268483831736"><ele>240.0</ele><time>2026-03-30T10:02:29.001Z</time></trkpt><trkpt lat="46.12332960477623" lon="12.68933699378608"><ele>240.0</ele><time>2026-03-30T10:02:30.001Z</time></trkpt><trkpt lat="46.12324213305157" lon="12.689401976675297"><ele>239.0</ele><time>2026-03-30T10:02:31.001Z</time></trkpt><trkpt lat="46.12316184332128" lon="12.689463105614987"><ele>238.0</ele><time>2026-03-30T10:02:32.001Z</time></trkpt><trkpt lat="46.1230871848673" lon="12.689522349649573"><ele>237.0</ele><time>2026-03-30T10:02:33.001Z</time></trkpt><trkpt lat="46.12301054743162" lon="12.689582838404943"><ele>236.0</ele><time>2026-03-30T10:02:34.001Z</time></trkpt><trkpt lat="46.12294201412625" lon="12.68963132638174"><ele>235.0</ele><time>2026-03-30T10:02:35.001Z</time></trkpt><trkpt lat="46.12287533605651" lon="12.68966919132733"><ele>234.0</ele><time>2026-03-30T10:02:36.001Z</time></trkpt><trkpt lat="46.12280910575976" lon="12.689712038363233"><ele>234.0</ele><time>2026-03-30T10:02:37.001Z</time></trkpt><trkpt lat="46.12273777450184" lon="12.689755426198738"><ele>234.0</ele><time>2026-03-30T10:02:38.001Z</time></trkpt><trkpt lat="46.12266657751644" lon="12.689808068620026"><ele>234.0</ele><time>2026-03-30T10:02:39.001Z</time></trkpt><trkpt lat="46.12258362119855" lon="12.689866308773938"><ele>234.0</ele><time>2026-03-30T10:02:40.001Z</time></trkpt><trkpt lat="46.12249616235302" lon="12.689930929409961"><ele>234.0</ele><time>2026-03-30T10:02:41.001Z</time></trkpt><trkpt lat="46.12242433127877" lon="12.690012801310518"><ele>234.0</ele><time>2026-03-30T10:02:42.001Z</time></trkpt><trkpt lat="46.122366453138724" lon="12.690112371385883"><ele>233.83333333333334</ele><time>2026-03-30T10:02:43.001Z</time></trkpt><trkpt lat="46.12231722399971" lon="12.690228582765346"><ele>233.66666666666669</ele><time>2026-03-30T10:02:44.001Z</time></trkpt><trkpt lat="46.12227160939082" lon="12.69033010470406"><ele>233.5</ele><time>2026-03-30T10:02:45.001Z</time></trkpt><trkpt lat="46.12221129035501" lon="12.690401250346575"><ele>233.33333333333334</ele><time>2026-03-30T10:02:46.001Z</time></trkpt><trkpt lat="46.12214320429988" lon="12.690465102998072"><ele>233.16666666666669</ele><time>2026-03-30T10:02:47.001Z</time></trkpt><trkpt lat="46.12207458180825" lon="12.690531826254283"><ele>233.0</ele><time>2026-03-30T10:02:48.001Z</time></trkpt><trkpt lat="46.12199544301929" lon="12.690591684838184"><ele>233.0</ele><time>2026-03-30T10:02:49.001Z</time></trkpt><trkpt lat="46.121913704994306" lon="12.690650868788614"><ele>233.0</ele><time>2026-03-30T10:02:50.001Z</time></trkpt><trkpt lat="46.12182794923547" lon="12.690719150543813"><ele>233.0</ele><time>2026-03-30T10:02:51.001Z</time></trkpt><trkpt lat="46.12174516934089" lon="12.69078605114853"><ele>233.0</ele><time>2026-03-30T10:02:52.001Z</time></trkpt><trkpt lat="46.12166925587522" lon="12.69085375730906"><ele>233.0</ele><time>2026-03-30T10:02:53.001Z</time></trkpt><trkpt lat="46.12160191596405" lon="12.690909291328477"><ele>232.8</ele><time>2026-03-30T10:02:54.001Z</time></trkpt><trkpt lat="46.121535337560786" lon="12.690971671314527"><ele>232.60000000000002</ele><time>2026-03-30T10:02:55.001Z</time></trkpt><trkpt lat="46.12144922936297" lon="12.691043328959177"><ele>232.39999999999998</ele><time>2026-03-30T10:02:56.001Z</time></trkpt><trkpt lat="46.121354607332314" lon="12.691112034921218"><ele>232.2</ele><time>2026-03-30T10:02:57Z</time></trkpt><trkpt lat="46.12124349624795" lon="12.69118266866293"><ele>232.0</ele><time>2026-03-30T10:02:58Z</time></trkpt><trkpt lat="46.121136778823725" lon="12.691252273332223"><ele>232.0</ele><time>2026-03-30T10:02:59Z</time></trkpt><trkpt lat="46.12102156899811" lon="12.69132728545093"><ele>232.0</ele><time>2026-03-30T10:03:00Z</time></trkpt><trkpt lat="46.120908432223736" lon="12.69140974668025"><ele>232.0</ele><time>2026-03-30T10:03:01Z</time></trkpt><trkpt lat="46.12079217192874" lon="12.691507167885444"><ele>232.0</ele><time>2026-03-30T10:03:02Z</time></trkpt><trkpt lat="46.120674147957395" lon="12.691615278333387"><ele>232.5</ele><time>2026-03-30T10:03:03Z</time></trkpt><trkpt lat="46.12054830396587" lon="12.69171947827502"><ele>233.0</ele><time>2026-03-30T10:03:04Z</time></trkpt><trkpt lat="46.12041520540869" lon="12.69181363974885"><ele>233.5</ele><time>2026-03-30T10:03:05Z</time></trkpt><trkpt lat="46.12027549656834" lon="12.691909565808514"><ele>234.0</ele><time>2026-03-30T10:03:06Z</time></trkpt><trkpt lat="46.120122377936084" lon="12.692015230971467"><ele>233.0</ele><time>2026-03-30T10:03:07Z</time></trkpt><trkpt lat="46.11996045787088" lon="12.692121140143621"><ele>232.0</ele><time>2026-03-30T10:03:08Z</time></trkpt><trkpt lat="46.11978020168625" lon="12.692242209021138"><ele>231.0</ele><time>2026-03-30T10:03:09Z</time></trkpt><trkpt lat="46.119582988601714" lon="12.692389144032951"><ele>231.0</ele><time>2026-03-30T10:03:10Z</time></trkpt><trkpt lat="46.11941765404625" lon="12.69251784777395"><ele>231.0</ele><time>2026-03-30T10:03:11Z</time></trkpt><trkpt lat="46.119255308284586" lon="12.692640746348214"><ele>231.0</ele><time>2026-03-30T10:03:12Z</time></trkpt><trkpt lat="46.119089138686" lon="12.692762248100637"><ele>230.0</ele><time>2026-03-30T10:03:13Z</time></trkpt><trkpt lat="46.118919285285386" lon="12.69289010015561"><ele>229.0</ele><time>2026-03-30T10:03:14Z</time></trkpt><trkpt lat="46.118758634617635" lon="12.693016206125774"><ele>228.0</ele><time>2026-03-30T10:03:15Z</time></trkpt><trkpt lat="46.118583544793495" lon="12.693161243666957"><ele>228.0</ele><time>2026-03-30T10:03:16Z</time></trkpt><trkpt lat="46.11841907521327" lon="12.693297368452624"><ele>228.0</ele><time>2026-03-30T10:03:17Z</time></trkpt><trkpt lat="46.11826375704523" lon="12.693425381962859"><ele>228.0</ele><time>2026-03-30T10:03:18Z</time></trkpt><trkpt lat="46.118099578615535" lon="12.693561001368062"><ele>227.0</ele><time>2026-03-30T10:03:19Z</time></trkpt><trkpt lat="46.11793903710175" lon="12.693692898527297"><ele>226.0</ele><time>2026-03-30T10:03:20Z</time></trkpt><trkpt lat="46.117781053982" lon="12.693814495659597"><ele>225.0</ele><time>2026-03-30T10:03:21Z</time></trkpt><trkpt lat="46.11763074692453" lon="12.693918230976644"><ele>225.0</ele><time>2026-03-30T10:03:22Z</time></trkpt><trkpt lat="46.11748485452787" lon="12.694027279887507"><ele>225.0</ele><time>2026-03-30T10:03:23Z</time></trkpt><trkpt lat="46.11734691738652" lon="12.694138387489062"><ele>225.0</ele><time>2026-03-30T10:03:24Z</time></trkpt><trkpt lat="46.1172169997265" lon="12.694241687468987"><ele>225.0</ele><time>2026-03-30T10:03:25Z</time></trkpt><trkpt lat="46.1170935068939" lon="12.694320614179714"><ele>225.0</ele><time>2026-03-30T10:03:26Z</time></trkpt><trkpt lat="46.11695757798511" lon="12.694402485850004"><ele>225.0</ele><time>2026-03-30T10:03:27Z</time></trkpt><trkpt lat="46.11681811683942" lon="12.694486266686978"><ele>225.0</ele><time>2026-03-30T10:03:28Z</time></trkpt><trkpt lat="46.11667871750878" lon="12.694591116047123"><ele>226.0</ele><time>2026-03-30T10:03:29Z</time></trkpt><trkpt lat="46.11653135108105" lon="12.69470929781152"><ele>227.0</ele><time>2026-03-30T10:03:30Z</time></trkpt><trkpt lat="46.11636627149711" lon="12.694820466604705"><ele>228.0</ele><time>2026-03-30T10:03:31Z</time></trkpt><trkpt lat="46.11620710311859" lon="12.694917953230785"><ele>228.0</ele><time>2026-03-30T10:03:32Z</time></trkpt><trkpt lat="46.11605873197448" lon="12.695016629417823"><ele>228.0</ele><time>2026-03-30T10:03:33Z</time></trkpt><trkpt lat="46.115907377606575" lon="12.695119629878867"><ele>228.0</ele><time>2026-03-30T10:03:34Z</time></trkpt><trkpt lat="46.11574832770188" lon="12.69522074453142"><ele>227.0</ele><time>2026-03-30T10:03:35Z</time></trkpt><trkpt lat="46.11557372087044" lon="12.69531478442071"><ele>226.0</ele><time>2026-03-30T10:03:36Z</time></trkpt><trkpt lat="46.115388488277176" lon="12.695420920932277"><ele>225.0</ele><time>2026-03-30T10:03:37Z</time></trkpt><trkpt lat="46.11521417298086" lon="12.69553243214958"><ele>225.0</ele><time>2026-03-30T10:03:38Z</time></trkpt><trkpt lat="46.11505299929466" lon="12.695646174820078"><ele>225.0</ele><time>2026-03-30T10:03:39Z</time></trkpt><trkpt lat="46.11491291118289" lon="12.695746029426033"><ele>225.0</ele><time>2026-03-30T10:03:40Z</time></trkpt><trkpt lat="46.11477544738241" lon="12.695839861251585"><ele>224.75</ele><time>2026-03-30T10:03:41Z</time></trkpt><trkpt lat="46.114633457167706" lon="12.695931392934936"><ele>224.5</ele><time>2026-03-30T10:03:42Z</time></trkpt><trkpt lat="46.11450472581463" lon="12.696017024539614"><ele>224.25</ele><time>2026-03-30T10:03:43Z</time></trkpt><trkpt lat="46.11437725111326" lon="12.696124406745746"><ele>224.0</ele><time>2026-03-30T10:03:44Z</time></trkpt><trkpt lat="46.11425475542212" lon="12.696244954254453"><ele>224.0</ele><time>2026-03-30T10:03:45Z</time></trkpt><trkpt lat="46.11412017907486" lon="12.696361489245191"><ele>224.0</ele><time>2026-03-30T10:03:46Z</time></trkpt><trkpt lat="46.11400269539018" lon="12.696440682679698"><ele>224.0</ele><time>2026-03-30T10:03:47Z</time></trkpt><trkpt lat="46.11390011776738" lon="12.696489623970166"><ele>224.0</ele><time>2026-03-30T10:03:48Z</time></trkpt><trkpt lat="46.11382079916341" lon="12.696538438307586"><ele>224.79999999999998</ele><time>2026-03-30T10:03:49Z</time></trkpt><trkpt lat="46.113705290659816" lon="12.696614362731927"><ele>225.59999999999997</ele><time>2026-03-30T10:03:51Z</time></trkpt><trkpt lat="46.11361564875834" lon="12.69662534775322"><ele>226.4</ele><time>2026-03-30T10:03:52Z</time></trkpt><trkpt lat="46.11350966866433" lon="12.696626242861234"><ele>227.2</ele><time>2026-03-30T10:03:53Z</time></trkpt><trkpt lat="46.11340907606507" lon="12.696667708386663"><ele>228.0</ele><time>2026-03-30T10:03:54Z</time></trkpt><trkpt lat="46.113317755794974" lon="12.69674156923724"><ele>227.5</ele><time>2026-03-30T10:03:55Z</time></trkpt><trkpt lat="46.11321935623771" lon="12.696843184970364"><ele>227.0</ele><time>2026-03-30T10:03:56Z</time></trkpt><trkpt lat="46.11309314926679" lon="12.696959243998695"><ele>226.5</ele><time>2026-03-30T10:03:57Z</time></trkpt><trkpt lat="46.1129641827479" lon="12.697073552394185"><ele>226.0</ele><time>2026-03-30T10:03:58Z</time></trkpt><trkpt lat="46.11284969270917" lon="12.697172698205845"><ele>226.0</ele><time>2026-03-30T10:03:59Z</time></trkpt><trkpt lat="46.11274205377054" lon="12.697264458934631"><ele>226.0</ele><time>2026-03-30T10:04:00Z</time></trkpt><trkpt lat="46.11263480003667" lon="12.697359071251402"><ele>226.0</ele><time>2026-03-30T10:04:01Z</time></trkpt><trkpt lat="46.11254302524066" lon="12.697438772202798"><ele>226.0</ele><time>2026-03-30T10:04:02Z</time></trkpt><trkpt lat="46.11244530888168" lon="12.697521670363336"><ele>224.75</ele><time>2026-03-30T10:04:03Z</time></trkpt><trkpt lat="46.112347972829824" lon="12.697603220712852"><ele>223.5</ele><time>2026-03-30T10:04:04Z</time></trkpt><trkpt lat="46.112236754208645" lon="12.697693912309445"><ele>222.25</ele><time>2026-03-30T10:04:05Z</time></trkpt><trkpt lat="46.11212265542744" lon="12.697794074395581"><ele>221.0</ele><time>2026-03-30T10:04:06Z</time></trkpt><trkpt lat="46.112011962420354" lon="12.697886961017295"><ele>221.0</ele><time>2026-03-30T10:04:07Z</time></trkpt><trkpt lat="46.1119022380236" lon="12.697966225761308"><ele>221.0</ele><time>2026-03-30T10:04:08Z</time></trkpt><trkpt lat="46.11179437995162" lon="12.698041887688545"><ele>221.0</ele><time>2026-03-30T10:04:09Z</time></trkpt><trkpt lat="46.11170009654843" lon="12.69811687314053"><ele>221.0</ele><time>2026-03-30T10:04:10Z</time></trkpt><trkpt lat="46.11160486672962" lon="12.698202894275303"><ele>223.25</ele><time>2026-03-30T10:04:11Z</time></trkpt><trkpt lat="46.11150282982125" lon="12.698293921520879"><ele>225.5</ele><time>2026-03-30T10:04:12Z</time></trkpt><trkpt lat="46.111391103551526" lon="12.69838754302499"><ele>227.75</ele><time>2026-03-30T10:04:13Z</time></trkpt><trkpt lat="46.11129338839935" lon="12.698473355647604"><ele>230.0</ele><time>2026-03-30T10:04:14Z</time></trkpt><trkpt lat="46.11119689842992" lon="12.698558559556055"><ele>227.8</ele><time>2026-03-30T10:04:15Z</time></trkpt><trkpt lat="46.111100304261214" lon="12.698635460261828"><ele>225.6</ele><time>2026-03-30T10:04:16Z</time></trkpt><trkpt lat="46.11099821947185" lon="12.698717134538658"><ele>223.39999999999998</ele><time>2026-03-30T10:04:17Z</time></trkpt><trkpt lat="46.110909187853736" lon="12.698783203851498"><ele>221.2</ele><time>2026-03-30T10:04:18Z</time></trkpt><trkpt lat="46.110834280396126" lon="12.69883259032835"><ele>219.0</ele><time>2026-03-30T10:04:19Z</time></trkpt><trkpt lat="46.11076060489279" lon="12.6988634846687"><ele>221.0</ele><time>2026-03-30T10:04:20Z</time></trkpt><trkpt lat="46.110685495317334" lon="12.6988928347174"><ele>222.99999999999997</ele><time>2026-03-30T10:04:21Z</time></trkpt><trkpt lat="46.11060007034499" lon="12.698941710225212"><ele>224.99999999999997</ele><time>2026-03-30T10:04:22Z</time></trkpt><trkpt lat="46.11052006235628" lon="12.699010610077693"><ele>227.0</ele><time>2026-03-30T10:04:23Z</time></trkpt><trkpt lat="46.1104144695887" lon="12.699103759303261"><ele>229.0</ele><time>2026-03-30T10:04:24Z</time></trkpt><trkpt lat="46.1103016550226" lon="12.699196802959266"><ele>229.0</ele><time>2026-03-30T10:04:25Z</time></trkpt><trkpt lat="46.11018875593055" lon="12.699276276968902"><ele>229.0</ele><time>2026-03-30T10:04:26Z</time></trkpt><trkpt lat="46.1100655732289" lon="12.69935235266941"><ele>229.0</ele><time>2026-03-30T10:04:27Z</time></trkpt><trkpt lat="46.109950774586174" lon="12.699424293395607"><ele>229.0</ele><time>2026-03-30T10:04:28Z</time></trkpt><trkpt lat="46.109831327372355" lon="12.699509766030165"><ele>227.0</ele><time>2026-03-30T10:04:29Z</time></trkpt><trkpt lat="46.10971354379493" lon="12.699610914940745"><ele>225.0</ele><time>2026-03-30T10:04:30Z</time></trkpt><trkpt lat="46.109596809890355" lon="12.699712929655412"><ele>223.0</ele><time>2026-03-30T10:04:31Z</time></trkpt><trkpt lat="46.10945674928851" lon="12.699802314550055"><ele>221.0</ele><time>2026-03-30T10:04:32Z</time></trkpt><trkpt lat="46.109293118465764" lon="12.69992527534028"><ele>221.0</ele><time>2026-03-30T10:04:33Z</time></trkpt><trkpt lat="46.10911793765572" lon="12.700053669707758"><ele>221.0</ele><time>2026-03-30T10:04:34.001Z</time></trkpt><trkpt lat="46.108931709064954" lon="12.700195747036762"><ele>221.0</ele><time>2026-03-30T10:04:35.001Z</time></trkpt><trkpt lat="46.10874963502294" lon="12.700340550008464"><ele>219.33333333333334</ele><time>2026-03-30T10:04:36.001Z</time></trkpt><trkpt lat="46.10859986652071" lon="12.700464358691102"><ele>217.66666666666669</ele><time>2026-03-30T10:04:37.001Z</time></trkpt><trkpt lat="46.108463645837396" lon="12.700567941186694"><ele>216.0</ele><time>2026-03-30T10:04:38.001Z</time></trkpt><trkpt lat="46.108332747890664" lon="12.700666245296162"><ele>219.33333333333331</ele><time>2026-03-30T10:04:39.001Z</time></trkpt><trkpt lat="46.10820558477034" lon="12.700769677466237"><ele>222.66666666666666</ele><time>2026-03-30T10:04:40.001Z</time></trkpt><trkpt lat="46.108069352742106" lon="12.700883587475037"><ele>226.0</ele><time>2026-03-30T10:04:41.001Z</time></trkpt><trkpt lat="46.10792606142121" lon="12.700996622008821"><ele>222.66666666666666</ele><time>2026-03-30T10:04:42.001Z</time></trkpt><trkpt lat="46.10777822869256" lon="12.701106615382235"><ele>219.33333333333331</ele><time>2026-03-30T10:04:43.001Z</time></trkpt><trkpt lat="46.10762858542529" lon="12.70120460426199"><ele>216.0</ele><time>2026-03-30T10:04:44.001Z</time></trkpt><trkpt lat="46.107489442725736" lon="12.701285042486038"><ele>217.0</ele><time>2026-03-30T10:04:45.001Z</time></trkpt><trkpt lat="46.107359907408714" lon="12.701374550128218"><ele>218.0</ele><time>2026-03-30T10:04:46.001Z</time></trkpt><trkpt lat="46.10724146923445" lon="12.701480651093702"><ele>219.0</ele><time>2026-03-30T10:04:47.001Z</time></trkpt><trkpt lat="46.107127892160825" lon="12.701567337228722"><ele>220.0</ele><time>2026-03-30T10:04:48.001Z</time></trkpt><trkpt lat="46.10700735880174" lon="12.701646130361846"><ele>220.0</ele><time>2026-03-30T10:04:49.001Z</time></trkpt><trkpt lat="46.10689434395018" lon="12.701732070920665"><ele>220.0</ele><time>2026-03-30T10:04:50.001Z</time></trkpt><trkpt lat="46.106788563018654" lon="12.70180055835907"><ele>220.0</ele><time>2026-03-30T10:04:51.001Z</time></trkpt><trkpt lat="46.10666121025488" lon="12.70186598752342"><ele>220.0</ele><time>2026-03-30T10:04:52.001Z</time></trkpt><trkpt lat="46.10652785600657" lon="12.701936501104447"><ele>219.0</ele><time>2026-03-30T10:04:53.001Z</time></trkpt><trkpt lat="46.10638769051023" lon="12.702030881234435"><ele>218.0</ele><time>2026-03-30T10:04:54.001Z</time></trkpt><trkpt lat="46.10625963796966" lon="12.702119881159955"><ele>217.0</ele><time>2026-03-30T10:04:55.001Z</time></trkpt><trkpt lat="46.1061233379263" lon="12.702212370818815"><ele>216.0</ele><time>2026-03-30T10:04:56.001Z</time></trkpt><trkpt lat="46.10598851778135" lon="12.702293837354748"><ele>216.0</ele><time>2026-03-30T10:04:57.001Z</time></trkpt><trkpt lat="46.10586240843734" lon="12.70235471417255"><ele>216.0</ele><time>2026-03-30T10:04:58.001Z</time></trkpt><trkpt lat="46.105736349444406" lon="12.702429146187908"><ele>216.0</ele><time>2026-03-30T10:04:59.001Z</time></trkpt><trkpt lat="46.10560970708711" lon="12.7025401150602"><ele>216.0</ele><time>2026-03-30T10:05:00.001Z</time></trkpt><trkpt lat="46.105461347747486" lon="12.702643570466785"><ele>217.33333333333331</ele><time>2026-03-30T10:05:01.001Z</time></trkpt><trkpt lat="46.10531106553459" lon="12.702730301847103"><ele>218.66666666666666</ele><time>2026-03-30T10:05:02.001Z</time></trkpt><trkpt lat="46.10517145678047" lon="12.7028070774034"><ele>220.0</ele><time>2026-03-30T10:05:03Z</time></trkpt><trkpt lat="46.10503695582532" lon="12.702881892508303"><ele>219.6</ele><time>2026-03-30T10:05:04Z</time></trkpt><trkpt lat="46.10492172541436" lon="12.702940020011336"><ele>219.2</ele><time>2026-03-30T10:05:05Z</time></trkpt><trkpt lat="46.10483306726392" lon="12.702987895447903"><ele>218.8</ele><time>2026-03-30T10:05:06Z</time></trkpt><trkpt lat="46.10475015963367" lon="12.703040019574075"><ele>218.4</ele><time>2026-03-30T10:05:07Z</time></trkpt><trkpt lat="46.104668092973554" lon="12.703105422516742"><ele>218.0</ele><time>2026-03-30T10:05:08Z</time></trkpt><trkpt lat="46.10458335127154" lon="12.703174556183022"><ele>218.0</ele><time>2026-03-30T10:05:09Z</time></trkpt><trkpt lat="46.10450482331548" lon="12.703244505832302"><ele>218.0</ele><time>2026-03-30T10:05:10Z</time></trkpt><trkpt lat="46.10441939795459" lon="12.7033165731483"><ele>218.0</ele><time>2026-03-30T10:05:11Z</time></trkpt><trkpt lat="46.10432485367663" lon="12.703382134627503"><ele>218.0</ele><time>2026-03-30T10:05:12Z</time></trkpt><trkpt lat="46.10423082184813" lon="12.703458678633996"><ele>218.0</ele><time>2026-03-30T10:05:13Z</time></trkpt><trkpt lat="46.10414498121489" lon="12.703539924178864"><ele>217.75</ele><time>2026-03-30T10:05:14Z</time></trkpt><trkpt lat="46.10403826162029" lon="12.70362104112195"><ele>217.5</ele><time>2026-03-30T10:05:15Z</time></trkpt><trkpt lat="46.10392662029477" lon="12.703690105231459"><ele>217.25</ele><time>2026-03-30T10:05:16Z</time></trkpt><trkpt lat="46.103815570084066" lon="12.703764112545736"><ele>217.0</ele><time>2026-03-30T10:05:17Z</time></trkpt><trkpt lat="46.103701374320245" lon="12.703849330043834"><ele>217.0</ele><time>2026-03-30T10:05:18Z</time></trkpt><trkpt lat="46.10360242277806" lon="12.703926017315599"><ele>217.0</ele><time>2026-03-30T10:05:19Z</time></trkpt><trkpt lat="46.10351185069827" lon="12.704004888281801"><ele>217.0</ele><time>2026-03-30T10:05:20Z</time></trkpt><trkpt lat="46.10342399024823" lon="12.70405933521892"><ele>217.0</ele><time>2026-03-30T10:05:21Z</time></trkpt><trkpt lat="46.10333460002034" lon="12.704115500343324"><ele>217.0</ele><time>2026-03-30T10:05:22Z</time></trkpt><trkpt lat="46.10324519403183" lon="12.704181009524099"><ele>217.66666666666666</ele><time>2026-03-30T10:05:23Z</time></trkpt><trkpt lat="46.103167465807374" lon="12.704229233617701"><ele>218.33333333333331</ele><time>2026-03-30T10:05:24Z</time></trkpt><trkpt lat="46.10310775578181" lon="12.704264343777814"><ele>219.0</ele><time>2026-03-30T10:05:25Z</time></trkpt><trkpt lat="46.103058714167425" lon="12.704321713050245"><ele>219.66666666666669</ele><time>2026-03-30T10:05:27Z</time></trkpt><trkpt lat="46.10312597548593" lon="12.704475278643972"><ele>220.33333333333334</ele><time>2026-03-30T10:05:30Z</time></trkpt><trkpt lat="46.103175396988014" lon="12.704545273333432"><ele>221.0</ele><time>2026-03-30T10:05:31Z</time></trkpt><trkpt lat="46.10320779216999" lon="12.704648174116606"><ele>219.50000000000003</ele><time>2026-03-30T10:05:32Z</time></trkpt><trkpt lat="46.10323930477174" lon="12.704755374244627"><ele>218.0</ele><time>2026-03-30T10:05:33Z</time></trkpt><trkpt lat="46.10326390484798" lon="12.704842322303108"><ele>216.5</ele><time>2026-03-30T10:05:34Z</time></trkpt><trkpt lat="46.10328729065202" lon="12.704942660500459"><ele>215.0</ele><time>2026-03-30T10:05:35Z</time></trkpt><trkpt lat="46.10331129453634" lon="12.705062809862474"><ele>213.50000000000003</ele><time>2026-03-30T10:05:36Z</time></trkpt><trkpt lat="46.10333520598136" lon="12.705168266170999"><ele>212.0</ele><time>2026-03-30T10:05:37Z</time></trkpt><trkpt lat="46.10336050563715" lon="12.705282818547412"><ele>211.00000000000003</ele><time>2026-03-30T10:05:38Z</time></trkpt><trkpt lat="46.10336318511824" lon="12.705389161345995"><ele>210.0</ele><time>2026-03-30T10:05:39Z</time></trkpt><trkpt lat="46.10334924661384" lon="12.70551148693256"><ele>209.0</ele><time>2026-03-30T10:05:40Z</time></trkpt><trkpt lat="46.1033517659808" lon="12.705649485889596"><ele>208.0</ele><time>2026-03-30T10:05:41Z</time></trkpt><trkpt lat="46.10336154015616" lon="12.705779227709309"><ele>207.00000000000003</ele><time>2026-03-30T10:05:42Z</time></trkpt><trkpt lat="46.10335344667782" lon="12.705874403285925"><ele>206.0</ele><time>2026-03-30T10:05:43Z</time></trkpt><trkpt lat="46.103335083378894" lon="12.705984496987146"><ele>206.00000000000003</ele><time>2026-03-30T10:05:44Z</time></trkpt><trkpt lat="46.10332431622809" lon="12.706099939162893"><ele>206.0</ele><time>2026-03-30T10:05:45Z</time></trkpt><trkpt lat="46.10331639422971" lon="12.706197891606516"><ele>206.0</ele><time>2026-03-30T10:05:46Z</time></trkpt><trkpt lat="46.10330831401834" lon="12.706313282959671"><ele>206.0</ele><time>2026-03-30T10:05:48Z</time></trkpt><trkpt lat="46.10330455533639" lon="12.70641359563671"><ele>206.00000000000003</ele><time>2026-03-30T10:05:50Z</time></trkpt><trkpt lat="46.10325254141791" lon="12.706518867141869"><ele>206.0</ele><time>2026-03-30T10:05:52Z</time></trkpt><trkpt lat="46.103157100020184" lon="12.706588115636183"><ele>205.99999999999997</ele><time>2026-03-30T10:05:54Z</time></trkpt><trkpt lat="46.10310060311347" lon="12.706632593990857"><ele>206.0</ele><time>2026-03-30T10:05:55Z</time></trkpt><trkpt lat="46.103047127702894" lon="12.70668425119568"><ele>206.0</ele><time>2026-03-30T10:05:56Z</time></trkpt><trkpt lat="46.102993373512966" lon="12.706737536024272"><ele>206.0</ele><time>2026-03-30T10:05:57Z</time></trkpt><trkpt lat="46.10292697199874" lon="12.706796197665643"><ele>206.0</ele><time>2026-03-30T10:05:58Z</time></trkpt><trkpt lat="46.10285979458552" lon="12.706840900368839"><ele>205.99999999999997</ele><time>2026-03-30T10:05:59Z</time></trkpt><trkpt lat="46.10278732618561" lon="12.706876223901476"><ele>206.0</ele><time>2026-03-30T10:06:00Z</time></trkpt><trkpt lat="46.10271032935864" lon="12.706897863199627"><ele>205.8</ele><time>2026-03-30T10:06:01Z</time></trkpt><trkpt lat="46.10264280041854" lon="12.706912252065237"><ele>205.60000000000002</ele><time>2026-03-30T10:06:02Z</time></trkpt><trkpt lat="46.10257368115214" lon="12.706927349727835"><ele>205.4</ele><time>2026-03-30T10:06:03Z</time></trkpt><trkpt lat="46.102452114048994" lon="12.706949296185192"><ele>205.2</ele><time>2026-03-30T10:06:05Z</time></trkpt><trkpt lat="46.102331747837276" lon="12.706977308470123"><ele>205.0</ele><time>2026-03-30T10:06:07Z</time></trkpt><trkpt lat="46.10226221051599" lon="12.70700174117893"><ele>204.83333333333331</ele><time>2026-03-30T10:06:08Z</time></trkpt><trkpt lat="46.102184283189075" lon="12.707026357090733"><ele>204.66666666666666</ele><time>2026-03-30T10:06:09Z</time></trkpt><trkpt lat="46.10210493747027" lon="12.707040105089652"><ele>204.5</ele><time>2026-03-30T10:06:10Z</time></trkpt><trkpt lat="46.102026942942594" lon="12.707053309432506"><ele>204.33333333333331</ele><time>2026-03-30T10:06:11Z</time></trkpt><trkpt lat="46.10194403290361" lon="12.70707066709762"><ele>204.16666666666666</ele><time>2026-03-30T10:06:12Z</time></trkpt><trkpt lat="46.1018634492603" lon="12.707084117320848"><ele>204.0</ele><time>2026-03-30T10:06:13Z</time></trkpt><trkpt lat="46.101798355738765" lon="12.70709265573471"><ele>204.0</ele><time>2026-03-30T10:06:14Z</time></trkpt><trkpt lat="46.101676601424764" lon="12.707108212245581"><ele>204.0</ele><time>2026-03-30T10:06:16Z</time></trkpt><trkpt lat="46.10156002093369" lon="12.707129516018218"><ele>204.0</ele><time>2026-03-30T10:06:18Z</time></trkpt><trkpt lat="46.10144584047912" lon="12.707174050543722"><ele>204.0</ele><time>2026-03-30T10:06:20Z</time></trkpt><trkpt lat="46.10133654100372" lon="12.707221521417548"><ele>203.6</ele><time>2026-03-30T10:06:22Z</time></trkpt><trkpt lat="46.10122501729644" lon="12.707294693529455"><ele>203.2</ele><time>2026-03-30T10:06:24Z</time></trkpt><trkpt lat="46.101147573698924" lon="12.707342509304128"><ele>202.79999999999998</ele><time>2026-03-30T10:06:26Z</time></trkpt><trkpt lat="46.10107834005476" lon="12.707363323249055"><ele>202.39999999999998</ele><time>2026-03-30T10:06:28Z</time></trkpt><trkpt lat="46.10102504681625" lon="12.707478590880456"><ele>202.0</ele><time>2026-03-30T10:06:30Z</time></trkpt><trkpt lat="46.10096642478698" lon="12.70757288389707"><ele>201.99999999999997</ele><time>2026-03-30T10:06:32Z</time></trkpt><trkpt lat="46.10089943278543" lon="12.707599106636465"><ele>202.0</ele><time>2026-03-30T10:06:33.001Z</time></trkpt><trkpt lat="46.10082299605244" lon="12.707614142575627"><ele>202.0</ele><time>2026-03-30T10:06:34.001Z</time></trkpt><trkpt lat="46.10075212899418" lon="12.707641069216127"><ele>202.0</ele><time>2026-03-30T10:06:35.001Z</time></trkpt><trkpt lat="46.1006635389214" lon="12.707701879020942"><ele>201.99999999999997</ele><time>2026-03-30T10:06:37.001Z</time></trkpt><trkpt lat="46.100576149336334" lon="12.707800524916388"><ele>202.0</ele><time>2026-03-30T10:06:39.001Z</time></trkpt><trkpt lat="46.10049413033427" lon="12.70790038310855"><ele>202.16666666666666</ele><time>2026-03-30T10:06:41.001Z</time></trkpt><trkpt lat="46.10041074407286" lon="12.708000865559018"><ele>202.33333333333331</ele><time>2026-03-30T10:06:43.001Z</time></trkpt><trkpt lat="46.10033740373886" lon="12.708082188827577"><ele>202.5</ele><time>2026-03-30T10:06:45.001Z</time></trkpt><trkpt lat="46.100275566425466" lon="12.708015919170926"><ele>202.66666666666669</ele><time>2026-03-30T10:06:48.001Z</time></trkpt><trkpt lat="46.100283413712845" lon="12.707911219849688"><ele>202.83333333333334</ele><time>2026-03-30T10:06:51.001Z</time></trkpt><trkpt lat="46.10034035395459" lon="12.707855859521104"><ele>203.0</ele><time>2026-03-30T10:06:53.001Z</time></trkpt><trkpt lat="46.10040593257585" lon="12.70784361783966"><ele>202.83333333333334</ele><time>2026-03-30T10:06:56.001Z</time></trkpt><trkpt lat="46.10041357928568" lon="12.707741283872164"><ele>202.66666666666669</ele><time>2026-03-30T10:06:58.001Z</time></trkpt><trkpt lat="46.100329112062795" lon="12.707673384719433"><ele>202.5</ele><time>2026-03-30T10:07:01.001Z</time></trkpt><trkpt lat="46.10025975595878" lon="12.707649285154242"><ele>202.33333333333331</ele><time>2026-03-30T10:07:02.001Z</time></trkpt><trkpt lat="46.10021212251376" lon="12.70758830097844"><ele>202.16666666666666</ele><time>2026-03-30T10:07:03.001Z</time></trkpt><trkpt lat="46.100132450958185" lon="12.707504380008693"><ele>202.0</ele><time>2026-03-30T10:07:05.001Z</time></trkpt><trkpt lat="46.10002525725009" lon="12.707513243370816"><ele>202.0</ele><time>2026-03-30T10:07:07.001Z</time></trkpt><trkpt lat="46.099953212487456" lon="12.707562566634786"><ele>202.0</ele><time>2026-03-30T10:07:08.001Z</time></trkpt><trkpt lat="46.099864229816724" lon="12.707611250095212"><ele>202.0</ele><time>2026-03-30T10:07:09Z</time></trkpt><trkpt lat="46.099768119406164" lon="12.707662976767478"><ele>202.0</ele><time>2026-03-30T10:07:10Z</time></trkpt><trkpt lat="46.09966390444481" lon="12.707733896392373"><ele>202.0</ele><time>2026-03-30T10:07:11Z</time></trkpt><trkpt lat="46.09955960201711" lon="12.70780638297007"><ele>202.0</ele><time>2026-03-30T10:07:12Z</time></trkpt><trkpt lat="46.09945350979501" lon="12.707887309722164"><ele>202.0</ele><time>2026-03-30T10:07:13Z</time></trkpt><trkpt lat="46.09936606487965" lon="12.707962054400443"><ele>202.0</ele><time>2026-03-30T10:07:14Z</time></trkpt><trkpt lat="46.09928785135898" lon="12.708029993906434"><ele>202.0</ele><time>2026-03-30T10:07:15Z</time></trkpt><trkpt lat="46.099212340455715" lon="12.708090777985948"><ele>202.0</ele><time>2026-03-30T10:07:16Z</time></trkpt><trkpt lat="46.09914764840116" lon="12.708151105638636"><ele>202.0</ele><time>2026-03-30T10:07:17Z</time></trkpt><trkpt lat="46.099082537950764" lon="12.708214749641177"><ele>202.0</ele><time>2026-03-30T10:07:18Z</time></trkpt><trkpt lat="46.09901699633697" lon="12.70827627865232"><ele>202.0</ele><time>2026-03-30T10:07:19Z</time></trkpt><trkpt lat="46.0989502039984" lon="12.708347869604339"><ele>202.0</ele><time>2026-03-30T10:07:20Z</time></trkpt><trkpt lat="46.0988491618565" lon="12.708448978920236"><ele>202.0</ele><time>2026-03-30T10:07:21Z</time></trkpt><trkpt lat="46.09875686374667" lon="12.708546220570973"><ele>201.6</ele><time>2026-03-30T10:07:22Z</time></trkpt><trkpt lat="46.0986872526795" lon="12.708629745707961"><ele>201.2</ele><time>2026-03-30T10:07:23Z</time></trkpt><trkpt lat="46.09861096876409" lon="12.708716771419216"><ele>200.8</ele><time>2026-03-30T10:07:24Z</time></trkpt><trkpt lat="46.09852844174449" lon="12.708817504290804"><ele>200.4</ele><time>2026-03-30T10:07:25Z</time></trkpt><trkpt lat="46.098455076608694" lon="12.708899458899577"><ele>200.0</ele><time>2026-03-30T10:07:26Z</time></trkpt><trkpt lat="46.09837655188378" lon="12.708970043024312"><ele>200.00000000000003</ele><time>2026-03-30T10:07:27Z</time></trkpt><trkpt lat="46.09829512765977" lon="12.70902872054672"><ele>200.0</ele><time>2026-03-30T10:07:28Z</time></trkpt><trkpt lat="46.09821694328733" lon="12.70906078085259"><ele>200.0</ele><time>2026-03-30T10:07:29Z</time></trkpt><trkpt lat="46.098146706847956" lon="12.709080834060124"><ele>200.0</ele><time>2026-03-30T10:07:30Z</time></trkpt><trkpt lat="46.09808224262879" lon="12.70911130156577"><ele>200.00000000000003</ele><time>2026-03-30T10:07:31Z</time></trkpt><trkpt lat="46.097996741022186" lon="12.70914130834929"><ele>200.0</ele><time>2026-03-30T10:07:32Z</time></trkpt><trkpt lat="46.097895973336776" lon="12.709153000378453"><ele>200.0</ele><time>2026-03-30T10:07:33Z</time></trkpt><trkpt lat="46.09780978845347" lon="12.709167127155803"><ele>200.0</ele><time>2026-03-30T10:07:34Z</time></trkpt><trkpt lat="46.09773008617027" lon="12.709181818342968"><ele>200.0</ele><time>2026-03-30T10:07:35Z</time></trkpt><trkpt lat="46.0976418850648" lon="12.70919807630336"><ele>200.0</ele><time>2026-03-30T10:07:36Z</time></trkpt><trkpt lat="46.09753741400667" lon="12.70922041056902"><ele>200.0</ele><time>2026-03-30T10:07:37Z</time></trkpt><trkpt lat="46.09741493132731" lon="12.709244217988104"><ele>200.0</ele><time>2026-03-30T10:07:38Z</time></trkpt><trkpt lat="46.09729125543165" lon="12.709271714370203"><ele>200.0</ele><time>2026-03-30T10:07:39Z</time></trkpt><trkpt lat="46.097171181317435" lon="12.709298186470438"><ele>200.0</ele><time>2026-03-30T10:07:40Z</time></trkpt><trkpt lat="46.09707534536913" lon="12.70932032378703"><ele>200.0</ele><time>2026-03-30T10:07:41Z</time></trkpt><trkpt lat="46.09700176139303" lon="12.709345762654237"><ele>200.0</ele><time>2026-03-30T10:07:42Z</time></trkpt><trkpt lat="46.096931319128046" lon="12.709362644229513"><ele>200.0</ele><time>2026-03-30T10:07:43Z</time></trkpt><trkpt lat="46.0968437905751" lon="12.70935952963815"><ele>200.0</ele><time>2026-03-30T10:07:44Z</time></trkpt><trkpt lat="46.09674752511657" lon="12.709347114523363"><ele>200.0</ele><time>2026-03-30T10:07:45Z</time></trkpt><trkpt lat="46.09662809423488" lon="12.709355348029202"><ele>200.0</ele><time>2026-03-30T10:07:46Z</time></trkpt><trkpt lat="46.0965158524211" lon="12.709361513568684"><ele>200.0</ele><time>2026-03-30T10:07:47Z</time></trkpt><trkpt lat="46.09640272027994" lon="12.709357725177249"><ele>200.2</ele><time>2026-03-30T10:07:48Z</time></trkpt><trkpt lat="46.0962834859575" lon="12.709354479473063"><ele>200.4</ele><time>2026-03-30T10:07:49Z</time></trkpt><trkpt lat="46.09617136449017" lon="12.709358965719296"><ele>200.60000000000002</ele><time>2026-03-30T10:07:50Z</time></trkpt><trkpt lat="46.096064652643335" lon="12.709371583912047"><ele>200.8</ele><time>2026-03-30T10:07:51Z</time></trkpt><trkpt lat="46.095958625071596" lon="12.709386850563092"><ele>201.0</ele><time>2026-03-30T10:07:52Z</time></trkpt><trkpt lat="46.09586275761005" lon="12.709394308213987"><ele>200.20000000000002</ele><time>2026-03-30T10:07:53Z</time></trkpt><trkpt lat="46.09576833227334" lon="12.709416331465714"><ele>199.4</ele><time>2026-03-30T10:07:54Z</time></trkpt><trkpt lat="46.09567170162595" lon="12.709442093021414"><ele>198.6</ele><time>2026-03-30T10:07:55Z</time></trkpt><trkpt lat="46.09556711600981" lon="12.709477428585386"><ele>197.8</ele><time>2026-03-30T10:07:56Z</time></trkpt><trkpt lat="46.09548147658428" lon="12.709519751075273"><ele>197.0</ele><time>2026-03-30T10:07:57Z</time></trkpt><trkpt lat="46.09540561911874" lon="12.709557359116095"><ele>197.0</ele><time>2026-03-30T10:07:58Z</time></trkpt><trkpt lat="46.095318046801964" lon="12.709611314603592"><ele>197.0</ele><time>2026-03-30T10:07:59Z</time></trkpt><trkpt lat="46.0952331550126" lon="12.70966343432325"><ele>197.0</ele><time>2026-03-30T10:08:00Z</time></trkpt><trkpt lat="46.095140219463055" lon="12.709752379488481"><ele>197.0</ele><time>2026-03-30T10:08:01Z</time></trkpt><trkpt lat="46.0950571599549" lon="12.709835353218859"><ele>197.0</ele><time>2026-03-30T10:08:02Z</time></trkpt><trkpt lat="46.094966077834364" lon="12.709933639146845"><ele>196.8</ele><time>2026-03-30T10:08:03Z</time></trkpt><trkpt lat="46.09488476281722" lon="12.710022769813696"><ele>196.6</ele><time>2026-03-30T10:08:04Z</time></trkpt><trkpt lat="46.094818920989795" lon="12.71009876077323"><ele>196.4</ele><time>2026-03-30T10:08:05Z</time></trkpt><trkpt lat="46.09474208458166" lon="12.71018656936996"><ele>196.20000000000002</ele><time>2026-03-30T10:08:06Z</time></trkpt><trkpt lat="46.09466369315554" lon="12.710263368151558"><ele>196.0</ele><time>2026-03-30T10:08:07Z</time></trkpt><trkpt lat="46.094594703513025" lon="12.710324063009052"><ele>196.0</ele><time>2026-03-30T10:08:08Z</time></trkpt><trkpt lat="46.094508972465796" lon="12.71038184651334"><ele>196.0</ele><time>2026-03-30T10:08:09Z</time></trkpt><trkpt lat="46.09442224041284" lon="12.710420565508574"><ele>196.0</ele><time>2026-03-30T10:08:10Z</time></trkpt><trkpt lat="46.094318118419636" lon="12.710443489418806"><ele>196.0</ele><time>2026-03-30T10:08:11Z</time></trkpt><trkpt lat="46.094213355436786" lon="12.71047375140833"><ele>196.0</ele><time>2026-03-30T10:08:12Z</time></trkpt><trkpt lat="46.09409093821759" lon="12.710514791750914"><ele>195.75</ele><time>2026-03-30T10:08:13Z</time></trkpt><trkpt lat="46.0939690282801" lon="12.710569071317538"><ele>195.5</ele><time>2026-03-30T10:08:14Z</time></trkpt><trkpt lat="46.09386642227146" lon="12.710625424044371"><ele>195.25</ele><time>2026-03-30T10:08:15Z</time></trkpt><trkpt lat="46.093754828097246" lon="12.710696716045232"><ele>195.0</ele><time>2026-03-30T10:08:16Z</time></trkpt><trkpt lat="46.0936492740113" lon="12.71076691236242"><ele>195.0</ele><time>2026-03-30T10:08:17Z</time></trkpt><trkpt lat="46.0935580050635" lon="12.71083112094371"><ele>195.0</ele><time>2026-03-30T10:08:18Z</time></trkpt><trkpt lat="46.09349297394796" lon="12.71089741262917"><ele>195.0</ele><time>2026-03-30T10:08:19Z</time></trkpt><trkpt lat="46.09344233600111" lon="12.710973595677538"><ele>195.0</ele><time>2026-03-30T10:08:20Z</time></trkpt><trkpt lat="46.09339313607489" lon="12.71107286706554"><ele>195.0</ele><time>2026-03-30T10:08:21Z</time></trkpt><trkpt lat="46.09332567655441" lon="12.711199024339813"><ele>195.0</ele><time>2026-03-30T10:08:22Z</time></trkpt><trkpt lat="46.09326225953484" lon="12.711298563797156"><ele>195.0</ele><time>2026-03-30T10:08:23Z</time></trkpt><trkpt lat="46.09320993185378" lon="12.711374010804"><ele>195.0</ele><time>2026-03-30T10:08:24Z</time></trkpt><trkpt lat="46.09313944691283" lon="12.711466590336046"><ele>195.0</ele><time>2026-03-30T10:08:25Z</time></trkpt><trkpt lat="46.09305852681742" lon="12.71154319937621"><ele>195.0</ele><time>2026-03-30T10:08:26Z</time></trkpt><trkpt lat="46.0929686296058" lon="12.711610819492403"><ele>195.0</ele><time>2026-03-30T10:08:27Z</time></trkpt><trkpt lat="46.092858768833175" lon="12.711681037334822"><ele>195.0</ele><time>2026-03-30T10:08:28Z</time></trkpt><trkpt lat="46.09274619894424" lon="12.711755378440944"><ele>195.0</ele><time>2026-03-30T10:08:29Z</time></trkpt><trkpt lat="46.09263685530252" lon="12.711823029124483"><ele>195.0</ele><time>2026-03-30T10:08:30Z</time></trkpt><trkpt lat="46.09253013867152" lon="12.71188915933475"><ele>195.0</ele><time>2026-03-30T10:08:31Z</time></trkpt><trkpt lat="46.09242516739649" lon="12.71198270882774"><ele>194.4</ele><time>2026-03-30T10:08:32Z</time></trkpt><trkpt lat="46.09232784551458" lon="12.712090067209123"><ele>193.8</ele><time>2026-03-30T10:08:33Z</time></trkpt><trkpt lat="46.09225120286352" lon="12.71217341880941"><ele>193.2</ele><time>2026-03-30T10:08:34Z</time></trkpt><trkpt lat="46.09218188259231" lon="12.71224298900305"><ele>192.6</ele><time>2026-03-30T10:08:35Z</time></trkpt><trkpt lat="46.092111641957686" lon="12.712301790920247"><ele>192.0</ele><time>2026-03-30T10:08:36Z</time></trkpt><trkpt lat="46.0920270534869" lon="12.712358544444136"><ele>192.0</ele><time>2026-03-30T10:08:37Z</time></trkpt><trkpt lat="46.091923468623875" lon="12.712410714947397"><ele>192.0</ele><time>2026-03-30T10:08:38Z</time></trkpt><trkpt lat="46.09182504764137" lon="12.712461335470417"><ele>192.0</ele><time>2026-03-30T10:08:39.001Z</time></trkpt><trkpt lat="46.09172583905753" lon="12.71251019745082"><ele>192.0</ele><time>2026-03-30T10:08:40.001Z</time></trkpt><trkpt lat="46.09162150395095" lon="12.712567526144987"><ele>192.0</ele><time>2026-03-30T10:08:41.001Z</time></trkpt><trkpt lat="46.09150526378035" lon="12.712634247571197"><ele>192.0</ele><time>2026-03-30T10:08:42.001Z</time></trkpt><trkpt lat="46.09137792882299" lon="12.712705941884009"><ele>192.0</ele><time>2026-03-30T10:08:43.001Z</time></trkpt><trkpt lat="46.09125707225011" lon="12.712775216059667"><ele>192.0</ele><time>2026-03-30T10:08:44.001Z</time></trkpt><trkpt lat="46.09115527533745" lon="12.712838183440846"><ele>192.0</ele><time>2026-03-30T10:08:45.001Z</time></trkpt><trkpt lat="46.09106034761458" lon="12.712898447746921"><ele>191.5</ele><time>2026-03-30T10:08:46.001Z</time></trkpt><trkpt lat="46.0909734503595" lon="12.712949474015074"><ele>191.0</ele><time>2026-03-30T10:08:47.001Z</time></trkpt><trkpt lat="46.09089057640483" lon="12.712975285512"><ele>190.5</ele><time>2026-03-30T10:08:48.001Z</time></trkpt><trkpt lat="46.09082616538552" lon="12.71297051799377"><ele>190.0</ele><time>2026-03-30T10:08:49.001Z</time></trkpt><trkpt lat="46.090760770681456" lon="12.71293897131597"><ele>189.5</ele><time>2026-03-30T10:08:50.001Z</time></trkpt><trkpt lat="46.09068198519611" lon="12.712912522155031"><ele>189.0</ele><time>2026-03-30T10:08:51.001Z</time></trkpt><trkpt lat="46.090618631805945" lon="12.712906769124757"><ele>189.0</ele><time>2026-03-30T10:08:52.001Z</time></trkpt><trkpt lat="46.090554507863864" lon="12.71293047875499"><ele>189.0</ele><time>2026-03-30T10:08:53.001Z</time></trkpt><trkpt lat="46.09050392311589" lon="12.71298591002645"><ele>189.0</ele><time>2026-03-30T10:08:54.001Z</time></trkpt><trkpt lat="46.090453410658554" lon="12.713056663705121"><ele>189.0</ele><time>2026-03-30T10:08:55.001Z</time></trkpt><trkpt lat="46.090371135163885" lon="12.713122427000796"><ele>189.0</ele><time>2026-03-30T10:08:57.001Z</time></trkpt><trkpt lat="46.090259295548705" lon="12.713076456153221"><ele>189.0</ele><time>2026-03-30T10:08:59.001Z</time></trkpt><trkpt lat="46.090192473762485" lon="12.713044161634322"><ele>189.0</ele><time>2026-03-30T10:09:00.001Z</time></trkpt><trkpt lat="46.09010776806493" lon="12.713026994446913"><ele>189.0</ele><time>2026-03-30T10:09:01.001Z</time></trkpt><trkpt lat="46.0900245819816" lon="12.713034314974513"><ele>189.0</ele><time>2026-03-30T10:09:02.001Z</time></trkpt><trkpt lat="46.08994039204494" lon="12.713058373247149"><ele>189.0</ele><time>2026-03-30T10:09:03.001Z</time></trkpt><trkpt lat="46.08985717278003" lon="12.713122982985135"><ele>189.0</ele><time>2026-03-30T10:09:04.001Z</time></trkpt><trkpt lat="46.08978165028689" lon="12.713220005977323"><ele>189.0</ele><time>2026-03-30T10:09:05.001Z</time></trkpt><trkpt lat="46.089705670455885" lon="12.713342321945252"><ele>189.0</ele><time>2026-03-30T10:09:06.001Z</time></trkpt><trkpt lat="46.08962596934183" lon="12.713430011035282"><ele>189.0</ele><time>2026-03-30T10:09:07.001Z</time></trkpt><trkpt lat="46.08952277355619" lon="12.713493569727675"><ele>189.0</ele><time>2026-03-30T10:09:08.001Z</time></trkpt><trkpt lat="46.089418728897094" lon="12.713541893253383"><ele>189.0</ele><time>2026-03-30T10:09:09.001Z</time></trkpt><trkpt lat="46.08931200202966" lon="12.713595170431935"><ele>189.0</ele><time>2026-03-30T10:09:10.001Z</time></trkpt><trkpt lat="46.08921153286504" lon="12.713650523025256"><ele>189.0</ele><time>2026-03-30T10:09:11.001Z</time></trkpt><trkpt lat="46.089105838828694" lon="12.713715814608776"><ele>189.0</ele><time>2026-03-30T10:09:12.001Z</time></trkpt><trkpt lat="46.0890046601133" lon="12.713774243565993"><ele>189.0</ele><time>2026-03-30T10:09:13.001Z</time></trkpt><trkpt lat="46.0889187861015" lon="12.713825160693535"><ele>189.0</ele><time>2026-03-30T10:09:14.001Z</time></trkpt><trkpt lat="46.088837820841796" lon="12.713886147613115"><ele>188.75</ele><time>2026-03-30T10:09:15Z</time></trkpt><trkpt lat="46.08875758361274" lon="12.713956712744308"><ele>188.5</ele><time>2026-03-30T10:09:16Z</time></trkpt><trkpt lat="46.088663687316796" lon="12.714046961010148"><ele>188.25</ele><time>2026-03-30T10:09:17Z</time></trkpt><trkpt lat="46.0885610116872" lon="12.714145679653432"><ele>188.0</ele><time>2026-03-30T10:09:18Z</time></trkpt><trkpt lat="46.08845486591442" lon="12.714243390071944"><ele>188.0</ele><time>2026-03-30T10:09:19Z</time></trkpt><trkpt lat="46.08835157575013" lon="12.714329262407041"><ele>188.0</ele><time>2026-03-30T10:09:20Z</time></trkpt><trkpt lat="46.08823607093263" lon="12.714415926525929"><ele>188.0</ele><time>2026-03-30T10:09:21Z</time></trkpt><trkpt lat="46.08811324418125" lon="12.7145003714563"><ele>188.0</ele><time>2026-03-30T10:09:22Z</time></trkpt><trkpt lat="46.087991314328775" lon="12.714590599346709"><ele>187.5</ele><time>2026-03-30T10:09:23Z</time></trkpt><trkpt lat="46.087874269211" lon="12.714687655539569"><ele>187.0</ele><time>2026-03-30T10:09:24Z</time></trkpt><trkpt lat="46.08775089458918" lon="12.71479753880786"><ele>186.5</ele><time>2026-03-30T10:09:25Z</time></trkpt><trkpt lat="46.08764528531827" lon="12.714895652292908"><ele>186.0</ele><time>2026-03-30T10:09:26Z</time></trkpt><trkpt lat="46.087545157741275" lon="12.714983802219653"><ele>186.0</ele><time>2026-03-30T10:09:27Z</time></trkpt><trkpt lat="46.08744255282422" lon="12.71507528786479"><ele>186.0</ele><time>2026-03-30T10:09:28Z</time></trkpt><trkpt lat="46.08734209950087" lon="12.71516985802783"><ele>186.0</ele><time>2026-03-30T10:09:29Z</time></trkpt><trkpt lat="46.087261470342085" lon="12.715268083214978"><ele>186.0</ele><time>2026-03-30T10:09:30Z</time></trkpt><trkpt lat="46.08718904430193" lon="12.715373288075332"><ele>186.0</ele><time>2026-03-30T10:09:31Z</time></trkpt><trkpt lat="46.08712501396948" lon="12.715468919411318"><ele>185.83333333333334</ele><time>2026-03-30T10:09:32Z</time></trkpt><trkpt lat="46.08706421523162" lon="12.715527237999565"><ele>185.66666666666666</ele><time>2026-03-30T10:09:33Z</time></trkpt><trkpt lat="46.08699819714204" lon="12.715548085528011"><ele>185.5</ele><time>2026-03-30T10:09:34Z</time></trkpt><trkpt lat="46.086915823173726" lon="12.715545836897034"><ele>185.33333333333331</ele><time>2026-03-30T10:09:35Z</time></trkpt><trkpt lat="46.086832895679244" lon="12.715532551463607"><ele>185.16666666666666</ele><time>2026-03-30T10:09:36Z</time></trkpt><trkpt lat="46.08673785232908" lon="12.715539198477053"><ele>185.0</ele><time>2026-03-30T10:09:37Z</time></trkpt><trkpt lat="46.08664875537307" lon="12.715599472584758"><ele>184.5</ele><time>2026-03-30T10:09:38Z</time></trkpt><trkpt lat="46.086568648634824" lon="12.715674916516763"><ele>184.0</ele><time>2026-03-30T10:09:39Z</time></trkpt><trkpt lat="46.086477470684734" lon="12.715792968056483"><ele>183.5</ele><time>2026-03-30T10:09:40Z</time></trkpt><trkpt lat="46.08638194241019" lon="12.715925978966634"><ele>183.0</ele><time>2026-03-30T10:09:41Z</time></trkpt><trkpt lat="46.08626969616736" lon="12.716076518624103"><ele>183.0</ele><time>2026-03-30T10:09:42Z</time></trkpt><trkpt lat="46.08615918420583" lon="12.716217961776554"><ele>183.0</ele><time>2026-03-30T10:09:43Z</time></trkpt><trkpt lat="46.086061268358335" lon="12.716329095122473"><ele>183.0</ele><time>2026-03-30T10:09:44Z</time></trkpt><trkpt lat="46.08598339859056" lon="12.716415960429732"><ele>183.0</ele><time>2026-03-30T10:09:45Z</time></trkpt><trkpt lat="46.0859161609874" lon="12.71649291283504"><ele>183.0</ele><time>2026-03-30T10:09:46Z</time></trkpt><trkpt lat="46.08585706094209" lon="12.716543849666065"><ele>183.0</ele><time>2026-03-30T10:09:47Z</time></trkpt><trkpt lat="46.085783635278716" lon="12.716683342088322"><ele>183.0</ele><time>2026-03-30T10:09:49Z</time></trkpt><trkpt lat="46.08571941465664" lon="12.716769369537404"><ele>183.0</ele><time>2026-03-30T10:09:51Z</time></trkpt><trkpt lat="46.08565428811396" lon="12.716757722732007"><ele>183.0</ele><time>2026-03-30T10:11:02.001Z</time></trkpt><trkpt lat="46.08558441682592" lon="12.716729723014636"><ele>183.0</ele><time>2026-03-30T10:11:04.001Z</time></trkpt><trkpt lat="46.085508307872516" lon="12.716690136184614"><ele>183.0</ele><time>2026-03-30T10:11:07.001Z</time></trkpt><trkpt lat="46.08544119648176" lon="12.716598664741328"><ele>183.0</ele><time>2026-03-30T10:11:09.001Z</time></trkpt><trkpt lat="46.08539883326502" lon="12.716499545986395"><ele>183.0</ele><time>2026-03-30T10:11:11.001Z</time></trkpt><trkpt lat="46.08539870089502" lon="12.716366214209117"><ele>183.0</ele><time>2026-03-30T10:11:13.001Z</time></trkpt><trkpt lat="46.08540227317888" lon="12.7162704229388"><ele>183.0</ele><time>2026-03-30T10:11:14.001Z</time></trkpt><trkpt lat="46.08541728036768" lon="12.716164108461209"><ele>183.0</ele><time>2026-03-30T10:11:16.001Z</time></trkpt><trkpt lat="46.08535177845386" lon="12.716026291594405"><ele>183.0</ele><time>2026-03-30T10:11:19.001Z</time></trkpt><trkpt lat="46.08529937520771" lon="12.715952344321583"><ele>183.0</ele><time>2026-03-30T10:11:21Z</time></trkpt><trkpt lat="46.08522140118247" lon="12.715984551079202"><ele>183.0</ele><time>2026-03-30T10:11:24Z</time></trkpt><trkpt lat="46.08513650296178" lon="12.716051458174652"><ele>183.0</ele><time>2026-03-30T10:11:26Z</time></trkpt><trkpt lat="46.08505564740772" lon="12.71611641432536"><ele>183.0</ele><time>2026-03-30T10:11:28Z</time></trkpt><trkpt lat="46.084967765864775" lon="12.716189540528857"><ele>183.0</ele><time>2026-03-30T10:11:30Z</time></trkpt><trkpt lat="46.08489980507273" lon="12.716241958443431"><ele>183.0</ele><time>2026-03-30T10:11:32Z</time></trkpt><trkpt lat="46.08483603123816" lon="12.716289682287034"><ele>183.0</ele><time>2026-03-30T10:11:34Z</time></trkpt><trkpt lat="46.08477948678936" lon="12.71633141002508"><ele>183.0</ele><time>2026-03-30T10:11:36Z</time></trkpt><trkpt lat="46.08471003761794" lon="12.716380788326095"><ele>183.0</ele><time>2026-03-30T10:11:38Z</time></trkpt><trkpt lat="46.084637399952975" lon="12.716432433769018"><ele>183.0</ele><time>2026-03-30T10:11:39Z</time></trkpt><trkpt lat="46.08454642867388" lon="12.71649466707628"><ele>183.0</ele><time>2026-03-30T10:11:40Z</time></trkpt><trkpt lat="46.084446909817416" lon="12.716554885149266"><ele>183.0</ele><time>2026-03-30T10:11:41Z</time></trkpt><trkpt lat="46.08434165119867" lon="12.716621497033826"><ele>183.0</ele><time>2026-03-30T10:11:42Z</time></trkpt><trkpt lat="46.084238957474035" lon="12.71669278776848"><ele>183.0</ele><time>2026-03-30T10:11:43Z</time></trkpt><trkpt lat="46.084126215748825" lon="12.716771417174208"><ele>183.0</ele><time>2026-03-30T10:11:44Z</time></trkpt><trkpt lat="46.08401506061394" lon="12.716848940184343"><ele>182.60000000000002</ele><time>2026-03-30T10:11:45Z</time></trkpt><trkpt lat="46.083912651983894" lon="12.71692036309676"><ele>182.20000000000002</ele><time>2026-03-30T10:11:46Z</time></trkpt><trkpt lat="46.083809550814806" lon="12.716992268995986"><ele>181.8</ele><time>2026-03-30T10:11:47Z</time></trkpt><trkpt lat="46.08370926020733" lon="12.717062214629138"><ele>181.4</ele><time>2026-03-30T10:11:48Z</time></trkpt><trkpt lat="46.08361446864161" lon="12.717126814923411"><ele>181.0</ele><time>2026-03-30T10:11:49Z</time></trkpt><trkpt lat="46.08352184513826" lon="12.717189191643458"><ele>181.0</ele><time>2026-03-30T10:11:50Z</time></trkpt><trkpt lat="46.08343439736693" lon="12.717248082828494"><ele>181.0</ele><time>2026-03-30T10:11:51Z</time></trkpt><trkpt lat="46.08335209918967" lon="12.717303506097279"><ele>181.0</ele><time>2026-03-30T10:11:52Z</time></trkpt><trkpt lat="46.08326360947389" lon="12.717363098976472"><ele>181.0</ele><time>2026-03-30T10:11:53Z</time></trkpt><trkpt lat="46.08316980734598" lon="12.717426269404028"><ele>181.0</ele><time>2026-03-30T10:11:54Z</time></trkpt><trkpt lat="46.083068606417335" lon="12.717494981192479"><ele>181.5</ele><time>2026-03-30T10:11:55Z</time></trkpt><trkpt lat="46.08295995824804" lon="12.717569552214961"><ele>182.0</ele><time>2026-03-30T10:11:56Z</time></trkpt><trkpt lat="46.08284050282027" lon="12.717651540630305"><ele>182.5</ele><time>2026-03-30T10:11:57Z</time></trkpt><trkpt lat="46.08269333618162" lon="12.717752548625064"><ele>183.0</ele><time>2026-03-30T10:11:58Z</time></trkpt><trkpt lat="46.08253657242274" lon="12.717860143689165"><ele>181.33333333333334</ele><time>2026-03-30T10:11:59Z</time></trkpt><trkpt lat="46.08238262134258" lon="12.717965144703628"><ele>179.66666666666669</ele><time>2026-03-30T10:12:00Z</time></trkpt><trkpt lat="46.08222640676007" lon="12.71807089317924"><ele>178.0</ele><time>2026-03-30T10:12:01Z</time></trkpt><trkpt lat="46.08207235658689" lon="12.718175037711827"><ele>178.0</ele><time>2026-03-30T10:12:02Z</time></trkpt><trkpt lat="46.08191866142977" lon="12.71827759847632"><ele>178.0</ele><time>2026-03-30T10:12:03Z</time></trkpt><trkpt lat="46.0817720385001" lon="12.718375439909789"><ele>178.0</ele><time>2026-03-30T10:12:04Z</time></trkpt><trkpt lat="46.08160651408379" lon="12.718485896039056"><ele>178.0</ele><time>2026-03-30T10:12:05Z</time></trkpt><trkpt lat="46.081426818646094" lon="12.7186048191183"><ele>178.0</ele><time>2026-03-30T10:12:06Z</time></trkpt><trkpt lat="46.08123635056824" lon="12.718730507318192"><ele>178.0</ele><time>2026-03-30T10:12:07Z</time></trkpt><trkpt lat="46.081052621381716" lon="12.718855521644786"><ele>178.0</ele><time>2026-03-30T10:12:08Z</time></trkpt><trkpt lat="46.0808828325537" lon="12.718975376790207"><ele>178.0</ele><time>2026-03-30T10:12:09Z</time></trkpt><trkpt lat="46.080718933807994" lon="12.719083846892747"><ele>178.0</ele><time>2026-03-30T10:12:10Z</time></trkpt><trkpt lat="46.08055586262308" lon="12.71918354337376"><ele>177.66666666666669</ele><time>2026-03-30T10:12:11Z</time></trkpt><trkpt lat="46.08039110528811" lon="12.71929299470088"><ele>177.33333333333334</ele><time>2026-03-30T10:12:12Z</time></trkpt><trkpt lat="46.08022411522032" lon="12.71940653604812"><ele>177.0</ele><time>2026-03-30T10:12:13.001Z</time></trkpt><trkpt lat="46.08004884410077" lon="12.719525708066305"><ele>176.0</ele><time>2026-03-30T10:12:14.001Z</time></trkpt><trkpt lat="46.079879203421065" lon="12.719641051731113"><ele>175.0</ele><time>2026-03-30T10:12:15.001Z</time></trkpt><trkpt lat="46.07970201499374" lon="12.719761527297718"><ele>174.0</ele><time>2026-03-30T10:12:16.001Z</time></trkpt><trkpt lat="46.07954200753499" lon="12.719895332029369"><ele>174.0</ele><time>2026-03-30T10:12:17.001Z</time></trkpt><trkpt lat="46.07935929171939" lon="12.71999503392707"><ele>174.0</ele><time>2026-03-30T10:12:18.001Z</time></trkpt><trkpt lat="46.0792041216134" lon="12.72012775745191"><ele>174.0</ele><time>2026-03-30T10:12:19.001Z</time></trkpt><trkpt lat="46.079042205699416" lon="12.720232842063249"><ele>173.33333333333334</ele><time>2026-03-30T10:12:20.001Z</time></trkpt><trkpt lat="46.07887927883221" lon="12.720338185969537"><ele>172.66666666666669</ele><time>2026-03-30T10:12:21.001Z</time></trkpt><trkpt lat="46.07871178058158" lon="12.720445319650258"><ele>172.0</ele><time>2026-03-30T10:12:22.001Z</time></trkpt><trkpt lat="46.078540239563445" lon="12.720558594483142"><ele>172.0</ele><time>2026-03-30T10:12:23.001Z</time></trkpt><trkpt lat="46.078372213236364" lon="12.720671057960443"><ele>172.0</ele><time>2026-03-30T10:12:24.001Z</time></trkpt><trkpt lat="46.078223232577365" lon="12.720774893050715"><ele>172.0</ele><time>2026-03-30T10:12:25.001Z</time></trkpt><trkpt lat="46.07807100112189" lon="12.720883225183501"><ele>172.0</ele><time>2026-03-30T10:12:26.001Z</time></trkpt><trkpt lat="46.07791322943541" lon="12.72098894984306"><ele>172.0</ele><time>2026-03-30T10:12:27.001Z</time></trkpt><trkpt lat="46.077754007929315" lon="12.721096338426849"><ele>172.0</ele><time>2026-03-30T10:12:28.001Z</time></trkpt><trkpt lat="46.07758485610487" lon="12.721211706651157"><ele>171.33333333333334</ele><time>2026-03-30T10:12:29.001Z</time></trkpt><trkpt lat="46.077417959199224" lon="12.7213239346064"><ele>170.66666666666666</ele><time>2026-03-30T10:12:30.001Z</time></trkpt><trkpt lat="46.077252040386" lon="12.721437033046842"><ele>170.0</ele><time>2026-03-30T10:12:31.001Z</time></trkpt><trkpt lat="46.07710218615347" lon="12.721542067330471"><ele>170.0</ele><time>2026-03-30T10:12:32.001Z</time></trkpt><trkpt lat="46.07695769582124" lon="12.721613849999324"><ele>170.0</ele><time>2026-03-30T10:12:33.001Z</time></trkpt><trkpt lat="46.07682740614066" lon="12.721700135502493"><ele>170.0</ele><time>2026-03-30T10:12:34.001Z</time></trkpt><trkpt lat="46.07670726080463" lon="12.721779702887718"><ele>170.0</ele><time>2026-03-30T10:12:35.001Z</time></trkpt><trkpt lat="46.07660001504019" lon="12.721869372889055"><ele>169.5</ele><time>2026-03-30T10:12:36.001Z</time></trkpt><trkpt lat="46.07649604317652" lon="12.721934788682589"><ele>169.0</ele><time>2026-03-30T10:12:37.001Z</time></trkpt><trkpt lat="46.07639623317113" lon="12.722004581603976"><ele>168.5</ele><time>2026-03-30T10:12:38.001Z</time></trkpt><trkpt lat="46.076290098451075" lon="12.7220783971484"><ele>168.0</ele><time>2026-03-30T10:12:39.001Z</time></trkpt><trkpt lat="46.076172317310025" lon="12.722156130655561"><ele>168.0</ele><time>2026-03-30T10:12:40.001Z</time></trkpt><trkpt lat="46.07604844022116" lon="12.72223163936117"><ele>168.0</ele><time>2026-03-30T10:12:41.001Z</time></trkpt><trkpt lat="46.0759267069955" lon="12.722322572333667"><ele>168.0</ele><time>2026-03-30T10:12:42.001Z</time></trkpt><trkpt lat="46.075781028519145" lon="12.722400956963446"><ele>168.0</ele><time>2026-03-30T10:12:43.001Z</time></trkpt><trkpt lat="46.07563503411774" lon="12.722525981715176"><ele>167.66666666666666</ele><time>2026-03-30T10:12:44.001Z</time></trkpt><trkpt lat="46.07548376778648" lon="12.72262410372063"><ele>167.33333333333331</ele><time>2026-03-30T10:12:45.001Z</time></trkpt><trkpt lat="46.075332384009975" lon="12.72270387839991"><ele>167.0</ele><time>2026-03-30T10:12:46.001Z</time></trkpt><trkpt lat="46.0751838714455" lon="12.722801619189932"><ele>166.66666666666666</ele><time>2026-03-30T10:12:47.001Z</time></trkpt><trkpt lat="46.07503568649173" lon="12.722899170877593"><ele>166.33333333333334</ele><time>2026-03-30T10:12:48.001Z</time></trkpt><trkpt lat="46.07487795785929" lon="12.723003005147003"><ele>166.0</ele><time>2026-03-30T10:12:49.001Z</time></trkpt><trkpt lat="46.07471648329252" lon="12.72310977613265"><ele>166.0</ele><time>2026-03-30T10:12:50.001Z</time></trkpt><trkpt lat="46.074557938288386" lon="12.723215672453637"><ele>166.0</ele><time>2026-03-30T10:12:51.001Z</time></trkpt><trkpt lat="46.07439481005398" lon="12.723325133712157"><ele>166.0</ele><time>2026-03-30T10:12:52.001Z</time></trkpt><trkpt lat="46.07422869786884" lon="12.723437138932358"><ele>166.0</ele><time>2026-03-30T10:12:53.001Z</time></trkpt><trkpt lat="46.07405425504436" lon="12.723554761151734"><ele>166.0</ele><time>2026-03-30T10:12:54.001Z</time></trkpt><trkpt lat="46.07386825996484" lon="12.72368017283171"><ele>166.0</ele><time>2026-03-30T10:12:55.001Z</time></trkpt><trkpt lat="46.0736917895884" lon="12.72379988010871"><ele>166.0</ele><time>2026-03-30T10:12:56.001Z</time></trkpt><trkpt lat="46.07351393628273" lon="12.723921220405781"><ele>166.0</ele><time>2026-03-30T10:12:57.001Z</time></trkpt><trkpt lat="46.07333488002578" lon="12.724043381532299"><ele>166.0</ele><time>2026-03-30T10:12:58.001Z</time></trkpt><trkpt lat="46.0731618200525" lon="12.72416294687964"><ele>165.66666666666669</ele><time>2026-03-30T10:12:59.001Z</time></trkpt><trkpt lat="46.072978377745535" lon="12.724293201170813"><ele>165.33333333333334</ele><time>2026-03-30T10:13:00.001Z</time></trkpt><trkpt lat="46.07279708352415" lon="12.724416917413935"><ele>165.0</ele><time>2026-03-30T10:13:01.001Z</time></trkpt><trkpt lat="46.07261355228406" lon="12.724539283854815"><ele>165.0</ele><time>2026-03-30T10:13:02.001Z</time></trkpt><trkpt lat="46.072432425750925" lon="12.724660047029838"><ele>165.0</ele><time>2026-03-30T10:13:03.001Z</time></trkpt><trkpt lat="46.072251371477755" lon="12.724779642607002"><ele>165.0</ele><time>2026-03-30T10:13:04.001Z</time></trkpt><trkpt lat="46.07207167622747" lon="12.724897287987464"><ele>165.0</ele><time>2026-03-30T10:13:05.001Z</time></trkpt><trkpt lat="46.0718958378589" lon="12.7250124103365"><ele>165.0</ele><time>2026-03-30T10:13:06.001Z</time></trkpt><trkpt lat="46.071716164040645" lon="12.725130041953554"><ele>165.0</ele><time>2026-03-30T10:13:07.001Z</time></trkpt><trkpt lat="46.07153357819061" lon="12.725250496086314"><ele>163.66666666666666</ele><time>2026-03-30T10:13:08.001Z</time></trkpt><trkpt lat="46.07135295210192" lon="12.725370940285714"><ele>162.33333333333331</ele><time>2026-03-30T10:13:09.001Z</time></trkpt><trkpt lat="46.0711660295557" lon="12.725496749363106"><ele>161.0</ele><time>2026-03-30T10:13:10.001Z</time></trkpt><trkpt lat="46.07096347016035" lon="12.725633082528926"><ele>161.0</ele><time>2026-03-30T10:13:11.001Z</time></trkpt><trkpt lat="46.070753582963334" lon="12.725775482964364"><ele>161.0</ele><time>2026-03-30T10:13:12.001Z</time></trkpt><trkpt lat="46.07054346443213" lon="12.725918666992795"><ele>160.5</ele><time>2026-03-30T10:13:13.001Z</time></trkpt><trkpt lat="46.07032769944167" lon="12.72606569877178"><ele>160.0</ele><time>2026-03-30T10:13:14.001Z</time></trkpt><trkpt lat="46.07012284091595" lon="12.726205297863471"><ele>160.0</ele><time>2026-03-30T10:13:15.001Z</time></trkpt><trkpt lat="46.06990218395041" lon="12.726352806077642"><ele>160.0</ele><time>2026-03-30T10:13:16.001Z</time></trkpt><trkpt lat="46.069668563795986" lon="12.726508658380563"><ele>160.0</ele><time>2026-03-30T10:13:17.001Z</time></trkpt><trkpt lat="46.06943260392634" lon="12.726666071463477"><ele>160.0</ele><time>2026-03-30T10:13:18.001Z</time></trkpt><trkpt lat="46.06919082081271" lon="12.726828041439232"><ele>159.0</ele><time>2026-03-30T10:13:19.001Z</time></trkpt><trkpt lat="46.068954606480915" lon="12.726987236370167"><ele>158.0</ele><time>2026-03-30T10:13:20.001Z</time></trkpt><trkpt lat="46.068745233425446" lon="12.727128341486281"><ele>158.0</ele><time>2026-03-30T10:13:21.001Z</time></trkpt><trkpt lat="46.06855299872872" lon="12.727255050127258"><ele>158.0</ele><time>2026-03-30T10:13:22.001Z</time></trkpt><trkpt lat="46.068369256777125" lon="12.727375711461763"><ele>158.0</ele><time>2026-03-30T10:13:23.001Z</time></trkpt><trkpt lat="46.068199313423314" lon="12.727487106279478"><ele>158.0</ele><time>2026-03-30T10:13:24.001Z</time></trkpt><trkpt lat="46.06803812068005" lon="12.727592765236102"><ele>158.0</ele><time>2026-03-30T10:13:25.001Z</time></trkpt><trkpt lat="46.06788402373702" lon="12.72769672480926"><ele>158.0</ele><time>2026-03-30T10:13:26.001Z</time></trkpt><trkpt lat="46.067739012493305" lon="12.727795448457822"><ele>157.66666666666666</ele><time>2026-03-30T10:13:27Z</time></trkpt><trkpt lat="46.06758806961452" lon="12.727895496614874"><ele>157.33333333333334</ele><time>2026-03-30T10:13:28Z</time></trkpt><trkpt lat="46.067449895700236" lon="12.72797880123433"><ele>157.0</ele><time>2026-03-30T10:13:29Z</time></trkpt><trkpt lat="46.06732227914618" lon="12.728051133276558"><ele>157.0</ele><time>2026-03-30T10:13:30Z</time></trkpt><trkpt lat="46.067210343371755" lon="12.728111505880385"><ele>157.0</ele><time>2026-03-30T10:13:31Z</time></trkpt><trkpt lat="46.06709323318886" lon="12.728169765145283"><ele>157.0</ele><time>2026-03-30T10:13:32Z</time></trkpt><trkpt lat="46.066982841035674" lon="12.728218845178759"><ele>157.0</ele><time>2026-03-30T10:13:33Z</time></trkpt><trkpt lat="46.06687060547116" lon="12.728263183574366"><ele>157.0</ele><time>2026-03-30T10:13:34Z</time></trkpt><trkpt lat="46.066769688443024" lon="12.728295176012828"><ele>157.0</ele><time>2026-03-30T10:13:35Z</time></trkpt><trkpt lat="46.06667150663051" lon="12.728320151903231"><ele>157.0</ele><time>2026-03-30T10:13:36Z</time></trkpt><trkpt lat="46.06656760547734" lon="12.7283406614186"><ele>157.0</ele><time>2026-03-30T10:13:37Z</time></trkpt><trkpt lat="46.06644798459231" lon="12.728356868468714"><ele>157.0</ele><time>2026-03-30T10:13:38Z</time></trkpt><trkpt lat="46.066297532282434" lon="12.728372866703333"><ele>156.66666666666669</ele><time>2026-03-30T10:13:39Z</time></trkpt><trkpt lat="46.066111287727175" lon="12.728391613218982"><ele>156.33333333333334</ele><time>2026-03-30T10:13:40Z</time></trkpt><trkpt lat="46.065907633459595" lon="12.728411039652256"><ele>156.0</ele><time>2026-03-30T10:13:41Z</time></trkpt><trkpt lat="46.06571665594123" lon="12.728427770136678"><ele>155.5</ele><time>2026-03-30T10:13:42Z</time></trkpt><trkpt lat="46.06556226108549" lon="12.728441295781096"><ele>155.0</ele><time>2026-03-30T10:13:43Z</time></trkpt><trkpt lat="46.0654300138856" lon="12.728452881059262"><ele>154.5</ele><time>2026-03-30T10:13:44Z</time></trkpt><trkpt lat="46.065306851195174" lon="12.728463670505166"><ele>154.0</ele><time>2026-03-30T10:13:45Z</time></trkpt><trkpt lat="46.065172630605616" lon="12.728514686135066"><ele>154.0</ele><time>2026-03-30T10:13:46Z</time></trkpt><trkpt lat="46.0650380667262" lon="12.72851529554253"><ele>154.0</ele><time>2026-03-30T10:13:47Z</time></trkpt><trkpt lat="46.064919553795114" lon="12.728524471352024"><ele>154.0</ele><time>2026-03-30T10:13:48Z</time></trkpt><trkpt lat="46.064799765749584" lon="12.728542223521549"><ele>154.0</ele><time>2026-03-30T10:13:49Z</time></trkpt><trkpt lat="46.064681586093286" lon="12.728552770737904"><ele>153.75</ele><time>2026-03-30T10:13:50Z</time></trkpt><trkpt lat="46.06454987777622" lon="12.728557884402644"><ele>153.5</ele><time>2026-03-30T10:13:51Z</time></trkpt><trkpt lat="46.06441025022348" lon="12.72855801087297"><ele>153.25</ele><time>2026-03-30T10:13:52Z</time></trkpt><trkpt lat="46.06426061121694" lon="12.728561027831558"><ele>153.0</ele><time>2026-03-30T10:13:53Z</time></trkpt><trkpt lat="46.06412551364043" lon="12.728578607671725"><ele>152.5</ele><time>2026-03-30T10:13:54Z</time></trkpt><trkpt lat="46.063979071464736" lon="12.728603248763761"><ele>152.0</ele><time>2026-03-30T10:13:55Z</time></trkpt><trkpt lat="46.06383506953016" lon="12.728623951659031"><ele>151.5</ele><time>2026-03-30T10:13:56Z</time></trkpt><trkpt lat="46.063709400214144" lon="12.728640944562397"><ele>151.0</ele><time>2026-03-30T10:13:57Z</time></trkpt><trkpt lat="46.06359613350741" lon="12.728649700140018"><ele>151.0</ele><time>2026-03-30T10:13:58Z</time></trkpt><trkpt lat="46.06348995911449" lon="12.728657981563552"><ele>151.0</ele><time>2026-03-30T10:13:59Z</time></trkpt><trkpt lat="46.06339811043624" lon="12.728662113037252"><ele>151.0</ele><time>2026-03-30T10:14:00Z</time></trkpt><trkpt lat="46.063322743145726" lon="12.728660404452791"><ele>151.0</ele><time>2026-03-30T10:14:01Z</time></trkpt><trkpt lat="46.0632147770275" lon="12.728661484545643"><ele>151.0</ele><time>2026-03-30T10:14:03Z</time></trkpt><trkpt lat="46.06317134053429" lon="12.728748539056644"><ele>151.0</ele><time>2026-03-30T10:14:05Z</time></trkpt><trkpt lat="46.0632069812391" lon="12.728873880514492"><ele>151.0</ele><time>2026-03-30T10:14:07Z</time></trkpt><trkpt lat="46.063259241970925" lon="12.728942262400178"><ele>151.0</ele><time>2026-03-30T10:14:08Z</time></trkpt><trkpt lat="46.06334204275608" lon="12.729020229104963"><ele>151.0</ele><time>2026-03-30T10:14:09Z</time></trkpt><trkpt lat="46.06343800620512" lon="12.72907207914555"><ele>151.0</ele><time>2026-03-30T10:14:10Z</time></trkpt><trkpt lat="46.063537768053585" lon="12.729113605022675"><ele>151.0</ele><time>2026-03-30T10:14:11Z</time></trkpt><trkpt lat="46.06363063936394" lon="12.729124697537468"><ele>151.0</ele><time>2026-03-30T10:14:12Z</time></trkpt><trkpt lat="46.06374912733469" lon="12.729114926419799"><ele>151.0</ele><time>2026-03-30T10:14:13Z</time></trkpt><trkpt lat="46.063889777491646" lon="12.729072128000697"><ele>151.0</ele><time>2026-03-30T10:14:14Z</time></trkpt><trkpt lat="46.06405131875452" lon="12.728998866283929"><ele>151.5</ele><time>2026-03-30T10:14:15Z</time></trkpt><trkpt lat="46.06419879537518" lon="12.7289223390715"><ele>152.0</ele><time>2026-03-30T10:14:16Z</time></trkpt><trkpt lat="46.06431840344076" lon="12.72887945949599"><ele>152.5</ele><time>2026-03-30T10:14:17Z</time></trkpt><trkpt lat="46.064429996593724" lon="12.728870467388713"><ele>153.0</ele><time>2026-03-30T10:14:18Z</time></trkpt><trkpt lat="46.064571483690635" lon="12.728884139321147"><ele>153.0</ele><time>2026-03-30T10:14:19Z</time></trkpt><trkpt lat="46.064705041163585" lon="12.728905140610582"><ele>153.0</ele><time>2026-03-30T10:14:20Z</time></trkpt><trkpt lat="46.06481410490041" lon="12.728929226472186"><ele>153.0</ele><time>2026-03-30T10:14:21Z</time></trkpt><trkpt lat="46.064907984410624" lon="12.728950413367007"><ele>153.0</ele><time>2026-03-30T10:14:22Z</time></trkpt><trkpt lat="46.064971307718" lon="12.72896135480677"><ele>153.0</ele><time>2026-03-30T10:14:23Z</time></trkpt><trkpt lat="46.065037831756804" lon="12.72905471193584"><ele>153.25</ele><time>2026-03-30T10:14:25Z</time></trkpt><trkpt lat="46.06504639238879" lon="12.729257783372436"><ele>153.5</ele><time>2026-03-30T10:14:27Z</time></trkpt><trkpt lat="46.065012580266426" lon="12.729416850820952"><ele>153.75</ele><time>2026-03-30T10:14:28Z</time></trkpt><trkpt lat="46.06497317267785" lon="12.729610984913414"><ele>154.0</ele><time>2026-03-30T10:14:29Z</time></trkpt><trkpt lat="46.064929944481065" lon="12.729792370135"><ele>153.66666666666669</ele><time>2026-03-30T10:14:30Z</time></trkpt><trkpt lat="46.06491100164835" lon="12.729937693128873"><ele>153.33333333333334</ele><time>2026-03-30T10:14:31Z</time></trkpt><trkpt lat="46.064914491384464" lon="12.730054276400294"><ele>153.0</ele><time>2026-03-30T10:14:32.001Z</time></trkpt><trkpt lat="46.06491983569933" lon="12.730158625395976"><ele>152.66666666666666</ele><time>2026-03-30T10:14:33.001Z</time></trkpt><trkpt lat="46.06491187565289" lon="12.730275952765847"><ele>152.33333333333331</ele><time>2026-03-30T10:14:35.001Z</time></trkpt><trkpt lat="46.06487546072591" lon="12.73040097184159"><ele>152.0</ele><time>2026-03-30T10:14:37.001Z</time></trkpt><trkpt lat="46.06483888641231" lon="12.73048438610989"><ele>152.0</ele><time>2026-03-30T10:14:38.001Z</time></trkpt><trkpt lat="46.06479669125115" lon="12.73055215269568"><ele>152.0</ele><time>2026-03-30T10:14:39.001Z</time></trkpt><trkpt lat="46.06468180023465" lon="12.730651469664737"><ele>152.0</ele><time>2026-03-30T10:14:41.001Z</time></trkpt><trkpt lat="46.06459907398638" lon="12.730696735536604"><ele>152.0</ele><time>2026-03-30T10:14:42.001Z</time></trkpt><trkpt lat="46.06452061769682" lon="12.730742647244876"><ele>152.0</ele><time>2026-03-30T10:14:43.001Z</time></trkpt><trkpt lat="46.064437402569716" lon="12.730776915740881"><ele>152.0</ele><time>2026-03-30T10:14:44.001Z</time></trkpt><trkpt lat="46.064359733530935" lon="12.730803492990017"><ele>152.0</ele><time>2026-03-30T10:14:45.001Z</time></trkpt><trkpt lat="46.064288695999245" lon="12.730819155822587"><ele>152.0</ele><time>2026-03-30T10:14:46.001Z</time></trkpt><trkpt lat="46.06422319264707" lon="12.730829202768895"><ele>152.0</ele><time>2026-03-30T10:14:47.001Z</time></trkpt><trkpt lat="46.06414938984952" lon="12.730853575523074"><ele>152.0</ele><time>2026-03-30T10:14:48.001Z</time></trkpt><trkpt lat="46.06404502128503" lon="12.730887450359665"><ele>152.0</ele><time>2026-03-30T10:14:50.001Z</time></trkpt><trkpt lat="46.063921147725985" lon="12.730954439889091"><ele>151.85714285714286</ele><time>2026-03-30T10:14:52.001Z</time></trkpt><trkpt lat="46.063848493363274" lon="12.73098974736342"><ele>151.71428571428572</ele><time>2026-03-30T10:14:53.001Z</time></trkpt><trkpt lat="46.063775291159935" lon="12.731013726822397"><ele>151.57142857142858</ele><time>2026-03-30T10:14:54.001Z</time></trkpt><trkpt lat="46.06370702962606" lon="12.731024607881881"><ele>151.42857142857144</ele><time>2026-03-30T10:14:55.001Z</time></trkpt><trkpt lat="46.063637465825934" lon="12.73103309248757"><ele>151.28571428571428</ele><time>2026-03-30T10:14:56.001Z</time></trkpt><trkpt lat="46.06356835573265" lon="12.731055505495076"><ele>151.14285714285717</ele><time>2026-03-30T10:14:57.001Z</time></trkpt><trkpt lat="46.063497071349666" lon="12.731097298288024"><ele>151.0</ele><time>2026-03-30T10:14:58.001Z</time></trkpt><trkpt lat="46.063431599257434" lon="12.731160452531615"><ele>151.0</ele><time>2026-03-30T10:14:59.001Z</time></trkpt><trkpt lat="46.06337095499867" lon="12.731226011385134"><ele>151.0</ele><time>2026-03-30T10:15:00.001Z</time></trkpt><trkpt lat="46.0632952858675" lon="12.73128765405"><ele>151.0</ele><time>2026-03-30T10:15:01.001Z</time></trkpt><trkpt lat="46.063226446418994" lon="12.731338017412073"><ele>151.0</ele><time>2026-03-30T10:15:02.001Z</time></trkpt><trkpt lat="46.063164315488734" lon="12.73139088422281"><ele>151.0</ele><time>2026-03-30T10:15:03.001Z</time></trkpt><trkpt lat="46.06309505106787" lon="12.73144957286363"><ele>151.0</ele><time>2026-03-30T10:15:04.001Z</time></trkpt><trkpt lat="46.063027463891224" lon="12.731502701291571"><ele>151.0</ele><time>2026-03-30T10:15:05.001Z</time></trkpt><trkpt lat="46.06296587127927" lon="12.731548935916212"><ele>151.0</ele><time>2026-03-30T10:15:06.001Z</time></trkpt><trkpt lat="46.06290734259831" lon="12.73158697309854"><ele>151.0</ele><time>2026-03-30T10:15:07.001Z</time></trkpt><trkpt lat="46.06284497757427" lon="12.731700914131663"><ele>151.0</ele><time>2026-03-30T10:15:09.001Z</time></trkpt><trkpt lat="46.06279053890831" lon="12.731767015901013"><ele>151.0</ele><time>2026-03-30T10:15:11.001Z</time></trkpt><trkpt lat="46.062734722830776" lon="12.731849629412375"><ele>151.0</ele><time>2026-03-30T10:15:13.001Z</time></trkpt><trkpt lat="46.06263912592672" lon="12.731968306193595"><ele>150.6</ele><time>2026-03-30T10:15:15.001Z</time></trkpt><trkpt lat="46.06258786904694" lon="12.732024320066019"><ele>150.2</ele><time>2026-03-30T10:15:16.001Z</time></trkpt><trkpt lat="46.06249596281905" lon="12.732108507808094"><ele>149.8</ele><time>2026-03-30T10:15:18.001Z</time></trkpt><trkpt lat="46.06239737215771" lon="12.732177738866708"><ele>149.4</ele><time>2026-03-30T10:15:20.001Z</time></trkpt><trkpt lat="46.062291290907986" lon="12.732251162647417"><ele>149.0</ele><time>2026-03-30T10:15:22.001Z</time></trkpt><trkpt lat="46.06222720796125" lon="12.732291098278564"><ele>149.0</ele><time>2026-03-30T10:15:23.001Z</time></trkpt><trkpt lat="46.062123829570375" lon="12.73234860305523"><ele>149.0</ele><time>2026-03-30T10:15:25.001Z</time></trkpt><trkpt lat="46.06201795930697" lon="12.73242904988604"><ele>149.0</ele><time>2026-03-30T10:15:27.001Z</time></trkpt><trkpt lat="46.06196781806117" lon="12.732484657860388"><ele>149.0</ele><time>2026-03-30T10:15:28.001Z</time></trkpt><trkpt lat="46.06189144259459" lon="12.732574095547035"><ele>149.0</ele><time>2026-03-30T10:15:30.001Z</time></trkpt><trkpt lat="46.061845451909456" lon="12.7327018923035"><ele>148.83333333333331</ele><time>2026-03-30T10:15:32.001Z</time></trkpt><trkpt lat="46.06180777291467" lon="12.732821423857441"><ele>148.66666666666666</ele><time>2026-03-30T10:15:33Z</time></trkpt><trkpt lat="46.06176912799783" lon="12.732923490101491"><ele>148.5</ele><time>2026-03-30T10:15:34Z</time></trkpt><trkpt lat="46.061733938001076" lon="12.733017556414987"><ele>148.33333333333334</ele><time>2026-03-30T10:15:35Z</time></trkpt><trkpt lat="46.061708465738924" lon="12.733109005153798"><ele>148.16666666666669</ele><time>2026-03-30T10:15:36Z</time></trkpt><trkpt lat="46.06167490439276" lon="12.733186494651076"><ele>148.0</ele><time>2026-03-30T10:15:37Z</time></trkpt><trkpt lat="46.06159839796083" lon="12.733286014339688"><ele>148.0</ele><time>2026-03-30T10:15:39Z</time></trkpt><trkpt lat="46.06154530559961" lon="12.733348631446164"><ele>148.0</ele><time>2026-03-30T10:15:40Z</time></trkpt><trkpt lat="46.061484973018985" lon="12.733406050159724"><ele>148.0</ele><time>2026-03-30T10:15:41Z</time></trkpt><trkpt lat="46.061413989886105" lon="12.733474222178149"><ele>148.0</ele><time>2026-03-30T10:15:42Z</time></trkpt><trkpt lat="46.061360376503" lon="12.73353955614192"><ele>148.0</ele><time>2026-03-30T10:15:43Z</time></trkpt><trkpt lat="46.06127304994628" lon="12.733665084153525"><ele>148.0</ele><time>2026-03-30T10:15:45Z</time></trkpt><trkpt lat="46.06122183000087" lon="12.733723187447655"><ele>147.83333333333334</ele><time>2026-03-30T10:15:46Z</time></trkpt><trkpt lat="46.06116579276215" lon="12.73378246202863"><ele>147.66666666666669</ele><time>2026-03-30T10:15:47Z</time></trkpt><trkpt lat="46.061115661272474" lon="12.733853055349593"><ele>147.5</ele><time>2026-03-30T10:15:48Z</time></trkpt><trkpt lat="46.06105185290513" lon="12.733953907826491"><ele>147.33333333333334</ele><time>2026-03-30T10:15:50Z</time></trkpt><trkpt lat="46.06100358125833" lon="12.734098769348165"><ele>147.16666666666666</ele><time>2026-03-30T10:15:52Z</time></trkpt><trkpt lat="46.06098369014996" lon="12.734239515955236"><ele>147.0</ele><time>2026-03-30T10:15:54Z</time></trkpt><trkpt lat="46.060950430788864" lon="12.734328852923479"><ele>146.83333333333334</ele><time>2026-03-30T10:15:56Z</time></trkpt><trkpt lat="46.06096022374764" lon="12.734448694316306"><ele>146.66666666666666</ele><time>2026-03-30T10:15:58Z</time></trkpt><trkpt lat="46.06097891244612" lon="12.734563392574872"><ele>146.5</ele><time>2026-03-30T10:16:00Z</time></trkpt><trkpt lat="46.06093799121808" lon="12.734695770088774"><ele>146.33333333333331</ele><time>2026-03-30T10:16:02Z</time></trkpt><trkpt lat="46.060898084119756" lon="12.734772597469329"><ele>146.16666666666666</ele><time>2026-03-30T10:16:03Z</time></trkpt><trkpt lat="46.06084154244301" lon="12.734907723948552"><ele>146.0</ele><time>2026-03-30T10:16:05Z</time></trkpt><trkpt lat="46.06076451799362" lon="12.73503251979399"><ele>145.8</ele><time>2026-03-30T10:16:07Z</time></trkpt><trkpt lat="46.06068304620682" lon="12.735074684985701"><ele>145.6</ele><time>2026-03-30T10:16:09Z</time></trkpt><trkpt lat="46.060577346844724" lon="12.735173680649233"><ele>145.4</ele><time>2026-03-30T10:16:11Z</time></trkpt><trkpt lat="46.06052709146795" lon="12.735231949641836"><ele>145.2</ele><time>2026-03-30T10:16:12Z</time></trkpt><trkpt lat="46.06044769690314" lon="12.73527471138649"><ele>145.0</ele><time>2026-03-30T10:16:14Z</time></trkpt><trkpt lat="46.060319127192464" lon="12.73521291062607"><ele>145.0</ele><time>2026-03-30T10:16:16Z</time></trkpt><trkpt lat="46.0602231921639" lon="12.735162992668538"><ele>145.0</ele><time>2026-03-30T10:16:17Z</time></trkpt><trkpt lat="46.06012406612196" lon="12.735104369279194"><ele>145.0</ele><time>2026-03-30T10:16:18Z</time></trkpt><trkpt lat="46.06005023153729" lon="12.735069890976321"><ele>145.0</ele><time>2026-03-30T10:16:19Z</time></trkpt><trkpt lat="46.05992839706666" lon="12.735052091731017"><ele>145.0</ele><time>2026-03-30T10:16:21Z</time></trkpt><trkpt lat="46.05985308982983" lon="12.735023730571607"><ele>145.0</ele><time>2026-03-30T10:16:22Z</time></trkpt><trkpt lat="46.059773905939736" lon="12.734988448135894"><ele>145.0</ele><time>2026-03-30T10:16:23Z</time></trkpt><trkpt lat="46.05968010951877" lon="12.734947639315921"><ele>145.0</ele><time>2026-03-30T10:16:24Z</time></trkpt><trkpt lat="46.059591922702005" lon="12.734898154369887"><ele>145.0</ele><time>2026-03-30T10:16:25Z</time></trkpt><trkpt lat="46.05950541153021" lon="12.734850158353904"><ele>145.0</ele><time>2026-03-30T10:16:26Z</time></trkpt><trkpt lat="46.059430626246744" lon="12.734807971589413"><ele>145.0</ele><time>2026-03-30T10:16:27Z</time></trkpt><trkpt lat="46.059348637201076" lon="12.73477669928946"><ele>145.0</ele><time>2026-03-30T10:16:28Z</time></trkpt><trkpt lat="46.059260548738244" lon="12.73474871781184"><ele>145.0</ele><time>2026-03-30T10:16:29Z</time></trkpt><trkpt lat="46.05916605493578" lon="12.734714413945643"><ele>145.0</ele><time>2026-03-30T10:16:30Z</time></trkpt><trkpt lat="46.05908025548242" lon="12.734689960123237"><ele>145.0</ele><time>2026-03-30T10:16:31Z</time></trkpt><trkpt lat="46.05898560321034" lon="12.734665052576576"><ele>145.0</ele><time>2026-03-30T10:16:32Z</time></trkpt><trkpt lat="46.05888840493795" lon="12.734636064191768"><ele>144.5</ele><time>2026-03-30T10:16:33Z</time></trkpt><trkpt lat="46.05878240686175" lon="12.734608169229313"><ele>144.0</ele><time>2026-03-30T10:16:34Z</time></trkpt><trkpt lat="46.05869089235706" lon="12.734586355716132"><ele>143.5</ele><time>2026-03-30T10:16:35Z</time></trkpt><trkpt lat="46.05861678179039" lon="12.734560721067336"><ele>143.0</ele><time>2026-03-30T10:16:36Z</time></trkpt><trkpt lat="46.0585449848926" lon="12.73453617661026"><ele>142.5</ele><time>2026-03-30T10:16:37Z</time></trkpt><trkpt lat="46.05847961157006" lon="12.734519499238333"><ele>142.0</ele><time>2026-03-30T10:16:38Z</time></trkpt><trkpt lat="46.05836213974316" lon="12.734444693986717"><ele>142.16666666666669</ele><time>2026-03-30T10:16:40Z</time></trkpt><trkpt lat="46.05828256318259" lon="12.73438086083897"><ele>142.33333333333334</ele><time>2026-03-30T10:16:41Z</time></trkpt><trkpt lat="46.05820355619157" lon="12.734332938013996"><ele>142.5</ele><time>2026-03-30T10:16:42Z</time></trkpt><trkpt lat="46.05812266422886" lon="12.734309372036144"><ele>142.66666666666666</ele><time>2026-03-30T10:16:43Z</time></trkpt><trkpt lat="46.05805383884686" lon="12.734331672851676"><ele>142.83333333333331</ele><time>2026-03-30T10:16:44Z</time></trkpt><trkpt lat="46.05798139284349" lon="12.734376422558729"><ele>143.0</ele><time>2026-03-30T10:16:45.001Z</time></trkpt><trkpt lat="46.057906236974794" lon="12.734396846496516"><ele>143.0</ele><time>2026-03-30T10:16:46.001Z</time></trkpt><trkpt lat="46.05778661844698" lon="12.734361205452629"><ele>143.0</ele><time>2026-03-30T10:16:48.001Z</time></trkpt><trkpt lat="46.05772860029802" lon="12.734324501061845"><ele>143.0</ele><time>2026-03-30T10:16:49.001Z</time></trkpt><trkpt lat="46.05766512800451" lon="12.73427250854754"><ele>143.0</ele><time>2026-03-30T10:16:50.001Z</time></trkpt><trkpt lat="46.057616214704964" lon="12.734208937940254"><ele>143.0</ele><time>2026-03-30T10:16:51.001Z</time></trkpt><trkpt lat="46.057540525455124" lon="12.734088571052888"><ele>143.0</ele><time>2026-03-30T10:16:53.001Z</time></trkpt><trkpt lat="46.05749283936896" lon="12.733977807704138"><ele>143.0</ele><time>2026-03-30T10:16:55.001Z</time></trkpt><trkpt lat="46.057454289028435" lon="12.733881640529226"><ele>143.0</ele><time>2026-03-30T10:16:59.001Z</time></trkpt><trkpt lat="46.057373391421514" lon="12.733780170688055"><ele>143.0</ele><time>2026-03-30T10:17:01.001Z</time></trkpt><trkpt lat="46.05727053824513" lon="12.73381142098676"><ele>143.0</ele><time>2026-03-30T10:17:03.001Z</time></trkpt><trkpt lat="46.05721386512429" lon="12.733870191523911"><ele>143.0</ele><time>2026-03-30T10:17:04.001Z</time></trkpt><trkpt lat="46.057146000276184" lon="12.733977456945953"><ele>142.75</ele><time>2026-03-30T10:17:05.001Z</time></trkpt><trkpt lat="46.05705528147653" lon="12.734109568662191"><ele>142.5</ele><time>2026-03-30T10:17:06.001Z</time></trkpt><trkpt lat="46.05695518467549" lon="12.734234609931063"><ele>142.25</ele><time>2026-03-30T10:17:07.001Z</time></trkpt><trkpt lat="46.05685071009405" lon="12.734359270424287"><ele>142.0</ele><time>2026-03-30T10:17:08.001Z</time></trkpt><trkpt lat="46.05674147197425" lon="12.734499215470397"><ele>142.0</ele><time>2026-03-30T10:17:09.001Z</time></trkpt><trkpt lat="46.05662829781646" lon="12.73463262461043"><ele>142.0</ele><time>2026-03-30T10:17:10.001Z</time></trkpt><trkpt lat="46.056513887582135" lon="12.734754400867123"><ele>142.0</ele><time>2026-03-30T10:17:11.001Z</time></trkpt><trkpt lat="46.05640375259774" lon="12.734877224521"><ele>142.0</ele><time>2026-03-30T10:17:12.001Z</time></trkpt><trkpt lat="46.056276057364464" lon="12.735011773623334"><ele>141.75</ele><time>2026-03-30T10:17:13.001Z</time></trkpt><trkpt lat="46.05615601555499" lon="12.735146861459084"><ele>141.5</ele><time>2026-03-30T10:17:14.001Z</time></trkpt><trkpt lat="46.056041290836085" lon="12.735269181481787"><ele>141.25</ele><time>2026-03-30T10:17:15.001Z</time></trkpt><trkpt lat="46.0559270968137" lon="12.735400508884032"><ele>141.0</ele><time>2026-03-30T10:17:16.001Z</time></trkpt><trkpt lat="46.05581411303635" lon="12.735540727423508"><ele>140.66666666666666</ele><time>2026-03-30T10:17:17.001Z</time></trkpt><trkpt lat="46.055702662266405" lon="12.73568134541773"><ele>140.33333333333331</ele><time>2026-03-30T10:17:18.001Z</time></trkpt><trkpt lat="46.055588041203904" lon="12.735827929764898"><ele>140.0</ele><time>2026-03-30T10:17:19.001Z</time></trkpt><trkpt lat="46.05546659311211" lon="12.735970756741517"><ele>139.66666666666666</ele><time>2026-03-30T10:17:20.001Z</time></trkpt><trkpt lat="46.05533400630288" lon="12.736115843761906"><ele>139.33333333333334</ele><time>2026-03-30T10:17:21.001Z</time></trkpt><trkpt lat="46.055190769204955" lon="12.736259556757576"><ele>139.0</ele><time>2026-03-30T10:17:22.001Z</time></trkpt><trkpt lat="46.05504278454741" lon="12.736396962953155"><ele>138.66666666666669</ele><time>2026-03-30T10:17:23.001Z</time></trkpt><trkpt lat="46.054885770748584" lon="12.736555513983557"><ele>138.33333333333334</ele><time>2026-03-30T10:17:24.001Z</time></trkpt><trkpt lat="46.054738927286614" lon="12.736704585151193"><ele>138.0</ele><time>2026-03-30T10:17:25.001Z</time></trkpt><trkpt lat="46.054602737547484" lon="12.736853371937725"><ele>138.25</ele><time>2026-03-30T10:17:26.001Z</time></trkpt><trkpt lat="46.054483789873025" lon="12.736981977132544"><ele>138.5</ele><time>2026-03-30T10:17:27.001Z</time></trkpt><trkpt lat="46.05437224127661" lon="12.737100684168885"><ele>138.75</ele><time>2026-03-30T10:17:28.001Z</time></trkpt><trkpt lat="46.05426120243148" lon="12.737229625779266"><ele>139.0</ele><time>2026-03-30T10:17:29.001Z</time></trkpt><trkpt lat="46.05415987804823" lon="12.737358107145239"><ele>138.5</ele><time>2026-03-30T10:17:30.001Z</time></trkpt><trkpt lat="46.05405739221088" lon="12.737498739286593"><ele>138.0</ele><time>2026-03-30T10:17:31.001Z</time></trkpt><trkpt lat="46.05394885645454" lon="12.737649671270159"><ele>137.5</ele><time>2026-03-30T10:17:32.001Z</time></trkpt><trkpt lat="46.05383256552657" lon="12.737800114357542"><ele>137.0</ele><time>2026-03-30T10:17:33.001Z</time></trkpt><trkpt lat="46.05371110431819" lon="12.737964860270711"><ele>136.66666666666666</ele><time>2026-03-30T10:17:34.001Z</time></trkpt><trkpt lat="46.05358646689544" lon="12.73812655129066"><ele>136.33333333333334</ele><time>2026-03-30T10:17:35.001Z</time></trkpt><trkpt lat="46.05346314141673" lon="12.738282900197971"><ele>136.0</ele><time>2026-03-30T10:17:36.001Z</time></trkpt><trkpt lat="46.05333328741937" lon="12.738435676159286"><ele>135.75</ele><time>2026-03-30T10:17:37.001Z</time></trkpt><trkpt lat="46.05320271938928" lon="12.738569675813757"><ele>135.5</ele><time>2026-03-30T10:17:38.001Z</time></trkpt><trkpt lat="46.05308594798883" lon="12.738681301468974"><ele>135.25</ele><time>2026-03-30T10:17:39Z</time></trkpt><trkpt lat="46.052974648645225" lon="12.738775141076522"><ele>135.0</ele><time>2026-03-30T10:17:40Z</time></trkpt><trkpt lat="46.052877148761" lon="12.73887108647334"><ele>135.0</ele><time>2026-03-30T10:17:41Z</time></trkpt><trkpt lat="46.05277917242773" lon="12.738999123906737"><ele>135.0</ele><time>2026-03-30T10:17:42Z</time></trkpt><trkpt lat="46.05265548749693" lon="12.73915212674014"><ele>135.0</ele><time>2026-03-30T10:17:43Z</time></trkpt><trkpt lat="46.05252351778857" lon="12.739320057615311"><ele>134.66666666666666</ele><time>2026-03-30T10:17:44Z</time></trkpt><trkpt lat="46.05239399175705" lon="12.73948817908758"><ele>134.33333333333331</ele><time>2026-03-30T10:17:45Z</time></trkpt><trkpt lat="46.0522600978306" lon="12.739653767093758"><ele>134.0</ele><time>2026-03-30T10:17:46Z</time></trkpt><trkpt lat="46.05213247945516" lon="12.739795231862006"><ele>134.0</ele><time>2026-03-30T10:17:47Z</time></trkpt><trkpt lat="46.05201516048033" lon="12.739916754954999"><ele>134.0</ele><time>2026-03-30T10:17:48Z</time></trkpt><trkpt lat="46.05191231531339" lon="12.740026014837946"><ele>134.0</ele><time>2026-03-30T10:17:49Z</time></trkpt><trkpt lat="46.05183555566279" lon="12.74011797463585"><ele>134.0</ele><time>2026-03-30T10:17:50Z</time></trkpt><trkpt lat="46.051747601221415" lon="12.740210920921731"><ele>133.33333333333331</ele><time>2026-03-30T10:17:51Z</time></trkpt><trkpt lat="46.05162462893067" lon="12.740303229245523"><ele>132.66666666666666</ele><time>2026-03-30T10:17:52Z</time></trkpt><trkpt lat="46.05148965725194" lon="12.740432011943954"><ele>132.0</ele><time>2026-03-30T10:17:53Z</time></trkpt><trkpt lat="46.05135308609515" lon="12.740565269162891"><ele>131.66666666666666</ele><time>2026-03-30T10:17:54Z</time></trkpt><trkpt lat="46.05121880950318" lon="12.740701228522521"><ele>131.33333333333331</ele><time>2026-03-30T10:17:55Z</time></trkpt><trkpt lat="46.05107612567032" lon="12.740837085464968"><ele>131.0</ele><time>2026-03-30T10:17:56Z</time></trkpt><trkpt lat="46.05092315143326" lon="12.740947641260696"><ele>131.0</ele><time>2026-03-30T10:17:57Z</time></trkpt><trkpt lat="46.05077103019976" lon="12.741056423506889"><ele>131.0</ele><time>2026-03-30T10:17:58Z</time></trkpt><trkpt lat="46.050643766256236" lon="12.74115650562983"><ele>131.0</ele><time>2026-03-30T10:17:59Z</time></trkpt><trkpt lat="46.05053413188834" lon="12.741250171718526"><ele>131.0</ele><time>2026-03-30T10:18:00Z</time></trkpt><trkpt lat="46.050419294955084" lon="12.741349820652989"><ele>131.0</ele><time>2026-03-30T10:18:01Z</time></trkpt><trkpt lat="46.05031529983747" lon="12.741411737021142"><ele>131.0</ele><time>2026-03-30T10:18:02Z</time></trkpt><trkpt lat="46.05019696836138" lon="12.741453314725671"><ele>131.0</ele><time>2026-03-30T10:18:03Z</time></trkpt><trkpt lat="46.050056535316656" lon="12.741477711013845"><ele>131.0</ele><time>2026-03-30T10:18:04Z</time></trkpt><trkpt lat="46.04990105373864" lon="12.741473784822087"><ele>130.75</ele><time>2026-03-30T10:18:05Z</time></trkpt><trkpt lat="46.049744208557215" lon="12.741448177120844"><ele>130.5</ele><time>2026-03-30T10:18:06Z</time></trkpt><trkpt lat="46.049611982507564" lon="12.74143129423939"><ele>130.25</ele><time>2026-03-30T10:18:07Z</time></trkpt><trkpt lat="46.04948947510534" lon="12.74140697578774"><ele>130.0</ele><time>2026-03-30T10:18:08Z</time></trkpt><trkpt lat="46.04936839884697" lon="12.741399615517047"><ele>130.0</ele><time>2026-03-30T10:18:09Z</time></trkpt><trkpt lat="46.049254294548106" lon="12.741437286071198"><ele>130.0</ele><time>2026-03-30T10:18:10Z</time></trkpt><trkpt lat="46.049162762328365" lon="12.74149162816553"><ele>130.0</ele><time>2026-03-30T10:18:11Z</time></trkpt><trkpt lat="46.04907255688441" lon="12.741583609263648"><ele>130.0</ele><time>2026-03-30T10:18:12Z</time></trkpt><trkpt lat="46.048974964230666" lon="12.741728336358054"><ele>129.33333333333334</ele><time>2026-03-30T10:18:13Z</time></trkpt><trkpt lat="46.04886989139966" lon="12.741899457048541"><ele>128.66666666666666</ele><time>2026-03-30T10:18:14Z</time></trkpt><trkpt lat="46.04874639115594" lon="12.742066752676795"><ele>128.0</ele><time>2026-03-30T10:18:15Z</time></trkpt><trkpt lat="46.04861584659981" lon="12.742233101770953"><ele>128.0</ele><time>2026-03-30T10:18:16Z</time></trkpt><trkpt lat="46.04848083169094" lon="12.742402864374872"><ele>128.0</ele><time>2026-03-30T10:18:17Z</time></trkpt><trkpt lat="46.048358386993094" lon="12.742549955252866"><ele>128.0</ele><time>2026-03-30T10:18:18Z</time></trkpt><trkpt lat="46.04825067765006" lon="12.742675777641647"><ele>127.5</ele><time>2026-03-30T10:18:19Z</time></trkpt><trkpt lat="46.048130618995366" lon="12.742774604993441"><ele>127.0</ele><time>2026-03-30T10:18:20Z</time></trkpt><trkpt lat="46.04799935788326" lon="12.742858779422939"><ele>126.5</ele><time>2026-03-30T10:18:21Z</time></trkpt><trkpt lat="46.04785356981278" lon="12.74293160385331"><ele>126.0</ele><time>2026-03-30T10:18:22Z</time></trkpt><trkpt lat="46.04770305239028" lon="12.743015148582248"><ele>126.0</ele><time>2026-03-30T10:18:23Z</time></trkpt><trkpt lat="46.04755976165677" lon="12.743106053173435"><ele>126.0</ele><time>2026-03-30T10:18:24Z</time></trkpt><trkpt lat="46.04741264977898" lon="12.743198827473103"><ele>126.0</ele><time>2026-03-30T10:18:25Z</time></trkpt><trkpt lat="46.04725298259716" lon="12.743295132321022"><ele>125.75</ele><time>2026-03-30T10:18:26Z</time></trkpt><trkpt lat="46.047098421217356" lon="12.743398869230363"><ele>125.5</ele><time>2026-03-30T10:18:27Z</time></trkpt><trkpt lat="46.04697642438026" lon="12.74347802557321"><ele>125.25</ele><time>2026-03-30T10:18:28Z</time></trkpt><trkpt lat="46.04686683376406" lon="12.743547061514757"><ele>125.0</ele><time>2026-03-30T10:18:29Z</time></trkpt><trkpt lat="46.04676007533085" lon="12.743606650122043"><ele>124.75</ele><time>2026-03-30T10:18:30Z</time></trkpt><trkpt lat="46.0466468654915" lon="12.743648644004105"><ele>124.5</ele><time>2026-03-30T10:18:31Z</time></trkpt><trkpt lat="46.046519541430044" lon="12.743662760210514"><ele>124.25</ele><time>2026-03-30T10:18:32Z</time></trkpt><trkpt lat="46.04637487471834" lon="12.743666416471129"><ele>124.0</ele><time>2026-03-30T10:18:33Z</time></trkpt><trkpt lat="46.04621135381856" lon="12.743674503400406"><ele>124.0</ele><time>2026-03-30T10:18:34Z</time></trkpt><trkpt lat="46.04606848803351" lon="12.743687932823558"><ele>124.0</ele><time>2026-03-30T10:18:35Z</time></trkpt><trkpt lat="46.04592674853434" lon="12.743717007946788"><ele>124.0</ele><time>2026-03-30T10:18:36Z</time></trkpt><trkpt lat="46.04577076568188" lon="12.743781314044897"><ele>124.0</ele><time>2026-03-30T10:18:37Z</time></trkpt><trkpt lat="46.045595681334824" lon="12.743873574323292"><ele>123.66666666666667</ele><time>2026-03-30T10:18:38Z</time></trkpt><trkpt lat="46.04543151595489" lon="12.74396208830407"><ele>123.33333333333334</ele><time>2026-03-30T10:18:39Z</time></trkpt><trkpt lat="46.045284086109554" lon="12.744052428988455"><ele>123.0</ele><time>2026-03-30T10:18:40Z</time></trkpt><trkpt lat="46.04511492960053" lon="12.744158021012653"><ele>122.0</ele><time>2026-03-30T10:18:41Z</time></trkpt><trkpt lat="46.044944113664414" lon="12.744264797270166"><ele>121.0</ele><time>2026-03-30T10:18:42Z</time></trkpt><trkpt lat="46.04479701082413" lon="12.744351243262097"><ele>120.0</ele><time>2026-03-30T10:18:43Z</time></trkpt><trkpt lat="46.04466666763595" lon="12.744424672877292"><ele>120.0</ele><time>2026-03-30T10:18:44Z</time></trkpt><trkpt lat="46.04454298258577" lon="12.744498175469568"><ele>120.0</ele><time>2026-03-30T10:18:45Z</time></trkpt><trkpt lat="46.04443402520787" lon="12.744586353444936"><ele>120.0</ele><time>2026-03-30T10:18:46Z</time></trkpt><trkpt lat="46.04432836816729" lon="12.74470297938482"><ele>120.0</ele><time>2026-03-30T10:18:47Z</time></trkpt><trkpt lat="46.04422395844473" lon="12.744838151666652"><ele>120.0</ele><time>2026-03-30T10:18:48Z</time></trkpt><trkpt lat="46.04413436875989" lon="12.744960304438498"><ele>120.0</ele><time>2026-03-30T10:18:49Z</time></trkpt><trkpt lat="46.04403328988526" lon="12.745082336156187"><ele>120.0</ele><time>2026-03-30T10:18:50Z</time></trkpt><trkpt lat="46.04393021517755" lon="12.745206312091103"><ele>120.0</ele><time>2026-03-30T10:18:51Z</time></trkpt><trkpt lat="46.043830843725665" lon="12.74529711622939"><ele>119.75</ele><time>2026-03-30T10:18:52Z</time></trkpt><trkpt lat="46.043725973593695" lon="12.7453586370921"><ele>119.5</ele><time>2026-03-30T10:18:53Z</time></trkpt><trkpt lat="46.04359303772815" lon="12.74539898608515"><ele>119.25</ele><time>2026-03-30T10:18:54Z</time></trkpt><trkpt lat="46.043443475063164" lon="12.745434078843912"><ele>119.0</ele><time>2026-03-30T10:18:55Z</time></trkpt><trkpt lat="46.04330481779737" lon="12.745443966433323"><ele>118.75</ele><time>2026-03-30T10:18:56.001Z</time></trkpt><trkpt lat="46.043175024455266" lon="12.745462524138777"><ele>118.5</ele><time>2026-03-30T10:18:57.001Z</time></trkpt><trkpt lat="46.04306260445176" lon="12.745519672213405"><ele>118.25</ele><time>2026-03-30T10:18:58.001Z</time></trkpt><trkpt lat="46.042967083879226" lon="12.745609310069517"><ele>118.0</ele><time>2026-03-30T10:18:59.001Z</time></trkpt><trkpt lat="46.04287127833539" lon="12.745719529481637"><ele>118.0</ele><time>2026-03-30T10:19:00.001Z</time></trkpt><trkpt lat="46.04278029303997" lon="12.745852908057298"><ele>118.00000000000001</ele><time>2026-03-30T10:19:01.001Z</time></trkpt><trkpt lat="46.042709651348844" lon="12.745975745859779"><ele>118.00000000000001</ele><time>2026-03-30T10:19:02.001Z</time></trkpt><trkpt lat="46.04263728510114" lon="12.746075688959989"><ele>118.0</ele><time>2026-03-30T10:19:03.001Z</time></trkpt><trkpt lat="46.04256421777202" lon="12.746159816966697"><ele>118.0</ele><time>2026-03-30T10:19:04.001Z</time></trkpt><trkpt lat="46.04246833221334" lon="12.746246231524244"><ele>117.75</ele><time>2026-03-30T10:19:05.001Z</time></trkpt><trkpt lat="46.04234287084365" lon="12.746332536844694"><ele>117.5</ele><time>2026-03-30T10:19:06.001Z</time></trkpt><trkpt lat="46.04220975258012" lon="12.746420814734963"><ele>117.25</ele><time>2026-03-30T10:19:07.001Z</time></trkpt><trkpt lat="46.042067647290466" lon="12.74650125253984"><ele>117.0</ele><time>2026-03-30T10:19:08.001Z</time></trkpt><trkpt lat="46.04190977773488" lon="12.746585615527335"><ele>117.0</ele><time>2026-03-30T10:19:09.001Z</time></trkpt><trkpt lat="46.04174245309804" lon="12.746683209545397"><ele>117.0</ele><time>2026-03-30T10:19:10.001Z</time></trkpt><trkpt lat="46.041568900199884" lon="12.746780843894342"><ele>117.0</ele><time>2026-03-30T10:19:11.001Z</time></trkpt><trkpt lat="46.04139134707118" lon="12.746888975324213"><ele>115.66666666666666</ele><time>2026-03-30T10:19:12.001Z</time></trkpt><trkpt lat="46.04120355389331" lon="12.746997123229816"><ele>114.33333333333333</ele><time>2026-03-30T10:19:13.001Z</time></trkpt><trkpt lat="46.04103553734768" lon="12.74709917364135"><ele>113.0</ele><time>2026-03-30T10:19:14.001Z</time></trkpt><trkpt lat="46.04087583352862" lon="12.74718739720294"><ele>113.0</ele><time>2026-03-30T10:19:15.001Z</time></trkpt><trkpt lat="46.040722862486334" lon="12.747268942615236"><ele>113.0</ele><time>2026-03-30T10:19:16.001Z</time></trkpt><trkpt lat="46.0405821149151" lon="12.747345277385781"><ele>113.0</ele><time>2026-03-30T10:19:17.001Z</time></trkpt><trkpt lat="46.04045079975649" lon="12.747428448768964"><ele>113.0</ele><time>2026-03-30T10:19:18.001Z</time></trkpt><trkpt lat="46.04031955499514" lon="12.74752224358208"><ele>113.0</ele><time>2026-03-30T10:19:19.001Z</time></trkpt><trkpt lat="46.04018334520723" lon="12.7476321412901"><ele>113.0</ele><time>2026-03-30T10:19:20.001Z</time></trkpt><trkpt lat="46.040037541103715" lon="12.747722085258491"><ele>112.66666666666666</ele><time>2026-03-30T10:19:21.001Z</time></trkpt><trkpt lat="46.0398841817278" lon="12.747800680047083"><ele>112.33333333333334</ele><time>2026-03-30T10:19:22.001Z</time></trkpt><trkpt lat="46.0397150722334" lon="12.747885472037135"><ele>112.0</ele><time>2026-03-30T10:19:23.001Z</time></trkpt><trkpt lat="46.03954702576489" lon="12.747980266479242"><ele>112.0</ele><time>2026-03-30T10:19:24.001Z</time></trkpt><trkpt lat="46.03939546231315" lon="12.748073754140764"><ele>112.0</ele><time>2026-03-30T10:19:25.001Z</time></trkpt><trkpt lat="46.03925980818943" lon="12.748158138685483"><ele>112.0</ele><time>2026-03-30T10:19:26.001Z</time></trkpt><trkpt lat="46.03913770274536" lon="12.748233198723584"><ele>112.0</ele><time>2026-03-30T10:19:27.001Z</time></trkpt><trkpt lat="46.03901689022996" lon="12.748312073991771"><ele>111.75</ele><time>2026-03-30T10:19:28.001Z</time></trkpt><trkpt lat="46.03890315431038" lon="12.748406894276247"><ele>111.5</ele><time>2026-03-30T10:19:29.001Z</time></trkpt><trkpt lat="46.038785786126276" lon="12.748517232640665"><ele>111.25</ele><time>2026-03-30T10:19:30.001Z</time></trkpt><trkpt lat="46.03866527658845" lon="12.748645482506786"><ele>111.0</ele><time>2026-03-30T10:19:31.001Z</time></trkpt><trkpt lat="46.03853749444986" lon="12.748787115294364"><ele>110.75</ele><time>2026-03-30T10:19:32.001Z</time></trkpt><trkpt lat="46.03841771346103" lon="12.74891059263532"><ele>110.5</ele><time>2026-03-30T10:19:33.001Z</time></trkpt><trkpt lat="46.03830559889788" lon="12.749009009958955"><ele>110.25</ele><time>2026-03-30T10:19:34.001Z</time></trkpt><trkpt lat="46.03819368550302" lon="12.749094847695432"><ele>110.0</ele><time>2026-03-30T10:19:35.001Z</time></trkpt><trkpt lat="46.038085543405955" lon="12.749164321021116"><ele>110.0</ele><time>2026-03-30T10:19:36.001Z</time></trkpt><trkpt lat="46.03797705976402" lon="12.74922612676465"><ele>110.0</ele><time>2026-03-30T10:19:37.001Z</time></trkpt><trkpt lat="46.03785325578482" lon="12.749275128698132"><ele>110.0</ele><time>2026-03-30T10:19:38.001Z</time></trkpt><trkpt lat="46.03773103320518" lon="12.749326244098595"><ele>110.0</ele><time>2026-03-30T10:19:39.001Z</time></trkpt><trkpt lat="46.03761235864481" lon="12.749394359736778"><ele>110.0</ele><time>2026-03-30T10:19:40.001Z</time></trkpt><trkpt lat="46.0374928223123" lon="12.749460597825099"><ele>110.0</ele><time>2026-03-30T10:19:41.001Z</time></trkpt><trkpt lat="46.03736272864529" lon="12.749537208233928"><ele>110.0</ele><time>2026-03-30T10:19:42.001Z</time></trkpt><trkpt lat="46.03723482388263" lon="12.749614109966004"><ele>110.0</ele><time>2026-03-30T10:19:43.001Z</time></trkpt><trkpt lat="46.03710067327936" lon="12.74969346485873"><ele>109.75</ele><time>2026-03-30T10:19:44.001Z</time></trkpt><trkpt lat="46.03697045571823" lon="12.749776625002236"><ele>109.5</ele><time>2026-03-30T10:19:45Z</time></trkpt><trkpt lat="46.036847884357876" lon="12.749856312324741"><ele>109.25</ele><time>2026-03-30T10:19:46Z</time></trkpt><trkpt lat="46.0367352797302" lon="12.749925566908507"><ele>109.0</ele><time>2026-03-30T10:19:47Z</time></trkpt><trkpt lat="46.03662244592666" lon="12.749987833757919"><ele>108.5</ele><time>2026-03-30T10:19:48Z</time></trkpt><trkpt lat="46.03649190285766" lon="12.750059603969401"><ele>108.0</ele><time>2026-03-30T10:19:49Z</time></trkpt><trkpt lat="46.036365098220934" lon="12.750136329453625"><ele>107.5</ele><time>2026-03-30T10:19:50Z</time></trkpt><trkpt lat="46.036247772555136" lon="12.750222859572233"><ele>107.0</ele><time>2026-03-30T10:19:51Z</time></trkpt><trkpt lat="46.03613042880629" lon="12.750294859348953"><ele>107.0</ele><time>2026-03-30T10:19:52Z</time></trkpt><trkpt lat="46.03601891597101" lon="12.750374181703828"><ele>107.0</ele><time>2026-03-30T10:19:53Z</time></trkpt><trkpt lat="46.03591448891834" lon="12.750450300614032"><ele>107.0</ele><time>2026-03-30T10:19:54Z</time></trkpt><trkpt lat="46.03579942412493" lon="12.750536259898452"><ele>107.0</ele><time>2026-03-30T10:19:55Z</time></trkpt><trkpt lat="46.03567799834029" lon="12.750626503000387"><ele>106.66666666666666</ele><time>2026-03-30T10:19:56Z</time></trkpt><trkpt lat="46.03554914142303" lon="12.75071636819267"><ele>106.33333333333334</ele><time>2026-03-30T10:19:57Z</time></trkpt><trkpt lat="46.03540792064775" lon="12.750801275280892"><ele>106.0</ele><time>2026-03-30T10:19:58Z</time></trkpt><trkpt lat="46.03525391061745" lon="12.750889773529837"><ele>106.0</ele><time>2026-03-30T10:19:59Z</time></trkpt><trkpt lat="46.03509853031564" lon="12.750981895828307"><ele>106.0</ele><time>2026-03-30T10:20:00Z</time></trkpt><trkpt lat="46.034923920530154" lon="12.751090232121602"><ele>106.0</ele><time>2026-03-30T10:20:01Z</time></trkpt><trkpt lat="46.03476786010113" lon="12.751191878130053"><ele>105.33333333333334</ele><time>2026-03-30T10:20:02Z</time></trkpt><trkpt lat="46.03461902569802" lon="12.751276638258316"><ele>104.66666666666666</ele><time>2026-03-30T10:20:03Z</time></trkpt><trkpt lat="46.034481706530016" lon="12.751361351119446"><ele>104.0</ele><time>2026-03-30T10:20:04Z</time></trkpt><trkpt lat="46.03433445655747" lon="12.751445508399115"><ele>104.0</ele><time>2026-03-30T10:20:05Z</time></trkpt><trkpt lat="46.03418916499612" lon="12.751535384526829"><ele>104.0</ele><time>2026-03-30T10:20:06Z</time></trkpt><trkpt lat="46.03404956756855" lon="12.7516224602375"><ele>104.0</ele><time>2026-03-30T10:20:07Z</time></trkpt><trkpt lat="46.033916305104505" lon="12.751701547363968"><ele>104.0</ele><time>2026-03-30T10:20:08Z</time></trkpt><trkpt lat="46.033798709847815" lon="12.751771017017989"><ele>104.0</ele><time>2026-03-30T10:20:09Z</time></trkpt><trkpt lat="46.03366434647051" lon="12.751858176072894"><ele>104.0</ele><time>2026-03-30T10:20:10Z</time></trkpt><trkpt lat="46.033528634819525" lon="12.751926713574406"><ele>104.0</ele><time>2026-03-30T10:20:11Z</time></trkpt><trkpt lat="46.033395947393814" lon="12.752001920429962"><ele>103.25</ele><time>2026-03-30T10:20:12Z</time></trkpt><trkpt lat="46.03326514514995" lon="12.752084908326058"><ele>102.5</ele><time>2026-03-30T10:20:13Z</time></trkpt><trkpt lat="46.03313591900052" lon="12.75217675348618"><ele>101.75</ele><time>2026-03-30T10:20:14Z</time></trkpt><trkpt lat="46.03302629610384" lon="12.752266392939969"><ele>101.0</ele><time>2026-03-30T10:20:15Z</time></trkpt><trkpt lat="46.0329323448482" lon="12.752348166954198"><ele>101.0</ele><time>2026-03-30T10:20:16Z</time></trkpt><trkpt lat="46.03283562719982" lon="12.752430421836765"><ele>101.0</ele><time>2026-03-30T10:20:17Z</time></trkpt><trkpt lat="46.03273557724596" lon="12.75250325181181"><ele>101.0</ele><time>2026-03-30T10:20:18Z</time></trkpt><trkpt lat="46.03261157493828" lon="12.752565324846204"><ele>101.0</ele><time>2026-03-30T10:20:19Z</time></trkpt><trkpt lat="46.03247822107503" lon="12.752641295825628"><ele>100.66666666666666</ele><time>2026-03-30T10:20:20Z</time></trkpt><trkpt lat="46.03234529892077" lon="12.75272682279738"><ele>100.33333333333334</ele><time>2026-03-30T10:20:21Z</time></trkpt><trkpt lat="46.03220203316863" lon="12.75282337462932"><ele>100.0</ele><time>2026-03-30T10:20:22Z</time></trkpt><trkpt lat="46.03206543825623" lon="12.75290803858774"><ele>100.0</ele><time>2026-03-30T10:20:23Z</time></trkpt><trkpt lat="46.03191583574541" lon="12.752996563293493"><ele>100.0</ele><time>2026-03-30T10:20:24Z</time></trkpt><trkpt lat="46.031775945292324" lon="12.753082229216323"><ele>100.0</ele><time>2026-03-30T10:20:25Z</time></trkpt><trkpt lat="46.03163315388087" lon="12.753163625133991"><ele>99.33333333333334</ele><time>2026-03-30T10:20:26Z</time></trkpt><trkpt lat="46.031481044901625" lon="12.753240015194754"><ele>98.66666666666666</ele><time>2026-03-30T10:20:27Z</time></trkpt><trkpt lat="46.03133393359568" lon="12.753321494081055"><ele>98.0</ele><time>2026-03-30T10:20:28Z</time></trkpt><trkpt lat="46.031200977801475" lon="12.75339248541551"><ele>98.0</ele><time>2026-03-30T10:20:29Z</time></trkpt><trkpt lat="46.03107791917384" lon="12.753454248798771"><ele>98.0</ele><time>2026-03-30T10:20:30Z</time></trkpt><trkpt lat="46.0309467261416" lon="12.753534400650747"><ele>98.0</ele><time>2026-03-30T10:20:31Z</time></trkpt><trkpt lat="46.030810372749016" lon="12.753663361971856"><ele>98.0</ele><time>2026-03-30T10:20:32Z</time></trkpt><trkpt lat="46.030674977625345" lon="12.753795108333273"><ele>97.25</ele><time>2026-03-30T10:20:33Z</time></trkpt><trkpt lat="46.030545492268864" lon="12.753906914139256"><ele>96.5</ele><time>2026-03-30T10:20:34Z</time></trkpt><trkpt lat="46.03042621412839" lon="12.753994546716827"><ele>95.75</ele><time>2026-03-30T10:20:35Z</time></trkpt><trkpt lat="46.030285251522635" lon="12.754088604197513"><ele>95.0</ele><time>2026-03-30T10:20:36Z</time></trkpt><trkpt lat="46.030141203365005" lon="12.754191483895701"><ele>95.0</ele><time>2026-03-30T10:20:37Z</time></trkpt><trkpt lat="46.029986090981936" lon="12.754301288961647"><ele>95.0</ele><time>2026-03-30T10:20:38Z</time></trkpt><trkpt lat="46.02984544810513" lon="12.754396819685711"><ele>95.0</ele><time>2026-03-30T10:20:39Z</time></trkpt><trkpt lat="46.02969783753589" lon="12.754486855957097"><ele>94.33333333333334</ele><time>2026-03-30T10:20:40Z</time></trkpt><trkpt lat="46.029542174831896" lon="12.754577894508557"><ele>93.66666666666667</ele><time>2026-03-30T10:20:41Z</time></trkpt><trkpt lat="46.029384349031574" lon="12.754672568135982"><ele>93.0</ele><time>2026-03-30T10:20:42Z</time></trkpt><trkpt lat="46.02923822914092" lon="12.7547649541524"><ele>92.66666666666667</ele><time>2026-03-30T10:20:43Z</time></trkpt><trkpt lat="46.02910254380409" lon="12.754855310505244"><ele>92.33333333333334</ele><time>2026-03-30T10:20:44Z</time></trkpt><trkpt lat="46.028958246627624" lon="12.754962805234559"><ele>92.0</ele><time>2026-03-30T10:20:45Z</time></trkpt><trkpt lat="46.02881567284767" lon="12.755072439226055"><ele>92.0</ele><time>2026-03-30T10:20:46Z</time></trkpt><trkpt lat="46.02866827315709" lon="12.75519277053703"><ele>92.0</ele><time>2026-03-30T10:20:47Z</time></trkpt><trkpt lat="46.02851577048946" lon="12.75530220457558"><ele>92.0</ele><time>2026-03-30T10:20:48Z</time></trkpt><trkpt lat="46.02837024990637" lon="12.755404054237378"><ele>91.5</ele><time>2026-03-30T10:20:49Z</time></trkpt><trkpt lat="46.02823110668026" lon="12.755502105764213"><ele>91.0</ele><time>2026-03-30T10:20:50Z</time></trkpt><trkpt lat="46.0280997046584" lon="12.755592160239523"><ele>90.5</ele><time>2026-03-30T10:20:51Z</time></trkpt><trkpt lat="46.027980763559995" lon="12.75567503639286"><ele>90.0</ele><time>2026-03-30T10:20:52Z</time></trkpt><trkpt lat="46.02788071469547" lon="12.755742405604265"><ele>90.0</ele><time>2026-03-30T10:20:53.001Z</time></trkpt><trkpt lat="46.02780427375029" lon="12.755791112339821"><ele>90.0</ele><time>2026-03-30T10:20:54.001Z</time></trkpt><trkpt lat="46.02772130363142" lon="12.75584823389347"><ele>90.0</ele><time>2026-03-30T10:20:55.001Z</time></trkpt><trkpt lat="46.02761864233254" lon="12.755915194499648"><ele>90.0</ele><time>2026-03-30T10:20:56.001Z</time></trkpt><trkpt lat="46.02751289072124" lon="12.75597938984135"><ele>90.0</ele><time>2026-03-30T10:20:57.001Z</time></trkpt><trkpt lat="46.02740272991098" lon="12.756050513092923"><ele>90.0</ele><time>2026-03-30T10:20:58.001Z</time></trkpt><trkpt lat="46.027294515745254" lon="12.756123541991402"><ele>90.0</ele><time>2026-03-30T10:20:59.001Z</time></trkpt><trkpt lat="46.027177640447974" lon="12.75620103829969"><ele>90.0</ele><time>2026-03-30T10:21:00.001Z</time></trkpt><trkpt lat="46.02705804458971" lon="12.7562713589583"><ele>90.0</ele><time>2026-03-30T10:21:01.001Z</time></trkpt><trkpt lat="46.02693177785276" lon="12.756338412462851"><ele>90.0</ele><time>2026-03-30T10:21:02.001Z</time></trkpt><trkpt lat="46.02680244623861" lon="12.756401721648778"><ele>90.0</ele><time>2026-03-30T10:21:03.001Z</time></trkpt><trkpt lat="46.026678487842" lon="12.756451411943095"><ele>90.0</ele><time>2026-03-30T10:21:04.001Z</time></trkpt><trkpt lat="46.0265479424255" lon="12.756488356015009"><ele>90.0</ele><time>2026-03-30T10:21:05.001Z</time></trkpt><trkpt lat="46.026423187033224" lon="12.756523469454496"><ele>89.5</ele><time>2026-03-30T10:21:06.001Z</time></trkpt><trkpt lat="46.026286204102064" lon="12.756577824164122"><ele>89.0</ele><time>2026-03-30T10:21:07.001Z</time></trkpt><trkpt lat="46.02616406537689" lon="12.756640101816245"><ele>88.5</ele><time>2026-03-30T10:21:08.001Z</time></trkpt><trkpt lat="46.02604770333752" lon="12.756730488173362"><ele>88.0</ele><time>2026-03-30T10:21:09.001Z</time></trkpt><trkpt lat="46.025932374470024" lon="12.756837626892237"><ele>87.75</ele><time>2026-03-30T10:21:10.001Z</time></trkpt><trkpt lat="46.02581834919118" lon="12.756950020015795"><ele>87.5</ele><time>2026-03-30T10:21:11.001Z</time></trkpt><trkpt lat="46.02571125544101" lon="12.757049500794887"><ele>87.25</ele><time>2026-03-30T10:21:12.001Z</time></trkpt><trkpt lat="46.025579540871796" lon="12.75712809551335"><ele>87.0</ele><time>2026-03-30T10:21:13.001Z</time></trkpt><trkpt lat="46.02541850388441" lon="12.757213676439083"><ele>86.75</ele><time>2026-03-30T10:21:14.001Z</time></trkpt><trkpt lat="46.025272662315025" lon="12.757298222458532"><ele>86.5</ele><time>2026-03-30T10:21:15.001Z</time></trkpt><trkpt lat="46.025143636329844" lon="12.757363551953247"><ele>86.25</ele><time>2026-03-30T10:21:16.001Z</time></trkpt><trkpt lat="46.02501960000871" lon="12.757435344546163"><ele>86.0</ele><time>2026-03-30T10:21:17.001Z</time></trkpt><trkpt lat="46.024892266933485" lon="12.757517620788002"><ele>85.75</ele><time>2026-03-30T10:21:18.001Z</time></trkpt><trkpt lat="46.02476844195858" lon="12.757601755983357"><ele>85.5</ele><time>2026-03-30T10:21:19.001Z</time></trkpt><trkpt lat="46.024641547984785" lon="12.757666260718445"><ele>85.25</ele><time>2026-03-30T10:21:20.001Z</time></trkpt><trkpt lat="46.02452139418165" lon="12.757705848010433"><ele>85.0</ele><time>2026-03-30T10:21:21.001Z</time></trkpt><trkpt lat="46.024418650445206" lon="12.757739875297132"><ele>84.8</ele><time>2026-03-30T10:21:22.001Z</time></trkpt><trkpt lat="46.02433252842833" lon="12.757768229289606"><ele>84.6</ele><time>2026-03-30T10:21:23.001Z</time></trkpt><trkpt lat="46.02424629172563" lon="12.757787810205375"><ele>84.4</ele><time>2026-03-30T10:21:24.001Z</time></trkpt><trkpt lat="46.024137632946825" lon="12.75781861006734"><ele>84.2</ele><time>2026-03-30T10:21:25.001Z</time></trkpt><trkpt lat="46.024006525848414" lon="12.757860111113265"><ele>84.0</ele><time>2026-03-30T10:21:26.001Z</time></trkpt><trkpt lat="46.0238672467141" lon="12.75789570314577"><ele>83.33333333333333</ele><time>2026-03-30T10:21:27.001Z</time></trkpt><trkpt lat="46.02371991988176" lon="12.757953552388416"><ele>82.66666666666666</ele><time>2026-03-30T10:21:28.001Z</time></trkpt><trkpt lat="46.0235645029179" lon="12.758020173209442"><ele>82.0</ele><time>2026-03-30T10:21:29.001Z</time></trkpt><trkpt lat="46.02341284370969" lon="12.758092004350384"><ele>81.0</ele><time>2026-03-30T10:21:30.001Z</time></trkpt><trkpt lat="46.02326437381819" lon="12.758173407000253"><ele>80.0</ele><time>2026-03-30T10:21:31.001Z</time></trkpt><trkpt lat="46.02311958967049" lon="12.75825451079964"><ele>79.0</ele><time>2026-03-30T10:21:32.001Z</time></trkpt><trkpt lat="46.02298384896376" lon="12.758335280816103"><ele>79.0</ele><time>2026-03-30T10:21:33.001Z</time></trkpt><trkpt lat="46.02284665953816" lon="12.758412838116586"><ele>79.0</ele><time>2026-03-30T10:21:34.001Z</time></trkpt><trkpt lat="46.02271544733156" lon="12.758489851048761"><ele>79.0</ele><time>2026-03-30T10:21:35.001Z</time></trkpt><trkpt lat="46.02257846312378" lon="12.758581341918882"><ele>79.0</ele><time>2026-03-30T10:21:36.001Z</time></trkpt><trkpt lat="46.022444188046244" lon="12.758671898442602"><ele>79.25</ele><time>2026-03-30T10:21:37.001Z</time></trkpt><trkpt lat="46.02231966621" lon="12.75875416368623"><ele>79.5</ele><time>2026-03-30T10:21:38.001Z</time></trkpt><trkpt lat="46.02219567827519" lon="12.75883809035891"><ele>79.75</ele><time>2026-03-30T10:21:39.001Z</time></trkpt><trkpt lat="46.02207386552063" lon="12.758924313524965"><ele>80.0</ele><time>2026-03-30T10:21:40.001Z</time></trkpt><trkpt lat="46.021949961947335" lon="12.75900634116234"><ele>80.0</ele><time>2026-03-30T10:21:41.001Z</time></trkpt><trkpt lat="46.02183187855176" lon="12.75908438514778"><ele>80.0</ele><time>2026-03-30T10:21:42.001Z</time></trkpt><trkpt lat="46.021716138900246" lon="12.759164157050053"><ele>80.0</ele><time>2026-03-30T10:21:43.001Z</time></trkpt><trkpt lat="46.021594048833" lon="12.759250591430126"><ele>80.0</ele><time>2026-03-30T10:21:44.001Z</time></trkpt><trkpt lat="46.02147105911229" lon="12.759341507411355"><ele>79.25</ele><time>2026-03-30T10:21:45.001Z</time></trkpt><trkpt lat="46.021344099791946" lon="12.759434920956016"><ele>78.5</ele><time>2026-03-30T10:21:46.001Z</time></trkpt><trkpt lat="46.02121089091218" lon="12.759528565233737"><ele>77.75</ele><time>2026-03-30T10:21:47.001Z</time></trkpt><trkpt lat="46.02107902266663" lon="12.759621244874676"><ele>77.0</ele><time>2026-03-30T10:21:48.001Z</time></trkpt><trkpt lat="46.02095875337624" lon="12.759710080388878"><ele>77.0</ele><time>2026-03-30T10:21:49.001Z</time></trkpt><trkpt lat="46.020839215745625" lon="12.7598024046482"><ele>77.0</ele><time>2026-03-30T10:21:50.001Z</time></trkpt><trkpt lat="46.0207099875582" lon="12.759898626205958"><ele>77.0</ele><time>2026-03-30T10:21:51Z</time></trkpt><trkpt lat="46.02058233056331" lon="12.759996669764945"><ele>77.0</ele><time>2026-03-30T10:21:52Z</time></trkpt><trkpt lat="46.02045854942668" lon="12.760097639820247"><ele>76.5</ele><time>2026-03-30T10:21:53Z</time></trkpt><trkpt lat="46.0203346790273" lon="12.760198845389246"><ele>76.0</ele><time>2026-03-30T10:21:54Z</time></trkpt><trkpt lat="46.02020447409259" lon="12.760302132071427"><ele>75.5</ele><time>2026-03-30T10:21:55Z</time></trkpt><trkpt lat="46.02007806967647" lon="12.760406963244563"><ele>75.0</ele><time>2026-03-30T10:21:56Z</time></trkpt><trkpt lat="46.01995090503786" lon="12.760511013790358"><ele>75.0</ele><time>2026-03-30T10:21:57Z</time></trkpt><trkpt lat="46.019828958439646" lon="12.760614426839904"><ele>75.0</ele><time>2026-03-30T10:21:58Z</time></trkpt><trkpt lat="46.01970915787828" lon="12.760712723642806"><ele>75.0</ele><time>2026-03-30T10:21:59Z</time></trkpt><trkpt lat="46.01958921813507" lon="12.760813243901366"><ele>75.0</ele><time>2026-03-30T10:22:00Z</time></trkpt><trkpt lat="46.01948151219109" lon="12.760899542326507"><ele>75.0</ele><time>2026-03-30T10:22:01Z</time></trkpt><trkpt lat="46.01938512031922" lon="12.760974855998148"><ele>75.0</ele><time>2026-03-30T10:22:02Z</time></trkpt><trkpt lat="46.019295016642964" lon="12.761040655670023"><ele>75.0</ele><time>2026-03-30T10:22:03Z</time></trkpt><trkpt lat="46.01921644095036" lon="12.76109419924071"><ele>75.0</ele><time>2026-03-30T10:22:04Z</time></trkpt><trkpt lat="46.019144815661285" lon="12.76114739408372"><ele>75.0</ele><time>2026-03-30T10:22:05Z</time></trkpt><trkpt lat="46.01908358229653" lon="12.761193722407604"><ele>75.0</ele><time>2026-03-30T10:22:06Z</time></trkpt><trkpt lat="46.01903091081713" lon="12.761245556570865"><ele>74.83333333333333</ele><time>2026-03-30T10:22:07Z</time></trkpt><trkpt lat="46.0189790621156" lon="12.761310369088894"><ele>74.66666666666667</ele><time>2026-03-30T10:22:08Z</time></trkpt><trkpt lat="46.01892198900164" lon="12.761403164438198"><ele>74.5</ele><time>2026-03-30T10:22:09Z</time></trkpt><trkpt lat="46.0188795158319" lon="12.761491332074002"><ele>74.33333333333334</ele><time>2026-03-30T10:22:10Z</time></trkpt><trkpt lat="46.01884917222129" lon="12.761571557901682"><ele>74.16666666666667</ele><time>2026-03-30T10:22:11Z</time></trkpt><trkpt lat="46.018743056758524" lon="12.761679988449659"><ele>74.0</ele><time>2026-03-30T10:22:13Z</time></trkpt><trkpt lat="46.01864726187776" lon="12.761746317072369"><ele>74.0</ele><time>2026-03-30T10:22:14Z</time></trkpt><trkpt lat="46.01858160551062" lon="12.761813101998605"><ele>74.0</ele><time>2026-03-30T10:22:15Z</time></trkpt><trkpt lat="46.01852513925892" lon="12.761918791937907"><ele>74.0</ele><time>2026-03-30T10:22:17Z</time></trkpt><trkpt lat="46.01843477394916" lon="12.762007549616058"><ele>74.0</ele><time>2026-03-30T10:22:19Z</time></trkpt><trkpt lat="46.01836241150523" lon="12.762056250684665"><ele>74.0</ele><time>2026-03-30T10:22:20Z</time></trkpt><trkpt lat="46.018299801754495" lon="12.762092545799854"><ele>74.0</ele><time>2026-03-30T10:22:21Z</time></trkpt><trkpt lat="46.01820667540418" lon="12.762141282956815"><ele>73.5</ele><time>2026-03-30T10:22:23Z</time></trkpt><trkpt lat="46.01811674406534" lon="12.76217676022405"><ele>73.0</ele><time>2026-03-30T10:22:26Z</time></trkpt><trkpt lat="46.018057107907616" lon="12.76221037191022"><ele>72.5</ele><time>2026-03-30T10:22:29Z</time></trkpt><trkpt lat="46.0179647228169" lon="12.762279492714638"><ele>72.0</ele><time>2026-03-30T10:23:44.001Z</time></trkpt><trkpt lat="46.01788215603318" lon="12.762307639369157"><ele>71.5</ele><time>2026-03-30T10:23:46.001Z</time></trkpt><trkpt lat="46.01780484612934" lon="12.762236413729434"><ele>71.0</ele><time>2026-03-30T10:23:48.001Z</time></trkpt><trkpt lat="46.01774668742244" lon="12.762161717547315"><ele>71.0</ele><time>2026-03-30T10:23:50.001Z</time></trkpt><trkpt lat="46.017661596908326" lon="12.762168924684476"><ele>71.0</ele><time>2026-03-30T10:23:52.001Z</time></trkpt><trkpt lat="46.017574190155784" lon="12.76216034775341"><ele>71.0</ele><time>2026-03-30T10:23:54.001Z</time></trkpt><trkpt lat="46.01750926854093" lon="12.762125751636278"><ele>71.0</ele><time>2026-03-30T10:23:55.001Z</time></trkpt><trkpt lat="46.017433094462426" lon="12.762095409009705"><ele>71.0</ele><time>2026-03-30T10:23:56.001Z</time></trkpt><trkpt lat="46.01734788985631" lon="12.762078872315843"><ele>71.0</ele><time>2026-03-30T10:23:57Z</time></trkpt><trkpt lat="46.017250986671456" lon="12.762087920184246"><ele>70.8</ele><time>2026-03-30T10:23:58Z</time></trkpt><trkpt lat="46.01713428698472" lon="12.7621231624318"><ele>70.6</ele><time>2026-03-30T10:23:59Z</time></trkpt><trkpt lat="46.017030403895106" lon="12.762181164259305"><ele>70.4</ele><time>2026-03-30T10:24:00Z</time></trkpt><trkpt lat="46.016949610860195" lon="12.762243749172095"><ele>70.2</ele><time>2026-03-30T10:24:01Z</time></trkpt><trkpt lat="46.016873994802246" lon="12.762301599671558"><ele>70.0</ele><time>2026-03-30T10:24:02Z</time></trkpt><trkpt lat="46.01680269086163" lon="12.762348920361903"><ele>70.0</ele><time>2026-03-30T10:24:03Z</time></trkpt><trkpt lat="46.01673391835335" lon="12.762395831799394"><ele>70.0</ele><time>2026-03-30T10:24:04Z</time></trkpt><trkpt lat="46.016659878541745" lon="12.76246103085667"><ele>70.0</ele><time>2026-03-30T10:24:05Z</time></trkpt><trkpt lat="46.01657916819941" lon="12.762539559596627"><ele>70.0</ele><time>2026-03-30T10:24:06Z</time></trkpt><trkpt lat="46.01648158953844" lon="12.762620965559732"><ele>70.0</ele><time>2026-03-30T10:24:07Z</time></trkpt><trkpt lat="46.0163604797714" lon="12.762697901132636"><ele>69.66666666666666</ele><time>2026-03-30T10:24:08Z</time></trkpt><trkpt lat="46.01624364392529" lon="12.762753887232554"><ele>69.33333333333333</ele><time>2026-03-30T10:24:09Z</time></trkpt><trkpt lat="46.01614968106368" lon="12.762803731003919"><ele>69.0</ele><time>2026-03-30T10:24:10Z</time></trkpt><trkpt lat="46.01607486570519" lon="12.762848156365775"><ele>68.66666666666667</ele><time>2026-03-30T10:24:11Z</time></trkpt><trkpt lat="46.016013199505245" lon="12.762871313526718"><ele>68.33333333333334</ele><time>2026-03-30T10:24:12Z</time></trkpt><trkpt lat="46.015945355109324" lon="12.762901289469003"><ele>68.0</ele><time>2026-03-30T10:24:13Z</time></trkpt><trkpt lat="46.01584591273532" lon="12.762927597755114"><ele>67.8</ele><time>2026-03-30T10:24:14Z</time></trkpt><trkpt lat="46.015740873927115" lon="12.762940027263706"><ele>67.6</ele><time>2026-03-30T10:24:15Z</time></trkpt><trkpt lat="46.01563210543952" lon="12.762954161007315"><ele>67.4</ele><time>2026-03-30T10:24:16Z</time></trkpt><trkpt lat="46.01553842037395" lon="12.762971521397033"><ele>67.2</ele><time>2026-03-30T10:24:17Z</time></trkpt><trkpt lat="46.01543649468462" lon="12.763007147296541"><ele>67.0</ele><time>2026-03-30T10:24:18Z</time></trkpt><trkpt lat="46.015340395907636" lon="12.763066016620721"><ele>67.0</ele><time>2026-03-30T10:24:19Z</time></trkpt><trkpt lat="46.01524658918408" lon="12.763148550788497"><ele>67.0</ele><time>2026-03-30T10:24:20Z</time></trkpt><trkpt lat="46.01514488233977" lon="12.763243543944789"><ele>67.0</ele><time>2026-03-30T10:24:21Z</time></trkpt><trkpt lat="46.01502638365913" lon="12.763362163030164"><ele>67.0</ele><time>2026-03-30T10:24:22Z</time></trkpt><trkpt lat="46.014902879653" lon="12.76347354809349"><ele>66.75</ele><time>2026-03-30T10:24:23Z</time></trkpt><trkpt lat="46.014777822488476" lon="12.763575713437557"><ele>66.5</ele><time>2026-03-30T10:24:24Z</time></trkpt><trkpt lat="46.01464677259649" lon="12.763678668278933"><ele>66.25</ele><time>2026-03-30T10:24:25Z</time></trkpt><trkpt lat="46.014510131309855" lon="12.763785109229683"><ele>66.0</ele><time>2026-03-30T10:24:26Z</time></trkpt><trkpt lat="46.014376927697754" lon="12.763891981829419"><ele>66.0</ele><time>2026-03-30T10:24:27Z</time></trkpt><trkpt lat="46.014246988954284" lon="12.76399965250841"><ele>66.0</ele><time>2026-03-30T10:24:28Z</time></trkpt><trkpt lat="46.014116182538366" lon="12.764110051988046"><ele>66.0</ele><time>2026-03-30T10:24:29Z</time></trkpt><trkpt lat="46.013978651318915" lon="12.76421498127491"><ele>65.66666666666667</ele><time>2026-03-30T10:24:30Z</time></trkpt><trkpt lat="46.01382798990314" lon="12.76431823329807"><ele>65.33333333333334</ele><time>2026-03-30T10:24:31Z</time></trkpt><trkpt lat="46.01368418572719" lon="12.764400849645703"><ele>65.0</ele><time>2026-03-30T10:24:32Z</time></trkpt><trkpt lat="46.013545206124924" lon="12.764481256998733"><ele>65.0</ele><time>2026-03-30T10:24:33Z</time></trkpt><trkpt lat="46.01341103275003" lon="12.764560859840895"><ele>65.0</ele><time>2026-03-30T10:24:34Z</time></trkpt><trkpt lat="46.013291373402204" lon="12.764643004852225"><ele>65.0</ele><time>2026-03-30T10:24:35Z</time></trkpt><trkpt lat="46.0131805991647" lon="12.76471227748303"><ele>65.0</ele><time>2026-03-30T10:24:36Z</time></trkpt><trkpt lat="46.01307838395804" lon="12.764764333029307"><ele>64.6</ele><time>2026-03-30T10:24:37Z</time></trkpt><trkpt lat="46.01298450137113" lon="12.764811546598521"><ele>64.2</ele><time>2026-03-30T10:24:38Z</time></trkpt><trkpt lat="46.012896642709876" lon="12.764850375449841"><ele>63.8</ele><time>2026-03-30T10:24:39Z</time></trkpt><trkpt lat="46.01279767595059" lon="12.764905877549827"><ele>63.4</ele><time>2026-03-30T10:24:40Z</time></trkpt><trkpt lat="46.01268933557469" lon="12.765005851883084"><ele>63.0</ele><time>2026-03-30T10:24:41Z</time></trkpt><trkpt lat="46.0125894306778" lon="12.765151540219408"><ele>62.75</ele><time>2026-03-30T10:24:42Z</time></trkpt><trkpt lat="46.01248624054679" lon="12.765309550379175"><ele>62.5</ele><time>2026-03-30T10:24:43.001Z</time></trkpt><trkpt lat="46.01239796414277" lon="12.76543074864688"><ele>62.25</ele><time>2026-03-30T10:24:44.001Z</time></trkpt><trkpt lat="46.0123174903357" lon="12.76553557086359"><ele>62.0</ele><time>2026-03-30T10:24:45.001Z</time></trkpt><trkpt lat="46.012247667678714" lon="12.765638426564397"><ele>62.0</ele><time>2026-03-30T10:24:46.001Z</time></trkpt><trkpt lat="46.0121777484066" lon="12.765749416043736"><ele>62.0</ele><time>2026-03-30T10:24:47.001Z</time></trkpt><trkpt lat="46.01210158570447" lon="12.76584101233426"><ele>62.0</ele><time>2026-03-30T10:24:48.001Z</time></trkpt><trkpt lat="46.01200032393702" lon="12.765925981905037"><ele>62.0</ele><time>2026-03-30T10:24:49.001Z</time></trkpt><trkpt lat="46.01187526766394" lon="12.76600774678477"><ele>62.25</ele><time>2026-03-30T10:24:50.001Z</time></trkpt><trkpt lat="46.01173837607945" lon="12.766086136099482"><ele>62.5</ele><time>2026-03-30T10:24:51.001Z</time></trkpt><trkpt lat="46.01160667323647" lon="12.766168380318708"><ele>62.75</ele><time>2026-03-30T10:24:52.001Z</time></trkpt><trkpt lat="46.01147620541936" lon="12.766250436704789"><ele>63.0</ele><time>2026-03-30T10:24:53.001Z</time></trkpt><trkpt lat="46.01137648892128" lon="12.76632320034532"><ele>62.599999999999994</ele><time>2026-03-30T10:24:54.001Z</time></trkpt><trkpt lat="46.011304519898125" lon="12.766376528581903"><ele>62.199999999999996</ele><time>2026-03-30T10:24:55.001Z</time></trkpt><trkpt lat="46.01122553835454" lon="12.766438047404687"><ele>61.8</ele><time>2026-03-30T10:24:56.001Z</time></trkpt><trkpt lat="46.01112384325647" lon="12.766499295985497"><ele>61.4</ele><time>2026-03-30T10:24:57.001Z</time></trkpt><trkpt lat="46.01102782009892" lon="12.766559306090251"><ele>61.0</ele><time>2026-03-30T10:24:58.001Z</time></trkpt><trkpt lat="46.01092964034142" lon="12.766637859737767"><ele>61.0</ele><time>2026-03-30T10:24:59.001Z</time></trkpt><trkpt lat="46.010837653075576" lon="12.76670703923016"><ele>60.99999999999999</ele><time>2026-03-30T10:25:00.001Z</time></trkpt><trkpt lat="46.01074978172109" lon="12.766785073493963"><ele>60.99999999999999</ele><time>2026-03-30T10:25:01.001Z</time></trkpt><trkpt lat="46.01065118961243" lon="12.766851941806818"><ele>61.0</ele><time>2026-03-30T10:25:02.001Z</time></trkpt><trkpt lat="46.010534228776045" lon="12.766901736980174"><ele>61.0</ele><time>2026-03-30T10:25:03.001Z</time></trkpt><trkpt lat="46.01040687164359" lon="12.766936885953724"><ele>61.0</ele><time>2026-03-30T10:25:04.001Z</time></trkpt><trkpt lat="46.01028060068779" lon="12.767000975504024"><ele>61.0</ele><time>2026-03-30T10:25:05.001Z</time></trkpt><trkpt lat="46.010143709143264" lon="12.767084050135022"><ele>61.0</ele><time>2026-03-30T10:25:06.001Z</time></trkpt><trkpt lat="46.010000531102314" lon="12.76719182932064"><ele>61.0</ele><time>2026-03-30T10:25:07.001Z</time></trkpt><trkpt lat="46.0098571839339" lon="12.767275912071948"><ele>61.0</ele><time>2026-03-30T10:25:08.001Z</time></trkpt><trkpt lat="46.00973169195611" lon="12.767350473242766"><ele>61.0</ele><time>2026-03-30T10:25:09.001Z</time></trkpt><trkpt lat="46.0096230266228" lon="12.767417017544163"><ele>61.0</ele><time>2026-03-30T10:25:10.001Z</time></trkpt><trkpt lat="46.00952134448139" lon="12.767503596522687"><ele>61.0</ele><time>2026-03-30T10:25:11.001Z</time></trkpt><trkpt lat="46.009416126617595" lon="12.76758820813196"><ele>61.0</ele><time>2026-03-30T10:25:12.001Z</time></trkpt><trkpt lat="46.009294721792195" lon="12.767659497162299"><ele>60.99999999999999</ele><time>2026-03-30T10:25:13.001Z</time></trkpt><trkpt lat="46.00918687811137" lon="12.767708391544906"><ele>60.99999999999999</ele><time>2026-03-30T10:25:14.001Z</time></trkpt><trkpt lat="46.00910567823084" lon="12.767736861636822"><ele>61.0</ele><time>2026-03-30T10:25:15.001Z</time></trkpt><trkpt lat="46.009017991470074" lon="12.767742765123852"><ele>61.0</ele><time>2026-03-30T10:25:16.001Z</time></trkpt><trkpt lat="46.0089199110556" lon="12.767745039646657"><ele>60.83333333333333</ele><time>2026-03-30T10:25:17.001Z</time></trkpt><trkpt lat="46.008832886747236" lon="12.767759988093893"><ele>60.666666666666664</ele><time>2026-03-30T10:25:18.001Z</time></trkpt><trkpt lat="46.00876929070305" lon="12.76779241829218"><ele>60.5</ele><time>2026-03-30T10:25:19.001Z</time></trkpt><trkpt lat="46.00871669158996" lon="12.767843844493749"><ele>60.33333333333333</ele><time>2026-03-30T10:25:20.001Z</time></trkpt><trkpt lat="46.008691498917656" lon="12.76796731396052"><ele>60.166666666666664</ele><time>2026-03-30T10:25:23.001Z</time></trkpt><trkpt lat="46.00875694714735" lon="12.768104965711462"><ele>60.0</ele><time>2026-03-30T10:25:25.001Z</time></trkpt><trkpt lat="46.008774974165554" lon="12.768219310100815"><ele>60.0</ele><time>2026-03-30T10:25:27.001Z</time></trkpt><trkpt lat="46.00876018206113" lon="12.768320041307241"><ele>60.0</ele><time>2026-03-30T10:25:28.001Z</time></trkpt><trkpt lat="46.00873419399979" lon="12.768477909984659"><ele>60.0</ele><time>2026-03-30T10:25:29.001Z</time></trkpt><trkpt lat="46.00870572576267" lon="12.768663081335363"><ele>60.0</ele><time>2026-03-30T10:25:30.001Z</time></trkpt><trkpt lat="46.0086748948044" lon="12.768816228422407"><ele>60.0</ele><time>2026-03-30T10:25:31.001Z</time></trkpt><trkpt lat="46.00863592333616" lon="12.768955998501323"><ele>60.0</ele><time>2026-03-30T10:25:32.001Z</time></trkpt><trkpt lat="46.008594695278425" lon="12.769079785442335"><ele>60.0</ele><time>2026-03-30T10:25:33.001Z</time></trkpt><trkpt lat="46.008550193069226" lon="12.769195597320355"><ele>60.0</ele><time>2026-03-30T10:25:34.001Z</time></trkpt><trkpt lat="46.008491730778225" lon="12.769302598755793"><ele>60.0</ele><time>2026-03-30T10:25:35.001Z</time></trkpt><trkpt lat="46.008436511372715" lon="12.769409162098658"><ele>60.0</ele><time>2026-03-30T10:25:36.001Z</time></trkpt><trkpt lat="46.00838278719008" lon="12.76951535724864"><ele>60.166666666666664</ele><time>2026-03-30T10:25:37.001Z</time></trkpt><trkpt lat="46.008332379408955" lon="12.76962063940865"><ele>60.33333333333333</ele><time>2026-03-30T10:25:38.001Z</time></trkpt><trkpt lat="46.00829633363433" lon="12.769721638721427"><ele>60.5</ele><time>2026-03-30T10:25:39.001Z</time></trkpt><trkpt lat="46.00827223269214" lon="12.769830431352771"><ele>60.666666666666664</ele><time>2026-03-30T10:25:40.001Z</time></trkpt><trkpt lat="46.00824625851926" lon="12.76996795818501"><ele>60.83333333333333</ele><time>2026-03-30T10:25:41.001Z</time></trkpt><trkpt lat="46.00822770507698" lon="12.7700979455077"><ele>61.0</ele><time>2026-03-30T10:25:42.001Z</time></trkpt><trkpt lat="46.0082181364123" lon="12.770217004121195"><ele>60.33333333333333</ele><time>2026-03-30T10:25:43.001Z</time></trkpt><trkpt lat="46.00820053371702" lon="12.770312049661753"><ele>59.666666666666664</ele><time>2026-03-30T10:25:44.001Z</time></trkpt><trkpt lat="46.00816877217142" lon="12.77040236242813"><ele>59.0</ele><time>2026-03-30T10:25:45.001Z</time></trkpt><trkpt lat="46.00811594839438" lon="12.77049894105748"><ele>58.33333333333333</ele><time>2026-03-30T10:25:46.001Z</time></trkpt><trkpt lat="46.00804808155017" lon="12.77059424527245"><ele>57.666666666666664</ele><time>2026-03-30T10:25:47.001Z</time></trkpt><trkpt lat="46.00797827027201" lon="12.77067219128298"><ele>57.0</ele><time>2026-03-30T10:25:48.001Z</time></trkpt><trkpt lat="46.00790554471633" lon="12.770751196076704"><ele>57.0</ele><time>2026-03-30T10:25:49.001Z</time></trkpt><trkpt lat="46.0078426317023" lon="12.770830089190149"><ele>57.0</ele><time>2026-03-30T10:25:50.001Z</time></trkpt><trkpt lat="46.00779121606729" lon="12.770934856748942"><ele>57.0</ele><time>2026-03-30T10:25:51.001Z</time></trkpt><trkpt lat="46.00774390573288" lon="12.771025954680493"><ele>57.0</ele><time>2026-03-30T10:25:52.001Z</time></trkpt><trkpt lat="46.00770363727324" lon="12.771097138387258"><ele>57.0</ele><time>2026-03-30T10:25:53.001Z</time></trkpt><trkpt lat="46.00765166630884" lon="12.771206901565284"><ele>57.0</ele><time>2026-03-30T10:25:55.001Z</time></trkpt><trkpt lat="46.00761259024775" lon="12.77129804950884"><ele>57.0</ele><time>2026-03-30T10:26:10Z</time></trkpt><trkpt lat="46.00754695763842" lon="12.771376137842575"><ele>57.0</ele><time>2026-03-30T10:26:12Z</time></trkpt><trkpt lat="46.007493532238875" lon="12.771439747099016"><ele>57.0</ele><time>2026-03-30T10:26:13Z</time></trkpt><trkpt lat="46.007432068549484" lon="12.771517859378822"><ele>57.0</ele><time>2026-03-30T10:26:14Z</time></trkpt><trkpt lat="46.0073648497335" lon="12.771603314470802"><ele>57.0</ele><time>2026-03-30T10:26:15Z</time></trkpt><trkpt lat="46.00730815144401" lon="12.771673645330624"><ele>57.0</ele><time>2026-03-30T10:26:16Z</time></trkpt><trkpt lat="46.00725959536346" lon="12.7717531920136"><ele>57.0</ele><time>2026-03-30T10:26:17Z</time></trkpt><trkpt lat="46.007210773160715" lon="12.771827284206559"><ele>57.0</ele><time>2026-03-30T10:26:18Z</time></trkpt><trkpt lat="46.00715002481283" lon="12.771905009411874"><ele>57.0</ele><time>2026-03-30T10:26:19Z</time></trkpt><trkpt lat="46.00708934519294" lon="12.771981966474257"><ele>57.0</ele><time>2026-03-30T10:26:20Z</time></trkpt><trkpt lat="46.007008428952254" lon="12.772095106603983"><ele>57.0</ele><time>2026-03-30T10:26:22Z</time></trkpt><trkpt lat="46.00690797897658" lon="12.772179534211448"><ele>56.400000000000006</ele><time>2026-03-30T10:26:24Z</time></trkpt><trkpt lat="46.00684439759383" lon="12.772212140360923"><ele>55.800000000000004</ele><time>2026-03-30T10:26:25Z</time></trkpt><trkpt lat="46.006782469472725" lon="12.772243460703967"><ele>55.2</ele><time>2026-03-30T10:26:26Z</time></trkpt><trkpt lat="46.00667074506194" lon="12.772309734154069"><ele>54.6</ele><time>2026-03-30T10:26:28Z</time></trkpt><trkpt lat="46.00653288978109" lon="12.772336884351581"><ele>54.0</ele><time>2026-03-30T10:26:30Z</time></trkpt><trkpt lat="46.00645538417772" lon="12.772335204088433"><ele>53.666666666666664</ele><time>2026-03-30T10:26:31Z</time></trkpt><trkpt lat="46.00637748022069" lon="12.77232768459693"><ele>53.33333333333333</ele><time>2026-03-30T10:26:32Z</time></trkpt><trkpt lat="46.00630559932918" lon="12.772325121671546"><ele>53.0</ele><time>2026-03-30T10:26:33Z</time></trkpt><trkpt lat="46.006229064810555" lon="12.772348114771338"><ele>52.666666666666664</ele><time>2026-03-30T10:26:34Z</time></trkpt><trkpt lat="46.006148770263735" lon="12.772393437727644"><ele>52.33333333333333</ele><time>2026-03-30T10:26:35Z</time></trkpt><trkpt lat="46.00607972501538" lon="12.772436049892772"><ele>52.0</ele><time>2026-03-30T10:26:36Z</time></trkpt><trkpt lat="46.005850924578944" lon="12.772533848665011"><ele>51.99999999999999</ele><time>2026-03-30T10:26:39Z</time></trkpt><trkpt lat="46.00577159250125" lon="12.772549126696571"><ele>52.0</ele><time>2026-03-30T10:26:40Z</time></trkpt><trkpt lat="46.00568265582463" lon="12.772570658834406"><ele>52.0</ele><time>2026-03-30T10:26:41Z</time></trkpt><trkpt lat="46.00559910420061" lon="12.77258228754885"><ele>52.0</ele><time>2026-03-30T10:26:42Z</time></trkpt><trkpt lat="46.00551962464303" lon="12.772607320499368"><ele>51.99999999999999</ele><time>2026-03-30T10:26:43Z</time></trkpt><trkpt lat="46.00543556440808" lon="12.772655084736241"><ele>52.0</ele><time>2026-03-30T10:26:44Z</time></trkpt><trkpt lat="46.005360431548304" lon="12.772699313453032"><ele>51.99999999999999</ele><time>2026-03-30T10:26:45Z</time></trkpt><trkpt lat="46.00529618283248" lon="12.7727361336433"><ele>52.0</ele><time>2026-03-30T10:26:46Z</time></trkpt><trkpt lat="46.005226264011974" lon="12.772778293443537"><ele>52.0</ele><time>2026-03-30T10:26:47Z</time></trkpt><trkpt lat="46.00516051457989" lon="12.772821235899627"><ele>52.0</ele><time>2026-03-30T10:26:48Z</time></trkpt><trkpt lat="46.0050949723662" lon="12.772880609157106"><ele>51.99999999999999</ele><time>2026-03-30T10:26:49Z</time></trkpt><trkpt lat="46.00500572248107" lon="12.772995892586337"><ele>52.0</ele><time>2026-03-30T10:26:51Z</time></trkpt><trkpt lat="46.004950726696755" lon="12.773063772796426"><ele>52.2</ele><time>2026-03-30T10:26:52Z</time></trkpt><trkpt lat="46.004902021122454" lon="12.773128532568016"><ele>52.400000000000006</ele><time>2026-03-30T10:26:53Z</time></trkpt><trkpt lat="46.0048050876248" lon="12.773225526704428"><ele>52.599999999999994</ele><time>2026-03-30T10:26:55Z</time></trkpt><trkpt lat="46.004714013810954" lon="12.773349541915467"><ele>52.8</ele><time>2026-03-30T10:26:57Z</time></trkpt><trkpt lat="46.00464346346608" lon="12.773405710490156"><ele>53.0</ele><time>2026-03-30T10:26:58Z</time></trkpt><trkpt lat="46.00457590357504" lon="12.773442780798401"><ele>53.00000000000001</ele><time>2026-03-30T10:26:59.001Z</time></trkpt><trkpt lat="46.00449512573215" lon="12.773496154654723"><ele>53.0</ele><time>2026-03-30T10:27:00.001Z</time></trkpt><trkpt lat="46.00443334364478" lon="12.77354430981789"><ele>53.0</ele><time>2026-03-30T10:27:01.001Z</time></trkpt><trkpt lat="46.00437397564236" lon="12.773590212584581"><ele>53.0</ele><time>2026-03-30T10:27:02.001Z</time></trkpt><trkpt lat="46.004294816622505" lon="12.773641126102028"><ele>53.00000000000001</ele><time>2026-03-30T10:27:03.001Z</time></trkpt><trkpt lat="46.00422096383339" lon="12.773664884275377"><ele>53.0</ele><time>2026-03-30T10:27:04.001Z</time></trkpt><trkpt lat="46.00408531534269" lon="12.773720648478388"><ele>52.333333333333336</ele><time>2026-03-30T10:27:06.001Z</time></trkpt><trkpt lat="46.00400726644855" lon="12.773759967497263"><ele>51.66666666666667</ele><time>2026-03-30T10:27:07.001Z</time></trkpt><trkpt lat="46.00393176283236" lon="12.773797862134568"><ele>51.0</ele><time>2026-03-30T10:27:08.001Z</time></trkpt><trkpt lat="46.00386481660953" lon="12.773836754456076"><ele>50.33333333333333</ele><time>2026-03-30T10:27:09.001Z</time></trkpt><trkpt lat="46.003804708117414" lon="12.773868727109543"><ele>49.666666666666664</ele><time>2026-03-30T10:27:10.001Z</time></trkpt><trkpt lat="46.00370864808076" lon="12.77385050005032"><ele>49.0</ele><time>2026-03-30T10:27:12.001Z</time></trkpt><trkpt lat="46.0036435436662" lon="12.773865179514951"><ele>49.0</ele><time>2026-03-30T10:29:04Z</time></trkpt><trkpt lat="46.00356902877685" lon="12.773926341440209"><ele>49.0</ele><time>2026-03-30T10:29:06Z</time></trkpt><trkpt lat="46.003489992255794" lon="12.77400323106545"><ele>49.0</ele><time>2026-03-30T10:29:08Z</time></trkpt><trkpt lat="46.003389894162225" lon="12.774091344973371"><ele>49.0</ele><time>2026-03-30T10:29:10Z</time></trkpt><trkpt lat="46.00328454675924" lon="12.774159677882054"><ele>49.0</ele><time>2026-03-30T10:29:12Z</time></trkpt><trkpt lat="46.003221707175435" lon="12.77419123984494"><ele>48.800000000000004</ele><time>2026-03-30T10:29:13Z</time></trkpt><trkpt lat="46.003159384104826" lon="12.774216313420235"><ele>48.6</ele><time>2026-03-30T10:29:14Z</time></trkpt><trkpt lat="46.00303062290503" lon="12.774246528545232"><ele>48.4</ele><time>2026-03-30T10:29:16.001Z</time></trkpt><trkpt lat="46.00291518324819" lon="12.774286357257393"><ele>48.2</ele><time>2026-03-30T10:29:18.001Z</time></trkpt><trkpt lat="46.00279710285142" lon="12.7743103925653"><ele>48.0</ele><time>2026-03-30T10:29:20.001Z</time></trkpt><trkpt lat="46.002725178026395" lon="12.774305635346751"><ele>48.0</ele><time>2026-03-30T10:29:21.001Z</time></trkpt><trkpt lat="46.00263978739456" lon="12.774303894972943"><ele>48.0</ele><time>2026-03-30T10:29:22.001Z</time></trkpt><trkpt lat="46.00256966717743" lon="12.774305501667023"><ele>48.0</ele><time>2026-03-30T10:29:23.001Z</time></trkpt><trkpt lat="46.002505469328035" lon="12.774309828226716"><ele>48.0</ele><time>2026-03-30T10:29:24.001Z</time></trkpt><trkpt lat="46.00240908823131" lon="12.774315617120216"><ele>48.0</ele><time>2026-03-30T10:29:26.001Z</time></trkpt><trkpt lat="46.00230525994073" lon="12.774350524519942"><ele>48.0</ele><time>2026-03-30T10:29:28.001Z</time></trkpt><trkpt lat="46.00219983356853" lon="12.774327092682563"><ele>47.599999999999994</ele><time>2026-03-30T10:29:30.001Z</time></trkpt><trkpt lat="46.002146138090374" lon="12.774241355365909"><ele>47.199999999999996</ele><time>2026-03-30T10:29:32.001Z</time></trkpt><trkpt lat="46.002114582239265" lon="12.774104496099065"><ele>46.8</ele><time>2026-03-30T10:29:34.001Z</time></trkpt><trkpt lat="46.00210143015701" lon="12.773936191176977"><ele>46.4</ele><time>2026-03-30T10:29:36.001Z</time></trkpt><trkpt lat="46.00210611585821" lon="12.77380134866049"><ele>46.0</ele><time>2026-03-30T10:29:38.001Z</time></trkpt><trkpt lat="46.00209976811195" lon="12.773709226412569"><ele>46.0</ele><time>2026-03-30T10:29:39.001Z</time></trkpt><trkpt lat="46.00209270970925" lon="12.773607042691774"><ele>46.0</ele><time>2026-03-30T10:29:40.001Z</time></trkpt><trkpt lat="46.00210195013486" lon="12.773499022389936"><ele>46.0</ele><time>2026-03-30T10:29:41.001Z</time></trkpt><trkpt lat="46.00212489954968" lon="12.773378426715778"><ele>46.0</ele><time>2026-03-30T10:29:42.001Z</time></trkpt><trkpt lat="46.002147440846876" lon="12.77325596463107"><ele>46.0</ele><time>2026-03-30T10:29:43.001Z</time></trkpt><trkpt lat="46.002172848653274" lon="12.773117972623513"><ele>46.0</ele><time>2026-03-30T10:29:44.001Z</time></trkpt><trkpt lat="46.002199916738846" lon="12.772967332326827"><ele>46.5</ele><time>2026-03-30T10:29:45.001Z</time></trkpt><trkpt lat="46.00222756338354" lon="12.77280533294382"><ele>47.0</ele><time>2026-03-30T10:29:46.001Z</time></trkpt><trkpt lat="46.00225980047984" lon="12.772637864843555"><ele>47.5</ele><time>2026-03-30T10:29:47.001Z</time></trkpt><trkpt lat="46.00229733452283" lon="12.772465500423234"><ele>48.0</ele><time>2026-03-30T10:29:48.001Z</time></trkpt><trkpt lat="46.00232682740107" lon="12.772285888381965"><ele>48.0</ele><time>2026-03-30T10:29:49.001Z</time></trkpt><trkpt lat="46.00235847239007" lon="12.772103392399872"><ele>48.0</ele><time>2026-03-30T10:29:50.001Z</time></trkpt><trkpt lat="46.002390176729946" lon="12.771929991304335"><ele>48.0</ele><time>2026-03-30T10:29:51.001Z</time></trkpt><trkpt lat="46.00241526952712" lon="12.771757020127835"><ele>48.0</ele><time>2026-03-30T10:29:52.001Z</time></trkpt><trkpt lat="46.00243437070303" lon="12.771585995613773"><ele>48.0</ele><time>2026-03-30T10:29:53.001Z</time></trkpt><trkpt lat="46.002451191025266" lon="12.771417362511487"><ele>48.0</ele><time>2026-03-30T10:29:54.001Z</time></trkpt><trkpt lat="46.00246909094481" lon="12.771242618576313"><ele>48.0</ele><time>2026-03-30T10:29:55.001Z</time></trkpt><trkpt lat="46.00248170312087" lon="12.77105731262936"><ele>48.0</ele><time>2026-03-30T10:29:56.001Z</time></trkpt><trkpt lat="46.002488337124326" lon="12.770865110155428"><ele>48.0</ele><time>2026-03-30T10:29:57.001Z</time></trkpt><trkpt lat="46.00250961902085" lon="12.770689461239998"><ele>48.0</ele><time>2026-03-30T10:29:58.001Z</time></trkpt><trkpt lat="46.00251250132416" lon="12.770525403579276"><ele>48.0</ele><time>2026-03-30T10:29:59.001Z</time></trkpt><trkpt lat="46.00249864350383" lon="12.77036823006177"><ele>48.0</ele><time>2026-03-30T10:30:00.001Z</time></trkpt><trkpt lat="46.00249629743878" lon="12.770202576883044"><ele>47.75</ele><time>2026-03-30T10:30:01.001Z</time></trkpt><trkpt lat="46.00248855043401" lon="12.770026095962596"><ele>47.5</ele><time>2026-03-30T10:30:02.001Z</time></trkpt><trkpt lat="46.002476067230944" lon="12.76984004354762"><ele>47.25</ele><time>2026-03-30T10:30:03.001Z</time></trkpt><trkpt lat="46.00247841571294" lon="12.769646817364114"><ele>47.0</ele><time>2026-03-30T10:30:04.001Z</time></trkpt><trkpt lat="46.00246503504794" lon="12.76944954149357"><ele>47.0</ele><time>2026-03-30T10:30:05.001Z</time></trkpt><trkpt lat="46.0024355990971" lon="12.769249640071225"><ele>47.0</ele><time>2026-03-30T10:30:06.001Z</time></trkpt><trkpt lat="46.00242493072835" lon="12.769040535172387"><ele>47.0</ele><time>2026-03-30T10:30:07.001Z</time></trkpt><trkpt lat="46.002412308241816" lon="12.768827201319175"><ele>47.0</ele><time>2026-03-30T10:30:08.001Z</time></trkpt><trkpt lat="46.00239766533597" lon="12.768609923400811"><ele>47.666666666666664</ele><time>2026-03-30T10:30:09.001Z</time></trkpt><trkpt lat="46.00238246816556" lon="12.768387901161603"><ele>48.33333333333333</ele><time>2026-03-30T10:30:10.001Z</time></trkpt><trkpt lat="46.00236825536881" lon="12.76817071723206"><ele>49.0</ele><time>2026-03-30T10:30:11.001Z</time></trkpt><trkpt lat="46.00235551262907" lon="12.767958737980521"><ele>49.0</ele><time>2026-03-30T10:30:12.001Z</time></trkpt><trkpt lat="46.0023418964059" lon="12.767749293842998"><ele>49.0</ele><time>2026-03-30T10:30:13.001Z</time></trkpt><trkpt lat="46.00232770360889" lon="12.767541736576854"><ele>49.0</ele><time>2026-03-30T10:30:14.001Z</time></trkpt><trkpt lat="46.00231216787574" lon="12.76733637253305"><ele>49.0</ele><time>2026-03-30T10:30:15Z</time></trkpt><trkpt lat="46.00229460096161" lon="12.767132313613931"><ele>48.75</ele><time>2026-03-30T10:30:16Z</time></trkpt><trkpt lat="46.00227524390552" lon="12.766931132732335"><ele>48.5</ele><time>2026-03-30T10:30:17Z</time></trkpt><trkpt lat="46.00225395547016" lon="12.766730866513045"><ele>48.25</ele><time>2026-03-30T10:30:18Z</time></trkpt><trkpt lat="46.002245799453284" lon="12.766525948504032"><ele>48.0</ele><time>2026-03-30T10:30:19Z</time></trkpt><trkpt lat="46.00221893630502" lon="12.766323582196367"><ele>48.0</ele><time>2026-03-30T10:30:20Z</time></trkpt><trkpt lat="46.00218925233874" lon="12.766121978159072"><ele>48.0</ele><time>2026-03-30T10:30:21Z</time></trkpt><trkpt lat="46.00215554322011" lon="12.765920718335305"><ele>48.0</ele><time>2026-03-30T10:30:22Z</time></trkpt><trkpt lat="46.002118721459574" lon="12.765720503301436"><ele>48.0</ele><time>2026-03-30T10:30:23Z</time></trkpt><trkpt lat="46.00207902349252" lon="12.765518829373026"><ele>48.5</ele><time>2026-03-30T10:30:24Z</time></trkpt><trkpt lat="46.00203762185831" lon="12.765316797367653"><ele>49.0</ele><time>2026-03-30T10:30:25Z</time></trkpt><trkpt lat="46.00199686953672" lon="12.765115370631225"><ele>49.5</ele><time>2026-03-30T10:30:26Z</time></trkpt><trkpt lat="46.00195897544844" lon="12.764927779461146"><ele>50.0</ele><time>2026-03-30T10:30:27Z</time></trkpt><trkpt lat="46.00192333984109" lon="12.764751368716432"><ele>50.0</ele><time>2026-03-30T10:30:28Z</time></trkpt><trkpt lat="46.00189027462704" lon="12.764586615825932"><ele>50.0</ele><time>2026-03-30T10:30:29Z</time></trkpt><trkpt lat="46.001859158380164" lon="12.764430911374523"><ele>50.0</ele><time>2026-03-30T10:30:30Z</time></trkpt><trkpt lat="46.001830352878" lon="12.764286769812726"><ele>50.0</ele><time>2026-03-30T10:30:31Z</time></trkpt><trkpt lat="46.001803127716094" lon="12.76415053622818"><ele>50.0</ele><time>2026-03-30T10:30:32Z</time></trkpt><trkpt lat="46.00177656504947" lon="12.764017617690289"><ele>49.8</ele><time>2026-03-30T10:30:33Z</time></trkpt><trkpt lat="46.00174856635949" lon="12.763877513388142"><ele>49.6</ele><time>2026-03-30T10:30:34Z</time></trkpt><trkpt lat="46.00170402546351" lon="12.76373966574013"><ele>49.400000000000006</ele><time>2026-03-30T10:30:35Z</time></trkpt><trkpt lat="46.00168998253941" lon="12.76358436231088"><ele>49.2</ele><time>2026-03-30T10:30:36Z</time></trkpt><trkpt lat="46.001658755561614" lon="12.763433280911622"><ele>49.0</ele><time>2026-03-30T10:30:37Z</time></trkpt><trkpt lat="46.00161211962374" lon="12.763287837218572"><ele>48.5</ele><time>2026-03-30T10:30:38Z</time></trkpt><trkpt lat="46.001582081744324" lon="12.763133806676489"><ele>48.0</ele><time>2026-03-30T10:30:39Z</time></trkpt><trkpt lat="46.001553201453845" lon="12.76297836280587"><ele>47.5</ele><time>2026-03-30T10:30:40Z</time></trkpt><trkpt lat="46.00152657363021" lon="12.762820707815154"><ele>47.0</ele><time>2026-03-30T10:30:41Z</time></trkpt><trkpt lat="46.00150271959264" lon="12.762659890896236"><ele>47.0</ele><time>2026-03-30T10:30:42Z</time></trkpt><trkpt lat="46.001484814835386" lon="12.762497388852259"><ele>47.0</ele><time>2026-03-30T10:30:43Z</time></trkpt><trkpt lat="46.00147351343213" lon="12.7623330577436"><ele>47.0</ele><time>2026-03-30T10:30:44Z</time></trkpt><trkpt lat="46.00146957726936" lon="12.762167169931638"><ele>47.0</ele><time>2026-03-30T10:30:45Z</time></trkpt><trkpt lat="46.001469005310376" lon="12.762002230662574"><ele>46.75</ele><time>2026-03-30T10:30:46Z</time></trkpt><trkpt lat="46.00147185491789" lon="12.761836182060811"><ele>46.5</ele><time>2026-03-30T10:30:47Z</time></trkpt><trkpt lat="46.001496909552856" lon="12.761671802472987"><ele>46.25</ele><time>2026-03-30T10:30:48Z</time></trkpt><trkpt lat="46.00149350673755" lon="12.76150242135254"><ele>46.0</ele><time>2026-03-30T10:30:49Z</time></trkpt><trkpt lat="46.00150826051901" lon="12.761338508435571"><ele>46.0</ele><time>2026-03-30T10:30:50Z</time></trkpt><trkpt lat="46.00152259846811" lon="12.761173996414948"><ele>46.0</ele><time>2026-03-30T10:30:51Z</time></trkpt><trkpt lat="46.00153718052675" lon="12.761012398641434"><ele>46.0</ele><time>2026-03-30T10:30:52Z</time></trkpt><trkpt lat="46.00154981398976" lon="12.760855495449114"><ele>46.0</ele><time>2026-03-30T10:30:53Z</time></trkpt><trkpt lat="46.001561877943004" lon="12.760705478678405"><ele>46.0</ele><time>2026-03-30T10:30:54Z</time></trkpt><trkpt lat="46.00157446330065" lon="12.760560194315426"><ele>46.16666666666667</ele><time>2026-03-30T10:30:55Z</time></trkpt><trkpt lat="46.00158666486758" lon="12.760421917648864"><ele>46.333333333333336</ele><time>2026-03-30T10:30:56Z</time></trkpt><trkpt lat="46.001598571063134" lon="12.760288825859385"><ele>46.5</ele><time>2026-03-30T10:30:57Z</time></trkpt><trkpt lat="46.00160796768324" lon="12.76016230443465"><ele>46.666666666666664</ele><time>2026-03-30T10:30:58Z</time></trkpt><trkpt lat="46.00161624438408" lon="12.76004061751504"><ele>46.83333333333333</ele><time>2026-03-30T10:30:59Z</time></trkpt><trkpt lat="46.00161746788787" lon="12.759925241870079"><ele>47.0</ele><time>2026-03-30T10:31:00Z</time></trkpt><trkpt lat="46.0016150632475" lon="12.759794467092114"><ele>47.0</ele><time>2026-03-30T10:31:01Z</time></trkpt><trkpt lat="46.00159806272831" lon="12.759634064416517"><ele>47.0</ele><time>2026-03-30T10:31:02Z</time></trkpt><trkpt lat="46.0015916083501" lon="12.759449017701082"><ele>47.0</ele><time>2026-03-30T10:31:03Z</time></trkpt><trkpt lat="46.001563915712424" lon="12.75925377813592"><ele>47.0</ele><time>2026-03-30T10:31:04Z</time></trkpt><trkpt lat="46.001518605892436" lon="12.759055796583072"><ele>46.75</ele><time>2026-03-30T10:31:05Z</time></trkpt><trkpt lat="46.001466872082176" lon="12.758877191740218"><ele>46.5</ele><time>2026-03-30T10:31:06Z</time></trkpt><trkpt lat="46.00140713233799" lon="12.75870619681047"><ele>46.25</ele><time>2026-03-30T10:31:07Z</time></trkpt><trkpt lat="46.00134020649066" lon="12.758544557935787"><ele>46.0</ele><time>2026-03-30T10:31:08Z</time></trkpt><trkpt lat="46.00126573820893" lon="12.758391261353706"><ele>46.0</ele><time>2026-03-30T10:31:09Z</time></trkpt><trkpt lat="46.00118577028108" lon="12.758250431709266"><ele>46.0</ele><time>2026-03-30T10:31:10Z</time></trkpt><trkpt lat="46.00110527434467" lon="12.758123241362272"><ele>46.0</ele><time>2026-03-30T10:31:11Z</time></trkpt><trkpt lat="46.00101734448137" lon="12.75801804027409"><ele>46.0</ele><time>2026-03-30T10:31:12Z</time></trkpt><trkpt lat="46.00094202684454" lon="12.757900078010504"><ele>46.0</ele><time>2026-03-30T10:31:13Z</time></trkpt><trkpt lat="46.00086217142901" lon="12.757785736552238"><ele>46.0</ele><time>2026-03-30T10:31:14Z</time></trkpt><trkpt lat="46.000780386160834" lon="12.757669567057697"><ele>46.0</ele><time>2026-03-30T10:31:15.001Z</time></trkpt><trkpt lat="46.000697304343596" lon="12.757548569464694"><ele>46.0</ele><time>2026-03-30T10:31:16.001Z</time></trkpt><trkpt lat="46.00061321260157" lon="12.757423800967707"><ele>46.25</ele><time>2026-03-30T10:31:17.001Z</time></trkpt><trkpt lat="46.00052816118223" lon="12.757299359612942"><ele>46.5</ele><time>2026-03-30T10:31:18.001Z</time></trkpt><trkpt lat="46.000444751550766" lon="12.757173676095281"><ele>46.75</ele><time>2026-03-30T10:31:19.001Z</time></trkpt><trkpt lat="46.00036548818884" lon="12.757046708060695"><ele>47.0</ele><time>2026-03-30T10:31:20.001Z</time></trkpt><trkpt lat="46.00029142997869" lon="12.756920528303132"><ele>46.75</ele><time>2026-03-30T10:31:21.001Z</time></trkpt><trkpt lat="46.00022211165939" lon="12.756793846366932"><ele>46.5</ele><time>2026-03-30T10:31:22.001Z</time></trkpt><trkpt lat="46.000154364659714" lon="12.75665608746534"><ele>46.25</ele><time>2026-03-30T10:31:23.001Z</time></trkpt><trkpt lat="46.00009142567458" lon="12.756508129385642"><ele>46.0</ele><time>2026-03-30T10:31:24.001Z</time></trkpt><trkpt lat="46.000031111646805" lon="12.756355039247323"><ele>46.0</ele><time>2026-03-30T10:31:25.001Z</time></trkpt><trkpt lat="45.99997225537268" lon="12.756194612157778"><ele>46.0</ele><time>2026-03-30T10:31:26.001Z</time></trkpt><trkpt lat="45.999921488780956" lon="12.756032693361938"><ele>46.0</ele><time>2026-03-30T10:31:27.001Z</time></trkpt><trkpt lat="45.999875496051786" lon="12.755868798719208"><ele>46.0</ele><time>2026-03-30T10:31:28.001Z</time></trkpt><trkpt lat="45.9998321913308" lon="12.755706500092437"><ele>46.5</ele><time>2026-03-30T10:31:29.001Z</time></trkpt><trkpt lat="45.99979017415495" lon="12.755547979927798"><ele>47.0</ele><time>2026-03-30T10:31:30.001Z</time></trkpt><trkpt lat="45.99974649836141" lon="12.755391428729721"><ele>47.5</ele><time>2026-03-30T10:31:31.001Z</time></trkpt><trkpt lat="45.99970283179704" lon="12.755236974050185"><ele>48.0</ele><time>2026-03-30T10:31:32.001Z</time></trkpt><trkpt lat="45.99966390469781" lon="12.755079895802043"><ele>48.0</ele><time>2026-03-30T10:31:33.001Z</time></trkpt><trkpt lat="45.99963214300935" lon="12.75491971630004"><ele>48.0</ele><time>2026-03-30T10:31:34.001Z</time></trkpt><trkpt lat="45.99960855513322" lon="12.754761295394918"><ele>48.0</ele><time>2026-03-30T10:31:35.001Z</time></trkpt><trkpt lat="45.99958851390552" lon="12.754600079663723"><ele>48.0</ele><time>2026-03-30T10:31:36.001Z</time></trkpt><trkpt lat="45.99957076251465" lon="12.754433333923153"><ele>47.75</ele><time>2026-03-30T10:31:37.001Z</time></trkpt><trkpt lat="45.99955618363315" lon="12.754263962083579"><ele>47.5</ele><time>2026-03-30T10:31:38.001Z</time></trkpt><trkpt lat="45.999549202439134" lon="12.754087993244772"><ele>47.25</ele><time>2026-03-30T10:31:39.001Z</time></trkpt><trkpt lat="45.99954805389338" lon="12.753910769761019"><ele>47.0</ele><time>2026-03-30T10:31:40.001Z</time></trkpt><trkpt lat="45.999550919950785" lon="12.753730144764013"><ele>47.0</ele><time>2026-03-30T10:31:41.001Z</time></trkpt><trkpt lat="45.99955825959605" lon="12.753547427982655"><ele>47.0</ele><time>2026-03-30T10:31:42.001Z</time></trkpt><trkpt lat="45.99956975966887" lon="12.75336252625308"><ele>47.0</ele><time>2026-03-30T10:31:43.001Z</time></trkpt><trkpt lat="45.999584059621526" lon="12.753182089746224"><ele>47.0</ele><time>2026-03-30T10:31:44.001Z</time></trkpt><trkpt lat="45.99959877314127" lon="12.753005283016627"><ele>47.25</ele><time>2026-03-30T10:31:45.001Z</time></trkpt><trkpt lat="45.999613088981924" lon="12.752827207476717"><ele>47.5</ele><time>2026-03-30T10:31:46.001Z</time></trkpt><trkpt lat="45.999626688614036" lon="12.75264692457065"><ele>47.75</ele><time>2026-03-30T10:31:47.001Z</time></trkpt><trkpt lat="45.99963926148991" lon="12.752467550650557"><ele>48.0</ele><time>2026-03-30T10:31:48.001Z</time></trkpt><trkpt lat="45.99965410677808" lon="12.75229327725996"><ele>47.5</ele><time>2026-03-30T10:31:49.001Z</time></trkpt><trkpt lat="45.9996688242973" lon="12.75212740872446"><ele>47.0</ele><time>2026-03-30T10:31:50.001Z</time></trkpt><trkpt lat="45.999684975596345" lon="12.751958271034752"><ele>46.5</ele><time>2026-03-30T10:31:51.001Z</time></trkpt><trkpt lat="45.99970439560005" lon="12.751786943441852"><ele>46.0</ele><time>2026-03-30T10:31:52.001Z</time></trkpt><trkpt lat="45.999725278373695" lon="12.75161454643269"><ele>46.0</ele><time>2026-03-30T10:31:53.001Z</time></trkpt><trkpt lat="45.99974761336394" lon="12.751443577980652"><ele>46.0</ele><time>2026-03-30T10:31:54.001Z</time></trkpt><trkpt lat="45.99977061329164" lon="12.751279224085126"><ele>46.0</ele><time>2026-03-30T10:31:55.001Z</time></trkpt><trkpt lat="45.99979477978392" lon="12.751120491172301"><ele>46.0</ele><time>2026-03-30T10:31:56.001Z</time></trkpt><trkpt lat="45.99982178259401" lon="12.750958520366371"><ele>46.25</ele><time>2026-03-30T10:31:57.001Z</time></trkpt><trkpt lat="45.99985068927685" lon="12.750797134373686"><ele>46.5</ele><time>2026-03-30T10:31:58.001Z</time></trkpt><trkpt lat="45.99987725750105" lon="12.750635443018405"><ele>46.75</ele><time>2026-03-30T10:31:59.001Z</time></trkpt><trkpt lat="45.99990253670273" lon="12.75047056856561"><ele>47.0</ele><time>2026-03-30T10:32:00.001Z</time></trkpt><trkpt lat="45.99993058911724" lon="12.75030457026851"><ele>47.2</ele><time>2026-03-30T10:32:01.001Z</time></trkpt><trkpt lat="45.99995833652115" lon="12.750145789753004"><ele>47.400000000000006</ele><time>2026-03-30T10:32:02.001Z</time></trkpt><trkpt lat="45.99998443705936" lon="12.749991726281806"><ele>47.599999999999994</ele><time>2026-03-30T10:32:03.001Z</time></trkpt><trkpt lat="46.00001016973966" lon="12.749838233326546"><ele>47.8</ele><time>2026-03-30T10:32:04.001Z</time></trkpt><trkpt lat="46.00003823218437" lon="12.749681726358416"><ele>48.0</ele><time>2026-03-30T10:32:05.001Z</time></trkpt><trkpt lat="46.00006860277154" lon="12.749522820245216"><ele>48.25</ele><time>2026-03-30T10:32:06.001Z</time></trkpt><trkpt lat="46.00009990717066" lon="12.749357643453394"><ele>48.5</ele><time>2026-03-30T10:32:07.001Z</time></trkpt><trkpt lat="46.000129842319545" lon="12.74918753388462"><ele>48.75</ele><time>2026-03-30T10:32:08.001Z</time></trkpt><trkpt lat="46.000157517902856" lon="12.749013253099768"><ele>49.0</ele><time>2026-03-30T10:32:09.001Z</time></trkpt><trkpt lat="46.00018553398032" lon="12.748833752698454"><ele>49.0</ele><time>2026-03-30T10:32:10.001Z</time></trkpt><trkpt lat="46.00021536249244" lon="12.748651406110156"><ele>49.0</ele><time>2026-03-30T10:32:11.001Z</time></trkpt><trkpt lat="46.00024536460914" lon="12.748471950018843"><ele>49.0</ele><time>2026-03-30T10:32:12.001Z</time></trkpt><trkpt lat="46.00027473161269" lon="12.748291953463658"><ele>49.0</ele><time>2026-03-30T10:32:13.001Z</time></trkpt><trkpt lat="46.00030399791558" lon="12.748112212004871"><ele>49.25</ele><time>2026-03-30T10:32:14.001Z</time></trkpt><trkpt lat="46.00033388305885" lon="12.747931287458902"><ele>49.5</ele><time>2026-03-30T10:32:15.001Z</time></trkpt><trkpt lat="46.00036447460512" lon="12.747759813647301"><ele>49.75</ele><time>2026-03-30T10:32:16.001Z</time></trkpt><trkpt lat="46.00039491364447" lon="12.747599563708977"><ele>50.0</ele><time>2026-03-30T10:32:17.001Z</time></trkpt><trkpt lat="46.00041959861957" lon="12.747446318914092"><ele>50.0</ele><time>2026-03-30T10:32:18.001Z</time></trkpt><trkpt lat="46.00044168547744" lon="12.747296905947547"><ele>50.0</ele><time>2026-03-30T10:32:19.001Z</time></trkpt><trkpt lat="46.00046674205494" lon="12.747154540894641"><ele>50.0</ele><time>2026-03-30T10:32:20.001Z</time></trkpt><trkpt lat="46.00049461246732" lon="12.747015183002754"><ele>50.0</ele><time>2026-03-30T10:32:21Z</time></trkpt><trkpt lat="46.000521294623894" lon="12.746874170091008"><ele>50.0</ele><time>2026-03-30T10:32:22Z</time></trkpt><trkpt lat="46.00054792228767" lon="12.746723569837176"><ele>50.0</ele><time>2026-03-30T10:32:23Z</time></trkpt><trkpt lat="46.00057751664593" lon="12.746566440279663"><ele>50.0</ele><time>2026-03-30T10:32:24Z</time></trkpt><trkpt lat="46.00061234296986" lon="12.746406111362647"><ele>50.0</ele><time>2026-03-30T10:32:25Z</time></trkpt><trkpt lat="46.00065167462516" lon="12.746242974066057"><ele>50.0</ele><time>2026-03-30T10:32:26Z</time></trkpt><trkpt lat="46.00069402090885" lon="12.746086313770698"><ele>50.0</ele><time>2026-03-30T10:32:27Z</time></trkpt><trkpt lat="46.00073645484707" lon="12.745938007122012"><ele>50.0</ele><time>2026-03-30T10:32:28Z</time></trkpt><trkpt lat="46.00078208386238" lon="12.745785238608764"><ele>50.0</ele><time>2026-03-30T10:32:29Z</time></trkpt><trkpt lat="46.00082861139778" lon="12.745634801772221"><ele>50.0</ele><time>2026-03-30T10:32:30Z</time></trkpt><trkpt lat="46.00087406074428" lon="12.74548452774461"><ele>50.0</ele><time>2026-03-30T10:32:31Z</time></trkpt><trkpt lat="46.0009186329838" lon="12.74533472782916"><ele>50.0</ele><time>2026-03-30T10:32:32Z</time></trkpt><trkpt lat="46.00096263327209" lon="12.745183693531395"><ele>50.0</ele><time>2026-03-30T10:32:33Z</time></trkpt><trkpt lat="46.00100690616243" lon="12.745032245339814"><ele>50.0</ele><time>2026-03-30T10:32:34Z</time></trkpt><trkpt lat="46.00105373269654" lon="12.74488069365699"><ele>49.75</ele><time>2026-03-30T10:32:35Z</time></trkpt><trkpt lat="46.00110016925151" lon="12.744729036256055"><ele>49.5</ele><time>2026-03-30T10:32:36Z</time></trkpt><trkpt lat="46.00114335412143" lon="12.744570745414231"><ele>49.25</ele><time>2026-03-30T10:32:37Z</time></trkpt><trkpt lat="46.00118589838321" lon="12.744409544275708"><ele>49.0</ele><time>2026-03-30T10:32:38Z</time></trkpt><trkpt lat="46.00123030755149" lon="12.744247903917636"><ele>48.75</ele><time>2026-03-30T10:32:39Z</time></trkpt><trkpt lat="46.001275858911804" lon="12.744083337116042"><ele>48.5</ele><time>2026-03-30T10:32:40Z</time></trkpt><trkpt lat="46.001320086258914" lon="12.743923256364408"><ele>48.25</ele><time>2026-03-30T10:32:41Z</time></trkpt><trkpt lat="46.00136260348204" lon="12.743763968249597"><ele>48.0</ele><time>2026-03-30T10:32:42Z</time></trkpt><trkpt lat="46.00140430806033" lon="12.743602724352304"><ele>48.25</ele><time>2026-03-30T10:32:43Z</time></trkpt><trkpt lat="46.00144340427662" lon="12.74344340866729"><ele>48.5</ele><time>2026-03-30T10:32:44Z</time></trkpt><trkpt lat="46.00148161587368" lon="12.74328335550414"><ele>48.75</ele><time>2026-03-30T10:32:45Z</time></trkpt><trkpt lat="46.00152176674011" lon="12.743120712930136"><ele>49.0</ele><time>2026-03-30T10:32:46Z</time></trkpt><trkpt lat="46.001561979811505" lon="12.742961904384293"><ele>49.0</ele><time>2026-03-30T10:32:47Z</time></trkpt><trkpt lat="46.00160069756148" lon="12.742805788078064"><ele>49.0</ele><time>2026-03-30T10:32:48Z</time></trkpt><trkpt lat="46.00164132535901" lon="12.74264818580454"><ele>49.0</ele><time>2026-03-30T10:32:49Z</time></trkpt><trkpt lat="46.00168240016401" lon="12.742489284594381"><ele>49.0</ele><time>2026-03-30T10:32:50Z</time></trkpt><trkpt lat="46.00172356481623" lon="12.742324458031728"><ele>49.25</ele><time>2026-03-30T10:32:51Z</time></trkpt><trkpt lat="46.001764637348096" lon="12.742156233769624"><ele>49.5</ele><time>2026-03-30T10:32:52Z</time></trkpt><trkpt lat="46.00180576156925" lon="12.741986053105485"><ele>49.75</ele><time>2026-03-30T10:32:53Z</time></trkpt><trkpt lat="46.00184715504999" lon="12.741814766019743"><ele>50.0</ele><time>2026-03-30T10:32:54Z</time></trkpt><trkpt lat="46.00188951606102" lon="12.741646945410302"><ele>50.0</ele><time>2026-03-30T10:32:55Z</time></trkpt><trkpt lat="46.001931023332745" lon="12.741482570595485"><ele>50.0</ele><time>2026-03-30T10:32:56Z</time></trkpt><trkpt lat="46.0019712067076" lon="12.741323671643242"><ele>50.0</ele><time>2026-03-30T10:32:57Z</time></trkpt><trkpt lat="46.00200921002144" lon="12.7411703553207"><ele>50.0</ele><time>2026-03-30T10:32:58Z</time></trkpt><trkpt lat="46.00206356790354" lon="12.74102483922709"><ele>50.00000000000001</ele><time>2026-03-30T10:32:59Z</time></trkpt><trkpt lat="46.00210169645287" lon="12.74088242569039"><ele>50.0</ele><time>2026-03-30T10:33:00Z</time></trkpt><trkpt lat="46.00213794888241" lon="12.740747515102871"><ele>50.0</ele><time>2026-03-30T10:33:01Z</time></trkpt><trkpt lat="46.00217122104204" lon="12.740623695688738"><ele>50.0</ele><time>2026-03-30T10:33:02Z</time></trkpt><trkpt lat="46.00219898928042" lon="12.740520358512757"><ele>50.00000000000001</ele><time>2026-03-30T10:33:03Z</time></trkpt><trkpt lat="46.002223983047" lon="12.740427346133071"><ele>50.0</ele><time>2026-03-30T10:33:04Z</time></trkpt><trkpt lat="46.002271177253306" lon="12.740251724536337"><ele>50.25</ele><time>2026-03-30T10:33:06Z</time></trkpt><trkpt lat="46.00213926858006" lon="12.740073592414351"><ele>50.5</ele><time>2026-03-30T10:33:07Z</time></trkpt><trkpt lat="46.00209960480601" lon="12.739946117763619"><ele>50.75</ele><time>2026-03-30T10:33:08Z</time></trkpt><trkpt lat="46.00205320113464" lon="12.739824124615534"><ele>51.0</ele><time>2026-03-30T10:33:09Z</time></trkpt><trkpt lat="46.00200022963317" lon="12.73969106537624"><ele>51.0</ele><time>2026-03-30T10:33:10Z</time></trkpt><trkpt lat="46.00195391814088" lon="12.739556290668544"><ele>51.0</ele><time>2026-03-30T10:33:11Z</time></trkpt><trkpt lat="46.00190758770228" lon="12.739412275517477"><ele>51.0</ele><time>2026-03-30T10:33:12Z</time></trkpt><trkpt lat="46.00187747314545" lon="12.739248514133566"><ele>51.0</ele><time>2026-03-30T10:33:13Z</time></trkpt><trkpt lat="46.00181948248812" lon="12.739090518981886"><ele>51.0</ele><time>2026-03-30T10:33:14Z</time></trkpt><trkpt lat="46.00177230415085" lon="12.73891574913711"><ele>51.0</ele><time>2026-03-30T10:33:15Z</time></trkpt><trkpt lat="46.00174361565295" lon="12.738724514694262"><ele>51.0</ele><time>2026-03-30T10:33:16Z</time></trkpt><trkpt lat="46.00170007024579" lon="12.738534524414549"><ele>51.0</ele><time>2026-03-30T10:33:17Z</time></trkpt><trkpt lat="46.00165667290606" lon="12.738337501212255"><ele>50.5</ele><time>2026-03-30T10:33:18Z</time></trkpt><trkpt lat="46.001614873172144" lon="12.738135953976474"><ele>50.0</ele><time>2026-03-30T10:33:19Z</time></trkpt><trkpt lat="46.00157513397498" lon="12.737934166074567"><ele>49.5</ele><time>2026-03-30T10:33:20Z</time></trkpt><trkpt lat="46.001536170330425" lon="12.737729684440009"><ele>49.0</ele><time>2026-03-30T10:33:21Z</time></trkpt><trkpt lat="46.00149768179888" lon="12.737529563146111"><ele>49.0</ele><time>2026-03-30T10:33:22Z</time></trkpt><trkpt lat="46.001461734540406" lon="12.737343496227307"><ele>49.0</ele><time>2026-03-30T10:33:23Z</time></trkpt><trkpt lat="46.00142601668006" lon="12.737167923896141"><ele>49.0</ele><time>2026-03-30T10:33:24Z</time></trkpt><trkpt lat="46.00139109707382" lon="12.737002539512808"><ele>49.0</ele><time>2026-03-30T10:33:25Z</time></trkpt><trkpt lat="46.00135722172928" lon="12.736844333207054"><ele>48.75</ele><time>2026-03-30T10:33:26Z</time></trkpt><trkpt lat="46.00132289704931" lon="12.736692200491449"><ele>48.5</ele><time>2026-03-30T10:33:27Z</time></trkpt><trkpt lat="46.00128522615589" lon="12.736537001910962"><ele>48.25</ele><time>2026-03-30T10:33:28Z</time></trkpt><trkpt lat="46.001242355580615" lon="12.736380013016474"><ele>48.0</ele><time>2026-03-30T10:33:29Z</time></trkpt><trkpt lat="46.00118401274217" lon="12.736223513992861"><ele>48.0</ele><time>2026-03-30T10:33:30Z</time></trkpt><trkpt lat="46.00112021959503" lon="12.736074891087142"><ele>48.0</ele><time>2026-03-30T10:33:31Z</time></trkpt><trkpt lat="46.00104939639858" lon="12.735925926032523"><ele>48.0</ele><time>2026-03-30T10:33:32Z</time></trkpt><trkpt lat="46.00097217015802" lon="12.735782165486196"><ele>48.0</ele><time>2026-03-30T10:33:33Z</time></trkpt><trkpt lat="46.0008909723748" lon="12.73564110411068"><ele>48.0</ele><time>2026-03-30T10:33:34Z</time></trkpt><trkpt lat="46.000806762867875" lon="12.73550078960452"><ele>48.0</ele><time>2026-03-30T10:33:35Z</time></trkpt><trkpt lat="46.00072054942276" lon="12.735359520551421"><ele>48.0</ele><time>2026-03-30T10:33:36Z</time></trkpt><trkpt lat="46.00063303073639" lon="12.735217530498783"><ele>48.0</ele><time>2026-03-30T10:33:37.001Z</time></trkpt><trkpt lat="46.000544652059595" lon="12.735074145433122"><ele>48.25</ele><time>2026-03-30T10:33:38.001Z</time></trkpt><trkpt lat="46.00045565470382" lon="12.734929756454777"><ele>48.5</ele><time>2026-03-30T10:33:39.001Z</time></trkpt><trkpt lat="46.00036764893168" lon="12.73478697592366"><ele>48.75</ele><time>2026-03-30T10:33:40.001Z</time></trkpt><trkpt lat="46.00028485462748" lon="12.734652650546519"><ele>49.0</ele><time>2026-03-30T10:33:41.001Z</time></trkpt><trkpt lat="46.000207018203696" lon="12.734526369143357"><ele>49.0</ele><time>2026-03-30T10:33:42.001Z</time></trkpt><trkpt lat="46.000134576431066" lon="12.734407879783147"><ele>49.0</ele><time>2026-03-30T10:33:43.001Z</time></trkpt><trkpt lat="46.00006673957401" lon="12.734292890297771"><ele>49.0</ele><time>2026-03-30T10:33:44.001Z</time></trkpt><trkpt lat="46.000003310926836" lon="12.734180451202215"><ele>49.0</ele><time>2026-03-30T10:33:45.001Z</time></trkpt><trkpt lat="45.99994153642608" lon="12.734068989980287"><ele>49.0</ele><time>2026-03-30T10:33:46.001Z</time></trkpt><trkpt lat="45.99988372710477" lon="12.733950171668026"><ele>48.6</ele><time>2026-03-30T10:33:47.001Z</time></trkpt><trkpt lat="45.999829176943905" lon="12.73382136431094"><ele>48.2</ele><time>2026-03-30T10:33:48.001Z</time></trkpt><trkpt lat="45.999778178848864" lon="12.733685828599944"><ele>47.800000000000004</ele><time>2026-03-30T10:33:49.001Z</time></trkpt><trkpt lat="45.99973176061553" lon="12.733543600397008"><ele>47.400000000000006</ele><time>2026-03-30T10:33:50.001Z</time></trkpt><trkpt lat="45.99968598368143" lon="12.733394750882116"><ele>47.0</ele><time>2026-03-30T10:33:51.001Z</time></trkpt><trkpt lat="45.99963977814294" lon="12.733240790001714"><ele>47.0</ele><time>2026-03-30T10:33:52.001Z</time></trkpt><trkpt lat="45.999593741557185" lon="12.733084161192876"><ele>47.0</ele><time>2026-03-30T10:33:53.001Z</time></trkpt><trkpt lat="45.99954717294426" lon="12.7329202961805"><ele>47.0</ele><time>2026-03-30T10:33:54.001Z</time></trkpt><trkpt lat="45.9995005679942" lon="12.732756303781855"><ele>47.0</ele><time>2026-03-30T10:33:55.001Z</time></trkpt><trkpt lat="45.99945280660395" lon="12.732588242158712"><ele>47.25</ele><time>2026-03-30T10:33:56.001Z</time></trkpt><trkpt lat="45.99940341997824" lon="12.732416396606217"><ele>47.5</ele><time>2026-03-30T10:33:57.001Z</time></trkpt><trkpt lat="45.99935227793024" lon="12.732241092667621"><ele>47.75</ele><time>2026-03-30T10:33:58.001Z</time></trkpt><trkpt lat="45.999299482546455" lon="12.732063491143697"><ele>48.0</ele><time>2026-03-30T10:33:59.001Z</time></trkpt><trkpt lat="45.99924230028669" lon="12.731884515650908"><ele>48.25</ele><time>2026-03-30T10:34:00.001Z</time></trkpt><trkpt lat="45.999180788302745" lon="12.731702237092366"><ele>48.5</ele><time>2026-03-30T10:34:01.001Z</time></trkpt><trkpt lat="45.99911527855872" lon="12.731521860271377"><ele>48.75</ele><time>2026-03-30T10:34:02.001Z</time></trkpt><trkpt lat="45.99904445299586" lon="12.7313411030832"><ele>49.0</ele><time>2026-03-30T10:34:03.001Z</time></trkpt><trkpt lat="45.99897137807278" lon="12.731158333187649"><ele>48.25</ele><time>2026-03-30T10:34:04.001Z</time></trkpt><trkpt lat="45.99889719984897" lon="12.730975289281583"><ele>47.5</ele><time>2026-03-30T10:34:05.001Z</time></trkpt><trkpt lat="45.99882149749033" lon="12.730791502586763"><ele>46.75</ele><time>2026-03-30T10:34:06.001Z</time></trkpt><trkpt lat="45.99874493777105" lon="12.730605557785497"><ele>46.0</ele><time>2026-03-30T10:34:07.001Z</time></trkpt><trkpt lat="45.99866978469688" lon="12.730423029333352"><ele>46.0</ele><time>2026-03-30T10:34:08.001Z</time></trkpt><trkpt lat="45.998596209466406" lon="12.73024302635563"><ele>46.0</ele><time>2026-03-30T10:34:09.001Z</time></trkpt><trkpt lat="45.99852671048689" lon="12.730072877216674"><ele>46.0</ele><time>2026-03-30T10:34:10.001Z</time></trkpt><trkpt lat="45.99845755849784" lon="12.729903577579108"><ele>46.0</ele><time>2026-03-30T10:34:11.001Z</time></trkpt><trkpt lat="45.998388952255596" lon="12.729740288362548"><ele>45.75</ele><time>2026-03-30T10:34:12.001Z</time></trkpt><trkpt lat="45.99832167541625" lon="12.729580584215329"><ele>45.5</ele><time>2026-03-30T10:34:13.001Z</time></trkpt><trkpt lat="45.99825301035082" lon="12.729422738951927"><ele>45.25</ele><time>2026-03-30T10:34:14.001Z</time></trkpt><trkpt lat="45.9981840745495" lon="12.72926522767202"><ele>45.0</ele><time>2026-03-30T10:34:15.001Z</time></trkpt><trkpt lat="45.99811515394346" lon="12.729110590224725"><ele>45.5</ele><time>2026-03-30T10:34:16.001Z</time></trkpt><trkpt lat="45.99804648470138" lon="12.72895716944991"><ele>46.0</ele><time>2026-03-30T10:34:17.001Z</time></trkpt><trkpt lat="45.99797712271314" lon="12.728802200980944"><ele>46.5</ele><time>2026-03-30T10:34:18.001Z</time></trkpt><trkpt lat="45.99790819042834" lon="12.728647283748288"><ele>47.0</ele><time>2026-03-30T10:34:19.001Z</time></trkpt><trkpt lat="45.99783953407902" lon="12.728492831206337"><ele>47.0</ele><time>2026-03-30T10:34:20.001Z</time></trkpt><trkpt lat="45.99777044195465" lon="12.728337398331918"><ele>47.0</ele><time>2026-03-30T10:34:21.001Z</time></trkpt><trkpt lat="45.99770138766706" lon="12.728182050558695"><ele>47.0</ele><time>2026-03-30T10:34:22.001Z</time></trkpt><trkpt lat="45.99763158297978" lon="12.72802714567824"><ele>47.0</ele><time>2026-03-30T10:34:23.001Z</time></trkpt><trkpt lat="45.99756144848468" lon="12.727872230380878"><ele>46.75</ele><time>2026-03-30T10:34:24.001Z</time></trkpt><trkpt lat="45.99749115418564" lon="12.727716962080224"><ele>46.5</ele><time>2026-03-30T10:34:25.001Z</time></trkpt><trkpt lat="45.99742074827624" lon="12.72756412941366"><ele>46.25</ele><time>2026-03-30T10:34:26.001Z</time></trkpt><trkpt lat="45.9973411668273" lon="12.727404392994135"><ele>46.0</ele><time>2026-03-30T10:34:27Z</time></trkpt><trkpt lat="45.99725746334148" lon="12.72727019292013"><ele>46.0</ele><time>2026-03-30T10:34:28Z</time></trkpt><trkpt lat="45.99714735819934" lon="12.727168767764518"><ele>46.0</ele><time>2026-03-30T10:34:29Z</time></trkpt><trkpt lat="45.99703893893925" lon="12.72706775366954"><ele>46.0</ele><time>2026-03-30T10:34:30Z</time></trkpt><trkpt lat="45.99693807309274" lon="12.726951057187764"><ele>46.0</ele><time>2026-03-30T10:34:31Z</time></trkpt><trkpt lat="45.99682934339634" lon="12.726852603564128"><ele>46.0</ele><time>2026-03-30T10:34:32Z</time></trkpt><trkpt lat="45.996721144794364" lon="12.72675463057623"><ele>46.0</ele><time>2026-03-30T10:34:33Z</time></trkpt><trkpt lat="45.99661411364005" lon="12.726657714953776"><ele>46.0</ele><time>2026-03-30T10:34:34Z</time></trkpt><trkpt lat="45.99650784955778" lon="12.726561493340121"><ele>46.0</ele><time>2026-03-30T10:34:35Z</time></trkpt><trkpt lat="45.99640192230782" lon="12.726467284558186"><ele>45.75</ele><time>2026-03-30T10:34:36Z</time></trkpt><trkpt lat="45.99629607415107" lon="12.72637289578657"><ele>45.5</ele><time>2026-03-30T10:34:37Z</time></trkpt><trkpt lat="45.99618590461778" lon="12.72627465343256"><ele>45.25</ele><time>2026-03-30T10:34:38Z</time></trkpt><trkpt lat="45.99607233006055" lon="12.726173374668946"><ele>45.0</ele><time>2026-03-30T10:34:39Z</time></trkpt><trkpt lat="45.99595937075053" lon="12.726071682831588"><ele>44.5</ele><time>2026-03-30T10:34:40Z</time></trkpt><trkpt lat="45.99583534696007" lon="12.725985935483568"><ele>44.0</ele><time>2026-03-30T10:34:41Z</time></trkpt><trkpt lat="45.99572094116861" lon="12.72587665019882"><ele>43.5</ele><time>2026-03-30T10:34:42Z</time></trkpt><trkpt lat="45.99560756416559" lon="12.725765717308105"><ele>43.0</ele><time>2026-03-30T10:34:43Z</time></trkpt><trkpt lat="45.99549340569364" lon="12.725653857205966"><ele>43.0</ele><time>2026-03-30T10:34:44Z</time></trkpt><trkpt lat="45.99537883829698" lon="12.725542379809584"><ele>43.0</ele><time>2026-03-30T10:34:45Z</time></trkpt><trkpt lat="45.995263178557785" lon="12.725434479896029"><ele>43.0</ele><time>2026-03-30T10:34:46Z</time></trkpt><trkpt lat="45.99514867921119" lon="12.725324736774397"><ele>43.0</ele><time>2026-03-30T10:34:47Z</time></trkpt><trkpt lat="45.995035262219936" lon="12.72521498067682"><ele>42.5</ele><time>2026-03-30T10:34:48Z</time></trkpt><trkpt lat="45.99493008626291" lon="12.725113338814896"><ele>42.0</ele><time>2026-03-30T10:34:49Z</time></trkpt><trkpt lat="45.99482678891599" lon="12.725013522169684"><ele>41.5</ele><time>2026-03-30T10:34:50Z</time></trkpt><trkpt lat="45.994720033505764" lon="12.724907801657253"><ele>41.0</ele><time>2026-03-30T10:34:51Z</time></trkpt><trkpt lat="45.99461520723531" lon="12.7248002276401"><ele>41.0</ele><time>2026-03-30T10:34:52Z</time></trkpt><trkpt lat="45.99451283195164" lon="12.724681900606877"><ele>41.0</ele><time>2026-03-30T10:34:53Z</time></trkpt><trkpt lat="45.99442898710508" lon="12.724531422083137"><ele>41.0</ele><time>2026-03-30T10:34:54Z</time></trkpt><trkpt lat="45.99432694119318" lon="12.72440956513926"><ele>41.0</ele><time>2026-03-30T10:34:55Z</time></trkpt><trkpt lat="45.99424967210489" lon="12.724255018861506"><ele>41.0</ele><time>2026-03-30T10:34:56Z</time></trkpt><trkpt lat="45.99417919711396" lon="12.724096086385298"><ele>41.0</ele><time>2026-03-30T10:34:57Z</time></trkpt><trkpt lat="45.99412877144549" lon="12.723923933918448"><ele>41.0</ele><time>2026-03-30T10:34:58Z</time></trkpt><trkpt lat="45.99408409152617" lon="12.723747777524414"><ele>41.0</ele><time>2026-03-30T10:34:59Z</time></trkpt><trkpt lat="45.99404200151541" lon="12.723571170161575"><ele>41.5</ele><time>2026-03-30T10:35:00Z</time></trkpt><trkpt lat="45.99400000667759" lon="12.723396069336431"><ele>42.0</ele><time>2026-03-30T10:35:01Z</time></trkpt><trkpt lat="45.993964651008596" lon="12.723229087297206"><ele>42.5</ele><time>2026-03-30T10:35:02Z</time></trkpt><trkpt lat="45.99393234498089" lon="12.723071809808403"><ele>43.0</ele><time>2026-03-30T10:35:03Z</time></trkpt><trkpt lat="45.99390417173707" lon="12.722921558116507"><ele>43.0</ele><time>2026-03-30T10:35:04Z</time></trkpt><trkpt lat="45.99387326044348" lon="12.722759504839402"><ele>43.0</ele><time>2026-03-30T10:35:05Z</time></trkpt><trkpt lat="45.993836055879605" lon="12.722589983501713"><ele>43.0</ele><time>2026-03-30T10:35:06Z</time></trkpt><trkpt lat="45.99379675333468" lon="12.722419711288051"><ele>43.0</ele><time>2026-03-30T10:35:07Z</time></trkpt><trkpt lat="45.99375263236869" lon="12.72224754760403"><ele>43.25</ele><time>2026-03-30T10:35:08Z</time></trkpt><trkpt lat="45.99370655552325" lon="12.722077488497291"><ele>43.5</ele><time>2026-03-30T10:35:09Z</time></trkpt><trkpt lat="45.9936616539136" lon="12.721904218813458"><ele>43.75</ele><time>2026-03-30T10:35:10Z</time></trkpt><trkpt lat="45.99361751649782" lon="12.721734053314188"><ele>44.0</ele><time>2026-03-30T10:35:11Z</time></trkpt><trkpt lat="45.99356899971369" lon="12.721565572765705"><ele>44.0</ele><time>2026-03-30T10:35:12Z</time></trkpt><trkpt lat="45.99352234719861" lon="12.721397397176164"><ele>44.0</ele><time>2026-03-30T10:35:13Z</time></trkpt><trkpt lat="45.993476010980146" lon="12.721227962606203"><ele>44.0</ele><time>2026-03-30T10:35:14Z</time></trkpt><trkpt lat="45.99342939756729" lon="12.721059102715785"><ele>44.0</ele><time>2026-03-30T10:35:15Z</time></trkpt><trkpt lat="45.9933833490181" lon="12.720889778882635"><ele>44.0</ele><time>2026-03-30T10:35:16Z</time></trkpt><trkpt lat="45.993336316890144" lon="12.720719587109357"><ele>44.0</ele><time>2026-03-30T10:35:17Z</time></trkpt><trkpt lat="45.993286205988014" lon="12.720546701806889"><ele>44.0</ele><time>2026-03-30T10:35:18Z</time></trkpt><trkpt lat="45.99323641068216" lon="12.72037373610691"><ele>44.0</ele><time>2026-03-30T10:35:19Z</time></trkpt><trkpt lat="45.993189503183046" lon="12.720199593476456"><ele>44.0</ele><time>2026-03-30T10:35:20Z</time></trkpt><trkpt lat="45.99314393606252" lon="12.720025022500298"><ele>44.0</ele><time>2026-03-30T10:35:21Z</time></trkpt><trkpt lat="45.99309614766492" lon="12.71985177889686"><ele>44.0</ele><time>2026-03-30T10:35:22Z</time></trkpt><trkpt lat="45.99305018274748" lon="12.719677941662038"><ele>44.0</ele><time>2026-03-30T10:35:23Z</time></trkpt><trkpt lat="45.993004127156354" lon="12.719505307745509"><ele>44.25</ele><time>2026-03-30T10:35:24Z</time></trkpt><trkpt lat="45.992958346932205" lon="12.719334204679424"><ele>44.5</ele><time>2026-03-30T10:35:25Z</time></trkpt><trkpt lat="45.99291156198201" lon="12.71916729108137"><ele>44.75</ele><time>2026-03-30T10:35:26Z</time></trkpt><trkpt lat="45.992865008985994" lon="12.719005210735762"><ele>45.0</ele><time>2026-03-30T10:35:27Z</time></trkpt><trkpt lat="45.992820360025725" lon="12.718854411505232"><ele>45.0</ele><time>2026-03-30T10:35:28Z</time></trkpt><trkpt lat="45.99277317391355" lon="12.718693622682839"><ele>45.0</ele><time>2026-03-30T10:35:29Z</time></trkpt><trkpt lat="45.992725967402116" lon="12.718530514610626"><ele>45.0</ele><time>2026-03-30T10:35:30Z</time></trkpt><trkpt lat="45.992678577648405" lon="12.718362778105558"><ele>45.0</ele><time>2026-03-30T10:35:31Z</time></trkpt><trkpt lat="45.99263388738089" lon="12.71819198637837"><ele>45.0</ele><time>2026-03-30T10:35:32Z</time></trkpt><trkpt lat="45.99259174939808" lon="12.71803048003919"><ele>45.0</ele><time>2026-03-30T10:35:33Z</time></trkpt><trkpt lat="45.99254857103188" lon="12.717877324136737"><ele>45.0</ele><time>2026-03-30T10:35:34Z</time></trkpt><trkpt lat="45.992502937854695" lon="12.717724725521101"><ele>45.0</ele><time>2026-03-30T10:35:35Z</time></trkpt><trkpt lat="45.99245688456498" lon="12.7175711044926"><ele>44.5</ele><time>2026-03-30T10:35:36Z</time></trkpt><trkpt lat="45.99242854465979" lon="12.71740580548008"><ele>44.0</ele><time>2026-03-30T10:35:37Z</time></trkpt><trkpt lat="45.992368895532" lon="12.717254669731284"><ele>43.5</ele><time>2026-03-30T10:35:38Z</time></trkpt><trkpt lat="45.992329150430905" lon="12.717094834360529"><ele>43.0</ele><time>2026-03-30T10:35:39.001Z</time></trkpt><trkpt lat="45.992282812174636" lon="12.716934779792615"><ele>43.25</ele><time>2026-03-30T10:35:40.001Z</time></trkpt><trkpt lat="45.992238523110785" lon="12.716773866912986"><ele>43.5</ele><time>2026-03-30T10:35:41.001Z</time></trkpt><trkpt lat="45.9921929219491" lon="12.71661324343285"><ele>43.75</ele><time>2026-03-30T10:35:42.001Z</time></trkpt><trkpt lat="45.99215082435073" lon="12.716453117500848"><ele>44.0</ele><time>2026-03-30T10:35:43.001Z</time></trkpt><trkpt lat="45.99210619126112" lon="12.716296332765031"><ele>44.0</ele><time>2026-03-30T10:35:44.001Z</time></trkpt><trkpt lat="45.992062737407174" lon="12.71614369961491"><ele>44.0</ele><time>2026-03-30T10:35:45.001Z</time></trkpt><trkpt lat="45.99203205183837" lon="12.715978236854216"><ele>44.0</ele><time>2026-03-30T10:35:46.001Z</time></trkpt><trkpt lat="45.99198640415365" lon="12.71581277711557"><ele>44.0</ele><time>2026-03-30T10:35:47.001Z</time></trkpt><trkpt lat="45.99194151593693" lon="12.715647971967863"><ele>44.5</ele><time>2026-03-30T10:35:48.001Z</time></trkpt><trkpt lat="45.9918989509071" lon="12.715487963391647"><ele>45.0</ele><time>2026-03-30T10:35:49.001Z</time></trkpt><trkpt lat="45.991855146016015" lon="12.715323115263898"><ele>45.5</ele><time>2026-03-30T10:35:50.001Z</time></trkpt><trkpt lat="45.99181066045478" lon="12.715160894341865"><ele>46.0</ele><time>2026-03-30T10:35:51.001Z</time></trkpt><trkpt lat="45.99176557049434" lon="12.714996469499136"><ele>46.0</ele><time>2026-03-30T10:35:52.001Z</time></trkpt><trkpt lat="45.99171972235976" lon="12.714829279792891"><ele>46.0</ele><time>2026-03-30T10:35:53.001Z</time></trkpt><trkpt lat="45.99167273258257" lon="12.714657927033361"><ele>46.0</ele><time>2026-03-30T10:35:54.001Z</time></trkpt><trkpt lat="45.99162338383432" lon="12.714477971979074"><ele>46.0</ele><time>2026-03-30T10:35:55.001Z</time></trkpt><trkpt lat="45.991571851267544" lon="12.714290051514268"><ele>45.333333333333336</ele><time>2026-03-30T10:35:56.001Z</time></trkpt><trkpt lat="45.99151860595375" lon="12.714094981656618"><ele>44.666666666666664</ele><time>2026-03-30T10:35:57.001Z</time></trkpt><trkpt lat="45.99146381320089" lon="12.713895039049092"><ele>44.0</ele><time>2026-03-30T10:35:58.001Z</time></trkpt><trkpt lat="45.991392226829" lon="12.713697325763443"><ele>44.0</ele><time>2026-03-30T10:35:59.001Z</time></trkpt><trkpt lat="45.99134191901613" lon="12.713504894395978"><ele>44.0</ele><time>2026-03-30T10:36:00.001Z</time></trkpt><trkpt lat="45.99130626807416" lon="12.713320338882886"><ele>44.0</ele><time>2026-03-30T10:36:01.001Z</time></trkpt><trkpt lat="45.991258735957466" lon="12.713149428425789"><ele>44.0</ele><time>2026-03-30T10:36:02.001Z</time></trkpt><trkpt lat="45.991211917329416" lon="12.712983888864109"><ele>44.0</ele><time>2026-03-30T10:36:03.001Z</time></trkpt><trkpt lat="45.991167481304466" lon="12.712826773677582"><ele>44.0</ele><time>2026-03-30T10:36:04.001Z</time></trkpt><trkpt lat="45.9911143565912" lon="12.712691678709405"><ele>44.0</ele><time>2026-03-30T10:36:05.001Z</time></trkpt><trkpt lat="45.991078626626695" lon="12.712548977037779"><ele>44.0</ele><time>2026-03-30T10:36:06.001Z</time></trkpt><trkpt lat="45.99104405147189" lon="12.71240433188518"><ele>44.0</ele><time>2026-03-30T10:36:07.001Z</time></trkpt><trkpt lat="45.99101725266485" lon="12.71225045820847"><ele>44.0</ele><time>2026-03-30T10:36:08.001Z</time></trkpt><trkpt lat="45.9909959066755" lon="12.712087394078345"><ele>44.0</ele><time>2026-03-30T10:36:09.001Z</time></trkpt><trkpt lat="45.99097520399184" lon="12.71191752636325"><ele>44.0</ele><time>2026-03-30T10:36:10.001Z</time></trkpt><trkpt lat="45.99094439339627" lon="12.711748829034523"><ele>44.0</ele><time>2026-03-30T10:36:11.001Z</time></trkpt><trkpt lat="45.99093300633046" lon="12.71157658265219"><ele>44.25</ele><time>2026-03-30T10:36:12.001Z</time></trkpt><trkpt lat="45.99088904285352" lon="12.711416248692249"><ele>44.5</ele><time>2026-03-30T10:36:13.001Z</time></trkpt><trkpt lat="45.99086009292249" lon="12.71125833829436"><ele>44.75</ele><time>2026-03-30T10:36:14.001Z</time></trkpt><trkpt lat="45.99082362009447" lon="12.711100514820217"><ele>45.0</ele><time>2026-03-30T10:36:15.001Z</time></trkpt><trkpt lat="45.990781648334476" lon="12.7109459966329"><ele>44.6</ele><time>2026-03-30T10:36:16.001Z</time></trkpt><trkpt lat="45.99074968958257" lon="12.710778265018362"><ele>44.2</ele><time>2026-03-30T10:36:17.001Z</time></trkpt><trkpt lat="45.990682486772585" lon="12.710643649633756"><ele>43.8</ele><time>2026-03-30T10:36:18.001Z</time></trkpt><trkpt lat="45.99063569799707" lon="12.710511595665285"><ele>43.4</ele><time>2026-03-30T10:36:19.001Z</time></trkpt><trkpt lat="45.99060358179964" lon="12.710376093200008"><ele>43.0</ele><time>2026-03-30T10:36:20.001Z</time></trkpt><trkpt lat="45.990555125284914" lon="12.710259223012052"><ele>43.5</ele><time>2026-03-30T10:36:21.001Z</time></trkpt><trkpt lat="45.99050257882417" lon="12.71014927952105"><ele>44.0</ele><time>2026-03-30T10:36:22.001Z</time></trkpt><trkpt lat="45.99045241607231" lon="12.710076899689744"><ele>44.5</ele><time>2026-03-30T10:36:23.001Z</time></trkpt><trkpt lat="45.99042591668081" lon="12.709967536863545"><ele>45.0</ele><time>2026-03-30T10:36:25.001Z</time></trkpt><trkpt lat="45.99049171405563" lon="12.709870287813185"><ele>45.5</ele><time>2026-03-30T10:36:26.001Z</time></trkpt><trkpt lat="45.9905532376004" lon="12.709830140485757"><ele>46.0</ele><time>2026-03-30T10:36:27.001Z</time></trkpt><trkpt lat="45.99063151494031" lon="12.70980117928098"><ele>46.0</ele><time>2026-03-30T10:36:28.001Z</time></trkpt><trkpt lat="45.99072747926486" lon="12.709780848810382"><ele>46.0</ele><time>2026-03-30T10:36:29.001Z</time></trkpt><trkpt lat="45.99080859098287" lon="12.709725975410556"><ele>46.0</ele><time>2026-03-30T10:36:30.001Z</time></trkpt><trkpt lat="45.99092108129035" lon="12.709696901601465"><ele>46.0</ele><time>2026-03-30T10:36:31.001Z</time></trkpt><trkpt lat="45.99103125626926" lon="12.709666638323576"><ele>46.0</ele><time>2026-03-30T10:36:32.001Z</time></trkpt><trkpt lat="45.99114320003979" lon="12.70964311012932"><ele>46.0</ele><time>2026-03-30T10:36:33Z</time></trkpt><trkpt lat="45.99125930943532" lon="12.709633198120144"><ele>46.0</ele><time>2026-03-30T10:36:34Z</time></trkpt><trkpt lat="45.99137083584899" lon="12.709626454985502"><ele>46.0</ele><time>2026-03-30T10:36:35Z</time></trkpt><trkpt lat="45.99147705178282" lon="12.709605095491797"><ele>46.0</ele><time>2026-03-30T10:36:36Z</time></trkpt><trkpt lat="45.99157943448289" lon="12.709578061032463"><ele>46.0</ele><time>2026-03-30T10:36:37Z</time></trkpt><trkpt lat="45.991673286453555" lon="12.709535680827676"><ele>46.0</ele><time>2026-03-30T10:36:38Z</time></trkpt><trkpt lat="45.991766826795484" lon="12.709485533435384"><ele>46.0</ele><time>2026-03-30T10:36:39Z</time></trkpt><trkpt lat="45.99186342631441" lon="12.709442283635811"><ele>46.0</ele><time>2026-03-30T10:36:40Z</time></trkpt><trkpt lat="45.99194774281318" lon="12.709395517159884"><ele>46.0</ele><time>2026-03-30T10:36:41Z</time></trkpt><trkpt lat="45.992032422280296" lon="12.709353071931526"><ele>46.0</ele><time>2026-03-30T10:36:42Z</time></trkpt><trkpt lat="45.99210537167716" lon="12.70929521641126"><ele>46.0</ele><time>2026-03-30T10:36:43Z</time></trkpt><trkpt lat="45.99219373502198" lon="12.709217947093562"><ele>46.0</ele><time>2026-03-30T10:36:44Z</time></trkpt><trkpt lat="45.99226855507086" lon="12.709141545162758"><ele>46.0</ele><time>2026-03-30T10:36:45Z</time></trkpt><trkpt lat="45.9923338150796" lon="12.709067523748653"><ele>46.0</ele><time>2026-03-30T10:36:46Z</time></trkpt><trkpt lat="45.99239393117191" lon="12.70903156439024"><ele>46.0</ele><time>2026-03-30T10:36:47Z</time></trkpt><trkpt lat="45.99245439305041" lon="12.70898371018089"><ele>46.0</ele><time>2026-03-30T10:36:49Z</time></trkpt><trkpt lat="45.99237989022126" lon="12.708674471547909"><ele>46.0</ele><time>2026-03-30T10:36:59Z</time></trkpt><trkpt lat="45.992300297426105" lon="12.708579543581294"><ele>46.0</ele><time>2026-03-30T10:37:00Z</time></trkpt><trkpt lat="45.99220574548648" lon="12.708478357588913"><ele>46.0</ele><time>2026-03-30T10:37:01Z</time></trkpt><trkpt lat="45.992087132570745" lon="12.708362275878732"><ele>46.0</ele><time>2026-03-30T10:37:02Z</time></trkpt><trkpt lat="45.991968838368805" lon="12.708255755632697"><ele>46.0</ele><time>2026-03-30T10:37:03Z</time></trkpt><trkpt lat="45.991865662913966" lon="12.70816664741505"><ele>46.0</ele><time>2026-03-30T10:37:04Z</time></trkpt><trkpt lat="45.99176806988992" lon="12.708081863753623"><ele>46.0</ele><time>2026-03-30T10:37:05Z</time></trkpt><trkpt lat="45.99167439367973" lon="12.707998560854062"><ele>46.0</ele><time>2026-03-30T10:37:06Z</time></trkpt><trkpt lat="45.991589112715914" lon="12.707920698115252"><ele>46.0</ele><time>2026-03-30T10:37:07Z</time></trkpt><trkpt lat="45.991511960927205" lon="12.70784119908092"><ele>46.0</ele><time>2026-03-30T10:37:08Z</time></trkpt><trkpt lat="45.991440862997464" lon="12.707763818413754"><ele>46.0</ele><time>2026-03-30T10:37:09Z</time></trkpt><trkpt lat="45.99136714791139" lon="12.707688438543283"><ele>46.0</ele><time>2026-03-30T10:37:10Z</time></trkpt><trkpt lat="45.991295755862886" lon="12.70761587270372"><ele>46.0</ele><time>2026-03-30T10:37:11Z</time></trkpt><trkpt lat="45.99121651192059" lon="12.707560962682704"><ele>46.0</ele><time>2026-03-30T10:37:12Z</time></trkpt><trkpt lat="45.991139717607375" lon="12.707508404949392"><ele>46.0</ele><time>2026-03-30T10:37:13Z</time></trkpt><trkpt lat="45.991063538367186" lon="12.70746102505583"><ele>45.833333333333336</ele><time>2026-03-30T10:37:14Z</time></trkpt><trkpt lat="45.99098153290773" lon="12.707417472541172"><ele>45.66666666666667</ele><time>2026-03-30T10:37:15Z</time></trkpt><trkpt lat="45.990900918028494" lon="12.70737777239202"><ele>45.5</ele><time>2026-03-30T10:37:16Z</time></trkpt><trkpt lat="45.99081824036784" lon="12.707339203116323"><ele>45.333333333333336</ele><time>2026-03-30T10:37:17Z</time></trkpt><trkpt lat="45.9907322327853" lon="12.707299758462028"><ele>45.166666666666664</ele><time>2026-03-30T10:37:18Z</time></trkpt><trkpt lat="45.9906455619953" lon="12.707262920072706"><ele>45.0</ele><time>2026-03-30T10:37:19Z</time></trkpt><trkpt lat="45.9905522239539" lon="12.70723762148934"><ele>45.0</ele><time>2026-03-30T10:37:20Z</time></trkpt><trkpt lat="45.990454758760826" lon="12.707217028562996"><ele>45.0</ele><time>2026-03-30T10:37:21Z</time></trkpt><trkpt lat="45.99034565979753" lon="12.707197315171996"><ele>45.0</ele><time>2026-03-30T10:37:22Z</time></trkpt><trkpt lat="45.99022588740037" lon="12.70718104850192"><ele>45.0</ele><time>2026-03-30T10:37:23Z</time></trkpt><trkpt lat="45.990102438918285" lon="12.707168467286985"><ele>44.8</ele><time>2026-03-30T10:37:24Z</time></trkpt><trkpt lat="45.98999005774087" lon="12.707159779350695"><ele>44.6</ele><time>2026-03-30T10:37:25Z</time></trkpt><trkpt lat="45.98988296349192" lon="12.707152077368699"><ele>44.400000000000006</ele><time>2026-03-30T10:37:26Z</time></trkpt><trkpt lat="45.98978639305451" lon="12.707148635484092"><ele>44.2</ele><time>2026-03-30T10:37:27Z</time></trkpt><trkpt lat="45.98969731790746" lon="12.707154706294855"><ele>44.0</ele><time>2026-03-30T10:37:28Z</time></trkpt><trkpt lat="45.98960853629799" lon="12.70716825931767"><ele>44.0</ele><time>2026-03-30T10:37:29Z</time></trkpt><trkpt lat="45.989524656155695" lon="12.70718630222726"><ele>44.0</ele><time>2026-03-30T10:37:30Z</time></trkpt><trkpt lat="45.9894464860822" lon="12.707206594519295"><ele>44.0</ele><time>2026-03-30T10:37:31Z</time></trkpt><trkpt lat="45.98937380418092" lon="12.707227081494318"><ele>44.0</ele><time>2026-03-30T10:37:32Z</time></trkpt><trkpt lat="45.989307302659554" lon="12.707247500773047"><ele>44.0</ele><time>2026-03-30T10:37:33Z</time></trkpt><trkpt lat="45.98923667033932" lon="12.707278259438024"><ele>44.0</ele><time>2026-03-30T10:37:34Z</time></trkpt><trkpt lat="45.989169193783056" lon="12.707309667616236"><ele>44.0</ele><time>2026-03-30T10:37:35Z</time></trkpt><trkpt lat="45.98909818995009" lon="12.707349875898975"><ele>44.0</ele><time>2026-03-30T10:37:36Z</time></trkpt><trkpt lat="45.98902767225037" lon="12.707406043670984"><ele>44.0</ele><time>2026-03-30T10:37:37.001Z</time></trkpt><trkpt lat="45.98894794602281" lon="12.707429601333281"><ele>44.0</ele><time>2026-03-30T10:37:38.001Z</time></trkpt><trkpt lat="45.988863314192976" lon="12.707439741075605"><ele>44.0</ele><time>2026-03-30T10:37:39.001Z</time></trkpt><trkpt lat="45.98877903047349" lon="12.707426674376638"><ele>44.0</ele><time>2026-03-30T10:37:40.001Z</time></trkpt><trkpt lat="45.9887040523511" lon="12.707405713545814"><ele>44.0</ele><time>2026-03-30T10:37:41.001Z</time></trkpt><trkpt lat="45.98864930915006" lon="12.707339639230073"><ele>44.0</ele><time>2026-03-30T10:37:42.001Z</time></trkpt><trkpt lat="45.9885963893883" lon="12.70727237659992"><ele>44.0</ele><time>2026-03-30T10:37:43.001Z</time></trkpt><trkpt lat="45.98854461531311" lon="12.707206573141358"><ele>44.0</ele><time>2026-03-30T10:37:44.001Z</time></trkpt><trkpt lat="45.98847611417004" lon="12.707115655832137"><ele>44.0</ele><time>2026-03-30T10:37:46.001Z</time></trkpt><trkpt lat="45.988423569994254" lon="12.707055703372117"><ele>44.0</ele><time>2026-03-30T10:37:48.001Z</time></trkpt><trkpt lat="45.98837695800725" lon="12.70699409803092"><ele>44.0</ele><time>2026-03-30T10:37:50.001Z</time></trkpt><trkpt lat="45.98831394560037" lon="12.706916745938136"><ele>43.85714285714286</ele><time>2026-03-30T10:37:53.001Z</time></trkpt><trkpt lat="45.98826499583129" lon="12.70685034596797"><ele>43.714285714285715</ele><time>2026-03-30T10:37:56.001Z</time></trkpt><trkpt lat="45.988216795666325" lon="12.706791812460702"><ele>43.57142857142857</ele><time>2026-03-30T10:37:58.001Z</time></trkpt><trkpt lat="45.988169488855135" lon="12.706724258830377"><ele>43.42857142857143</ele><time>2026-03-30T10:38:00.001Z</time></trkpt><trkpt lat="45.98811517321297" lon="12.706649517291002"><ele>43.285714285714285</ele><time>2026-03-30T10:38:02.001Z</time></trkpt><trkpt lat="45.98803964266366" lon="12.706567938097574"><ele>43.142857142857146</ele><time>2026-03-30T10:38:04.001Z</time></trkpt><trkpt lat="45.98798587356539" lon="12.706497954933344"><ele>43.0</ele><time>2026-03-30T10:38:06.001Z</time></trkpt><trkpt lat="45.98791623505743" lon="12.706408641860863"><ele>43.0</ele><time>2026-03-30T10:38:08.001Z</time></trkpt><trkpt lat="45.9878327030819" lon="12.706302095934479"><ele>43.0</ele><time>2026-03-30T10:38:10.001Z</time></trkpt><trkpt lat="45.98778155646099" lon="12.706206612724774"><ele>43.0</ele><time>2026-03-30T10:38:12.001Z</time></trkpt><trkpt lat="45.98773796339801" lon="12.706133748034754"><ele>43.0</ele><time>2026-03-30T10:38:15.001Z</time></trkpt><trkpt lat="45.98787581405301" lon="12.705964784945406"><ele>43.0</ele><time>2026-03-30T10:38:17.001Z</time></trkpt><trkpt lat="45.98794588382787" lon="12.705907186904518"><ele>43.2</ele><time>2026-03-30T10:38:18.001Z</time></trkpt><trkpt lat="45.988018836433284" lon="12.705847590316289"><ele>43.4</ele><time>2026-03-30T10:38:19.001Z</time></trkpt><trkpt lat="45.988077294274746" lon="12.70578296857204"><ele>43.6</ele><time>2026-03-30T10:38:20.001Z</time></trkpt><trkpt lat="45.988146971005236" lon="12.705599977408086"><ele>43.800000000000004</ele><time>2026-03-30T10:38:22.001Z</time></trkpt><trkpt lat="45.98809555284401" lon="12.705472962525741"><ele>44.0</ele><time>2026-03-30T10:38:23.001Z</time></trkpt><trkpt lat="45.988072128365445" lon="12.70534331296186"><ele>43.400000000000006</ele><time>2026-03-30T10:38:24.001Z</time></trkpt><trkpt lat="45.988052476486864" lon="12.705206036819733"><ele>42.8</ele><time>2026-03-30T10:38:25.001Z</time></trkpt><trkpt lat="45.98803662648147" lon="12.70508542913519"><ele>42.2</ele><time>2026-03-30T10:38:26.001Z</time></trkpt><trkpt lat="45.988009742674684" lon="12.704969989884196"><ele>41.599999999999994</ele><time>2026-03-30T10:38:27.001Z</time></trkpt><trkpt lat="45.98801830804884" lon="12.704833075921574"><ele>41.0</ele><time>2026-03-30T10:38:28.001Z</time></trkpt><trkpt lat="45.98801354673063" lon="12.704679841759488"><ele>41.0</ele><time>2026-03-30T10:38:29.001Z</time></trkpt><trkpt lat="45.98801290262387" lon="12.704534410544628"><ele>41.0</ele><time>2026-03-30T10:38:30.001Z</time></trkpt><trkpt lat="45.987978579493074" lon="12.704414834425867"><ele>41.0</ele><time>2026-03-30T10:38:31.001Z</time></trkpt><trkpt lat="45.98792394285072" lon="12.704324738425514"><ele>41.0</ele><time>2026-03-30T10:38:32.001Z</time></trkpt><trkpt lat="45.987850627270774" lon="12.70424494913141"><ele>41.0</ele><time>2026-03-30T10:38:33.001Z</time></trkpt><trkpt lat="45.98777890699233" lon="12.704158584205155"><ele>40.83333333333333</ele><time>2026-03-30T10:38:34.001Z</time></trkpt><trkpt lat="45.987720969381265" lon="12.704078360016302"><ele>40.666666666666664</ele><time>2026-03-30T10:38:35.001Z</time></trkpt><trkpt lat="45.98768579390304" lon="12.703994868209133"><ele>40.5</ele><time>2026-03-30T10:38:36.001Z</time></trkpt><trkpt lat="45.98765142891519" lon="12.703901421861433"><ele>40.333333333333336</ele><time>2026-03-30T10:38:37.001Z</time></trkpt><trkpt lat="45.987631270379815" lon="12.703809019567533"><ele>40.16666666666667</ele><time>2026-03-30T10:38:38.001Z</time></trkpt><trkpt lat="45.98759646911914" lon="12.70364280707682"><ele>40.0</ele><time>2026-03-30T10:38:40Z</time></trkpt><trkpt lat="45.987570583738055" lon="12.703499255659532"><ele>40.333333333333336</ele><time>2026-03-30T10:38:42Z</time></trkpt><trkpt lat="45.98754721550857" lon="12.703393259401933"><ele>40.66666666666667</ele><time>2026-03-30T10:38:43Z</time></trkpt><trkpt lat="45.98753289697803" lon="12.703295927171618"><ele>41.0</ele><time>2026-03-30T10:38:44Z</time></trkpt><trkpt lat="45.98750945641387" lon="12.703138364715208"><ele>41.333333333333336</ele><time>2026-03-30T10:38:46Z</time></trkpt><trkpt lat="45.98749229849764" lon="12.703002423230757"><ele>41.666666666666664</ele><time>2026-03-30T10:38:48Z</time></trkpt><trkpt lat="45.98746000462076" lon="12.702904249412065"><ele>42.0</ele><time>2026-03-30T10:38:50Z</time></trkpt><trkpt lat="45.98762791335344" lon="12.702799653119053"><ele>42.25</ele><time>2026-03-30T10:38:54Z</time></trkpt><trkpt lat="45.987739815721746" lon="12.702736476723809"><ele>42.5</ele><time>2026-03-30T10:38:55Z</time></trkpt><trkpt lat="45.98785801339614" lon="12.702674596177213"><ele>42.75</ele><time>2026-03-30T10:38:56Z</time></trkpt><trkpt lat="45.988001402772774" lon="12.702622477449957"><ele>43.0</ele><time>2026-03-30T10:38:57Z</time></trkpt><trkpt lat="45.98817135997022" lon="12.702569861845992"><ele>43.0</ele><time>2026-03-30T10:38:58Z</time></trkpt><trkpt lat="45.98832458523496" lon="12.70251526024958"><ele>43.0</ele><time>2026-03-30T10:38:59Z</time></trkpt><trkpt lat="45.98847072606453" lon="12.702463800389165"><ele>43.0</ele><time>2026-03-30T10:39:00Z</time></trkpt><trkpt lat="45.98860433609431" lon="12.702413869370403"><ele>43.0</ele><time>2026-03-30T10:39:01Z</time></trkpt><trkpt lat="45.988728169276314" lon="12.702367640603471"><ele>43.0</ele><time>2026-03-30T10:39:02Z</time></trkpt><trkpt lat="45.98884288337111" lon="12.70232804605667"><ele>43.0</ele><time>2026-03-30T10:39:03Z</time></trkpt><trkpt lat="45.9889534847195" lon="12.702300472233297"><ele>43.0</ele><time>2026-03-30T10:39:04Z</time></trkpt><trkpt lat="45.98907241481584" lon="12.70228860850934"><ele>43.0</ele><time>2026-03-30T10:39:05Z</time></trkpt><trkpt lat="45.9892230497319" lon="12.702274575596562"><ele>42.66666666666667</ele><time>2026-03-30T10:39:06Z</time></trkpt><trkpt lat="45.98936990345062" lon="12.702232776240603"><ele>42.333333333333336</ele><time>2026-03-30T10:39:07Z</time></trkpt><trkpt lat="45.98952867426287" lon="12.702179891452237"><ele>42.0</ele><time>2026-03-30T10:39:08Z</time></trkpt><trkpt lat="45.98967557227608" lon="12.702127679422468"><ele>42.0</ele><time>2026-03-30T10:39:09Z</time></trkpt><trkpt lat="45.989819492102" lon="12.702074447829306"><ele>42.0</ele><time>2026-03-30T10:39:10Z</time></trkpt><trkpt lat="45.98995970117796" lon="12.702022561680657"><ele>42.0</ele><time>2026-03-30T10:39:11Z</time></trkpt><trkpt lat="45.990087293822974" lon="12.701975767338066"><ele>42.0</ele><time>2026-03-30T10:39:12Z</time></trkpt><trkpt lat="45.99020534775657" lon="12.70193229681138"><ele>42.2</ele><time>2026-03-30T10:39:13Z</time></trkpt><trkpt lat="45.99031523038667" lon="12.701893359086576"><ele>42.400000000000006</ele><time>2026-03-30T10:39:14Z</time></trkpt><trkpt lat="45.990418354624836" lon="12.701851199034817"><ele>42.599999999999994</ele><time>2026-03-30T10:39:15Z</time></trkpt><trkpt lat="45.99051467127943" lon="12.701815114594579"><ele>42.8</ele><time>2026-03-30T10:39:16Z</time></trkpt><trkpt lat="45.99060438576448" lon="12.701788746995813"><ele>43.0</ele><time>2026-03-30T10:39:17Z</time></trkpt><trkpt lat="45.99068402252895" lon="12.701762087043946"><ele>43.0</ele><time>2026-03-30T10:39:18Z</time></trkpt><trkpt lat="45.990760097804035" lon="12.70173234493375"><ele>43.0</ele><time>2026-03-30T10:39:19Z</time></trkpt><trkpt lat="45.99086843577555" lon="12.701703860325305"><ele>43.0</ele><time>2026-03-30T10:39:21Z</time></trkpt><trkpt lat="45.990949458810405" lon="12.701633484694035"><ele>43.0</ele><time>2026-03-30T10:39:23Z</time></trkpt><trkpt lat="45.99101399711074" lon="12.701642709204268"><ele>43.0</ele><time>2026-03-30T10:39:26Z</time></trkpt><trkpt lat="45.99097257874197" lon="12.701412348188141"><ele>43.25</ele><time>2026-03-30T10:39:27Z</time></trkpt><trkpt lat="45.99090403409465" lon="12.701285906148454"><ele>43.5</ele><time>2026-03-30T10:39:28Z</time></trkpt><trkpt lat="45.990842883366945" lon="12.701118437565775"><ele>43.75</ele><time>2026-03-30T10:39:29Z</time></trkpt><trkpt lat="45.9907948667694" lon="12.700948485789166"><ele>44.0</ele><time>2026-03-30T10:39:30Z</time></trkpt><trkpt lat="45.99075657897599" lon="12.700748709203744"><ele>44.0</ele><time>2026-03-30T10:39:31Z</time></trkpt><trkpt lat="45.9907336413022" lon="12.700560125952542"><ele>44.0</ele><time>2026-03-30T10:39:32Z</time></trkpt><trkpt lat="45.9907107872227" lon="12.70034502347205"><ele>44.0</ele><time>2026-03-30T10:39:33Z</time></trkpt><trkpt lat="45.990688106169166" lon="12.700134395350794"><ele>44.0</ele><time>2026-03-30T10:39:34Z</time></trkpt><trkpt lat="45.99066706994433" lon="12.699934917779718"><ele>44.5</ele><time>2026-03-30T10:39:35Z</time></trkpt><trkpt lat="45.99064493056763" lon="12.699746206913112"><ele>45.0</ele><time>2026-03-30T10:39:36Z</time></trkpt><trkpt lat="45.99062973043218" lon="12.699556170753999"><ele>45.5</ele><time>2026-03-30T10:39:37Z</time></trkpt><trkpt lat="45.99056549637076" lon="12.699386737883499"><ele>46.0</ele><time>2026-03-30T10:39:38Z</time></trkpt><trkpt lat="45.990509390893116" lon="12.699215814793607"><ele>46.0</ele><time>2026-03-30T10:39:39Z</time></trkpt><trkpt lat="45.99045139832054" lon="12.699052596747737"><ele>46.0</ele><time>2026-03-30T10:39:40Z</time></trkpt><trkpt lat="45.9903956794811" lon="12.698894450178779"><ele>46.0</ele><time>2026-03-30T10:39:41Z</time></trkpt><trkpt lat="45.99034134716606" lon="12.698732278011244"><ele>46.0</ele><time>2026-03-30T10:39:42.001Z</time></trkpt><trkpt lat="45.99028453952038" lon="12.698568917859422"><ele>46.0</ele><time>2026-03-30T10:39:43.001Z</time></trkpt><trkpt lat="45.99025292869285" lon="12.698388186003552"><ele>46.0</ele><time>2026-03-30T10:39:44.001Z</time></trkpt><trkpt lat="45.9902064874072" lon="12.698210063811603"><ele>46.0</ele><time>2026-03-30T10:39:45.001Z</time></trkpt><trkpt lat="45.99015940024968" lon="12.698028097953227"><ele>46.0</ele><time>2026-03-30T10:39:46.001Z</time></trkpt><trkpt lat="45.990097754215896" lon="12.697852016783921"><ele>46.0</ele><time>2026-03-30T10:39:47.001Z</time></trkpt><trkpt lat="45.990051893886694" lon="12.697664332092506"><ele>46.0</ele><time>2026-03-30T10:39:48.001Z</time></trkpt><trkpt lat="45.99000889341787" lon="12.697471063996385"><ele>46.0</ele><time>2026-03-30T10:39:49.001Z</time></trkpt><trkpt lat="45.98999127012041" lon="12.697269506665561"><ele>46.0</ele><time>2026-03-30T10:39:50.001Z</time></trkpt><trkpt lat="45.989964322395664" lon="12.697070633820209"><ele>46.0</ele><time>2026-03-30T10:39:51.001Z</time></trkpt><trkpt lat="45.98992479657019" lon="12.696893981064024"><ele>46.0</ele><time>2026-03-30T10:39:52.001Z</time></trkpt><trkpt lat="45.989908650626845" lon="12.696718772157688"><ele>46.0</ele><time>2026-03-30T10:39:53.001Z</time></trkpt><trkpt lat="45.98988567740074" lon="12.69654592098544"><ele>46.0</ele><time>2026-03-30T10:39:54.001Z</time></trkpt><trkpt lat="45.989864327794606" lon="12.696360739736116"><ele>46.0</ele><time>2026-03-30T10:39:55.001Z</time></trkpt><trkpt lat="45.989840346656955" lon="12.696164817935374"><ele>46.0</ele><time>2026-03-30T10:39:56.001Z</time></trkpt><trkpt lat="45.98983346240962" lon="12.695959668445047"><ele>46.0</ele><time>2026-03-30T10:39:57.001Z</time></trkpt><trkpt lat="45.98979624633842" lon="12.69575864868984"><ele>46.0</ele><time>2026-03-30T10:39:58.001Z</time></trkpt><trkpt lat="45.98977907973192" lon="12.695575201322745"><ele>46.5</ele><time>2026-03-30T10:39:59.001Z</time></trkpt><trkpt lat="45.98975489548154" lon="12.695401069224928"><ele>47.0</ele><time>2026-03-30T10:40:00.001Z</time></trkpt><trkpt lat="45.98971314842513" lon="12.695230440307679"><ele>47.5</ele><time>2026-03-30T10:40:01.001Z</time></trkpt><trkpt lat="45.989651875709605" lon="12.695048514210825"><ele>48.0</ele><time>2026-03-30T10:40:02.001Z</time></trkpt><trkpt lat="45.9895742462536" lon="12.694841627978722"><ele>48.33333333333333</ele><time>2026-03-30T10:40:03.001Z</time></trkpt><trkpt lat="45.9894879452138" lon="12.694613883300423"><ele>48.666666666666664</ele><time>2026-03-30T10:40:04.001Z</time></trkpt><trkpt lat="45.989393711536934" lon="12.694366672962987"><ele>49.0</ele><time>2026-03-30T10:40:05.001Z</time></trkpt><trkpt lat="45.98928915185591" lon="12.694102714700234"><ele>48.33333333333333</ele><time>2026-03-30T10:40:06.001Z</time></trkpt><trkpt lat="45.989200154973084" lon="12.693814850528925"><ele>47.666666666666664</ele><time>2026-03-30T10:40:07.001Z</time></trkpt><trkpt lat="45.9890938952819" lon="12.693533779763312"><ele>47.0</ele><time>2026-03-30T10:40:08.001Z</time></trkpt><trkpt lat="45.98898292725131" lon="12.693252976652296"><ele>47.0</ele><time>2026-03-30T10:40:09.001Z</time></trkpt><trkpt lat="45.98885377063056" lon="12.692966718727183"><ele>47.0</ele><time>2026-03-30T10:40:10.001Z</time></trkpt><trkpt lat="45.988739701867296" lon="12.692666904688805"><ele>47.0</ele><time>2026-03-30T10:40:11.001Z</time></trkpt><trkpt lat="45.988628132130955" lon="12.69238426471963"><ele>47.0</ele><time>2026-03-30T10:40:12.001Z</time></trkpt><trkpt lat="45.98852059561833" lon="12.69211547988268"><ele>47.0</ele><time>2026-03-30T10:40:13.001Z</time></trkpt><trkpt lat="45.988410134037125" lon="12.691844391961643"><ele>47.0</ele><time>2026-03-30T10:40:14.001Z</time></trkpt><trkpt lat="45.98832009260608" lon="12.691572088835573"><ele>47.0</ele><time>2026-03-30T10:40:15.001Z</time></trkpt><trkpt lat="45.988221026501414" lon="12.691319000732783"><ele>47.0</ele><time>2026-03-30T10:40:16.001Z</time></trkpt><trkpt lat="45.98811920361658" lon="12.691057927281713"><ele>47.0</ele><time>2026-03-30T10:40:17.001Z</time></trkpt><trkpt lat="45.98801350954773" lon="12.690788744082178"><ele>47.0</ele><time>2026-03-30T10:40:18.001Z</time></trkpt><trkpt lat="45.98790676510223" lon="12.690519421994404"><ele>47.0</ele><time>2026-03-30T10:40:19.001Z</time></trkpt><trkpt lat="45.98779885852385" lon="12.690260820153354"><ele>47.33333333333333</ele><time>2026-03-30T10:40:20.001Z</time></trkpt><trkpt lat="45.987695714198374" lon="12.690022660476306"><ele>47.666666666666664</ele><time>2026-03-30T10:40:21.001Z</time></trkpt><trkpt lat="45.98758842275636" lon="12.689787628135992"><ele>48.0</ele><time>2026-03-30T10:40:22.001Z</time></trkpt><trkpt lat="45.98748166826827" lon="12.689556269531236"><ele>48.0</ele><time>2026-03-30T10:40:23.001Z</time></trkpt><trkpt lat="45.98737916622158" lon="12.689337309676716"><ele>48.0</ele><time>2026-03-30T10:40:24.001Z</time></trkpt><trkpt lat="45.98728890076776" lon="12.68914426767319"><ele>48.0</ele><time>2026-03-30T10:40:25.001Z</time></trkpt><trkpt lat="45.98720176907241" lon="12.688957586476551"><ele>48.0</ele><time>2026-03-30T10:40:26.001Z</time></trkpt><trkpt lat="45.987106218182085" lon="12.688787217226498"><ele>48.0</ele><time>2026-03-30T10:40:27.001Z</time></trkpt><trkpt lat="45.987014906197146" lon="12.688588905807594"><ele>48.0</ele><time>2026-03-30T10:40:28.001Z</time></trkpt><trkpt lat="45.986913288036824" lon="12.68839661462682"><ele>47.666666666666664</ele><time>2026-03-30T10:40:29.001Z</time></trkpt><trkpt lat="45.98680638101391" lon="12.688203074423994"><ele>47.33333333333333</ele><time>2026-03-30T10:40:30.001Z</time></trkpt><trkpt lat="45.98670318684496" lon="12.688028444784786"><ele>47.0</ele><time>2026-03-30T10:40:31.001Z</time></trkpt><trkpt lat="45.98660024093291" lon="12.68786571142589"><ele>47.0</ele><time>2026-03-30T10:40:32.001Z</time></trkpt><trkpt lat="45.98650105175316" lon="12.687715331380941"><ele>47.0</ele><time>2026-03-30T10:40:33.001Z</time></trkpt><trkpt lat="45.986415101876204" lon="12.687570489398864"><ele>47.0</ele><time>2026-03-30T10:40:34.001Z</time></trkpt><trkpt lat="45.98633781945916" lon="12.687427362468302"><ele>47.0</ele><time>2026-03-30T10:40:35.001Z</time></trkpt><trkpt lat="45.986267548208694" lon="12.687291024309552"><ele>47.0</ele><time>2026-03-30T10:40:36.001Z</time></trkpt><trkpt lat="45.98620305002957" lon="12.687162775264074"><ele>47.0</ele><time>2026-03-30T10:40:37.001Z</time></trkpt><trkpt lat="45.986143107653696" lon="12.687044119122751"><ele>47.0</ele><time>2026-03-30T10:40:38.001Z</time></trkpt><trkpt lat="45.98609000504642" lon="12.686932971298033"><ele>47.0</ele><time>2026-03-30T10:40:39.001Z</time></trkpt><trkpt lat="45.986038454648" lon="12.686837243925643"><ele>47.0</ele><time>2026-03-30T10:40:40.001Z</time></trkpt><trkpt lat="45.98599566575622" lon="12.686756693193368"><ele>47.0</ele><time>2026-03-30T10:40:41.001Z</time></trkpt><trkpt lat="45.98593921708548" lon="12.686639722133917"><ele>47.0</ele><time>2026-03-30T10:40:43.001Z</time></trkpt><trkpt lat="45.985908330791396" lon="12.686558818531154"><ele>47.0</ele><time>2026-03-30T10:41:48.001Z</time></trkpt><trkpt lat="45.98586551925101" lon="12.686479443844338"><ele>47.0</ele><time>2026-03-30T10:41:49.001Z</time></trkpt><trkpt lat="45.98580893175225" lon="12.686375764521516"><ele>47.0</ele><time>2026-03-30T10:41:50.001Z</time></trkpt><trkpt lat="45.98571080260293" lon="12.686240346988413"><ele>47.33333333333333</ele><time>2026-03-30T10:41:51.001Z</time></trkpt><trkpt lat="45.985612492413004" lon="12.686079172231365"><ele>47.666666666666664</ele><time>2026-03-30T10:41:52.001Z</time></trkpt><trkpt lat="45.985508932845605" lon="12.685911697210406"><ele>48.0</ele><time>2026-03-30T10:41:53.001Z</time></trkpt><trkpt lat="45.98540472620229" lon="12.685738578945598"><ele>48.0</ele><time>2026-03-30T10:41:54.001Z</time></trkpt><trkpt lat="45.98529740570866" lon="12.685557441659194"><ele>48.0</ele><time>2026-03-30T10:41:55.001Z</time></trkpt><trkpt lat="45.98519619908049" lon="12.685385342324215"><ele>48.0</ele><time>2026-03-30T10:41:56.001Z</time></trkpt><trkpt lat="45.98509979604981" lon="12.68522066294535"><ele>47.5</ele><time>2026-03-30T10:41:57.001Z</time></trkpt><trkpt lat="45.985011308900425" lon="12.685063638396619"><ele>47.0</ele><time>2026-03-30T10:41:58.001Z</time></trkpt><trkpt lat="45.984927540232036" lon="12.684918830115729"><ele>46.5</ele><time>2026-03-30T10:41:59.001Z</time></trkpt><trkpt lat="45.984848085657" lon="12.6847827434964"><ele>46.0</ele><time>2026-03-30T10:42:00.001Z</time></trkpt><trkpt lat="45.984774680419804" lon="12.68465296276389"><ele>46.0</ele><time>2026-03-30T10:42:01.001Z</time></trkpt><trkpt lat="45.98470795173013" lon="12.684526425681796"><ele>46.0</ele><time>2026-03-30T10:42:02.001Z</time></trkpt><trkpt lat="45.984644972804965" lon="12.68440037411817"><ele>46.0</ele><time>2026-03-30T10:42:03.001Z</time></trkpt><trkpt lat="45.98458004827981" lon="12.684272783994968"><ele>46.0</ele><time>2026-03-30T10:42:04.001Z</time></trkpt><trkpt lat="45.98450487997429" lon="12.684143870006682"><ele>46.0</ele><time>2026-03-30T10:42:05.001Z</time></trkpt><trkpt lat="45.9844262704548" lon="12.684013627014453"><ele>45.0</ele><time>2026-03-30T10:42:06.001Z</time></trkpt><trkpt lat="45.98434804971163" lon="12.68387703544721"><ele>44.0</ele><time>2026-03-30T10:42:07.001Z</time></trkpt><trkpt lat="45.984272320866715" lon="12.683732225891179"><ele>43.0</ele><time>2026-03-30T10:42:08.001Z</time></trkpt><trkpt lat="45.98419188527138" lon="12.683580843674553"><ele>42.0</ele><time>2026-03-30T10:42:09.001Z</time></trkpt><trkpt lat="45.98410524702855" lon="12.683420335254686"><ele>42.0</ele><time>2026-03-30T10:42:10.001Z</time></trkpt><trkpt lat="45.9840149911374" lon="12.683256773965983"><ele>42.0</ele><time>2026-03-30T10:42:11.001Z</time></trkpt><trkpt lat="45.983919416831725" lon="12.683091296460445"><ele>42.0</ele><time>2026-03-30T10:42:12.001Z</time></trkpt><trkpt lat="45.983823301184685" lon="12.682921951213965"><ele>42.0</ele><time>2026-03-30T10:42:13.001Z</time></trkpt><trkpt lat="45.983740649145325" lon="12.68273693552811"><ele>42.333333333333336</ele><time>2026-03-30T10:42:14.001Z</time></trkpt><trkpt lat="45.98364200630881" lon="12.682561964259436"><ele>42.66666666666667</ele><time>2026-03-30T10:42:15.001Z</time></trkpt><trkpt lat="45.98352700809884" lon="12.682401271312"><ele>43.0</ele><time>2026-03-30T10:42:16.001Z</time></trkpt><trkpt lat="45.98342283103513" lon="12.68222389600997"><ele>43.333333333333336</ele><time>2026-03-30T10:42:17.001Z</time></trkpt><trkpt lat="45.9833175703986" lon="12.68205296936316"><ele>43.666666666666664</ele><time>2026-03-30T10:42:18.001Z</time></trkpt><trkpt lat="45.98321179646294" lon="12.681882700421879"><ele>44.0</ele><time>2026-03-30T10:42:19.001Z</time></trkpt><trkpt lat="45.983105484140964" lon="12.68171992198647"><ele>44.666666666666664</ele><time>2026-03-30T10:42:20.001Z</time></trkpt><trkpt lat="45.98299710265109" lon="12.681559444005028"><ele>45.333333333333336</ele><time>2026-03-30T10:42:21.001Z</time></trkpt><trkpt lat="45.98290029824336" lon="12.681385677323124"><ele>46.0</ele><time>2026-03-30T10:42:22.001Z</time></trkpt><trkpt lat="45.98279327786383" lon="12.68122356984319"><ele>46.0</ele><time>2026-03-30T10:42:23.001Z</time></trkpt><trkpt lat="45.98268669832547" lon="12.681062130149767"><ele>46.0</ele><time>2026-03-30T10:42:24.001Z</time></trkpt><trkpt lat="45.98258122521206" lon="12.680902363248496"><ele>46.0</ele><time>2026-03-30T10:42:25.001Z</time></trkpt><trkpt lat="45.982477369192516" lon="12.680745770026613"><ele>45.66666666666667</ele><time>2026-03-30T10:42:26.001Z</time></trkpt><trkpt lat="45.982364370940935" lon="12.680596132300947"><ele>45.333333333333336</ele><time>2026-03-30T10:42:27.001Z</time></trkpt><trkpt lat="45.982259524609454" lon="12.680430998485626"><ele>45.0</ele><time>2026-03-30T10:42:28.001Z</time></trkpt><trkpt lat="45.98215391978371" lon="12.68027119947739"><ele>45.0</ele><time>2026-03-30T10:42:29.001Z</time></trkpt><trkpt lat="45.98204837917764" lon="12.680105366773981"><ele>45.0</ele><time>2026-03-30T10:42:30.001Z</time></trkpt><trkpt lat="45.98194021533165" lon="12.67994141114715"><ele>45.0</ele><time>2026-03-30T10:42:31.001Z</time></trkpt><trkpt lat="45.98183386127665" lon="12.67978281870188"><ele>45.0</ele><time>2026-03-30T10:42:32.001Z</time></trkpt><trkpt lat="45.9817331409202" lon="12.679632441629412"><ele>45.0</ele><time>2026-03-30T10:42:33.001Z</time></trkpt><trkpt lat="45.981636599041266" lon="12.679486972673377"><ele>45.0</ele><time>2026-03-30T10:42:34.001Z</time></trkpt><trkpt lat="45.981537392092434" lon="12.679330515882862"><ele>45.0</ele><time>2026-03-30T10:42:35.001Z</time></trkpt><trkpt lat="45.981435096526155" lon="12.67917085699037"><ele>44.666666666666664</ele><time>2026-03-30T10:42:36.001Z</time></trkpt><trkpt lat="45.981333444802395" lon="12.679007685742244"><ele>44.33333333333333</ele><time>2026-03-30T10:42:37.001Z</time></trkpt><trkpt lat="45.981234603138425" lon="12.678836946149133"><ele>44.0</ele><time>2026-03-30T10:42:38.001Z</time></trkpt><trkpt lat="45.98114062666945" lon="12.678654429913205"><ele>43.33333333333333</ele><time>2026-03-30T10:42:39.001Z</time></trkpt><trkpt lat="45.981069680671006" lon="12.678451030084368"><ele>42.666666666666664</ele><time>2026-03-30T10:42:40.001Z</time></trkpt><trkpt lat="45.98098929021505" lon="12.678255541275801"><ele>42.0</ele><time>2026-03-30T10:42:41.001Z</time></trkpt><trkpt lat="45.98089867599576" lon="12.67806544621009"><ele>42.0</ele><time>2026-03-30T10:42:42.001Z</time></trkpt><trkpt lat="45.98083081284496" lon="12.677859001594088"><ele>42.0</ele><time>2026-03-30T10:42:43.001Z</time></trkpt><trkpt lat="45.98076526548878" lon="12.677646674546367"><ele>42.0</ele><time>2026-03-30T10:42:44.001Z</time></trkpt><trkpt lat="45.980699588439485" lon="12.67743024371238"><ele>42.666666666666664</ele><time>2026-03-30T10:42:45.001Z</time></trkpt><trkpt lat="45.98063709264792" lon="12.677214778557595"><ele>43.33333333333333</ele><time>2026-03-30T10:42:46.001Z</time></trkpt><trkpt lat="45.98057738962114" lon="12.676999095412679"><ele>44.0</ele><time>2026-03-30T10:42:47.001Z</time></trkpt><trkpt lat="45.98052197546913" lon="12.676782087241376"><ele>44.25</ele><time>2026-03-30T10:42:48.001Z</time></trkpt><trkpt lat="45.98047297164976" lon="12.676575532847924"><ele>44.5</ele><time>2026-03-30T10:42:49.001Z</time></trkpt><trkpt lat="45.980424623364314" lon="12.676380036808197"><ele>44.75</ele><time>2026-03-30T10:42:50.001Z</time></trkpt><trkpt lat="45.98037947483946" lon="12.676193105027393"><ele>45.0</ele><time>2026-03-30T10:42:51.001Z</time></trkpt><trkpt lat="45.98033190517834" lon="12.676001305829816"><ele>46.0</ele><time>2026-03-30T10:42:52.001Z</time></trkpt><trkpt lat="45.98027745024986" lon="12.675794091337373"><ele>47.0</ele><time>2026-03-30T10:42:53.001Z</time></trkpt><trkpt lat="45.98022171459717" lon="12.675598360185338"><ele>48.0</ele><time>2026-03-30T10:42:54.001Z</time></trkpt><trkpt lat="45.98017839433098" lon="12.675369325387665"><ele>47.666666666666664</ele><time>2026-03-30T10:42:55.001Z</time></trkpt><trkpt lat="45.9801251383315" lon="12.675156013910392"><ele>47.33333333333333</ele><time>2026-03-30T10:42:56.001Z</time></trkpt><trkpt lat="45.980071512138466" lon="12.67493929574225"><ele>47.0</ele><time>2026-03-30T10:42:57.001Z</time></trkpt><trkpt lat="45.98001530964426" lon="12.674712166070885"><ele>45.0</ele><time>2026-03-30T10:42:58.001Z</time></trkpt><trkpt lat="45.97994395902771" lon="12.674489587420744"><ele>43.0</ele><time>2026-03-30T10:42:59.001Z</time></trkpt><trkpt lat="45.97989099325449" lon="12.674274586642788"><ele>41.0</ele><time>2026-03-30T10:43:00.001Z</time></trkpt><trkpt lat="45.97984958993127" lon="12.674083667517108"><ele>41.0</ele><time>2026-03-30T10:43:01Z</time></trkpt><trkpt lat="45.97980491026349" lon="12.67389856515593"><ele>41.0</ele><time>2026-03-30T10:43:02Z</time></trkpt><trkpt lat="45.97975677531416" lon="12.673701327014008"><ele>41.0</ele><time>2026-03-30T10:43:03Z</time></trkpt><trkpt lat="45.97970138454814" lon="12.673483572537616"><ele>41.0</ele><time>2026-03-30T10:43:04Z</time></trkpt><trkpt lat="45.979636975637696" lon="12.673238146049197"><ele>41.0</ele><time>2026-03-30T10:43:05Z</time></trkpt><trkpt lat="45.97956775277227" lon="12.67297338572236"><ele>41.0</ele><time>2026-03-30T10:43:06Z</time></trkpt><trkpt lat="45.97949638144861" lon="12.672659928611223"><ele>41.0</ele><time>2026-03-30T10:43:07Z</time></trkpt><trkpt lat="45.97942364886632" lon="12.672327183962963"><ele>42.0</ele><time>2026-03-30T10:43:08Z</time></trkpt><trkpt lat="45.97934400656041" lon="12.671971504317513"><ele>43.0</ele><time>2026-03-30T10:43:09Z</time></trkpt><trkpt lat="45.979268270850405" lon="12.671631672644459"><ele>43.0</ele><time>2026-03-30T10:43:10Z</time></trkpt><trkpt lat="45.97919396508273" lon="12.671315970667964"><ele>43.0</ele><time>2026-03-30T10:43:11Z</time></trkpt><trkpt lat="45.979120369789726" lon="12.671028110050958"><ele>43.0</ele><time>2026-03-30T10:43:12Z</time></trkpt><trkpt lat="45.9790450340777" lon="12.670757237213872"><ele>43.0</ele><time>2026-03-30T10:43:13Z</time></trkpt><trkpt lat="45.97899149507885" lon="12.670476567007325"><ele>43.0</ele><time>2026-03-30T10:43:14Z</time></trkpt><trkpt lat="45.9789098916248" lon="12.67021705244352"><ele>43.0</ele><time>2026-03-30T10:43:15Z</time></trkpt><trkpt lat="45.97885234090158" lon="12.669967998266003"><ele>43.0</ele><time>2026-03-30T10:43:16Z</time></trkpt><trkpt lat="45.978793866307264" lon="12.669717365165223"><ele>43.0</ele><time>2026-03-30T10:43:17Z</time></trkpt><trkpt lat="45.97873544403696" lon="12.669459066930852"><ele>43.0</ele><time>2026-03-30T10:43:18Z</time></trkpt><trkpt lat="45.97868105112482" lon="12.669196061602637"><ele>43.0</ele><time>2026-03-30T10:43:19Z</time></trkpt><trkpt lat="45.97863249103047" lon="12.668934702163801"><ele>43.0</ele><time>2026-03-30T10:43:20Z</time></trkpt><trkpt lat="45.97859351909495" lon="12.668689624063605"><ele>43.0</ele><time>2026-03-30T10:43:21Z</time></trkpt><trkpt lat="45.978556205892005" lon="12.668459050611736"><ele>43.0</ele><time>2026-03-30T10:43:22Z</time></trkpt><trkpt lat="45.97854328290544" lon="12.668224874910925"><ele>43.0</ele><time>2026-03-30T10:43:23Z</time></trkpt><trkpt lat="45.97851546778957" lon="12.667995082365971"><ele>43.0</ele><time>2026-03-30T10:43:24Z</time></trkpt><trkpt lat="45.978485675925796" lon="12.667770375782721"><ele>42.66666666666667</ele><time>2026-03-30T10:43:25Z</time></trkpt><trkpt lat="45.97844822648145" lon="12.667536526189656"><ele>42.333333333333336</ele><time>2026-03-30T10:43:26Z</time></trkpt><trkpt lat="45.9784011778693" lon="12.667312982861992"><ele>42.0</ele><time>2026-03-30T10:43:27Z</time></trkpt><trkpt lat="45.9783438056538" lon="12.667081111336776"><ele>42.666666666666664</ele><time>2026-03-30T10:43:28Z</time></trkpt><trkpt lat="45.97827931051247" lon="12.66685384198309"><ele>43.33333333333333</ele><time>2026-03-30T10:43:29Z</time></trkpt><trkpt lat="45.978210089103044" lon="12.666633926457527"><ele>44.0</ele><time>2026-03-30T10:43:30Z</time></trkpt><trkpt lat="45.978114078534034" lon="12.666427617867278"><ele>44.0</ele><time>2026-03-30T10:43:31Z</time></trkpt><trkpt lat="45.9780371764334" lon="12.666212394303844"><ele>44.0</ele><time>2026-03-30T10:43:32Z</time></trkpt><trkpt lat="45.97796159602742" lon="12.666015701734041"><ele>44.0</ele><time>2026-03-30T10:43:33Z</time></trkpt><trkpt lat="45.97787925781848" lon="12.66581693367289"><ele>44.0</ele><time>2026-03-30T10:43:34Z</time></trkpt><trkpt lat="45.97779251675375" lon="12.66561273324203"><ele>44.0</ele><time>2026-03-30T10:43:35Z</time></trkpt><trkpt lat="45.97772436500564" lon="12.665390918793134"><ele>44.0</ele><time>2026-03-30T10:43:36Z</time></trkpt><trkpt lat="45.97765108168863" lon="12.665175980741154"><ele>44.0</ele><time>2026-03-30T10:43:37Z</time></trkpt><trkpt lat="45.97758520765615" lon="12.664953840346236"><ele>44.0</ele><time>2026-03-30T10:43:38Z</time></trkpt><trkpt lat="45.977522430336535" lon="12.664721724925739"><ele>44.0</ele><time>2026-03-30T10:43:39Z</time></trkpt><trkpt lat="45.97744035745854" lon="12.664491492958403"><ele>43.33333333333333</ele><time>2026-03-30T10:43:40.001Z</time></trkpt><trkpt lat="45.977378271456224" lon="12.664254612559345"><ele>42.666666666666664</ele><time>2026-03-30T10:43:41.001Z</time></trkpt><trkpt lat="45.977314219966956" lon="12.664033072034204"><ele>42.0</ele><time>2026-03-30T10:43:42.001Z</time></trkpt><trkpt lat="45.977269222937174" lon="12.663814890077008"><ele>42.0</ele><time>2026-03-30T10:43:43.001Z</time></trkpt><trkpt lat="45.977198549283415" lon="12.663613060443788"><ele>42.0</ele><time>2026-03-30T10:43:44.001Z</time></trkpt><trkpt lat="45.9771477168746" lon="12.663386253411455"><ele>42.0</ele><time>2026-03-30T10:43:45.001Z</time></trkpt><trkpt lat="45.97710334258401" lon="12.663157590585786"><ele>42.0</ele><time>2026-03-30T10:43:46.001Z</time></trkpt><trkpt lat="45.9770881285825" lon="12.662928553839565"><ele>42.0</ele><time>2026-03-30T10:43:47.001Z</time></trkpt><trkpt lat="45.97706234310591" lon="12.662704560189553"><ele>42.0</ele><time>2026-03-30T10:43:48.001Z</time></trkpt><trkpt lat="45.977035712541465" lon="12.662483118687643"><ele>42.0</ele><time>2026-03-30T10:43:49.001Z</time></trkpt><trkpt lat="45.97700834232435" lon="12.662255526526835"><ele>42.0</ele><time>2026-03-30T10:43:50.001Z</time></trkpt><trkpt lat="45.97698104724378" lon="12.6620285593328"><ele>42.0</ele><time>2026-03-30T10:43:51.001Z</time></trkpt><trkpt lat="45.97695204483994" lon="12.66179683468431"><ele>42.0</ele><time>2026-03-30T10:43:52.001Z</time></trkpt><trkpt lat="45.97691832143871" lon="12.661531123571235"><ele>42.0</ele><time>2026-03-30T10:43:53.001Z</time></trkpt><trkpt lat="45.976871790653924" lon="12.661227985413895"><ele>42.0</ele><time>2026-03-30T10:43:54.001Z</time></trkpt><trkpt lat="45.976807272890476" lon="12.66091738026569"><ele>42.0</ele><time>2026-03-30T10:43:55.001Z</time></trkpt><trkpt lat="45.97674226944592" lon="12.66063735369701"><ele>42.0</ele><time>2026-03-30T10:43:56.001Z</time></trkpt><trkpt lat="45.976679826978994" lon="12.660378409097317"><ele>42.0</ele><time>2026-03-30T10:43:57.001Z</time></trkpt><trkpt lat="45.976605201108114" lon="12.660140129695014"><ele>42.0</ele><time>2026-03-30T10:43:58.001Z</time></trkpt><trkpt lat="45.97655894404829" lon="12.659902875571815"><ele>42.0</ele><time>2026-03-30T10:43:59.001Z</time></trkpt><trkpt lat="45.976509449793284" lon="12.659685070442995"><ele>42.0</ele><time>2026-03-30T10:44:00.001Z</time></trkpt><trkpt lat="45.976462470115095" lon="12.659477375993719"><ele>41.75</ele><time>2026-03-30T10:44:01.001Z</time></trkpt><trkpt lat="45.97641878671944" lon="12.65928247120759"><ele>41.5</ele><time>2026-03-30T10:44:02.001Z</time></trkpt><trkpt lat="45.976376141069814" lon="12.659087663014894"><ele>41.25</ele><time>2026-03-30T10:44:03.001Z</time></trkpt><trkpt lat="45.97633321829165" lon="12.658886908407046"><ele>41.0</ele><time>2026-03-30T10:44:04.001Z</time></trkpt><trkpt lat="45.97629182090856" lon="12.658696572614735"><ele>40.599999999999994</ele><time>2026-03-30T10:44:05.001Z</time></trkpt><trkpt lat="45.9762554417623" lon="12.658521187949402"><ele>40.199999999999996</ele><time>2026-03-30T10:44:06.001Z</time></trkpt><trkpt lat="45.97622231150775" lon="12.658360318961604"><ele>39.8</ele><time>2026-03-30T10:44:07.001Z</time></trkpt><trkpt lat="45.97619217618263" lon="12.65821762592033"><ele>39.4</ele><time>2026-03-30T10:44:08.001Z</time></trkpt><trkpt lat="45.97617045338497" lon="12.658084997611738"><ele>39.0</ele><time>2026-03-30T10:44:09.001Z</time></trkpt><trkpt lat="45.97616563853872" lon="12.657962801469608"><ele>39.0</ele><time>2026-03-30T10:44:10.001Z</time></trkpt><trkpt lat="45.976156488574674" lon="12.65784891449201"><ele>39.0</ele><time>2026-03-30T10:44:11.001Z</time></trkpt><trkpt lat="45.976128306756216" lon="12.657751510961237"><ele>39.0</ele><time>2026-03-30T10:44:12.001Z</time></trkpt><trkpt lat="45.97606762305057" lon="12.657656777190411"><ele>39.0</ele><time>2026-03-30T10:44:13.001Z</time></trkpt><trkpt lat="45.976003800284865" lon="12.65756782988496"><ele>39.0</ele><time>2026-03-30T10:44:14.001Z</time></trkpt><trkpt lat="45.975954140915114" lon="12.65744814015919"><ele>39.0</ele><time>2026-03-30T10:44:15.001Z</time></trkpt><trkpt lat="45.97589459038421" lon="12.657275786143474"><ele>39.0</ele><time>2026-03-30T10:44:16.001Z</time></trkpt><trkpt lat="45.97583910830171" lon="12.657040774002597"><ele>39.0</ele><time>2026-03-30T10:44:17.001Z</time></trkpt><trkpt lat="45.97573364237272" lon="12.656813674761024"><ele>39.0</ele><time>2026-03-30T10:44:18.001Z</time></trkpt><trkpt lat="45.97565354301141" lon="12.65657754303038"><ele>39.666666666666664</ele><time>2026-03-30T10:44:19.001Z</time></trkpt><trkpt lat="45.975575695460044" lon="12.656363524271859"><ele>40.33333333333333</ele><time>2026-03-30T10:44:20.001Z</time></trkpt><trkpt lat="45.97551073790838" lon="12.656165846699109"><ele>41.0</ele><time>2026-03-30T10:44:21.001Z</time></trkpt><trkpt lat="45.97546712884112" lon="12.65597165046586"><ele>41.0</ele><time>2026-03-30T10:44:22.001Z</time></trkpt><trkpt lat="45.97544146399606" lon="12.655794812823757"><ele>41.0</ele><time>2026-03-30T10:44:23.001Z</time></trkpt><trkpt lat="45.97542801269294" lon="12.655631028438322"><ele>41.0</ele><time>2026-03-30T10:44:24.001Z</time></trkpt><trkpt lat="45.97541900505978" lon="12.655457682595602"><ele>41.0</ele><time>2026-03-30T10:44:25.001Z</time></trkpt><trkpt lat="45.975405639775424" lon="12.655266004066464"><ele>40.0</ele><time>2026-03-30T10:44:26.001Z</time></trkpt><trkpt lat="45.975392192874295" lon="12.655060815554268"><ele>39.0</ele><time>2026-03-30T10:44:27.001Z</time></trkpt><trkpt lat="45.97538112685335" lon="12.654866882792325"><ele>38.0</ele><time>2026-03-30T10:44:28.001Z</time></trkpt><trkpt lat="45.97536928195474" lon="12.654679068652506"><ele>37.0</ele><time>2026-03-30T10:44:29.001Z</time></trkpt><trkpt lat="45.97535359618951" lon="12.65449273731702"><ele>37.25</ele><time>2026-03-30T10:44:30.001Z</time></trkpt><trkpt lat="45.97533464782695" lon="12.654310702630658"><ele>37.5</ele><time>2026-03-30T10:44:31.001Z</time></trkpt><trkpt lat="45.97531438261785" lon="12.654132587316333"><ele>37.75</ele><time>2026-03-30T10:44:32.001Z</time></trkpt><trkpt lat="45.97529286676568" lon="12.653957860009378"><ele>38.0</ele><time>2026-03-30T10:44:33.001Z</time></trkpt><trkpt lat="45.975270965958885" lon="12.653784460626722"><ele>39.0</ele><time>2026-03-30T10:44:34.001Z</time></trkpt><trkpt lat="45.97524797575216" lon="12.653612301857958"><ele>40.0</ele><time>2026-03-30T10:44:35.001Z</time></trkpt><trkpt lat="45.97522393498251" lon="12.653440697610888"><ele>41.0</ele><time>2026-03-30T10:44:36.001Z</time></trkpt><trkpt lat="45.975196065946555" lon="12.65327067599872"><ele>42.0</ele><time>2026-03-30T10:44:37.001Z</time></trkpt><trkpt lat="45.97516643373135" lon="12.65309920535271"><ele>42.0</ele><time>2026-03-30T10:44:38.001Z</time></trkpt><trkpt lat="45.97513488689582" lon="12.652925777347976"><ele>42.0</ele><time>2026-03-30T10:44:39.001Z</time></trkpt><trkpt lat="45.975099144763945" lon="12.652752453067878"><ele>42.0</ele><time>2026-03-30T10:44:40.001Z</time></trkpt><trkpt lat="45.975058524578145" lon="12.652576492309452"><ele>42.0</ele><time>2026-03-30T10:44:41.001Z</time></trkpt><trkpt lat="45.97501405456064" lon="12.652400178892382"><ele>42.0</ele><time>2026-03-30T10:44:42.001Z</time></trkpt><trkpt lat="45.97496631447131" lon="12.652221593839307"><ele>42.0</ele><time>2026-03-30T10:44:43.001Z</time></trkpt><trkpt lat="45.97491610291225" lon="12.652041554458132"><ele>42.0</ele><time>2026-03-30T10:44:44.001Z</time></trkpt><trkpt lat="45.97486542858217" lon="12.651859257755824"><ele>42.0</ele><time>2026-03-30T10:44:45.001Z</time></trkpt><trkpt lat="45.97481549526652" lon="12.651672148170743"><ele>42.0</ele><time>2026-03-30T10:44:46.001Z</time></trkpt><trkpt lat="45.97476740249395" lon="12.651484901636442"><ele>42.0</ele><time>2026-03-30T10:44:47.001Z</time></trkpt><trkpt lat="45.974721581661974" lon="12.651310980035278"><ele>42.0</ele><time>2026-03-30T10:44:48.001Z</time></trkpt><trkpt lat="45.97467715800713" lon="12.651145358388566"><ele>42.0</ele><time>2026-03-30T10:44:49.001Z</time></trkpt><trkpt lat="45.974628542948444" lon="12.650975612937728"><ele>42.25</ele><time>2026-03-30T10:44:50.001Z</time></trkpt><trkpt lat="45.974579324530346" lon="12.650803623154523"><ele>42.5</ele><time>2026-03-30T10:44:51.001Z</time></trkpt><trkpt lat="45.97452969206351" lon="12.650628009844773"><ele>42.75</ele><time>2026-03-30T10:44:52.001Z</time></trkpt><trkpt lat="45.97447728751763" lon="12.650446178774292"><ele>43.0</ele><time>2026-03-30T10:44:53.001Z</time></trkpt><trkpt lat="45.974422523259875" lon="12.650258124516387"><ele>43.25</ele><time>2026-03-30T10:44:54.001Z</time></trkpt><trkpt lat="45.97437075017778" lon="12.650065219785724"><ele>43.5</ele><time>2026-03-30T10:44:55.001Z</time></trkpt><trkpt lat="45.9743227928678" lon="12.649887260142755"><ele>43.75</ele><time>2026-03-30T10:44:56.001Z</time></trkpt><trkpt lat="45.97428107618587" lon="12.649722181720554"><ele>44.0</ele><time>2026-03-30T10:44:57Z</time></trkpt><trkpt lat="45.97424767264272" lon="12.649585162949514"><ele>44.0</ele><time>2026-03-30T10:44:58Z</time></trkpt><trkpt lat="45.97421807434014" lon="12.649472630090635"><ele>44.0</ele><time>2026-03-30T10:44:59Z</time></trkpt><trkpt lat="45.97418545289066" lon="12.64933758196165"><ele>44.0</ele><time>2026-03-30T10:45:01Z</time></trkpt><trkpt lat="45.97418289576953" lon="12.649241766830906"><ele>44.0</ele><time>2026-03-30T10:45:06Z</time></trkpt><trkpt lat="45.974182146144194" lon="12.649083571837554"><ele>44.0</ele><time>2026-03-30T10:45:09Z</time></trkpt><trkpt lat="45.974164617688835" lon="12.648984112333162"><ele>44.0</ele><time>2026-03-30T10:45:10Z</time></trkpt><trkpt lat="45.97412269603334" lon="12.648892603970888"><ele>43.83333333333333</ele><time>2026-03-30T10:45:11Z</time></trkpt><trkpt lat="45.97406496117868" lon="12.648797926252618"><ele>43.666666666666664</ele><time>2026-03-30T10:45:12Z</time></trkpt><trkpt lat="45.97401127219475" lon="12.648699872150257"><ele>43.5</ele><time>2026-03-30T10:45:13Z</time></trkpt><trkpt lat="45.97397970666224" lon="12.648597807236028"><ele>43.333333333333336</ele><time>2026-03-30T10:45:14Z</time></trkpt><trkpt lat="45.9739491654359" lon="12.648480812783173"><ele>43.16666666666667</ele><time>2026-03-30T10:45:15Z</time></trkpt><trkpt lat="45.97391314345281" lon="12.648348991237384"><ele>43.0</ele><time>2026-03-30T10:45:16Z</time></trkpt><trkpt lat="45.97387581060998" lon="12.648207618913231"><ele>43.4</ele><time>2026-03-30T10:45:17Z</time></trkpt><trkpt lat="45.97384787504124" lon="12.648081399127259"><ele>43.8</ele><time>2026-03-30T10:45:18Z</time></trkpt><trkpt lat="45.97382556604299" lon="12.647980089330433"><ele>44.2</ele><time>2026-03-30T10:45:19Z</time></trkpt><trkpt lat="45.97383517610107" lon="12.647834314771707"><ele>44.6</ele><time>2026-03-30T10:45:21Z</time></trkpt><trkpt lat="45.9738711240267" lon="12.64771021015178"><ele>45.0</ele><time>2026-03-30T10:45:23Z</time></trkpt><trkpt lat="45.973835287150294" lon="12.647545598820212"><ele>45.0</ele><time>2026-03-30T10:45:25Z</time></trkpt><trkpt lat="45.97376141698894" lon="12.647525620119524"><ele>45.0</ele><time>2026-03-30T10:45:26Z</time></trkpt><trkpt lat="45.97387439821308" lon="12.647385307616284"><ele>45.0</ele><time>2026-03-30T10:45:33Z</time></trkpt></trkseg></trk></gpx>